<?xml version="1.0" encoding="UTF-8" standalone="no" ?>
<gpx xmlns="http://www.topografix.com/GPX/1/1" xmlns:xsi="http://www.w3.org/2001/XMLSchema-instance" xsi:schemaLocation="http://www.topografix.com/GPX/1/1 http://www.topografix.com/GPX/1/1/gpx.xsd" version="1.1" creator="VisuGPX - https://www.visugpx.com">
  <metadata>
    <name>Les 3 bonnes</name>
    <desc><![CDATA[Les 3 trois bonnesLes 3 trois bonnesLes 3 trois bonnesLes 3 trois bonnesLes 3 trois bonnes]]></desc>
  </metadata>
  <wpt lat="47.49148" lon="6.76857">
    <ele>368.6</ele>
    <name><![CDATA[Point de cheminement 1]]></name>
    <desc><![CDATA[]]></desc>
  </wpt>
  <wpt lat="47.46923" lon="6.74514">
    <ele>400.6</ele>
    <name><![CDATA[Point de cheminement 2]]></name>
    <desc><![CDATA[]]></desc>
  </wpt>
  <wpt lat="47.43767" lon="6.72336">
    <ele>515.5</ele>
    <name><![CDATA[Point de cheminement 3]]></name>
    <desc><![CDATA[]]></desc>
  </wpt>
  <wpt lat="47.41035" lon="6.71055">
    <ele>447.5</ele>
    <name><![CDATA[Point de cheminement 4]]></name>
    <desc><![CDATA[]]></desc>
  </wpt>
  <wpt lat="47.40116" lon="6.70382">
    <ele>532.8</ele>
    <name><![CDATA[Point de cheminement 5]]></name>
    <desc><![CDATA[]]></desc>
  </wpt>
  <wpt lat="47.43159" lon="6.71271">
    <ele>496.2</ele>
    <name><![CDATA[Point de cheminement 6]]></name>
    <desc><![CDATA[]]></desc>
  </wpt>
  <wpt lat="47.46137" lon="6.74234">
    <ele>468</ele>
    <name><![CDATA[Point de cheminement 7]]></name>
    <desc><![CDATA[]]></desc>
  </wpt>
  <wpt lat="47.48672" lon="6.77136">
    <ele>355.8</ele>
    <name><![CDATA[Point de cheminement 8]]></name>
    <desc><![CDATA[]]></desc>
  </wpt>
  <trk>
    <name><![CDATA[18 Rue Antoine Coysevox]]></name>
    <desc><![CDATA[]]></desc>
    <trkseg>
      <trkpt lat="47.51821" lon="6.77486">
        <ele>431.1</ele>
        <time>2017-02-12T08:11:55.751Z</time>
      </trkpt>
      <trkpt lat="47.51806" lon="6.77492">
        <ele>437.9</ele>
        <time>2017-02-12T08:12:02.738Z</time>
      </trkpt>
      <trkpt lat="47.51806" lon="6.77492">
        <ele>435.4</ele>
        <time>2017-02-12T08:14:10.000Z</time>
      </trkpt>
      <trkpt lat="47.51796" lon="6.77486">
        <ele>435.5</ele>
        <time>2017-02-12T08:14:11.000Z</time>
      </trkpt>
      <trkpt lat="47.51793" lon="6.77486">
        <ele>435.6</ele>
        <time>2017-02-12T08:14:12.000Z</time>
      </trkpt>
      <trkpt lat="47.51791" lon="6.77486">
        <ele>435.8</ele>
        <time>2017-02-12T08:14:13.000Z</time>
      </trkpt>
      <trkpt lat="47.51788" lon="6.77485">
        <ele>435.9</ele>
        <time>2017-02-12T08:14:14.000Z</time>
      </trkpt>
      <trkpt lat="47.51786" lon="6.77484">
        <ele>436</ele>
        <time>2017-02-12T08:14:15.000Z</time>
      </trkpt>
      <trkpt lat="47.51783" lon="6.77483">
        <ele>436.1</ele>
        <time>2017-02-12T08:14:16.000Z</time>
      </trkpt>
      <trkpt lat="47.5178" lon="6.77483">
        <ele>436.1</ele>
        <time>2017-02-12T08:14:17.000Z</time>
      </trkpt>
      <trkpt lat="47.51776" lon="6.77483">
        <ele>436.3</ele>
        <time>2017-02-12T08:14:18.000Z</time>
      </trkpt>
      <trkpt lat="47.51773" lon="6.77482">
        <ele>436.4</ele>
        <time>2017-02-12T08:14:19.000Z</time>
      </trkpt>
      <trkpt lat="47.5177" lon="6.77482">
        <ele>436.6</ele>
        <time>2017-02-12T08:14:20.000Z</time>
      </trkpt>
      <trkpt lat="47.51767" lon="6.77482">
        <ele>436.7</ele>
        <time>2017-02-12T08:14:21.000Z</time>
      </trkpt>
      <trkpt lat="47.51763" lon="6.77481">
        <ele>437.3</ele>
        <time>2017-02-12T08:14:23.000Z</time>
      </trkpt>
      <trkpt lat="47.5176" lon="6.7748">
        <ele>441</ele>
        <time>2017-02-12T08:14:24.000Z</time>
      </trkpt>
      <trkpt lat="47.51757" lon="6.7748">
        <ele>443.2</ele>
        <time>2017-02-12T08:14:25.000Z</time>
      </trkpt>
      <trkpt lat="47.51752" lon="6.7748">
        <ele>443.9</ele>
        <time>2017-02-12T08:14:26.000Z</time>
      </trkpt>
      <trkpt lat="47.51748" lon="6.77479">
        <ele>443.8</ele>
        <time>2017-02-12T08:14:27.000Z</time>
      </trkpt>
      <trkpt lat="47.51744" lon="6.77478">
        <ele>443.8</ele>
        <time>2017-02-12T08:14:28.000Z</time>
      </trkpt>
      <trkpt lat="47.5174" lon="6.77479">
        <ele>443.8</ele>
        <time>2017-02-12T08:14:29.000Z</time>
      </trkpt>
      <trkpt lat="47.51736" lon="6.77482">
        <ele>443.4</ele>
        <time>2017-02-12T08:14:30.000Z</time>
      </trkpt>
      <trkpt lat="47.51732" lon="6.77486">
        <ele>443.1</ele>
        <time>2017-02-12T08:14:31.000Z</time>
      </trkpt>
      <trkpt lat="47.51728" lon="6.77493">
        <ele>442.5</ele>
        <time>2017-02-12T08:14:32.000Z</time>
      </trkpt>
      <trkpt lat="47.51726" lon="6.77499">
        <ele>442.3</ele>
        <time>2017-02-12T08:14:33.000Z</time>
      </trkpt>
      <trkpt lat="47.51724" lon="6.77507">
        <ele>441.9</ele>
        <time>2017-02-12T08:14:34.000Z</time>
      </trkpt>
      <trkpt lat="47.51722" lon="6.77513">
        <ele>440.8</ele>
        <time>2017-02-12T08:14:35.000Z</time>
      </trkpt>
      <trkpt lat="47.5172" lon="6.77519">
        <ele>440.6</ele>
        <time>2017-02-12T08:14:36.000Z</time>
      </trkpt>
      <trkpt lat="47.51719" lon="6.77526">
        <ele>440.5</ele>
        <time>2017-02-12T08:14:37.000Z</time>
      </trkpt>
      <trkpt lat="47.51717" lon="6.77534">
        <ele>440.9</ele>
        <time>2017-02-12T08:14:38.000Z</time>
      </trkpt>
      <trkpt lat="47.51715" lon="6.7754">
        <ele>441.2</ele>
        <time>2017-02-12T08:14:39.000Z</time>
      </trkpt>
      <trkpt lat="47.51713" lon="6.77544">
        <ele>441.1</ele>
        <time>2017-02-12T08:14:40.000Z</time>
      </trkpt>
      <trkpt lat="47.5171" lon="6.77547">
        <ele>440.5</ele>
        <time>2017-02-12T08:14:41.000Z</time>
      </trkpt>
      <trkpt lat="47.51706" lon="6.77548">
        <ele>439.9</ele>
        <time>2017-02-12T08:14:42.000Z</time>
      </trkpt>
      <trkpt lat="47.517" lon="6.77546">
        <ele>439</ele>
        <time>2017-02-12T08:14:43.000Z</time>
      </trkpt>
      <trkpt lat="47.51695" lon="6.77542">
        <ele>438.8</ele>
        <time>2017-02-12T08:14:44.000Z</time>
      </trkpt>
      <trkpt lat="47.51691" lon="6.77538">
        <ele>439</ele>
        <time>2017-02-12T08:14:45.000Z</time>
      </trkpt>
      <trkpt lat="47.51686" lon="6.77532">
        <ele>438.7</ele>
        <time>2017-02-12T08:14:46.000Z</time>
      </trkpt>
      <trkpt lat="47.5168" lon="6.77525">
        <ele>438.5</ele>
        <time>2017-02-12T08:14:47.000Z</time>
      </trkpt>
      <trkpt lat="47.51673" lon="6.77517">
        <ele>438.1</ele>
        <time>2017-02-12T08:14:48.000Z</time>
      </trkpt>
      <trkpt lat="47.51667" lon="6.7751">
        <ele>437.4</ele>
        <time>2017-02-12T08:14:49.000Z</time>
      </trkpt>
      <trkpt lat="47.5166" lon="6.77502">
        <ele>436.8</ele>
        <time>2017-02-12T08:14:50.000Z</time>
      </trkpt>
      <trkpt lat="47.51653" lon="6.77494">
        <ele>436.3</ele>
        <time>2017-02-12T08:14:51.000Z</time>
      </trkpt>
      <trkpt lat="47.51647" lon="6.77487">
        <ele>435.7</ele>
        <time>2017-02-12T08:14:52.000Z</time>
      </trkpt>
      <trkpt lat="47.5164" lon="6.77479">
        <ele>435.2</ele>
        <time>2017-02-12T08:14:53.000Z</time>
      </trkpt>
      <trkpt lat="47.51634" lon="6.77471">
        <ele>434.6</ele>
        <time>2017-02-12T08:14:54.000Z</time>
      </trkpt>
      <trkpt lat="47.51628" lon="6.77464">
        <ele>434.1</ele>
        <time>2017-02-12T08:14:55.000Z</time>
      </trkpt>
      <trkpt lat="47.51621" lon="6.77456">
        <ele>433.3</ele>
        <time>2017-02-12T08:14:56.000Z</time>
      </trkpt>
      <trkpt lat="47.51615" lon="6.77447">
        <ele>432.4</ele>
        <time>2017-02-12T08:14:57.000Z</time>
      </trkpt>
      <trkpt lat="47.51608" lon="6.77439">
        <ele>431.6</ele>
        <time>2017-02-12T08:14:58.000Z</time>
      </trkpt>
      <trkpt lat="47.51601" lon="6.77431">
        <ele>430.8</ele>
        <time>2017-02-12T08:14:59.000Z</time>
      </trkpt>
      <trkpt lat="47.51594" lon="6.77423">
        <ele>429.9</ele>
        <time>2017-02-12T08:15:00.000Z</time>
      </trkpt>
      <trkpt lat="47.51586" lon="6.77415">
        <ele>428.4</ele>
        <time>2017-02-12T08:15:01.000Z</time>
      </trkpt>
      <trkpt lat="47.51579" lon="6.77406">
        <ele>427.3</ele>
        <time>2017-02-12T08:15:02.000Z</time>
      </trkpt>
      <trkpt lat="47.51571" lon="6.77397">
        <ele>426.6</ele>
        <time>2017-02-12T08:15:03.000Z</time>
      </trkpt>
      <trkpt lat="47.51564" lon="6.77387">
        <ele>425.7</ele>
        <time>2017-02-12T08:15:04.000Z</time>
      </trkpt>
      <trkpt lat="47.51556" lon="6.77378">
        <ele>424.8</ele>
        <time>2017-02-12T08:15:05.000Z</time>
      </trkpt>
      <trkpt lat="47.51548" lon="6.77368">
        <ele>423.7</ele>
        <time>2017-02-12T08:15:06.000Z</time>
      </trkpt>
      <trkpt lat="47.5154" lon="6.77359">
        <ele>422.9</ele>
        <time>2017-02-12T08:15:07.000Z</time>
      </trkpt>
      <trkpt lat="47.51533" lon="6.77349">
        <ele>422.9</ele>
        <time>2017-02-12T08:15:08.000Z</time>
      </trkpt>
      <trkpt lat="47.51525" lon="6.7734">
        <ele>423</ele>
        <time>2017-02-12T08:15:09.000Z</time>
      </trkpt>
      <trkpt lat="47.51518" lon="6.77331">
        <ele>423.1</ele>
        <time>2017-02-12T08:15:10.000Z</time>
      </trkpt>
      <trkpt lat="47.51511" lon="6.77322">
        <ele>423.3</ele>
        <time>2017-02-12T08:15:11.000Z</time>
      </trkpt>
      <trkpt lat="47.51503" lon="6.77312">
        <ele>423.4</ele>
        <time>2017-02-12T08:15:12.000Z</time>
      </trkpt>
      <trkpt lat="47.51498" lon="6.77302">
        <ele>423.1</ele>
        <time>2017-02-12T08:15:13.000Z</time>
      </trkpt>
      <trkpt lat="47.51493" lon="6.7729">
        <ele>422.9</ele>
        <time>2017-02-12T08:15:14.000Z</time>
      </trkpt>
      <trkpt lat="47.5149" lon="6.77276">
        <ele>423.1</ele>
        <time>2017-02-12T08:15:15.000Z</time>
      </trkpt>
      <trkpt lat="47.51488" lon="6.77261">
        <ele>423.3</ele>
        <time>2017-02-12T08:15:16.000Z</time>
      </trkpt>
      <trkpt lat="47.51486" lon="6.77248">
        <ele>423.4</ele>
        <time>2017-02-12T08:15:17.000Z</time>
      </trkpt>
      <trkpt lat="47.51486" lon="6.77236">
        <ele>423.6</ele>
        <time>2017-02-12T08:15:18.000Z</time>
      </trkpt>
      <trkpt lat="47.51485" lon="6.77224">
        <ele>424</ele>
        <time>2017-02-12T08:15:19.000Z</time>
      </trkpt>
      <trkpt lat="47.51485" lon="6.77213">
        <ele>423.8</ele>
        <time>2017-02-12T08:15:20.000Z</time>
      </trkpt>
      <trkpt lat="47.5148" lon="6.77205">
        <ele>424.5</ele>
        <time>2017-02-12T08:15:21.000Z</time>
      </trkpt>
      <trkpt lat="47.51475" lon="6.77201">
        <ele>424.3</ele>
        <time>2017-02-12T08:15:22.000Z</time>
      </trkpt>
      <trkpt lat="47.51469" lon="6.772">
        <ele>424.4</ele>
        <time>2017-02-12T08:15:23.000Z</time>
      </trkpt>
      <trkpt lat="47.51463" lon="6.77203">
        <ele>424.3</ele>
        <time>2017-02-12T08:15:24.000Z</time>
      </trkpt>
      <trkpt lat="47.51456" lon="6.77205">
        <ele>424</ele>
        <time>2017-02-12T08:15:25.000Z</time>
      </trkpt>
      <trkpt lat="47.51447" lon="6.77208">
        <ele>423</ele>
        <time>2017-02-12T08:15:26.000Z</time>
      </trkpt>
      <trkpt lat="47.51439" lon="6.77211">
        <ele>422.5</ele>
        <time>2017-02-12T08:15:27.000Z</time>
      </trkpt>
      <trkpt lat="47.51431" lon="6.77215">
        <ele>422.1</ele>
        <time>2017-02-12T08:15:28.000Z</time>
      </trkpt>
      <trkpt lat="47.51424" lon="6.77219">
        <ele>422.3</ele>
        <time>2017-02-12T08:15:29.000Z</time>
      </trkpt>
      <trkpt lat="47.51418" lon="6.77223">
        <ele>422.5</ele>
        <time>2017-02-12T08:15:30.000Z</time>
      </trkpt>
      <trkpt lat="47.51412" lon="6.77226">
        <ele>422.8</ele>
        <time>2017-02-12T08:15:31.000Z</time>
      </trkpt>
      <trkpt lat="47.51406" lon="6.77229">
        <ele>423</ele>
        <time>2017-02-12T08:15:32.000Z</time>
      </trkpt>
      <trkpt lat="47.51401" lon="6.77232">
        <ele>423.3</ele>
        <time>2017-02-12T08:15:33.000Z</time>
      </trkpt>
      <trkpt lat="47.51396" lon="6.77235">
        <ele>423.5</ele>
        <time>2017-02-12T08:15:34.000Z</time>
      </trkpt>
      <trkpt lat="47.51391" lon="6.77238">
        <ele>423.6</ele>
        <time>2017-02-12T08:15:35.000Z</time>
      </trkpt>
      <trkpt lat="47.51387" lon="6.7724">
        <ele>424</ele>
        <time>2017-02-12T08:15:36.000Z</time>
      </trkpt>
      <trkpt lat="47.51383" lon="6.77243">
        <ele>424.3</ele>
        <time>2017-02-12T08:15:37.000Z</time>
      </trkpt>
      <trkpt lat="47.51379" lon="6.77246">
        <ele>424.6</ele>
        <time>2017-02-12T08:15:38.000Z</time>
      </trkpt>
      <trkpt lat="47.51376" lon="6.77248">
        <ele>424.5</ele>
        <time>2017-02-12T08:15:39.000Z</time>
      </trkpt>
      <trkpt lat="47.51373" lon="6.7725">
        <ele>425.2</ele>
        <time>2017-02-12T08:15:40.000Z</time>
      </trkpt>
      <trkpt lat="47.51369" lon="6.77253">
        <ele>425.2</ele>
        <time>2017-02-12T08:15:41.000Z</time>
      </trkpt>
      <trkpt lat="47.51366" lon="6.77256">
        <ele>425.2</ele>
        <time>2017-02-12T08:15:42.000Z</time>
      </trkpt>
      <trkpt lat="47.51363" lon="6.77258">
        <ele>425.3</ele>
        <time>2017-02-12T08:15:43.000Z</time>
      </trkpt>
      <trkpt lat="47.51361" lon="6.7726">
        <ele>425.4</ele>
        <time>2017-02-12T08:15:44.000Z</time>
      </trkpt>
      <trkpt lat="47.51358" lon="6.77262">
        <ele>425.4</ele>
        <time>2017-02-12T08:15:45.000Z</time>
      </trkpt>
      <trkpt lat="47.51355" lon="6.77264">
        <ele>425.4</ele>
        <time>2017-02-12T08:15:46.000Z</time>
      </trkpt>
      <trkpt lat="47.51353" lon="6.77267">
        <ele>425.5</ele>
        <time>2017-02-12T08:15:47.000Z</time>
      </trkpt>
      <trkpt lat="47.5135" lon="6.77269">
        <ele>425.5</ele>
        <time>2017-02-12T08:15:48.000Z</time>
      </trkpt>
      <trkpt lat="47.51348" lon="6.77271">
        <ele>425.6</ele>
        <time>2017-02-12T08:15:49.000Z</time>
      </trkpt>
      <trkpt lat="47.51345" lon="6.77273">
        <ele>425.7</ele>
        <time>2017-02-12T08:15:50.000Z</time>
      </trkpt>
      <trkpt lat="47.51343" lon="6.77274">
        <ele>425.8</ele>
        <time>2017-02-12T08:15:51.000Z</time>
      </trkpt>
      <trkpt lat="47.51341" lon="6.77276">
        <ele>425.9</ele>
        <time>2017-02-12T08:15:52.000Z</time>
      </trkpt>
      <trkpt lat="47.51339" lon="6.77278">
        <ele>425.9</ele>
        <time>2017-02-12T08:15:53.000Z</time>
      </trkpt>
      <trkpt lat="47.51337" lon="6.77279">
        <ele>426</ele>
        <time>2017-02-12T08:15:54.000Z</time>
      </trkpt>
      <trkpt lat="47.51335" lon="6.7728">
        <ele>426.1</ele>
        <time>2017-02-12T08:15:55.000Z</time>
      </trkpt>
      <trkpt lat="47.51332" lon="6.77281">
        <ele>426.1</ele>
        <time>2017-02-12T08:15:56.000Z</time>
      </trkpt>
      <trkpt lat="47.51329" lon="6.77282">
        <ele>426.2</ele>
        <time>2017-02-12T08:15:57.000Z</time>
      </trkpt>
      <trkpt lat="47.51326" lon="6.77282">
        <ele>426.2</ele>
        <time>2017-02-12T08:15:58.000Z</time>
      </trkpt>
      <trkpt lat="47.51322" lon="6.77281">
        <ele>426.3</ele>
        <time>2017-02-12T08:15:59.000Z</time>
      </trkpt>
      <trkpt lat="47.51319" lon="6.77281">
        <ele>426.3</ele>
        <time>2017-02-12T08:16:00.000Z</time>
      </trkpt>
      <trkpt lat="47.51316" lon="6.77281">
        <ele>426.3</ele>
        <time>2017-02-12T08:16:01.000Z</time>
      </trkpt>
      <trkpt lat="47.51314" lon="6.7728">
        <ele>426.4</ele>
        <time>2017-02-12T08:16:02.000Z</time>
      </trkpt>
      <trkpt lat="47.5131" lon="6.77278">
        <ele>426.5</ele>
        <time>2017-02-12T08:16:03.000Z</time>
      </trkpt>
      <trkpt lat="47.51308" lon="6.77277">
        <ele>426.5</ele>
        <time>2017-02-12T08:16:04.000Z</time>
      </trkpt>
      <trkpt lat="47.51305" lon="6.77276">
        <ele>426.7</ele>
        <time>2017-02-12T08:16:05.000Z</time>
      </trkpt>
      <trkpt lat="47.51301" lon="6.77274">
        <ele>426.8</ele>
        <time>2017-02-12T08:16:06.000Z</time>
      </trkpt>
      <trkpt lat="47.51297" lon="6.77272">
        <ele>426.9</ele>
        <time>2017-02-12T08:16:07.000Z</time>
      </trkpt>
      <trkpt lat="47.51294" lon="6.77271">
        <ele>426.9</ele>
        <time>2017-02-12T08:16:08.000Z</time>
      </trkpt>
      <trkpt lat="47.5129" lon="6.77269">
        <ele>427</ele>
        <time>2017-02-12T08:16:09.000Z</time>
      </trkpt>
      <trkpt lat="47.51287" lon="6.77268">
        <ele>427.1</ele>
        <time>2017-02-12T08:16:10.000Z</time>
      </trkpt>
      <trkpt lat="47.51285" lon="6.77266">
        <ele>427.2</ele>
        <time>2017-02-12T08:16:11.000Z</time>
      </trkpt>
      <trkpt lat="47.51282" lon="6.77265">
        <ele>427.4</ele>
        <time>2017-02-12T08:16:12.000Z</time>
      </trkpt>
      <trkpt lat="47.5128" lon="6.77263">
        <ele>427.5</ele>
        <time>2017-02-12T08:16:13.000Z</time>
      </trkpt>
      <trkpt lat="47.51277" lon="6.77262">
        <ele>427.6</ele>
        <time>2017-02-12T08:16:14.000Z</time>
      </trkpt>
      <trkpt lat="47.51273" lon="6.77259">
        <ele>428.3</ele>
        <time>2017-02-12T08:16:15.000Z</time>
      </trkpt>
      <trkpt lat="47.51269" lon="6.77256">
        <ele>429.2</ele>
        <time>2017-02-12T08:16:16.000Z</time>
      </trkpt>
      <trkpt lat="47.51266" lon="6.77253">
        <ele>430.4</ele>
        <time>2017-02-12T08:16:17.000Z</time>
      </trkpt>
      <trkpt lat="47.51262" lon="6.77249">
        <ele>430.4</ele>
        <time>2017-02-12T08:16:18.000Z</time>
      </trkpt>
      <trkpt lat="47.51259" lon="6.77245">
        <ele>430.4</ele>
        <time>2017-02-12T08:16:19.000Z</time>
      </trkpt>
      <trkpt lat="47.51256" lon="6.7724">
        <ele>430.5</ele>
        <time>2017-02-12T08:16:20.000Z</time>
      </trkpt>
      <trkpt lat="47.51253" lon="6.77235">
        <ele>430.7</ele>
        <time>2017-02-12T08:16:21.000Z</time>
      </trkpt>
      <trkpt lat="47.5125" lon="6.7723">
        <ele>431.1</ele>
        <time>2017-02-12T08:16:22.000Z</time>
      </trkpt>
      <trkpt lat="47.51247" lon="6.77225">
        <ele>431.1</ele>
        <time>2017-02-12T08:16:23.000Z</time>
      </trkpt>
      <trkpt lat="47.51244" lon="6.7722">
        <ele>431.3</ele>
        <time>2017-02-12T08:16:24.000Z</time>
      </trkpt>
      <trkpt lat="47.51241" lon="6.77214">
        <ele>431.1</ele>
        <time>2017-02-12T08:16:25.000Z</time>
      </trkpt>
      <trkpt lat="47.51238" lon="6.77208">
        <ele>430.9</ele>
        <time>2017-02-12T08:16:26.000Z</time>
      </trkpt>
      <trkpt lat="47.51234" lon="6.77201">
        <ele>430.8</ele>
        <time>2017-02-12T08:16:27.000Z</time>
      </trkpt>
      <trkpt lat="47.51231" lon="6.77195">
        <ele>430.5</ele>
        <time>2017-02-12T08:16:28.000Z</time>
      </trkpt>
      <trkpt lat="47.51228" lon="6.7719">
        <ele>430.2</ele>
        <time>2017-02-12T08:16:29.000Z</time>
      </trkpt>
      <trkpt lat="47.51225" lon="6.77183">
        <ele>430.2</ele>
        <time>2017-02-12T08:16:30.000Z</time>
      </trkpt>
      <trkpt lat="47.51221" lon="6.77175">
        <ele>430.7</ele>
        <time>2017-02-12T08:16:31.000Z</time>
      </trkpt>
      <trkpt lat="47.51218" lon="6.77168">
        <ele>431</ele>
        <time>2017-02-12T08:16:32.000Z</time>
      </trkpt>
      <trkpt lat="47.51214" lon="6.77161">
        <ele>431.4</ele>
        <time>2017-02-12T08:16:33.000Z</time>
      </trkpt>
      <trkpt lat="47.5121" lon="6.77154">
        <ele>431.6</ele>
        <time>2017-02-12T08:16:34.000Z</time>
      </trkpt>
      <trkpt lat="47.51206" lon="6.77146">
        <ele>431.7</ele>
        <time>2017-02-12T08:16:35.000Z</time>
      </trkpt>
      <trkpt lat="47.51202" lon="6.77139">
        <ele>431.8</ele>
        <time>2017-02-12T08:16:36.000Z</time>
      </trkpt>
      <trkpt lat="47.51198" lon="6.77132">
        <ele>431.7</ele>
        <time>2017-02-12T08:16:37.000Z</time>
      </trkpt>
      <trkpt lat="47.51195" lon="6.77126">
        <ele>431.3</ele>
        <time>2017-02-12T08:16:38.000Z</time>
      </trkpt>
      <trkpt lat="47.51192" lon="6.7712">
        <ele>431.3</ele>
        <time>2017-02-12T08:16:39.000Z</time>
      </trkpt>
      <trkpt lat="47.51189" lon="6.77113">
        <ele>431.5</ele>
        <time>2017-02-12T08:16:40.000Z</time>
      </trkpt>
      <trkpt lat="47.51185" lon="6.77106">
        <ele>431.5</ele>
        <time>2017-02-12T08:16:41.000Z</time>
      </trkpt>
      <trkpt lat="47.51181" lon="6.77097">
        <ele>431.3</ele>
        <time>2017-02-12T08:16:42.000Z</time>
      </trkpt>
      <trkpt lat="47.51177" lon="6.7709">
        <ele>430.8</ele>
        <time>2017-02-12T08:16:43.000Z</time>
      </trkpt>
      <trkpt lat="47.51173" lon="6.77082">
        <ele>430.3</ele>
        <time>2017-02-12T08:16:44.000Z</time>
      </trkpt>
      <trkpt lat="47.51168" lon="6.77074">
        <ele>429.8</ele>
        <time>2017-02-12T08:16:45.000Z</time>
      </trkpt>
      <trkpt lat="47.51163" lon="6.77067">
        <ele>429.4</ele>
        <time>2017-02-12T08:16:46.000Z</time>
      </trkpt>
      <trkpt lat="47.51158" lon="6.7706">
        <ele>429.1</ele>
        <time>2017-02-12T08:16:47.000Z</time>
      </trkpt>
      <trkpt lat="47.51153" lon="6.77055">
        <ele>428.8</ele>
        <time>2017-02-12T08:16:48.000Z</time>
      </trkpt>
      <trkpt lat="47.51147" lon="6.7705">
        <ele>428.5</ele>
        <time>2017-02-12T08:16:49.000Z</time>
      </trkpt>
      <trkpt lat="47.51142" lon="6.77045">
        <ele>428.3</ele>
        <time>2017-02-12T08:16:50.000Z</time>
      </trkpt>
      <trkpt lat="47.51137" lon="6.77041">
        <ele>428</ele>
        <time>2017-02-12T08:16:51.000Z</time>
      </trkpt>
      <trkpt lat="47.51132" lon="6.77036">
        <ele>427.8</ele>
        <time>2017-02-12T08:16:52.000Z</time>
      </trkpt>
      <trkpt lat="47.51126" lon="6.77031">
        <ele>427.7</ele>
        <time>2017-02-12T08:16:53.000Z</time>
      </trkpt>
      <trkpt lat="47.5112" lon="6.77026">
        <ele>427.1</ele>
        <time>2017-02-12T08:16:54.000Z</time>
      </trkpt>
      <trkpt lat="47.51115" lon="6.77022">
        <ele>426.9</ele>
        <time>2017-02-12T08:16:55.000Z</time>
      </trkpt>
      <trkpt lat="47.51109" lon="6.77017">
        <ele>426.6</ele>
        <time>2017-02-12T08:16:56.000Z</time>
      </trkpt>
      <trkpt lat="47.51103" lon="6.77012">
        <ele>426.4</ele>
        <time>2017-02-12T08:16:57.000Z</time>
      </trkpt>
      <trkpt lat="47.51098" lon="6.77008">
        <ele>426.6</ele>
        <time>2017-02-12T08:16:58.000Z</time>
      </trkpt>
      <trkpt lat="47.51092" lon="6.77004">
        <ele>427.1</ele>
        <time>2017-02-12T08:16:59.000Z</time>
      </trkpt>
      <trkpt lat="47.51087" lon="6.77">
        <ele>427.7</ele>
        <time>2017-02-12T08:17:00.000Z</time>
      </trkpt>
      <trkpt lat="47.51082" lon="6.76996">
        <ele>427.8</ele>
        <time>2017-02-12T08:17:01.000Z</time>
      </trkpt>
      <trkpt lat="47.51077" lon="6.76992">
        <ele>428.2</ele>
        <time>2017-02-12T08:17:02.000Z</time>
      </trkpt>
      <trkpt lat="47.51072" lon="6.76988">
        <ele>428.5</ele>
        <time>2017-02-12T08:17:03.000Z</time>
      </trkpt>
      <trkpt lat="47.51067" lon="6.76984">
        <ele>428.9</ele>
        <time>2017-02-12T08:17:04.000Z</time>
      </trkpt>
      <trkpt lat="47.51063" lon="6.76981">
        <ele>429.7</ele>
        <time>2017-02-12T08:17:05.000Z</time>
      </trkpt>
      <trkpt lat="47.51059" lon="6.76977">
        <ele>430.5</ele>
        <time>2017-02-12T08:17:06.000Z</time>
      </trkpt>
      <trkpt lat="47.51055" lon="6.76974">
        <ele>430.9</ele>
        <time>2017-02-12T08:17:07.000Z</time>
      </trkpt>
      <trkpt lat="47.5105" lon="6.7697">
        <ele>431.2</ele>
        <time>2017-02-12T08:17:08.000Z</time>
      </trkpt>
      <trkpt lat="47.51046" lon="6.76967">
        <ele>431.1</ele>
        <time>2017-02-12T08:17:09.000Z</time>
      </trkpt>
      <trkpt lat="47.51042" lon="6.76964">
        <ele>431.1</ele>
        <time>2017-02-12T08:17:10.000Z</time>
      </trkpt>
      <trkpt lat="47.51039" lon="6.7696">
        <ele>431.2</ele>
        <time>2017-02-12T08:17:11.000Z</time>
      </trkpt>
      <trkpt lat="47.51035" lon="6.76957">
        <ele>430.3</ele>
        <time>2017-02-12T08:17:12.000Z</time>
      </trkpt>
      <trkpt lat="47.51031" lon="6.76953">
        <ele>429.5</ele>
        <time>2017-02-12T08:17:13.000Z</time>
      </trkpt>
      <trkpt lat="47.51027" lon="6.76948">
        <ele>428.6</ele>
        <time>2017-02-12T08:17:14.000Z</time>
      </trkpt>
      <trkpt lat="47.51022" lon="6.76943">
        <ele>427.8</ele>
        <time>2017-02-12T08:17:15.000Z</time>
      </trkpt>
      <trkpt lat="47.51017" lon="6.76939">
        <ele>427.6</ele>
        <time>2017-02-12T08:17:16.000Z</time>
      </trkpt>
      <trkpt lat="47.51013" lon="6.76935">
        <ele>427.1</ele>
        <time>2017-02-12T08:17:17.000Z</time>
      </trkpt>
      <trkpt lat="47.51009" lon="6.76932">
        <ele>426.5</ele>
        <time>2017-02-12T08:17:18.000Z</time>
      </trkpt>
      <trkpt lat="47.51005" lon="6.76928">
        <ele>426.5</ele>
        <time>2017-02-12T08:17:19.000Z</time>
      </trkpt>
      <trkpt lat="47.51" lon="6.76925">
        <ele>426.2</ele>
        <time>2017-02-12T08:17:20.000Z</time>
      </trkpt>
      <trkpt lat="47.50998" lon="6.76922">
        <ele>426.3</ele>
        <time>2017-02-12T08:17:21.000Z</time>
      </trkpt>
      <trkpt lat="47.50995" lon="6.76917">
        <ele>426</ele>
        <time>2017-02-12T08:17:22.000Z</time>
      </trkpt>
      <trkpt lat="47.50993" lon="6.76913">
        <ele>426</ele>
        <time>2017-02-12T08:17:23.000Z</time>
      </trkpt>
      <trkpt lat="47.5099" lon="6.76908">
        <ele>426</ele>
        <time>2017-02-12T08:17:24.000Z</time>
      </trkpt>
      <trkpt lat="47.50987" lon="6.76902">
        <ele>426.1</ele>
        <time>2017-02-12T08:17:25.000Z</time>
      </trkpt>
      <trkpt lat="47.50983" lon="6.76899">
        <ele>426.1</ele>
        <time>2017-02-12T08:17:26.000Z</time>
      </trkpt>
      <trkpt lat="47.50979" lon="6.76899">
        <ele>425.8</ele>
        <time>2017-02-12T08:17:27.000Z</time>
      </trkpt>
      <trkpt lat="47.50974" lon="6.76898">
        <ele>425.5</ele>
        <time>2017-02-12T08:17:28.000Z</time>
      </trkpt>
      <trkpt lat="47.5097" lon="6.76897">
        <ele>425.5</ele>
        <time>2017-02-12T08:17:29.000Z</time>
      </trkpt>
      <trkpt lat="47.50965" lon="6.76897">
        <ele>425.9</ele>
        <time>2017-02-12T08:17:30.000Z</time>
      </trkpt>
      <trkpt lat="47.50962" lon="6.76895">
        <ele>426</ele>
        <time>2017-02-12T08:17:31.000Z</time>
      </trkpt>
      <trkpt lat="47.50958" lon="6.76892">
        <ele>427.3</ele>
        <time>2017-02-12T08:17:32.000Z</time>
      </trkpt>
      <trkpt lat="47.50954" lon="6.76888">
        <ele>427.9</ele>
        <time>2017-02-12T08:17:33.000Z</time>
      </trkpt>
      <trkpt lat="47.50951" lon="6.76885">
        <ele>428.8</ele>
        <time>2017-02-12T08:17:34.000Z</time>
      </trkpt>
      <trkpt lat="47.50947" lon="6.76882">
        <ele>429</ele>
        <time>2017-02-12T08:17:35.000Z</time>
      </trkpt>
      <trkpt lat="47.50944" lon="6.7688">
        <ele>429</ele>
        <time>2017-02-12T08:17:36.000Z</time>
      </trkpt>
      <trkpt lat="47.50941" lon="6.76876">
        <ele>429</ele>
        <time>2017-02-12T08:17:37.000Z</time>
      </trkpt>
      <trkpt lat="47.50937" lon="6.76873">
        <ele>429.2</ele>
        <time>2017-02-12T08:17:38.000Z</time>
      </trkpt>
      <trkpt lat="47.50935" lon="6.76869">
        <ele>430.1</ele>
        <time>2017-02-12T08:17:39.000Z</time>
      </trkpt>
      <trkpt lat="47.50932" lon="6.76865">
        <ele>430.2</ele>
        <time>2017-02-12T08:17:40.000Z</time>
      </trkpt>
      <trkpt lat="47.5093" lon="6.76861">
        <ele>430.3</ele>
        <time>2017-02-12T08:17:41.000Z</time>
      </trkpt>
      <trkpt lat="47.50927" lon="6.76856">
        <ele>430.3</ele>
        <time>2017-02-12T08:17:42.000Z</time>
      </trkpt>
      <trkpt lat="47.50923" lon="6.76851">
        <ele>430.7</ele>
        <time>2017-02-12T08:17:43.000Z</time>
      </trkpt>
      <trkpt lat="47.50921" lon="6.76846">
        <ele>431</ele>
        <time>2017-02-12T08:17:44.000Z</time>
      </trkpt>
      <trkpt lat="47.50918" lon="6.7684">
        <ele>431.6</ele>
        <time>2017-02-12T08:17:45.000Z</time>
      </trkpt>
      <trkpt lat="47.50915" lon="6.76834">
        <ele>432.3</ele>
        <time>2017-02-12T08:17:46.000Z</time>
      </trkpt>
      <trkpt lat="47.50913" lon="6.76829">
        <ele>433.3</ele>
        <time>2017-02-12T08:17:47.000Z</time>
      </trkpt>
      <trkpt lat="47.5091" lon="6.76823">
        <ele>434</ele>
        <time>2017-02-12T08:17:48.000Z</time>
      </trkpt>
      <trkpt lat="47.50908" lon="6.76819">
        <ele>434.6</ele>
        <time>2017-02-12T08:17:49.000Z</time>
      </trkpt>
      <trkpt lat="47.50906" lon="6.76814">
        <ele>435.1</ele>
        <time>2017-02-12T08:17:50.000Z</time>
      </trkpt>
      <trkpt lat="47.50904" lon="6.7681">
        <ele>435.4</ele>
        <time>2017-02-12T08:17:51.000Z</time>
      </trkpt>
      <trkpt lat="47.50902" lon="6.76805">
        <ele>435.1</ele>
        <time>2017-02-12T08:17:52.000Z</time>
      </trkpt>
      <trkpt lat="47.509" lon="6.768">
        <ele>434.9</ele>
        <time>2017-02-12T08:17:53.000Z</time>
      </trkpt>
      <trkpt lat="47.50897" lon="6.76793">
        <ele>435.1</ele>
        <time>2017-02-12T08:17:54.000Z</time>
      </trkpt>
      <trkpt lat="47.50895" lon="6.76787">
        <ele>435.1</ele>
        <time>2017-02-12T08:17:55.000Z</time>
      </trkpt>
      <trkpt lat="47.50894" lon="6.76782">
        <ele>435</ele>
        <time>2017-02-12T08:17:56.000Z</time>
      </trkpt>
      <trkpt lat="47.50892" lon="6.76776">
        <ele>434.3</ele>
        <time>2017-02-12T08:17:57.000Z</time>
      </trkpt>
      <trkpt lat="47.5089" lon="6.76771">
        <ele>434.3</ele>
        <time>2017-02-12T08:17:58.000Z</time>
      </trkpt>
      <trkpt lat="47.50888" lon="6.76766">
        <ele>434.3</ele>
        <time>2017-02-12T08:17:59.000Z</time>
      </trkpt>
      <trkpt lat="47.50887" lon="6.76761">
        <ele>434.2</ele>
        <time>2017-02-12T08:18:00.000Z</time>
      </trkpt>
      <trkpt lat="47.50886" lon="6.76757">
        <ele>434.3</ele>
        <time>2017-02-12T08:18:01.000Z</time>
      </trkpt>
      <trkpt lat="47.50884" lon="6.76752">
        <ele>434.9</ele>
        <time>2017-02-12T08:18:02.000Z</time>
      </trkpt>
      <trkpt lat="47.50882" lon="6.76746">
        <ele>434.9</ele>
        <time>2017-02-12T08:18:03.000Z</time>
      </trkpt>
      <trkpt lat="47.5088" lon="6.76742">
        <ele>434.9</ele>
        <time>2017-02-12T08:18:04.000Z</time>
      </trkpt>
      <trkpt lat="47.50878" lon="6.76736">
        <ele>434.8</ele>
        <time>2017-02-12T08:18:05.000Z</time>
      </trkpt>
      <trkpt lat="47.50877" lon="6.76733">
        <ele>434.7</ele>
        <time>2017-02-12T08:18:06.000Z</time>
      </trkpt>
      <trkpt lat="47.50875" lon="6.76728">
        <ele>434.6</ele>
        <time>2017-02-12T08:18:07.000Z</time>
      </trkpt>
      <trkpt lat="47.50873" lon="6.76723">
        <ele>434.6</ele>
        <time>2017-02-12T08:18:08.000Z</time>
      </trkpt>
      <trkpt lat="47.50871" lon="6.76717">
        <ele>434.6</ele>
        <time>2017-02-12T08:18:09.000Z</time>
      </trkpt>
      <trkpt lat="47.50869" lon="6.76711">
        <ele>434.7</ele>
        <time>2017-02-12T08:18:10.000Z</time>
      </trkpt>
      <trkpt lat="47.50868" lon="6.76707">
        <ele>434.6</ele>
        <time>2017-02-12T08:18:11.000Z</time>
      </trkpt>
      <trkpt lat="47.50867" lon="6.76703">
        <ele>434.6</ele>
        <time>2017-02-12T08:18:12.000Z</time>
      </trkpt>
      <trkpt lat="47.50865" lon="6.767">
        <ele>434.5</ele>
        <time>2017-02-12T08:18:13.000Z</time>
      </trkpt>
      <trkpt lat="47.50864" lon="6.76696">
        <ele>434.5</ele>
        <time>2017-02-12T08:18:14.000Z</time>
      </trkpt>
      <trkpt lat="47.50862" lon="6.76692">
        <ele>434.6</ele>
        <time>2017-02-12T08:18:15.000Z</time>
      </trkpt>
      <trkpt lat="47.5086" lon="6.76688">
        <ele>434.6</ele>
        <time>2017-02-12T08:18:16.000Z</time>
      </trkpt>
      <trkpt lat="47.50859" lon="6.76684">
        <ele>434.6</ele>
        <time>2017-02-12T08:18:17.000Z</time>
      </trkpt>
      <trkpt lat="47.50857" lon="6.7668">
        <ele>434.6</ele>
        <time>2017-02-12T08:18:18.000Z</time>
      </trkpt>
      <trkpt lat="47.50855" lon="6.76675">
        <ele>434.7</ele>
        <time>2017-02-12T08:18:19.000Z</time>
      </trkpt>
      <trkpt lat="47.50854" lon="6.7667">
        <ele>434.7</ele>
        <time>2017-02-12T08:18:20.000Z</time>
      </trkpt>
      <trkpt lat="47.50852" lon="6.76667">
        <ele>434.7</ele>
        <time>2017-02-12T08:18:21.000Z</time>
      </trkpt>
      <trkpt lat="47.5085" lon="6.76662">
        <ele>434.6</ele>
        <time>2017-02-12T08:18:22.000Z</time>
      </trkpt>
      <trkpt lat="47.50849" lon="6.76658">
        <ele>434.5</ele>
        <time>2017-02-12T08:18:23.000Z</time>
      </trkpt>
      <trkpt lat="47.50847" lon="6.76653">
        <ele>434.5</ele>
        <time>2017-02-12T08:18:24.000Z</time>
      </trkpt>
      <trkpt lat="47.50845" lon="6.7665">
        <ele>434.5</ele>
        <time>2017-02-12T08:18:25.000Z</time>
      </trkpt>
      <trkpt lat="47.50844" lon="6.76646">
        <ele>434.4</ele>
        <time>2017-02-12T08:18:26.000Z</time>
      </trkpt>
      <trkpt lat="47.50842" lon="6.76642">
        <ele>434.4</ele>
        <time>2017-02-12T08:18:27.000Z</time>
      </trkpt>
      <trkpt lat="47.50841" lon="6.76638">
        <ele>434.5</ele>
        <time>2017-02-12T08:18:28.000Z</time>
      </trkpt>
      <trkpt lat="47.50839" lon="6.76635">
        <ele>434.5</ele>
        <time>2017-02-12T08:18:29.000Z</time>
      </trkpt>
      <trkpt lat="47.50838" lon="6.76631">
        <ele>434.5</ele>
        <time>2017-02-12T08:18:30.000Z</time>
      </trkpt>
      <trkpt lat="47.50836" lon="6.76627">
        <ele>434.6</ele>
        <time>2017-02-12T08:18:31.000Z</time>
      </trkpt>
      <trkpt lat="47.50835" lon="6.76623">
        <ele>434.7</ele>
        <time>2017-02-12T08:18:32.000Z</time>
      </trkpt>
      <trkpt lat="47.50833" lon="6.7662">
        <ele>434.7</ele>
        <time>2017-02-12T08:18:33.000Z</time>
      </trkpt>
      <trkpt lat="47.50832" lon="6.76618">
        <ele>434.8</ele>
        <time>2017-02-12T08:18:34.000Z</time>
      </trkpt>
      <trkpt lat="47.5083" lon="6.76614">
        <ele>434.9</ele>
        <time>2017-02-12T08:18:35.000Z</time>
      </trkpt>
      <trkpt lat="47.50829" lon="6.76611">
        <ele>434.9</ele>
        <time>2017-02-12T08:18:36.000Z</time>
      </trkpt>
      <trkpt lat="47.50828" lon="6.76607">
        <ele>434.9</ele>
        <time>2017-02-12T08:18:37.000Z</time>
      </trkpt>
      <trkpt lat="47.50827" lon="6.76603">
        <ele>434.9</ele>
        <time>2017-02-12T08:18:38.000Z</time>
      </trkpt>
      <trkpt lat="47.50826" lon="6.766">
        <ele>435</ele>
        <time>2017-02-12T08:18:39.000Z</time>
      </trkpt>
      <trkpt lat="47.50824" lon="6.76597">
        <ele>434.9</ele>
        <time>2017-02-12T08:18:40.000Z</time>
      </trkpt>
      <trkpt lat="47.50822" lon="6.76599">
        <ele>435</ele>
        <time>2017-02-12T08:18:42.000Z</time>
      </trkpt>
      <trkpt lat="47.5082" lon="6.76601">
        <ele>435</ele>
        <time>2017-02-12T08:18:43.000Z</time>
      </trkpt>
      <trkpt lat="47.50817" lon="6.766">
        <ele>435.1</ele>
        <time>2017-02-12T08:18:44.000Z</time>
      </trkpt>
      <trkpt lat="47.50814" lon="6.76597">
        <ele>435.2</ele>
        <time>2017-02-12T08:18:45.000Z</time>
      </trkpt>
      <trkpt lat="47.50812" lon="6.76594">
        <ele>435.3</ele>
        <time>2017-02-12T08:18:46.000Z</time>
      </trkpt>
      <trkpt lat="47.5081" lon="6.76591">
        <ele>435.3</ele>
        <time>2017-02-12T08:18:47.000Z</time>
      </trkpt>
      <trkpt lat="47.50809" lon="6.76587">
        <ele>435.4</ele>
        <time>2017-02-12T08:18:48.000Z</time>
      </trkpt>
      <trkpt lat="47.50805" lon="6.76586">
        <ele>435.5</ele>
        <time>2017-02-12T08:18:49.000Z</time>
      </trkpt>
      <trkpt lat="47.50803" lon="6.76587">
        <ele>435.6</ele>
        <time>2017-02-12T08:18:50.000Z</time>
      </trkpt>
      <trkpt lat="47.508" lon="6.76587">
        <ele>435.7</ele>
        <time>2017-02-12T08:18:51.000Z</time>
      </trkpt>
      <trkpt lat="47.50796" lon="6.76588">
        <ele>435.8</ele>
        <time>2017-02-12T08:18:53.000Z</time>
      </trkpt>
      <trkpt lat="47.50794" lon="6.76587">
        <ele>435.9</ele>
        <time>2017-02-12T08:18:54.000Z</time>
      </trkpt>
      <trkpt lat="47.50793" lon="6.76587">
        <ele>437.5</ele>
        <time>2017-02-12T08:19:06.000Z</time>
      </trkpt>
      <trkpt lat="47.50786" lon="6.7659">
        <ele>437.5</ele>
        <time>2017-02-12T08:19:07.000Z</time>
      </trkpt>
      <trkpt lat="47.50786" lon="6.7659">
        <ele>438.5</ele>
        <time>2017-02-12T08:19:18.000Z</time>
      </trkpt>
      <trkpt lat="47.50777" lon="6.76592">
        <ele>438.7</ele>
        <time>2017-02-12T08:19:19.000Z</time>
      </trkpt>
      <trkpt lat="47.50775" lon="6.76593">
        <ele>438.8</ele>
        <time>2017-02-12T08:19:20.000Z</time>
      </trkpt>
      <trkpt lat="47.50773" lon="6.76594">
        <ele>439</ele>
        <time>2017-02-12T08:19:21.000Z</time>
      </trkpt>
      <trkpt lat="47.50771" lon="6.76593">
        <ele>439.1</ele>
        <time>2017-02-12T08:19:22.000Z</time>
      </trkpt>
      <trkpt lat="47.50768" lon="6.76594">
        <ele>439.3</ele>
        <time>2017-02-12T08:19:23.000Z</time>
      </trkpt>
      <trkpt lat="47.50766" lon="6.76594">
        <ele>439.4</ele>
        <time>2017-02-12T08:19:24.000Z</time>
      </trkpt>
      <trkpt lat="47.50763" lon="6.76594">
        <ele>439.6</ele>
        <time>2017-02-12T08:19:25.000Z</time>
      </trkpt>
      <trkpt lat="47.5076" lon="6.76594">
        <ele>439.8</ele>
        <time>2017-02-12T08:19:26.000Z</time>
      </trkpt>
      <trkpt lat="47.50756" lon="6.76594">
        <ele>440</ele>
        <time>2017-02-12T08:19:27.000Z</time>
      </trkpt>
      <trkpt lat="47.50753" lon="6.76594">
        <ele>440.1</ele>
        <time>2017-02-12T08:19:28.000Z</time>
      </trkpt>
      <trkpt lat="47.5075" lon="6.76594">
        <ele>440.2</ele>
        <time>2017-02-12T08:19:29.000Z</time>
      </trkpt>
      <trkpt lat="47.50748" lon="6.76594">
        <ele>440.3</ele>
        <time>2017-02-12T08:19:30.000Z</time>
      </trkpt>
      <trkpt lat="47.50744" lon="6.76594">
        <ele>440.5</ele>
        <time>2017-02-12T08:19:31.000Z</time>
      </trkpt>
      <trkpt lat="47.50742" lon="6.76594">
        <ele>440.6</ele>
        <time>2017-02-12T08:19:32.000Z</time>
      </trkpt>
      <trkpt lat="47.5074" lon="6.76594">
        <ele>440.8</ele>
        <time>2017-02-12T08:19:33.000Z</time>
      </trkpt>
      <trkpt lat="47.50737" lon="6.76594">
        <ele>441</ele>
        <time>2017-02-12T08:19:34.000Z</time>
      </trkpt>
      <trkpt lat="47.50734" lon="6.76592">
        <ele>441.1</ele>
        <time>2017-02-12T08:19:35.000Z</time>
      </trkpt>
      <trkpt lat="47.50731" lon="6.76591">
        <ele>441.2</ele>
        <time>2017-02-12T08:19:36.000Z</time>
      </trkpt>
      <trkpt lat="47.50728" lon="6.76591">
        <ele>441.4</ele>
        <time>2017-02-12T08:19:37.000Z</time>
      </trkpt>
      <trkpt lat="47.50725" lon="6.7659">
        <ele>441.5</ele>
        <time>2017-02-12T08:19:38.000Z</time>
      </trkpt>
      <trkpt lat="47.50721" lon="6.7659">
        <ele>441.6</ele>
        <time>2017-02-12T08:19:39.000Z</time>
      </trkpt>
      <trkpt lat="47.50718" lon="6.7659">
        <ele>441.6</ele>
        <time>2017-02-12T08:19:40.000Z</time>
      </trkpt>
      <trkpt lat="47.50715" lon="6.7659">
        <ele>441.7</ele>
        <time>2017-02-12T08:19:41.000Z</time>
      </trkpt>
      <trkpt lat="47.50711" lon="6.7659">
        <ele>441.8</ele>
        <time>2017-02-12T08:19:42.000Z</time>
      </trkpt>
      <trkpt lat="47.50709" lon="6.7659">
        <ele>442</ele>
        <time>2017-02-12T08:19:43.000Z</time>
      </trkpt>
      <trkpt lat="47.50706" lon="6.7659">
        <ele>442.1</ele>
        <time>2017-02-12T08:19:44.000Z</time>
      </trkpt>
      <trkpt lat="47.50702" lon="6.7659">
        <ele>442.2</ele>
        <time>2017-02-12T08:19:45.000Z</time>
      </trkpt>
      <trkpt lat="47.50699" lon="6.7659">
        <ele>442.2</ele>
        <time>2017-02-12T08:19:46.000Z</time>
      </trkpt>
      <trkpt lat="47.50695" lon="6.7659">
        <ele>442.3</ele>
        <time>2017-02-12T08:19:47.000Z</time>
      </trkpt>
      <trkpt lat="47.50692" lon="6.7659">
        <ele>442.3</ele>
        <time>2017-02-12T08:19:48.000Z</time>
      </trkpt>
      <trkpt lat="47.50689" lon="6.7659">
        <ele>442.4</ele>
        <time>2017-02-12T08:19:49.000Z</time>
      </trkpt>
      <trkpt lat="47.50685" lon="6.76591">
        <ele>442.5</ele>
        <time>2017-02-12T08:19:51.000Z</time>
      </trkpt>
      <trkpt lat="47.50682" lon="6.76591">
        <ele>442.6</ele>
        <time>2017-02-12T08:19:52.000Z</time>
      </trkpt>
      <trkpt lat="47.50679" lon="6.76592">
        <ele>442.7</ele>
        <time>2017-02-12T08:19:53.000Z</time>
      </trkpt>
      <trkpt lat="47.50676" lon="6.76593">
        <ele>442.8</ele>
        <time>2017-02-12T08:19:54.000Z</time>
      </trkpt>
      <trkpt lat="47.50674" lon="6.76593">
        <ele>442.9</ele>
        <time>2017-02-12T08:19:55.000Z</time>
      </trkpt>
      <trkpt lat="47.50671" lon="6.76593">
        <ele>443</ele>
        <time>2017-02-12T08:19:56.000Z</time>
      </trkpt>
      <trkpt lat="47.50668" lon="6.76594">
        <ele>443</ele>
        <time>2017-02-12T08:19:57.000Z</time>
      </trkpt>
      <trkpt lat="47.50665" lon="6.76594">
        <ele>443.1</ele>
        <time>2017-02-12T08:19:58.000Z</time>
      </trkpt>
      <trkpt lat="47.50662" lon="6.76595">
        <ele>443.2</ele>
        <time>2017-02-12T08:19:59.000Z</time>
      </trkpt>
      <trkpt lat="47.50659" lon="6.76596">
        <ele>443.2</ele>
        <time>2017-02-12T08:20:00.000Z</time>
      </trkpt>
      <trkpt lat="47.50656" lon="6.76597">
        <ele>443.3</ele>
        <time>2017-02-12T08:20:01.000Z</time>
      </trkpt>
      <trkpt lat="47.50653" lon="6.76598">
        <ele>443.4</ele>
        <time>2017-02-12T08:20:02.000Z</time>
      </trkpt>
      <trkpt lat="47.50651" lon="6.76599">
        <ele>443.4</ele>
        <time>2017-02-12T08:20:03.000Z</time>
      </trkpt>
      <trkpt lat="47.50648" lon="6.766">
        <ele>443.5</ele>
        <time>2017-02-12T08:20:04.000Z</time>
      </trkpt>
      <trkpt lat="47.50644" lon="6.76602">
        <ele>443.6</ele>
        <time>2017-02-12T08:20:05.000Z</time>
      </trkpt>
      <trkpt lat="47.50641" lon="6.76603">
        <ele>443.6</ele>
        <time>2017-02-12T08:20:06.000Z</time>
      </trkpt>
      <trkpt lat="47.50639" lon="6.76604">
        <ele>443.7</ele>
        <time>2017-02-12T08:20:07.000Z</time>
      </trkpt>
      <trkpt lat="47.50636" lon="6.76605">
        <ele>443.8</ele>
        <time>2017-02-12T08:20:08.000Z</time>
      </trkpt>
      <trkpt lat="47.50634" lon="6.76607">
        <ele>443.9</ele>
        <time>2017-02-12T08:20:09.000Z</time>
      </trkpt>
      <trkpt lat="47.50631" lon="6.76609">
        <ele>444</ele>
        <time>2017-02-12T08:20:10.000Z</time>
      </trkpt>
      <trkpt lat="47.50628" lon="6.76611">
        <ele>444.1</ele>
        <time>2017-02-12T08:20:11.000Z</time>
      </trkpt>
      <trkpt lat="47.50626" lon="6.76613">
        <ele>444.2</ele>
        <time>2017-02-12T08:20:12.000Z</time>
      </trkpt>
      <trkpt lat="47.50623" lon="6.76615">
        <ele>444.3</ele>
        <time>2017-02-12T08:20:13.000Z</time>
      </trkpt>
      <trkpt lat="47.5062" lon="6.76617">
        <ele>444.4</ele>
        <time>2017-02-12T08:20:14.000Z</time>
      </trkpt>
      <trkpt lat="47.50618" lon="6.76618">
        <ele>444.5</ele>
        <time>2017-02-12T08:20:15.000Z</time>
      </trkpt>
      <trkpt lat="47.50615" lon="6.76619">
        <ele>444.6</ele>
        <time>2017-02-12T08:20:16.000Z</time>
      </trkpt>
      <trkpt lat="47.50612" lon="6.7662">
        <ele>444.8</ele>
        <time>2017-02-12T08:20:17.000Z</time>
      </trkpt>
      <trkpt lat="47.50609" lon="6.76621">
        <ele>444.9</ele>
        <time>2017-02-12T08:20:18.000Z</time>
      </trkpt>
      <trkpt lat="47.50606" lon="6.76622">
        <ele>445</ele>
        <time>2017-02-12T08:20:19.000Z</time>
      </trkpt>
      <trkpt lat="47.50603" lon="6.76622">
        <ele>445.1</ele>
        <time>2017-02-12T08:20:20.000Z</time>
      </trkpt>
      <trkpt lat="47.50599" lon="6.76623">
        <ele>445.2</ele>
        <time>2017-02-12T08:20:21.000Z</time>
      </trkpt>
      <trkpt lat="47.50596" lon="6.76623">
        <ele>445.4</ele>
        <time>2017-02-12T08:20:22.000Z</time>
      </trkpt>
      <trkpt lat="47.50593" lon="6.76624">
        <ele>445.5</ele>
        <time>2017-02-12T08:20:23.000Z</time>
      </trkpt>
      <trkpt lat="47.5059" lon="6.76626">
        <ele>445.7</ele>
        <time>2017-02-12T08:20:24.000Z</time>
      </trkpt>
      <trkpt lat="47.50587" lon="6.76627">
        <ele>445.9</ele>
        <time>2017-02-12T08:20:25.000Z</time>
      </trkpt>
      <trkpt lat="47.50584" lon="6.76628">
        <ele>446.1</ele>
        <time>2017-02-12T08:20:26.000Z</time>
      </trkpt>
      <trkpt lat="47.50581" lon="6.76629">
        <ele>446.2</ele>
        <time>2017-02-12T08:20:27.000Z</time>
      </trkpt>
      <trkpt lat="47.50579" lon="6.7663">
        <ele>446.4</ele>
        <time>2017-02-12T08:20:28.000Z</time>
      </trkpt>
      <trkpt lat="47.50575" lon="6.76631">
        <ele>446.5</ele>
        <time>2017-02-12T08:20:29.000Z</time>
      </trkpt>
      <trkpt lat="47.50572" lon="6.76631">
        <ele>446.6</ele>
        <time>2017-02-12T08:20:30.000Z</time>
      </trkpt>
      <trkpt lat="47.5057" lon="6.76631">
        <ele>446.7</ele>
        <time>2017-02-12T08:20:31.000Z</time>
      </trkpt>
      <trkpt lat="47.50568" lon="6.76632">
        <ele>446.9</ele>
        <time>2017-02-12T08:20:32.000Z</time>
      </trkpt>
      <trkpt lat="47.50565" lon="6.76633">
        <ele>447</ele>
        <time>2017-02-12T08:20:33.000Z</time>
      </trkpt>
      <trkpt lat="47.50563" lon="6.76635">
        <ele>447.1</ele>
        <time>2017-02-12T08:20:34.000Z</time>
      </trkpt>
      <trkpt lat="47.50559" lon="6.76636">
        <ele>447.1</ele>
        <time>2017-02-12T08:20:35.000Z</time>
      </trkpt>
      <trkpt lat="47.50556" lon="6.76637">
        <ele>447.2</ele>
        <time>2017-02-12T08:20:36.000Z</time>
      </trkpt>
      <trkpt lat="47.50553" lon="6.76638">
        <ele>447.3</ele>
        <time>2017-02-12T08:20:37.000Z</time>
      </trkpt>
      <trkpt lat="47.5055" lon="6.76639">
        <ele>447.4</ele>
        <time>2017-02-12T08:20:38.000Z</time>
      </trkpt>
      <trkpt lat="47.50546" lon="6.7664">
        <ele>447.4</ele>
        <time>2017-02-12T08:20:39.000Z</time>
      </trkpt>
      <trkpt lat="47.50542" lon="6.76641">
        <ele>447.5</ele>
        <time>2017-02-12T08:20:40.000Z</time>
      </trkpt>
      <trkpt lat="47.50539" lon="6.76642">
        <ele>447.6</ele>
        <time>2017-02-12T08:20:41.000Z</time>
      </trkpt>
      <trkpt lat="47.50536" lon="6.76643">
        <ele>447.7</ele>
        <time>2017-02-12T08:20:42.000Z</time>
      </trkpt>
      <trkpt lat="47.50533" lon="6.76644">
        <ele>448.5</ele>
        <time>2017-02-12T08:20:43.000Z</time>
      </trkpt>
      <trkpt lat="47.50529" lon="6.76645">
        <ele>449.6</ele>
        <time>2017-02-12T08:20:44.000Z</time>
      </trkpt>
      <trkpt lat="47.50525" lon="6.76647">
        <ele>450.2</ele>
        <time>2017-02-12T08:20:45.000Z</time>
      </trkpt>
      <trkpt lat="47.50521" lon="6.76648">
        <ele>450.3</ele>
        <time>2017-02-12T08:20:46.000Z</time>
      </trkpt>
      <trkpt lat="47.50516" lon="6.76648">
        <ele>450.7</ele>
        <time>2017-02-12T08:20:47.000Z</time>
      </trkpt>
      <trkpt lat="47.50512" lon="6.76649">
        <ele>450.6</ele>
        <time>2017-02-12T08:20:48.000Z</time>
      </trkpt>
      <trkpt lat="47.50508" lon="6.76651">
        <ele>450.6</ele>
        <time>2017-02-12T08:20:49.000Z</time>
      </trkpt>
      <trkpt lat="47.50503" lon="6.76652">
        <ele>450.7</ele>
        <time>2017-02-12T08:20:50.000Z</time>
      </trkpt>
      <trkpt lat="47.50498" lon="6.76654">
        <ele>451.2</ele>
        <time>2017-02-12T08:20:51.000Z</time>
      </trkpt>
      <trkpt lat="47.50493" lon="6.76656">
        <ele>451.2</ele>
        <time>2017-02-12T08:20:52.000Z</time>
      </trkpt>
      <trkpt lat="47.50489" lon="6.76658">
        <ele>451.1</ele>
        <time>2017-02-12T08:20:53.000Z</time>
      </trkpt>
      <trkpt lat="47.50485" lon="6.7666">
        <ele>450.7</ele>
        <time>2017-02-12T08:20:54.000Z</time>
      </trkpt>
      <trkpt lat="47.5048" lon="6.76662">
        <ele>450.5</ele>
        <time>2017-02-12T08:20:55.000Z</time>
      </trkpt>
      <trkpt lat="47.50475" lon="6.76664">
        <ele>450</ele>
        <time>2017-02-12T08:20:56.000Z</time>
      </trkpt>
      <trkpt lat="47.5047" lon="6.76666">
        <ele>449.6</ele>
        <time>2017-02-12T08:20:57.000Z</time>
      </trkpt>
      <trkpt lat="47.50465" lon="6.76666">
        <ele>449.1</ele>
        <time>2017-02-12T08:20:58.000Z</time>
      </trkpt>
      <trkpt lat="47.50461" lon="6.76668">
        <ele>449.3</ele>
        <time>2017-02-12T08:20:59.000Z</time>
      </trkpt>
      <trkpt lat="47.50457" lon="6.76669">
        <ele>449.1</ele>
        <time>2017-02-12T08:21:00.000Z</time>
      </trkpt>
      <trkpt lat="47.50451" lon="6.76671">
        <ele>449</ele>
        <time>2017-02-12T08:21:01.000Z</time>
      </trkpt>
      <trkpt lat="47.50447" lon="6.76673">
        <ele>448.7</ele>
        <time>2017-02-12T08:21:02.000Z</time>
      </trkpt>
      <trkpt lat="47.50443" lon="6.76674">
        <ele>448.4</ele>
        <time>2017-02-12T08:21:03.000Z</time>
      </trkpt>
      <trkpt lat="47.50439" lon="6.76676">
        <ele>448.6</ele>
        <time>2017-02-12T08:21:04.000Z</time>
      </trkpt>
      <trkpt lat="47.50435" lon="6.76678">
        <ele>448.6</ele>
        <time>2017-02-12T08:21:05.000Z</time>
      </trkpt>
      <trkpt lat="47.5043" lon="6.7668">
        <ele>448.4</ele>
        <time>2017-02-12T08:21:06.000Z</time>
      </trkpt>
      <trkpt lat="47.50425" lon="6.76682">
        <ele>448.5</ele>
        <time>2017-02-12T08:21:07.000Z</time>
      </trkpt>
      <trkpt lat="47.50421" lon="6.76684">
        <ele>448.1</ele>
        <time>2017-02-12T08:21:08.000Z</time>
      </trkpt>
      <trkpt lat="47.50416" lon="6.76685">
        <ele>447.5</ele>
        <time>2017-02-12T08:21:09.000Z</time>
      </trkpt>
      <trkpt lat="47.50412" lon="6.76687">
        <ele>448.1</ele>
        <time>2017-02-12T08:21:10.000Z</time>
      </trkpt>
      <trkpt lat="47.50409" lon="6.76688">
        <ele>448.6</ele>
        <time>2017-02-12T08:21:11.000Z</time>
      </trkpt>
      <trkpt lat="47.50404" lon="6.7669">
        <ele>448.8</ele>
        <time>2017-02-12T08:21:12.000Z</time>
      </trkpt>
      <trkpt lat="47.50401" lon="6.76691">
        <ele>448.4</ele>
        <time>2017-02-12T08:21:13.000Z</time>
      </trkpt>
      <trkpt lat="47.50397" lon="6.76692">
        <ele>448.3</ele>
        <time>2017-02-12T08:21:14.000Z</time>
      </trkpt>
      <trkpt lat="47.50393" lon="6.76694">
        <ele>448.1</ele>
        <time>2017-02-12T08:21:15.000Z</time>
      </trkpt>
      <trkpt lat="47.5039" lon="6.76696">
        <ele>448</ele>
        <time>2017-02-12T08:21:16.000Z</time>
      </trkpt>
      <trkpt lat="47.50387" lon="6.76698">
        <ele>448.6</ele>
        <time>2017-02-12T08:21:17.000Z</time>
      </trkpt>
      <trkpt lat="47.50384" lon="6.767">
        <ele>449.4</ele>
        <time>2017-02-12T08:21:18.000Z</time>
      </trkpt>
      <trkpt lat="47.5038" lon="6.76702">
        <ele>450</ele>
        <time>2017-02-12T08:21:19.000Z</time>
      </trkpt>
      <trkpt lat="47.50376" lon="6.76703">
        <ele>450.6</ele>
        <time>2017-02-12T08:21:20.000Z</time>
      </trkpt>
      <trkpt lat="47.50372" lon="6.76705">
        <ele>450.9</ele>
        <time>2017-02-12T08:21:21.000Z</time>
      </trkpt>
      <trkpt lat="47.50368" lon="6.76707">
        <ele>451.4</ele>
        <time>2017-02-12T08:21:22.000Z</time>
      </trkpt>
      <trkpt lat="47.50364" lon="6.76708">
        <ele>451.4</ele>
        <time>2017-02-12T08:21:23.000Z</time>
      </trkpt>
      <trkpt lat="47.50359" lon="6.7671">
        <ele>451.5</ele>
        <time>2017-02-12T08:21:24.000Z</time>
      </trkpt>
      <trkpt lat="47.50356" lon="6.76711">
        <ele>451.5</ele>
        <time>2017-02-12T08:21:25.000Z</time>
      </trkpt>
      <trkpt lat="47.50353" lon="6.76712">
        <ele>451</ele>
        <time>2017-02-12T08:21:26.000Z</time>
      </trkpt>
      <trkpt lat="47.50349" lon="6.76714">
        <ele>450.6</ele>
        <time>2017-02-12T08:21:27.000Z</time>
      </trkpt>
      <trkpt lat="47.50344" lon="6.76716">
        <ele>450.5</ele>
        <time>2017-02-12T08:21:28.000Z</time>
      </trkpt>
      <trkpt lat="47.50341" lon="6.76717">
        <ele>450.2</ele>
        <time>2017-02-12T08:21:29.000Z</time>
      </trkpt>
      <trkpt lat="47.50337" lon="6.76719">
        <ele>450.1</ele>
        <time>2017-02-12T08:21:30.000Z</time>
      </trkpt>
      <trkpt lat="47.50333" lon="6.76721">
        <ele>450.2</ele>
        <time>2017-02-12T08:21:31.000Z</time>
      </trkpt>
      <trkpt lat="47.50329" lon="6.76722">
        <ele>450.2</ele>
        <time>2017-02-12T08:21:32.000Z</time>
      </trkpt>
      <trkpt lat="47.50326" lon="6.76723">
        <ele>450.2</ele>
        <time>2017-02-12T08:21:33.000Z</time>
      </trkpt>
      <trkpt lat="47.50323" lon="6.76724">
        <ele>450.2</ele>
        <time>2017-02-12T08:21:34.000Z</time>
      </trkpt>
      <trkpt lat="47.5032" lon="6.76726">
        <ele>450.2</ele>
        <time>2017-02-12T08:21:35.000Z</time>
      </trkpt>
      <trkpt lat="47.50316" lon="6.76728">
        <ele>449.8</ele>
        <time>2017-02-12T08:21:36.000Z</time>
      </trkpt>
      <trkpt lat="47.50312" lon="6.76731">
        <ele>449.8</ele>
        <time>2017-02-12T08:21:37.000Z</time>
      </trkpt>
      <trkpt lat="47.50309" lon="6.76733">
        <ele>449.8</ele>
        <time>2017-02-12T08:21:38.000Z</time>
      </trkpt>
      <trkpt lat="47.50306" lon="6.76734">
        <ele>449.7</ele>
        <time>2017-02-12T08:21:39.000Z</time>
      </trkpt>
      <trkpt lat="47.50303" lon="6.76736">
        <ele>449.7</ele>
        <time>2017-02-12T08:21:40.000Z</time>
      </trkpt>
      <trkpt lat="47.503" lon="6.76737">
        <ele>449.6</ele>
        <time>2017-02-12T08:21:41.000Z</time>
      </trkpt>
      <trkpt lat="47.50294" lon="6.76738">
        <ele>448.9</ele>
        <time>2017-02-12T08:21:42.000Z</time>
      </trkpt>
      <trkpt lat="47.50289" lon="6.76738">
        <ele>448.9</ele>
        <time>2017-02-12T08:21:43.000Z</time>
      </trkpt>
      <trkpt lat="47.50284" lon="6.76739">
        <ele>448.8</ele>
        <time>2017-02-12T08:21:44.000Z</time>
      </trkpt>
      <trkpt lat="47.5028" lon="6.76739">
        <ele>448.4</ele>
        <time>2017-02-12T08:21:45.000Z</time>
      </trkpt>
      <trkpt lat="47.50276" lon="6.7674">
        <ele>448.3</ele>
        <time>2017-02-12T08:21:46.000Z</time>
      </trkpt>
      <trkpt lat="47.50273" lon="6.7674">
        <ele>448.3</ele>
        <time>2017-02-12T08:21:47.000Z</time>
      </trkpt>
      <trkpt lat="47.5027" lon="6.76741">
        <ele>448.4</ele>
        <time>2017-02-12T08:21:48.000Z</time>
      </trkpt>
      <trkpt lat="47.50266" lon="6.76742">
        <ele>448.4</ele>
        <time>2017-02-12T08:21:49.000Z</time>
      </trkpt>
      <trkpt lat="47.50263" lon="6.76743">
        <ele>448.5</ele>
        <time>2017-02-12T08:21:50.000Z</time>
      </trkpt>
      <trkpt lat="47.5026" lon="6.76744">
        <ele>448.5</ele>
        <time>2017-02-12T08:21:51.000Z</time>
      </trkpt>
      <trkpt lat="47.50257" lon="6.76745">
        <ele>448.5</ele>
        <time>2017-02-12T08:21:52.000Z</time>
      </trkpt>
      <trkpt lat="47.50254" lon="6.76744">
        <ele>448.6</ele>
        <time>2017-02-12T08:21:53.000Z</time>
      </trkpt>
      <trkpt lat="47.50251" lon="6.76742">
        <ele>448.6</ele>
        <time>2017-02-12T08:21:54.000Z</time>
      </trkpt>
      <trkpt lat="47.50248" lon="6.76741">
        <ele>448.5</ele>
        <time>2017-02-12T08:21:55.000Z</time>
      </trkpt>
      <trkpt lat="47.50246" lon="6.76738">
        <ele>448.5</ele>
        <time>2017-02-12T08:21:56.000Z</time>
      </trkpt>
      <trkpt lat="47.50244" lon="6.76735">
        <ele>448.5</ele>
        <time>2017-02-12T08:21:57.000Z</time>
      </trkpt>
      <trkpt lat="47.50242" lon="6.76733">
        <ele>448.5</ele>
        <time>2017-02-12T08:21:58.000Z</time>
      </trkpt>
      <trkpt lat="47.5024" lon="6.76729">
        <ele>448.5</ele>
        <time>2017-02-12T08:21:59.000Z</time>
      </trkpt>
      <trkpt lat="47.50238" lon="6.76724">
        <ele>448.4</ele>
        <time>2017-02-12T08:22:00.000Z</time>
      </trkpt>
      <trkpt lat="47.50236" lon="6.76719">
        <ele>448.4</ele>
        <time>2017-02-12T08:22:01.000Z</time>
      </trkpt>
      <trkpt lat="47.50235" lon="6.76716">
        <ele>448.4</ele>
        <time>2017-02-12T08:22:02.000Z</time>
      </trkpt>
      <trkpt lat="47.50234" lon="6.76713">
        <ele>448.3</ele>
        <time>2017-02-12T08:22:03.000Z</time>
      </trkpt>
      <trkpt lat="47.50232" lon="6.76709">
        <ele>448.4</ele>
        <time>2017-02-12T08:22:04.000Z</time>
      </trkpt>
      <trkpt lat="47.5023" lon="6.76704">
        <ele>448.4</ele>
        <time>2017-02-12T08:22:05.000Z</time>
      </trkpt>
      <trkpt lat="47.50228" lon="6.767">
        <ele>448.4</ele>
        <time>2017-02-12T08:22:06.000Z</time>
      </trkpt>
      <trkpt lat="47.50227" lon="6.76697">
        <ele>448.4</ele>
        <time>2017-02-12T08:22:07.000Z</time>
      </trkpt>
      <trkpt lat="47.50226" lon="6.76693">
        <ele>448.4</ele>
        <time>2017-02-12T08:22:08.000Z</time>
      </trkpt>
      <trkpt lat="47.50224" lon="6.76688">
        <ele>448.4</ele>
        <time>2017-02-12T08:22:09.000Z</time>
      </trkpt>
      <trkpt lat="47.50223" lon="6.76684">
        <ele>448.4</ele>
        <time>2017-02-12T08:22:10.000Z</time>
      </trkpt>
      <trkpt lat="47.50222" lon="6.7668">
        <ele>448.5</ele>
        <time>2017-02-12T08:22:11.000Z</time>
      </trkpt>
      <trkpt lat="47.50221" lon="6.76675">
        <ele>448.5</ele>
        <time>2017-02-12T08:22:12.000Z</time>
      </trkpt>
      <trkpt lat="47.50219" lon="6.76669">
        <ele>448.5</ele>
        <time>2017-02-12T08:22:13.000Z</time>
      </trkpt>
      <trkpt lat="47.50217" lon="6.76664">
        <ele>448.6</ele>
        <time>2017-02-12T08:22:14.000Z</time>
      </trkpt>
      <trkpt lat="47.50215" lon="6.76659">
        <ele>448.6</ele>
        <time>2017-02-12T08:22:15.000Z</time>
      </trkpt>
      <trkpt lat="47.50213" lon="6.76654">
        <ele>448.7</ele>
        <time>2017-02-12T08:22:16.000Z</time>
      </trkpt>
      <trkpt lat="47.50212" lon="6.7665">
        <ele>448.7</ele>
        <time>2017-02-12T08:22:17.000Z</time>
      </trkpt>
      <trkpt lat="47.5021" lon="6.76646">
        <ele>448.7</ele>
        <time>2017-02-12T08:22:18.000Z</time>
      </trkpt>
      <trkpt lat="47.50208" lon="6.7664">
        <ele>448.7</ele>
        <time>2017-02-12T08:22:19.000Z</time>
      </trkpt>
      <trkpt lat="47.50206" lon="6.76634">
        <ele>448.6</ele>
        <time>2017-02-12T08:22:20.000Z</time>
      </trkpt>
      <trkpt lat="47.50204" lon="6.76627">
        <ele>449.2</ele>
        <time>2017-02-12T08:22:21.000Z</time>
      </trkpt>
      <trkpt lat="47.50202" lon="6.76622">
        <ele>449.2</ele>
        <time>2017-02-12T08:22:22.000Z</time>
      </trkpt>
      <trkpt lat="47.502" lon="6.76617">
        <ele>449.4</ele>
        <time>2017-02-12T08:22:23.000Z</time>
      </trkpt>
      <trkpt lat="47.50198" lon="6.76613">
        <ele>449.5</ele>
        <time>2017-02-12T08:22:24.000Z</time>
      </trkpt>
      <trkpt lat="47.50197" lon="6.76609">
        <ele>449.4</ele>
        <time>2017-02-12T08:22:25.000Z</time>
      </trkpt>
      <trkpt lat="47.50196" lon="6.76605">
        <ele>449.3</ele>
        <time>2017-02-12T08:22:26.000Z</time>
      </trkpt>
      <trkpt lat="47.50196" lon="6.76601">
        <ele>449.3</ele>
        <time>2017-02-12T08:22:27.000Z</time>
      </trkpt>
      <trkpt lat="47.50195" lon="6.76594">
        <ele>449.1</ele>
        <time>2017-02-12T08:22:30.000Z</time>
      </trkpt>
      <trkpt lat="47.50195" lon="6.76589">
        <ele>449.1</ele>
        <time>2017-02-12T08:22:31.000Z</time>
      </trkpt>
      <trkpt lat="47.50196" lon="6.76585">
        <ele>449</ele>
        <time>2017-02-12T08:22:32.000Z</time>
      </trkpt>
      <trkpt lat="47.50198" lon="6.76582">
        <ele>449</ele>
        <time>2017-02-12T08:22:33.000Z</time>
      </trkpt>
      <trkpt lat="47.50199" lon="6.7658">
        <ele>448.9</ele>
        <time>2017-02-12T08:22:34.000Z</time>
      </trkpt>
      <trkpt lat="47.50203" lon="6.7658">
        <ele>448.8</ele>
        <time>2017-02-12T08:22:35.000Z</time>
      </trkpt>
      <trkpt lat="47.50208" lon="6.76579">
        <ele>448.7</ele>
        <time>2017-02-12T08:22:36.000Z</time>
      </trkpt>
      <trkpt lat="47.50212" lon="6.76579">
        <ele>448.7</ele>
        <time>2017-02-12T08:22:37.000Z</time>
      </trkpt>
      <trkpt lat="47.50215" lon="6.76578">
        <ele>448.7</ele>
        <time>2017-02-12T08:22:38.000Z</time>
      </trkpt>
      <trkpt lat="47.5022" lon="6.76577">
        <ele>449.3</ele>
        <time>2017-02-12T08:22:39.000Z</time>
      </trkpt>
      <trkpt lat="47.50223" lon="6.76572">
        <ele>450.2</ele>
        <time>2017-02-12T08:22:40.000Z</time>
      </trkpt>
      <trkpt lat="47.50225" lon="6.76563">
        <ele>450.3</ele>
        <time>2017-02-12T08:22:41.000Z</time>
      </trkpt>
      <trkpt lat="47.50226" lon="6.76553">
        <ele>450.4</ele>
        <time>2017-02-12T08:22:42.000Z</time>
      </trkpt>
      <trkpt lat="47.50227" lon="6.76546">
        <ele>450.5</ele>
        <time>2017-02-12T08:22:43.000Z</time>
      </trkpt>
      <trkpt lat="47.50226" lon="6.76542">
        <ele>450.5</ele>
        <time>2017-02-12T08:22:44.000Z</time>
      </trkpt>
      <trkpt lat="47.50226" lon="6.76537">
        <ele>450.6</ele>
        <time>2017-02-12T08:22:45.000Z</time>
      </trkpt>
      <trkpt lat="47.50225" lon="6.76532">
        <ele>450.8</ele>
        <time>2017-02-12T08:22:46.000Z</time>
      </trkpt>
      <trkpt lat="47.50224" lon="6.76529">
        <ele>450.8</ele>
        <time>2017-02-12T08:22:47.000Z</time>
      </trkpt>
      <trkpt lat="47.50223" lon="6.76526">
        <ele>450.9</ele>
        <time>2017-02-12T08:22:48.000Z</time>
      </trkpt>
      <trkpt lat="47.50222" lon="6.76521">
        <ele>451</ele>
        <time>2017-02-12T08:22:49.000Z</time>
      </trkpt>
      <trkpt lat="47.5022" lon="6.76515">
        <ele>451.2</ele>
        <time>2017-02-12T08:22:50.000Z</time>
      </trkpt>
      <trkpt lat="47.50218" lon="6.76509">
        <ele>451.3</ele>
        <time>2017-02-12T08:22:51.000Z</time>
      </trkpt>
      <trkpt lat="47.50214" lon="6.76502">
        <ele>451.5</ele>
        <time>2017-02-12T08:22:52.000Z</time>
      </trkpt>
      <trkpt lat="47.50212" lon="6.76494">
        <ele>451.6</ele>
        <time>2017-02-12T08:22:53.000Z</time>
      </trkpt>
      <trkpt lat="47.50209" lon="6.76486">
        <ele>453.2</ele>
        <time>2017-02-12T08:22:54.000Z</time>
      </trkpt>
      <trkpt lat="47.50206" lon="6.76476">
        <ele>454.3</ele>
        <time>2017-02-12T08:22:55.000Z</time>
      </trkpt>
      <trkpt lat="47.50204" lon="6.76464">
        <ele>455.3</ele>
        <time>2017-02-12T08:22:56.000Z</time>
      </trkpt>
      <trkpt lat="47.50201" lon="6.76452">
        <ele>455.9</ele>
        <time>2017-02-12T08:22:57.000Z</time>
      </trkpt>
      <trkpt lat="47.50198" lon="6.7644">
        <ele>456.3</ele>
        <time>2017-02-12T08:22:58.000Z</time>
      </trkpt>
      <trkpt lat="47.50197" lon="6.76429">
        <ele>456.5</ele>
        <time>2017-02-12T08:22:59.000Z</time>
      </trkpt>
      <trkpt lat="47.50196" lon="6.76418">
        <ele>456.4</ele>
        <time>2017-02-12T08:23:00.000Z</time>
      </trkpt>
      <trkpt lat="47.50196" lon="6.76408">
        <ele>456.6</ele>
        <time>2017-02-12T08:23:01.000Z</time>
      </trkpt>
      <trkpt lat="47.50195" lon="6.76398">
        <ele>456.5</ele>
        <time>2017-02-12T08:23:02.000Z</time>
      </trkpt>
      <trkpt lat="47.50194" lon="6.76389">
        <ele>456.3</ele>
        <time>2017-02-12T08:23:03.000Z</time>
      </trkpt>
      <trkpt lat="47.50193" lon="6.76377">
        <ele>455.4</ele>
        <time>2017-02-12T08:23:04.000Z</time>
      </trkpt>
      <trkpt lat="47.50192" lon="6.76368">
        <ele>454</ele>
        <time>2017-02-12T08:23:05.000Z</time>
      </trkpt>
      <trkpt lat="47.50189" lon="6.7636">
        <ele>453.1</ele>
        <time>2017-02-12T08:23:06.000Z</time>
      </trkpt>
      <trkpt lat="47.50185" lon="6.76352">
        <ele>453.1</ele>
        <time>2017-02-12T08:23:07.000Z</time>
      </trkpt>
      <trkpt lat="47.50182" lon="6.76343">
        <ele>453.1</ele>
        <time>2017-02-12T08:23:08.000Z</time>
      </trkpt>
      <trkpt lat="47.50178" lon="6.76333">
        <ele>453.4</ele>
        <time>2017-02-12T08:23:09.000Z</time>
      </trkpt>
      <trkpt lat="47.50176" lon="6.76322">
        <ele>453.6</ele>
        <time>2017-02-12T08:23:10.000Z</time>
      </trkpt>
      <trkpt lat="47.50174" lon="6.76311">
        <ele>453.8</ele>
        <time>2017-02-12T08:23:11.000Z</time>
      </trkpt>
      <trkpt lat="47.50173" lon="6.76303">
        <ele>452.7</ele>
        <time>2017-02-12T08:23:12.000Z</time>
      </trkpt>
      <trkpt lat="47.50171" lon="6.76292">
        <ele>451.6</ele>
        <time>2017-02-12T08:23:13.000Z</time>
      </trkpt>
      <trkpt lat="47.5017" lon="6.76286">
        <ele>450.3</ele>
        <time>2017-02-12T08:23:14.000Z</time>
      </trkpt>
      <trkpt lat="47.50168" lon="6.76278">
        <ele>450.3</ele>
        <time>2017-02-12T08:23:15.000Z</time>
      </trkpt>
      <trkpt lat="47.50165" lon="6.76268">
        <ele>449.8</ele>
        <time>2017-02-12T08:23:16.000Z</time>
      </trkpt>
      <trkpt lat="47.50163" lon="6.76257">
        <ele>449.6</ele>
        <time>2017-02-12T08:23:17.000Z</time>
      </trkpt>
      <trkpt lat="47.5016" lon="6.76247">
        <ele>449.5</ele>
        <time>2017-02-12T08:23:18.000Z</time>
      </trkpt>
      <trkpt lat="47.50157" lon="6.76236">
        <ele>449.3</ele>
        <time>2017-02-12T08:23:19.000Z</time>
      </trkpt>
      <trkpt lat="47.50152" lon="6.76224">
        <ele>449.3</ele>
        <time>2017-02-12T08:23:20.000Z</time>
      </trkpt>
      <trkpt lat="47.50149" lon="6.76214">
        <ele>449.6</ele>
        <time>2017-02-12T08:23:21.000Z</time>
      </trkpt>
      <trkpt lat="47.50146" lon="6.762">
        <ele>450.8</ele>
        <time>2017-02-12T08:23:22.000Z</time>
      </trkpt>
      <trkpt lat="47.50143" lon="6.76188">
        <ele>451.5</ele>
        <time>2017-02-12T08:23:23.000Z</time>
      </trkpt>
      <trkpt lat="47.50142" lon="6.76177">
        <ele>452.1</ele>
        <time>2017-02-12T08:23:24.000Z</time>
      </trkpt>
      <trkpt lat="47.50141" lon="6.76165">
        <ele>451.7</ele>
        <time>2017-02-12T08:23:25.000Z</time>
      </trkpt>
      <trkpt lat="47.5014" lon="6.76154">
        <ele>451.5</ele>
        <time>2017-02-12T08:23:26.000Z</time>
      </trkpt>
      <trkpt lat="47.50137" lon="6.76145">
        <ele>451.5</ele>
        <time>2017-02-12T08:23:27.000Z</time>
      </trkpt>
      <trkpt lat="47.50134" lon="6.76136">
        <ele>451.3</ele>
        <time>2017-02-12T08:23:28.000Z</time>
      </trkpt>
      <trkpt lat="47.50131" lon="6.76125">
        <ele>451.4</ele>
        <time>2017-02-12T08:23:29.000Z</time>
      </trkpt>
      <trkpt lat="47.50127" lon="6.76113">
        <ele>451.2</ele>
        <time>2017-02-12T08:23:30.000Z</time>
      </trkpt>
      <trkpt lat="47.50123" lon="6.76101">
        <ele>450.5</ele>
        <time>2017-02-12T08:23:31.000Z</time>
      </trkpt>
      <trkpt lat="47.50122" lon="6.7609">
        <ele>450.3</ele>
        <time>2017-02-12T08:23:32.000Z</time>
      </trkpt>
      <trkpt lat="47.5012" lon="6.76076">
        <ele>450.1</ele>
        <time>2017-02-12T08:23:33.000Z</time>
      </trkpt>
      <trkpt lat="47.50118" lon="6.76063">
        <ele>449.3</ele>
        <time>2017-02-12T08:23:34.000Z</time>
      </trkpt>
      <trkpt lat="47.50117" lon="6.7605">
        <ele>448.8</ele>
        <time>2017-02-12T08:23:35.000Z</time>
      </trkpt>
      <trkpt lat="47.50116" lon="6.76037">
        <ele>448.4</ele>
        <time>2017-02-12T08:23:36.000Z</time>
      </trkpt>
      <trkpt lat="47.50115" lon="6.76024">
        <ele>446.8</ele>
        <time>2017-02-12T08:23:37.000Z</time>
      </trkpt>
      <trkpt lat="47.50114" lon="6.76012">
        <ele>445.4</ele>
        <time>2017-02-12T08:23:38.000Z</time>
      </trkpt>
      <trkpt lat="47.5011" lon="6.76">
        <ele>444</ele>
        <time>2017-02-12T08:23:39.000Z</time>
      </trkpt>
      <trkpt lat="47.50106" lon="6.75989">
        <ele>443.3</ele>
        <time>2017-02-12T08:23:40.000Z</time>
      </trkpt>
      <trkpt lat="47.501" lon="6.7598">
        <ele>443.2</ele>
        <time>2017-02-12T08:23:41.000Z</time>
      </trkpt>
      <trkpt lat="47.50095" lon="6.75972">
        <ele>443.1</ele>
        <time>2017-02-12T08:23:42.000Z</time>
      </trkpt>
      <trkpt lat="47.50089" lon="6.75964">
        <ele>443.1</ele>
        <time>2017-02-12T08:23:43.000Z</time>
      </trkpt>
      <trkpt lat="47.50083" lon="6.75955">
        <ele>442.7</ele>
        <time>2017-02-12T08:23:44.000Z</time>
      </trkpt>
      <trkpt lat="47.50077" lon="6.75945">
        <ele>442.8</ele>
        <time>2017-02-12T08:23:45.000Z</time>
      </trkpt>
      <trkpt lat="47.50072" lon="6.75938">
        <ele>442.6</ele>
        <time>2017-02-12T08:23:46.000Z</time>
      </trkpt>
      <trkpt lat="47.50066" lon="6.75929">
        <ele>442.2</ele>
        <time>2017-02-12T08:23:47.000Z</time>
      </trkpt>
      <trkpt lat="47.50061" lon="6.75922">
        <ele>442.5</ele>
        <time>2017-02-12T08:23:48.000Z</time>
      </trkpt>
      <trkpt lat="47.50057" lon="6.75916">
        <ele>441.1</ele>
        <time>2017-02-12T08:23:49.000Z</time>
      </trkpt>
      <trkpt lat="47.50054" lon="6.7591">
        <ele>439.6</ele>
        <time>2017-02-12T08:23:50.000Z</time>
      </trkpt>
      <trkpt lat="47.50051" lon="6.75904">
        <ele>438.3</ele>
        <time>2017-02-12T08:23:51.000Z</time>
      </trkpt>
      <trkpt lat="47.50047" lon="6.75896">
        <ele>438.2</ele>
        <time>2017-02-12T08:23:52.000Z</time>
      </trkpt>
      <trkpt lat="47.50042" lon="6.75887">
        <ele>437.8</ele>
        <time>2017-02-12T08:23:53.000Z</time>
      </trkpt>
      <trkpt lat="47.50037" lon="6.75875">
        <ele>437.8</ele>
        <time>2017-02-12T08:23:54.000Z</time>
      </trkpt>
      <trkpt lat="47.50033" lon="6.75867">
        <ele>437.2</ele>
        <time>2017-02-12T08:23:55.000Z</time>
      </trkpt>
      <trkpt lat="47.50029" lon="6.75859">
        <ele>436</ele>
        <time>2017-02-12T08:23:56.000Z</time>
      </trkpt>
      <trkpt lat="47.50024" lon="6.75848">
        <ele>434.9</ele>
        <time>2017-02-12T08:23:57.000Z</time>
      </trkpt>
      <trkpt lat="47.5002" lon="6.7584">
        <ele>433.2</ele>
        <time>2017-02-12T08:23:58.000Z</time>
      </trkpt>
      <trkpt lat="47.50014" lon="6.75832">
        <ele>431.9</ele>
        <time>2017-02-12T08:23:59.000Z</time>
      </trkpt>
      <trkpt lat="47.50009" lon="6.75825">
        <ele>430.5</ele>
        <time>2017-02-12T08:24:00.000Z</time>
      </trkpt>
      <trkpt lat="47.50004" lon="6.75817">
        <ele>429.4</ele>
        <time>2017-02-12T08:24:01.000Z</time>
      </trkpt>
      <trkpt lat="47.49999" lon="6.75807">
        <ele>428.1</ele>
        <time>2017-02-12T08:24:02.000Z</time>
      </trkpt>
      <trkpt lat="47.4999" lon="6.75798">
        <ele>425.9</ele>
        <time>2017-02-12T08:24:03.000Z</time>
      </trkpt>
      <trkpt lat="47.49984" lon="6.75788">
        <ele>424.3</ele>
        <time>2017-02-12T08:24:04.000Z</time>
      </trkpt>
      <trkpt lat="47.49978" lon="6.75778">
        <ele>423.8</ele>
        <time>2017-02-12T08:24:05.000Z</time>
      </trkpt>
      <trkpt lat="47.49972" lon="6.75771">
        <ele>421.7</ele>
        <time>2017-02-12T08:24:06.000Z</time>
      </trkpt>
      <trkpt lat="47.49965" lon="6.75762">
        <ele>420.2</ele>
        <time>2017-02-12T08:24:07.000Z</time>
      </trkpt>
      <trkpt lat="47.49958" lon="6.75754">
        <ele>418.7</ele>
        <time>2017-02-12T08:24:08.000Z</time>
      </trkpt>
      <trkpt lat="47.49952" lon="6.75747">
        <ele>417.7</ele>
        <time>2017-02-12T08:24:09.000Z</time>
      </trkpt>
      <trkpt lat="47.49947" lon="6.7574">
        <ele>417.3</ele>
        <time>2017-02-12T08:24:10.000Z</time>
      </trkpt>
      <trkpt lat="47.49942" lon="6.7573">
        <ele>417.5</ele>
        <time>2017-02-12T08:24:11.000Z</time>
      </trkpt>
      <trkpt lat="47.4994" lon="6.75723">
        <ele>416.7</ele>
        <time>2017-02-12T08:24:12.000Z</time>
      </trkpt>
      <trkpt lat="47.49934" lon="6.75719">
        <ele>416.6</ele>
        <time>2017-02-12T08:24:13.000Z</time>
      </trkpt>
      <trkpt lat="47.49927" lon="6.75716">
        <ele>416.3</ele>
        <time>2017-02-12T08:24:14.000Z</time>
      </trkpt>
      <trkpt lat="47.4992" lon="6.75715">
        <ele>417.8</ele>
        <time>2017-02-12T08:24:15.000Z</time>
      </trkpt>
      <trkpt lat="47.49914" lon="6.75714">
        <ele>418.7</ele>
        <time>2017-02-12T08:24:16.000Z</time>
      </trkpt>
      <trkpt lat="47.49905" lon="6.75712">
        <ele>419.3</ele>
        <time>2017-02-12T08:24:17.000Z</time>
      </trkpt>
      <trkpt lat="47.49896" lon="6.75712">
        <ele>420.9</ele>
        <time>2017-02-12T08:24:18.000Z</time>
      </trkpt>
      <trkpt lat="47.49888" lon="6.75711">
        <ele>421.6</ele>
        <time>2017-02-12T08:24:19.000Z</time>
      </trkpt>
      <trkpt lat="47.49878" lon="6.7571">
        <ele>422.2</ele>
        <time>2017-02-12T08:24:20.000Z</time>
      </trkpt>
      <trkpt lat="47.49869" lon="6.7571">
        <ele>422.2</ele>
        <time>2017-02-12T08:24:21.000Z</time>
      </trkpt>
      <trkpt lat="47.49858" lon="6.75709">
        <ele>421.7</ele>
        <time>2017-02-12T08:24:22.000Z</time>
      </trkpt>
      <trkpt lat="47.49847" lon="6.75709">
        <ele>420.5</ele>
        <time>2017-02-12T08:24:23.000Z</time>
      </trkpt>
      <trkpt lat="47.49835" lon="6.75711">
        <ele>418.9</ele>
        <time>2017-02-12T08:24:24.000Z</time>
      </trkpt>
      <trkpt lat="47.49825" lon="6.75713">
        <ele>418.3</ele>
        <time>2017-02-12T08:24:25.000Z</time>
      </trkpt>
      <trkpt lat="47.49818" lon="6.75716">
        <ele>417.3</ele>
        <time>2017-02-12T08:24:26.000Z</time>
      </trkpt>
      <trkpt lat="47.49809" lon="6.7572">
        <ele>416.7</ele>
        <time>2017-02-12T08:24:27.000Z</time>
      </trkpt>
      <trkpt lat="47.49797" lon="6.75724">
        <ele>416.1</ele>
        <time>2017-02-12T08:24:28.000Z</time>
      </trkpt>
      <trkpt lat="47.49788" lon="6.75728">
        <ele>415</ele>
        <time>2017-02-12T08:24:29.000Z</time>
      </trkpt>
      <trkpt lat="47.49778" lon="6.75732">
        <ele>413.7</ele>
        <time>2017-02-12T08:24:30.000Z</time>
      </trkpt>
      <trkpt lat="47.49769" lon="6.75736">
        <ele>412.3</ele>
        <time>2017-02-12T08:24:31.000Z</time>
      </trkpt>
      <trkpt lat="47.49759" lon="6.75739">
        <ele>410.4</ele>
        <time>2017-02-12T08:24:32.000Z</time>
      </trkpt>
      <trkpt lat="47.4975" lon="6.75742">
        <ele>408.2</ele>
        <time>2017-02-12T08:24:33.000Z</time>
      </trkpt>
      <trkpt lat="47.49741" lon="6.75744">
        <ele>406.4</ele>
        <time>2017-02-12T08:24:34.000Z</time>
      </trkpt>
      <trkpt lat="47.49734" lon="6.75747">
        <ele>405.2</ele>
        <time>2017-02-12T08:24:35.000Z</time>
      </trkpt>
      <trkpt lat="47.49726" lon="6.75749">
        <ele>403.9</ele>
        <time>2017-02-12T08:24:36.000Z</time>
      </trkpt>
      <trkpt lat="47.4972" lon="6.75751">
        <ele>402.7</ele>
        <time>2017-02-12T08:24:37.000Z</time>
      </trkpt>
      <trkpt lat="47.49713" lon="6.75752">
        <ele>402.1</ele>
        <time>2017-02-12T08:24:38.000Z</time>
      </trkpt>
      <trkpt lat="47.49706" lon="6.75755">
        <ele>402.2</ele>
        <time>2017-02-12T08:24:39.000Z</time>
      </trkpt>
      <trkpt lat="47.497" lon="6.75758">
        <ele>402.2</ele>
        <time>2017-02-12T08:24:40.000Z</time>
      </trkpt>
      <trkpt lat="47.49694" lon="6.75759">
        <ele>401.7</ele>
        <time>2017-02-12T08:24:41.000Z</time>
      </trkpt>
      <trkpt lat="47.49688" lon="6.75761">
        <ele>402</ele>
        <time>2017-02-12T08:24:42.000Z</time>
      </trkpt>
      <trkpt lat="47.49683" lon="6.75763">
        <ele>401.9</ele>
        <time>2017-02-12T08:24:43.000Z</time>
      </trkpt>
      <trkpt lat="47.49678" lon="6.75764">
        <ele>401.8</ele>
        <time>2017-02-12T08:24:44.000Z</time>
      </trkpt>
      <trkpt lat="47.49672" lon="6.75765">
        <ele>402.3</ele>
        <time>2017-02-12T08:24:45.000Z</time>
      </trkpt>
      <trkpt lat="47.49666" lon="6.75765">
        <ele>402.2</ele>
        <time>2017-02-12T08:24:46.000Z</time>
      </trkpt>
      <trkpt lat="47.4966" lon="6.75765">
        <ele>402.1</ele>
        <time>2017-02-12T08:24:47.000Z</time>
      </trkpt>
      <trkpt lat="47.49654" lon="6.75764">
        <ele>401.8</ele>
        <time>2017-02-12T08:24:48.000Z</time>
      </trkpt>
      <trkpt lat="47.49647" lon="6.75763">
        <ele>401.8</ele>
        <time>2017-02-12T08:24:49.000Z</time>
      </trkpt>
      <trkpt lat="47.4964" lon="6.75763">
        <ele>401.5</ele>
        <time>2017-02-12T08:24:50.000Z</time>
      </trkpt>
      <trkpt lat="47.49632" lon="6.75763">
        <ele>401.6</ele>
        <time>2017-02-12T08:24:51.000Z</time>
      </trkpt>
      <trkpt lat="47.49625" lon="6.75763">
        <ele>401.6</ele>
        <time>2017-02-12T08:24:52.000Z</time>
      </trkpt>
      <trkpt lat="47.4962" lon="6.75763">
        <ele>401.5</ele>
        <time>2017-02-12T08:24:53.000Z</time>
      </trkpt>
      <trkpt lat="47.49617" lon="6.75765">
        <ele>400.7</ele>
        <time>2017-02-12T08:25:00.000Z</time>
      </trkpt>
      <trkpt lat="47.49608" lon="6.75768">
        <ele>400.6</ele>
        <time>2017-02-12T08:25:01.000Z</time>
      </trkpt>
      <trkpt lat="47.49602" lon="6.75767">
        <ele>399.5</ele>
        <time>2017-02-12T08:25:02.000Z</time>
      </trkpt>
      <trkpt lat="47.49595" lon="6.75765">
        <ele>398</ele>
        <time>2017-02-12T08:25:03.000Z</time>
      </trkpt>
      <trkpt lat="47.49589" lon="6.75762">
        <ele>397.1</ele>
        <time>2017-02-12T08:25:04.000Z</time>
      </trkpt>
      <trkpt lat="47.49581" lon="6.75758">
        <ele>397.1</ele>
        <time>2017-02-12T08:25:05.000Z</time>
      </trkpt>
      <trkpt lat="47.49576" lon="6.75755">
        <ele>397</ele>
        <time>2017-02-12T08:25:06.000Z</time>
      </trkpt>
      <trkpt lat="47.49573" lon="6.75751">
        <ele>396.8</ele>
        <time>2017-02-12T08:25:07.000Z</time>
      </trkpt>
      <trkpt lat="47.49571" lon="6.75747">
        <ele>396.7</ele>
        <time>2017-02-12T08:25:08.000Z</time>
      </trkpt>
      <trkpt lat="47.49568" lon="6.75752">
        <ele>380.5</ele>
        <time>2017-02-12T08:25:16.000Z</time>
      </trkpt>
      <trkpt lat="47.49576" lon="6.75744">
        <ele>377.7</ele>
        <time>2017-02-12T08:25:17.000Z</time>
      </trkpt>
      <trkpt lat="47.4958" lon="6.75739">
        <ele>375.4</ele>
        <time>2017-02-12T08:25:18.000Z</time>
      </trkpt>
      <trkpt lat="47.49584" lon="6.75735">
        <ele>374.5</ele>
        <time>2017-02-12T08:25:19.000Z</time>
      </trkpt>
      <trkpt lat="47.49588" lon="6.7573">
        <ele>373.3</ele>
        <time>2017-02-12T08:25:20.000Z</time>
      </trkpt>
      <trkpt lat="47.49591" lon="6.75723">
        <ele>371.8</ele>
        <time>2017-02-12T08:25:21.000Z</time>
      </trkpt>
      <trkpt lat="47.49593" lon="6.75714">
        <ele>370.5</ele>
        <time>2017-02-12T08:25:22.000Z</time>
      </trkpt>
      <trkpt lat="47.49593" lon="6.75704">
        <ele>369.4</ele>
        <time>2017-02-12T08:25:23.000Z</time>
      </trkpt>
      <trkpt lat="47.49591" lon="6.75696">
        <ele>368.4</ele>
        <time>2017-02-12T08:25:24.000Z</time>
      </trkpt>
      <trkpt lat="47.49588" lon="6.75687">
        <ele>367.4</ele>
        <time>2017-02-12T08:25:25.000Z</time>
      </trkpt>
      <trkpt lat="47.49585" lon="6.7568">
        <ele>367.2</ele>
        <time>2017-02-12T08:25:26.000Z</time>
      </trkpt>
      <trkpt lat="47.49581" lon="6.75674">
        <ele>367</ele>
        <time>2017-02-12T08:25:27.000Z</time>
      </trkpt>
      <trkpt lat="47.49577" lon="6.75669">
        <ele>367.2</ele>
        <time>2017-02-12T08:25:28.000Z</time>
      </trkpt>
      <trkpt lat="47.49573" lon="6.75669">
        <ele>367.7</ele>
        <time>2017-02-12T08:25:29.000Z</time>
      </trkpt>
      <trkpt lat="47.49569" lon="6.75669">
        <ele>368.4</ele>
        <time>2017-02-12T08:25:30.000Z</time>
      </trkpt>
      <trkpt lat="47.49566" lon="6.75673">
        <ele>368.9</ele>
        <time>2017-02-12T08:25:31.000Z</time>
      </trkpt>
      <trkpt lat="47.49563" lon="6.75678">
        <ele>369.7</ele>
        <time>2017-02-12T08:25:32.000Z</time>
      </trkpt>
      <trkpt lat="47.49559" lon="6.75683">
        <ele>370.5</ele>
        <time>2017-02-12T08:25:33.000Z</time>
      </trkpt>
      <trkpt lat="47.49556" lon="6.75689">
        <ele>371.1</ele>
        <time>2017-02-12T08:25:34.000Z</time>
      </trkpt>
      <trkpt lat="47.49552" lon="6.75694">
        <ele>371.3</ele>
        <time>2017-02-12T08:25:35.000Z</time>
      </trkpt>
      <trkpt lat="47.49547" lon="6.757">
        <ele>371.8</ele>
        <time>2017-02-12T08:25:36.000Z</time>
      </trkpt>
      <trkpt lat="47.49543" lon="6.75706">
        <ele>372.7</ele>
        <time>2017-02-12T08:25:37.000Z</time>
      </trkpt>
      <trkpt lat="47.49538" lon="6.75711">
        <ele>372.9</ele>
        <time>2017-02-12T08:25:38.000Z</time>
      </trkpt>
      <trkpt lat="47.49534" lon="6.75716">
        <ele>372.9</ele>
        <time>2017-02-12T08:25:39.000Z</time>
      </trkpt>
      <trkpt lat="47.49529" lon="6.75719">
        <ele>372.3</ele>
        <time>2017-02-12T08:25:40.000Z</time>
      </trkpt>
      <trkpt lat="47.49524" lon="6.75723">
        <ele>371.8</ele>
        <time>2017-02-12T08:25:41.000Z</time>
      </trkpt>
      <trkpt lat="47.49519" lon="6.75726">
        <ele>371.6</ele>
        <time>2017-02-12T08:25:42.000Z</time>
      </trkpt>
      <trkpt lat="47.49514" lon="6.7573">
        <ele>370.4</ele>
        <time>2017-02-12T08:25:43.000Z</time>
      </trkpt>
      <trkpt lat="47.49509" lon="6.75732">
        <ele>369.6</ele>
        <time>2017-02-12T08:25:44.000Z</time>
      </trkpt>
      <trkpt lat="47.49504" lon="6.75735">
        <ele>368.8</ele>
        <time>2017-02-12T08:25:45.000Z</time>
      </trkpt>
      <trkpt lat="47.49499" lon="6.75738">
        <ele>368.1</ele>
        <time>2017-02-12T08:25:46.000Z</time>
      </trkpt>
      <trkpt lat="47.49494" lon="6.7574">
        <ele>367.6</ele>
        <time>2017-02-12T08:25:47.000Z</time>
      </trkpt>
      <trkpt lat="47.49488" lon="6.7574">
        <ele>367</ele>
        <time>2017-02-12T08:25:48.000Z</time>
      </trkpt>
      <trkpt lat="47.49484" lon="6.75736">
        <ele>366.1</ele>
        <time>2017-02-12T08:25:49.000Z</time>
      </trkpt>
      <trkpt lat="47.49481" lon="6.7573">
        <ele>364.8</ele>
        <time>2017-02-12T08:25:50.000Z</time>
      </trkpt>
      <trkpt lat="47.49479" lon="6.75724">
        <ele>363</ele>
        <time>2017-02-12T08:25:51.000Z</time>
      </trkpt>
      <trkpt lat="47.49477" lon="6.75717">
        <ele>361.7</ele>
        <time>2017-02-12T08:25:52.000Z</time>
      </trkpt>
      <trkpt lat="47.49475" lon="6.75709">
        <ele>361.6</ele>
        <time>2017-02-12T08:25:53.000Z</time>
      </trkpt>
      <trkpt lat="47.4947" lon="6.75702">
        <ele>361.8</ele>
        <time>2017-02-12T08:25:54.000Z</time>
      </trkpt>
      <trkpt lat="47.49465" lon="6.75698">
        <ele>362.1</ele>
        <time>2017-02-12T08:25:55.000Z</time>
      </trkpt>
      <trkpt lat="47.49459" lon="6.75696">
        <ele>362.5</ele>
        <time>2017-02-12T08:25:56.000Z</time>
      </trkpt>
      <trkpt lat="47.49455" lon="6.75698">
        <ele>362.9</ele>
        <time>2017-02-12T08:25:57.000Z</time>
      </trkpt>
      <trkpt lat="47.49451" lon="6.75699">
        <ele>363.2</ele>
        <time>2017-02-12T08:25:58.000Z</time>
      </trkpt>
      <trkpt lat="47.49446" lon="6.75698">
        <ele>363.5</ele>
        <time>2017-02-12T08:25:59.000Z</time>
      </trkpt>
      <trkpt lat="47.49441" lon="6.75695">
        <ele>363.6</ele>
        <time>2017-02-12T08:26:00.000Z</time>
      </trkpt>
      <trkpt lat="47.49439" lon="6.75689">
        <ele>363.6</ele>
        <time>2017-02-12T08:26:01.000Z</time>
      </trkpt>
      <trkpt lat="47.49438" lon="6.75683">
        <ele>363.1</ele>
        <time>2017-02-12T08:26:02.000Z</time>
      </trkpt>
      <trkpt lat="47.49436" lon="6.75678">
        <ele>363.1</ele>
        <time>2017-02-12T08:26:03.000Z</time>
      </trkpt>
      <trkpt lat="47.49434" lon="6.75672">
        <ele>362.8</ele>
        <time>2017-02-12T08:26:04.000Z</time>
      </trkpt>
      <trkpt lat="47.49429" lon="6.75668">
        <ele>362.8</ele>
        <time>2017-02-12T08:26:05.000Z</time>
      </trkpt>
      <trkpt lat="47.49425" lon="6.75667">
        <ele>362.8</ele>
        <time>2017-02-12T08:26:06.000Z</time>
      </trkpt>
      <trkpt lat="47.49422" lon="6.75669">
        <ele>362.9</ele>
        <time>2017-02-12T08:26:07.000Z</time>
      </trkpt>
      <trkpt lat="47.49419" lon="6.75672">
        <ele>363</ele>
        <time>2017-02-12T08:26:08.000Z</time>
      </trkpt>
      <trkpt lat="47.49416" lon="6.75674">
        <ele>363.6</ele>
        <time>2017-02-12T08:26:09.000Z</time>
      </trkpt>
      <trkpt lat="47.49414" lon="6.75674">
        <ele>363.7</ele>
        <time>2017-02-12T08:26:10.000Z</time>
      </trkpt>
      <trkpt lat="47.49411" lon="6.75676">
        <ele>364.7</ele>
        <time>2017-02-12T08:26:11.000Z</time>
      </trkpt>
      <trkpt lat="47.49407" lon="6.75679">
        <ele>366.1</ele>
        <time>2017-02-12T08:26:12.000Z</time>
      </trkpt>
      <trkpt lat="47.49403" lon="6.75681">
        <ele>367.4</ele>
        <time>2017-02-12T08:26:13.000Z</time>
      </trkpt>
      <trkpt lat="47.49399" lon="6.75684">
        <ele>367.8</ele>
        <time>2017-02-12T08:26:14.000Z</time>
      </trkpt>
      <trkpt lat="47.49395" lon="6.75687">
        <ele>368.5</ele>
        <time>2017-02-12T08:26:15.000Z</time>
      </trkpt>
      <trkpt lat="47.49391" lon="6.7569">
        <ele>369.2</ele>
        <time>2017-02-12T08:26:16.000Z</time>
      </trkpt>
      <trkpt lat="47.49388" lon="6.75693">
        <ele>369.1</ele>
        <time>2017-02-12T08:26:17.000Z</time>
      </trkpt>
      <trkpt lat="47.49385" lon="6.75696">
        <ele>368.7</ele>
        <time>2017-02-12T08:26:18.000Z</time>
      </trkpt>
      <trkpt lat="47.49382" lon="6.75698">
        <ele>368.7</ele>
        <time>2017-02-12T08:26:19.000Z</time>
      </trkpt>
      <trkpt lat="47.4938" lon="6.75699">
        <ele>368.6</ele>
        <time>2017-02-12T08:26:20.000Z</time>
      </trkpt>
      <trkpt lat="47.49378" lon="6.75701">
        <ele>368.7</ele>
        <time>2017-02-12T08:26:21.000Z</time>
      </trkpt>
      <trkpt lat="47.49374" lon="6.75704">
        <ele>368.8</ele>
        <time>2017-02-12T08:26:22.000Z</time>
      </trkpt>
      <trkpt lat="47.49371" lon="6.75705">
        <ele>369</ele>
        <time>2017-02-12T08:26:23.000Z</time>
      </trkpt>
      <trkpt lat="47.4937" lon="6.75707">
        <ele>369.5</ele>
        <time>2017-02-12T08:26:30.000Z</time>
      </trkpt>
      <trkpt lat="47.49362" lon="6.75711">
        <ele>369.6</ele>
        <time>2017-02-12T08:26:31.000Z</time>
      </trkpt>
      <trkpt lat="47.49358" lon="6.75713">
        <ele>369.8</ele>
        <time>2017-02-12T08:26:33.000Z</time>
      </trkpt>
      <trkpt lat="47.49355" lon="6.75715">
        <ele>371.2</ele>
        <time>2017-02-12T08:26:34.000Z</time>
      </trkpt>
      <trkpt lat="47.49351" lon="6.75717">
        <ele>372.4</ele>
        <time>2017-02-12T08:26:35.000Z</time>
      </trkpt>
      <trkpt lat="47.49345" lon="6.75719">
        <ele>374.1</ele>
        <time>2017-02-12T08:26:36.000Z</time>
      </trkpt>
      <trkpt lat="47.49339" lon="6.75721">
        <ele>375.1</ele>
        <time>2017-02-12T08:26:37.000Z</time>
      </trkpt>
      <trkpt lat="47.49332" lon="6.75724">
        <ele>376.1</ele>
        <time>2017-02-12T08:26:38.000Z</time>
      </trkpt>
      <trkpt lat="47.49326" lon="6.75728">
        <ele>376.7</ele>
        <time>2017-02-12T08:26:39.000Z</time>
      </trkpt>
      <trkpt lat="47.49321" lon="6.7573">
        <ele>376.8</ele>
        <time>2017-02-12T08:26:40.000Z</time>
      </trkpt>
      <trkpt lat="47.49316" lon="6.75734">
        <ele>376.7</ele>
        <time>2017-02-12T08:26:41.000Z</time>
      </trkpt>
      <trkpt lat="47.49311" lon="6.75737">
        <ele>375.9</ele>
        <time>2017-02-12T08:26:42.000Z</time>
      </trkpt>
      <trkpt lat="47.49307" lon="6.75739">
        <ele>375.3</ele>
        <time>2017-02-12T08:26:43.000Z</time>
      </trkpt>
      <trkpt lat="47.49303" lon="6.75745">
        <ele>375.3</ele>
        <time>2017-02-12T08:26:44.000Z</time>
      </trkpt>
      <trkpt lat="47.493" lon="6.75752">
        <ele>374.2</ele>
        <time>2017-02-12T08:26:45.000Z</time>
      </trkpt>
      <trkpt lat="47.49296" lon="6.75759">
        <ele>374.3</ele>
        <time>2017-02-12T08:26:46.000Z</time>
      </trkpt>
      <trkpt lat="47.49291" lon="6.75766">
        <ele>375.2</ele>
        <time>2017-02-12T08:26:47.000Z</time>
      </trkpt>
      <trkpt lat="47.49287" lon="6.75771">
        <ele>375.8</ele>
        <time>2017-02-12T08:26:47.999Z</time>
      </trkpt>
      <trkpt lat="47.49283" lon="6.75778">
        <ele>376.1</ele>
        <time>2017-02-12T08:26:48.999Z</time>
      </trkpt>
      <trkpt lat="47.4928" lon="6.75784">
        <ele>376.1</ele>
        <time>2017-02-12T08:26:49.999Z</time>
      </trkpt>
      <trkpt lat="47.49275" lon="6.7579">
        <ele>376.2</ele>
        <time>2017-02-12T08:26:50.999Z</time>
      </trkpt>
      <trkpt lat="47.49271" lon="6.75796">
        <ele>376.5</ele>
        <time>2017-02-12T08:26:51.999Z</time>
      </trkpt>
      <trkpt lat="47.49268" lon="6.75802">
        <ele>376.6</ele>
        <time>2017-02-12T08:26:52.999Z</time>
      </trkpt>
      <trkpt lat="47.49263" lon="6.75807">
        <ele>376.7</ele>
        <time>2017-02-12T08:26:53.999Z</time>
      </trkpt>
      <trkpt lat="47.4926" lon="6.75813">
        <ele>376.4</ele>
        <time>2017-02-12T08:26:54.999Z</time>
      </trkpt>
      <trkpt lat="47.49256" lon="6.75819">
        <ele>376.3</ele>
        <time>2017-02-12T08:26:55.999Z</time>
      </trkpt>
      <trkpt lat="47.49253" lon="6.75825">
        <ele>375.7</ele>
        <time>2017-02-12T08:26:56.999Z</time>
      </trkpt>
      <trkpt lat="47.49251" lon="6.7583">
        <ele>375.7</ele>
        <time>2017-02-12T08:26:57.999Z</time>
      </trkpt>
      <trkpt lat="47.49248" lon="6.75835">
        <ele>375.7</ele>
        <time>2017-02-12T08:26:58.999Z</time>
      </trkpt>
      <trkpt lat="47.49244" lon="6.75842">
        <ele>376.2</ele>
        <time>2017-02-12T08:26:59.999Z</time>
      </trkpt>
      <trkpt lat="47.49241" lon="6.75848">
        <ele>376.3</ele>
        <time>2017-02-12T08:27:00.999Z</time>
      </trkpt>
      <trkpt lat="47.49238" lon="6.75854">
        <ele>376.7</ele>
        <time>2017-02-12T08:27:01.999Z</time>
      </trkpt>
      <trkpt lat="47.49234" lon="6.7586">
        <ele>377</ele>
        <time>2017-02-12T08:27:02.999Z</time>
      </trkpt>
      <trkpt lat="47.4923" lon="6.75866">
        <ele>377</ele>
        <time>2017-02-12T08:27:03.999Z</time>
      </trkpt>
      <trkpt lat="47.49227" lon="6.75873">
        <ele>377</ele>
        <time>2017-02-12T08:27:04.999Z</time>
      </trkpt>
      <trkpt lat="47.49224" lon="6.75879">
        <ele>376.9</ele>
        <time>2017-02-12T08:27:05.999Z</time>
      </trkpt>
      <trkpt lat="47.49221" lon="6.75886">
        <ele>377.5</ele>
        <time>2017-02-12T08:27:06.999Z</time>
      </trkpt>
      <trkpt lat="47.49217" lon="6.75894">
        <ele>377.2</ele>
        <time>2017-02-12T08:27:07.999Z</time>
      </trkpt>
      <trkpt lat="47.49213" lon="6.75901">
        <ele>377.3</ele>
        <time>2017-02-12T08:27:08.999Z</time>
      </trkpt>
      <trkpt lat="47.49211" lon="6.75906">
        <ele>377.3</ele>
        <time>2017-02-12T08:27:09.999Z</time>
      </trkpt>
      <trkpt lat="47.4921" lon="6.75911">
        <ele>377.3</ele>
        <time>2017-02-12T08:27:10.999Z</time>
      </trkpt>
      <trkpt lat="47.49208" lon="6.75919">
        <ele>377.6</ele>
        <time>2017-02-12T08:27:11.999Z</time>
      </trkpt>
      <trkpt lat="47.49204" lon="6.75927">
        <ele>376.8</ele>
        <time>2017-02-12T08:27:12.999Z</time>
      </trkpt>
      <trkpt lat="47.492" lon="6.75937">
        <ele>376.1</ele>
        <time>2017-02-12T08:27:13.999Z</time>
      </trkpt>
      <trkpt lat="47.49197" lon="6.75943">
        <ele>375.6</ele>
        <time>2017-02-12T08:27:14.999Z</time>
      </trkpt>
      <trkpt lat="47.49194" lon="6.75951">
        <ele>373.9</ele>
        <time>2017-02-12T08:27:15.999Z</time>
      </trkpt>
      <trkpt lat="47.49191" lon="6.75956">
        <ele>372.7</ele>
        <time>2017-02-12T08:27:16.999Z</time>
      </trkpt>
      <trkpt lat="47.49189" lon="6.75961">
        <ele>372.3</ele>
        <time>2017-02-12T08:27:17.999Z</time>
      </trkpt>
      <trkpt lat="47.49187" lon="6.75966">
        <ele>371.9</ele>
        <time>2017-02-12T08:27:18.999Z</time>
      </trkpt>
      <trkpt lat="47.49186" lon="6.75973">
        <ele>371.9</ele>
        <time>2017-02-12T08:27:19.999Z</time>
      </trkpt>
      <trkpt lat="47.49184" lon="6.7598">
        <ele>372.2</ele>
        <time>2017-02-12T08:27:20.999Z</time>
      </trkpt>
      <trkpt lat="47.49181" lon="6.75989">
        <ele>372.8</ele>
        <time>2017-02-12T08:27:21.999Z</time>
      </trkpt>
      <trkpt lat="47.49178" lon="6.75997">
        <ele>373.6</ele>
        <time>2017-02-12T08:27:22.999Z</time>
      </trkpt>
      <trkpt lat="47.49174" lon="6.76006">
        <ele>373.9</ele>
        <time>2017-02-12T08:27:23.999Z</time>
      </trkpt>
      <trkpt lat="47.49171" lon="6.76013">
        <ele>374.4</ele>
        <time>2017-02-12T08:27:24.999Z</time>
      </trkpt>
      <trkpt lat="47.49168" lon="6.76017">
        <ele>375</ele>
        <time>2017-02-12T08:27:25.999Z</time>
      </trkpt>
      <trkpt lat="47.49164" lon="6.76022">
        <ele>375.8</ele>
        <time>2017-02-12T08:27:26.999Z</time>
      </trkpt>
      <trkpt lat="47.4916" lon="6.76029">
        <ele>375.4</ele>
        <time>2017-02-12T08:27:27.999Z</time>
      </trkpt>
      <trkpt lat="47.49157" lon="6.76036">
        <ele>374.3</ele>
        <time>2017-02-12T08:27:28.999Z</time>
      </trkpt>
      <trkpt lat="47.49155" lon="6.76041">
        <ele>373.5</ele>
        <time>2017-02-12T08:27:29.999Z</time>
      </trkpt>
      <trkpt lat="47.49152" lon="6.7605">
        <ele>372.6</ele>
        <time>2017-02-12T08:27:30.999Z</time>
      </trkpt>
      <trkpt lat="47.49149" lon="6.76058">
        <ele>372</ele>
        <time>2017-02-12T08:27:31.999Z</time>
      </trkpt>
      <trkpt lat="47.49147" lon="6.76064">
        <ele>371.6</ele>
        <time>2017-02-12T08:27:32.999Z</time>
      </trkpt>
      <trkpt lat="47.49145" lon="6.76071">
        <ele>371.4</ele>
        <time>2017-02-12T08:27:33.999Z</time>
      </trkpt>
      <trkpt lat="47.49143" lon="6.76077">
        <ele>370.8</ele>
        <time>2017-02-12T08:27:34.999Z</time>
      </trkpt>
      <trkpt lat="47.4914" lon="6.76085">
        <ele>369.9</ele>
        <time>2017-02-12T08:27:35.999Z</time>
      </trkpt>
      <trkpt lat="47.49138" lon="6.76094">
        <ele>368.8</ele>
        <time>2017-02-12T08:27:36.999Z</time>
      </trkpt>
      <trkpt lat="47.49137" lon="6.76102">
        <ele>368.4</ele>
        <time>2017-02-12T08:27:37.999Z</time>
      </trkpt>
      <trkpt lat="47.49136" lon="6.7611">
        <ele>368</ele>
        <time>2017-02-12T08:27:38.999Z</time>
      </trkpt>
      <trkpt lat="47.49136" lon="6.76118">
        <ele>367.6</ele>
        <time>2017-02-12T08:27:39.999Z</time>
      </trkpt>
      <trkpt lat="47.49135" lon="6.76127">
        <ele>367.1</ele>
        <time>2017-02-12T08:27:40.999Z</time>
      </trkpt>
      <trkpt lat="47.49133" lon="6.76138">
        <ele>366.9</ele>
        <time>2017-02-12T08:27:41.999Z</time>
      </trkpt>
      <trkpt lat="47.49132" lon="6.76147">
        <ele>366.6</ele>
        <time>2017-02-12T08:27:42.999Z</time>
      </trkpt>
      <trkpt lat="47.49131" lon="6.76153">
        <ele>366.7</ele>
        <time>2017-02-12T08:27:43.999Z</time>
      </trkpt>
      <trkpt lat="47.49128" lon="6.76159">
        <ele>366.6</ele>
        <time>2017-02-12T08:27:44.999Z</time>
      </trkpt>
      <trkpt lat="47.49126" lon="6.76166">
        <ele>366.6</ele>
        <time>2017-02-12T08:27:45.999Z</time>
      </trkpt>
      <trkpt lat="47.49124" lon="6.76173">
        <ele>366.4</ele>
        <time>2017-02-12T08:27:46.999Z</time>
      </trkpt>
      <trkpt lat="47.49123" lon="6.76181">
        <ele>366.1</ele>
        <time>2017-02-12T08:27:47.999Z</time>
      </trkpt>
      <trkpt lat="47.49123" lon="6.76187">
        <ele>365.5</ele>
        <time>2017-02-12T08:27:48.999Z</time>
      </trkpt>
      <trkpt lat="47.49123" lon="6.76196">
        <ele>365.1</ele>
        <time>2017-02-12T08:27:49.999Z</time>
      </trkpt>
      <trkpt lat="47.49123" lon="6.76204">
        <ele>364.4</ele>
        <time>2017-02-12T08:27:50.999Z</time>
      </trkpt>
      <trkpt lat="47.49123" lon="6.76211">
        <ele>364.3</ele>
        <time>2017-02-12T08:27:51.999Z</time>
      </trkpt>
      <trkpt lat="47.49124" lon="6.76218">
        <ele>363.7</ele>
        <time>2017-02-12T08:27:52.999Z</time>
      </trkpt>
      <trkpt lat="47.49125" lon="6.76227">
        <ele>363.2</ele>
        <time>2017-02-12T08:27:53.999Z</time>
      </trkpt>
      <trkpt lat="47.49125" lon="6.76235">
        <ele>363.2</ele>
        <time>2017-02-12T08:27:54.999Z</time>
      </trkpt>
      <trkpt lat="47.49125" lon="6.76246">
        <ele>363.6</ele>
        <time>2017-02-12T08:27:55.999Z</time>
      </trkpt>
      <trkpt lat="47.49125" lon="6.76254">
        <ele>364.1</ele>
        <time>2017-02-12T08:27:56.999Z</time>
      </trkpt>
      <trkpt lat="47.49125" lon="6.76261">
        <ele>364.2</ele>
        <time>2017-02-12T08:27:57.999Z</time>
      </trkpt>
      <trkpt lat="47.49125" lon="6.76268">
        <ele>364.2</ele>
        <time>2017-02-12T08:27:58.999Z</time>
      </trkpt>
      <trkpt lat="47.49124" lon="6.76272">
        <ele>364.2</ele>
        <time>2017-02-12T08:27:59.999Z</time>
      </trkpt>
      <trkpt lat="47.49123" lon="6.76278">
        <ele>364.3</ele>
        <time>2017-02-12T08:28:00.999Z</time>
      </trkpt>
      <trkpt lat="47.49122" lon="6.76285">
        <ele>364.2</ele>
        <time>2017-02-12T08:28:01.999Z</time>
      </trkpt>
      <trkpt lat="47.49122" lon="6.76289">
        <ele>364.2</ele>
        <time>2017-02-12T08:28:02.999Z</time>
      </trkpt>
      <trkpt lat="47.49121" lon="6.76294">
        <ele>364.1</ele>
        <time>2017-02-12T08:28:03.999Z</time>
      </trkpt>
      <trkpt lat="47.49119" lon="6.76299">
        <ele>364.2</ele>
        <time>2017-02-12T08:28:04.999Z</time>
      </trkpt>
      <trkpt lat="47.49119" lon="6.76306">
        <ele>364.3</ele>
        <time>2017-02-12T08:28:05.999Z</time>
      </trkpt>
      <trkpt lat="47.49118" lon="6.76312">
        <ele>364.3</ele>
        <time>2017-02-12T08:28:06.999Z</time>
      </trkpt>
      <trkpt lat="47.49118" lon="6.76319">
        <ele>364.4</ele>
        <time>2017-02-12T08:28:07.999Z</time>
      </trkpt>
      <trkpt lat="47.49119" lon="6.76327">
        <ele>364.9</ele>
        <time>2017-02-12T08:28:08.999Z</time>
      </trkpt>
      <trkpt lat="47.49119" lon="6.76335">
        <ele>366.2</ele>
        <time>2017-02-12T08:28:09.999Z</time>
      </trkpt>
      <trkpt lat="47.49119" lon="6.76343">
        <ele>366.3</ele>
        <time>2017-02-12T08:28:10.999Z</time>
      </trkpt>
      <trkpt lat="47.49118" lon="6.76355">
        <ele>367.9</ele>
        <time>2017-02-12T08:28:11.999Z</time>
      </trkpt>
      <trkpt lat="47.49118" lon="6.76363">
        <ele>369</ele>
        <time>2017-02-12T08:28:12.999Z</time>
      </trkpt>
      <trkpt lat="47.49118" lon="6.76371">
        <ele>369.1</ele>
        <time>2017-02-12T08:28:13.999Z</time>
      </trkpt>
      <trkpt lat="47.49118" lon="6.76377">
        <ele>369</ele>
        <time>2017-02-12T08:28:14.999Z</time>
      </trkpt>
      <trkpt lat="47.49117" lon="6.76384">
        <ele>368.2</ele>
        <time>2017-02-12T08:28:15.999Z</time>
      </trkpt>
      <trkpt lat="47.49116" lon="6.76389">
        <ele>367.6</ele>
        <time>2017-02-12T08:28:16.999Z</time>
      </trkpt>
      <trkpt lat="47.49115" lon="6.76397">
        <ele>366.7</ele>
        <time>2017-02-12T08:28:17.999Z</time>
      </trkpt>
      <trkpt lat="47.49114" lon="6.76405">
        <ele>365.7</ele>
        <time>2017-02-12T08:28:18.999Z</time>
      </trkpt>
      <trkpt lat="47.49114" lon="6.76412">
        <ele>365.7</ele>
        <time>2017-02-12T08:28:19.999Z</time>
      </trkpt>
      <trkpt lat="47.49113" lon="6.76419">
        <ele>366.2</ele>
        <time>2017-02-12T08:28:20.999Z</time>
      </trkpt>
      <trkpt lat="47.49112" lon="6.76428">
        <ele>366.2</ele>
        <time>2017-02-12T08:28:21.999Z</time>
      </trkpt>
      <trkpt lat="47.49111" lon="6.76437">
        <ele>367.3</ele>
        <time>2017-02-12T08:28:22.999Z</time>
      </trkpt>
      <trkpt lat="47.49111" lon="6.76444">
        <ele>367.3</ele>
        <time>2017-02-12T08:28:23.999Z</time>
      </trkpt>
      <trkpt lat="47.49111" lon="6.7645">
        <ele>367.2</ele>
        <time>2017-02-12T08:28:24.999Z</time>
      </trkpt>
      <trkpt lat="47.4911" lon="6.76457">
        <ele>367.4</ele>
        <time>2017-02-12T08:28:25.999Z</time>
      </trkpt>
      <trkpt lat="47.49109" lon="6.76462">
        <ele>367.3</ele>
        <time>2017-02-12T08:28:26.999Z</time>
      </trkpt>
      <trkpt lat="47.49109" lon="6.76467">
        <ele>367.2</ele>
        <time>2017-02-12T08:28:27.999Z</time>
      </trkpt>
      <trkpt lat="47.49109" lon="6.76474">
        <ele>367.1</ele>
        <time>2017-02-12T08:28:28.999Z</time>
      </trkpt>
      <trkpt lat="47.49111" lon="6.76484">
        <ele>366.9</ele>
        <time>2017-02-12T08:28:29.999Z</time>
      </trkpt>
      <trkpt lat="47.49116" lon="6.76497">
        <ele>365.7</ele>
        <time>2017-02-12T08:28:30.999Z</time>
      </trkpt>
      <trkpt lat="47.49125" lon="6.76511">
        <ele>364.6</ele>
        <time>2017-02-12T08:28:31.999Z</time>
      </trkpt>
      <trkpt lat="47.49131" lon="6.76518">
        <ele>364.4</ele>
        <time>2017-02-12T08:28:32.999Z</time>
      </trkpt>
      <trkpt lat="47.49137" lon="6.76521">
        <ele>363.8</ele>
        <time>2017-02-12T08:28:33.999Z</time>
      </trkpt>
      <trkpt lat="47.49144" lon="6.76522">
        <ele>363.5</ele>
        <time>2017-02-12T08:28:34.999Z</time>
      </trkpt>
      <trkpt lat="47.49149" lon="6.76521">
        <ele>362.5</ele>
        <time>2017-02-12T08:28:35.999Z</time>
      </trkpt>
      <trkpt lat="47.49154" lon="6.7652">
        <ele>362.5</ele>
        <time>2017-02-12T08:28:36.999Z</time>
      </trkpt>
      <trkpt lat="47.49159" lon="6.76518">
        <ele>363.1</ele>
        <time>2017-02-12T08:28:37.999Z</time>
      </trkpt>
      <trkpt lat="47.49163" lon="6.76515">
        <ele>363.7</ele>
        <time>2017-02-12T08:28:38.999Z</time>
      </trkpt>
      <trkpt lat="47.49166" lon="6.76512">
        <ele>363.8</ele>
        <time>2017-02-12T08:28:39.999Z</time>
      </trkpt>
      <trkpt lat="47.49168" lon="6.76512">
        <ele>363.8</ele>
        <time>2017-02-12T08:28:40.999Z</time>
      </trkpt>
      <trkpt lat="47.49172" lon="6.76512">
        <ele>363.8</ele>
        <time>2017-02-12T08:28:41.999Z</time>
      </trkpt>
      <trkpt lat="47.49174" lon="6.76513">
        <ele>363.9</ele>
        <time>2017-02-12T08:28:42.999Z</time>
      </trkpt>
      <trkpt lat="47.49177" lon="6.76513">
        <ele>363.9</ele>
        <time>2017-02-12T08:28:43.999Z</time>
      </trkpt>
      <trkpt lat="47.49179" lon="6.7651">
        <ele>364</ele>
        <time>2017-02-12T08:28:44.999Z</time>
      </trkpt>
      <trkpt lat="47.49179" lon="6.76505">
        <ele>364</ele>
        <time>2017-02-12T08:28:45.999Z</time>
      </trkpt>
      <trkpt lat="47.49179" lon="6.76501">
        <ele>364</ele>
        <time>2017-02-12T08:28:46.999Z</time>
      </trkpt>
      <trkpt lat="47.49178" lon="6.76496">
        <ele>366.3</ele>
        <time>2017-02-12T08:33:34.999Z</time>
      </trkpt>
      <trkpt lat="47.49175" lon="6.76489">
        <ele>366.3</ele>
        <time>2017-02-12T08:33:35.999Z</time>
      </trkpt>
      <trkpt lat="47.49178" lon="6.76493">
        <ele>365.4</ele>
        <time>2017-02-12T08:34:15.999Z</time>
      </trkpt>
      <trkpt lat="47.49179" lon="6.76493">
        <ele>365.6</ele>
        <time>2017-02-12T08:34:16.999Z</time>
      </trkpt>
      <trkpt lat="47.49176" lon="6.76497">
        <ele>366.4</ele>
        <time>2017-02-12T08:34:29.999Z</time>
      </trkpt>
      <trkpt lat="47.49175" lon="6.76498">
        <ele>366.4</ele>
        <time>2017-02-12T08:34:30.999Z</time>
      </trkpt>
      <trkpt lat="47.49178" lon="6.76501">
        <ele>367.7</ele>
        <time>2017-02-12T08:35:00.999Z</time>
      </trkpt>
      <trkpt lat="47.49179" lon="6.76506">
        <ele>367.8</ele>
        <time>2017-02-12T08:35:01.999Z</time>
      </trkpt>
      <trkpt lat="47.49177" lon="6.76509">
        <ele>368.5</ele>
        <time>2017-02-12T08:35:02.999Z</time>
      </trkpt>
      <trkpt lat="47.49174" lon="6.7651">
        <ele>369</ele>
        <time>2017-02-12T08:35:03.999Z</time>
      </trkpt>
      <trkpt lat="47.4917" lon="6.76512">
        <ele>369.1</ele>
        <time>2017-02-12T08:35:04.999Z</time>
      </trkpt>
      <trkpt lat="47.49165" lon="6.76514">
        <ele>369</ele>
        <time>2017-02-12T08:35:05.999Z</time>
      </trkpt>
      <trkpt lat="47.49161" lon="6.76517">
        <ele>368.8</ele>
        <time>2017-02-12T08:35:06.999Z</time>
      </trkpt>
      <trkpt lat="47.49156" lon="6.76519">
        <ele>368.3</ele>
        <time>2017-02-12T08:35:07.999Z</time>
      </trkpt>
      <trkpt lat="47.49151" lon="6.76521">
        <ele>368.1</ele>
        <time>2017-02-12T08:35:08.999Z</time>
      </trkpt>
      <trkpt lat="47.49146" lon="6.76524">
        <ele>368</ele>
        <time>2017-02-12T08:35:09.999Z</time>
      </trkpt>
      <trkpt lat="47.49141" lon="6.76525">
        <ele>367.9</ele>
        <time>2017-02-12T08:35:10.999Z</time>
      </trkpt>
      <trkpt lat="47.49137" lon="6.76527">
        <ele>367.6</ele>
        <time>2017-02-12T08:35:11.999Z</time>
      </trkpt>
      <trkpt lat="47.49133" lon="6.76528">
        <ele>367.2</ele>
        <time>2017-02-12T08:35:12.999Z</time>
      </trkpt>
      <trkpt lat="47.49128" lon="6.7653">
        <ele>367.2</ele>
        <time>2017-02-12T08:35:13.999Z</time>
      </trkpt>
      <trkpt lat="47.49126" lon="6.76532">
        <ele>367.2</ele>
        <time>2017-02-12T08:35:14.999Z</time>
      </trkpt>
      <trkpt lat="47.49122" lon="6.76537">
        <ele>367.3</ele>
        <time>2017-02-12T08:35:15.999Z</time>
      </trkpt>
      <trkpt lat="47.49123" lon="6.76543">
        <ele>367.4</ele>
        <time>2017-02-12T08:35:16.999Z</time>
      </trkpt>
      <trkpt lat="47.49123" lon="6.76548">
        <ele>367.5</ele>
        <time>2017-02-12T08:35:17.999Z</time>
      </trkpt>
      <trkpt lat="47.49122" lon="6.76554">
        <ele>367.5</ele>
        <time>2017-02-12T08:35:18.999Z</time>
      </trkpt>
      <trkpt lat="47.49122" lon="6.76562">
        <ele>367.6</ele>
        <time>2017-02-12T08:35:19.999Z</time>
      </trkpt>
      <trkpt lat="47.49121" lon="6.76567">
        <ele>367.6</ele>
        <time>2017-02-12T08:35:20.999Z</time>
      </trkpt>
      <trkpt lat="47.49121" lon="6.76573">
        <ele>367.8</ele>
        <time>2017-02-12T08:35:21.999Z</time>
      </trkpt>
      <trkpt lat="47.49122" lon="6.76579">
        <ele>368.4</ele>
        <time>2017-02-12T08:35:22.999Z</time>
      </trkpt>
      <trkpt lat="47.49122" lon="6.76585">
        <ele>368.4</ele>
        <time>2017-02-12T08:35:23.999Z</time>
      </trkpt>
      <trkpt lat="47.49122" lon="6.76588">
        <ele>368.5</ele>
        <time>2017-02-12T08:35:24.999Z</time>
      </trkpt>
      <trkpt lat="47.49123" lon="6.76594">
        <ele>368.6</ele>
        <time>2017-02-12T08:35:25.999Z</time>
      </trkpt>
      <trkpt lat="47.49123" lon="6.766">
        <ele>368.7</ele>
        <time>2017-02-12T08:35:26.999Z</time>
      </trkpt>
      <trkpt lat="47.49124" lon="6.76605">
        <ele>368.8</ele>
        <time>2017-02-12T08:35:27.999Z</time>
      </trkpt>
      <trkpt lat="47.49125" lon="6.76609">
        <ele>368.9</ele>
        <time>2017-02-12T08:35:28.999Z</time>
      </trkpt>
      <trkpt lat="47.49125" lon="6.76614">
        <ele>368.9</ele>
        <time>2017-02-12T08:35:29.999Z</time>
      </trkpt>
      <trkpt lat="47.49126" lon="6.7662">
        <ele>369</ele>
        <time>2017-02-12T08:35:30.999Z</time>
      </trkpt>
      <trkpt lat="47.49127" lon="6.76625">
        <ele>368.9</ele>
        <time>2017-02-12T08:35:31.999Z</time>
      </trkpt>
      <trkpt lat="47.49128" lon="6.76631">
        <ele>368.9</ele>
        <time>2017-02-12T08:35:32.999Z</time>
      </trkpt>
      <trkpt lat="47.4913" lon="6.76635">
        <ele>368.9</ele>
        <time>2017-02-12T08:35:33.999Z</time>
      </trkpt>
      <trkpt lat="47.49131" lon="6.76638">
        <ele>368.8</ele>
        <time>2017-02-12T08:35:34.999Z</time>
      </trkpt>
      <trkpt lat="47.49132" lon="6.76641">
        <ele>368.8</ele>
        <time>2017-02-12T08:35:35.999Z</time>
      </trkpt>
      <trkpt lat="47.49132" lon="6.76644">
        <ele>368.8</ele>
        <time>2017-02-12T08:35:36.999Z</time>
      </trkpt>
      <trkpt lat="47.49133" lon="6.76647">
        <ele>368.9</ele>
        <time>2017-02-12T08:35:37.999Z</time>
      </trkpt>
      <trkpt lat="47.49133" lon="6.76651">
        <ele>368.9</ele>
        <time>2017-02-12T08:35:38.999Z</time>
      </trkpt>
      <trkpt lat="47.49134" lon="6.76655">
        <ele>369</ele>
        <time>2017-02-12T08:35:39.999Z</time>
      </trkpt>
      <trkpt lat="47.49136" lon="6.76659">
        <ele>369.1</ele>
        <time>2017-02-12T08:35:40.999Z</time>
      </trkpt>
      <trkpt lat="47.49136" lon="6.76665">
        <ele>369.4</ele>
        <time>2017-02-12T08:35:41.999Z</time>
      </trkpt>
      <trkpt lat="47.49137" lon="6.76671">
        <ele>369.4</ele>
        <time>2017-02-12T08:35:42.999Z</time>
      </trkpt>
      <trkpt lat="47.49138" lon="6.76677">
        <ele>369.4</ele>
        <time>2017-02-12T08:35:43.999Z</time>
      </trkpt>
      <trkpt lat="47.49139" lon="6.7668">
        <ele>369.4</ele>
        <time>2017-02-12T08:35:44.999Z</time>
      </trkpt>
      <trkpt lat="47.49139" lon="6.76686">
        <ele>369.5</ele>
        <time>2017-02-12T08:35:45.999Z</time>
      </trkpt>
      <trkpt lat="47.4914" lon="6.7669">
        <ele>369.6</ele>
        <time>2017-02-12T08:35:46.999Z</time>
      </trkpt>
      <trkpt lat="47.4914" lon="6.76696">
        <ele>369.7</ele>
        <time>2017-02-12T08:35:47.999Z</time>
      </trkpt>
      <trkpt lat="47.4914" lon="6.76701">
        <ele>369.7</ele>
        <time>2017-02-12T08:35:48.999Z</time>
      </trkpt>
      <trkpt lat="47.49141" lon="6.76707">
        <ele>369.8</ele>
        <time>2017-02-12T08:35:49.999Z</time>
      </trkpt>
      <trkpt lat="47.49141" lon="6.76711">
        <ele>369.9</ele>
        <time>2017-02-12T08:35:50.999Z</time>
      </trkpt>
      <trkpt lat="47.49141" lon="6.76718">
        <ele>369.9</ele>
        <time>2017-02-12T08:35:51.999Z</time>
      </trkpt>
      <trkpt lat="47.49141" lon="6.76724">
        <ele>369.9</ele>
        <time>2017-02-12T08:35:52.999Z</time>
      </trkpt>
      <trkpt lat="47.49142" lon="6.76728">
        <ele>370.1</ele>
        <time>2017-02-12T08:35:53.999Z</time>
      </trkpt>
      <trkpt lat="47.49143" lon="6.76732">
        <ele>370.1</ele>
        <time>2017-02-12T08:35:54.999Z</time>
      </trkpt>
      <trkpt lat="47.49143" lon="6.76736">
        <ele>370.2</ele>
        <time>2017-02-12T08:35:55.999Z</time>
      </trkpt>
      <trkpt lat="47.49144" lon="6.76743">
        <ele>370.3</ele>
        <time>2017-02-12T08:35:56.999Z</time>
      </trkpt>
      <trkpt lat="47.49146" lon="6.7675">
        <ele>370.3</ele>
        <time>2017-02-12T08:35:57.999Z</time>
      </trkpt>
      <trkpt lat="47.49147" lon="6.76757">
        <ele>370.3</ele>
        <time>2017-02-12T08:35:58.999Z</time>
      </trkpt>
      <trkpt lat="47.49147" lon="6.76763">
        <ele>370.4</ele>
        <time>2017-02-12T08:35:59.999Z</time>
      </trkpt>
      <trkpt lat="47.49148" lon="6.76769">
        <ele>370.4</ele>
        <time>2017-02-12T08:36:00.999Z</time>
      </trkpt>
      <trkpt lat="47.49149" lon="6.76774">
        <ele>370.5</ele>
        <time>2017-02-12T08:36:01.999Z</time>
      </trkpt>
      <trkpt lat="47.4915" lon="6.76778">
        <ele>370.5</ele>
        <time>2017-02-12T08:36:02.999Z</time>
      </trkpt>
      <trkpt lat="47.4915" lon="6.76783">
        <ele>370.4</ele>
        <time>2017-02-12T08:36:03.999Z</time>
      </trkpt>
      <trkpt lat="47.4915" lon="6.76789">
        <ele>370.3</ele>
        <time>2017-02-12T08:36:04.999Z</time>
      </trkpt>
      <trkpt lat="47.4915" lon="6.76795">
        <ele>370.2</ele>
        <time>2017-02-12T08:36:05.999Z</time>
      </trkpt>
      <trkpt lat="47.4915" lon="6.76801">
        <ele>370</ele>
        <time>2017-02-12T08:36:06.999Z</time>
      </trkpt>
      <trkpt lat="47.4915" lon="6.76806">
        <ele>369.9</ele>
        <time>2017-02-12T08:36:07.999Z</time>
      </trkpt>
      <trkpt lat="47.4915" lon="6.76812">
        <ele>369.8</ele>
        <time>2017-02-12T08:36:08.999Z</time>
      </trkpt>
      <trkpt lat="47.4915" lon="6.76819">
        <ele>368.7</ele>
        <time>2017-02-12T08:36:09.999Z</time>
      </trkpt>
      <trkpt lat="47.4915" lon="6.76825">
        <ele>368.6</ele>
        <time>2017-02-12T08:36:10.999Z</time>
      </trkpt>
      <trkpt lat="47.4915" lon="6.76832">
        <ele>368.5</ele>
        <time>2017-02-12T08:36:11.999Z</time>
      </trkpt>
      <trkpt lat="47.49149" lon="6.76837">
        <ele>368.5</ele>
        <time>2017-02-12T08:36:12.999Z</time>
      </trkpt>
      <trkpt lat="47.49149" lon="6.76844">
        <ele>368.5</ele>
        <time>2017-02-12T08:36:13.999Z</time>
      </trkpt>
      <trkpt lat="47.49149" lon="6.76851">
        <ele>368.6</ele>
        <time>2017-02-12T08:36:14.999Z</time>
      </trkpt>
      <trkpt lat="47.49148" lon="6.76857">
        <ele>368.6</ele>
        <time>2017-02-12T08:36:15.999Z</time>
      </trkpt>
      <trkpt lat="47.49148" lon="6.76863">
        <ele>368.7</ele>
        <time>2017-02-12T08:36:16.999Z</time>
      </trkpt>
      <trkpt lat="47.49148" lon="6.76868">
        <ele>368.7</ele>
        <time>2017-02-12T08:36:17.999Z</time>
      </trkpt>
      <trkpt lat="47.49147" lon="6.76874">
        <ele>368.7</ele>
        <time>2017-02-12T08:36:18.999Z</time>
      </trkpt>
      <trkpt lat="47.49147" lon="6.7688">
        <ele>368.8</ele>
        <time>2017-02-12T08:36:19.999Z</time>
      </trkpt>
      <trkpt lat="47.49147" lon="6.76885">
        <ele>368.9</ele>
        <time>2017-02-12T08:36:20.999Z</time>
      </trkpt>
      <trkpt lat="47.49146" lon="6.7689">
        <ele>368.9</ele>
        <time>2017-02-12T08:36:21.999Z</time>
      </trkpt>
      <trkpt lat="47.49146" lon="6.76896">
        <ele>368.9</ele>
        <time>2017-02-12T08:36:22.999Z</time>
      </trkpt>
      <trkpt lat="47.49146" lon="6.76901">
        <ele>369.1</ele>
        <time>2017-02-12T08:36:23.999Z</time>
      </trkpt>
      <trkpt lat="47.49145" lon="6.76907">
        <ele>369.1</ele>
        <time>2017-02-12T08:36:24.999Z</time>
      </trkpt>
      <trkpt lat="47.49144" lon="6.76915">
        <ele>369.1</ele>
        <time>2017-02-12T08:36:25.999Z</time>
      </trkpt>
      <trkpt lat="47.49144" lon="6.76922">
        <ele>369.2</ele>
        <time>2017-02-12T08:36:26.999Z</time>
      </trkpt>
      <trkpt lat="47.49144" lon="6.7693">
        <ele>369.9</ele>
        <time>2017-02-12T08:36:27.999Z</time>
      </trkpt>
      <trkpt lat="47.49144" lon="6.76937">
        <ele>370.4</ele>
        <time>2017-02-12T08:36:28.999Z</time>
      </trkpt>
      <trkpt lat="47.49144" lon="6.76942">
        <ele>370.4</ele>
        <time>2017-02-12T08:36:29.999Z</time>
      </trkpt>
      <trkpt lat="47.49143" lon="6.76947">
        <ele>370.4</ele>
        <time>2017-02-12T08:36:30.999Z</time>
      </trkpt>
      <trkpt lat="47.49143" lon="6.76952">
        <ele>370.4</ele>
        <time>2017-02-12T08:36:31.999Z</time>
      </trkpt>
      <trkpt lat="47.49143" lon="6.76957">
        <ele>370.3</ele>
        <time>2017-02-12T08:36:32.999Z</time>
      </trkpt>
      <trkpt lat="47.49142" lon="6.76964">
        <ele>370.4</ele>
        <time>2017-02-12T08:36:33.999Z</time>
      </trkpt>
      <trkpt lat="47.49142" lon="6.76971">
        <ele>370.8</ele>
        <time>2017-02-12T08:36:34.999Z</time>
      </trkpt>
      <trkpt lat="47.49143" lon="6.76977">
        <ele>371.6</ele>
        <time>2017-02-12T08:36:35.999Z</time>
      </trkpt>
      <trkpt lat="47.49145" lon="6.76986">
        <ele>372</ele>
        <time>2017-02-12T08:36:36.999Z</time>
      </trkpt>
      <trkpt lat="47.49149" lon="6.76994">
        <ele>372.2</ele>
        <time>2017-02-12T08:36:37.999Z</time>
      </trkpt>
      <trkpt lat="47.49151" lon="6.77">
        <ele>371.8</ele>
        <time>2017-02-12T08:36:38.999Z</time>
      </trkpt>
      <trkpt lat="47.49152" lon="6.77004">
        <ele>371.8</ele>
        <time>2017-02-12T08:36:39.999Z</time>
      </trkpt>
      <trkpt lat="47.49154" lon="6.7701">
        <ele>371.8</ele>
        <time>2017-02-12T08:36:40.999Z</time>
      </trkpt>
      <trkpt lat="47.49156" lon="6.77016">
        <ele>370.9</ele>
        <time>2017-02-12T08:36:41.999Z</time>
      </trkpt>
      <trkpt lat="47.49159" lon="6.77022">
        <ele>370.3</ele>
        <time>2017-02-12T08:36:42.999Z</time>
      </trkpt>
      <trkpt lat="47.49161" lon="6.77029">
        <ele>369.5</ele>
        <time>2017-02-12T08:36:43.999Z</time>
      </trkpt>
      <trkpt lat="47.49163" lon="6.77036">
        <ele>368.6</ele>
        <time>2017-02-12T08:36:44.999Z</time>
      </trkpt>
      <trkpt lat="47.49164" lon="6.77043">
        <ele>367.6</ele>
        <time>2017-02-12T08:36:45.999Z</time>
      </trkpt>
      <trkpt lat="47.49165" lon="6.77049">
        <ele>367.3</ele>
        <time>2017-02-12T08:36:46.999Z</time>
      </trkpt>
      <trkpt lat="47.49166" lon="6.77055">
        <ele>367</ele>
        <time>2017-02-12T08:36:47.999Z</time>
      </trkpt>
      <trkpt lat="47.49167" lon="6.77062">
        <ele>366.9</ele>
        <time>2017-02-12T08:36:48.999Z</time>
      </trkpt>
      <trkpt lat="47.49168" lon="6.77068">
        <ele>367.3</ele>
        <time>2017-02-12T08:36:49.999Z</time>
      </trkpt>
      <trkpt lat="47.49169" lon="6.77074">
        <ele>367.3</ele>
        <time>2017-02-12T08:36:50.999Z</time>
      </trkpt>
      <trkpt lat="47.4917" lon="6.7708">
        <ele>367.3</ele>
        <time>2017-02-12T08:36:51.999Z</time>
      </trkpt>
      <trkpt lat="47.49171" lon="6.77086">
        <ele>367.4</ele>
        <time>2017-02-12T08:36:52.999Z</time>
      </trkpt>
      <trkpt lat="47.49172" lon="6.77092">
        <ele>367.7</ele>
        <time>2017-02-12T08:36:53.999Z</time>
      </trkpt>
      <trkpt lat="47.49173" lon="6.77097">
        <ele>368.1</ele>
        <time>2017-02-12T08:36:54.999Z</time>
      </trkpt>
      <trkpt lat="47.49174" lon="6.77102">
        <ele>368.3</ele>
        <time>2017-02-12T08:36:55.999Z</time>
      </trkpt>
      <trkpt lat="47.49175" lon="6.77108">
        <ele>368.5</ele>
        <time>2017-02-12T08:36:56.999Z</time>
      </trkpt>
      <trkpt lat="47.49176" lon="6.77113">
        <ele>368.6</ele>
        <time>2017-02-12T08:36:57.999Z</time>
      </trkpt>
      <trkpt lat="47.49176" lon="6.77119">
        <ele>368.8</ele>
        <time>2017-02-12T08:36:59.999Z</time>
      </trkpt>
      <trkpt lat="47.49175" lon="6.77125">
        <ele>368.9</ele>
        <time>2017-02-12T08:37:00.999Z</time>
      </trkpt>
      <trkpt lat="47.49175" lon="6.77129">
        <ele>369.1</ele>
        <time>2017-02-12T08:37:01.999Z</time>
      </trkpt>
      <trkpt lat="47.49176" lon="6.77135">
        <ele>369.1</ele>
        <time>2017-02-12T08:37:02.999Z</time>
      </trkpt>
      <trkpt lat="47.49178" lon="6.77142">
        <ele>369.4</ele>
        <time>2017-02-12T08:37:03.999Z</time>
      </trkpt>
      <trkpt lat="47.49178" lon="6.77149">
        <ele>369.3</ele>
        <time>2017-02-12T08:37:04.999Z</time>
      </trkpt>
      <trkpt lat="47.49179" lon="6.77155">
        <ele>369</ele>
        <time>2017-02-12T08:37:05.999Z</time>
      </trkpt>
      <trkpt lat="47.4918" lon="6.77161">
        <ele>368.7</ele>
        <time>2017-02-12T08:37:06.999Z</time>
      </trkpt>
      <trkpt lat="47.49181" lon="6.77168">
        <ele>368.8</ele>
        <time>2017-02-12T08:37:07.999Z</time>
      </trkpt>
      <trkpt lat="47.49182" lon="6.77176">
        <ele>368.9</ele>
        <time>2017-02-12T08:37:08.999Z</time>
      </trkpt>
      <trkpt lat="47.49182" lon="6.77183">
        <ele>368.8</ele>
        <time>2017-02-12T08:37:09.999Z</time>
      </trkpt>
      <trkpt lat="47.49182" lon="6.7719">
        <ele>368.8</ele>
        <time>2017-02-12T08:37:10.999Z</time>
      </trkpt>
      <trkpt lat="47.49183" lon="6.77196">
        <ele>368.9</ele>
        <time>2017-02-12T08:37:11.999Z</time>
      </trkpt>
      <trkpt lat="47.49183" lon="6.77201">
        <ele>368.9</ele>
        <time>2017-02-12T08:37:12.999Z</time>
      </trkpt>
      <trkpt lat="47.49183" lon="6.77206">
        <ele>369.3</ele>
        <time>2017-02-12T08:37:13.999Z</time>
      </trkpt>
      <trkpt lat="47.49183" lon="6.77212">
        <ele>369.5</ele>
        <time>2017-02-12T08:37:14.999Z</time>
      </trkpt>
      <trkpt lat="47.49184" lon="6.77217">
        <ele>369.6</ele>
        <time>2017-02-12T08:37:15.999Z</time>
      </trkpt>
      <trkpt lat="47.49184" lon="6.77223">
        <ele>369.7</ele>
        <time>2017-02-12T08:37:16.999Z</time>
      </trkpt>
      <trkpt lat="47.49184" lon="6.77228">
        <ele>369.7</ele>
        <time>2017-02-12T08:37:17.999Z</time>
      </trkpt>
      <trkpt lat="47.49184" lon="6.77233">
        <ele>369.7</ele>
        <time>2017-02-12T08:37:18.999Z</time>
      </trkpt>
      <trkpt lat="47.49185" lon="6.77238">
        <ele>369.7</ele>
        <time>2017-02-12T08:37:19.999Z</time>
      </trkpt>
      <trkpt lat="47.49185" lon="6.77243">
        <ele>370</ele>
        <time>2017-02-12T08:37:20.999Z</time>
      </trkpt>
      <trkpt lat="47.49185" lon="6.77249">
        <ele>370.4</ele>
        <time>2017-02-12T08:37:21.999Z</time>
      </trkpt>
      <trkpt lat="47.49184" lon="6.77255">
        <ele>370.2</ele>
        <time>2017-02-12T08:37:22.999Z</time>
      </trkpt>
      <trkpt lat="47.49184" lon="6.77262">
        <ele>369.6</ele>
        <time>2017-02-12T08:37:23.999Z</time>
      </trkpt>
      <trkpt lat="47.49184" lon="6.7727">
        <ele>369</ele>
        <time>2017-02-12T08:37:24.999Z</time>
      </trkpt>
      <trkpt lat="47.49183" lon="6.77279">
        <ele>368.6</ele>
        <time>2017-02-12T08:37:25.999Z</time>
      </trkpt>
      <trkpt lat="47.49182" lon="6.77288">
        <ele>368.2</ele>
        <time>2017-02-12T08:37:26.999Z</time>
      </trkpt>
      <trkpt lat="47.49182" lon="6.77295">
        <ele>367.6</ele>
        <time>2017-02-12T08:37:27.999Z</time>
      </trkpt>
      <trkpt lat="47.49182" lon="6.77303">
        <ele>367.1</ele>
        <time>2017-02-12T08:37:28.999Z</time>
      </trkpt>
      <trkpt lat="47.49181" lon="6.77311">
        <ele>366.9</ele>
        <time>2017-02-12T08:37:29.999Z</time>
      </trkpt>
      <trkpt lat="47.4918" lon="6.77317">
        <ele>366.8</ele>
        <time>2017-02-12T08:37:30.999Z</time>
      </trkpt>
      <trkpt lat="47.49179" lon="6.77324">
        <ele>366.9</ele>
        <time>2017-02-12T08:37:31.999Z</time>
      </trkpt>
      <trkpt lat="47.49176" lon="6.77328">
        <ele>366.9</ele>
        <time>2017-02-12T08:37:33.999Z</time>
      </trkpt>
      <trkpt lat="47.49173" lon="6.77329">
        <ele>367</ele>
        <time>2017-02-12T08:37:34.999Z</time>
      </trkpt>
      <trkpt lat="47.49171" lon="6.7733">
        <ele>367</ele>
        <time>2017-02-12T08:37:35.999Z</time>
      </trkpt>
      <trkpt lat="47.49168" lon="6.7733">
        <ele>367</ele>
        <time>2017-02-12T08:37:36.999Z</time>
      </trkpt>
      <trkpt lat="47.49164" lon="6.7733">
        <ele>367</ele>
        <time>2017-02-12T08:37:37.999Z</time>
      </trkpt>
      <trkpt lat="47.4916" lon="6.7733">
        <ele>366.7</ele>
        <time>2017-02-12T08:37:38.999Z</time>
      </trkpt>
      <trkpt lat="47.49156" lon="6.7733">
        <ele>366</ele>
        <time>2017-02-12T08:37:39.999Z</time>
      </trkpt>
      <trkpt lat="47.49153" lon="6.7733">
        <ele>365.6</ele>
        <time>2017-02-12T08:37:40.999Z</time>
      </trkpt>
      <trkpt lat="47.49149" lon="6.7733">
        <ele>365.3</ele>
        <time>2017-02-12T08:37:41.999Z</time>
      </trkpt>
      <trkpt lat="47.49146" lon="6.7733">
        <ele>364.4</ele>
        <time>2017-02-12T08:37:42.999Z</time>
      </trkpt>
      <trkpt lat="47.49141" lon="6.7733">
        <ele>363.6</ele>
        <time>2017-02-12T08:37:43.999Z</time>
      </trkpt>
      <trkpt lat="47.49136" lon="6.7733">
        <ele>363.1</ele>
        <time>2017-02-12T08:37:44.999Z</time>
      </trkpt>
      <trkpt lat="47.49131" lon="6.7733">
        <ele>362.7</ele>
        <time>2017-02-12T08:37:45.999Z</time>
      </trkpt>
      <trkpt lat="47.49126" lon="6.7733">
        <ele>362.4</ele>
        <time>2017-02-12T08:37:46.999Z</time>
      </trkpt>
      <trkpt lat="47.49121" lon="6.7733">
        <ele>362.3</ele>
        <time>2017-02-12T08:37:47.999Z</time>
      </trkpt>
      <trkpt lat="47.49116" lon="6.7733">
        <ele>362.1</ele>
        <time>2017-02-12T08:37:48.999Z</time>
      </trkpt>
      <trkpt lat="47.49111" lon="6.77329">
        <ele>361.9</ele>
        <time>2017-02-12T08:37:49.999Z</time>
      </trkpt>
      <trkpt lat="47.49106" lon="6.77329">
        <ele>361.5</ele>
        <time>2017-02-12T08:37:50.999Z</time>
      </trkpt>
      <trkpt lat="47.491" lon="6.77328">
        <ele>361.1</ele>
        <time>2017-02-12T08:37:51.999Z</time>
      </trkpt>
      <trkpt lat="47.49095" lon="6.77328">
        <ele>360.9</ele>
        <time>2017-02-12T08:37:52.999Z</time>
      </trkpt>
      <trkpt lat="47.4909" lon="6.77327">
        <ele>360.8</ele>
        <time>2017-02-12T08:37:53.999Z</time>
      </trkpt>
      <trkpt lat="47.49084" lon="6.77327">
        <ele>360.4</ele>
        <time>2017-02-12T08:37:54.999Z</time>
      </trkpt>
      <trkpt lat="47.49079" lon="6.77326">
        <ele>360.2</ele>
        <time>2017-02-12T08:37:55.999Z</time>
      </trkpt>
      <trkpt lat="47.49075" lon="6.77326">
        <ele>360.3</ele>
        <time>2017-02-12T08:37:56.999Z</time>
      </trkpt>
      <trkpt lat="47.4907" lon="6.77325">
        <ele>360.2</ele>
        <time>2017-02-12T08:37:57.999Z</time>
      </trkpt>
      <trkpt lat="47.49064" lon="6.77325">
        <ele>360.1</ele>
        <time>2017-02-12T08:37:58.999Z</time>
      </trkpt>
      <trkpt lat="47.49059" lon="6.77324">
        <ele>359.9</ele>
        <time>2017-02-12T08:37:59.999Z</time>
      </trkpt>
      <trkpt lat="47.49053" lon="6.77324">
        <ele>359.7</ele>
        <time>2017-02-12T08:38:00.999Z</time>
      </trkpt>
      <trkpt lat="47.49049" lon="6.77323">
        <ele>359.8</ele>
        <time>2017-02-12T08:38:01.999Z</time>
      </trkpt>
      <trkpt lat="47.49044" lon="6.77323">
        <ele>360</ele>
        <time>2017-02-12T08:38:02.999Z</time>
      </trkpt>
      <trkpt lat="47.49039" lon="6.77323">
        <ele>359.9</ele>
        <time>2017-02-12T08:38:03.999Z</time>
      </trkpt>
      <trkpt lat="47.49034" lon="6.77322">
        <ele>359.8</ele>
        <time>2017-02-12T08:38:04.999Z</time>
      </trkpt>
      <trkpt lat="47.49029" lon="6.77322">
        <ele>360</ele>
        <time>2017-02-12T08:38:05.999Z</time>
      </trkpt>
      <trkpt lat="47.49024" lon="6.77322">
        <ele>359.8</ele>
        <time>2017-02-12T08:38:06.999Z</time>
      </trkpt>
      <trkpt lat="47.49019" lon="6.77322">
        <ele>359.8</ele>
        <time>2017-02-12T08:38:07.999Z</time>
      </trkpt>
      <trkpt lat="47.49015" lon="6.77321">
        <ele>360</ele>
        <time>2017-02-12T08:38:08.999Z</time>
      </trkpt>
      <trkpt lat="47.49009" lon="6.77321">
        <ele>360.4</ele>
        <time>2017-02-12T08:38:09.999Z</time>
      </trkpt>
      <trkpt lat="47.49003" lon="6.7732">
        <ele>361.1</ele>
        <time>2017-02-12T08:38:10.999Z</time>
      </trkpt>
      <trkpt lat="47.48999" lon="6.7732">
        <ele>361.4</ele>
        <time>2017-02-12T08:38:11.999Z</time>
      </trkpt>
      <trkpt lat="47.48994" lon="6.7732">
        <ele>361.1</ele>
        <time>2017-02-12T08:38:12.999Z</time>
      </trkpt>
      <trkpt lat="47.48989" lon="6.77319">
        <ele>360.8</ele>
        <time>2017-02-12T08:38:13.999Z</time>
      </trkpt>
      <trkpt lat="47.48985" lon="6.77319">
        <ele>360.7</ele>
        <time>2017-02-12T08:38:14.999Z</time>
      </trkpt>
      <trkpt lat="47.48981" lon="6.77318">
        <ele>360.9</ele>
        <time>2017-02-12T08:38:15.999Z</time>
      </trkpt>
      <trkpt lat="47.48977" lon="6.77318">
        <ele>361.2</ele>
        <time>2017-02-12T08:38:16.999Z</time>
      </trkpt>
      <trkpt lat="47.48973" lon="6.77318">
        <ele>361.7</ele>
        <time>2017-02-12T08:38:17.999Z</time>
      </trkpt>
      <trkpt lat="47.48969" lon="6.77318">
        <ele>362.2</ele>
        <time>2017-02-12T08:38:18.999Z</time>
      </trkpt>
      <trkpt lat="47.48964" lon="6.77318">
        <ele>362.5</ele>
        <time>2017-02-12T08:38:19.999Z</time>
      </trkpt>
      <trkpt lat="47.48959" lon="6.77317">
        <ele>362.6</ele>
        <time>2017-02-12T08:38:20.999Z</time>
      </trkpt>
      <trkpt lat="47.48954" lon="6.77316">
        <ele>362.5</ele>
        <time>2017-02-12T08:38:21.999Z</time>
      </trkpt>
      <trkpt lat="47.4895" lon="6.77314">
        <ele>362.5</ele>
        <time>2017-02-12T08:38:22.999Z</time>
      </trkpt>
      <trkpt lat="47.48945" lon="6.77311">
        <ele>362.5</ele>
        <time>2017-02-12T08:38:23.999Z</time>
      </trkpt>
      <trkpt lat="47.4894" lon="6.7731">
        <ele>362.4</ele>
        <time>2017-02-12T08:38:24.999Z</time>
      </trkpt>
      <trkpt lat="47.48935" lon="6.77308">
        <ele>362.4</ele>
        <time>2017-02-12T08:38:25.999Z</time>
      </trkpt>
      <trkpt lat="47.48932" lon="6.77307">
        <ele>362.6</ele>
        <time>2017-02-12T08:38:26.999Z</time>
      </trkpt>
      <trkpt lat="47.48928" lon="6.77305">
        <ele>363</ele>
        <time>2017-02-12T08:38:27.999Z</time>
      </trkpt>
      <trkpt lat="47.48924" lon="6.77303">
        <ele>363.2</ele>
        <time>2017-02-12T08:38:28.999Z</time>
      </trkpt>
      <trkpt lat="47.48919" lon="6.773">
        <ele>363.5</ele>
        <time>2017-02-12T08:38:29.999Z</time>
      </trkpt>
      <trkpt lat="47.48915" lon="6.77298">
        <ele>364</ele>
        <time>2017-02-12T08:38:30.999Z</time>
      </trkpt>
      <trkpt lat="47.4891" lon="6.77296">
        <ele>364.5</ele>
        <time>2017-02-12T08:38:31.999Z</time>
      </trkpt>
      <trkpt lat="47.48906" lon="6.77294">
        <ele>364.5</ele>
        <time>2017-02-12T08:38:32.999Z</time>
      </trkpt>
      <trkpt lat="47.48901" lon="6.77292">
        <ele>364.4</ele>
        <time>2017-02-12T08:38:33.999Z</time>
      </trkpt>
      <trkpt lat="47.48896" lon="6.7729">
        <ele>364.3</ele>
        <time>2017-02-12T08:38:34.999Z</time>
      </trkpt>
      <trkpt lat="47.48891" lon="6.77289">
        <ele>363.9</ele>
        <time>2017-02-12T08:38:35.999Z</time>
      </trkpt>
      <trkpt lat="47.48886" lon="6.77288">
        <ele>363.5</ele>
        <time>2017-02-12T08:38:36.999Z</time>
      </trkpt>
      <trkpt lat="47.48881" lon="6.77287">
        <ele>363.2</ele>
        <time>2017-02-12T08:38:37.999Z</time>
      </trkpt>
      <trkpt lat="47.48875" lon="6.77286">
        <ele>362.9</ele>
        <time>2017-02-12T08:38:38.999Z</time>
      </trkpt>
      <trkpt lat="47.4887" lon="6.77284">
        <ele>362.6</ele>
        <time>2017-02-12T08:38:39.999Z</time>
      </trkpt>
      <trkpt lat="47.48866" lon="6.77282">
        <ele>362.5</ele>
        <time>2017-02-12T08:38:40.999Z</time>
      </trkpt>
      <trkpt lat="47.48862" lon="6.7728">
        <ele>363</ele>
        <time>2017-02-12T08:38:41.999Z</time>
      </trkpt>
      <trkpt lat="47.48857" lon="6.77278">
        <ele>363.2</ele>
        <time>2017-02-12T08:38:42.999Z</time>
      </trkpt>
      <trkpt lat="47.48853" lon="6.77276">
        <ele>363.4</ele>
        <time>2017-02-12T08:38:43.999Z</time>
      </trkpt>
      <trkpt lat="47.48849" lon="6.77273">
        <ele>363.6</ele>
        <time>2017-02-12T08:38:44.999Z</time>
      </trkpt>
      <trkpt lat="47.48844" lon="6.77271">
        <ele>363.9</ele>
        <time>2017-02-12T08:38:45.999Z</time>
      </trkpt>
      <trkpt lat="47.4884" lon="6.77268">
        <ele>364.2</ele>
        <time>2017-02-12T08:38:46.999Z</time>
      </trkpt>
      <trkpt lat="47.48835" lon="6.77265">
        <ele>364.2</ele>
        <time>2017-02-12T08:38:47.999Z</time>
      </trkpt>
      <trkpt lat="47.48831" lon="6.77262">
        <ele>364.2</ele>
        <time>2017-02-12T08:38:48.999Z</time>
      </trkpt>
      <trkpt lat="47.48827" lon="6.77258">
        <ele>364.3</ele>
        <time>2017-02-12T08:38:49.999Z</time>
      </trkpt>
      <trkpt lat="47.48823" lon="6.77255">
        <ele>364.4</ele>
        <time>2017-02-12T08:38:50.999Z</time>
      </trkpt>
      <trkpt lat="47.48819" lon="6.77252">
        <ele>364.9</ele>
        <time>2017-02-12T08:38:51.999Z</time>
      </trkpt>
      <trkpt lat="47.48814" lon="6.77248">
        <ele>365.1</ele>
        <time>2017-02-12T08:38:52.999Z</time>
      </trkpt>
      <trkpt lat="47.4881" lon="6.77245">
        <ele>365.1</ele>
        <time>2017-02-12T08:38:53.999Z</time>
      </trkpt>
      <trkpt lat="47.48805" lon="6.77242">
        <ele>364.9</ele>
        <time>2017-02-12T08:38:54.999Z</time>
      </trkpt>
      <trkpt lat="47.48801" lon="6.77238">
        <ele>364.9</ele>
        <time>2017-02-12T08:38:55.999Z</time>
      </trkpt>
      <trkpt lat="47.48796" lon="6.77234">
        <ele>364.9</ele>
        <time>2017-02-12T08:38:56.999Z</time>
      </trkpt>
      <trkpt lat="47.48791" lon="6.7723">
        <ele>365.1</ele>
        <time>2017-02-12T08:38:57.999Z</time>
      </trkpt>
      <trkpt lat="47.48786" lon="6.77227">
        <ele>365.1</ele>
        <time>2017-02-12T08:38:58.999Z</time>
      </trkpt>
      <trkpt lat="47.48781" lon="6.77223">
        <ele>365</ele>
        <time>2017-02-12T08:38:59.999Z</time>
      </trkpt>
      <trkpt lat="47.48777" lon="6.7722">
        <ele>364.9</ele>
        <time>2017-02-12T08:39:00.999Z</time>
      </trkpt>
      <trkpt lat="47.48772" lon="6.77216">
        <ele>364.7</ele>
        <time>2017-02-12T08:39:01.999Z</time>
      </trkpt>
      <trkpt lat="47.48767" lon="6.77212">
        <ele>364.7</ele>
        <time>2017-02-12T08:39:02.999Z</time>
      </trkpt>
      <trkpt lat="47.48762" lon="6.77209">
        <ele>364.6</ele>
        <time>2017-02-12T08:39:03.999Z</time>
      </trkpt>
      <trkpt lat="47.48757" lon="6.77205">
        <ele>364.5</ele>
        <time>2017-02-12T08:39:04.999Z</time>
      </trkpt>
      <trkpt lat="47.48752" lon="6.77201">
        <ele>364.3</ele>
        <time>2017-02-12T08:39:05.999Z</time>
      </trkpt>
      <trkpt lat="47.48747" lon="6.77198">
        <ele>364</ele>
        <time>2017-02-12T08:39:06.999Z</time>
      </trkpt>
      <trkpt lat="47.48742" lon="6.77194">
        <ele>363.6</ele>
        <time>2017-02-12T08:39:07.999Z</time>
      </trkpt>
      <trkpt lat="47.48736" lon="6.7719">
        <ele>363.2</ele>
        <time>2017-02-12T08:39:08.999Z</time>
      </trkpt>
      <trkpt lat="47.48732" lon="6.77187">
        <ele>362.8</ele>
        <time>2017-02-12T08:39:09.999Z</time>
      </trkpt>
      <trkpt lat="47.48727" lon="6.77183">
        <ele>362.5</ele>
        <time>2017-02-12T08:39:10.999Z</time>
      </trkpt>
      <trkpt lat="47.48722" lon="6.7718">
        <ele>362.4</ele>
        <time>2017-02-12T08:39:11.999Z</time>
      </trkpt>
      <trkpt lat="47.48717" lon="6.77176">
        <ele>362.3</ele>
        <time>2017-02-12T08:39:12.999Z</time>
      </trkpt>
      <trkpt lat="47.48711" lon="6.77172">
        <ele>362.1</ele>
        <time>2017-02-12T08:39:13.999Z</time>
      </trkpt>
      <trkpt lat="47.48706" lon="6.77169">
        <ele>362.3</ele>
        <time>2017-02-12T08:39:14.999Z</time>
      </trkpt>
      <trkpt lat="47.48702" lon="6.77165">
        <ele>362.5</ele>
        <time>2017-02-12T08:39:15.999Z</time>
      </trkpt>
      <trkpt lat="47.48697" lon="6.7716">
        <ele>362.2</ele>
        <time>2017-02-12T08:39:16.999Z</time>
      </trkpt>
      <trkpt lat="47.48693" lon="6.77156">
        <ele>361.6</ele>
        <time>2017-02-12T08:39:17.999Z</time>
      </trkpt>
      <trkpt lat="47.48688" lon="6.77151">
        <ele>361.1</ele>
        <time>2017-02-12T08:39:18.999Z</time>
      </trkpt>
      <trkpt lat="47.48683" lon="6.77147">
        <ele>360.7</ele>
        <time>2017-02-12T08:39:19.999Z</time>
      </trkpt>
      <trkpt lat="47.48678" lon="6.77142">
        <ele>360.2</ele>
        <time>2017-02-12T08:39:20.999Z</time>
      </trkpt>
      <trkpt lat="47.48674" lon="6.77137">
        <ele>359.8</ele>
        <time>2017-02-12T08:39:21.999Z</time>
      </trkpt>
      <trkpt lat="47.48669" lon="6.77133">
        <ele>359.6</ele>
        <time>2017-02-12T08:39:22.999Z</time>
      </trkpt>
      <trkpt lat="47.48665" lon="6.77128">
        <ele>359.4</ele>
        <time>2017-02-12T08:39:23.999Z</time>
      </trkpt>
      <trkpt lat="47.4866" lon="6.77124">
        <ele>359.3</ele>
        <time>2017-02-12T08:39:24.999Z</time>
      </trkpt>
      <trkpt lat="47.48656" lon="6.77119">
        <ele>359.2</ele>
        <time>2017-02-12T08:39:25.999Z</time>
      </trkpt>
      <trkpt lat="47.48652" lon="6.77114">
        <ele>359.3</ele>
        <time>2017-02-12T08:39:26.999Z</time>
      </trkpt>
      <trkpt lat="47.48647" lon="6.7711">
        <ele>359.3</ele>
        <time>2017-02-12T08:39:27.999Z</time>
      </trkpt>
      <trkpt lat="47.48642" lon="6.77104">
        <ele>359.3</ele>
        <time>2017-02-12T08:39:28.999Z</time>
      </trkpt>
      <trkpt lat="47.48638" lon="6.77099">
        <ele>359.4</ele>
        <time>2017-02-12T08:39:29.999Z</time>
      </trkpt>
      <trkpt lat="47.48634" lon="6.77094">
        <ele>359.5</ele>
        <time>2017-02-12T08:39:30.999Z</time>
      </trkpt>
      <trkpt lat="47.48631" lon="6.77091">
        <ele>360</ele>
        <time>2017-02-12T08:39:31.999Z</time>
      </trkpt>
      <trkpt lat="47.48627" lon="6.77087">
        <ele>360.1</ele>
        <time>2017-02-12T08:39:32.999Z</time>
      </trkpt>
      <trkpt lat="47.48623" lon="6.77084">
        <ele>360.4</ele>
        <time>2017-02-12T08:39:33.999Z</time>
      </trkpt>
      <trkpt lat="47.4862" lon="6.77081">
        <ele>361.4</ele>
        <time>2017-02-12T08:39:34.999Z</time>
      </trkpt>
      <trkpt lat="47.48616" lon="6.77079">
        <ele>362</ele>
        <time>2017-02-12T08:39:35.999Z</time>
      </trkpt>
      <trkpt lat="47.48612" lon="6.77076">
        <ele>362.5</ele>
        <time>2017-02-12T08:39:36.999Z</time>
      </trkpt>
      <trkpt lat="47.48608" lon="6.77073">
        <ele>363</ele>
        <time>2017-02-12T08:39:37.999Z</time>
      </trkpt>
      <trkpt lat="47.48603" lon="6.77068">
        <ele>363.6</ele>
        <time>2017-02-12T08:39:38.999Z</time>
      </trkpt>
      <trkpt lat="47.48599" lon="6.77064">
        <ele>364.8</ele>
        <time>2017-02-12T08:39:39.999Z</time>
      </trkpt>
      <trkpt lat="47.48594" lon="6.77062">
        <ele>365.9</ele>
        <time>2017-02-12T08:39:40.999Z</time>
      </trkpt>
      <trkpt lat="47.4859" lon="6.77059">
        <ele>366.8</ele>
        <time>2017-02-12T08:39:41.999Z</time>
      </trkpt>
      <trkpt lat="47.48584" lon="6.77057">
        <ele>367.7</ele>
        <time>2017-02-12T08:39:42.999Z</time>
      </trkpt>
      <trkpt lat="47.48579" lon="6.77055">
        <ele>368.6</ele>
        <time>2017-02-12T08:39:43.999Z</time>
      </trkpt>
      <trkpt lat="47.48575" lon="6.77052">
        <ele>369.5</ele>
        <time>2017-02-12T08:39:44.999Z</time>
      </trkpt>
      <trkpt lat="47.48571" lon="6.77051">
        <ele>370.2</ele>
        <time>2017-02-12T08:39:45.999Z</time>
      </trkpt>
      <trkpt lat="47.48567" lon="6.77049">
        <ele>371.1</ele>
        <time>2017-02-12T08:39:46.999Z</time>
      </trkpt>
      <trkpt lat="47.48564" lon="6.77048">
        <ele>371.7</ele>
        <time>2017-02-12T08:39:47.999Z</time>
      </trkpt>
      <trkpt lat="47.48558" lon="6.77046">
        <ele>372.6</ele>
        <time>2017-02-12T08:39:48.999Z</time>
      </trkpt>
      <trkpt lat="47.48553" lon="6.77042">
        <ele>373.4</ele>
        <time>2017-02-12T08:39:49.999Z</time>
      </trkpt>
      <trkpt lat="47.48547" lon="6.77038">
        <ele>374</ele>
        <time>2017-02-12T08:39:50.999Z</time>
      </trkpt>
      <trkpt lat="47.48541" lon="6.77033">
        <ele>374</ele>
        <time>2017-02-12T08:39:51.999Z</time>
      </trkpt>
      <trkpt lat="47.48534" lon="6.77027">
        <ele>373.6</ele>
        <time>2017-02-12T08:39:52.999Z</time>
      </trkpt>
      <trkpt lat="47.48527" lon="6.77021">
        <ele>372.9</ele>
        <time>2017-02-12T08:39:53.999Z</time>
      </trkpt>
      <trkpt lat="47.4852" lon="6.77015">
        <ele>372.3</ele>
        <time>2017-02-12T08:39:54.999Z</time>
      </trkpt>
      <trkpt lat="47.48514" lon="6.7701">
        <ele>371.1</ele>
        <time>2017-02-12T08:39:55.999Z</time>
      </trkpt>
      <trkpt lat="47.48508" lon="6.77007">
        <ele>369.9</ele>
        <time>2017-02-12T08:39:56.999Z</time>
      </trkpt>
      <trkpt lat="47.48503" lon="6.77004">
        <ele>368.7</ele>
        <time>2017-02-12T08:39:57.999Z</time>
      </trkpt>
      <trkpt lat="47.48498" lon="6.77001">
        <ele>367.9</ele>
        <time>2017-02-12T08:39:58.999Z</time>
      </trkpt>
      <trkpt lat="47.48493" lon="6.76998">
        <ele>367</ele>
        <time>2017-02-12T08:39:59.999Z</time>
      </trkpt>
      <trkpt lat="47.48487" lon="6.76994">
        <ele>366.4</ele>
        <time>2017-02-12T08:40:00.999Z</time>
      </trkpt>
      <trkpt lat="47.48482" lon="6.76991">
        <ele>366.2</ele>
        <time>2017-02-12T08:40:01.999Z</time>
      </trkpt>
      <trkpt lat="47.48475" lon="6.76987">
        <ele>365.8</ele>
        <time>2017-02-12T08:40:02.999Z</time>
      </trkpt>
      <trkpt lat="47.48469" lon="6.76982">
        <ele>365.9</ele>
        <time>2017-02-12T08:40:03.999Z</time>
      </trkpt>
      <trkpt lat="47.48463" lon="6.76978">
        <ele>366.2</ele>
        <time>2017-02-12T08:40:04.999Z</time>
      </trkpt>
      <trkpt lat="47.48457" lon="6.76974">
        <ele>366.3</ele>
        <time>2017-02-12T08:40:05.999Z</time>
      </trkpt>
      <trkpt lat="47.48451" lon="6.7697">
        <ele>366.1</ele>
        <time>2017-02-12T08:40:06.999Z</time>
      </trkpt>
      <trkpt lat="47.48446" lon="6.76967">
        <ele>365.9</ele>
        <time>2017-02-12T08:40:07.999Z</time>
      </trkpt>
      <trkpt lat="47.48441" lon="6.76964">
        <ele>365.7</ele>
        <time>2017-02-12T08:40:08.999Z</time>
      </trkpt>
      <trkpt lat="47.48436" lon="6.76961">
        <ele>365.5</ele>
        <time>2017-02-12T08:40:09.999Z</time>
      </trkpt>
      <trkpt lat="47.4843" lon="6.76958">
        <ele>365.1</ele>
        <time>2017-02-12T08:40:10.999Z</time>
      </trkpt>
      <trkpt lat="47.48425" lon="6.76955">
        <ele>365</ele>
        <time>2017-02-12T08:40:11.999Z</time>
      </trkpt>
      <trkpt lat="47.48419" lon="6.76952">
        <ele>365</ele>
        <time>2017-02-12T08:40:12.999Z</time>
      </trkpt>
      <trkpt lat="47.48413" lon="6.76949">
        <ele>365.1</ele>
        <time>2017-02-12T08:40:13.999Z</time>
      </trkpt>
      <trkpt lat="47.48406" lon="6.76946">
        <ele>365</ele>
        <time>2017-02-12T08:40:14.999Z</time>
      </trkpt>
      <trkpt lat="47.484" lon="6.76943">
        <ele>364.7</ele>
        <time>2017-02-12T08:40:15.999Z</time>
      </trkpt>
      <trkpt lat="47.48393" lon="6.7694">
        <ele>364</ele>
        <time>2017-02-12T08:40:16.999Z</time>
      </trkpt>
      <trkpt lat="47.48387" lon="6.76937">
        <ele>363</ele>
        <time>2017-02-12T08:40:17.999Z</time>
      </trkpt>
      <trkpt lat="47.4838" lon="6.76935">
        <ele>361.9</ele>
        <time>2017-02-12T08:40:18.999Z</time>
      </trkpt>
      <trkpt lat="47.48373" lon="6.76931">
        <ele>360.8</ele>
        <time>2017-02-12T08:40:19.999Z</time>
      </trkpt>
      <trkpt lat="47.48368" lon="6.76928">
        <ele>360.2</ele>
        <time>2017-02-12T08:40:20.999Z</time>
      </trkpt>
      <trkpt lat="47.48362" lon="6.76925">
        <ele>360</ele>
        <time>2017-02-12T08:40:21.999Z</time>
      </trkpt>
      <trkpt lat="47.48357" lon="6.76922">
        <ele>360.1</ele>
        <time>2017-02-12T08:40:22.999Z</time>
      </trkpt>
      <trkpt lat="47.48352" lon="6.76918">
        <ele>360.6</ele>
        <time>2017-02-12T08:40:23.999Z</time>
      </trkpt>
      <trkpt lat="47.48347" lon="6.76914">
        <ele>361.1</ele>
        <time>2017-02-12T08:40:24.999Z</time>
      </trkpt>
      <trkpt lat="47.48342" lon="6.76911">
        <ele>361.8</ele>
        <time>2017-02-12T08:40:25.999Z</time>
      </trkpt>
      <trkpt lat="47.48337" lon="6.76907">
        <ele>361.9</ele>
        <time>2017-02-12T08:40:26.999Z</time>
      </trkpt>
      <trkpt lat="47.48332" lon="6.76902">
        <ele>362</ele>
        <time>2017-02-12T08:40:27.999Z</time>
      </trkpt>
      <trkpt lat="47.48326" lon="6.76898">
        <ele>362.1</ele>
        <time>2017-02-12T08:40:28.999Z</time>
      </trkpt>
      <trkpt lat="47.48321" lon="6.76893">
        <ele>362.7</ele>
        <time>2017-02-12T08:40:29.999Z</time>
      </trkpt>
      <trkpt lat="47.48316" lon="6.76888">
        <ele>363.1</ele>
        <time>2017-02-12T08:40:30.999Z</time>
      </trkpt>
      <trkpt lat="47.48311" lon="6.76884">
        <ele>363.2</ele>
        <time>2017-02-12T08:40:31.999Z</time>
      </trkpt>
      <trkpt lat="47.48305" lon="6.76879">
        <ele>363.2</ele>
        <time>2017-02-12T08:40:32.999Z</time>
      </trkpt>
      <trkpt lat="47.48299" lon="6.76875">
        <ele>363</ele>
        <time>2017-02-12T08:40:33.999Z</time>
      </trkpt>
      <trkpt lat="47.48294" lon="6.7687">
        <ele>362.9</ele>
        <time>2017-02-12T08:40:34.999Z</time>
      </trkpt>
      <trkpt lat="47.48288" lon="6.76865">
        <ele>362.5</ele>
        <time>2017-02-12T08:40:35.999Z</time>
      </trkpt>
      <trkpt lat="47.48283" lon="6.76861">
        <ele>362</ele>
        <time>2017-02-12T08:40:36.999Z</time>
      </trkpt>
      <trkpt lat="47.48278" lon="6.76854">
        <ele>361.7</ele>
        <time>2017-02-12T08:40:37.999Z</time>
      </trkpt>
      <trkpt lat="47.48274" lon="6.76849">
        <ele>362</ele>
        <time>2017-02-12T08:40:38.999Z</time>
      </trkpt>
      <trkpt lat="47.4827" lon="6.76844">
        <ele>362.1</ele>
        <time>2017-02-12T08:40:39.999Z</time>
      </trkpt>
      <trkpt lat="47.48266" lon="6.76839">
        <ele>361.9</ele>
        <time>2017-02-12T08:40:40.999Z</time>
      </trkpt>
      <trkpt lat="47.48262" lon="6.76833">
        <ele>361.9</ele>
        <time>2017-02-12T08:40:41.999Z</time>
      </trkpt>
      <trkpt lat="47.48258" lon="6.76826">
        <ele>362.4</ele>
        <time>2017-02-12T08:40:42.999Z</time>
      </trkpt>
      <trkpt lat="47.48253" lon="6.7682">
        <ele>362.6</ele>
        <time>2017-02-12T08:40:43.999Z</time>
      </trkpt>
      <trkpt lat="47.48249" lon="6.76814">
        <ele>362.5</ele>
        <time>2017-02-12T08:40:44.999Z</time>
      </trkpt>
      <trkpt lat="47.48244" lon="6.76808">
        <ele>362.2</ele>
        <time>2017-02-12T08:40:45.999Z</time>
      </trkpt>
      <trkpt lat="47.48239" lon="6.76803">
        <ele>362</ele>
        <time>2017-02-12T08:40:46.999Z</time>
      </trkpt>
      <trkpt lat="47.48233" lon="6.76799">
        <ele>362</ele>
        <time>2017-02-12T08:40:47.999Z</time>
      </trkpt>
      <trkpt lat="47.48227" lon="6.76796">
        <ele>362.1</ele>
        <time>2017-02-12T08:40:48.999Z</time>
      </trkpt>
      <trkpt lat="47.48222" lon="6.76793">
        <ele>361.9</ele>
        <time>2017-02-12T08:40:49.999Z</time>
      </trkpt>
      <trkpt lat="47.48216" lon="6.7679">
        <ele>361.7</ele>
        <time>2017-02-12T08:40:50.999Z</time>
      </trkpt>
      <trkpt lat="47.48211" lon="6.76787">
        <ele>361.4</ele>
        <time>2017-02-12T08:40:51.999Z</time>
      </trkpt>
      <trkpt lat="47.48205" lon="6.76785">
        <ele>361.7</ele>
        <time>2017-02-12T08:40:52.999Z</time>
      </trkpt>
      <trkpt lat="47.48199" lon="6.76782">
        <ele>361.8</ele>
        <time>2017-02-12T08:40:53.999Z</time>
      </trkpt>
      <trkpt lat="47.48194" lon="6.76778">
        <ele>362.1</ele>
        <time>2017-02-12T08:40:54.999Z</time>
      </trkpt>
      <trkpt lat="47.48187" lon="6.76774">
        <ele>362</ele>
        <time>2017-02-12T08:40:55.999Z</time>
      </trkpt>
      <trkpt lat="47.48181" lon="6.76767">
        <ele>361.3</ele>
        <time>2017-02-12T08:40:56.999Z</time>
      </trkpt>
      <trkpt lat="47.48175" lon="6.76761">
        <ele>360.7</ele>
        <time>2017-02-12T08:40:57.999Z</time>
      </trkpt>
      <trkpt lat="47.4817" lon="6.76755">
        <ele>360.7</ele>
        <time>2017-02-12T08:40:58.999Z</time>
      </trkpt>
      <trkpt lat="47.48166" lon="6.76749">
        <ele>361</ele>
        <time>2017-02-12T08:40:59.999Z</time>
      </trkpt>
      <trkpt lat="47.48162" lon="6.76744">
        <ele>361.3</ele>
        <time>2017-02-12T08:41:00.999Z</time>
      </trkpt>
      <trkpt lat="47.48158" lon="6.76739">
        <ele>361.4</ele>
        <time>2017-02-12T08:41:01.999Z</time>
      </trkpt>
      <trkpt lat="47.48154" lon="6.76732">
        <ele>361.7</ele>
        <time>2017-02-12T08:41:02.999Z</time>
      </trkpt>
      <trkpt lat="47.4815" lon="6.76725">
        <ele>362.1</ele>
        <time>2017-02-12T08:41:03.999Z</time>
      </trkpt>
      <trkpt lat="47.48146" lon="6.76717">
        <ele>362.2</ele>
        <time>2017-02-12T08:41:04.999Z</time>
      </trkpt>
      <trkpt lat="47.48143" lon="6.76709">
        <ele>362.3</ele>
        <time>2017-02-12T08:41:05.999Z</time>
      </trkpt>
      <trkpt lat="47.48139" lon="6.76702">
        <ele>362.5</ele>
        <time>2017-02-12T08:41:06.999Z</time>
      </trkpt>
      <trkpt lat="47.48135" lon="6.76693">
        <ele>362.9</ele>
        <time>2017-02-12T08:41:07.999Z</time>
      </trkpt>
      <trkpt lat="47.48131" lon="6.76686">
        <ele>363.3</ele>
        <time>2017-02-12T08:41:08.999Z</time>
      </trkpt>
      <trkpt lat="47.48127" lon="6.76679">
        <ele>363.7</ele>
        <time>2017-02-12T08:41:09.999Z</time>
      </trkpt>
      <trkpt lat="47.48123" lon="6.76672">
        <ele>364</ele>
        <time>2017-02-12T08:41:10.999Z</time>
      </trkpt>
      <trkpt lat="47.48118" lon="6.76666">
        <ele>364.5</ele>
        <time>2017-02-12T08:41:11.999Z</time>
      </trkpt>
      <trkpt lat="47.48114" lon="6.76659">
        <ele>365</ele>
        <time>2017-02-12T08:41:12.999Z</time>
      </trkpt>
      <trkpt lat="47.48109" lon="6.76652">
        <ele>365.5</ele>
        <time>2017-02-12T08:41:13.999Z</time>
      </trkpt>
      <trkpt lat="47.48105" lon="6.76645">
        <ele>366</ele>
        <time>2017-02-12T08:41:14.999Z</time>
      </trkpt>
      <trkpt lat="47.48101" lon="6.76636">
        <ele>366.6</ele>
        <time>2017-02-12T08:41:15.999Z</time>
      </trkpt>
      <trkpt lat="47.48098" lon="6.76628">
        <ele>366.5</ele>
        <time>2017-02-12T08:41:16.999Z</time>
      </trkpt>
      <trkpt lat="47.48096" lon="6.7662">
        <ele>366.4</ele>
        <time>2017-02-12T08:41:17.999Z</time>
      </trkpt>
      <trkpt lat="47.48095" lon="6.76612">
        <ele>366.3</ele>
        <time>2017-02-12T08:41:18.999Z</time>
      </trkpt>
      <trkpt lat="47.48096" lon="6.76604">
        <ele>365.8</ele>
        <time>2017-02-12T08:41:19.999Z</time>
      </trkpt>
      <trkpt lat="47.48099" lon="6.76597">
        <ele>365.8</ele>
        <time>2017-02-12T08:41:20.999Z</time>
      </trkpt>
      <trkpt lat="47.48102" lon="6.7659">
        <ele>365.7</ele>
        <time>2017-02-12T08:41:21.999Z</time>
      </trkpt>
      <trkpt lat="47.48105" lon="6.76582">
        <ele>365.4</ele>
        <time>2017-02-12T08:41:22.999Z</time>
      </trkpt>
      <trkpt lat="47.48109" lon="6.76574">
        <ele>365.8</ele>
        <time>2017-02-12T08:41:23.999Z</time>
      </trkpt>
      <trkpt lat="47.48113" lon="6.76568">
        <ele>365.5</ele>
        <time>2017-02-12T08:41:24.999Z</time>
      </trkpt>
      <trkpt lat="47.48116" lon="6.76562">
        <ele>365.2</ele>
        <time>2017-02-12T08:41:25.999Z</time>
      </trkpt>
      <trkpt lat="47.48119" lon="6.76556">
        <ele>364.9</ele>
        <time>2017-02-12T08:41:26.999Z</time>
      </trkpt>
      <trkpt lat="47.48121" lon="6.7655">
        <ele>364.9</ele>
        <time>2017-02-12T08:41:27.999Z</time>
      </trkpt>
      <trkpt lat="47.48121" lon="6.76544">
        <ele>364.8</ele>
        <time>2017-02-12T08:41:29.999Z</time>
      </trkpt>
      <trkpt lat="47.48119" lon="6.7654">
        <ele>364.9</ele>
        <time>2017-02-12T08:41:30.999Z</time>
      </trkpt>
      <trkpt lat="47.48118" lon="6.76535">
        <ele>365</ele>
        <time>2017-02-12T08:41:31.999Z</time>
      </trkpt>
      <trkpt lat="47.48115" lon="6.76528">
        <ele>365.2</ele>
        <time>2017-02-12T08:41:32.999Z</time>
      </trkpt>
      <trkpt lat="47.48114" lon="6.76523">
        <ele>365.4</ele>
        <time>2017-02-12T08:41:33.999Z</time>
      </trkpt>
      <trkpt lat="47.48111" lon="6.76518">
        <ele>365.6</ele>
        <time>2017-02-12T08:41:34.999Z</time>
      </trkpt>
      <trkpt lat="47.48106" lon="6.76518">
        <ele>368.3</ele>
        <time>2017-02-12T08:41:35.999Z</time>
      </trkpt>
      <trkpt lat="47.48101" lon="6.76521">
        <ele>369.2</ele>
        <time>2017-02-12T08:41:36.999Z</time>
      </trkpt>
      <trkpt lat="47.48097" lon="6.76522">
        <ele>369.2</ele>
        <time>2017-02-12T08:41:37.999Z</time>
      </trkpt>
      <trkpt lat="47.48094" lon="6.76524">
        <ele>368.8</ele>
        <time>2017-02-12T08:41:38.999Z</time>
      </trkpt>
      <trkpt lat="47.48089" lon="6.76527">
        <ele>368.3</ele>
        <time>2017-02-12T08:41:39.999Z</time>
      </trkpt>
      <trkpt lat="47.48084" lon="6.7653">
        <ele>368</ele>
        <time>2017-02-12T08:41:40.999Z</time>
      </trkpt>
      <trkpt lat="47.4808" lon="6.76534">
        <ele>367.8</ele>
        <time>2017-02-12T08:41:41.999Z</time>
      </trkpt>
      <trkpt lat="47.48075" lon="6.76538">
        <ele>367.6</ele>
        <time>2017-02-12T08:41:42.999Z</time>
      </trkpt>
      <trkpt lat="47.4807" lon="6.76542">
        <ele>367.4</ele>
        <time>2017-02-12T08:41:43.999Z</time>
      </trkpt>
      <trkpt lat="47.48065" lon="6.76546">
        <ele>367.1</ele>
        <time>2017-02-12T08:41:44.999Z</time>
      </trkpt>
      <trkpt lat="47.48061" lon="6.7655">
        <ele>366.9</ele>
        <time>2017-02-12T08:41:45.999Z</time>
      </trkpt>
      <trkpt lat="47.48057" lon="6.76553">
        <ele>366.9</ele>
        <time>2017-02-12T08:41:46.999Z</time>
      </trkpt>
      <trkpt lat="47.48053" lon="6.76556">
        <ele>367</ele>
        <time>2017-02-12T08:41:47.999Z</time>
      </trkpt>
      <trkpt lat="47.4805" lon="6.76559">
        <ele>367.1</ele>
        <time>2017-02-12T08:41:48.999Z</time>
      </trkpt>
      <trkpt lat="47.48046" lon="6.76563">
        <ele>366.9</ele>
        <time>2017-02-12T08:41:49.999Z</time>
      </trkpt>
      <trkpt lat="47.48041" lon="6.76566">
        <ele>367.1</ele>
        <time>2017-02-12T08:41:50.999Z</time>
      </trkpt>
      <trkpt lat="47.48036" lon="6.7657">
        <ele>367.4</ele>
        <time>2017-02-12T08:41:51.999Z</time>
      </trkpt>
      <trkpt lat="47.48032" lon="6.76573">
        <ele>367.6</ele>
        <time>2017-02-12T08:41:52.999Z</time>
      </trkpt>
      <trkpt lat="47.48028" lon="6.76577">
        <ele>367.9</ele>
        <time>2017-02-12T08:41:53.999Z</time>
      </trkpt>
      <trkpt lat="47.48023" lon="6.76581">
        <ele>368.1</ele>
        <time>2017-02-12T08:41:54.999Z</time>
      </trkpt>
      <trkpt lat="47.48018" lon="6.76585">
        <ele>368.5</ele>
        <time>2017-02-12T08:41:55.999Z</time>
      </trkpt>
      <trkpt lat="47.48014" lon="6.76588">
        <ele>368.9</ele>
        <time>2017-02-12T08:41:56.999Z</time>
      </trkpt>
      <trkpt lat="47.4801" lon="6.76591">
        <ele>369.5</ele>
        <time>2017-02-12T08:41:57.999Z</time>
      </trkpt>
      <trkpt lat="47.48006" lon="6.76593">
        <ele>370.2</ele>
        <time>2017-02-12T08:41:58.999Z</time>
      </trkpt>
      <trkpt lat="47.48003" lon="6.76596">
        <ele>370.2</ele>
        <time>2017-02-12T08:41:59.999Z</time>
      </trkpt>
      <trkpt lat="47.48" lon="6.76598">
        <ele>370.2</ele>
        <time>2017-02-12T08:42:00.999Z</time>
      </trkpt>
      <trkpt lat="47.47997" lon="6.766">
        <ele>370.2</ele>
        <time>2017-02-12T08:42:01.999Z</time>
      </trkpt>
      <trkpt lat="47.47993" lon="6.76603">
        <ele>370.1</ele>
        <time>2017-02-12T08:42:02.999Z</time>
      </trkpt>
      <trkpt lat="47.47988" lon="6.76605">
        <ele>370</ele>
        <time>2017-02-12T08:42:03.999Z</time>
      </trkpt>
      <trkpt lat="47.47986" lon="6.76604">
        <ele>370</ele>
        <time>2017-02-12T08:42:04.999Z</time>
      </trkpt>
      <trkpt lat="47.47983" lon="6.76604">
        <ele>370.5</ele>
        <time>2017-02-12T08:42:05.999Z</time>
      </trkpt>
      <trkpt lat="47.47978" lon="6.76604">
        <ele>370.5</ele>
        <time>2017-02-12T08:42:06.999Z</time>
      </trkpt>
      <trkpt lat="47.47974" lon="6.76605">
        <ele>370.2</ele>
        <time>2017-02-12T08:42:07.999Z</time>
      </trkpt>
      <trkpt lat="47.4797" lon="6.76606">
        <ele>369.7</ele>
        <time>2017-02-12T08:42:08.999Z</time>
      </trkpt>
      <trkpt lat="47.47966" lon="6.76608">
        <ele>369.3</ele>
        <time>2017-02-12T08:42:09.999Z</time>
      </trkpt>
      <trkpt lat="47.47962" lon="6.76609">
        <ele>369.3</ele>
        <time>2017-02-12T08:42:10.999Z</time>
      </trkpt>
      <trkpt lat="47.47957" lon="6.76609">
        <ele>369.2</ele>
        <time>2017-02-12T08:42:11.999Z</time>
      </trkpt>
      <trkpt lat="47.47954" lon="6.76605">
        <ele>368.6</ele>
        <time>2017-02-12T08:42:12.999Z</time>
      </trkpt>
      <trkpt lat="47.47952" lon="6.76601">
        <ele>368.1</ele>
        <time>2017-02-12T08:42:13.999Z</time>
      </trkpt>
      <trkpt lat="47.47951" lon="6.76594">
        <ele>367.6</ele>
        <time>2017-02-12T08:42:14.999Z</time>
      </trkpt>
      <trkpt lat="47.4795" lon="6.76585">
        <ele>367.2</ele>
        <time>2017-02-12T08:42:15.999Z</time>
      </trkpt>
      <trkpt lat="47.47949" lon="6.76578">
        <ele>367.5</ele>
        <time>2017-02-12T08:42:16.999Z</time>
      </trkpt>
      <trkpt lat="47.47947" lon="6.76572">
        <ele>367.3</ele>
        <time>2017-02-12T08:42:17.999Z</time>
      </trkpt>
      <trkpt lat="47.47946" lon="6.76565">
        <ele>367.1</ele>
        <time>2017-02-12T08:42:18.999Z</time>
      </trkpt>
      <trkpt lat="47.47944" lon="6.76557">
        <ele>366.5</ele>
        <time>2017-02-12T08:42:19.999Z</time>
      </trkpt>
      <trkpt lat="47.47942" lon="6.7655">
        <ele>365.6</ele>
        <time>2017-02-12T08:42:20.999Z</time>
      </trkpt>
      <trkpt lat="47.47939" lon="6.76542">
        <ele>365.3</ele>
        <time>2017-02-12T08:42:21.999Z</time>
      </trkpt>
      <trkpt lat="47.47937" lon="6.76534">
        <ele>365.4</ele>
        <time>2017-02-12T08:42:22.999Z</time>
      </trkpt>
      <trkpt lat="47.47935" lon="6.76527">
        <ele>365.2</ele>
        <time>2017-02-12T08:42:23.999Z</time>
      </trkpt>
      <trkpt lat="47.47933" lon="6.76519">
        <ele>364.9</ele>
        <time>2017-02-12T08:42:24.999Z</time>
      </trkpt>
      <trkpt lat="47.47931" lon="6.76511">
        <ele>364.6</ele>
        <time>2017-02-12T08:42:25.999Z</time>
      </trkpt>
      <trkpt lat="47.47929" lon="6.76503">
        <ele>364.2</ele>
        <time>2017-02-12T08:42:26.999Z</time>
      </trkpt>
      <trkpt lat="47.47927" lon="6.76495">
        <ele>363.7</ele>
        <time>2017-02-12T08:42:27.999Z</time>
      </trkpt>
      <trkpt lat="47.47926" lon="6.76488">
        <ele>363.5</ele>
        <time>2017-02-12T08:42:28.999Z</time>
      </trkpt>
      <trkpt lat="47.47924" lon="6.7648">
        <ele>363.4</ele>
        <time>2017-02-12T08:42:29.999Z</time>
      </trkpt>
      <trkpt lat="47.47922" lon="6.76472">
        <ele>363.4</ele>
        <time>2017-02-12T08:42:30.999Z</time>
      </trkpt>
      <trkpt lat="47.47921" lon="6.76464">
        <ele>363.6</ele>
        <time>2017-02-12T08:42:31.999Z</time>
      </trkpt>
      <trkpt lat="47.47919" lon="6.76457">
        <ele>364.2</ele>
        <time>2017-02-12T08:42:32.999Z</time>
      </trkpt>
      <trkpt lat="47.47918" lon="6.76449">
        <ele>364.7</ele>
        <time>2017-02-12T08:42:33.999Z</time>
      </trkpt>
      <trkpt lat="47.47915" lon="6.76441">
        <ele>364.9</ele>
        <time>2017-02-12T08:42:34.999Z</time>
      </trkpt>
      <trkpt lat="47.47913" lon="6.76433">
        <ele>365.1</ele>
        <time>2017-02-12T08:42:35.999Z</time>
      </trkpt>
      <trkpt lat="47.47911" lon="6.76425">
        <ele>365.3</ele>
        <time>2017-02-12T08:42:36.999Z</time>
      </trkpt>
      <trkpt lat="47.47908" lon="6.76418">
        <ele>365.6</ele>
        <time>2017-02-12T08:42:37.999Z</time>
      </trkpt>
      <trkpt lat="47.47905" lon="6.7641">
        <ele>366</ele>
        <time>2017-02-12T08:42:38.999Z</time>
      </trkpt>
      <trkpt lat="47.47903" lon="6.76402">
        <ele>366.5</ele>
        <time>2017-02-12T08:42:39.999Z</time>
      </trkpt>
      <trkpt lat="47.479" lon="6.76396">
        <ele>367</ele>
        <time>2017-02-12T08:42:40.999Z</time>
      </trkpt>
      <trkpt lat="47.47898" lon="6.76389">
        <ele>367.7</ele>
        <time>2017-02-12T08:42:41.999Z</time>
      </trkpt>
      <trkpt lat="47.47895" lon="6.76382">
        <ele>368.1</ele>
        <time>2017-02-12T08:42:42.999Z</time>
      </trkpt>
      <trkpt lat="47.47892" lon="6.76375">
        <ele>368.4</ele>
        <time>2017-02-12T08:42:43.999Z</time>
      </trkpt>
      <trkpt lat="47.47889" lon="6.76368">
        <ele>368.5</ele>
        <time>2017-02-12T08:42:44.999Z</time>
      </trkpt>
      <trkpt lat="47.47886" lon="6.76362">
        <ele>369</ele>
        <time>2017-02-12T08:42:45.999Z</time>
      </trkpt>
      <trkpt lat="47.47883" lon="6.76355">
        <ele>369.3</ele>
        <time>2017-02-12T08:42:46.999Z</time>
      </trkpt>
      <trkpt lat="47.4788" lon="6.76348">
        <ele>369.6</ele>
        <time>2017-02-12T08:42:47.999Z</time>
      </trkpt>
      <trkpt lat="47.47877" lon="6.76341">
        <ele>369.9</ele>
        <time>2017-02-12T08:42:48.999Z</time>
      </trkpt>
      <trkpt lat="47.47874" lon="6.76335">
        <ele>370.1</ele>
        <time>2017-02-12T08:42:49.999Z</time>
      </trkpt>
      <trkpt lat="47.4787" lon="6.76328">
        <ele>370.6</ele>
        <time>2017-02-12T08:42:50.999Z</time>
      </trkpt>
      <trkpt lat="47.47867" lon="6.76321">
        <ele>370.8</ele>
        <time>2017-02-12T08:42:51.999Z</time>
      </trkpt>
      <trkpt lat="47.47863" lon="6.76314">
        <ele>371.1</ele>
        <time>2017-02-12T08:42:52.999Z</time>
      </trkpt>
      <trkpt lat="47.4786" lon="6.76308">
        <ele>371.6</ele>
        <time>2017-02-12T08:42:53.999Z</time>
      </trkpt>
      <trkpt lat="47.47857" lon="6.76302">
        <ele>372.3</ele>
        <time>2017-02-12T08:42:54.999Z</time>
      </trkpt>
      <trkpt lat="47.47853" lon="6.76296">
        <ele>372.8</ele>
        <time>2017-02-12T08:42:55.999Z</time>
      </trkpt>
      <trkpt lat="47.47849" lon="6.7629">
        <ele>373.4</ele>
        <time>2017-02-12T08:42:56.999Z</time>
      </trkpt>
      <trkpt lat="47.47846" lon="6.76284">
        <ele>373.5</ele>
        <time>2017-02-12T08:42:57.999Z</time>
      </trkpt>
      <trkpt lat="47.47841" lon="6.76278">
        <ele>373.6</ele>
        <time>2017-02-12T08:42:58.999Z</time>
      </trkpt>
      <trkpt lat="47.47836" lon="6.76274">
        <ele>373.7</ele>
        <time>2017-02-12T08:42:59.999Z</time>
      </trkpt>
      <trkpt lat="47.4783" lon="6.76269">
        <ele>373</ele>
        <time>2017-02-12T08:43:00.999Z</time>
      </trkpt>
      <trkpt lat="47.47824" lon="6.76266">
        <ele>372.2</ele>
        <time>2017-02-12T08:43:01.999Z</time>
      </trkpt>
      <trkpt lat="47.47818" lon="6.76263">
        <ele>371.9</ele>
        <time>2017-02-12T08:43:02.999Z</time>
      </trkpt>
      <trkpt lat="47.47814" lon="6.7626">
        <ele>372</ele>
        <time>2017-02-12T08:43:03.999Z</time>
      </trkpt>
      <trkpt lat="47.47809" lon="6.76257">
        <ele>371.9</ele>
        <time>2017-02-12T08:43:04.999Z</time>
      </trkpt>
      <trkpt lat="47.47803" lon="6.76255">
        <ele>371.4</ele>
        <time>2017-02-12T08:43:05.999Z</time>
      </trkpt>
      <trkpt lat="47.47798" lon="6.76252">
        <ele>370.7</ele>
        <time>2017-02-12T08:43:06.999Z</time>
      </trkpt>
      <trkpt lat="47.47792" lon="6.76248">
        <ele>370.1</ele>
        <time>2017-02-12T08:43:07.999Z</time>
      </trkpt>
      <trkpt lat="47.47788" lon="6.76244">
        <ele>369.7</ele>
        <time>2017-02-12T08:43:08.999Z</time>
      </trkpt>
      <trkpt lat="47.47784" lon="6.7624">
        <ele>369.3</ele>
        <time>2017-02-12T08:43:09.999Z</time>
      </trkpt>
      <trkpt lat="47.4778" lon="6.76235">
        <ele>369.2</ele>
        <time>2017-02-12T08:43:10.999Z</time>
      </trkpt>
      <trkpt lat="47.47776" lon="6.76229">
        <ele>369</ele>
        <time>2017-02-12T08:43:11.999Z</time>
      </trkpt>
      <trkpt lat="47.47773" lon="6.76224">
        <ele>369</ele>
        <time>2017-02-12T08:43:12.999Z</time>
      </trkpt>
      <trkpt lat="47.47769" lon="6.76218">
        <ele>369.2</ele>
        <time>2017-02-12T08:43:13.999Z</time>
      </trkpt>
      <trkpt lat="47.47765" lon="6.76212">
        <ele>369.4</ele>
        <time>2017-02-12T08:43:14.999Z</time>
      </trkpt>
      <trkpt lat="47.47762" lon="6.76206">
        <ele>370</ele>
        <time>2017-02-12T08:43:15.999Z</time>
      </trkpt>
      <trkpt lat="47.47758" lon="6.762">
        <ele>370.5</ele>
        <time>2017-02-12T08:43:16.999Z</time>
      </trkpt>
      <trkpt lat="47.47755" lon="6.76194">
        <ele>370.8</ele>
        <time>2017-02-12T08:43:17.999Z</time>
      </trkpt>
      <trkpt lat="47.4775" lon="6.76187">
        <ele>370.8</ele>
        <time>2017-02-12T08:43:18.999Z</time>
      </trkpt>
      <trkpt lat="47.47746" lon="6.76181">
        <ele>371.1</ele>
        <time>2017-02-12T08:43:19.999Z</time>
      </trkpt>
      <trkpt lat="47.47743" lon="6.76175">
        <ele>371.4</ele>
        <time>2017-02-12T08:43:20.999Z</time>
      </trkpt>
      <trkpt lat="47.47739" lon="6.76169">
        <ele>371</ele>
        <time>2017-02-12T08:43:21.999Z</time>
      </trkpt>
      <trkpt lat="47.47734" lon="6.76162">
        <ele>370.7</ele>
        <time>2017-02-12T08:43:22.999Z</time>
      </trkpt>
      <trkpt lat="47.4773" lon="6.76156">
        <ele>370.5</ele>
        <time>2017-02-12T08:43:23.999Z</time>
      </trkpt>
      <trkpt lat="47.47726" lon="6.76151">
        <ele>370.1</ele>
        <time>2017-02-12T08:43:24.999Z</time>
      </trkpt>
      <trkpt lat="47.47722" lon="6.76145">
        <ele>369.6</ele>
        <time>2017-02-12T08:43:25.999Z</time>
      </trkpt>
      <trkpt lat="47.47717" lon="6.76138">
        <ele>369.2</ele>
        <time>2017-02-12T08:43:26.999Z</time>
      </trkpt>
      <trkpt lat="47.47713" lon="6.76132">
        <ele>368.8</ele>
        <time>2017-02-12T08:43:27.999Z</time>
      </trkpt>
      <trkpt lat="47.47709" lon="6.76126">
        <ele>368.4</ele>
        <time>2017-02-12T08:43:28.999Z</time>
      </trkpt>
      <trkpt lat="47.47705" lon="6.7612">
        <ele>368.2</ele>
        <time>2017-02-12T08:43:29.999Z</time>
      </trkpt>
      <trkpt lat="47.47701" lon="6.76114">
        <ele>368</ele>
        <time>2017-02-12T08:43:30.999Z</time>
      </trkpt>
      <trkpt lat="47.47697" lon="6.76107">
        <ele>367.9</ele>
        <time>2017-02-12T08:43:31.999Z</time>
      </trkpt>
      <trkpt lat="47.47693" lon="6.76101">
        <ele>368</ele>
        <time>2017-02-12T08:43:32.999Z</time>
      </trkpt>
      <trkpt lat="47.4769" lon="6.76095">
        <ele>368</ele>
        <time>2017-02-12T08:43:33.999Z</time>
      </trkpt>
      <trkpt lat="47.47687" lon="6.7609">
        <ele>368.1</ele>
        <time>2017-02-12T08:43:34.999Z</time>
      </trkpt>
      <trkpt lat="47.47683" lon="6.76084">
        <ele>368.1</ele>
        <time>2017-02-12T08:43:35.999Z</time>
      </trkpt>
      <trkpt lat="47.47679" lon="6.76077">
        <ele>368.4</ele>
        <time>2017-02-12T08:43:36.999Z</time>
      </trkpt>
      <trkpt lat="47.47675" lon="6.7607">
        <ele>368.3</ele>
        <time>2017-02-12T08:43:37.999Z</time>
      </trkpt>
      <trkpt lat="47.47671" lon="6.76063">
        <ele>367.8</ele>
        <time>2017-02-12T08:43:38.999Z</time>
      </trkpt>
      <trkpt lat="47.47668" lon="6.76055">
        <ele>368</ele>
        <time>2017-02-12T08:43:39.999Z</time>
      </trkpt>
      <trkpt lat="47.47667" lon="6.76046">
        <ele>368.2</ele>
        <time>2017-02-12T08:43:40.999Z</time>
      </trkpt>
      <trkpt lat="47.47665" lon="6.76037">
        <ele>368.3</ele>
        <time>2017-02-12T08:43:41.999Z</time>
      </trkpt>
      <trkpt lat="47.47665" lon="6.76029">
        <ele>368.3</ele>
        <time>2017-02-12T08:43:42.999Z</time>
      </trkpt>
      <trkpt lat="47.47665" lon="6.76021">
        <ele>368.2</ele>
        <time>2017-02-12T08:43:43.999Z</time>
      </trkpt>
      <trkpt lat="47.47666" lon="6.76013">
        <ele>368.1</ele>
        <time>2017-02-12T08:43:44.999Z</time>
      </trkpt>
      <trkpt lat="47.47667" lon="6.76006">
        <ele>367.7</ele>
        <time>2017-02-12T08:43:45.999Z</time>
      </trkpt>
      <trkpt lat="47.47668" lon="6.75999">
        <ele>367.2</ele>
        <time>2017-02-12T08:43:46.999Z</time>
      </trkpt>
      <trkpt lat="47.4767" lon="6.75991">
        <ele>366.5</ele>
        <time>2017-02-12T08:43:47.999Z</time>
      </trkpt>
      <trkpt lat="47.47673" lon="6.75984">
        <ele>365.9</ele>
        <time>2017-02-12T08:43:48.999Z</time>
      </trkpt>
      <trkpt lat="47.47675" lon="6.75977">
        <ele>365.3</ele>
        <time>2017-02-12T08:43:49.999Z</time>
      </trkpt>
      <trkpt lat="47.47678" lon="6.7597">
        <ele>364.7</ele>
        <time>2017-02-12T08:43:50.999Z</time>
      </trkpt>
      <trkpt lat="47.4768" lon="6.75963">
        <ele>364.1</ele>
        <time>2017-02-12T08:43:51.999Z</time>
      </trkpt>
      <trkpt lat="47.47683" lon="6.75957">
        <ele>363.6</ele>
        <time>2017-02-12T08:43:52.999Z</time>
      </trkpt>
      <trkpt lat="47.47687" lon="6.7595">
        <ele>363.2</ele>
        <time>2017-02-12T08:43:53.999Z</time>
      </trkpt>
      <trkpt lat="47.4769" lon="6.75941">
        <ele>362.8</ele>
        <time>2017-02-12T08:43:54.999Z</time>
      </trkpt>
      <trkpt lat="47.47691" lon="6.75933">
        <ele>362.2</ele>
        <time>2017-02-12T08:43:55.999Z</time>
      </trkpt>
      <trkpt lat="47.47693" lon="6.75924">
        <ele>361.7</ele>
        <time>2017-02-12T08:43:56.999Z</time>
      </trkpt>
      <trkpt lat="47.47694" lon="6.75914">
        <ele>361.2</ele>
        <time>2017-02-12T08:43:57.999Z</time>
      </trkpt>
      <trkpt lat="47.47694" lon="6.75905">
        <ele>360.7</ele>
        <time>2017-02-12T08:43:58.999Z</time>
      </trkpt>
      <trkpt lat="47.47695" lon="6.75895">
        <ele>360.1</ele>
        <time>2017-02-12T08:43:59.999Z</time>
      </trkpt>
      <trkpt lat="47.47696" lon="6.75886">
        <ele>359.7</ele>
        <time>2017-02-12T08:44:00.999Z</time>
      </trkpt>
      <trkpt lat="47.47696" lon="6.75877">
        <ele>359.4</ele>
        <time>2017-02-12T08:44:01.999Z</time>
      </trkpt>
      <trkpt lat="47.47697" lon="6.75867">
        <ele>359.2</ele>
        <time>2017-02-12T08:44:02.999Z</time>
      </trkpt>
      <trkpt lat="47.47697" lon="6.75859">
        <ele>359</ele>
        <time>2017-02-12T08:44:03.999Z</time>
      </trkpt>
      <trkpt lat="47.47698" lon="6.7585">
        <ele>358.9</ele>
        <time>2017-02-12T08:44:04.999Z</time>
      </trkpt>
      <trkpt lat="47.47698" lon="6.75841">
        <ele>358.8</ele>
        <time>2017-02-12T08:44:05.999Z</time>
      </trkpt>
      <trkpt lat="47.47698" lon="6.75833">
        <ele>358.7</ele>
        <time>2017-02-12T08:44:06.999Z</time>
      </trkpt>
      <trkpt lat="47.47699" lon="6.75824">
        <ele>358.7</ele>
        <time>2017-02-12T08:44:07.999Z</time>
      </trkpt>
      <trkpt lat="47.477" lon="6.75815">
        <ele>358.5</ele>
        <time>2017-02-12T08:44:08.999Z</time>
      </trkpt>
      <trkpt lat="47.477" lon="6.75805">
        <ele>358.3</ele>
        <time>2017-02-12T08:44:09.999Z</time>
      </trkpt>
      <trkpt lat="47.47702" lon="6.75796">
        <ele>357.9</ele>
        <time>2017-02-12T08:44:10.999Z</time>
      </trkpt>
      <trkpt lat="47.47703" lon="6.75787">
        <ele>357.5</ele>
        <time>2017-02-12T08:44:11.999Z</time>
      </trkpt>
      <trkpt lat="47.47703" lon="6.75777">
        <ele>357.3</ele>
        <time>2017-02-12T08:44:12.999Z</time>
      </trkpt>
      <trkpt lat="47.47703" lon="6.7577">
        <ele>357.3</ele>
        <time>2017-02-12T08:44:13.999Z</time>
      </trkpt>
      <trkpt lat="47.47703" lon="6.75762">
        <ele>357.4</ele>
        <time>2017-02-12T08:44:14.999Z</time>
      </trkpt>
      <trkpt lat="47.47703" lon="6.75753">
        <ele>357.5</ele>
        <time>2017-02-12T08:44:15.999Z</time>
      </trkpt>
      <trkpt lat="47.47702" lon="6.75745">
        <ele>357.7</ele>
        <time>2017-02-12T08:44:16.999Z</time>
      </trkpt>
      <trkpt lat="47.47702" lon="6.75736">
        <ele>357.8</ele>
        <time>2017-02-12T08:44:17.999Z</time>
      </trkpt>
      <trkpt lat="47.47703" lon="6.75728">
        <ele>358.4</ele>
        <time>2017-02-12T08:44:18.999Z</time>
      </trkpt>
      <trkpt lat="47.47703" lon="6.7572">
        <ele>358.5</ele>
        <time>2017-02-12T08:44:19.999Z</time>
      </trkpt>
      <trkpt lat="47.47704" lon="6.75712">
        <ele>359.1</ele>
        <time>2017-02-12T08:44:20.999Z</time>
      </trkpt>
      <trkpt lat="47.47705" lon="6.75705">
        <ele>359.7</ele>
        <time>2017-02-12T08:44:21.999Z</time>
      </trkpt>
      <trkpt lat="47.47705" lon="6.75697">
        <ele>360.5</ele>
        <time>2017-02-12T08:44:22.999Z</time>
      </trkpt>
      <trkpt lat="47.47705" lon="6.75688">
        <ele>361.1</ele>
        <time>2017-02-12T08:44:23.999Z</time>
      </trkpt>
      <trkpt lat="47.47705" lon="6.75678">
        <ele>362</ele>
        <time>2017-02-12T08:44:24.999Z</time>
      </trkpt>
      <trkpt lat="47.47705" lon="6.75667">
        <ele>362.9</ele>
        <time>2017-02-12T08:44:25.999Z</time>
      </trkpt>
      <trkpt lat="47.47705" lon="6.75657">
        <ele>363.8</ele>
        <time>2017-02-12T08:44:26.999Z</time>
      </trkpt>
      <trkpt lat="47.47705" lon="6.75646">
        <ele>364.2</ele>
        <time>2017-02-12T08:44:27.999Z</time>
      </trkpt>
      <trkpt lat="47.47706" lon="6.75636">
        <ele>364.6</ele>
        <time>2017-02-12T08:44:28.999Z</time>
      </trkpt>
      <trkpt lat="47.47706" lon="6.75625">
        <ele>364.9</ele>
        <time>2017-02-12T08:44:29.999Z</time>
      </trkpt>
      <trkpt lat="47.47707" lon="6.75616">
        <ele>364.7</ele>
        <time>2017-02-12T08:44:30.999Z</time>
      </trkpt>
      <trkpt lat="47.47708" lon="6.75604">
        <ele>364.7</ele>
        <time>2017-02-12T08:44:31.999Z</time>
      </trkpt>
      <trkpt lat="47.47708" lon="6.75592">
        <ele>364.6</ele>
        <time>2017-02-12T08:44:32.999Z</time>
      </trkpt>
      <trkpt lat="47.47708" lon="6.75581">
        <ele>364.2</ele>
        <time>2017-02-12T08:44:33.999Z</time>
      </trkpt>
      <trkpt lat="47.47708" lon="6.7557">
        <ele>363.8</ele>
        <time>2017-02-12T08:44:34.999Z</time>
      </trkpt>
      <trkpt lat="47.47709" lon="6.75559">
        <ele>363</ele>
        <time>2017-02-12T08:44:35.999Z</time>
      </trkpt>
      <trkpt lat="47.47709" lon="6.75549">
        <ele>362.6</ele>
        <time>2017-02-12T08:44:36.999Z</time>
      </trkpt>
      <trkpt lat="47.47709" lon="6.75539">
        <ele>362.4</ele>
        <time>2017-02-12T08:44:37.999Z</time>
      </trkpt>
      <trkpt lat="47.47709" lon="6.7553">
        <ele>362.4</ele>
        <time>2017-02-12T08:44:38.999Z</time>
      </trkpt>
      <trkpt lat="47.47709" lon="6.7552">
        <ele>362.2</ele>
        <time>2017-02-12T08:44:39.999Z</time>
      </trkpt>
      <trkpt lat="47.47709" lon="6.75511">
        <ele>362</ele>
        <time>2017-02-12T08:44:40.999Z</time>
      </trkpt>
      <trkpt lat="47.4771" lon="6.75502">
        <ele>361.9</ele>
        <time>2017-02-12T08:44:41.999Z</time>
      </trkpt>
      <trkpt lat="47.4771" lon="6.75493">
        <ele>361.6</ele>
        <time>2017-02-12T08:44:42.999Z</time>
      </trkpt>
      <trkpt lat="47.4771" lon="6.75483">
        <ele>361.2</ele>
        <time>2017-02-12T08:44:43.999Z</time>
      </trkpt>
      <trkpt lat="47.4771" lon="6.75473">
        <ele>361.1</ele>
        <time>2017-02-12T08:44:44.999Z</time>
      </trkpt>
      <trkpt lat="47.4771" lon="6.75462">
        <ele>360.7</ele>
        <time>2017-02-12T08:44:45.999Z</time>
      </trkpt>
      <trkpt lat="47.47711" lon="6.75453">
        <ele>359.9</ele>
        <time>2017-02-12T08:44:46.999Z</time>
      </trkpt>
      <trkpt lat="47.47711" lon="6.75443">
        <ele>359.2</ele>
        <time>2017-02-12T08:44:47.999Z</time>
      </trkpt>
      <trkpt lat="47.47712" lon="6.75434">
        <ele>358.8</ele>
        <time>2017-02-12T08:44:48.999Z</time>
      </trkpt>
      <trkpt lat="47.47713" lon="6.75425">
        <ele>358.2</ele>
        <time>2017-02-12T08:44:49.999Z</time>
      </trkpt>
      <trkpt lat="47.47714" lon="6.75414">
        <ele>357.8</ele>
        <time>2017-02-12T08:44:50.999Z</time>
      </trkpt>
      <trkpt lat="47.47715" lon="6.75404">
        <ele>357.7</ele>
        <time>2017-02-12T08:44:51.999Z</time>
      </trkpt>
      <trkpt lat="47.47716" lon="6.75393">
        <ele>357.4</ele>
        <time>2017-02-12T08:44:52.999Z</time>
      </trkpt>
      <trkpt lat="47.47717" lon="6.75385">
        <ele>357.4</ele>
        <time>2017-02-12T08:44:53.999Z</time>
      </trkpt>
      <trkpt lat="47.47718" lon="6.75375">
        <ele>357.1</ele>
        <time>2017-02-12T08:44:54.999Z</time>
      </trkpt>
      <trkpt lat="47.47718" lon="6.75365">
        <ele>356.6</ele>
        <time>2017-02-12T08:44:55.999Z</time>
      </trkpt>
      <trkpt lat="47.47719" lon="6.75355">
        <ele>356.2</ele>
        <time>2017-02-12T08:44:56.999Z</time>
      </trkpt>
      <trkpt lat="47.47719" lon="6.75344">
        <ele>355.9</ele>
        <time>2017-02-12T08:44:57.999Z</time>
      </trkpt>
      <trkpt lat="47.4772" lon="6.75333">
        <ele>355.6</ele>
        <time>2017-02-12T08:44:58.999Z</time>
      </trkpt>
      <trkpt lat="47.4772" lon="6.75324">
        <ele>355</ele>
        <time>2017-02-12T08:44:59.999Z</time>
      </trkpt>
      <trkpt lat="47.47721" lon="6.75313">
        <ele>355.3</ele>
        <time>2017-02-12T08:45:00.999Z</time>
      </trkpt>
      <trkpt lat="47.47722" lon="6.75303">
        <ele>355.5</ele>
        <time>2017-02-12T08:45:01.999Z</time>
      </trkpt>
      <trkpt lat="47.47722" lon="6.75293">
        <ele>355.6</ele>
        <time>2017-02-12T08:45:02.999Z</time>
      </trkpt>
      <trkpt lat="47.47723" lon="6.75284">
        <ele>355.5</ele>
        <time>2017-02-12T08:45:03.999Z</time>
      </trkpt>
      <trkpt lat="47.47723" lon="6.75275">
        <ele>355.5</ele>
        <time>2017-02-12T08:45:04.999Z</time>
      </trkpt>
      <trkpt lat="47.47723" lon="6.75265">
        <ele>355.2</ele>
        <time>2017-02-12T08:45:05.999Z</time>
      </trkpt>
      <trkpt lat="47.47723" lon="6.75255">
        <ele>355</ele>
        <time>2017-02-12T08:45:06.999Z</time>
      </trkpt>
      <trkpt lat="47.47723" lon="6.75246">
        <ele>354.8</ele>
        <time>2017-02-12T08:45:07.999Z</time>
      </trkpt>
      <trkpt lat="47.47723" lon="6.75236">
        <ele>354.8</ele>
        <time>2017-02-12T08:45:08.999Z</time>
      </trkpt>
      <trkpt lat="47.47723" lon="6.75226">
        <ele>354.8</ele>
        <time>2017-02-12T08:45:09.999Z</time>
      </trkpt>
      <trkpt lat="47.47723" lon="6.75217">
        <ele>355</ele>
        <time>2017-02-12T08:45:10.999Z</time>
      </trkpt>
      <trkpt lat="47.47723" lon="6.75208">
        <ele>355.1</ele>
        <time>2017-02-12T08:45:11.999Z</time>
      </trkpt>
      <trkpt lat="47.47722" lon="6.75199">
        <ele>355.3</ele>
        <time>2017-02-12T08:45:12.999Z</time>
      </trkpt>
      <trkpt lat="47.47723" lon="6.75189">
        <ele>355.4</ele>
        <time>2017-02-12T08:45:13.999Z</time>
      </trkpt>
      <trkpt lat="47.47722" lon="6.7518">
        <ele>355.4</ele>
        <time>2017-02-12T08:45:14.999Z</time>
      </trkpt>
      <trkpt lat="47.47722" lon="6.7517">
        <ele>355.4</ele>
        <time>2017-02-12T08:45:15.999Z</time>
      </trkpt>
      <trkpt lat="47.47723" lon="6.75161">
        <ele>355.6</ele>
        <time>2017-02-12T08:45:16.999Z</time>
      </trkpt>
      <trkpt lat="47.47722" lon="6.75151">
        <ele>355.8</ele>
        <time>2017-02-12T08:45:17.999Z</time>
      </trkpt>
      <trkpt lat="47.47722" lon="6.75142">
        <ele>356.1</ele>
        <time>2017-02-12T08:45:18.999Z</time>
      </trkpt>
      <trkpt lat="47.47722" lon="6.75132">
        <ele>356.2</ele>
        <time>2017-02-12T08:45:19.999Z</time>
      </trkpt>
      <trkpt lat="47.47722" lon="6.75122">
        <ele>356.1</ele>
        <time>2017-02-12T08:45:20.999Z</time>
      </trkpt>
      <trkpt lat="47.47722" lon="6.75113">
        <ele>356</ele>
        <time>2017-02-12T08:45:21.999Z</time>
      </trkpt>
      <trkpt lat="47.47722" lon="6.75103">
        <ele>355.9</ele>
        <time>2017-02-12T08:45:22.999Z</time>
      </trkpt>
      <trkpt lat="47.47723" lon="6.75093">
        <ele>355.8</ele>
        <time>2017-02-12T08:45:23.999Z</time>
      </trkpt>
      <trkpt lat="47.47723" lon="6.75082">
        <ele>355.7</ele>
        <time>2017-02-12T08:45:24.999Z</time>
      </trkpt>
      <trkpt lat="47.47724" lon="6.75072">
        <ele>355.8</ele>
        <time>2017-02-12T08:45:25.999Z</time>
      </trkpt>
      <trkpt lat="47.47724" lon="6.75062">
        <ele>356</ele>
        <time>2017-02-12T08:45:26.999Z</time>
      </trkpt>
      <trkpt lat="47.47724" lon="6.75052">
        <ele>356.2</ele>
        <time>2017-02-12T08:45:27.999Z</time>
      </trkpt>
      <trkpt lat="47.47725" lon="6.75043">
        <ele>356.3</ele>
        <time>2017-02-12T08:45:28.999Z</time>
      </trkpt>
      <trkpt lat="47.47725" lon="6.75033">
        <ele>356.6</ele>
        <time>2017-02-12T08:45:29.999Z</time>
      </trkpt>
      <trkpt lat="47.47726" lon="6.75024">
        <ele>356.5</ele>
        <time>2017-02-12T08:45:30.999Z</time>
      </trkpt>
      <trkpt lat="47.47726" lon="6.75014">
        <ele>356.8</ele>
        <time>2017-02-12T08:45:31.999Z</time>
      </trkpt>
      <trkpt lat="47.47726" lon="6.75005">
        <ele>356.8</ele>
        <time>2017-02-12T08:45:32.999Z</time>
      </trkpt>
      <trkpt lat="47.47726" lon="6.74995">
        <ele>356.7</ele>
        <time>2017-02-12T08:45:33.999Z</time>
      </trkpt>
      <trkpt lat="47.47726" lon="6.74986">
        <ele>356.5</ele>
        <time>2017-02-12T08:45:34.999Z</time>
      </trkpt>
      <trkpt lat="47.47727" lon="6.74976">
        <ele>356.2</ele>
        <time>2017-02-12T08:45:35.999Z</time>
      </trkpt>
      <trkpt lat="47.47727" lon="6.74968">
        <ele>355.8</ele>
        <time>2017-02-12T08:45:36.999Z</time>
      </trkpt>
      <trkpt lat="47.47727" lon="6.74958">
        <ele>355.9</ele>
        <time>2017-02-12T08:45:37.999Z</time>
      </trkpt>
      <trkpt lat="47.47727" lon="6.74948">
        <ele>355.9</ele>
        <time>2017-02-12T08:45:38.999Z</time>
      </trkpt>
      <trkpt lat="47.47727" lon="6.74939">
        <ele>356.4</ele>
        <time>2017-02-12T08:45:39.999Z</time>
      </trkpt>
      <trkpt lat="47.47728" lon="6.7493">
        <ele>356.3</ele>
        <time>2017-02-12T08:45:40.999Z</time>
      </trkpt>
      <trkpt lat="47.47728" lon="6.74921">
        <ele>356</ele>
        <time>2017-02-12T08:45:41.999Z</time>
      </trkpt>
      <trkpt lat="47.47728" lon="6.74912">
        <ele>356</ele>
        <time>2017-02-12T08:45:42.999Z</time>
      </trkpt>
      <trkpt lat="47.47728" lon="6.74903">
        <ele>356.2</ele>
        <time>2017-02-12T08:45:43.999Z</time>
      </trkpt>
      <trkpt lat="47.47729" lon="6.74894">
        <ele>356.3</ele>
        <time>2017-02-12T08:45:44.999Z</time>
      </trkpt>
      <trkpt lat="47.47729" lon="6.74884">
        <ele>356.6</ele>
        <time>2017-02-12T08:45:45.999Z</time>
      </trkpt>
      <trkpt lat="47.4773" lon="6.74875">
        <ele>357.1</ele>
        <time>2017-02-12T08:45:46.999Z</time>
      </trkpt>
      <trkpt lat="47.4773" lon="6.74865">
        <ele>357.4</ele>
        <time>2017-02-12T08:45:47.999Z</time>
      </trkpt>
      <trkpt lat="47.47731" lon="6.74855">
        <ele>357.4</ele>
        <time>2017-02-12T08:45:48.999Z</time>
      </trkpt>
      <trkpt lat="47.47731" lon="6.74845">
        <ele>357.5</ele>
        <time>2017-02-12T08:45:49.999Z</time>
      </trkpt>
      <trkpt lat="47.4773" lon="6.74837">
        <ele>357.4</ele>
        <time>2017-02-12T08:45:50.999Z</time>
      </trkpt>
      <trkpt lat="47.4773" lon="6.74828">
        <ele>357.4</ele>
        <time>2017-02-12T08:45:51.999Z</time>
      </trkpt>
      <trkpt lat="47.4773" lon="6.74818">
        <ele>357.7</ele>
        <time>2017-02-12T08:45:52.999Z</time>
      </trkpt>
      <trkpt lat="47.4773" lon="6.74809">
        <ele>358</ele>
        <time>2017-02-12T08:45:53.999Z</time>
      </trkpt>
      <trkpt lat="47.4773" lon="6.748">
        <ele>358.2</ele>
        <time>2017-02-12T08:45:54.999Z</time>
      </trkpt>
      <trkpt lat="47.47729" lon="6.74792">
        <ele>358.4</ele>
        <time>2017-02-12T08:45:55.999Z</time>
      </trkpt>
      <trkpt lat="47.47729" lon="6.74784">
        <ele>358.5</ele>
        <time>2017-02-12T08:45:56.999Z</time>
      </trkpt>
      <trkpt lat="47.47729" lon="6.74775">
        <ele>358.7</ele>
        <time>2017-02-12T08:45:57.999Z</time>
      </trkpt>
      <trkpt lat="47.4773" lon="6.74766">
        <ele>358.9</ele>
        <time>2017-02-12T08:45:58.999Z</time>
      </trkpt>
      <trkpt lat="47.4773" lon="6.74757">
        <ele>359.1</ele>
        <time>2017-02-12T08:45:59.999Z</time>
      </trkpt>
      <trkpt lat="47.4773" lon="6.74747">
        <ele>359.5</ele>
        <time>2017-02-12T08:46:00.999Z</time>
      </trkpt>
      <trkpt lat="47.4773" lon="6.74739">
        <ele>359.7</ele>
        <time>2017-02-12T08:46:01.999Z</time>
      </trkpt>
      <trkpt lat="47.47731" lon="6.7473">
        <ele>359.8</ele>
        <time>2017-02-12T08:46:02.999Z</time>
      </trkpt>
      <trkpt lat="47.47731" lon="6.74721">
        <ele>359.6</ele>
        <time>2017-02-12T08:46:03.999Z</time>
      </trkpt>
      <trkpt lat="47.47731" lon="6.74711">
        <ele>359.5</ele>
        <time>2017-02-12T08:46:04.999Z</time>
      </trkpt>
      <trkpt lat="47.47731" lon="6.74702">
        <ele>359.4</ele>
        <time>2017-02-12T08:46:05.999Z</time>
      </trkpt>
      <trkpt lat="47.47731" lon="6.74692">
        <ele>358.8</ele>
        <time>2017-02-12T08:46:06.999Z</time>
      </trkpt>
      <trkpt lat="47.47731" lon="6.74682">
        <ele>358.3</ele>
        <time>2017-02-12T08:46:07.999Z</time>
      </trkpt>
      <trkpt lat="47.47731" lon="6.74672">
        <ele>357.8</ele>
        <time>2017-02-12T08:46:08.999Z</time>
      </trkpt>
      <trkpt lat="47.47731" lon="6.74663">
        <ele>357.6</ele>
        <time>2017-02-12T08:46:09.999Z</time>
      </trkpt>
      <trkpt lat="47.47731" lon="6.74653">
        <ele>357.4</ele>
        <time>2017-02-12T08:46:10.999Z</time>
      </trkpt>
      <trkpt lat="47.47731" lon="6.74643">
        <ele>357.2</ele>
        <time>2017-02-12T08:46:11.999Z</time>
      </trkpt>
      <trkpt lat="47.47731" lon="6.74634">
        <ele>357</ele>
        <time>2017-02-12T08:46:12.999Z</time>
      </trkpt>
      <trkpt lat="47.47731" lon="6.74625">
        <ele>356.8</ele>
        <time>2017-02-12T08:46:13.999Z</time>
      </trkpt>
      <trkpt lat="47.47731" lon="6.74616">
        <ele>356.6</ele>
        <time>2017-02-12T08:46:14.999Z</time>
      </trkpt>
      <trkpt lat="47.47731" lon="6.74608">
        <ele>356</ele>
        <time>2017-02-12T08:46:15.999Z</time>
      </trkpt>
      <trkpt lat="47.4773" lon="6.74601">
        <ele>356.3</ele>
        <time>2017-02-12T08:46:16.999Z</time>
      </trkpt>
      <trkpt lat="47.4773" lon="6.74591">
        <ele>356.8</ele>
        <time>2017-02-12T08:46:17.999Z</time>
      </trkpt>
      <trkpt lat="47.4773" lon="6.74581">
        <ele>357.2</ele>
        <time>2017-02-12T08:46:18.999Z</time>
      </trkpt>
      <trkpt lat="47.47729" lon="6.74571">
        <ele>357.4</ele>
        <time>2017-02-12T08:46:19.999Z</time>
      </trkpt>
      <trkpt lat="47.47729" lon="6.74561">
        <ele>357.4</ele>
        <time>2017-02-12T08:46:20.999Z</time>
      </trkpt>
      <trkpt lat="47.47728" lon="6.74552">
        <ele>357.4</ele>
        <time>2017-02-12T08:46:21.999Z</time>
      </trkpt>
      <trkpt lat="47.47727" lon="6.74545">
        <ele>357.4</ele>
        <time>2017-02-12T08:46:22.999Z</time>
      </trkpt>
      <trkpt lat="47.47725" lon="6.74537">
        <ele>358.1</ele>
        <time>2017-02-12T08:46:23.999Z</time>
      </trkpt>
      <trkpt lat="47.47722" lon="6.74529">
        <ele>358.7</ele>
        <time>2017-02-12T08:46:24.999Z</time>
      </trkpt>
      <trkpt lat="47.4772" lon="6.7452">
        <ele>359.4</ele>
        <time>2017-02-12T08:46:25.999Z</time>
      </trkpt>
      <trkpt lat="47.47719" lon="6.74512">
        <ele>360</ele>
        <time>2017-02-12T08:46:26.999Z</time>
      </trkpt>
      <trkpt lat="47.47718" lon="6.74504">
        <ele>360.4</ele>
        <time>2017-02-12T08:46:27.999Z</time>
      </trkpt>
      <trkpt lat="47.47717" lon="6.74495">
        <ele>360.7</ele>
        <time>2017-02-12T08:46:28.999Z</time>
      </trkpt>
      <trkpt lat="47.47715" lon="6.74487">
        <ele>360.9</ele>
        <time>2017-02-12T08:46:29.999Z</time>
      </trkpt>
      <trkpt lat="47.47714" lon="6.74479">
        <ele>360.8</ele>
        <time>2017-02-12T08:46:30.999Z</time>
      </trkpt>
      <trkpt lat="47.47714" lon="6.7447">
        <ele>360.9</ele>
        <time>2017-02-12T08:46:31.999Z</time>
      </trkpt>
      <trkpt lat="47.47713" lon="6.74462">
        <ele>360.9</ele>
        <time>2017-02-12T08:46:32.999Z</time>
      </trkpt>
      <trkpt lat="47.47712" lon="6.74453">
        <ele>360.6</ele>
        <time>2017-02-12T08:46:33.999Z</time>
      </trkpt>
      <trkpt lat="47.47715" lon="6.74446">
        <ele>360.3</ele>
        <time>2017-02-12T08:46:34.999Z</time>
      </trkpt>
      <trkpt lat="47.47718" lon="6.7444">
        <ele>360.1</ele>
        <time>2017-02-12T08:46:35.999Z</time>
      </trkpt>
      <trkpt lat="47.47719" lon="6.74433">
        <ele>359.9</ele>
        <time>2017-02-12T08:46:36.999Z</time>
      </trkpt>
      <trkpt lat="47.47718" lon="6.74426">
        <ele>359.8</ele>
        <time>2017-02-12T08:46:37.999Z</time>
      </trkpt>
      <trkpt lat="47.47717" lon="6.74418">
        <ele>359.9</ele>
        <time>2017-02-12T08:46:38.999Z</time>
      </trkpt>
      <trkpt lat="47.47716" lon="6.7441">
        <ele>360.7</ele>
        <time>2017-02-12T08:46:39.999Z</time>
      </trkpt>
      <trkpt lat="47.47715" lon="6.74401">
        <ele>361.4</ele>
        <time>2017-02-12T08:46:40.999Z</time>
      </trkpt>
      <trkpt lat="47.47715" lon="6.74392">
        <ele>362</ele>
        <time>2017-02-12T08:46:41.999Z</time>
      </trkpt>
      <trkpt lat="47.47714" lon="6.74383">
        <ele>362.3</ele>
        <time>2017-02-12T08:46:42.999Z</time>
      </trkpt>
      <trkpt lat="47.47713" lon="6.74374">
        <ele>362.4</ele>
        <time>2017-02-12T08:46:43.999Z</time>
      </trkpt>
      <trkpt lat="47.47712" lon="6.74365">
        <ele>362.8</ele>
        <time>2017-02-12T08:46:44.999Z</time>
      </trkpt>
      <trkpt lat="47.47711" lon="6.74357">
        <ele>362.8</ele>
        <time>2017-02-12T08:46:45.999Z</time>
      </trkpt>
      <trkpt lat="47.4771" lon="6.74348">
        <ele>362.2</ele>
        <time>2017-02-12T08:46:46.999Z</time>
      </trkpt>
      <trkpt lat="47.4771" lon="6.7434">
        <ele>361.6</ele>
        <time>2017-02-12T08:46:47.999Z</time>
      </trkpt>
      <trkpt lat="47.47709" lon="6.74331">
        <ele>361.2</ele>
        <time>2017-02-12T08:46:48.999Z</time>
      </trkpt>
      <trkpt lat="47.47708" lon="6.74321">
        <ele>360.8</ele>
        <time>2017-02-12T08:46:49.999Z</time>
      </trkpt>
      <trkpt lat="47.47707" lon="6.74311">
        <ele>360.3</ele>
        <time>2017-02-12T08:46:50.999Z</time>
      </trkpt>
      <trkpt lat="47.47706" lon="6.74302">
        <ele>360</ele>
        <time>2017-02-12T08:46:51.999Z</time>
      </trkpt>
      <trkpt lat="47.47705" lon="6.74293">
        <ele>360.3</ele>
        <time>2017-02-12T08:46:52.999Z</time>
      </trkpt>
      <trkpt lat="47.47704" lon="6.74284">
        <ele>360.8</ele>
        <time>2017-02-12T08:46:53.999Z</time>
      </trkpt>
      <trkpt lat="47.47702" lon="6.74275">
        <ele>361.1</ele>
        <time>2017-02-12T08:46:54.999Z</time>
      </trkpt>
      <trkpt lat="47.47701" lon="6.74266">
        <ele>361.4</ele>
        <time>2017-02-12T08:46:55.999Z</time>
      </trkpt>
      <trkpt lat="47.47699" lon="6.74257">
        <ele>361.5</ele>
        <time>2017-02-12T08:46:56.999Z</time>
      </trkpt>
      <trkpt lat="47.47698" lon="6.74248">
        <ele>361.5</ele>
        <time>2017-02-12T08:46:57.999Z</time>
      </trkpt>
      <trkpt lat="47.47696" lon="6.74238">
        <ele>361.6</ele>
        <time>2017-02-12T08:46:58.999Z</time>
      </trkpt>
      <trkpt lat="47.47694" lon="6.74229">
        <ele>361.7</ele>
        <time>2017-02-12T08:46:59.999Z</time>
      </trkpt>
      <trkpt lat="47.47692" lon="6.74221">
        <ele>361.7</ele>
        <time>2017-02-12T08:47:00.999Z</time>
      </trkpt>
      <trkpt lat="47.47691" lon="6.74212">
        <ele>361.7</ele>
        <time>2017-02-12T08:47:01.999Z</time>
      </trkpt>
      <trkpt lat="47.47689" lon="6.74202">
        <ele>361.7</ele>
        <time>2017-02-12T08:47:02.999Z</time>
      </trkpt>
      <trkpt lat="47.47687" lon="6.74194">
        <ele>361.9</ele>
        <time>2017-02-12T08:47:03.999Z</time>
      </trkpt>
      <trkpt lat="47.47685" lon="6.74185">
        <ele>362</ele>
        <time>2017-02-12T08:47:04.999Z</time>
      </trkpt>
      <trkpt lat="47.47684" lon="6.74177">
        <ele>362.3</ele>
        <time>2017-02-12T08:47:05.999Z</time>
      </trkpt>
      <trkpt lat="47.47682" lon="6.74169">
        <ele>362.6</ele>
        <time>2017-02-12T08:47:06.999Z</time>
      </trkpt>
      <trkpt lat="47.47681" lon="6.74161">
        <ele>363</ele>
        <time>2017-02-12T08:47:07.999Z</time>
      </trkpt>
      <trkpt lat="47.47679" lon="6.74152">
        <ele>363.3</ele>
        <time>2017-02-12T08:47:08.999Z</time>
      </trkpt>
      <trkpt lat="47.47678" lon="6.74144">
        <ele>363.6</ele>
        <time>2017-02-12T08:47:09.999Z</time>
      </trkpt>
      <trkpt lat="47.47676" lon="6.74136">
        <ele>363.9</ele>
        <time>2017-02-12T08:47:10.999Z</time>
      </trkpt>
      <trkpt lat="47.47675" lon="6.74128">
        <ele>364.2</ele>
        <time>2017-02-12T08:47:11.999Z</time>
      </trkpt>
      <trkpt lat="47.47674" lon="6.74122">
        <ele>364.6</ele>
        <time>2017-02-12T08:47:12.999Z</time>
      </trkpt>
      <trkpt lat="47.47672" lon="6.74117">
        <ele>364.6</ele>
        <time>2017-02-12T08:47:13.999Z</time>
      </trkpt>
      <trkpt lat="47.47669" lon="6.74115">
        <ele>364.6</ele>
        <time>2017-02-12T08:47:14.999Z</time>
      </trkpt>
      <trkpt lat="47.47666" lon="6.74114">
        <ele>364.6</ele>
        <time>2017-02-12T08:47:15.999Z</time>
      </trkpt>
      <trkpt lat="47.47663" lon="6.74111">
        <ele>364.5</ele>
        <time>2017-02-12T08:47:16.999Z</time>
      </trkpt>
      <trkpt lat="47.4766" lon="6.74106">
        <ele>364.4</ele>
        <time>2017-02-12T08:47:17.999Z</time>
      </trkpt>
      <trkpt lat="47.47655" lon="6.74101">
        <ele>363.6</ele>
        <time>2017-02-12T08:47:18.999Z</time>
      </trkpt>
      <trkpt lat="47.47651" lon="6.74096">
        <ele>363.6</ele>
        <time>2017-02-12T08:47:19.999Z</time>
      </trkpt>
      <trkpt lat="47.47647" lon="6.74091">
        <ele>363.7</ele>
        <time>2017-02-12T08:47:20.999Z</time>
      </trkpt>
      <trkpt lat="47.47644" lon="6.74086">
        <ele>364</ele>
        <time>2017-02-12T08:47:21.999Z</time>
      </trkpt>
      <trkpt lat="47.47641" lon="6.7408">
        <ele>364.5</ele>
        <time>2017-02-12T08:47:22.999Z</time>
      </trkpt>
      <trkpt lat="47.47638" lon="6.74075">
        <ele>364.9</ele>
        <time>2017-02-12T08:47:23.999Z</time>
      </trkpt>
      <trkpt lat="47.47635" lon="6.74069">
        <ele>365.5</ele>
        <time>2017-02-12T08:47:24.999Z</time>
      </trkpt>
      <trkpt lat="47.47632" lon="6.74063">
        <ele>365.9</ele>
        <time>2017-02-12T08:47:25.999Z</time>
      </trkpt>
      <trkpt lat="47.47629" lon="6.74058">
        <ele>366.2</ele>
        <time>2017-02-12T08:47:26.999Z</time>
      </trkpt>
      <trkpt lat="47.47625" lon="6.74057">
        <ele>366.2</ele>
        <time>2017-02-12T08:47:27.999Z</time>
      </trkpt>
      <trkpt lat="47.4762" lon="6.74057">
        <ele>366</ele>
        <time>2017-02-12T08:47:28.999Z</time>
      </trkpt>
      <trkpt lat="47.47614" lon="6.74058">
        <ele>365.5</ele>
        <time>2017-02-12T08:47:29.999Z</time>
      </trkpt>
      <trkpt lat="47.47609" lon="6.74059">
        <ele>365.3</ele>
        <time>2017-02-12T08:47:30.999Z</time>
      </trkpt>
      <trkpt lat="47.47603" lon="6.7406">
        <ele>365.1</ele>
        <time>2017-02-12T08:47:31.999Z</time>
      </trkpt>
      <trkpt lat="47.47598" lon="6.74063">
        <ele>364.9</ele>
        <time>2017-02-12T08:47:32.999Z</time>
      </trkpt>
      <trkpt lat="47.47592" lon="6.74067">
        <ele>364.8</ele>
        <time>2017-02-12T08:47:33.999Z</time>
      </trkpt>
      <trkpt lat="47.47587" lon="6.74071">
        <ele>363.9</ele>
        <time>2017-02-12T08:47:34.999Z</time>
      </trkpt>
      <trkpt lat="47.47583" lon="6.74075">
        <ele>363</ele>
        <time>2017-02-12T08:47:35.999Z</time>
      </trkpt>
      <trkpt lat="47.47578" lon="6.7408">
        <ele>362.3</ele>
        <time>2017-02-12T08:47:36.999Z</time>
      </trkpt>
      <trkpt lat="47.47574" lon="6.74084">
        <ele>362</ele>
        <time>2017-02-12T08:47:37.999Z</time>
      </trkpt>
      <trkpt lat="47.47569" lon="6.74088">
        <ele>361.9</ele>
        <time>2017-02-12T08:47:38.999Z</time>
      </trkpt>
      <trkpt lat="47.47565" lon="6.74092">
        <ele>361.9</ele>
        <time>2017-02-12T08:47:39.999Z</time>
      </trkpt>
      <trkpt lat="47.4756" lon="6.74095">
        <ele>361.9</ele>
        <time>2017-02-12T08:47:40.999Z</time>
      </trkpt>
      <trkpt lat="47.47555" lon="6.74099">
        <ele>361.8</ele>
        <time>2017-02-12T08:47:41.999Z</time>
      </trkpt>
      <trkpt lat="47.47552" lon="6.74103">
        <ele>362.3</ele>
        <time>2017-02-12T08:47:42.999Z</time>
      </trkpt>
      <trkpt lat="47.47547" lon="6.74106">
        <ele>362.9</ele>
        <time>2017-02-12T08:47:43.999Z</time>
      </trkpt>
      <trkpt lat="47.47542" lon="6.7411">
        <ele>363.1</ele>
        <time>2017-02-12T08:47:44.999Z</time>
      </trkpt>
      <trkpt lat="47.47538" lon="6.74114">
        <ele>363.4</ele>
        <time>2017-02-12T08:47:45.999Z</time>
      </trkpt>
      <trkpt lat="47.47533" lon="6.74117">
        <ele>363.8</ele>
        <time>2017-02-12T08:47:46.999Z</time>
      </trkpt>
      <trkpt lat="47.47529" lon="6.74121">
        <ele>364.3</ele>
        <time>2017-02-12T08:47:47.999Z</time>
      </trkpt>
      <trkpt lat="47.47525" lon="6.74124">
        <ele>364.8</ele>
        <time>2017-02-12T08:47:48.999Z</time>
      </trkpt>
      <trkpt lat="47.47521" lon="6.74128">
        <ele>365.3</ele>
        <time>2017-02-12T08:47:49.999Z</time>
      </trkpt>
      <trkpt lat="47.47517" lon="6.74132">
        <ele>365.9</ele>
        <time>2017-02-12T08:47:50.999Z</time>
      </trkpt>
      <trkpt lat="47.47514" lon="6.74135">
        <ele>366.7</ele>
        <time>2017-02-12T08:47:51.999Z</time>
      </trkpt>
      <trkpt lat="47.4751" lon="6.74139">
        <ele>367.4</ele>
        <time>2017-02-12T08:47:52.999Z</time>
      </trkpt>
      <trkpt lat="47.47505" lon="6.74142">
        <ele>368</ele>
        <time>2017-02-12T08:47:53.999Z</time>
      </trkpt>
      <trkpt lat="47.47501" lon="6.74146">
        <ele>368.7</ele>
        <time>2017-02-12T08:47:54.999Z</time>
      </trkpt>
      <trkpt lat="47.47497" lon="6.74149">
        <ele>369.3</ele>
        <time>2017-02-12T08:47:55.999Z</time>
      </trkpt>
      <trkpt lat="47.47492" lon="6.74152">
        <ele>368.7</ele>
        <time>2017-02-12T08:47:56.999Z</time>
      </trkpt>
      <trkpt lat="47.47487" lon="6.74155">
        <ele>367.8</ele>
        <time>2017-02-12T08:47:57.999Z</time>
      </trkpt>
      <trkpt lat="47.47482" lon="6.74158">
        <ele>367.4</ele>
        <time>2017-02-12T08:47:58.999Z</time>
      </trkpt>
      <trkpt lat="47.47479" lon="6.74161">
        <ele>367.4</ele>
        <time>2017-02-12T08:47:59.999Z</time>
      </trkpt>
      <trkpt lat="47.47475" lon="6.74164">
        <ele>367.4</ele>
        <time>2017-02-12T08:48:00.999Z</time>
      </trkpt>
      <trkpt lat="47.47472" lon="6.74166">
        <ele>367.5</ele>
        <time>2017-02-12T08:48:01.999Z</time>
      </trkpt>
      <trkpt lat="47.47468" lon="6.74169">
        <ele>367.9</ele>
        <time>2017-02-12T08:48:02.999Z</time>
      </trkpt>
      <trkpt lat="47.47465" lon="6.74172">
        <ele>368.1</ele>
        <time>2017-02-12T08:48:03.999Z</time>
      </trkpt>
      <trkpt lat="47.47461" lon="6.74174">
        <ele>368.2</ele>
        <time>2017-02-12T08:48:04.999Z</time>
      </trkpt>
      <trkpt lat="47.47455" lon="6.74177">
        <ele>368.1</ele>
        <time>2017-02-12T08:48:05.999Z</time>
      </trkpt>
      <trkpt lat="47.4745" lon="6.7418">
        <ele>367.7</ele>
        <time>2017-02-12T08:48:06.999Z</time>
      </trkpt>
      <trkpt lat="47.47445" lon="6.74183">
        <ele>367.2</ele>
        <time>2017-02-12T08:48:07.999Z</time>
      </trkpt>
      <trkpt lat="47.47439" lon="6.74185">
        <ele>366.6</ele>
        <time>2017-02-12T08:48:08.999Z</time>
      </trkpt>
      <trkpt lat="47.47435" lon="6.74188">
        <ele>366.2</ele>
        <time>2017-02-12T08:48:09.999Z</time>
      </trkpt>
      <trkpt lat="47.4743" lon="6.7419">
        <ele>366</ele>
        <time>2017-02-12T08:48:10.999Z</time>
      </trkpt>
      <trkpt lat="47.47426" lon="6.74193">
        <ele>365.9</ele>
        <time>2017-02-12T08:48:11.999Z</time>
      </trkpt>
      <trkpt lat="47.47422" lon="6.74195">
        <ele>365.8</ele>
        <time>2017-02-12T08:48:12.999Z</time>
      </trkpt>
      <trkpt lat="47.47417" lon="6.74197">
        <ele>366.2</ele>
        <time>2017-02-12T08:48:13.999Z</time>
      </trkpt>
      <trkpt lat="47.47413" lon="6.74199">
        <ele>366.5</ele>
        <time>2017-02-12T08:48:14.999Z</time>
      </trkpt>
      <trkpt lat="47.47408" lon="6.74202">
        <ele>366.3</ele>
        <time>2017-02-12T08:48:15.999Z</time>
      </trkpt>
      <trkpt lat="47.47404" lon="6.74203">
        <ele>366</ele>
        <time>2017-02-12T08:48:16.999Z</time>
      </trkpt>
      <trkpt lat="47.47399" lon="6.74206">
        <ele>365.6</ele>
        <time>2017-02-12T08:48:17.999Z</time>
      </trkpt>
      <trkpt lat="47.47394" lon="6.74208">
        <ele>365.2</ele>
        <time>2017-02-12T08:48:18.999Z</time>
      </trkpt>
      <trkpt lat="47.4739" lon="6.7421">
        <ele>365</ele>
        <time>2017-02-12T08:48:19.999Z</time>
      </trkpt>
      <trkpt lat="47.47385" lon="6.74212">
        <ele>364.8</ele>
        <time>2017-02-12T08:48:20.999Z</time>
      </trkpt>
      <trkpt lat="47.47381" lon="6.74213">
        <ele>364.6</ele>
        <time>2017-02-12T08:48:21.999Z</time>
      </trkpt>
      <trkpt lat="47.47377" lon="6.74214">
        <ele>364.5</ele>
        <time>2017-02-12T08:48:22.999Z</time>
      </trkpt>
      <trkpt lat="47.47374" lon="6.74215">
        <ele>364.4</ele>
        <time>2017-02-12T08:48:23.999Z</time>
      </trkpt>
      <trkpt lat="47.4737" lon="6.74217">
        <ele>364.4</ele>
        <time>2017-02-12T08:48:24.999Z</time>
      </trkpt>
      <trkpt lat="47.47367" lon="6.7422">
        <ele>363.9</ele>
        <time>2017-02-12T08:48:25.999Z</time>
      </trkpt>
      <trkpt lat="47.47363" lon="6.74222">
        <ele>363.8</ele>
        <time>2017-02-12T08:48:26.999Z</time>
      </trkpt>
      <trkpt lat="47.4736" lon="6.74224">
        <ele>363.9</ele>
        <time>2017-02-12T08:48:27.999Z</time>
      </trkpt>
      <trkpt lat="47.47356" lon="6.74227">
        <ele>364.3</ele>
        <time>2017-02-12T08:48:28.999Z</time>
      </trkpt>
      <trkpt lat="47.47352" lon="6.74229">
        <ele>364.1</ele>
        <time>2017-02-12T08:48:29.999Z</time>
      </trkpt>
      <trkpt lat="47.47347" lon="6.74232">
        <ele>364.3</ele>
        <time>2017-02-12T08:48:30.999Z</time>
      </trkpt>
      <trkpt lat="47.47343" lon="6.74234">
        <ele>364.6</ele>
        <time>2017-02-12T08:48:31.999Z</time>
      </trkpt>
      <trkpt lat="47.47339" lon="6.74237">
        <ele>364.9</ele>
        <time>2017-02-12T08:48:32.999Z</time>
      </trkpt>
      <trkpt lat="47.47335" lon="6.74239">
        <ele>365.2</ele>
        <time>2017-02-12T08:48:33.999Z</time>
      </trkpt>
      <trkpt lat="47.47331" lon="6.74241">
        <ele>365.4</ele>
        <time>2017-02-12T08:48:34.999Z</time>
      </trkpt>
      <trkpt lat="47.47328" lon="6.74244">
        <ele>365.6</ele>
        <time>2017-02-12T08:48:35.999Z</time>
      </trkpt>
      <trkpt lat="47.47324" lon="6.74245">
        <ele>365.6</ele>
        <time>2017-02-12T08:48:36.999Z</time>
      </trkpt>
      <trkpt lat="47.47321" lon="6.74247">
        <ele>365.6</ele>
        <time>2017-02-12T08:48:37.999Z</time>
      </trkpt>
      <trkpt lat="47.47317" lon="6.74248">
        <ele>365.3</ele>
        <time>2017-02-12T08:48:38.999Z</time>
      </trkpt>
      <trkpt lat="47.47313" lon="6.74249">
        <ele>365.1</ele>
        <time>2017-02-12T08:48:39.999Z</time>
      </trkpt>
      <trkpt lat="47.4731" lon="6.7425">
        <ele>364.9</ele>
        <time>2017-02-12T08:48:40.999Z</time>
      </trkpt>
      <trkpt lat="47.47305" lon="6.74251">
        <ele>365.1</ele>
        <time>2017-02-12T08:48:41.999Z</time>
      </trkpt>
      <trkpt lat="47.47301" lon="6.74253">
        <ele>365.2</ele>
        <time>2017-02-12T08:48:42.999Z</time>
      </trkpt>
      <trkpt lat="47.47297" lon="6.74255">
        <ele>365.3</ele>
        <time>2017-02-12T08:48:43.999Z</time>
      </trkpt>
      <trkpt lat="47.47292" lon="6.74256">
        <ele>365.5</ele>
        <time>2017-02-12T08:48:44.999Z</time>
      </trkpt>
      <trkpt lat="47.47287" lon="6.74258">
        <ele>365.2</ele>
        <time>2017-02-12T08:48:45.999Z</time>
      </trkpt>
      <trkpt lat="47.47282" lon="6.74259">
        <ele>364.3</ele>
        <time>2017-02-12T08:48:46.999Z</time>
      </trkpt>
      <trkpt lat="47.47277" lon="6.74261">
        <ele>363.5</ele>
        <time>2017-02-12T08:48:47.999Z</time>
      </trkpt>
      <trkpt lat="47.47272" lon="6.74262">
        <ele>362.8</ele>
        <time>2017-02-12T08:48:48.999Z</time>
      </trkpt>
      <trkpt lat="47.47268" lon="6.74263">
        <ele>362.2</ele>
        <time>2017-02-12T08:48:49.999Z</time>
      </trkpt>
      <trkpt lat="47.47265" lon="6.74264">
        <ele>362.2</ele>
        <time>2017-02-12T08:48:50.999Z</time>
      </trkpt>
      <trkpt lat="47.47262" lon="6.74266">
        <ele>362.2</ele>
        <time>2017-02-12T08:48:51.999Z</time>
      </trkpt>
      <trkpt lat="47.47259" lon="6.74269">
        <ele>362.2</ele>
        <time>2017-02-12T08:48:52.999Z</time>
      </trkpt>
      <trkpt lat="47.47257" lon="6.74274">
        <ele>362.2</ele>
        <time>2017-02-12T08:48:53.999Z</time>
      </trkpt>
      <trkpt lat="47.47255" lon="6.74279">
        <ele>362.3</ele>
        <time>2017-02-12T08:48:54.999Z</time>
      </trkpt>
      <trkpt lat="47.47255" lon="6.74286">
        <ele>362.3</ele>
        <time>2017-02-12T08:48:55.999Z</time>
      </trkpt>
      <trkpt lat="47.47254" lon="6.74291">
        <ele>363</ele>
        <time>2017-02-12T08:48:56.999Z</time>
      </trkpt>
      <trkpt lat="47.47254" lon="6.74296">
        <ele>363</ele>
        <time>2017-02-12T08:48:57.999Z</time>
      </trkpt>
      <trkpt lat="47.47254" lon="6.74302">
        <ele>363.1</ele>
        <time>2017-02-12T08:48:58.999Z</time>
      </trkpt>
      <trkpt lat="47.47254" lon="6.74307">
        <ele>364.4</ele>
        <time>2017-02-12T08:48:59.999Z</time>
      </trkpt>
      <trkpt lat="47.47253" lon="6.74312">
        <ele>365.4</ele>
        <time>2017-02-12T08:49:00.999Z</time>
      </trkpt>
      <trkpt lat="47.47252" lon="6.74317">
        <ele>365.5</ele>
        <time>2017-02-12T08:49:01.999Z</time>
      </trkpt>
      <trkpt lat="47.47251" lon="6.74322">
        <ele>366.8</ele>
        <time>2017-02-12T08:49:02.999Z</time>
      </trkpt>
      <trkpt lat="47.47249" lon="6.74326">
        <ele>366.9</ele>
        <time>2017-02-12T08:49:03.999Z</time>
      </trkpt>
      <trkpt lat="47.47248" lon="6.74328">
        <ele>367.1</ele>
        <time>2017-02-12T08:49:04.999Z</time>
      </trkpt>
      <trkpt lat="47.47246" lon="6.74332">
        <ele>369.4</ele>
        <time>2017-02-12T08:49:05.999Z</time>
      </trkpt>
      <trkpt lat="47.47244" lon="6.74335">
        <ele>369.6</ele>
        <time>2017-02-12T08:49:06.999Z</time>
      </trkpt>
      <trkpt lat="47.47241" lon="6.74339">
        <ele>369.8</ele>
        <time>2017-02-12T08:49:07.999Z</time>
      </trkpt>
      <trkpt lat="47.47238" lon="6.74343">
        <ele>371.7</ele>
        <time>2017-02-12T08:49:08.999Z</time>
      </trkpt>
      <trkpt lat="47.47237" lon="6.74345">
        <ele>371.9</ele>
        <time>2017-02-12T08:49:09.999Z</time>
      </trkpt>
      <trkpt lat="47.47235" lon="6.74347">
        <ele>372.1</ele>
        <time>2017-02-12T08:49:10.999Z</time>
      </trkpt>
      <trkpt lat="47.47232" lon="6.7435">
        <ele>372.4</ele>
        <time>2017-02-12T08:49:11.999Z</time>
      </trkpt>
      <trkpt lat="47.47228" lon="6.74352">
        <ele>372.5</ele>
        <time>2017-02-12T08:49:12.999Z</time>
      </trkpt>
      <trkpt lat="47.47225" lon="6.74354">
        <ele>372.7</ele>
        <time>2017-02-12T08:49:13.999Z</time>
      </trkpt>
      <trkpt lat="47.47221" lon="6.74355">
        <ele>372.8</ele>
        <time>2017-02-12T08:49:14.999Z</time>
      </trkpt>
      <trkpt lat="47.47217" lon="6.74356">
        <ele>372.9</ele>
        <time>2017-02-12T08:49:15.999Z</time>
      </trkpt>
      <trkpt lat="47.47213" lon="6.74357">
        <ele>373</ele>
        <time>2017-02-12T08:49:16.999Z</time>
      </trkpt>
      <trkpt lat="47.47209" lon="6.74358">
        <ele>373.1</ele>
        <time>2017-02-12T08:49:17.999Z</time>
      </trkpt>
      <trkpt lat="47.47206" lon="6.74359">
        <ele>373</ele>
        <time>2017-02-12T08:49:18.999Z</time>
      </trkpt>
      <trkpt lat="47.47203" lon="6.74359">
        <ele>373</ele>
        <time>2017-02-12T08:49:19.999Z</time>
      </trkpt>
      <trkpt lat="47.472" lon="6.7436">
        <ele>373</ele>
        <time>2017-02-12T08:49:20.999Z</time>
      </trkpt>
      <trkpt lat="47.47196" lon="6.74361">
        <ele>372.9</ele>
        <time>2017-02-12T08:49:22.999Z</time>
      </trkpt>
      <trkpt lat="47.47193" lon="6.74362">
        <ele>372.8</ele>
        <time>2017-02-12T08:49:23.999Z</time>
      </trkpt>
      <trkpt lat="47.4719" lon="6.74363">
        <ele>372.7</ele>
        <time>2017-02-12T08:49:24.999Z</time>
      </trkpt>
      <trkpt lat="47.47187" lon="6.74364">
        <ele>372.6</ele>
        <time>2017-02-12T08:49:25.999Z</time>
      </trkpt>
      <trkpt lat="47.47186" lon="6.74364">
        <ele>372.6</ele>
        <time>2017-02-12T08:49:26.999Z</time>
      </trkpt>
      <trkpt lat="47.47183" lon="6.74366">
        <ele>372.5</ele>
        <time>2017-02-12T08:49:27.999Z</time>
      </trkpt>
      <trkpt lat="47.4718" lon="6.74366">
        <ele>372.5</ele>
        <time>2017-02-12T08:49:28.999Z</time>
      </trkpt>
      <trkpt lat="47.47178" lon="6.74366">
        <ele>372.5</ele>
        <time>2017-02-12T08:49:29.999Z</time>
      </trkpt>
      <trkpt lat="47.47174" lon="6.74367">
        <ele>372.5</ele>
        <time>2017-02-12T08:49:31.999Z</time>
      </trkpt>
      <trkpt lat="47.47171" lon="6.74367">
        <ele>372.5</ele>
        <time>2017-02-12T08:49:32.999Z</time>
      </trkpt>
      <trkpt lat="47.47167" lon="6.74366">
        <ele>372.5</ele>
        <time>2017-02-12T08:49:34.999Z</time>
      </trkpt>
      <trkpt lat="47.47163" lon="6.74366">
        <ele>372.5</ele>
        <time>2017-02-12T08:49:35.999Z</time>
      </trkpt>
      <trkpt lat="47.4716" lon="6.74366">
        <ele>372.5</ele>
        <time>2017-02-12T08:49:36.999Z</time>
      </trkpt>
      <trkpt lat="47.47157" lon="6.74367">
        <ele>372.5</ele>
        <time>2017-02-12T08:49:37.999Z</time>
      </trkpt>
      <trkpt lat="47.47155" lon="6.74366">
        <ele>372.4</ele>
        <time>2017-02-12T08:49:38.999Z</time>
      </trkpt>
      <trkpt lat="47.47152" lon="6.74366">
        <ele>372.4</ele>
        <time>2017-02-12T08:49:39.999Z</time>
      </trkpt>
      <trkpt lat="47.47149" lon="6.74365">
        <ele>372.3</ele>
        <time>2017-02-12T08:49:40.999Z</time>
      </trkpt>
      <trkpt lat="47.47146" lon="6.74365">
        <ele>372.3</ele>
        <time>2017-02-12T08:49:41.999Z</time>
      </trkpt>
      <trkpt lat="47.47143" lon="6.74366">
        <ele>372.2</ele>
        <time>2017-02-12T08:49:42.999Z</time>
      </trkpt>
      <trkpt lat="47.4714" lon="6.74366">
        <ele>372.2</ele>
        <time>2017-02-12T08:49:43.999Z</time>
      </trkpt>
      <trkpt lat="47.47136" lon="6.74368">
        <ele>372.1</ele>
        <time>2017-02-12T08:49:45.999Z</time>
      </trkpt>
      <trkpt lat="47.47134" lon="6.74369">
        <ele>372.1</ele>
        <time>2017-02-12T08:49:46.999Z</time>
      </trkpt>
      <trkpt lat="47.47131" lon="6.74371">
        <ele>372</ele>
        <time>2017-02-12T08:49:48.999Z</time>
      </trkpt>
      <trkpt lat="47.47128" lon="6.74371">
        <ele>372</ele>
        <time>2017-02-12T08:49:49.999Z</time>
      </trkpt>
      <trkpt lat="47.47124" lon="6.74372">
        <ele>372.1</ele>
        <time>2017-02-12T08:49:51.999Z</time>
      </trkpt>
      <trkpt lat="47.47122" lon="6.74372">
        <ele>372.1</ele>
        <time>2017-02-12T08:49:52.999Z</time>
      </trkpt>
      <trkpt lat="47.47117" lon="6.74373">
        <ele>372.3</ele>
        <time>2017-02-12T08:49:54.999Z</time>
      </trkpt>
      <trkpt lat="47.47116" lon="6.74373">
        <ele>372.3</ele>
        <time>2017-02-12T08:49:55.999Z</time>
      </trkpt>
      <trkpt lat="47.47113" lon="6.74373">
        <ele>372.3</ele>
        <time>2017-02-12T08:49:56.999Z</time>
      </trkpt>
      <trkpt lat="47.47111" lon="6.74373">
        <ele>372.3</ele>
        <time>2017-02-12T08:49:57.999Z</time>
      </trkpt>
      <trkpt lat="47.47107" lon="6.74375">
        <ele>372.4</ele>
        <time>2017-02-12T08:49:59.999Z</time>
      </trkpt>
      <trkpt lat="47.47105" lon="6.74376">
        <ele>372.5</ele>
        <time>2017-02-12T08:50:00.999Z</time>
      </trkpt>
      <trkpt lat="47.47101" lon="6.74377">
        <ele>372.7</ele>
        <time>2017-02-12T08:50:02.999Z</time>
      </trkpt>
      <trkpt lat="47.47099" lon="6.74378">
        <ele>372.7</ele>
        <time>2017-02-12T08:50:03.999Z</time>
      </trkpt>
      <trkpt lat="47.47095" lon="6.74378">
        <ele>372.9</ele>
        <time>2017-02-12T08:50:05.999Z</time>
      </trkpt>
      <trkpt lat="47.47093" lon="6.74378">
        <ele>373.1</ele>
        <time>2017-02-12T08:50:06.999Z</time>
      </trkpt>
      <trkpt lat="47.47091" lon="6.74379">
        <ele>373.2</ele>
        <time>2017-02-12T08:50:07.999Z</time>
      </trkpt>
      <trkpt lat="47.47089" lon="6.74381">
        <ele>373.4</ele>
        <time>2017-02-12T08:50:08.999Z</time>
      </trkpt>
      <trkpt lat="47.47085" lon="6.74383">
        <ele>373.7</ele>
        <time>2017-02-12T08:50:10.999Z</time>
      </trkpt>
      <trkpt lat="47.47083" lon="6.74384">
        <ele>373.8</ele>
        <time>2017-02-12T08:50:11.999Z</time>
      </trkpt>
      <trkpt lat="47.4708" lon="6.74386">
        <ele>374.4</ele>
        <time>2017-02-12T08:50:14.999Z</time>
      </trkpt>
      <trkpt lat="47.47078" lon="6.74388">
        <ele>374.6</ele>
        <time>2017-02-12T08:50:15.999Z</time>
      </trkpt>
      <trkpt lat="47.47075" lon="6.74389">
        <ele>375</ele>
        <time>2017-02-12T08:50:17.999Z</time>
      </trkpt>
      <trkpt lat="47.47074" lon="6.7439">
        <ele>375.2</ele>
        <time>2017-02-12T08:50:18.999Z</time>
      </trkpt>
      <trkpt lat="47.4707" lon="6.74392">
        <ele>375.8</ele>
        <time>2017-02-12T08:50:20.999Z</time>
      </trkpt>
      <trkpt lat="47.47068" lon="6.74393">
        <ele>376</ele>
        <time>2017-02-12T08:50:21.999Z</time>
      </trkpt>
      <trkpt lat="47.47064" lon="6.74395">
        <ele>376.5</ele>
        <time>2017-02-12T08:50:23.999Z</time>
      </trkpt>
      <trkpt lat="47.47062" lon="6.74396">
        <ele>376.7</ele>
        <time>2017-02-12T08:50:24.999Z</time>
      </trkpt>
      <trkpt lat="47.47059" lon="6.74398">
        <ele>377.3</ele>
        <time>2017-02-12T08:50:26.999Z</time>
      </trkpt>
      <trkpt lat="47.47058" lon="6.74399">
        <ele>377.5</ele>
        <time>2017-02-12T08:50:27.999Z</time>
      </trkpt>
      <trkpt lat="47.47055" lon="6.74402">
        <ele>378</ele>
        <time>2017-02-12T08:50:29.999Z</time>
      </trkpt>
      <trkpt lat="47.47053" lon="6.74404">
        <ele>378.2</ele>
        <time>2017-02-12T08:50:30.999Z</time>
      </trkpt>
      <trkpt lat="47.4705" lon="6.74406">
        <ele>378.4</ele>
        <time>2017-02-12T08:50:31.999Z</time>
      </trkpt>
      <trkpt lat="47.47048" lon="6.74407">
        <ele>378.6</ele>
        <time>2017-02-12T08:50:32.999Z</time>
      </trkpt>
      <trkpt lat="47.47046" lon="6.74409">
        <ele>379</ele>
        <time>2017-02-12T08:50:34.999Z</time>
      </trkpt>
      <trkpt lat="47.47043" lon="6.74411">
        <ele>379.1</ele>
        <time>2017-02-12T08:50:35.999Z</time>
      </trkpt>
      <trkpt lat="47.47041" lon="6.74412">
        <ele>379.4</ele>
        <time>2017-02-12T08:50:37.999Z</time>
      </trkpt>
      <trkpt lat="47.47039" lon="6.74414">
        <ele>379.5</ele>
        <time>2017-02-12T08:50:38.999Z</time>
      </trkpt>
      <trkpt lat="47.47036" lon="6.74418">
        <ele>380.1</ele>
        <time>2017-02-12T08:50:41.999Z</time>
      </trkpt>
      <trkpt lat="47.47035" lon="6.74419">
        <ele>380.3</ele>
        <time>2017-02-12T08:50:42.999Z</time>
      </trkpt>
      <trkpt lat="47.47033" lon="6.74422">
        <ele>380.7</ele>
        <time>2017-02-12T08:50:44.999Z</time>
      </trkpt>
      <trkpt lat="47.47031" lon="6.74424">
        <ele>381</ele>
        <time>2017-02-12T08:50:45.999Z</time>
      </trkpt>
      <trkpt lat="47.47029" lon="6.74428">
        <ele>381.8</ele>
        <time>2017-02-12T08:50:48.999Z</time>
      </trkpt>
      <trkpt lat="47.47028" lon="6.7443">
        <ele>381.9</ele>
        <time>2017-02-12T08:50:49.999Z</time>
      </trkpt>
      <trkpt lat="47.47025" lon="6.74433">
        <ele>382.7</ele>
        <time>2017-02-12T08:50:52.999Z</time>
      </trkpt>
      <trkpt lat="47.47023" lon="6.74435">
        <ele>382.9</ele>
        <time>2017-02-12T08:50:53.999Z</time>
      </trkpt>
      <trkpt lat="47.47021" lon="6.7444">
        <ele>383.5</ele>
        <time>2017-02-12T08:50:56.999Z</time>
      </trkpt>
      <trkpt lat="47.47019" lon="6.74442">
        <ele>383.7</ele>
        <time>2017-02-12T08:50:57.999Z</time>
      </trkpt>
      <trkpt lat="47.47017" lon="6.74447">
        <ele>384.1</ele>
        <time>2017-02-12T08:50:59.999Z</time>
      </trkpt>
      <trkpt lat="47.47016" lon="6.74448">
        <ele>384.3</ele>
        <time>2017-02-12T08:51:00.999Z</time>
      </trkpt>
      <trkpt lat="47.47014" lon="6.74453">
        <ele>385</ele>
        <time>2017-02-12T08:51:03.999Z</time>
      </trkpt>
      <trkpt lat="47.47013" lon="6.74455">
        <ele>385.4</ele>
        <time>2017-02-12T08:51:04.999Z</time>
      </trkpt>
      <trkpt lat="47.47012" lon="6.7446">
        <ele>386.3</ele>
        <time>2017-02-12T08:51:07.999Z</time>
      </trkpt>
      <trkpt lat="47.4701" lon="6.74462">
        <ele>386.6</ele>
        <time>2017-02-12T08:51:08.999Z</time>
      </trkpt>
      <trkpt lat="47.47008" lon="6.74466">
        <ele>387.4</ele>
        <time>2017-02-12T08:51:11.999Z</time>
      </trkpt>
      <trkpt lat="47.47006" lon="6.74468">
        <ele>387.7</ele>
        <time>2017-02-12T08:51:12.999Z</time>
      </trkpt>
      <trkpt lat="47.47005" lon="6.74473">
        <ele>388.3</ele>
        <time>2017-02-12T08:51:14.999Z</time>
      </trkpt>
      <trkpt lat="47.47003" lon="6.74475">
        <ele>388.6</ele>
        <time>2017-02-12T08:51:15.999Z</time>
      </trkpt>
      <trkpt lat="47.47" lon="6.74477">
        <ele>389.2</ele>
        <time>2017-02-12T08:51:17.999Z</time>
      </trkpt>
      <trkpt lat="47.46999" lon="6.74479">
        <ele>389.6</ele>
        <time>2017-02-12T08:51:18.999Z</time>
      </trkpt>
      <trkpt lat="47.46995" lon="6.74482">
        <ele>390.1</ele>
        <time>2017-02-12T08:51:20.999Z</time>
      </trkpt>
      <trkpt lat="47.46994" lon="6.74484">
        <ele>390.3</ele>
        <time>2017-02-12T08:51:21.999Z</time>
      </trkpt>
      <trkpt lat="47.46992" lon="6.74485">
        <ele>390.5</ele>
        <time>2017-02-12T08:51:22.999Z</time>
      </trkpt>
      <trkpt lat="47.4699" lon="6.74487">
        <ele>390.7</ele>
        <time>2017-02-12T08:51:23.999Z</time>
      </trkpt>
      <trkpt lat="47.46986" lon="6.7449">
        <ele>391.1</ele>
        <time>2017-02-12T08:51:25.999Z</time>
      </trkpt>
      <trkpt lat="47.46985" lon="6.74492">
        <ele>391.3</ele>
        <time>2017-02-12T08:51:26.999Z</time>
      </trkpt>
      <trkpt lat="47.46982" lon="6.74495">
        <ele>392</ele>
        <time>2017-02-12T08:51:29.999Z</time>
      </trkpt>
      <trkpt lat="47.4698" lon="6.74496">
        <ele>392.3</ele>
        <time>2017-02-12T08:51:30.999Z</time>
      </trkpt>
      <trkpt lat="47.46977" lon="6.74499">
        <ele>392.9</ele>
        <time>2017-02-12T08:51:33.999Z</time>
      </trkpt>
      <trkpt lat="47.46975" lon="6.745">
        <ele>393.1</ele>
        <time>2017-02-12T08:51:34.999Z</time>
      </trkpt>
      <trkpt lat="47.46971" lon="6.74502">
        <ele>393.5</ele>
        <time>2017-02-12T08:51:36.999Z</time>
      </trkpt>
      <trkpt lat="47.4697" lon="6.74502">
        <ele>393.7</ele>
        <time>2017-02-12T08:51:37.999Z</time>
      </trkpt>
      <trkpt lat="47.46966" lon="6.74505">
        <ele>394.3</ele>
        <time>2017-02-12T08:51:40.999Z</time>
      </trkpt>
      <trkpt lat="47.46965" lon="6.74506">
        <ele>394.5</ele>
        <time>2017-02-12T08:51:41.999Z</time>
      </trkpt>
      <trkpt lat="47.46962" lon="6.74508">
        <ele>395.2</ele>
        <time>2017-02-12T08:51:44.999Z</time>
      </trkpt>
      <trkpt lat="47.46961" lon="6.74508">
        <ele>395.4</ele>
        <time>2017-02-12T08:51:45.999Z</time>
      </trkpt>
      <trkpt lat="47.4696" lon="6.74509">
        <ele>397.2</ele>
        <time>2017-02-12T08:51:52.999Z</time>
      </trkpt>
      <trkpt lat="47.46952" lon="6.74515">
        <ele>397.6</ele>
        <time>2017-02-12T08:51:53.999Z</time>
      </trkpt>
      <trkpt lat="47.4695" lon="6.74518">
        <ele>397.9</ele>
        <time>2017-02-12T08:51:54.999Z</time>
      </trkpt>
      <trkpt lat="47.46948" lon="6.7452">
        <ele>398.2</ele>
        <time>2017-02-12T08:51:55.999Z</time>
      </trkpt>
      <trkpt lat="47.46945" lon="6.74522">
        <ele>398.5</ele>
        <time>2017-02-12T08:51:56.999Z</time>
      </trkpt>
      <trkpt lat="47.46943" lon="6.74524">
        <ele>398.9</ele>
        <time>2017-02-12T08:51:57.999Z</time>
      </trkpt>
      <trkpt lat="47.4694" lon="6.74527">
        <ele>399.5</ele>
        <time>2017-02-12T08:51:59.999Z</time>
      </trkpt>
      <trkpt lat="47.46938" lon="6.74527">
        <ele>399.8</ele>
        <time>2017-02-12T08:52:00.999Z</time>
      </trkpt>
      <trkpt lat="47.46935" lon="6.74527">
        <ele>400</ele>
        <time>2017-02-12T08:52:01.999Z</time>
      </trkpt>
      <trkpt lat="47.46932" lon="6.74527">
        <ele>400.2</ele>
        <time>2017-02-12T08:52:02.999Z</time>
      </trkpt>
      <trkpt lat="47.4693" lon="6.74525">
        <ele>400.4</ele>
        <time>2017-02-12T08:52:03.999Z</time>
      </trkpt>
      <trkpt lat="47.46928" lon="6.74523">
        <ele>400.4</ele>
        <time>2017-02-12T08:52:04.999Z</time>
      </trkpt>
      <trkpt lat="47.46926" lon="6.7452">
        <ele>400.5</ele>
        <time>2017-02-12T08:52:05.999Z</time>
      </trkpt>
      <trkpt lat="47.46925" lon="6.74517">
        <ele>400.6</ele>
        <time>2017-02-12T08:52:06.999Z</time>
      </trkpt>
      <trkpt lat="47.46923" lon="6.74514">
        <ele>400.6</ele>
        <time>2017-02-12T08:52:07.999Z</time>
      </trkpt>
      <trkpt lat="47.46921" lon="6.74512">
        <ele>400.7</ele>
        <time>2017-02-12T08:52:08.999Z</time>
      </trkpt>
      <trkpt lat="47.4692" lon="6.74509">
        <ele>400.8</ele>
        <time>2017-02-12T08:52:09.999Z</time>
      </trkpt>
      <trkpt lat="47.46919" lon="6.74506">
        <ele>400.9</ele>
        <time>2017-02-12T08:52:10.999Z</time>
      </trkpt>
      <trkpt lat="47.46917" lon="6.74503">
        <ele>401</ele>
        <time>2017-02-12T08:52:11.999Z</time>
      </trkpt>
      <trkpt lat="47.46916" lon="6.74499">
        <ele>401</ele>
        <time>2017-02-12T08:52:12.999Z</time>
      </trkpt>
      <trkpt lat="47.46915" lon="6.74497">
        <ele>401</ele>
        <time>2017-02-12T08:52:13.999Z</time>
      </trkpt>
      <trkpt lat="47.46914" lon="6.74494">
        <ele>401.1</ele>
        <time>2017-02-12T08:52:14.999Z</time>
      </trkpt>
      <trkpt lat="47.46912" lon="6.74491">
        <ele>401.1</ele>
        <time>2017-02-12T08:52:15.999Z</time>
      </trkpt>
      <trkpt lat="47.46911" lon="6.74488">
        <ele>401.2</ele>
        <time>2017-02-12T08:52:16.999Z</time>
      </trkpt>
      <trkpt lat="47.46909" lon="6.74485">
        <ele>401.2</ele>
        <time>2017-02-12T08:52:17.999Z</time>
      </trkpt>
      <trkpt lat="47.46908" lon="6.74482">
        <ele>401.2</ele>
        <time>2017-02-12T08:52:18.999Z</time>
      </trkpt>
      <trkpt lat="47.46907" lon="6.74477">
        <ele>401.3</ele>
        <time>2017-02-12T08:52:19.999Z</time>
      </trkpt>
      <trkpt lat="47.46907" lon="6.74474">
        <ele>401.3</ele>
        <time>2017-02-12T08:52:20.999Z</time>
      </trkpt>
      <trkpt lat="47.46906" lon="6.7447">
        <ele>401.4</ele>
        <time>2017-02-12T08:52:21.999Z</time>
      </trkpt>
      <trkpt lat="47.46905" lon="6.74467">
        <ele>401.4</ele>
        <time>2017-02-12T08:52:22.999Z</time>
      </trkpt>
      <trkpt lat="47.46904" lon="6.74462">
        <ele>401.5</ele>
        <time>2017-02-12T08:52:24.999Z</time>
      </trkpt>
      <trkpt lat="47.46903" lon="6.7446">
        <ele>401.5</ele>
        <time>2017-02-12T08:52:25.999Z</time>
      </trkpt>
      <trkpt lat="47.46902" lon="6.74457">
        <ele>401.6</ele>
        <time>2017-02-12T08:52:26.999Z</time>
      </trkpt>
      <trkpt lat="47.46902" lon="6.74453">
        <ele>401.7</ele>
        <time>2017-02-12T08:52:27.999Z</time>
      </trkpt>
      <trkpt lat="47.46901" lon="6.74447">
        <ele>401.8</ele>
        <time>2017-02-12T08:52:29.999Z</time>
      </trkpt>
      <trkpt lat="47.46901" lon="6.74445">
        <ele>401.9</ele>
        <time>2017-02-12T08:52:30.999Z</time>
      </trkpt>
      <trkpt lat="47.469" lon="6.7444">
        <ele>401.9</ele>
        <time>2017-02-12T08:52:33.999Z</time>
      </trkpt>
      <trkpt lat="47.46899" lon="6.74438">
        <ele>402</ele>
        <time>2017-02-12T08:52:34.999Z</time>
      </trkpt>
      <trkpt lat="47.46897" lon="6.74433">
        <ele>402</ele>
        <time>2017-02-12T08:52:36.999Z</time>
      </trkpt>
      <trkpt lat="47.46896" lon="6.74431">
        <ele>402.1</ele>
        <time>2017-02-12T08:52:37.999Z</time>
      </trkpt>
      <trkpt lat="47.46894" lon="6.74426">
        <ele>402.1</ele>
        <time>2017-02-12T08:52:39.999Z</time>
      </trkpt>
      <trkpt lat="47.46894" lon="6.74424">
        <ele>402.1</ele>
        <time>2017-02-12T08:52:40.999Z</time>
      </trkpt>
      <trkpt lat="47.46892" lon="6.74419">
        <ele>402.1</ele>
        <time>2017-02-12T08:52:43.999Z</time>
      </trkpt>
      <trkpt lat="47.46891" lon="6.74418">
        <ele>402.1</ele>
        <time>2017-02-12T08:52:44.999Z</time>
      </trkpt>
      <trkpt lat="47.4689" lon="6.74412">
        <ele>402.2</ele>
        <time>2017-02-12T08:52:46.999Z</time>
      </trkpt>
      <trkpt lat="47.4689" lon="6.74409">
        <ele>402.2</ele>
        <time>2017-02-12T08:52:47.999Z</time>
      </trkpt>
      <trkpt lat="47.4689" lon="6.74404">
        <ele>402.4</ele>
        <time>2017-02-12T08:52:50.999Z</time>
      </trkpt>
      <trkpt lat="47.46889" lon="6.74402">
        <ele>402.5</ele>
        <time>2017-02-12T08:52:51.999Z</time>
      </trkpt>
      <trkpt lat="47.46888" lon="6.74395">
        <ele>402.8</ele>
        <time>2017-02-12T08:52:54.999Z</time>
      </trkpt>
      <trkpt lat="47.46888" lon="6.74394">
        <ele>402.9</ele>
        <time>2017-02-12T08:52:55.999Z</time>
      </trkpt>
      <trkpt lat="47.46886" lon="6.74389">
        <ele>403.2</ele>
        <time>2017-02-12T08:52:57.999Z</time>
      </trkpt>
      <trkpt lat="47.46886" lon="6.74387">
        <ele>403.3</ele>
        <time>2017-02-12T08:52:58.999Z</time>
      </trkpt>
      <trkpt lat="47.46886" lon="6.74382">
        <ele>403.6</ele>
        <time>2017-02-12T08:53:00.999Z</time>
      </trkpt>
      <trkpt lat="47.46885" lon="6.7438">
        <ele>403.7</ele>
        <time>2017-02-12T08:53:01.999Z</time>
      </trkpt>
      <trkpt lat="47.46884" lon="6.74375">
        <ele>404.6</ele>
        <time>2017-02-12T08:53:06.999Z</time>
      </trkpt>
      <trkpt lat="47.46884" lon="6.74373">
        <ele>404.7</ele>
        <time>2017-02-12T08:53:07.999Z</time>
      </trkpt>
      <trkpt lat="47.46884" lon="6.74367">
        <ele>405.4</ele>
        <time>2017-02-12T08:53:10.999Z</time>
      </trkpt>
      <trkpt lat="47.46884" lon="6.74365">
        <ele>405.6</ele>
        <time>2017-02-12T08:53:11.999Z</time>
      </trkpt>
      <trkpt lat="47.46885" lon="6.74358">
        <ele>406.6</ele>
        <time>2017-02-12T08:53:15.999Z</time>
      </trkpt>
      <trkpt lat="47.46885" lon="6.74354">
        <ele>406.9</ele>
        <time>2017-02-12T08:53:16.999Z</time>
      </trkpt>
      <trkpt lat="47.46885" lon="6.74348">
        <ele>407.5</ele>
        <time>2017-02-12T08:53:18.999Z</time>
      </trkpt>
      <trkpt lat="47.46885" lon="6.74345">
        <ele>407.8</ele>
        <time>2017-02-12T08:53:19.999Z</time>
      </trkpt>
      <trkpt lat="47.46887" lon="6.7434">
        <ele>408.9</ele>
        <time>2017-02-12T08:53:22.999Z</time>
      </trkpt>
      <trkpt lat="47.46887" lon="6.74337">
        <ele>409.3</ele>
        <time>2017-02-12T08:53:23.999Z</time>
      </trkpt>
      <trkpt lat="47.46888" lon="6.74331">
        <ele>410.5</ele>
        <time>2017-02-12T08:53:27.999Z</time>
      </trkpt>
      <trkpt lat="47.46888" lon="6.74329">
        <ele>410.7</ele>
        <time>2017-02-12T08:53:28.999Z</time>
      </trkpt>
      <trkpt lat="47.4689" lon="6.74323">
        <ele>412</ele>
        <time>2017-02-12T08:53:34.999Z</time>
      </trkpt>
      <trkpt lat="47.4689" lon="6.74322">
        <ele>412.3</ele>
        <time>2017-02-12T08:53:35.999Z</time>
      </trkpt>
      <trkpt lat="47.46892" lon="6.74316">
        <ele>413.2</ele>
        <time>2017-02-12T08:53:38.999Z</time>
      </trkpt>
      <trkpt lat="47.46892" lon="6.74315">
        <ele>413.6</ele>
        <time>2017-02-12T08:53:39.999Z</time>
      </trkpt>
      <trkpt lat="47.46894" lon="6.7431">
        <ele>414.4</ele>
        <time>2017-02-12T08:53:41.999Z</time>
      </trkpt>
      <trkpt lat="47.46895" lon="6.74307">
        <ele>414.9</ele>
        <time>2017-02-12T08:53:42.999Z</time>
      </trkpt>
      <trkpt lat="47.46895" lon="6.74304">
        <ele>415.3</ele>
        <time>2017-02-12T08:53:43.999Z</time>
      </trkpt>
      <trkpt lat="47.46896" lon="6.743">
        <ele>415.7</ele>
        <time>2017-02-12T08:53:44.999Z</time>
      </trkpt>
      <trkpt lat="47.46896" lon="6.74296">
        <ele>416.1</ele>
        <time>2017-02-12T08:53:45.999Z</time>
      </trkpt>
      <trkpt lat="47.46897" lon="6.74293">
        <ele>416.5</ele>
        <time>2017-02-12T08:53:46.999Z</time>
      </trkpt>
      <trkpt lat="47.46897" lon="6.74287">
        <ele>417.4</ele>
        <time>2017-02-12T08:53:48.999Z</time>
      </trkpt>
      <trkpt lat="47.46898" lon="6.74285">
        <ele>417.9</ele>
        <time>2017-02-12T08:53:49.999Z</time>
      </trkpt>
      <trkpt lat="47.46898" lon="6.74279">
        <ele>418.6</ele>
        <time>2017-02-12T08:53:51.999Z</time>
      </trkpt>
      <trkpt lat="47.46898" lon="6.74277">
        <ele>419</ele>
        <time>2017-02-12T08:53:52.999Z</time>
      </trkpt>
      <trkpt lat="47.46898" lon="6.7427">
        <ele>420.6</ele>
        <time>2017-02-12T08:53:57.999Z</time>
      </trkpt>
      <trkpt lat="47.46898" lon="6.74269">
        <ele>421</ele>
        <time>2017-02-12T08:53:58.999Z</time>
      </trkpt>
      <trkpt lat="47.46896" lon="6.74263">
        <ele>422.3</ele>
        <time>2017-02-12T08:54:01.999Z</time>
      </trkpt>
      <trkpt lat="47.46897" lon="6.74259">
        <ele>422.7</ele>
        <time>2017-02-12T08:54:02.999Z</time>
      </trkpt>
      <trkpt lat="47.46895" lon="6.74253">
        <ele>423.9</ele>
        <time>2017-02-12T08:54:06.999Z</time>
      </trkpt>
      <trkpt lat="47.46894" lon="6.74249">
        <ele>424.3</ele>
        <time>2017-02-12T08:54:07.999Z</time>
      </trkpt>
      <trkpt lat="47.46894" lon="6.74242">
        <ele>425.4</ele>
        <time>2017-02-12T08:54:10.999Z</time>
      </trkpt>
      <trkpt lat="47.46895" lon="6.7424">
        <ele>425.7</ele>
        <time>2017-02-12T08:54:11.999Z</time>
      </trkpt>
      <trkpt lat="47.46895" lon="6.74234">
        <ele>427.8</ele>
        <time>2017-02-12T08:54:16.999Z</time>
      </trkpt>
      <trkpt lat="47.46895" lon="6.74232">
        <ele>428.2</ele>
        <time>2017-02-12T08:54:17.999Z</time>
      </trkpt>
      <trkpt lat="47.46896" lon="6.74227">
        <ele>429.4</ele>
        <time>2017-02-12T08:54:20.999Z</time>
      </trkpt>
      <trkpt lat="47.46897" lon="6.74225">
        <ele>429.8</ele>
        <time>2017-02-12T08:54:21.999Z</time>
      </trkpt>
      <trkpt lat="47.46896" lon="6.7422">
        <ele>430.9</ele>
        <time>2017-02-12T08:54:24.999Z</time>
      </trkpt>
      <trkpt lat="47.46897" lon="6.74218">
        <ele>431.1</ele>
        <time>2017-02-12T08:54:25.999Z</time>
      </trkpt>
      <trkpt lat="47.46897" lon="6.74213">
        <ele>431.9</ele>
        <time>2017-02-12T08:54:27.999Z</time>
      </trkpt>
      <trkpt lat="47.46897" lon="6.74211">
        <ele>432.4</ele>
        <time>2017-02-12T08:54:28.999Z</time>
      </trkpt>
      <trkpt lat="47.46897" lon="6.74205">
        <ele>433.8</ele>
        <time>2017-02-12T08:54:31.999Z</time>
      </trkpt>
      <trkpt lat="47.46898" lon="6.74199">
        <ele>434.3</ele>
        <time>2017-02-12T08:54:32.999Z</time>
      </trkpt>
      <trkpt lat="47.46898" lon="6.74196">
        <ele>434.7</ele>
        <time>2017-02-12T08:54:33.999Z</time>
      </trkpt>
      <trkpt lat="47.46897" lon="6.74191">
        <ele>435.1</ele>
        <time>2017-02-12T08:54:34.999Z</time>
      </trkpt>
      <trkpt lat="47.46896" lon="6.74186">
        <ele>435.5</ele>
        <time>2017-02-12T08:54:35.999Z</time>
      </trkpt>
      <trkpt lat="47.46896" lon="6.74183">
        <ele>435.9</ele>
        <time>2017-02-12T08:54:36.999Z</time>
      </trkpt>
      <trkpt lat="47.46896" lon="6.74179">
        <ele>436.5</ele>
        <time>2017-02-12T08:54:38.999Z</time>
      </trkpt>
      <trkpt lat="47.46896" lon="6.74175">
        <ele>436.8</ele>
        <time>2017-02-12T08:54:39.999Z</time>
      </trkpt>
      <trkpt lat="47.46896" lon="6.74171">
        <ele>437.3</ele>
        <time>2017-02-12T08:54:41.999Z</time>
      </trkpt>
      <trkpt lat="47.46896" lon="6.74168">
        <ele>437.6</ele>
        <time>2017-02-12T08:54:42.999Z</time>
      </trkpt>
      <trkpt lat="47.46897" lon="6.74163">
        <ele>438.1</ele>
        <time>2017-02-12T08:54:44.999Z</time>
      </trkpt>
      <trkpt lat="47.46896" lon="6.7416">
        <ele>438.4</ele>
        <time>2017-02-12T08:54:45.999Z</time>
      </trkpt>
      <trkpt lat="47.46895" lon="6.74154">
        <ele>438.9</ele>
        <time>2017-02-12T08:54:47.999Z</time>
      </trkpt>
      <trkpt lat="47.46894" lon="6.74151">
        <ele>439.2</ele>
        <time>2017-02-12T08:54:48.999Z</time>
      </trkpt>
      <trkpt lat="47.46895" lon="6.74146">
        <ele>439.7</ele>
        <time>2017-02-12T08:54:50.999Z</time>
      </trkpt>
      <trkpt lat="47.46895" lon="6.74144">
        <ele>440</ele>
        <time>2017-02-12T08:54:51.999Z</time>
      </trkpt>
      <trkpt lat="47.46894" lon="6.7414">
        <ele>440.9</ele>
        <time>2017-02-12T08:54:54.999Z</time>
      </trkpt>
      <trkpt lat="47.46893" lon="6.74137">
        <ele>441.2</ele>
        <time>2017-02-12T08:54:55.999Z</time>
      </trkpt>
      <trkpt lat="47.46892" lon="6.74131">
        <ele>442.3</ele>
        <time>2017-02-12T08:54:59.999Z</time>
      </trkpt>
      <trkpt lat="47.46891" lon="6.7413">
        <ele>442.5</ele>
        <time>2017-02-12T08:55:00.999Z</time>
      </trkpt>
      <trkpt lat="47.46889" lon="6.74124">
        <ele>442.9</ele>
        <time>2017-02-12T08:55:02.999Z</time>
      </trkpt>
      <trkpt lat="47.46888" lon="6.74119">
        <ele>443.1</ele>
        <time>2017-02-12T08:55:03.999Z</time>
      </trkpt>
      <trkpt lat="47.46888" lon="6.74113">
        <ele>443.7</ele>
        <time>2017-02-12T08:55:05.999Z</time>
      </trkpt>
      <trkpt lat="47.46888" lon="6.74111">
        <ele>443.9</ele>
        <time>2017-02-12T08:55:06.999Z</time>
      </trkpt>
      <trkpt lat="47.46888" lon="6.74105">
        <ele>445.3</ele>
        <time>2017-02-12T08:55:10.999Z</time>
      </trkpt>
      <trkpt lat="47.46888" lon="6.74104">
        <ele>445.6</ele>
        <time>2017-02-12T08:55:11.999Z</time>
      </trkpt>
      <trkpt lat="47.46887" lon="6.741">
        <ele>446.5</ele>
        <time>2017-02-12T08:55:14.999Z</time>
      </trkpt>
      <trkpt lat="47.46886" lon="6.74096">
        <ele>446.8</ele>
        <time>2017-02-12T08:55:15.999Z</time>
      </trkpt>
      <trkpt lat="47.46886" lon="6.7409">
        <ele>447.3</ele>
        <time>2017-02-12T08:55:17.999Z</time>
      </trkpt>
      <trkpt lat="47.46885" lon="6.74089">
        <ele>447.6</ele>
        <time>2017-02-12T08:55:18.999Z</time>
      </trkpt>
      <trkpt lat="47.46884" lon="6.74083">
        <ele>448.4</ele>
        <time>2017-02-12T08:55:21.999Z</time>
      </trkpt>
      <trkpt lat="47.46884" lon="6.7408">
        <ele>448.5</ele>
        <time>2017-02-12T08:55:22.999Z</time>
      </trkpt>
      <trkpt lat="47.46882" lon="6.74075">
        <ele>448.7</ele>
        <time>2017-02-12T08:55:23.999Z</time>
      </trkpt>
      <trkpt lat="47.46881" lon="6.74073">
        <ele>448.9</ele>
        <time>2017-02-12T08:55:24.999Z</time>
      </trkpt>
      <trkpt lat="47.46881" lon="6.7407">
        <ele>449.2</ele>
        <time>2017-02-12T08:55:26.999Z</time>
      </trkpt>
      <trkpt lat="47.46881" lon="6.74066">
        <ele>449.3</ele>
        <time>2017-02-12T08:55:27.999Z</time>
      </trkpt>
      <trkpt lat="47.46881" lon="6.74061">
        <ele>449.6</ele>
        <time>2017-02-12T08:55:29.999Z</time>
      </trkpt>
      <trkpt lat="47.46881" lon="6.74058">
        <ele>449.7</ele>
        <time>2017-02-12T08:55:30.999Z</time>
      </trkpt>
      <trkpt lat="47.4688" lon="6.74053">
        <ele>450.3</ele>
        <time>2017-02-12T08:55:32.999Z</time>
      </trkpt>
      <trkpt lat="47.4688" lon="6.74049">
        <ele>450.4</ele>
        <time>2017-02-12T08:55:33.999Z</time>
      </trkpt>
      <trkpt lat="47.4688" lon="6.74044">
        <ele>450.4</ele>
        <time>2017-02-12T08:55:36.999Z</time>
      </trkpt>
      <trkpt lat="47.4688" lon="6.74041">
        <ele>450.4</ele>
        <time>2017-02-12T08:55:37.999Z</time>
      </trkpt>
      <trkpt lat="47.46879" lon="6.74037">
        <ele>450.5</ele>
        <time>2017-02-12T08:55:38.999Z</time>
      </trkpt>
      <trkpt lat="47.46879" lon="6.74035">
        <ele>450.6</ele>
        <time>2017-02-12T08:55:39.999Z</time>
      </trkpt>
      <trkpt lat="47.46878" lon="6.7403">
        <ele>450.7</ele>
        <time>2017-02-12T08:55:40.999Z</time>
      </trkpt>
      <trkpt lat="47.46878" lon="6.74027">
        <ele>450.8</ele>
        <time>2017-02-12T08:55:41.999Z</time>
      </trkpt>
      <trkpt lat="47.46876" lon="6.74021">
        <ele>451.5</ele>
        <time>2017-02-12T08:55:47.999Z</time>
      </trkpt>
      <trkpt lat="47.46875" lon="6.7402">
        <ele>451.6</ele>
        <time>2017-02-12T08:55:48.999Z</time>
      </trkpt>
      <trkpt lat="47.46875" lon="6.74015">
        <ele>451.8</ele>
        <time>2017-02-12T08:55:49.999Z</time>
      </trkpt>
      <trkpt lat="47.46874" lon="6.74014">
        <ele>451.9</ele>
        <time>2017-02-12T08:55:50.999Z</time>
      </trkpt>
      <trkpt lat="47.46873" lon="6.74009">
        <ele>452.3</ele>
        <time>2017-02-12T08:55:52.999Z</time>
      </trkpt>
      <trkpt lat="47.46871" lon="6.74005">
        <ele>452.5</ele>
        <time>2017-02-12T08:55:53.999Z</time>
      </trkpt>
      <trkpt lat="47.4687" lon="6.73999">
        <ele>453.2</ele>
        <time>2017-02-12T08:55:56.999Z</time>
      </trkpt>
      <trkpt lat="47.46869" lon="6.73999">
        <ele>453.4</ele>
        <time>2017-02-12T08:55:57.999Z</time>
      </trkpt>
      <trkpt lat="47.46868" lon="6.73996">
        <ele>453.6</ele>
        <time>2017-02-12T08:55:58.999Z</time>
      </trkpt>
      <trkpt lat="47.46866" lon="6.73992">
        <ele>453.7</ele>
        <time>2017-02-12T08:55:59.999Z</time>
      </trkpt>
      <trkpt lat="47.46865" lon="6.73987">
        <ele>454</ele>
        <time>2017-02-12T08:56:01.999Z</time>
      </trkpt>
      <trkpt lat="47.46864" lon="6.73983">
        <ele>454.1</ele>
        <time>2017-02-12T08:56:02.999Z</time>
      </trkpt>
      <trkpt lat="47.46863" lon="6.73979">
        <ele>454.2</ele>
        <time>2017-02-12T08:56:03.999Z</time>
      </trkpt>
      <trkpt lat="47.46862" lon="6.73976">
        <ele>454.2</ele>
        <time>2017-02-12T08:56:04.999Z</time>
      </trkpt>
      <trkpt lat="47.46861" lon="6.73971">
        <ele>454.3</ele>
        <time>2017-02-12T08:56:06.999Z</time>
      </trkpt>
      <trkpt lat="47.46861" lon="6.73969">
        <ele>454.5</ele>
        <time>2017-02-12T08:56:07.999Z</time>
      </trkpt>
      <trkpt lat="47.4686" lon="6.73963">
        <ele>455</ele>
        <time>2017-02-12T08:56:10.999Z</time>
      </trkpt>
      <trkpt lat="47.46859" lon="6.73961">
        <ele>455.1</ele>
        <time>2017-02-12T08:56:11.999Z</time>
      </trkpt>
      <trkpt lat="47.46858" lon="6.73956">
        <ele>455.5</ele>
        <time>2017-02-12T08:56:13.999Z</time>
      </trkpt>
      <trkpt lat="47.46857" lon="6.73955">
        <ele>455.6</ele>
        <time>2017-02-12T08:56:14.999Z</time>
      </trkpt>
      <trkpt lat="47.46856" lon="6.7395">
        <ele>455.8</ele>
        <time>2017-02-12T08:56:16.999Z</time>
      </trkpt>
      <trkpt lat="47.46856" lon="6.73948">
        <ele>455.9</ele>
        <time>2017-02-12T08:56:17.999Z</time>
      </trkpt>
      <trkpt lat="47.46854" lon="6.73943">
        <ele>456.6</ele>
        <time>2017-02-12T08:56:20.999Z</time>
      </trkpt>
      <trkpt lat="47.46853" lon="6.7394">
        <ele>456.7</ele>
        <time>2017-02-12T08:56:21.999Z</time>
      </trkpt>
      <trkpt lat="47.46851" lon="6.73937">
        <ele>456.9</ele>
        <time>2017-02-12T08:56:22.999Z</time>
      </trkpt>
      <trkpt lat="47.46851" lon="6.73933">
        <ele>457</ele>
        <time>2017-02-12T08:56:23.999Z</time>
      </trkpt>
      <trkpt lat="47.4685" lon="6.73929">
        <ele>457.2</ele>
        <time>2017-02-12T08:56:25.999Z</time>
      </trkpt>
      <trkpt lat="47.4685" lon="6.73927">
        <ele>457.3</ele>
        <time>2017-02-12T08:56:26.999Z</time>
      </trkpt>
      <trkpt lat="47.46848" lon="6.73921">
        <ele>457.5</ele>
        <time>2017-02-12T08:56:28.999Z</time>
      </trkpt>
      <trkpt lat="47.46848" lon="6.7392">
        <ele>457.6</ele>
        <time>2017-02-12T08:56:29.999Z</time>
      </trkpt>
      <trkpt lat="47.46847" lon="6.73914">
        <ele>457.8</ele>
        <time>2017-02-12T08:56:31.999Z</time>
      </trkpt>
      <trkpt lat="47.46847" lon="6.73912">
        <ele>458.1</ele>
        <time>2017-02-12T08:56:32.999Z</time>
      </trkpt>
      <trkpt lat="47.46846" lon="6.73907">
        <ele>458.5</ele>
        <time>2017-02-12T08:56:35.999Z</time>
      </trkpt>
      <trkpt lat="47.46846" lon="6.73905">
        <ele>458.7</ele>
        <time>2017-02-12T08:56:36.999Z</time>
      </trkpt>
      <trkpt lat="47.46844" lon="6.739">
        <ele>458.8</ele>
        <time>2017-02-12T08:56:38.999Z</time>
      </trkpt>
      <trkpt lat="47.46842" lon="6.73897">
        <ele>459</ele>
        <time>2017-02-12T08:56:39.999Z</time>
      </trkpt>
      <trkpt lat="47.46841" lon="6.73892">
        <ele>459.4</ele>
        <time>2017-02-12T08:56:42.999Z</time>
      </trkpt>
      <trkpt lat="47.4684" lon="6.7389">
        <ele>459.4</ele>
        <time>2017-02-12T08:56:43.999Z</time>
      </trkpt>
      <trkpt lat="47.46839" lon="6.73884">
        <ele>459.5</ele>
        <time>2017-02-12T08:56:45.999Z</time>
      </trkpt>
      <trkpt lat="47.46838" lon="6.73881">
        <ele>459.6</ele>
        <time>2017-02-12T08:56:46.999Z</time>
      </trkpt>
      <trkpt lat="47.46838" lon="6.73878">
        <ele>459.9</ele>
        <time>2017-02-12T08:56:49.999Z</time>
      </trkpt>
      <trkpt lat="47.46837" lon="6.73874">
        <ele>460.1</ele>
        <time>2017-02-12T08:56:50.999Z</time>
      </trkpt>
      <trkpt lat="47.46836" lon="6.73869">
        <ele>460.3</ele>
        <time>2017-02-12T08:56:52.999Z</time>
      </trkpt>
      <trkpt lat="47.46836" lon="6.73867">
        <ele>460.4</ele>
        <time>2017-02-12T08:56:53.999Z</time>
      </trkpt>
      <trkpt lat="47.46834" lon="6.73862">
        <ele>460.7</ele>
        <time>2017-02-12T08:56:55.999Z</time>
      </trkpt>
      <trkpt lat="47.46834" lon="6.7386">
        <ele>460.8</ele>
        <time>2017-02-12T08:56:56.999Z</time>
      </trkpt>
      <trkpt lat="47.46833" lon="6.73854">
        <ele>460.8</ele>
        <time>2017-02-12T08:56:59.999Z</time>
      </trkpt>
      <trkpt lat="47.46831" lon="6.73847">
        <ele>460.6</ele>
        <time>2017-02-12T08:57:00.999Z</time>
      </trkpt>
      <trkpt lat="47.46832" lon="6.73841">
        <ele>459.4</ele>
        <time>2017-02-12T08:57:07.999Z</time>
      </trkpt>
      <trkpt lat="47.46832" lon="6.7384">
        <ele>459.1</ele>
        <time>2017-02-12T08:57:08.999Z</time>
      </trkpt>
      <trkpt lat="47.46835" lon="6.73837">
        <ele>458.7</ele>
        <time>2017-02-12T08:57:15.999Z</time>
      </trkpt>
      <trkpt lat="47.46836" lon="6.73836">
        <ele>458.7</ele>
        <time>2017-02-12T08:57:16.999Z</time>
      </trkpt>
      <trkpt lat="47.46838" lon="6.73831">
        <ele>458.5</ele>
        <time>2017-02-12T08:57:20.999Z</time>
      </trkpt>
      <trkpt lat="47.46839" lon="6.73829">
        <ele>458.5</ele>
        <time>2017-02-12T08:57:21.999Z</time>
      </trkpt>
      <trkpt lat="47.46839" lon="6.73824">
        <ele>450.6</ele>
        <time>2017-02-12T09:01:58.999Z</time>
      </trkpt>
      <trkpt lat="47.46839" lon="6.73822">
        <ele>450.2</ele>
        <time>2017-02-12T09:01:59.999Z</time>
      </trkpt>
      <trkpt lat="47.46837" lon="6.73817">
        <ele>448.7</ele>
        <time>2017-02-12T09:02:07.999Z</time>
      </trkpt>
      <trkpt lat="47.46836" lon="6.73816">
        <ele>448.8</ele>
        <time>2017-02-12T09:02:08.999Z</time>
      </trkpt>
      <trkpt lat="47.46834" lon="6.73812">
        <ele>449.1</ele>
        <time>2017-02-12T09:02:10.999Z</time>
      </trkpt>
      <trkpt lat="47.46833" lon="6.7381">
        <ele>449.2</ele>
        <time>2017-02-12T09:02:11.999Z</time>
      </trkpt>
      <trkpt lat="47.46832" lon="6.73807">
        <ele>449.3</ele>
        <time>2017-02-12T09:02:12.999Z</time>
      </trkpt>
      <trkpt lat="47.4683" lon="6.73803">
        <ele>449.5</ele>
        <time>2017-02-12T09:02:13.999Z</time>
      </trkpt>
      <trkpt lat="47.46828" lon="6.738">
        <ele>449.7</ele>
        <time>2017-02-12T09:02:14.999Z</time>
      </trkpt>
      <trkpt lat="47.46827" lon="6.73797">
        <ele>449.7</ele>
        <time>2017-02-12T09:02:15.999Z</time>
      </trkpt>
      <trkpt lat="47.46825" lon="6.73793">
        <ele>449.9</ele>
        <time>2017-02-12T09:02:16.999Z</time>
      </trkpt>
      <trkpt lat="47.46823" lon="6.7379">
        <ele>450</ele>
        <time>2017-02-12T09:02:17.999Z</time>
      </trkpt>
      <trkpt lat="47.46821" lon="6.73788">
        <ele>450.2</ele>
        <time>2017-02-12T09:02:18.999Z</time>
      </trkpt>
      <trkpt lat="47.46819" lon="6.73786">
        <ele>450.4</ele>
        <time>2017-02-12T09:02:19.999Z</time>
      </trkpt>
      <trkpt lat="47.46816" lon="6.73785">
        <ele>450.6</ele>
        <time>2017-02-12T09:02:20.999Z</time>
      </trkpt>
      <trkpt lat="47.46811" lon="6.73784">
        <ele>453</ele>
        <time>2017-02-12T09:02:21.999Z</time>
      </trkpt>
      <trkpt lat="47.46807" lon="6.73783">
        <ele>453.3</ele>
        <time>2017-02-12T09:02:22.999Z</time>
      </trkpt>
      <trkpt lat="47.46803" lon="6.73783">
        <ele>453.5</ele>
        <time>2017-02-12T09:02:23.999Z</time>
      </trkpt>
      <trkpt lat="47.46799" lon="6.73783">
        <ele>453.8</ele>
        <time>2017-02-12T09:02:24.999Z</time>
      </trkpt>
      <trkpt lat="47.46796" lon="6.73783">
        <ele>454.2</ele>
        <time>2017-02-12T09:02:25.999Z</time>
      </trkpt>
      <trkpt lat="47.46792" lon="6.73783">
        <ele>454.4</ele>
        <time>2017-02-12T09:02:26.999Z</time>
      </trkpt>
      <trkpt lat="47.46788" lon="6.73784">
        <ele>454.7</ele>
        <time>2017-02-12T09:02:27.999Z</time>
      </trkpt>
      <trkpt lat="47.46785" lon="6.73786">
        <ele>455</ele>
        <time>2017-02-12T09:02:28.999Z</time>
      </trkpt>
      <trkpt lat="47.46781" lon="6.73787">
        <ele>455.3</ele>
        <time>2017-02-12T09:02:29.999Z</time>
      </trkpt>
      <trkpt lat="47.46777" lon="6.73788">
        <ele>458.4</ele>
        <time>2017-02-12T09:02:30.999Z</time>
      </trkpt>
      <trkpt lat="47.46772" lon="6.7379">
        <ele>460.1</ele>
        <time>2017-02-12T09:02:31.999Z</time>
      </trkpt>
      <trkpt lat="47.46767" lon="6.73792">
        <ele>461.4</ele>
        <time>2017-02-12T09:02:32.999Z</time>
      </trkpt>
      <trkpt lat="47.46763" lon="6.73794">
        <ele>462.3</ele>
        <time>2017-02-12T09:02:33.999Z</time>
      </trkpt>
      <trkpt lat="47.46758" lon="6.73796">
        <ele>463.6</ele>
        <time>2017-02-12T09:02:34.999Z</time>
      </trkpt>
      <trkpt lat="47.46753" lon="6.73798">
        <ele>464.2</ele>
        <time>2017-02-12T09:02:35.999Z</time>
      </trkpt>
      <trkpt lat="47.46749" lon="6.738">
        <ele>464.8</ele>
        <time>2017-02-12T09:02:36.999Z</time>
      </trkpt>
      <trkpt lat="47.46745" lon="6.73802">
        <ele>464.8</ele>
        <time>2017-02-12T09:02:37.999Z</time>
      </trkpt>
      <trkpt lat="47.46741" lon="6.73805">
        <ele>464.9</ele>
        <time>2017-02-12T09:02:38.999Z</time>
      </trkpt>
      <trkpt lat="47.46737" lon="6.73807">
        <ele>465.3</ele>
        <time>2017-02-12T09:02:39.999Z</time>
      </trkpt>
      <trkpt lat="47.46733" lon="6.73809">
        <ele>465.2</ele>
        <time>2017-02-12T09:02:40.999Z</time>
      </trkpt>
      <trkpt lat="47.46729" lon="6.73813">
        <ele>465</ele>
        <time>2017-02-12T09:02:41.999Z</time>
      </trkpt>
      <trkpt lat="47.46727" lon="6.73816">
        <ele>465</ele>
        <time>2017-02-12T09:02:42.999Z</time>
      </trkpt>
      <trkpt lat="47.46724" lon="6.73821">
        <ele>465</ele>
        <time>2017-02-12T09:02:43.999Z</time>
      </trkpt>
      <trkpt lat="47.46722" lon="6.73826">
        <ele>464.9</ele>
        <time>2017-02-12T09:02:44.999Z</time>
      </trkpt>
      <trkpt lat="47.46718" lon="6.73831">
        <ele>464.8</ele>
        <time>2017-02-12T09:02:45.999Z</time>
      </trkpt>
      <trkpt lat="47.46715" lon="6.73836">
        <ele>464.6</ele>
        <time>2017-02-12T09:02:46.999Z</time>
      </trkpt>
      <trkpt lat="47.46713" lon="6.73841">
        <ele>464.5</ele>
        <time>2017-02-12T09:02:47.999Z</time>
      </trkpt>
      <trkpt lat="47.46709" lon="6.73845">
        <ele>464.4</ele>
        <time>2017-02-12T09:02:48.999Z</time>
      </trkpt>
      <trkpt lat="47.46705" lon="6.7385">
        <ele>464.3</ele>
        <time>2017-02-12T09:02:49.999Z</time>
      </trkpt>
      <trkpt lat="47.46702" lon="6.73855">
        <ele>464.1</ele>
        <time>2017-02-12T09:02:50.999Z</time>
      </trkpt>
      <trkpt lat="47.46698" lon="6.73858">
        <ele>464.1</ele>
        <time>2017-02-12T09:02:51.999Z</time>
      </trkpt>
      <trkpt lat="47.46693" lon="6.73858">
        <ele>463.5</ele>
        <time>2017-02-12T09:02:52.999Z</time>
      </trkpt>
      <trkpt lat="47.46688" lon="6.73855">
        <ele>462.3</ele>
        <time>2017-02-12T09:02:53.999Z</time>
      </trkpt>
      <trkpt lat="47.46683" lon="6.73853">
        <ele>461</ele>
        <time>2017-02-12T09:02:54.999Z</time>
      </trkpt>
      <trkpt lat="47.46679" lon="6.73851">
        <ele>460.8</ele>
        <time>2017-02-12T09:02:55.999Z</time>
      </trkpt>
      <trkpt lat="47.46676" lon="6.73847">
        <ele>460.7</ele>
        <time>2017-02-12T09:02:56.999Z</time>
      </trkpt>
      <trkpt lat="47.46674" lon="6.73841">
        <ele>460.5</ele>
        <time>2017-02-12T09:02:57.999Z</time>
      </trkpt>
      <trkpt lat="47.46672" lon="6.73833">
        <ele>460.4</ele>
        <time>2017-02-12T09:02:58.999Z</time>
      </trkpt>
      <trkpt lat="47.46671" lon="6.73829">
        <ele>460.2</ele>
        <time>2017-02-12T09:02:59.999Z</time>
      </trkpt>
      <trkpt lat="47.46669" lon="6.73823">
        <ele>460.1</ele>
        <time>2017-02-12T09:03:00.999Z</time>
      </trkpt>
      <trkpt lat="47.46667" lon="6.73817">
        <ele>459.9</ele>
        <time>2017-02-12T09:03:01.999Z</time>
      </trkpt>
      <trkpt lat="47.46666" lon="6.73812">
        <ele>459.8</ele>
        <time>2017-02-12T09:03:02.999Z</time>
      </trkpt>
      <trkpt lat="47.46664" lon="6.73808">
        <ele>459.7</ele>
        <time>2017-02-12T09:03:03.999Z</time>
      </trkpt>
      <trkpt lat="47.46663" lon="6.73805">
        <ele>459.6</ele>
        <time>2017-02-12T09:03:04.999Z</time>
      </trkpt>
      <trkpt lat="47.46662" lon="6.73803">
        <ele>459.4</ele>
        <time>2017-02-12T09:03:05.999Z</time>
      </trkpt>
      <trkpt lat="47.4666" lon="6.73799">
        <ele>459.3</ele>
        <time>2017-02-12T09:03:06.999Z</time>
      </trkpt>
      <trkpt lat="47.46657" lon="6.73794">
        <ele>459.3</ele>
        <time>2017-02-12T09:03:07.999Z</time>
      </trkpt>
      <trkpt lat="47.46656" lon="6.73791">
        <ele>459.2</ele>
        <time>2017-02-12T09:03:08.999Z</time>
      </trkpt>
      <trkpt lat="47.46654" lon="6.73788">
        <ele>459.2</ele>
        <time>2017-02-12T09:03:09.999Z</time>
      </trkpt>
      <trkpt lat="47.46653" lon="6.73785">
        <ele>459.1</ele>
        <time>2017-02-12T09:03:10.999Z</time>
      </trkpt>
      <trkpt lat="47.46651" lon="6.73782">
        <ele>459.1</ele>
        <time>2017-02-12T09:03:11.999Z</time>
      </trkpt>
      <trkpt lat="47.46649" lon="6.73779">
        <ele>459</ele>
        <time>2017-02-12T09:03:12.999Z</time>
      </trkpt>
      <trkpt lat="47.46646" lon="6.73775">
        <ele>458.9</ele>
        <time>2017-02-12T09:03:13.999Z</time>
      </trkpt>
      <trkpt lat="47.46642" lon="6.73771">
        <ele>458.8</ele>
        <time>2017-02-12T09:03:14.999Z</time>
      </trkpt>
      <trkpt lat="47.46639" lon="6.73767">
        <ele>458.7</ele>
        <time>2017-02-12T09:03:16.999Z</time>
      </trkpt>
      <trkpt lat="47.46638" lon="6.73765">
        <ele>458.6</ele>
        <time>2017-02-12T09:03:17.999Z</time>
      </trkpt>
      <trkpt lat="47.46636" lon="6.73763">
        <ele>458.6</ele>
        <time>2017-02-12T09:03:18.999Z</time>
      </trkpt>
      <trkpt lat="47.46634" lon="6.7376">
        <ele>458.5</ele>
        <time>2017-02-12T09:03:19.999Z</time>
      </trkpt>
      <trkpt lat="47.46631" lon="6.73756">
        <ele>458.4</ele>
        <time>2017-02-12T09:03:20.999Z</time>
      </trkpt>
      <trkpt lat="47.46629" lon="6.73754">
        <ele>458.2</ele>
        <time>2017-02-12T09:03:21.999Z</time>
      </trkpt>
      <trkpt lat="47.46627" lon="6.73751">
        <ele>458</ele>
        <time>2017-02-12T09:03:22.999Z</time>
      </trkpt>
      <trkpt lat="47.46625" lon="6.73748">
        <ele>458</ele>
        <time>2017-02-12T09:03:23.999Z</time>
      </trkpt>
      <trkpt lat="47.46623" lon="6.73747">
        <ele>457.9</ele>
        <time>2017-02-12T09:03:24.999Z</time>
      </trkpt>
      <trkpt lat="47.46621" lon="6.73745">
        <ele>457.9</ele>
        <time>2017-02-12T09:03:25.999Z</time>
      </trkpt>
      <trkpt lat="47.46617" lon="6.73744">
        <ele>457.8</ele>
        <time>2017-02-12T09:03:26.999Z</time>
      </trkpt>
      <trkpt lat="47.46614" lon="6.73743">
        <ele>457.8</ele>
        <time>2017-02-12T09:03:27.999Z</time>
      </trkpt>
      <trkpt lat="47.46611" lon="6.73741">
        <ele>457.9</ele>
        <time>2017-02-12T09:03:28.999Z</time>
      </trkpt>
      <trkpt lat="47.46607" lon="6.73739">
        <ele>457.8</ele>
        <time>2017-02-12T09:03:29.999Z</time>
      </trkpt>
      <trkpt lat="47.46604" lon="6.73737">
        <ele>457.7</ele>
        <time>2017-02-12T09:03:30.999Z</time>
      </trkpt>
      <trkpt lat="47.46602" lon="6.73736">
        <ele>457.7</ele>
        <time>2017-02-12T09:03:31.999Z</time>
      </trkpt>
      <trkpt lat="47.466" lon="6.73736">
        <ele>457.7</ele>
        <time>2017-02-12T09:03:32.999Z</time>
      </trkpt>
      <trkpt lat="47.46597" lon="6.73735">
        <ele>457.6</ele>
        <time>2017-02-12T09:03:33.999Z</time>
      </trkpt>
      <trkpt lat="47.46593" lon="6.73734">
        <ele>457.5</ele>
        <time>2017-02-12T09:03:35.999Z</time>
      </trkpt>
      <trkpt lat="47.46591" lon="6.73734">
        <ele>457.4</ele>
        <time>2017-02-12T09:03:36.999Z</time>
      </trkpt>
      <trkpt lat="47.46588" lon="6.73733">
        <ele>457.4</ele>
        <time>2017-02-12T09:03:39.000Z</time>
      </trkpt>
      <trkpt lat="47.46586" lon="6.73732">
        <ele>457.3</ele>
        <time>2017-02-12T09:03:40.000Z</time>
      </trkpt>
      <trkpt lat="47.46582" lon="6.73731">
        <ele>457.3</ele>
        <time>2017-02-12T09:03:41.000Z</time>
      </trkpt>
      <trkpt lat="47.4658" lon="6.73731">
        <ele>457.3</ele>
        <time>2017-02-12T09:03:42.000Z</time>
      </trkpt>
      <trkpt lat="47.46576" lon="6.73729">
        <ele>457.3</ele>
        <time>2017-02-12T09:03:44.000Z</time>
      </trkpt>
      <trkpt lat="47.46573" lon="6.73728">
        <ele>457.3</ele>
        <time>2017-02-12T09:03:45.000Z</time>
      </trkpt>
      <trkpt lat="47.4657" lon="6.73727">
        <ele>457.3</ele>
        <time>2017-02-12T09:03:46.000Z</time>
      </trkpt>
      <trkpt lat="47.46567" lon="6.73726">
        <ele>457.2</ele>
        <time>2017-02-12T09:03:47.000Z</time>
      </trkpt>
      <trkpt lat="47.46564" lon="6.73724">
        <ele>457.2</ele>
        <time>2017-02-12T09:03:48.000Z</time>
      </trkpt>
      <trkpt lat="47.46562" lon="6.73723">
        <ele>457.1</ele>
        <time>2017-02-12T09:03:49.000Z</time>
      </trkpt>
      <trkpt lat="47.46559" lon="6.73721">
        <ele>457</ele>
        <time>2017-02-12T09:03:50.000Z</time>
      </trkpt>
      <trkpt lat="47.46556" lon="6.73719">
        <ele>456.9</ele>
        <time>2017-02-12T09:03:51.000Z</time>
      </trkpt>
      <trkpt lat="47.46554" lon="6.73718">
        <ele>456.9</ele>
        <time>2017-02-12T09:03:52.000Z</time>
      </trkpt>
      <trkpt lat="47.46552" lon="6.73716">
        <ele>456.8</ele>
        <time>2017-02-12T09:03:53.000Z</time>
      </trkpt>
      <trkpt lat="47.46549" lon="6.73714">
        <ele>456.8</ele>
        <time>2017-02-12T09:03:54.000Z</time>
      </trkpt>
      <trkpt lat="47.46547" lon="6.73713">
        <ele>456.8</ele>
        <time>2017-02-12T09:03:55.000Z</time>
      </trkpt>
      <trkpt lat="47.46544" lon="6.73714">
        <ele>456.8</ele>
        <time>2017-02-12T09:03:56.000Z</time>
      </trkpt>
      <trkpt lat="47.46541" lon="6.73713">
        <ele>456.8</ele>
        <time>2017-02-12T09:03:57.000Z</time>
      </trkpt>
      <trkpt lat="47.46538" lon="6.73712">
        <ele>456.9</ele>
        <time>2017-02-12T09:03:58.000Z</time>
      </trkpt>
      <trkpt lat="47.46534" lon="6.73711">
        <ele>457</ele>
        <time>2017-02-12T09:03:59.000Z</time>
      </trkpt>
      <trkpt lat="47.46531" lon="6.73711">
        <ele>457</ele>
        <time>2017-02-12T09:04:00.000Z</time>
      </trkpt>
      <trkpt lat="47.46528" lon="6.73711">
        <ele>457</ele>
        <time>2017-02-12T09:04:01.000Z</time>
      </trkpt>
      <trkpt lat="47.46524" lon="6.7371">
        <ele>457.1</ele>
        <time>2017-02-12T09:04:02.000Z</time>
      </trkpt>
      <trkpt lat="47.46521" lon="6.73709">
        <ele>457.1</ele>
        <time>2017-02-12T09:04:03.000Z</time>
      </trkpt>
      <trkpt lat="47.46518" lon="6.73708">
        <ele>457.1</ele>
        <time>2017-02-12T09:04:04.000Z</time>
      </trkpt>
      <trkpt lat="47.46515" lon="6.73707">
        <ele>457.1</ele>
        <time>2017-02-12T09:04:05.000Z</time>
      </trkpt>
      <trkpt lat="47.46512" lon="6.73707">
        <ele>457.2</ele>
        <time>2017-02-12T09:04:06.000Z</time>
      </trkpt>
      <trkpt lat="47.46508" lon="6.73706">
        <ele>457.3</ele>
        <time>2017-02-12T09:04:07.000Z</time>
      </trkpt>
      <trkpt lat="47.46505" lon="6.73707">
        <ele>457.4</ele>
        <time>2017-02-12T09:04:08.000Z</time>
      </trkpt>
      <trkpt lat="47.46502" lon="6.73708">
        <ele>457.5</ele>
        <time>2017-02-12T09:04:09.000Z</time>
      </trkpt>
      <trkpt lat="47.46499" lon="6.73708">
        <ele>457.6</ele>
        <time>2017-02-12T09:04:10.000Z</time>
      </trkpt>
      <trkpt lat="47.46496" lon="6.73708">
        <ele>457.7</ele>
        <time>2017-02-12T09:04:11.000Z</time>
      </trkpt>
      <trkpt lat="47.46493" lon="6.73709">
        <ele>457.9</ele>
        <time>2017-02-12T09:04:12.000Z</time>
      </trkpt>
      <trkpt lat="47.46491" lon="6.7371">
        <ele>458</ele>
        <time>2017-02-12T09:04:13.000Z</time>
      </trkpt>
      <trkpt lat="47.46488" lon="6.73713">
        <ele>458.4</ele>
        <time>2017-02-12T09:04:16.000Z</time>
      </trkpt>
      <trkpt lat="47.46486" lon="6.73714">
        <ele>458.6</ele>
        <time>2017-02-12T09:04:17.000Z</time>
      </trkpt>
      <trkpt lat="47.46484" lon="6.73716">
        <ele>458.8</ele>
        <time>2017-02-12T09:04:18.000Z</time>
      </trkpt>
      <trkpt lat="47.46482" lon="6.73718">
        <ele>459</ele>
        <time>2017-02-12T09:04:19.000Z</time>
      </trkpt>
      <trkpt lat="47.46479" lon="6.73721">
        <ele>459.7</ele>
        <time>2017-02-12T09:04:22.000Z</time>
      </trkpt>
      <trkpt lat="47.46478" lon="6.73722">
        <ele>459.9</ele>
        <time>2017-02-12T09:04:23.000Z</time>
      </trkpt>
      <trkpt lat="47.46475" lon="6.73724">
        <ele>460.1</ele>
        <time>2017-02-12T09:04:24.000Z</time>
      </trkpt>
      <trkpt lat="47.46473" lon="6.73726">
        <ele>460.4</ele>
        <time>2017-02-12T09:04:25.000Z</time>
      </trkpt>
      <trkpt lat="47.4647" lon="6.73728">
        <ele>461</ele>
        <time>2017-02-12T09:04:28.000Z</time>
      </trkpt>
      <trkpt lat="47.46469" lon="6.7373">
        <ele>461.1</ele>
        <time>2017-02-12T09:04:29.000Z</time>
      </trkpt>
      <trkpt lat="47.46467" lon="6.73734">
        <ele>461.5</ele>
        <time>2017-02-12T09:04:31.000Z</time>
      </trkpt>
      <trkpt lat="47.46465" lon="6.73735">
        <ele>461.6</ele>
        <time>2017-02-12T09:04:32.000Z</time>
      </trkpt>
      <trkpt lat="47.46462" lon="6.73738">
        <ele>462.1</ele>
        <time>2017-02-12T09:04:35.000Z</time>
      </trkpt>
      <trkpt lat="47.4646" lon="6.73739">
        <ele>462.3</ele>
        <time>2017-02-12T09:04:36.000Z</time>
      </trkpt>
      <trkpt lat="47.46457" lon="6.73742">
        <ele>462.5</ele>
        <time>2017-02-12T09:04:38.000Z</time>
      </trkpt>
      <trkpt lat="47.46456" lon="6.73742">
        <ele>462.7</ele>
        <time>2017-02-12T09:04:39.000Z</time>
      </trkpt>
      <trkpt lat="47.46451" lon="6.73744">
        <ele>463.6</ele>
        <time>2017-02-12T09:04:44.000Z</time>
      </trkpt>
      <trkpt lat="47.4645" lon="6.73744">
        <ele>463.8</ele>
        <time>2017-02-12T09:04:45.000Z</time>
      </trkpt>
      <trkpt lat="47.46447" lon="6.73744">
        <ele>464.1</ele>
        <time>2017-02-12T09:04:47.000Z</time>
      </trkpt>
      <trkpt lat="47.46445" lon="6.73744">
        <ele>464.2</ele>
        <time>2017-02-12T09:04:48.000Z</time>
      </trkpt>
      <trkpt lat="47.46441" lon="6.73744">
        <ele>464.5</ele>
        <time>2017-02-12T09:04:50.000Z</time>
      </trkpt>
      <trkpt lat="47.4644" lon="6.73743">
        <ele>464.7</ele>
        <time>2017-02-12T09:04:51.000Z</time>
      </trkpt>
      <trkpt lat="47.46435" lon="6.73743">
        <ele>465.1</ele>
        <time>2017-02-12T09:04:53.000Z</time>
      </trkpt>
      <trkpt lat="47.46434" lon="6.73743">
        <ele>465.3</ele>
        <time>2017-02-12T09:04:54.000Z</time>
      </trkpt>
      <trkpt lat="47.4643" lon="6.73742">
        <ele>465.6</ele>
        <time>2017-02-12T09:04:56.000Z</time>
      </trkpt>
      <trkpt lat="47.46429" lon="6.73742">
        <ele>465.8</ele>
        <time>2017-02-12T09:04:57.000Z</time>
      </trkpt>
      <trkpt lat="47.46426" lon="6.73742">
        <ele>466.1</ele>
        <time>2017-02-12T09:04:59.000Z</time>
      </trkpt>
      <trkpt lat="47.46423" lon="6.73742">
        <ele>466.3</ele>
        <time>2017-02-12T09:05:00.000Z</time>
      </trkpt>
      <trkpt lat="47.4642" lon="6.73741">
        <ele>466.4</ele>
        <time>2017-02-12T09:05:01.000Z</time>
      </trkpt>
      <trkpt lat="47.46417" lon="6.73741">
        <ele>466.5</ele>
        <time>2017-02-12T09:05:02.000Z</time>
      </trkpt>
      <trkpt lat="47.46414" lon="6.73741">
        <ele>466.6</ele>
        <time>2017-02-12T09:05:03.000Z</time>
      </trkpt>
      <trkpt lat="47.46412" lon="6.7374">
        <ele>466.7</ele>
        <time>2017-02-12T09:05:04.000Z</time>
      </trkpt>
      <trkpt lat="47.46409" lon="6.7374">
        <ele>466.9</ele>
        <time>2017-02-12T09:05:06.000Z</time>
      </trkpt>
      <trkpt lat="47.46406" lon="6.73739">
        <ele>467</ele>
        <time>2017-02-12T09:05:07.000Z</time>
      </trkpt>
      <trkpt lat="47.46404" lon="6.73739">
        <ele>467.1</ele>
        <time>2017-02-12T09:05:08.000Z</time>
      </trkpt>
      <trkpt lat="47.46402" lon="6.73739">
        <ele>467.2</ele>
        <time>2017-02-12T09:05:09.000Z</time>
      </trkpt>
      <trkpt lat="47.46397" lon="6.73739">
        <ele>467.3</ele>
        <time>2017-02-12T09:05:11.000Z</time>
      </trkpt>
      <trkpt lat="47.46395" lon="6.73739">
        <ele>467.4</ele>
        <time>2017-02-12T09:05:12.000Z</time>
      </trkpt>
      <trkpt lat="47.46392" lon="6.73739">
        <ele>467.6</ele>
        <time>2017-02-12T09:05:14.000Z</time>
      </trkpt>
      <trkpt lat="47.4639" lon="6.73739">
        <ele>467.7</ele>
        <time>2017-02-12T09:05:15.000Z</time>
      </trkpt>
      <trkpt lat="47.46386" lon="6.73739">
        <ele>467.9</ele>
        <time>2017-02-12T09:05:17.000Z</time>
      </trkpt>
      <trkpt lat="47.46383" lon="6.73739">
        <ele>468</ele>
        <time>2017-02-12T09:05:18.000Z</time>
      </trkpt>
      <trkpt lat="47.4638" lon="6.73739">
        <ele>468.2</ele>
        <time>2017-02-12T09:05:20.000Z</time>
      </trkpt>
      <trkpt lat="47.46378" lon="6.73738">
        <ele>468.3</ele>
        <time>2017-02-12T09:05:21.000Z</time>
      </trkpt>
      <trkpt lat="47.46375" lon="6.73735">
        <ele>468.4</ele>
        <time>2017-02-12T09:05:23.000Z</time>
      </trkpt>
      <trkpt lat="47.46374" lon="6.73735">
        <ele>468.5</ele>
        <time>2017-02-12T09:05:24.000Z</time>
      </trkpt>
      <trkpt lat="47.46371" lon="6.73733">
        <ele>468.5</ele>
        <time>2017-02-12T09:05:25.000Z</time>
      </trkpt>
      <trkpt lat="47.46369" lon="6.73732">
        <ele>468.6</ele>
        <time>2017-02-12T09:05:26.000Z</time>
      </trkpt>
      <trkpt lat="47.46365" lon="6.73731">
        <ele>468.8</ele>
        <time>2017-02-12T09:05:28.000Z</time>
      </trkpt>
      <trkpt lat="47.46364" lon="6.7373">
        <ele>468.9</ele>
        <time>2017-02-12T09:05:29.000Z</time>
      </trkpt>
      <trkpt lat="47.4636" lon="6.7373">
        <ele>469.1</ele>
        <time>2017-02-12T09:05:31.000Z</time>
      </trkpt>
      <trkpt lat="47.46358" lon="6.7373">
        <ele>469.2</ele>
        <time>2017-02-12T09:05:32.000Z</time>
      </trkpt>
      <trkpt lat="47.46354" lon="6.73727">
        <ele>469.4</ele>
        <time>2017-02-12T09:05:34.000Z</time>
      </trkpt>
      <trkpt lat="47.46353" lon="6.73727">
        <ele>469.4</ele>
        <time>2017-02-12T09:05:35.000Z</time>
      </trkpt>
      <trkpt lat="47.4635" lon="6.73727">
        <ele>469.5</ele>
        <time>2017-02-12T09:05:36.000Z</time>
      </trkpt>
      <trkpt lat="47.46348" lon="6.73727">
        <ele>469.5</ele>
        <time>2017-02-12T09:05:37.000Z</time>
      </trkpt>
      <trkpt lat="47.46344" lon="6.73726">
        <ele>469.4</ele>
        <time>2017-02-12T09:05:39.000Z</time>
      </trkpt>
      <trkpt lat="47.46342" lon="6.73726">
        <ele>469.5</ele>
        <time>2017-02-12T09:05:40.000Z</time>
      </trkpt>
      <trkpt lat="47.46338" lon="6.73723">
        <ele>469.7</ele>
        <time>2017-02-12T09:05:43.000Z</time>
      </trkpt>
      <trkpt lat="47.46336" lon="6.73722">
        <ele>469.7</ele>
        <time>2017-02-12T09:05:44.000Z</time>
      </trkpt>
      <trkpt lat="47.46332" lon="6.7372">
        <ele>469.8</ele>
        <time>2017-02-12T09:05:46.000Z</time>
      </trkpt>
      <trkpt lat="47.46329" lon="6.7372">
        <ele>469.8</ele>
        <time>2017-02-12T09:05:47.000Z</time>
      </trkpt>
      <trkpt lat="47.46325" lon="6.73719">
        <ele>469.9</ele>
        <time>2017-02-12T09:05:49.000Z</time>
      </trkpt>
      <trkpt lat="47.46323" lon="6.73719">
        <ele>469.9</ele>
        <time>2017-02-12T09:05:50.000Z</time>
      </trkpt>
      <trkpt lat="47.46319" lon="6.73718">
        <ele>470</ele>
        <time>2017-02-12T09:05:52.000Z</time>
      </trkpt>
      <trkpt lat="47.46317" lon="6.73718">
        <ele>470</ele>
        <time>2017-02-12T09:05:53.000Z</time>
      </trkpt>
      <trkpt lat="47.46314" lon="6.73717">
        <ele>470.1</ele>
        <time>2017-02-12T09:05:55.000Z</time>
      </trkpt>
      <trkpt lat="47.46312" lon="6.73717">
        <ele>470.2</ele>
        <time>2017-02-12T09:05:56.000Z</time>
      </trkpt>
      <trkpt lat="47.46307" lon="6.73716">
        <ele>470.3</ele>
        <time>2017-02-12T09:05:58.000Z</time>
      </trkpt>
      <trkpt lat="47.46305" lon="6.73716">
        <ele>470.3</ele>
        <time>2017-02-12T09:05:59.000Z</time>
      </trkpt>
      <trkpt lat="47.46303" lon="6.73716">
        <ele>470.4</ele>
        <time>2017-02-12T09:06:00.000Z</time>
      </trkpt>
      <trkpt lat="47.463" lon="6.73716">
        <ele>470.5</ele>
        <time>2017-02-12T09:06:01.000Z</time>
      </trkpt>
      <trkpt lat="47.46296" lon="6.73716">
        <ele>470.7</ele>
        <time>2017-02-12T09:06:03.000Z</time>
      </trkpt>
      <trkpt lat="47.46293" lon="6.73715">
        <ele>470.8</ele>
        <time>2017-02-12T09:06:04.000Z</time>
      </trkpt>
      <trkpt lat="47.46291" lon="6.73715">
        <ele>471</ele>
        <time>2017-02-12T09:06:05.000Z</time>
      </trkpt>
      <trkpt lat="47.46288" lon="6.73715">
        <ele>471.1</ele>
        <time>2017-02-12T09:06:06.000Z</time>
      </trkpt>
      <trkpt lat="47.46285" lon="6.73715">
        <ele>471.2</ele>
        <time>2017-02-12T09:06:07.000Z</time>
      </trkpt>
      <trkpt lat="47.46283" lon="6.73714">
        <ele>471.4</ele>
        <time>2017-02-12T09:06:08.000Z</time>
      </trkpt>
      <trkpt lat="47.46281" lon="6.73714">
        <ele>471.5</ele>
        <time>2017-02-12T09:06:09.000Z</time>
      </trkpt>
      <trkpt lat="47.46277" lon="6.73713">
        <ele>471.6</ele>
        <time>2017-02-12T09:06:10.000Z</time>
      </trkpt>
      <trkpt lat="47.46275" lon="6.73713">
        <ele>471.7</ele>
        <time>2017-02-12T09:06:11.000Z</time>
      </trkpt>
      <trkpt lat="47.46272" lon="6.73713">
        <ele>471.8</ele>
        <time>2017-02-12T09:06:12.000Z</time>
      </trkpt>
      <trkpt lat="47.4627" lon="6.73712">
        <ele>471.9</ele>
        <time>2017-02-12T09:06:13.000Z</time>
      </trkpt>
      <trkpt lat="47.46267" lon="6.73712">
        <ele>472</ele>
        <time>2017-02-12T09:06:14.000Z</time>
      </trkpt>
      <trkpt lat="47.46264" lon="6.73711">
        <ele>472.1</ele>
        <time>2017-02-12T09:06:15.000Z</time>
      </trkpt>
      <trkpt lat="47.46261" lon="6.73711">
        <ele>472.2</ele>
        <time>2017-02-12T09:06:16.000Z</time>
      </trkpt>
      <trkpt lat="47.46258" lon="6.73711">
        <ele>472.2</ele>
        <time>2017-02-12T09:06:17.000Z</time>
      </trkpt>
      <trkpt lat="47.46254" lon="6.73711">
        <ele>472.3</ele>
        <time>2017-02-12T09:06:18.000Z</time>
      </trkpt>
      <trkpt lat="47.46251" lon="6.73711">
        <ele>472.4</ele>
        <time>2017-02-12T09:06:19.000Z</time>
      </trkpt>
      <trkpt lat="47.46247" lon="6.73711">
        <ele>472.5</ele>
        <time>2017-02-12T09:06:20.000Z</time>
      </trkpt>
      <trkpt lat="47.46244" lon="6.73711">
        <ele>472.5</ele>
        <time>2017-02-12T09:06:21.000Z</time>
      </trkpt>
      <trkpt lat="47.46242" lon="6.73711">
        <ele>472.6</ele>
        <time>2017-02-12T09:06:22.000Z</time>
      </trkpt>
      <trkpt lat="47.46239" lon="6.7371">
        <ele>472.7</ele>
        <time>2017-02-12T09:06:23.000Z</time>
      </trkpt>
      <trkpt lat="47.46236" lon="6.7371">
        <ele>472.8</ele>
        <time>2017-02-12T09:06:24.000Z</time>
      </trkpt>
      <trkpt lat="47.46234" lon="6.7371">
        <ele>472.9</ele>
        <time>2017-02-12T09:06:25.000Z</time>
      </trkpt>
      <trkpt lat="47.46231" lon="6.7371">
        <ele>473.1</ele>
        <time>2017-02-12T09:06:26.000Z</time>
      </trkpt>
      <trkpt lat="47.46228" lon="6.7371">
        <ele>473.2</ele>
        <time>2017-02-12T09:06:27.000Z</time>
      </trkpt>
      <trkpt lat="47.46225" lon="6.7371">
        <ele>473.3</ele>
        <time>2017-02-12T09:06:28.000Z</time>
      </trkpt>
      <trkpt lat="47.46223" lon="6.7371">
        <ele>473.4</ele>
        <time>2017-02-12T09:06:29.000Z</time>
      </trkpt>
      <trkpt lat="47.4622" lon="6.7371">
        <ele>473.5</ele>
        <time>2017-02-12T09:06:30.000Z</time>
      </trkpt>
      <trkpt lat="47.46217" lon="6.7371">
        <ele>473.6</ele>
        <time>2017-02-12T09:06:31.000Z</time>
      </trkpt>
      <trkpt lat="47.46214" lon="6.7371">
        <ele>473.7</ele>
        <time>2017-02-12T09:06:32.000Z</time>
      </trkpt>
      <trkpt lat="47.46212" lon="6.7371">
        <ele>473.8</ele>
        <time>2017-02-12T09:06:33.000Z</time>
      </trkpt>
      <trkpt lat="47.46209" lon="6.7371">
        <ele>473.9</ele>
        <time>2017-02-12T09:06:34.000Z</time>
      </trkpt>
      <trkpt lat="47.46206" lon="6.7371">
        <ele>474.1</ele>
        <time>2017-02-12T09:06:35.000Z</time>
      </trkpt>
      <trkpt lat="47.46203" lon="6.7371">
        <ele>474.2</ele>
        <time>2017-02-12T09:06:36.000Z</time>
      </trkpt>
      <trkpt lat="47.462" lon="6.73709">
        <ele>474.3</ele>
        <time>2017-02-12T09:06:37.000Z</time>
      </trkpt>
      <trkpt lat="47.46198" lon="6.73709">
        <ele>474.4</ele>
        <time>2017-02-12T09:06:38.000Z</time>
      </trkpt>
      <trkpt lat="47.46194" lon="6.73709">
        <ele>474.7</ele>
        <time>2017-02-12T09:06:40.000Z</time>
      </trkpt>
      <trkpt lat="47.46191" lon="6.73709">
        <ele>474.8</ele>
        <time>2017-02-12T09:06:41.000Z</time>
      </trkpt>
      <trkpt lat="47.46188" lon="6.73709">
        <ele>475</ele>
        <time>2017-02-12T09:06:42.000Z</time>
      </trkpt>
      <trkpt lat="47.46184" lon="6.73708">
        <ele>475.1</ele>
        <time>2017-02-12T09:06:43.000Z</time>
      </trkpt>
      <trkpt lat="47.46181" lon="6.73708">
        <ele>475.2</ele>
        <time>2017-02-12T09:06:44.000Z</time>
      </trkpt>
      <trkpt lat="47.46178" lon="6.73707">
        <ele>475.4</ele>
        <time>2017-02-12T09:06:45.000Z</time>
      </trkpt>
      <trkpt lat="47.46175" lon="6.73706">
        <ele>475.5</ele>
        <time>2017-02-12T09:06:46.000Z</time>
      </trkpt>
      <trkpt lat="47.46172" lon="6.73705">
        <ele>475.6</ele>
        <time>2017-02-12T09:06:47.000Z</time>
      </trkpt>
      <trkpt lat="47.46169" lon="6.73703">
        <ele>475.7</ele>
        <time>2017-02-12T09:06:48.000Z</time>
      </trkpt>
      <trkpt lat="47.46167" lon="6.73702">
        <ele>475.8</ele>
        <time>2017-02-12T09:06:49.000Z</time>
      </trkpt>
      <trkpt lat="47.46165" lon="6.73701">
        <ele>475.9</ele>
        <time>2017-02-12T09:06:50.000Z</time>
      </trkpt>
      <trkpt lat="47.46162" lon="6.737">
        <ele>476</ele>
        <time>2017-02-12T09:06:51.000Z</time>
      </trkpt>
      <trkpt lat="47.46158" lon="6.73698">
        <ele>476.2</ele>
        <time>2017-02-12T09:06:53.000Z</time>
      </trkpt>
      <trkpt lat="47.46156" lon="6.73696">
        <ele>476.2</ele>
        <time>2017-02-12T09:06:54.000Z</time>
      </trkpt>
      <trkpt lat="47.46153" lon="6.73693">
        <ele>476.1</ele>
        <time>2017-02-12T09:06:56.000Z</time>
      </trkpt>
      <trkpt lat="47.4615" lon="6.73692">
        <ele>476.1</ele>
        <time>2017-02-12T09:06:57.000Z</time>
      </trkpt>
      <trkpt lat="47.46146" lon="6.73689">
        <ele>476.1</ele>
        <time>2017-02-12T09:06:59.000Z</time>
      </trkpt>
      <trkpt lat="47.46144" lon="6.73687">
        <ele>476.1</ele>
        <time>2017-02-12T09:07:00.000Z</time>
      </trkpt>
      <trkpt lat="47.4614" lon="6.73684">
        <ele>476.1</ele>
        <time>2017-02-12T09:07:02.000Z</time>
      </trkpt>
      <trkpt lat="47.46138" lon="6.73682">
        <ele>476.1</ele>
        <time>2017-02-12T09:07:03.000Z</time>
      </trkpt>
      <trkpt lat="47.46135" lon="6.73679">
        <ele>476.1</ele>
        <time>2017-02-12T09:07:05.000Z</time>
      </trkpt>
      <trkpt lat="47.46134" lon="6.73679">
        <ele>476.1</ele>
        <time>2017-02-12T09:07:06.000Z</time>
      </trkpt>
      <trkpt lat="47.4613" lon="6.73677">
        <ele>476.3</ele>
        <time>2017-02-12T09:07:08.000Z</time>
      </trkpt>
      <trkpt lat="47.46128" lon="6.73676">
        <ele>476.4</ele>
        <time>2017-02-12T09:07:09.000Z</time>
      </trkpt>
      <trkpt lat="47.46125" lon="6.73672">
        <ele>476.6</ele>
        <time>2017-02-12T09:07:11.000Z</time>
      </trkpt>
      <trkpt lat="47.46122" lon="6.73671">
        <ele>476.7</ele>
        <time>2017-02-12T09:07:12.000Z</time>
      </trkpt>
      <trkpt lat="47.4612" lon="6.7367">
        <ele>476.9</ele>
        <time>2017-02-12T09:07:13.000Z</time>
      </trkpt>
      <trkpt lat="47.46117" lon="6.73669">
        <ele>477</ele>
        <time>2017-02-12T09:07:14.000Z</time>
      </trkpt>
      <trkpt lat="47.46114" lon="6.73668">
        <ele>477</ele>
        <time>2017-02-12T09:07:15.000Z</time>
      </trkpt>
      <trkpt lat="47.46111" lon="6.73666">
        <ele>477.1</ele>
        <time>2017-02-12T09:07:16.000Z</time>
      </trkpt>
      <trkpt lat="47.46109" lon="6.73664">
        <ele>477.2</ele>
        <time>2017-02-12T09:07:17.000Z</time>
      </trkpt>
      <trkpt lat="47.46106" lon="6.73662">
        <ele>477.3</ele>
        <time>2017-02-12T09:07:18.000Z</time>
      </trkpt>
      <trkpt lat="47.46103" lon="6.73661">
        <ele>477.4</ele>
        <time>2017-02-12T09:07:19.000Z</time>
      </trkpt>
      <trkpt lat="47.46101" lon="6.73659">
        <ele>477.6</ele>
        <time>2017-02-12T09:07:20.000Z</time>
      </trkpt>
      <trkpt lat="47.46098" lon="6.73655">
        <ele>477.8</ele>
        <time>2017-02-12T09:07:22.000Z</time>
      </trkpt>
      <trkpt lat="47.46096" lon="6.73653">
        <ele>477.9</ele>
        <time>2017-02-12T09:07:23.000Z</time>
      </trkpt>
      <trkpt lat="47.46094" lon="6.73651">
        <ele>477.9</ele>
        <time>2017-02-12T09:07:24.000Z</time>
      </trkpt>
      <trkpt lat="47.46092" lon="6.73648">
        <ele>478</ele>
        <time>2017-02-12T09:07:25.000Z</time>
      </trkpt>
      <trkpt lat="47.4609" lon="6.73646">
        <ele>478.1</ele>
        <time>2017-02-12T09:07:26.000Z</time>
      </trkpt>
      <trkpt lat="47.46088" lon="6.73643">
        <ele>478.2</ele>
        <time>2017-02-12T09:07:27.000Z</time>
      </trkpt>
      <trkpt lat="47.46086" lon="6.73641">
        <ele>478.2</ele>
        <time>2017-02-12T09:07:28.000Z</time>
      </trkpt>
      <trkpt lat="47.46084" lon="6.73639">
        <ele>478.3</ele>
        <time>2017-02-12T09:07:29.000Z</time>
      </trkpt>
      <trkpt lat="47.46082" lon="6.73635">
        <ele>478.4</ele>
        <time>2017-02-12T09:07:30.000Z</time>
      </trkpt>
      <trkpt lat="47.4608" lon="6.73633">
        <ele>478.5</ele>
        <time>2017-02-12T09:07:31.000Z</time>
      </trkpt>
      <trkpt lat="47.46078" lon="6.73631">
        <ele>478.6</ele>
        <time>2017-02-12T09:07:32.000Z</time>
      </trkpt>
      <trkpt lat="47.46076" lon="6.7363">
        <ele>478.7</ele>
        <time>2017-02-12T09:07:33.000Z</time>
      </trkpt>
      <trkpt lat="47.46074" lon="6.73628">
        <ele>478.8</ele>
        <time>2017-02-12T09:07:34.000Z</time>
      </trkpt>
      <trkpt lat="47.46072" lon="6.73626">
        <ele>478.9</ele>
        <time>2017-02-12T09:07:35.000Z</time>
      </trkpt>
      <trkpt lat="47.4607" lon="6.73624">
        <ele>479</ele>
        <time>2017-02-12T09:07:36.000Z</time>
      </trkpt>
      <trkpt lat="47.46068" lon="6.73623">
        <ele>479.1</ele>
        <time>2017-02-12T09:07:37.000Z</time>
      </trkpt>
      <trkpt lat="47.46066" lon="6.73622">
        <ele>479.2</ele>
        <time>2017-02-12T09:07:38.000Z</time>
      </trkpt>
      <trkpt lat="47.46063" lon="6.7362">
        <ele>479.3</ele>
        <time>2017-02-12T09:07:39.000Z</time>
      </trkpt>
      <trkpt lat="47.46059" lon="6.73618">
        <ele>479.4</ele>
        <time>2017-02-12T09:07:41.000Z</time>
      </trkpt>
      <trkpt lat="47.46057" lon="6.73617">
        <ele>479.5</ele>
        <time>2017-02-12T09:07:42.000Z</time>
      </trkpt>
      <trkpt lat="47.46053" lon="6.73615">
        <ele>479.6</ele>
        <time>2017-02-12T09:07:44.000Z</time>
      </trkpt>
      <trkpt lat="47.4605" lon="6.73614">
        <ele>479.7</ele>
        <time>2017-02-12T09:07:45.000Z</time>
      </trkpt>
      <trkpt lat="47.46046" lon="6.73611">
        <ele>479.8</ele>
        <time>2017-02-12T09:07:47.000Z</time>
      </trkpt>
      <trkpt lat="47.46044" lon="6.73611">
        <ele>479.9</ele>
        <time>2017-02-12T09:07:48.000Z</time>
      </trkpt>
      <trkpt lat="47.4604" lon="6.73609">
        <ele>480.1</ele>
        <time>2017-02-12T09:07:50.000Z</time>
      </trkpt>
      <trkpt lat="47.46038" lon="6.73608">
        <ele>480.2</ele>
        <time>2017-02-12T09:07:51.000Z</time>
      </trkpt>
      <trkpt lat="47.46036" lon="6.73608">
        <ele>480.4</ele>
        <time>2017-02-12T09:07:52.000Z</time>
      </trkpt>
      <trkpt lat="47.46034" lon="6.73608">
        <ele>480.5</ele>
        <time>2017-02-12T09:07:53.000Z</time>
      </trkpt>
      <trkpt lat="47.46029" lon="6.73608">
        <ele>480.8</ele>
        <time>2017-02-12T09:07:55.000Z</time>
      </trkpt>
      <trkpt lat="47.46027" lon="6.73607">
        <ele>480.9</ele>
        <time>2017-02-12T09:07:56.000Z</time>
      </trkpt>
      <trkpt lat="47.46024" lon="6.73607">
        <ele>481</ele>
        <time>2017-02-12T09:07:57.000Z</time>
      </trkpt>
      <trkpt lat="47.46021" lon="6.73607">
        <ele>481.1</ele>
        <time>2017-02-12T09:07:58.000Z</time>
      </trkpt>
      <trkpt lat="47.46017" lon="6.73608">
        <ele>481.4</ele>
        <time>2017-02-12T09:08:00.000Z</time>
      </trkpt>
      <trkpt lat="47.46015" lon="6.73608">
        <ele>481.6</ele>
        <time>2017-02-12T09:08:01.000Z</time>
      </trkpt>
      <trkpt lat="47.4601" lon="6.73608">
        <ele>482</ele>
        <time>2017-02-12T09:08:03.000Z</time>
      </trkpt>
      <trkpt lat="47.46008" lon="6.73608">
        <ele>482.2</ele>
        <time>2017-02-12T09:08:04.000Z</time>
      </trkpt>
      <trkpt lat="47.46004" lon="6.73609">
        <ele>482.7</ele>
        <time>2017-02-12T09:08:06.000Z</time>
      </trkpt>
      <trkpt lat="47.46002" lon="6.7361">
        <ele>482.9</ele>
        <time>2017-02-12T09:08:07.000Z</time>
      </trkpt>
      <trkpt lat="47.45999" lon="6.7361">
        <ele>483.4</ele>
        <time>2017-02-12T09:08:10.000Z</time>
      </trkpt>
      <trkpt lat="47.45997" lon="6.7361">
        <ele>483.6</ele>
        <time>2017-02-12T09:08:11.000Z</time>
      </trkpt>
      <trkpt lat="47.45994" lon="6.73611">
        <ele>483.8</ele>
        <time>2017-02-12T09:08:12.000Z</time>
      </trkpt>
      <trkpt lat="47.45992" lon="6.73611">
        <ele>484</ele>
        <time>2017-02-12T09:08:13.000Z</time>
      </trkpt>
      <trkpt lat="47.45989" lon="6.73611">
        <ele>484.2</ele>
        <time>2017-02-12T09:08:14.000Z</time>
      </trkpt>
      <trkpt lat="47.45987" lon="6.73611">
        <ele>484.5</ele>
        <time>2017-02-12T09:08:15.000Z</time>
      </trkpt>
      <trkpt lat="47.45984" lon="6.73612">
        <ele>484.7</ele>
        <time>2017-02-12T09:08:16.000Z</time>
      </trkpt>
      <trkpt lat="47.45981" lon="6.73612">
        <ele>485</ele>
        <time>2017-02-12T09:08:17.000Z</time>
      </trkpt>
      <trkpt lat="47.45978" lon="6.73612">
        <ele>485.3</ele>
        <time>2017-02-12T09:08:18.000Z</time>
      </trkpt>
      <trkpt lat="47.45975" lon="6.73613">
        <ele>485.6</ele>
        <time>2017-02-12T09:08:19.000Z</time>
      </trkpt>
      <trkpt lat="47.45973" lon="6.73613">
        <ele>485.9</ele>
        <time>2017-02-12T09:08:20.000Z</time>
      </trkpt>
      <trkpt lat="47.4597" lon="6.73613">
        <ele>486.2</ele>
        <time>2017-02-12T09:08:21.000Z</time>
      </trkpt>
      <trkpt lat="47.45968" lon="6.73614">
        <ele>486.5</ele>
        <time>2017-02-12T09:08:22.000Z</time>
      </trkpt>
      <trkpt lat="47.45966" lon="6.73615">
        <ele>486.8</ele>
        <time>2017-02-12T09:08:23.000Z</time>
      </trkpt>
      <trkpt lat="47.45963" lon="6.73617">
        <ele>487.1</ele>
        <time>2017-02-12T09:08:24.000Z</time>
      </trkpt>
      <trkpt lat="47.45961" lon="6.73618">
        <ele>487.3</ele>
        <time>2017-02-12T09:08:25.000Z</time>
      </trkpt>
      <trkpt lat="47.45957" lon="6.7362">
        <ele>487.8</ele>
        <time>2017-02-12T09:08:27.000Z</time>
      </trkpt>
      <trkpt lat="47.45955" lon="6.73621">
        <ele>488.1</ele>
        <time>2017-02-12T09:08:28.000Z</time>
      </trkpt>
      <trkpt lat="47.45951" lon="6.73623">
        <ele>488.8</ele>
        <time>2017-02-12T09:08:30.000Z</time>
      </trkpt>
      <trkpt lat="47.45949" lon="6.73624">
        <ele>489</ele>
        <time>2017-02-12T09:08:31.000Z</time>
      </trkpt>
      <trkpt lat="47.45945" lon="6.73626">
        <ele>489.5</ele>
        <time>2017-02-12T09:08:33.000Z</time>
      </trkpt>
      <trkpt lat="47.45943" lon="6.73628">
        <ele>489.7</ele>
        <time>2017-02-12T09:08:34.000Z</time>
      </trkpt>
      <trkpt lat="47.4594" lon="6.7363">
        <ele>489.9</ele>
        <time>2017-02-12T09:08:35.000Z</time>
      </trkpt>
      <trkpt lat="47.45938" lon="6.73632">
        <ele>490.2</ele>
        <time>2017-02-12T09:08:36.000Z</time>
      </trkpt>
      <trkpt lat="47.45936" lon="6.73634">
        <ele>490.4</ele>
        <time>2017-02-12T09:08:37.000Z</time>
      </trkpt>
      <trkpt lat="47.45933" lon="6.73636">
        <ele>490.7</ele>
        <time>2017-02-12T09:08:38.000Z</time>
      </trkpt>
      <trkpt lat="47.45931" lon="6.73638">
        <ele>490.9</ele>
        <time>2017-02-12T09:08:39.000Z</time>
      </trkpt>
      <trkpt lat="47.45929" lon="6.73641">
        <ele>491.1</ele>
        <time>2017-02-12T09:08:40.000Z</time>
      </trkpt>
      <trkpt lat="47.45926" lon="6.73643">
        <ele>491.3</ele>
        <time>2017-02-12T09:08:41.000Z</time>
      </trkpt>
      <trkpt lat="47.45925" lon="6.73644">
        <ele>491.5</ele>
        <time>2017-02-12T09:08:42.000Z</time>
      </trkpt>
      <trkpt lat="47.45921" lon="6.73645">
        <ele>491.8</ele>
        <time>2017-02-12T09:08:44.000Z</time>
      </trkpt>
      <trkpt lat="47.45919" lon="6.73646">
        <ele>492</ele>
        <time>2017-02-12T09:08:45.000Z</time>
      </trkpt>
      <trkpt lat="47.45914" lon="6.73646">
        <ele>492.2</ele>
        <time>2017-02-12T09:08:47.000Z</time>
      </trkpt>
      <trkpt lat="47.45912" lon="6.73647">
        <ele>492.3</ele>
        <time>2017-02-12T09:08:48.000Z</time>
      </trkpt>
      <trkpt lat="47.45908" lon="6.73647">
        <ele>492.7</ele>
        <time>2017-02-12T09:08:50.000Z</time>
      </trkpt>
      <trkpt lat="47.45906" lon="6.73648">
        <ele>492.8</ele>
        <time>2017-02-12T09:08:51.000Z</time>
      </trkpt>
      <trkpt lat="47.45904" lon="6.73648">
        <ele>493.1</ele>
        <time>2017-02-12T09:08:52.000Z</time>
      </trkpt>
      <trkpt lat="47.45901" lon="6.73648">
        <ele>493.3</ele>
        <time>2017-02-12T09:08:53.000Z</time>
      </trkpt>
      <trkpt lat="47.45898" lon="6.73647">
        <ele>493.5</ele>
        <time>2017-02-12T09:08:54.000Z</time>
      </trkpt>
      <trkpt lat="47.45895" lon="6.73647">
        <ele>493.7</ele>
        <time>2017-02-12T09:08:55.000Z</time>
      </trkpt>
      <trkpt lat="47.45892" lon="6.73647">
        <ele>493.9</ele>
        <time>2017-02-12T09:08:56.000Z</time>
      </trkpt>
      <trkpt lat="47.4589" lon="6.73647">
        <ele>494</ele>
        <time>2017-02-12T09:08:57.000Z</time>
      </trkpt>
      <trkpt lat="47.45888" lon="6.73647">
        <ele>494.1</ele>
        <time>2017-02-12T09:08:58.000Z</time>
      </trkpt>
      <trkpt lat="47.45886" lon="6.73647">
        <ele>494.3</ele>
        <time>2017-02-12T09:08:59.000Z</time>
      </trkpt>
      <trkpt lat="47.45882" lon="6.73646">
        <ele>494.5</ele>
        <time>2017-02-12T09:09:01.000Z</time>
      </trkpt>
      <trkpt lat="47.4588" lon="6.73647">
        <ele>494.6</ele>
        <time>2017-02-12T09:09:02.000Z</time>
      </trkpt>
      <trkpt lat="47.45879" lon="6.73647">
        <ele>494.7</ele>
        <time>2017-02-12T09:09:03.000Z</time>
      </trkpt>
      <trkpt lat="47.45876" lon="6.73648">
        <ele>494.8</ele>
        <time>2017-02-12T09:09:04.000Z</time>
      </trkpt>
      <trkpt lat="47.45871" lon="6.73648">
        <ele>495.1</ele>
        <time>2017-02-12T09:09:06.000Z</time>
      </trkpt>
      <trkpt lat="47.45869" lon="6.73648">
        <ele>495.2</ele>
        <time>2017-02-12T09:09:07.000Z</time>
      </trkpt>
      <trkpt lat="47.45865" lon="6.73648">
        <ele>495.5</ele>
        <time>2017-02-12T09:09:09.000Z</time>
      </trkpt>
      <trkpt lat="47.45863" lon="6.73648">
        <ele>495.7</ele>
        <time>2017-02-12T09:09:10.000Z</time>
      </trkpt>
      <trkpt lat="47.4586" lon="6.73647">
        <ele>496.2</ele>
        <time>2017-02-12T09:09:12.000Z</time>
      </trkpt>
      <trkpt lat="47.45857" lon="6.73648">
        <ele>496.4</ele>
        <time>2017-02-12T09:09:13.000Z</time>
      </trkpt>
      <trkpt lat="47.45854" lon="6.73648">
        <ele>496.6</ele>
        <time>2017-02-12T09:09:14.000Z</time>
      </trkpt>
      <trkpt lat="47.45851" lon="6.73648">
        <ele>496.8</ele>
        <time>2017-02-12T09:09:15.000Z</time>
      </trkpt>
      <trkpt lat="47.45848" lon="6.73648">
        <ele>496.9</ele>
        <time>2017-02-12T09:09:16.000Z</time>
      </trkpt>
      <trkpt lat="47.45845" lon="6.73648">
        <ele>497.1</ele>
        <time>2017-02-12T09:09:17.000Z</time>
      </trkpt>
      <trkpt lat="47.45842" lon="6.73648">
        <ele>497.2</ele>
        <time>2017-02-12T09:09:18.000Z</time>
      </trkpt>
      <trkpt lat="47.4584" lon="6.73649">
        <ele>497.4</ele>
        <time>2017-02-12T09:09:19.000Z</time>
      </trkpt>
      <trkpt lat="47.45836" lon="6.7365">
        <ele>497.7</ele>
        <time>2017-02-12T09:09:21.000Z</time>
      </trkpt>
      <trkpt lat="47.45833" lon="6.73651">
        <ele>497.8</ele>
        <time>2017-02-12T09:09:22.000Z</time>
      </trkpt>
      <trkpt lat="47.45829" lon="6.73651">
        <ele>498.2</ele>
        <time>2017-02-12T09:09:24.000Z</time>
      </trkpt>
      <trkpt lat="47.45827" lon="6.73651">
        <ele>498.4</ele>
        <time>2017-02-12T09:09:25.000Z</time>
      </trkpt>
      <trkpt lat="47.45824" lon="6.73651">
        <ele>498.5</ele>
        <time>2017-02-12T09:09:26.000Z</time>
      </trkpt>
      <trkpt lat="47.45821" lon="6.73651">
        <ele>498.8</ele>
        <time>2017-02-12T09:09:27.000Z</time>
      </trkpt>
      <trkpt lat="47.45817" lon="6.73651">
        <ele>499.1</ele>
        <time>2017-02-12T09:09:29.000Z</time>
      </trkpt>
      <trkpt lat="47.45815" lon="6.73651">
        <ele>499.3</ele>
        <time>2017-02-12T09:09:30.000Z</time>
      </trkpt>
      <trkpt lat="47.45811" lon="6.73651">
        <ele>499.5</ele>
        <time>2017-02-12T09:09:32.000Z</time>
      </trkpt>
      <trkpt lat="47.45809" lon="6.73651">
        <ele>499.6</ele>
        <time>2017-02-12T09:09:33.000Z</time>
      </trkpt>
      <trkpt lat="47.45804" lon="6.73652">
        <ele>499.8</ele>
        <time>2017-02-12T09:09:35.000Z</time>
      </trkpt>
      <trkpt lat="47.45802" lon="6.73653">
        <ele>499.9</ele>
        <time>2017-02-12T09:09:36.000Z</time>
      </trkpt>
      <trkpt lat="47.45799" lon="6.73653">
        <ele>500</ele>
        <time>2017-02-12T09:09:37.000Z</time>
      </trkpt>
      <trkpt lat="47.45797" lon="6.73654">
        <ele>500.2</ele>
        <time>2017-02-12T09:09:38.000Z</time>
      </trkpt>
      <trkpt lat="47.45794" lon="6.73654">
        <ele>500.3</ele>
        <time>2017-02-12T09:09:39.000Z</time>
      </trkpt>
      <trkpt lat="47.45791" lon="6.73654">
        <ele>500.5</ele>
        <time>2017-02-12T09:09:40.000Z</time>
      </trkpt>
      <trkpt lat="47.45789" lon="6.73655">
        <ele>500.6</ele>
        <time>2017-02-12T09:09:41.000Z</time>
      </trkpt>
      <trkpt lat="47.45787" lon="6.73655">
        <ele>500.8</ele>
        <time>2017-02-12T09:09:42.000Z</time>
      </trkpt>
      <trkpt lat="47.45783" lon="6.73655">
        <ele>501</ele>
        <time>2017-02-12T09:09:44.000Z</time>
      </trkpt>
      <trkpt lat="47.45781" lon="6.73655">
        <ele>501.2</ele>
        <time>2017-02-12T09:09:45.000Z</time>
      </trkpt>
      <trkpt lat="47.45777" lon="6.73656">
        <ele>501.5</ele>
        <time>2017-02-12T09:09:47.000Z</time>
      </trkpt>
      <trkpt lat="47.45775" lon="6.73656">
        <ele>501.6</ele>
        <time>2017-02-12T09:09:48.000Z</time>
      </trkpt>
      <trkpt lat="47.4577" lon="6.73657">
        <ele>502</ele>
        <time>2017-02-12T09:09:50.000Z</time>
      </trkpt>
      <trkpt lat="47.45768" lon="6.73657">
        <ele>502.1</ele>
        <time>2017-02-12T09:09:51.000Z</time>
      </trkpt>
      <trkpt lat="47.45765" lon="6.73657">
        <ele>502.2</ele>
        <time>2017-02-12T09:09:52.000Z</time>
      </trkpt>
      <trkpt lat="47.45762" lon="6.73657">
        <ele>502.3</ele>
        <time>2017-02-12T09:09:53.000Z</time>
      </trkpt>
      <trkpt lat="47.45759" lon="6.73657">
        <ele>502.5</ele>
        <time>2017-02-12T09:09:54.000Z</time>
      </trkpt>
      <trkpt lat="47.45756" lon="6.73657">
        <ele>502.6</ele>
        <time>2017-02-12T09:09:55.000Z</time>
      </trkpt>
      <trkpt lat="47.45753" lon="6.73657">
        <ele>502.8</ele>
        <time>2017-02-12T09:09:56.000Z</time>
      </trkpt>
      <trkpt lat="47.4575" lon="6.73658">
        <ele>502.9</ele>
        <time>2017-02-12T09:09:57.000Z</time>
      </trkpt>
      <trkpt lat="47.45747" lon="6.73658">
        <ele>503.1</ele>
        <time>2017-02-12T09:09:58.000Z</time>
      </trkpt>
      <trkpt lat="47.45745" lon="6.73658">
        <ele>503.2</ele>
        <time>2017-02-12T09:09:59.000Z</time>
      </trkpt>
      <trkpt lat="47.45741" lon="6.73658">
        <ele>503.4</ele>
        <time>2017-02-12T09:10:01.000Z</time>
      </trkpt>
      <trkpt lat="47.45738" lon="6.73659">
        <ele>503.5</ele>
        <time>2017-02-12T09:10:02.000Z</time>
      </trkpt>
      <trkpt lat="47.45736" lon="6.73659">
        <ele>503.7</ele>
        <time>2017-02-12T09:10:03.000Z</time>
      </trkpt>
      <trkpt lat="47.45734" lon="6.73659">
        <ele>503.8</ele>
        <time>2017-02-12T09:10:04.000Z</time>
      </trkpt>
      <trkpt lat="47.4573" lon="6.73659">
        <ele>504.1</ele>
        <time>2017-02-12T09:10:06.000Z</time>
      </trkpt>
      <trkpt lat="47.45728" lon="6.73659">
        <ele>504.2</ele>
        <time>2017-02-12T09:10:07.000Z</time>
      </trkpt>
      <trkpt lat="47.45725" lon="6.7366">
        <ele>504.5</ele>
        <time>2017-02-12T09:10:09.000Z</time>
      </trkpt>
      <trkpt lat="47.45723" lon="6.7366">
        <ele>504.6</ele>
        <time>2017-02-12T09:10:10.000Z</time>
      </trkpt>
      <trkpt lat="47.45721" lon="6.7366">
        <ele>504.8</ele>
        <time>2017-02-12T09:10:11.000Z</time>
      </trkpt>
      <trkpt lat="47.45718" lon="6.7366">
        <ele>504.9</ele>
        <time>2017-02-12T09:10:12.000Z</time>
      </trkpt>
      <trkpt lat="47.45715" lon="6.73661">
        <ele>505</ele>
        <time>2017-02-12T09:10:13.000Z</time>
      </trkpt>
      <trkpt lat="47.45713" lon="6.73661">
        <ele>505.1</ele>
        <time>2017-02-12T09:10:14.000Z</time>
      </trkpt>
      <trkpt lat="47.45709" lon="6.73661">
        <ele>505.3</ele>
        <time>2017-02-12T09:10:16.000Z</time>
      </trkpt>
      <trkpt lat="47.45706" lon="6.73661">
        <ele>505.3</ele>
        <time>2017-02-12T09:10:17.000Z</time>
      </trkpt>
      <trkpt lat="47.45703" lon="6.73661">
        <ele>505.3</ele>
        <time>2017-02-12T09:10:18.000Z</time>
      </trkpt>
      <trkpt lat="47.45701" lon="6.73661">
        <ele>505.3</ele>
        <time>2017-02-12T09:10:19.000Z</time>
      </trkpt>
      <trkpt lat="47.45699" lon="6.73661">
        <ele>505.2</ele>
        <time>2017-02-12T09:10:20.000Z</time>
      </trkpt>
      <trkpt lat="47.45696" lon="6.73661">
        <ele>505.3</ele>
        <time>2017-02-12T09:10:21.000Z</time>
      </trkpt>
      <trkpt lat="47.45693" lon="6.73661">
        <ele>505.4</ele>
        <time>2017-02-12T09:10:22.000Z</time>
      </trkpt>
      <trkpt lat="47.4569" lon="6.73661">
        <ele>505.5</ele>
        <time>2017-02-12T09:10:23.000Z</time>
      </trkpt>
      <trkpt lat="47.45687" lon="6.73662">
        <ele>505.6</ele>
        <time>2017-02-12T09:10:24.000Z</time>
      </trkpt>
      <trkpt lat="47.45684" lon="6.73662">
        <ele>505.8</ele>
        <time>2017-02-12T09:10:25.000Z</time>
      </trkpt>
      <trkpt lat="47.45682" lon="6.73662">
        <ele>505.9</ele>
        <time>2017-02-12T09:10:26.000Z</time>
      </trkpt>
      <trkpt lat="47.4568" lon="6.73661">
        <ele>506.1</ele>
        <time>2017-02-12T09:10:27.000Z</time>
      </trkpt>
      <trkpt lat="47.45675" lon="6.73662">
        <ele>506.3</ele>
        <time>2017-02-12T09:10:29.000Z</time>
      </trkpt>
      <trkpt lat="47.45673" lon="6.73662">
        <ele>506.4</ele>
        <time>2017-02-12T09:10:30.000Z</time>
      </trkpt>
      <trkpt lat="47.4567" lon="6.73663">
        <ele>506.7</ele>
        <time>2017-02-12T09:10:32.000Z</time>
      </trkpt>
      <trkpt lat="47.45668" lon="6.73663">
        <ele>506.8</ele>
        <time>2017-02-12T09:10:33.000Z</time>
      </trkpt>
      <trkpt lat="47.45663" lon="6.73663">
        <ele>507.2</ele>
        <time>2017-02-12T09:10:37.000Z</time>
      </trkpt>
      <trkpt lat="47.45663" lon="6.73663">
        <ele>507.3</ele>
        <time>2017-02-12T09:10:38.000Z</time>
      </trkpt>
      <trkpt lat="47.45659" lon="6.73665">
        <ele>507.8</ele>
        <time>2017-02-12T09:10:51.000Z</time>
      </trkpt>
      <trkpt lat="47.45658" lon="6.73665">
        <ele>507.8</ele>
        <time>2017-02-12T09:10:52.000Z</time>
      </trkpt>
      <trkpt lat="47.45655" lon="6.73667">
        <ele>507.6</ele>
        <time>2017-02-12T09:10:58.000Z</time>
      </trkpt>
      <trkpt lat="47.45654" lon="6.73668">
        <ele>507.7</ele>
        <time>2017-02-12T09:10:59.000Z</time>
      </trkpt>
      <trkpt lat="47.4565" lon="6.73669">
        <ele>507.9</ele>
        <time>2017-02-12T09:11:02.000Z</time>
      </trkpt>
      <trkpt lat="47.45648" lon="6.7367">
        <ele>508</ele>
        <time>2017-02-12T09:11:03.000Z</time>
      </trkpt>
      <trkpt lat="47.45645" lon="6.7367">
        <ele>508.1</ele>
        <time>2017-02-12T09:11:05.000Z</time>
      </trkpt>
      <trkpt lat="47.45643" lon="6.7367">
        <ele>508.2</ele>
        <time>2017-02-12T09:11:06.000Z</time>
      </trkpt>
      <trkpt lat="47.45642" lon="6.73671">
        <ele>508.1</ele>
        <time>2017-02-12T09:11:07.000Z</time>
      </trkpt>
      <trkpt lat="47.45639" lon="6.73671">
        <ele>508.1</ele>
        <time>2017-02-12T09:11:08.000Z</time>
      </trkpt>
      <trkpt lat="47.45634" lon="6.73672">
        <ele>508.2</ele>
        <time>2017-02-12T09:11:10.000Z</time>
      </trkpt>
      <trkpt lat="47.45633" lon="6.73672">
        <ele>508.2</ele>
        <time>2017-02-12T09:11:11.000Z</time>
      </trkpt>
      <trkpt lat="47.45629" lon="6.73672">
        <ele>508.2</ele>
        <time>2017-02-12T09:11:13.000Z</time>
      </trkpt>
      <trkpt lat="47.45627" lon="6.73672">
        <ele>508.2</ele>
        <time>2017-02-12T09:11:14.000Z</time>
      </trkpt>
      <trkpt lat="47.45622" lon="6.73673">
        <ele>508.3</ele>
        <time>2017-02-12T09:11:16.000Z</time>
      </trkpt>
      <trkpt lat="47.4562" lon="6.73673">
        <ele>508.3</ele>
        <time>2017-02-12T09:11:17.000Z</time>
      </trkpt>
      <trkpt lat="47.45617" lon="6.73673">
        <ele>508.4</ele>
        <time>2017-02-12T09:11:18.000Z</time>
      </trkpt>
      <trkpt lat="47.45615" lon="6.73673">
        <ele>508.4</ele>
        <time>2017-02-12T09:11:19.000Z</time>
      </trkpt>
      <trkpt lat="47.45613" lon="6.73672">
        <ele>508.4</ele>
        <time>2017-02-12T09:11:20.000Z</time>
      </trkpt>
      <trkpt lat="47.4561" lon="6.73672">
        <ele>508.5</ele>
        <time>2017-02-12T09:11:21.000Z</time>
      </trkpt>
      <trkpt lat="47.45607" lon="6.73671">
        <ele>508.5</ele>
        <time>2017-02-12T09:11:22.000Z</time>
      </trkpt>
      <trkpt lat="47.45604" lon="6.7367">
        <ele>508.6</ele>
        <time>2017-02-12T09:11:23.000Z</time>
      </trkpt>
      <trkpt lat="47.45601" lon="6.73669">
        <ele>508.7</ele>
        <time>2017-02-12T09:11:24.000Z</time>
      </trkpt>
      <trkpt lat="47.45598" lon="6.73669">
        <ele>508.8</ele>
        <time>2017-02-12T09:11:25.000Z</time>
      </trkpt>
      <trkpt lat="47.45596" lon="6.73668">
        <ele>508.9</ele>
        <time>2017-02-12T09:11:26.000Z</time>
      </trkpt>
      <trkpt lat="47.45593" lon="6.73668">
        <ele>508.9</ele>
        <time>2017-02-12T09:11:27.000Z</time>
      </trkpt>
      <trkpt lat="47.45589" lon="6.73668">
        <ele>509.2</ele>
        <time>2017-02-12T09:11:29.000Z</time>
      </trkpt>
      <trkpt lat="47.45587" lon="6.73669">
        <ele>509.2</ele>
        <time>2017-02-12T09:11:30.000Z</time>
      </trkpt>
      <trkpt lat="47.45583" lon="6.73669">
        <ele>509.2</ele>
        <time>2017-02-12T09:11:32.000Z</time>
      </trkpt>
      <trkpt lat="47.4558" lon="6.73669">
        <ele>509.3</ele>
        <time>2017-02-12T09:11:33.000Z</time>
      </trkpt>
      <trkpt lat="47.45577" lon="6.73669">
        <ele>509.4</ele>
        <time>2017-02-12T09:11:34.000Z</time>
      </trkpt>
      <trkpt lat="47.45574" lon="6.7367">
        <ele>509.6</ele>
        <time>2017-02-12T09:11:35.000Z</time>
      </trkpt>
      <trkpt lat="47.45572" lon="6.73669">
        <ele>509.8</ele>
        <time>2017-02-12T09:11:36.000Z</time>
      </trkpt>
      <trkpt lat="47.45569" lon="6.73668">
        <ele>509.9</ele>
        <time>2017-02-12T09:11:37.000Z</time>
      </trkpt>
      <trkpt lat="47.45566" lon="6.73668">
        <ele>510.2</ele>
        <time>2017-02-12T09:11:38.000Z</time>
      </trkpt>
      <trkpt lat="47.45564" lon="6.73668">
        <ele>510.4</ele>
        <time>2017-02-12T09:11:39.000Z</time>
      </trkpt>
      <trkpt lat="47.45561" lon="6.73666">
        <ele>510.5</ele>
        <time>2017-02-12T09:11:40.000Z</time>
      </trkpt>
      <trkpt lat="47.45558" lon="6.73665">
        <ele>510.7</ele>
        <time>2017-02-12T09:11:41.000Z</time>
      </trkpt>
      <trkpt lat="47.45555" lon="6.73664">
        <ele>510.8</ele>
        <time>2017-02-12T09:11:42.000Z</time>
      </trkpt>
      <trkpt lat="47.45553" lon="6.73664">
        <ele>510.9</ele>
        <time>2017-02-12T09:11:43.000Z</time>
      </trkpt>
      <trkpt lat="47.4555" lon="6.73663">
        <ele>511</ele>
        <time>2017-02-12T09:11:44.000Z</time>
      </trkpt>
      <trkpt lat="47.45547" lon="6.73662">
        <ele>511.1</ele>
        <time>2017-02-12T09:11:45.000Z</time>
      </trkpt>
      <trkpt lat="47.45543" lon="6.7366">
        <ele>511.2</ele>
        <time>2017-02-12T09:11:47.000Z</time>
      </trkpt>
      <trkpt lat="47.45542" lon="6.73659">
        <ele>511.1</ele>
        <time>2017-02-12T09:11:48.000Z</time>
      </trkpt>
      <trkpt lat="47.45539" lon="6.73658">
        <ele>511</ele>
        <time>2017-02-12T09:11:49.000Z</time>
      </trkpt>
      <trkpt lat="47.45535" lon="6.73657">
        <ele>511</ele>
        <time>2017-02-12T09:11:50.000Z</time>
      </trkpt>
      <trkpt lat="47.45532" lon="6.73655">
        <ele>510.7</ele>
        <time>2017-02-12T09:11:52.000Z</time>
      </trkpt>
      <trkpt lat="47.45529" lon="6.73653">
        <ele>510.6</ele>
        <time>2017-02-12T09:11:53.000Z</time>
      </trkpt>
      <trkpt lat="47.45526" lon="6.73651">
        <ele>510.6</ele>
        <time>2017-02-12T09:11:54.000Z</time>
      </trkpt>
      <trkpt lat="47.45521" lon="6.73648">
        <ele>510.5</ele>
        <time>2017-02-12T09:11:55.000Z</time>
      </trkpt>
      <trkpt lat="47.45519" lon="6.73646">
        <ele>510.4</ele>
        <time>2017-02-12T09:11:56.000Z</time>
      </trkpt>
      <trkpt lat="47.45517" lon="6.73643">
        <ele>510.4</ele>
        <time>2017-02-12T09:11:57.000Z</time>
      </trkpt>
      <trkpt lat="47.45513" lon="6.73641">
        <ele>510.5</ele>
        <time>2017-02-12T09:11:58.000Z</time>
      </trkpt>
      <trkpt lat="47.4551" lon="6.73638">
        <ele>510.5</ele>
        <time>2017-02-12T09:11:59.000Z</time>
      </trkpt>
      <trkpt lat="47.45507" lon="6.73635">
        <ele>510.6</ele>
        <time>2017-02-12T09:12:00.000Z</time>
      </trkpt>
      <trkpt lat="47.45503" lon="6.73632">
        <ele>510.6</ele>
        <time>2017-02-12T09:12:01.000Z</time>
      </trkpt>
      <trkpt lat="47.45499" lon="6.73629">
        <ele>510.6</ele>
        <time>2017-02-12T09:12:02.000Z</time>
      </trkpt>
      <trkpt lat="47.45496" lon="6.73625">
        <ele>510.5</ele>
        <time>2017-02-12T09:12:03.000Z</time>
      </trkpt>
      <trkpt lat="47.45494" lon="6.73622">
        <ele>510.5</ele>
        <time>2017-02-12T09:12:04.000Z</time>
      </trkpt>
      <trkpt lat="47.45493" lon="6.7362">
        <ele>510.5</ele>
        <time>2017-02-12T09:12:05.000Z</time>
      </trkpt>
      <trkpt lat="47.45491" lon="6.73618">
        <ele>510.5</ele>
        <time>2017-02-12T09:12:08.000Z</time>
      </trkpt>
      <trkpt lat="47.45488" lon="6.73614">
        <ele>510.4</ele>
        <time>2017-02-12T09:12:09.000Z</time>
      </trkpt>
      <trkpt lat="47.45487" lon="6.73611">
        <ele>510.4</ele>
        <time>2017-02-12T09:12:10.000Z</time>
      </trkpt>
      <trkpt lat="47.45485" lon="6.73608">
        <ele>510.4</ele>
        <time>2017-02-12T09:12:11.000Z</time>
      </trkpt>
      <trkpt lat="47.45483" lon="6.73603">
        <ele>510.5</ele>
        <time>2017-02-12T09:12:12.000Z</time>
      </trkpt>
      <trkpt lat="47.4548" lon="6.73598">
        <ele>510.5</ele>
        <time>2017-02-12T09:12:13.000Z</time>
      </trkpt>
      <trkpt lat="47.45479" lon="6.73593">
        <ele>510.5</ele>
        <time>2017-02-12T09:12:14.000Z</time>
      </trkpt>
      <trkpt lat="47.45478" lon="6.73585">
        <ele>510.5</ele>
        <time>2017-02-12T09:12:15.000Z</time>
      </trkpt>
      <trkpt lat="47.45476" lon="6.73577">
        <ele>510.8</ele>
        <time>2017-02-12T09:12:16.000Z</time>
      </trkpt>
      <trkpt lat="47.45474" lon="6.7357">
        <ele>510.8</ele>
        <time>2017-02-12T09:12:17.000Z</time>
      </trkpt>
      <trkpt lat="47.45472" lon="6.73563">
        <ele>510.8</ele>
        <time>2017-02-12T09:12:18.000Z</time>
      </trkpt>
      <trkpt lat="47.4547" lon="6.73557">
        <ele>510.9</ele>
        <time>2017-02-12T09:12:19.000Z</time>
      </trkpt>
      <trkpt lat="47.45468" lon="6.73553">
        <ele>510.9</ele>
        <time>2017-02-12T09:12:20.000Z</time>
      </trkpt>
      <trkpt lat="47.45467" lon="6.73549">
        <ele>510.9</ele>
        <time>2017-02-12T09:12:21.000Z</time>
      </trkpt>
      <trkpt lat="47.45465" lon="6.73546">
        <ele>511</ele>
        <time>2017-02-12T09:12:22.000Z</time>
      </trkpt>
      <trkpt lat="47.45464" lon="6.73543">
        <ele>511</ele>
        <time>2017-02-12T09:12:23.000Z</time>
      </trkpt>
      <trkpt lat="47.45462" lon="6.73539">
        <ele>511.1</ele>
        <time>2017-02-12T09:12:24.000Z</time>
      </trkpt>
      <trkpt lat="47.45461" lon="6.73536">
        <ele>511.1</ele>
        <time>2017-02-12T09:12:25.000Z</time>
      </trkpt>
      <trkpt lat="47.45459" lon="6.73531">
        <ele>511.1</ele>
        <time>2017-02-12T09:12:26.000Z</time>
      </trkpt>
      <trkpt lat="47.45458" lon="6.73528">
        <ele>511.1</ele>
        <time>2017-02-12T09:12:27.000Z</time>
      </trkpt>
      <trkpt lat="47.45457" lon="6.73524">
        <ele>511</ele>
        <time>2017-02-12T09:12:28.000Z</time>
      </trkpt>
      <trkpt lat="47.45457" lon="6.73517">
        <ele>511</ele>
        <time>2017-02-12T09:12:30.000Z</time>
      </trkpt>
      <trkpt lat="47.45457" lon="6.73515">
        <ele>511</ele>
        <time>2017-02-12T09:12:31.000Z</time>
      </trkpt>
      <trkpt lat="47.45457" lon="6.7351">
        <ele>510.9</ele>
        <time>2017-02-12T09:12:33.000Z</time>
      </trkpt>
      <trkpt lat="47.45457" lon="6.73507">
        <ele>510.9</ele>
        <time>2017-02-12T09:12:34.000Z</time>
      </trkpt>
      <trkpt lat="47.45457" lon="6.73504">
        <ele>510.9</ele>
        <time>2017-02-12T09:12:35.000Z</time>
      </trkpt>
      <trkpt lat="47.45457" lon="6.735">
        <ele>510.8</ele>
        <time>2017-02-12T09:12:36.000Z</time>
      </trkpt>
      <trkpt lat="47.45457" lon="6.73495">
        <ele>510.7</ele>
        <time>2017-02-12T09:12:37.000Z</time>
      </trkpt>
      <trkpt lat="47.45457" lon="6.73491">
        <ele>510.7</ele>
        <time>2017-02-12T09:12:38.000Z</time>
      </trkpt>
      <trkpt lat="47.45456" lon="6.73486">
        <ele>510.7</ele>
        <time>2017-02-12T09:12:40.000Z</time>
      </trkpt>
      <trkpt lat="47.45455" lon="6.73481">
        <ele>510.8</ele>
        <time>2017-02-12T09:12:41.000Z</time>
      </trkpt>
      <trkpt lat="47.45454" lon="6.73475">
        <ele>511</ele>
        <time>2017-02-12T09:12:43.000Z</time>
      </trkpt>
      <trkpt lat="47.45454" lon="6.73473">
        <ele>511.1</ele>
        <time>2017-02-12T09:12:44.000Z</time>
      </trkpt>
      <trkpt lat="47.45454" lon="6.73468">
        <ele>511.2</ele>
        <time>2017-02-12T09:12:45.000Z</time>
      </trkpt>
      <trkpt lat="47.45454" lon="6.73463">
        <ele>511.4</ele>
        <time>2017-02-12T09:12:46.000Z</time>
      </trkpt>
      <trkpt lat="47.45454" lon="6.73459">
        <ele>511.5</ele>
        <time>2017-02-12T09:12:47.000Z</time>
      </trkpt>
      <trkpt lat="47.45453" lon="6.73454">
        <ele>511.8</ele>
        <time>2017-02-12T09:12:48.000Z</time>
      </trkpt>
      <trkpt lat="47.45453" lon="6.73449">
        <ele>512.1</ele>
        <time>2017-02-12T09:12:49.000Z</time>
      </trkpt>
      <trkpt lat="47.45453" lon="6.73444">
        <ele>512.5</ele>
        <time>2017-02-12T09:12:50.000Z</time>
      </trkpt>
      <trkpt lat="47.45453" lon="6.73438">
        <ele>512.8</ele>
        <time>2017-02-12T09:12:51.000Z</time>
      </trkpt>
      <trkpt lat="47.45454" lon="6.73434">
        <ele>513.1</ele>
        <time>2017-02-12T09:12:52.000Z</time>
      </trkpt>
      <trkpt lat="47.45455" lon="6.7343">
        <ele>513.4</ele>
        <time>2017-02-12T09:12:53.000Z</time>
      </trkpt>
      <trkpt lat="47.45455" lon="6.73425">
        <ele>513.7</ele>
        <time>2017-02-12T09:12:54.000Z</time>
      </trkpt>
      <trkpt lat="47.45456" lon="6.73421">
        <ele>513.9</ele>
        <time>2017-02-12T09:12:55.000Z</time>
      </trkpt>
      <trkpt lat="47.45457" lon="6.73418">
        <ele>514.1</ele>
        <time>2017-02-12T09:12:56.000Z</time>
      </trkpt>
      <trkpt lat="47.45457" lon="6.73414">
        <ele>514.4</ele>
        <time>2017-02-12T09:12:57.000Z</time>
      </trkpt>
      <trkpt lat="47.45459" lon="6.73409">
        <ele>514.6</ele>
        <time>2017-02-12T09:12:58.000Z</time>
      </trkpt>
      <trkpt lat="47.4546" lon="6.73405">
        <ele>514.9</ele>
        <time>2017-02-12T09:12:59.000Z</time>
      </trkpt>
      <trkpt lat="47.45462" lon="6.73402">
        <ele>515</ele>
        <time>2017-02-12T09:13:00.000Z</time>
      </trkpt>
      <trkpt lat="47.45463" lon="6.73399">
        <ele>515.2</ele>
        <time>2017-02-12T09:13:01.000Z</time>
      </trkpt>
      <trkpt lat="47.45464" lon="6.73392">
        <ele>515.3</ele>
        <time>2017-02-12T09:13:02.000Z</time>
      </trkpt>
      <trkpt lat="47.45464" lon="6.73387">
        <ele>515.4</ele>
        <time>2017-02-12T09:13:03.000Z</time>
      </trkpt>
      <trkpt lat="47.45464" lon="6.73383">
        <ele>515.4</ele>
        <time>2017-02-12T09:13:04.000Z</time>
      </trkpt>
      <trkpt lat="47.45465" lon="6.73377">
        <ele>515.4</ele>
        <time>2017-02-12T09:13:06.000Z</time>
      </trkpt>
      <trkpt lat="47.45465" lon="6.73373">
        <ele>515.5</ele>
        <time>2017-02-12T09:13:07.000Z</time>
      </trkpt>
      <trkpt lat="47.45466" lon="6.7337">
        <ele>515.6</ele>
        <time>2017-02-12T09:13:08.000Z</time>
      </trkpt>
      <trkpt lat="47.45467" lon="6.73366">
        <ele>515.7</ele>
        <time>2017-02-12T09:13:09.000Z</time>
      </trkpt>
      <trkpt lat="47.45469" lon="6.73361">
        <ele>515.8</ele>
        <time>2017-02-12T09:13:10.000Z</time>
      </trkpt>
      <trkpt lat="47.45472" lon="6.73357">
        <ele>515.9</ele>
        <time>2017-02-12T09:13:11.000Z</time>
      </trkpt>
      <trkpt lat="47.45474" lon="6.73355">
        <ele>516</ele>
        <time>2017-02-12T09:13:12.000Z</time>
      </trkpt>
      <trkpt lat="47.45477" lon="6.73352">
        <ele>516.2</ele>
        <time>2017-02-12T09:13:13.000Z</time>
      </trkpt>
      <trkpt lat="47.45479" lon="6.73348">
        <ele>516.3</ele>
        <time>2017-02-12T09:13:15.000Z</time>
      </trkpt>
      <trkpt lat="47.45482" lon="6.73346">
        <ele>516.4</ele>
        <time>2017-02-12T09:13:16.000Z</time>
      </trkpt>
      <trkpt lat="47.45485" lon="6.73343">
        <ele>516.4</ele>
        <time>2017-02-12T09:13:17.000Z</time>
      </trkpt>
      <trkpt lat="47.45487" lon="6.73339">
        <ele>516.4</ele>
        <time>2017-02-12T09:13:18.000Z</time>
      </trkpt>
      <trkpt lat="47.4549" lon="6.73335">
        <ele>516.4</ele>
        <time>2017-02-12T09:13:19.000Z</time>
      </trkpt>
      <trkpt lat="47.45492" lon="6.73331">
        <ele>516.3</ele>
        <time>2017-02-12T09:13:20.000Z</time>
      </trkpt>
      <trkpt lat="47.45494" lon="6.73327">
        <ele>516.1</ele>
        <time>2017-02-12T09:13:21.000Z</time>
      </trkpt>
      <trkpt lat="47.45495" lon="6.73325">
        <ele>516.1</ele>
        <time>2017-02-12T09:13:22.000Z</time>
      </trkpt>
      <trkpt lat="47.45497" lon="6.73321">
        <ele>516</ele>
        <time>2017-02-12T09:13:23.000Z</time>
      </trkpt>
      <trkpt lat="47.45499" lon="6.73317">
        <ele>516</ele>
        <time>2017-02-12T09:13:24.000Z</time>
      </trkpt>
      <trkpt lat="47.45502" lon="6.73315">
        <ele>516</ele>
        <time>2017-02-12T09:13:25.000Z</time>
      </trkpt>
      <trkpt lat="47.45505" lon="6.73313">
        <ele>515.9</ele>
        <time>2017-02-12T09:13:26.000Z</time>
      </trkpt>
      <trkpt lat="47.45507" lon="6.73312">
        <ele>515.7</ele>
        <time>2017-02-12T09:13:27.000Z</time>
      </trkpt>
      <trkpt lat="47.4551" lon="6.7331">
        <ele>515.7</ele>
        <time>2017-02-12T09:13:28.000Z</time>
      </trkpt>
      <trkpt lat="47.45512" lon="6.7331">
        <ele>515.7</ele>
        <time>2017-02-12T09:13:29.000Z</time>
      </trkpt>
      <trkpt lat="47.45515" lon="6.73308">
        <ele>515.7</ele>
        <time>2017-02-12T09:13:30.000Z</time>
      </trkpt>
      <trkpt lat="47.45518" lon="6.73307">
        <ele>515.7</ele>
        <time>2017-02-12T09:13:31.000Z</time>
      </trkpt>
      <trkpt lat="47.45522" lon="6.73306">
        <ele>515.6</ele>
        <time>2017-02-12T09:13:32.000Z</time>
      </trkpt>
      <trkpt lat="47.45525" lon="6.73306">
        <ele>515.7</ele>
        <time>2017-02-12T09:13:33.000Z</time>
      </trkpt>
      <trkpt lat="47.45528" lon="6.73305">
        <ele>515.7</ele>
        <time>2017-02-12T09:13:34.000Z</time>
      </trkpt>
      <trkpt lat="47.4553" lon="6.73304">
        <ele>515.6</ele>
        <time>2017-02-12T09:13:35.000Z</time>
      </trkpt>
      <trkpt lat="47.45534" lon="6.73302">
        <ele>515.6</ele>
        <time>2017-02-12T09:13:36.000Z</time>
      </trkpt>
      <trkpt lat="47.45537" lon="6.73301">
        <ele>515.5</ele>
        <time>2017-02-12T09:13:37.000Z</time>
      </trkpt>
      <trkpt lat="47.4554" lon="6.73298">
        <ele>515.4</ele>
        <time>2017-02-12T09:13:38.000Z</time>
      </trkpt>
      <trkpt lat="47.45543" lon="6.73297">
        <ele>515.4</ele>
        <time>2017-02-12T09:13:39.000Z</time>
      </trkpt>
      <trkpt lat="47.45544" lon="6.73296">
        <ele>515.4</ele>
        <time>2017-02-12T09:13:40.000Z</time>
      </trkpt>
      <trkpt lat="47.45547" lon="6.73294">
        <ele>515.3</ele>
        <time>2017-02-12T09:13:41.000Z</time>
      </trkpt>
      <trkpt lat="47.45548" lon="6.73292">
        <ele>515.2</ele>
        <time>2017-02-12T09:13:42.000Z</time>
      </trkpt>
      <trkpt lat="47.45551" lon="6.73289">
        <ele>515.2</ele>
        <time>2017-02-12T09:13:43.000Z</time>
      </trkpt>
      <trkpt lat="47.45551" lon="6.73286">
        <ele>515.3</ele>
        <time>2017-02-12T09:13:44.000Z</time>
      </trkpt>
      <trkpt lat="47.45553" lon="6.73281">
        <ele>515.3</ele>
        <time>2017-02-12T09:13:46.000Z</time>
      </trkpt>
      <trkpt lat="47.45555" lon="6.73278">
        <ele>515.3</ele>
        <time>2017-02-12T09:13:47.000Z</time>
      </trkpt>
      <trkpt lat="47.45557" lon="6.73275">
        <ele>515.3</ele>
        <time>2017-02-12T09:13:48.000Z</time>
      </trkpt>
      <trkpt lat="47.45559" lon="6.73272">
        <ele>515.3</ele>
        <time>2017-02-12T09:13:49.000Z</time>
      </trkpt>
      <trkpt lat="47.45561" lon="6.7327">
        <ele>515.4</ele>
        <time>2017-02-12T09:13:50.000Z</time>
      </trkpt>
      <trkpt lat="47.45563" lon="6.73266">
        <ele>515.4</ele>
        <time>2017-02-12T09:13:51.000Z</time>
      </trkpt>
      <trkpt lat="47.45565" lon="6.73263">
        <ele>515.5</ele>
        <time>2017-02-12T09:13:52.000Z</time>
      </trkpt>
      <trkpt lat="47.45567" lon="6.73261">
        <ele>515.6</ele>
        <time>2017-02-12T09:13:53.000Z</time>
      </trkpt>
      <trkpt lat="47.45571" lon="6.73258">
        <ele>515.8</ele>
        <time>2017-02-12T09:13:55.000Z</time>
      </trkpt>
      <trkpt lat="47.45573" lon="6.73257">
        <ele>515.9</ele>
        <time>2017-02-12T09:13:56.000Z</time>
      </trkpt>
      <trkpt lat="47.45576" lon="6.73253">
        <ele>516.3</ele>
        <time>2017-02-12T09:13:58.000Z</time>
      </trkpt>
      <trkpt lat="47.45577" lon="6.73252">
        <ele>516.4</ele>
        <time>2017-02-12T09:13:59.000Z</time>
      </trkpt>
      <trkpt lat="47.45579" lon="6.73246">
        <ele>516.8</ele>
        <time>2017-02-12T09:14:01.000Z</time>
      </trkpt>
      <trkpt lat="47.4558" lon="6.73243">
        <ele>517</ele>
        <time>2017-02-12T09:14:02.000Z</time>
      </trkpt>
      <trkpt lat="47.4558" lon="6.7324">
        <ele>517.3</ele>
        <time>2017-02-12T09:14:03.000Z</time>
      </trkpt>
      <trkpt lat="47.45581" lon="6.73236">
        <ele>517.5</ele>
        <time>2017-02-12T09:14:04.000Z</time>
      </trkpt>
      <trkpt lat="47.45581" lon="6.73233">
        <ele>517.7</ele>
        <time>2017-02-12T09:14:05.000Z</time>
      </trkpt>
      <trkpt lat="47.45582" lon="6.73228">
        <ele>518</ele>
        <time>2017-02-12T09:14:06.000Z</time>
      </trkpt>
      <trkpt lat="47.45583" lon="6.73223">
        <ele>518.1</ele>
        <time>2017-02-12T09:14:07.000Z</time>
      </trkpt>
      <trkpt lat="47.45583" lon="6.7322">
        <ele>518.3</ele>
        <time>2017-02-12T09:14:08.000Z</time>
      </trkpt>
      <trkpt lat="47.45584" lon="6.73216">
        <ele>518.5</ele>
        <time>2017-02-12T09:14:09.000Z</time>
      </trkpt>
      <trkpt lat="47.45584" lon="6.73211">
        <ele>518.8</ele>
        <time>2017-02-12T09:14:10.000Z</time>
      </trkpt>
      <trkpt lat="47.45584" lon="6.73208">
        <ele>519</ele>
        <time>2017-02-12T09:14:11.000Z</time>
      </trkpt>
      <trkpt lat="47.45585" lon="6.73204">
        <ele>519.3</ele>
        <time>2017-02-12T09:14:12.000Z</time>
      </trkpt>
      <trkpt lat="47.45585" lon="6.73199">
        <ele>519.6</ele>
        <time>2017-02-12T09:14:13.000Z</time>
      </trkpt>
      <trkpt lat="47.45585" lon="6.73195">
        <ele>519.9</ele>
        <time>2017-02-12T09:14:14.000Z</time>
      </trkpt>
      <trkpt lat="47.45585" lon="6.73189">
        <ele>520.4</ele>
        <time>2017-02-12T09:14:16.000Z</time>
      </trkpt>
      <trkpt lat="47.45584" lon="6.73185">
        <ele>520.6</ele>
        <time>2017-02-12T09:14:17.000Z</time>
      </trkpt>
      <trkpt lat="47.45584" lon="6.73179">
        <ele>520.9</ele>
        <time>2017-02-12T09:14:18.000Z</time>
      </trkpt>
      <trkpt lat="47.45583" lon="6.73174">
        <ele>521.3</ele>
        <time>2017-02-12T09:14:19.000Z</time>
      </trkpt>
      <trkpt lat="47.45583" lon="6.73168">
        <ele>521.5</ele>
        <time>2017-02-12T09:14:20.000Z</time>
      </trkpt>
      <trkpt lat="47.45583" lon="6.73163">
        <ele>521.7</ele>
        <time>2017-02-12T09:14:21.000Z</time>
      </trkpt>
      <trkpt lat="47.45582" lon="6.73158">
        <ele>521.8</ele>
        <time>2017-02-12T09:14:22.000Z</time>
      </trkpt>
      <trkpt lat="47.45581" lon="6.73153">
        <ele>522</ele>
        <time>2017-02-12T09:14:23.000Z</time>
      </trkpt>
      <trkpt lat="47.4558" lon="6.73146">
        <ele>522.4</ele>
        <time>2017-02-12T09:14:25.000Z</time>
      </trkpt>
      <trkpt lat="47.4558" lon="6.73143">
        <ele>522.6</ele>
        <time>2017-02-12T09:14:26.000Z</time>
      </trkpt>
      <trkpt lat="47.4558" lon="6.73138">
        <ele>523</ele>
        <time>2017-02-12T09:14:28.000Z</time>
      </trkpt>
      <trkpt lat="47.4558" lon="6.73134">
        <ele>523.2</ele>
        <time>2017-02-12T09:14:29.000Z</time>
      </trkpt>
      <trkpt lat="47.4558" lon="6.7313">
        <ele>523.5</ele>
        <time>2017-02-12T09:14:30.000Z</time>
      </trkpt>
      <trkpt lat="47.45581" lon="6.73122">
        <ele>523.7</ele>
        <time>2017-02-12T09:14:31.000Z</time>
      </trkpt>
      <trkpt lat="47.45581" lon="6.73115">
        <ele>524</ele>
        <time>2017-02-12T09:14:33.000Z</time>
      </trkpt>
      <trkpt lat="47.45581" lon="6.73114">
        <ele>524.1</ele>
        <time>2017-02-12T09:14:34.000Z</time>
      </trkpt>
      <trkpt lat="47.4558" lon="6.73111">
        <ele>524.3</ele>
        <time>2017-02-12T09:14:35.000Z</time>
      </trkpt>
      <trkpt lat="47.45578" lon="6.73104">
        <ele>524.4</ele>
        <time>2017-02-12T09:14:36.000Z</time>
      </trkpt>
      <trkpt lat="47.45577" lon="6.73096">
        <ele>524.4</ele>
        <time>2017-02-12T09:14:37.000Z</time>
      </trkpt>
      <trkpt lat="47.45577" lon="6.73089">
        <ele>524.5</ele>
        <time>2017-02-12T09:14:38.000Z</time>
      </trkpt>
      <trkpt lat="47.45576" lon="6.73082">
        <ele>524.5</ele>
        <time>2017-02-12T09:14:39.000Z</time>
      </trkpt>
      <trkpt lat="47.45576" lon="6.73077">
        <ele>524.5</ele>
        <time>2017-02-12T09:14:40.000Z</time>
      </trkpt>
      <trkpt lat="47.45575" lon="6.73073">
        <ele>524.4</ele>
        <time>2017-02-12T09:14:41.000Z</time>
      </trkpt>
      <trkpt lat="47.45574" lon="6.73068">
        <ele>524.3</ele>
        <time>2017-02-12T09:14:42.000Z</time>
      </trkpt>
      <trkpt lat="47.45573" lon="6.73063">
        <ele>524.2</ele>
        <time>2017-02-12T09:14:43.000Z</time>
      </trkpt>
      <trkpt lat="47.45572" lon="6.73059">
        <ele>524.1</ele>
        <time>2017-02-12T09:14:44.000Z</time>
      </trkpt>
      <trkpt lat="47.45572" lon="6.73054">
        <ele>524.1</ele>
        <time>2017-02-12T09:14:45.000Z</time>
      </trkpt>
      <trkpt lat="47.45571" lon="6.7305">
        <ele>524</ele>
        <time>2017-02-12T09:14:46.000Z</time>
      </trkpt>
      <trkpt lat="47.45571" lon="6.73046">
        <ele>523.9</ele>
        <time>2017-02-12T09:14:47.000Z</time>
      </trkpt>
      <trkpt lat="47.4557" lon="6.73042">
        <ele>523.8</ele>
        <time>2017-02-12T09:14:48.000Z</time>
      </trkpt>
      <trkpt lat="47.45569" lon="6.73038">
        <ele>523.7</ele>
        <time>2017-02-12T09:14:49.000Z</time>
      </trkpt>
      <trkpt lat="47.45566" lon="6.73031">
        <ele>523.3</ele>
        <time>2017-02-12T09:14:51.000Z</time>
      </trkpt>
      <trkpt lat="47.45564" lon="6.73028">
        <ele>523.1</ele>
        <time>2017-02-12T09:14:52.000Z</time>
      </trkpt>
      <trkpt lat="47.45562" lon="6.73025">
        <ele>523</ele>
        <time>2017-02-12T09:14:53.000Z</time>
      </trkpt>
      <trkpt lat="47.45562" lon="6.73022">
        <ele>522.9</ele>
        <time>2017-02-12T09:14:54.000Z</time>
      </trkpt>
      <trkpt lat="47.45561" lon="6.73016">
        <ele>522.9</ele>
        <time>2017-02-12T09:14:55.000Z</time>
      </trkpt>
      <trkpt lat="47.45561" lon="6.73013">
        <ele>522.9</ele>
        <time>2017-02-12T09:14:56.000Z</time>
      </trkpt>
      <trkpt lat="47.45559" lon="6.7301">
        <ele>522.9</ele>
        <time>2017-02-12T09:14:57.000Z</time>
      </trkpt>
      <trkpt lat="47.45558" lon="6.73006">
        <ele>522.9</ele>
        <time>2017-02-12T09:14:58.000Z</time>
      </trkpt>
      <trkpt lat="47.45556" lon="6.73003">
        <ele>522.8</ele>
        <time>2017-02-12T09:14:59.000Z</time>
      </trkpt>
      <trkpt lat="47.45555" lon="6.72999">
        <ele>522.8</ele>
        <time>2017-02-12T09:15:00.000Z</time>
      </trkpt>
      <trkpt lat="47.45553" lon="6.72996">
        <ele>522.8</ele>
        <time>2017-02-12T09:15:01.000Z</time>
      </trkpt>
      <trkpt lat="47.45553" lon="6.72993">
        <ele>522.9</ele>
        <time>2017-02-12T09:15:02.000Z</time>
      </trkpt>
      <trkpt lat="47.45551" lon="6.72989">
        <ele>522.9</ele>
        <time>2017-02-12T09:15:03.000Z</time>
      </trkpt>
      <trkpt lat="47.4555" lon="6.72984">
        <ele>523</ele>
        <time>2017-02-12T09:15:04.000Z</time>
      </trkpt>
      <trkpt lat="47.45548" lon="6.7298">
        <ele>523</ele>
        <time>2017-02-12T09:15:05.000Z</time>
      </trkpt>
      <trkpt lat="47.45545" lon="6.72976">
        <ele>523</ele>
        <time>2017-02-12T09:15:06.000Z</time>
      </trkpt>
      <trkpt lat="47.45541" lon="6.72973">
        <ele>523</ele>
        <time>2017-02-12T09:15:07.000Z</time>
      </trkpt>
      <trkpt lat="47.45538" lon="6.7297">
        <ele>523</ele>
        <time>2017-02-12T09:15:08.000Z</time>
      </trkpt>
      <trkpt lat="47.45536" lon="6.72967">
        <ele>522.9</ele>
        <time>2017-02-12T09:15:09.000Z</time>
      </trkpt>
      <trkpt lat="47.45532" lon="6.72963">
        <ele>522.9</ele>
        <time>2017-02-12T09:15:10.000Z</time>
      </trkpt>
      <trkpt lat="47.45528" lon="6.72958">
        <ele>522.8</ele>
        <time>2017-02-12T09:15:11.000Z</time>
      </trkpt>
      <trkpt lat="47.45524" lon="6.72954">
        <ele>522.7</ele>
        <time>2017-02-12T09:15:12.000Z</time>
      </trkpt>
      <trkpt lat="47.45521" lon="6.7295">
        <ele>522.6</ele>
        <time>2017-02-12T09:15:13.000Z</time>
      </trkpt>
      <trkpt lat="47.45518" lon="6.72946">
        <ele>522.5</ele>
        <time>2017-02-12T09:15:14.000Z</time>
      </trkpt>
      <trkpt lat="47.45516" lon="6.72942">
        <ele>522.3</ele>
        <time>2017-02-12T09:15:15.000Z</time>
      </trkpt>
      <trkpt lat="47.45514" lon="6.72938">
        <ele>522.2</ele>
        <time>2017-02-12T09:15:16.000Z</time>
      </trkpt>
      <trkpt lat="47.45513" lon="6.72935">
        <ele>522.1</ele>
        <time>2017-02-12T09:15:17.000Z</time>
      </trkpt>
      <trkpt lat="47.45511" lon="6.7293">
        <ele>521.8</ele>
        <time>2017-02-12T09:15:19.000Z</time>
      </trkpt>
      <trkpt lat="47.45509" lon="6.72927">
        <ele>521.8</ele>
        <time>2017-02-12T09:15:20.000Z</time>
      </trkpt>
      <trkpt lat="47.45507" lon="6.72921">
        <ele>521.7</ele>
        <time>2017-02-12T09:15:22.000Z</time>
      </trkpt>
      <trkpt lat="47.45506" lon="6.72918">
        <ele>521.7</ele>
        <time>2017-02-12T09:15:23.000Z</time>
      </trkpt>
      <trkpt lat="47.45504" lon="6.72913">
        <ele>521.7</ele>
        <time>2017-02-12T09:15:24.000Z</time>
      </trkpt>
      <trkpt lat="47.45502" lon="6.72909">
        <ele>521.7</ele>
        <time>2017-02-12T09:15:25.000Z</time>
      </trkpt>
      <trkpt lat="47.45499" lon="6.72905">
        <ele>521.7</ele>
        <time>2017-02-12T09:15:26.000Z</time>
      </trkpt>
      <trkpt lat="47.45497" lon="6.72903">
        <ele>521.7</ele>
        <time>2017-02-12T09:15:27.000Z</time>
      </trkpt>
      <trkpt lat="47.45494" lon="6.72901">
        <ele>521.8</ele>
        <time>2017-02-12T09:15:28.000Z</time>
      </trkpt>
      <trkpt lat="47.45492" lon="6.72898">
        <ele>521.9</ele>
        <time>2017-02-12T09:15:29.000Z</time>
      </trkpt>
      <trkpt lat="47.4549" lon="6.72894">
        <ele>521.9</ele>
        <time>2017-02-12T09:15:30.000Z</time>
      </trkpt>
      <trkpt lat="47.45488" lon="6.72889">
        <ele>522</ele>
        <time>2017-02-12T09:15:31.000Z</time>
      </trkpt>
      <trkpt lat="47.45486" lon="6.72886">
        <ele>522</ele>
        <time>2017-02-12T09:15:32.000Z</time>
      </trkpt>
      <trkpt lat="47.45484" lon="6.72882">
        <ele>522</ele>
        <time>2017-02-12T09:15:33.000Z</time>
      </trkpt>
      <trkpt lat="47.4548" lon="6.72877">
        <ele>522.1</ele>
        <time>2017-02-12T09:15:34.000Z</time>
      </trkpt>
      <trkpt lat="47.45477" lon="6.72872">
        <ele>522</ele>
        <time>2017-02-12T09:15:35.000Z</time>
      </trkpt>
      <trkpt lat="47.45476" lon="6.7287">
        <ele>522</ele>
        <time>2017-02-12T09:15:36.000Z</time>
      </trkpt>
      <trkpt lat="47.45475" lon="6.72865">
        <ele>522</ele>
        <time>2017-02-12T09:15:37.000Z</time>
      </trkpt>
      <trkpt lat="47.45474" lon="6.72861">
        <ele>521.9</ele>
        <time>2017-02-12T09:15:38.000Z</time>
      </trkpt>
      <trkpt lat="47.45472" lon="6.72858">
        <ele>522</ele>
        <time>2017-02-12T09:15:39.000Z</time>
      </trkpt>
      <trkpt lat="47.4547" lon="6.72854">
        <ele>521.9</ele>
        <time>2017-02-12T09:15:40.000Z</time>
      </trkpt>
      <trkpt lat="47.45468" lon="6.72849">
        <ele>521.9</ele>
        <time>2017-02-12T09:15:41.000Z</time>
      </trkpt>
      <trkpt lat="47.45466" lon="6.72844">
        <ele>521.9</ele>
        <time>2017-02-12T09:15:42.000Z</time>
      </trkpt>
      <trkpt lat="47.45464" lon="6.72839">
        <ele>521.9</ele>
        <time>2017-02-12T09:15:43.000Z</time>
      </trkpt>
      <trkpt lat="47.45463" lon="6.72834">
        <ele>522</ele>
        <time>2017-02-12T09:15:44.000Z</time>
      </trkpt>
      <trkpt lat="47.45462" lon="6.7283">
        <ele>522.1</ele>
        <time>2017-02-12T09:15:45.000Z</time>
      </trkpt>
      <trkpt lat="47.45461" lon="6.72826">
        <ele>522.2</ele>
        <time>2017-02-12T09:15:46.000Z</time>
      </trkpt>
      <trkpt lat="47.45459" lon="6.72819">
        <ele>522.3</ele>
        <time>2017-02-12T09:15:47.000Z</time>
      </trkpt>
      <trkpt lat="47.45456" lon="6.72813">
        <ele>522.5</ele>
        <time>2017-02-12T09:15:48.000Z</time>
      </trkpt>
      <trkpt lat="47.45454" lon="6.72808">
        <ele>522.5</ele>
        <time>2017-02-12T09:15:49.000Z</time>
      </trkpt>
      <trkpt lat="47.45452" lon="6.72802">
        <ele>522.6</ele>
        <time>2017-02-12T09:15:50.000Z</time>
      </trkpt>
      <trkpt lat="47.45451" lon="6.72799">
        <ele>522.7</ele>
        <time>2017-02-12T09:15:51.000Z</time>
      </trkpt>
      <trkpt lat="47.4545" lon="6.72796">
        <ele>522.7</ele>
        <time>2017-02-12T09:15:52.000Z</time>
      </trkpt>
      <trkpt lat="47.4545" lon="6.72792">
        <ele>522.8</ele>
        <time>2017-02-12T09:15:53.000Z</time>
      </trkpt>
      <trkpt lat="47.4545" lon="6.72788">
        <ele>522.9</ele>
        <time>2017-02-12T09:15:54.000Z</time>
      </trkpt>
      <trkpt lat="47.45449" lon="6.72783">
        <ele>523</ele>
        <time>2017-02-12T09:15:55.000Z</time>
      </trkpt>
      <trkpt lat="47.45447" lon="6.72779">
        <ele>523.1</ele>
        <time>2017-02-12T09:15:56.000Z</time>
      </trkpt>
      <trkpt lat="47.45445" lon="6.72774">
        <ele>523.1</ele>
        <time>2017-02-12T09:15:57.000Z</time>
      </trkpt>
      <trkpt lat="47.45443" lon="6.7277">
        <ele>523.1</ele>
        <time>2017-02-12T09:15:58.000Z</time>
      </trkpt>
      <trkpt lat="47.45443" lon="6.72765">
        <ele>523.1</ele>
        <time>2017-02-12T09:15:59.000Z</time>
      </trkpt>
      <trkpt lat="47.45443" lon="6.72759">
        <ele>523.1</ele>
        <time>2017-02-12T09:16:00.000Z</time>
      </trkpt>
      <trkpt lat="47.45442" lon="6.72753">
        <ele>523.1</ele>
        <time>2017-02-12T09:16:02.000Z</time>
      </trkpt>
      <trkpt lat="47.45442" lon="6.72749">
        <ele>523.1</ele>
        <time>2017-02-12T09:16:03.000Z</time>
      </trkpt>
      <trkpt lat="47.45441" lon="6.72743">
        <ele>523</ele>
        <time>2017-02-12T09:16:04.000Z</time>
      </trkpt>
      <trkpt lat="47.4544" lon="6.72738">
        <ele>523</ele>
        <time>2017-02-12T09:16:05.000Z</time>
      </trkpt>
      <trkpt lat="47.45439" lon="6.72733">
        <ele>522.8</ele>
        <time>2017-02-12T09:16:06.000Z</time>
      </trkpt>
      <trkpt lat="47.45437" lon="6.7273">
        <ele>522.7</ele>
        <time>2017-02-12T09:16:07.000Z</time>
      </trkpt>
      <trkpt lat="47.45433" lon="6.72726">
        <ele>522.2</ele>
        <time>2017-02-12T09:16:09.000Z</time>
      </trkpt>
      <trkpt lat="47.45432" lon="6.72724">
        <ele>522</ele>
        <time>2017-02-12T09:16:10.000Z</time>
      </trkpt>
      <trkpt lat="47.45428" lon="6.72722">
        <ele>520.9</ele>
        <time>2017-02-12T09:16:14.000Z</time>
      </trkpt>
      <trkpt lat="47.45427" lon="6.72722">
        <ele>520.6</ele>
        <time>2017-02-12T09:16:15.000Z</time>
      </trkpt>
      <trkpt lat="47.45424" lon="6.72722">
        <ele>520.3</ele>
        <time>2017-02-12T09:16:16.000Z</time>
      </trkpt>
      <trkpt lat="47.45422" lon="6.72722">
        <ele>520.1</ele>
        <time>2017-02-12T09:16:17.000Z</time>
      </trkpt>
      <trkpt lat="47.45418" lon="6.72721">
        <ele>519.5</ele>
        <time>2017-02-12T09:16:19.000Z</time>
      </trkpt>
      <trkpt lat="47.45416" lon="6.72721">
        <ele>519.3</ele>
        <time>2017-02-12T09:16:20.000Z</time>
      </trkpt>
      <trkpt lat="47.45412" lon="6.72719">
        <ele>518.8</ele>
        <time>2017-02-12T09:16:22.000Z</time>
      </trkpt>
      <trkpt lat="47.4541" lon="6.72718">
        <ele>518.6</ele>
        <time>2017-02-12T09:16:23.000Z</time>
      </trkpt>
      <trkpt lat="47.45408" lon="6.72717">
        <ele>518.3</ele>
        <time>2017-02-12T09:16:24.000Z</time>
      </trkpt>
      <trkpt lat="47.45406" lon="6.72716">
        <ele>518.1</ele>
        <time>2017-02-12T09:16:25.000Z</time>
      </trkpt>
      <trkpt lat="47.45404" lon="6.72714">
        <ele>517.9</ele>
        <time>2017-02-12T09:16:26.000Z</time>
      </trkpt>
      <trkpt lat="47.45401" lon="6.72712">
        <ele>517.7</ele>
        <time>2017-02-12T09:16:27.000Z</time>
      </trkpt>
      <trkpt lat="47.45399" lon="6.7271">
        <ele>517.5</ele>
        <time>2017-02-12T09:16:28.000Z</time>
      </trkpt>
      <trkpt lat="47.45396" lon="6.72707">
        <ele>517.3</ele>
        <time>2017-02-12T09:16:29.000Z</time>
      </trkpt>
      <trkpt lat="47.45393" lon="6.72705">
        <ele>517.2</ele>
        <time>2017-02-12T09:16:30.000Z</time>
      </trkpt>
      <trkpt lat="47.45391" lon="6.72702">
        <ele>517</ele>
        <time>2017-02-12T09:16:31.000Z</time>
      </trkpt>
      <trkpt lat="47.45388" lon="6.72699">
        <ele>516.9</ele>
        <time>2017-02-12T09:16:32.000Z</time>
      </trkpt>
      <trkpt lat="47.45386" lon="6.72697">
        <ele>516.7</ele>
        <time>2017-02-12T09:16:33.000Z</time>
      </trkpt>
      <trkpt lat="47.45383" lon="6.72694">
        <ele>516.5</ele>
        <time>2017-02-12T09:16:34.000Z</time>
      </trkpt>
      <trkpt lat="47.45381" lon="6.72691">
        <ele>516.3</ele>
        <time>2017-02-12T09:16:35.000Z</time>
      </trkpt>
      <trkpt lat="47.45378" lon="6.72689">
        <ele>516.1</ele>
        <time>2017-02-12T09:16:36.000Z</time>
      </trkpt>
      <trkpt lat="47.45375" lon="6.72686">
        <ele>516</ele>
        <time>2017-02-12T09:16:37.000Z</time>
      </trkpt>
      <trkpt lat="47.45373" lon="6.72684">
        <ele>515.8</ele>
        <time>2017-02-12T09:16:38.000Z</time>
      </trkpt>
      <trkpt lat="47.45371" lon="6.72681">
        <ele>515.6</ele>
        <time>2017-02-12T09:16:39.000Z</time>
      </trkpt>
      <trkpt lat="47.45369" lon="6.72678">
        <ele>515.4</ele>
        <time>2017-02-12T09:16:40.000Z</time>
      </trkpt>
      <trkpt lat="47.45366" lon="6.72676">
        <ele>515.3</ele>
        <time>2017-02-12T09:16:41.000Z</time>
      </trkpt>
      <trkpt lat="47.45364" lon="6.72673">
        <ele>515.1</ele>
        <time>2017-02-12T09:16:42.000Z</time>
      </trkpt>
      <trkpt lat="47.45361" lon="6.7267">
        <ele>515</ele>
        <time>2017-02-12T09:16:43.000Z</time>
      </trkpt>
      <trkpt lat="47.45358" lon="6.72667">
        <ele>514.8</ele>
        <time>2017-02-12T09:16:44.000Z</time>
      </trkpt>
      <trkpt lat="47.45356" lon="6.72664">
        <ele>514.7</ele>
        <time>2017-02-12T09:16:45.000Z</time>
      </trkpt>
      <trkpt lat="47.45353" lon="6.7266">
        <ele>514.5</ele>
        <time>2017-02-12T09:16:46.000Z</time>
      </trkpt>
      <trkpt lat="47.4535" lon="6.72657">
        <ele>514.4</ele>
        <time>2017-02-12T09:16:47.000Z</time>
      </trkpt>
      <trkpt lat="47.45347" lon="6.72654">
        <ele>514.2</ele>
        <time>2017-02-12T09:16:48.000Z</time>
      </trkpt>
      <trkpt lat="47.45344" lon="6.72651">
        <ele>514</ele>
        <time>2017-02-12T09:16:49.000Z</time>
      </trkpt>
      <trkpt lat="47.45341" lon="6.72648">
        <ele>513.9</ele>
        <time>2017-02-12T09:16:50.000Z</time>
      </trkpt>
      <trkpt lat="47.45339" lon="6.72645">
        <ele>513.7</ele>
        <time>2017-02-12T09:16:51.000Z</time>
      </trkpt>
      <trkpt lat="47.45336" lon="6.72642">
        <ele>513.6</ele>
        <time>2017-02-12T09:16:52.000Z</time>
      </trkpt>
      <trkpt lat="47.45333" lon="6.72638">
        <ele>512.1</ele>
        <time>2017-02-12T09:16:53.000Z</time>
      </trkpt>
      <trkpt lat="47.4533" lon="6.72635">
        <ele>510.9</ele>
        <time>2017-02-12T09:16:54.000Z</time>
      </trkpt>
      <trkpt lat="47.45327" lon="6.72632">
        <ele>510</ele>
        <time>2017-02-12T09:16:55.000Z</time>
      </trkpt>
      <trkpt lat="47.45323" lon="6.72628">
        <ele>509.2</ele>
        <time>2017-02-12T09:16:56.000Z</time>
      </trkpt>
      <trkpt lat="47.4532" lon="6.72625">
        <ele>508.6</ele>
        <time>2017-02-12T09:16:57.000Z</time>
      </trkpt>
      <trkpt lat="47.45317" lon="6.72622">
        <ele>508.2</ele>
        <time>2017-02-12T09:16:58.000Z</time>
      </trkpt>
      <trkpt lat="47.45314" lon="6.72619">
        <ele>507.8</ele>
        <time>2017-02-12T09:16:59.000Z</time>
      </trkpt>
      <trkpt lat="47.45311" lon="6.72616">
        <ele>507.5</ele>
        <time>2017-02-12T09:17:00.000Z</time>
      </trkpt>
      <trkpt lat="47.45307" lon="6.72613">
        <ele>507.2</ele>
        <time>2017-02-12T09:17:01.000Z</time>
      </trkpt>
      <trkpt lat="47.45304" lon="6.7261">
        <ele>506.9</ele>
        <time>2017-02-12T09:17:02.000Z</time>
      </trkpt>
      <trkpt lat="47.453" lon="6.72607">
        <ele>506.7</ele>
        <time>2017-02-12T09:17:03.000Z</time>
      </trkpt>
      <trkpt lat="47.45296" lon="6.72604">
        <ele>506.5</ele>
        <time>2017-02-12T09:17:04.000Z</time>
      </trkpt>
      <trkpt lat="47.45293" lon="6.72602">
        <ele>506.3</ele>
        <time>2017-02-12T09:17:05.000Z</time>
      </trkpt>
      <trkpt lat="47.45289" lon="6.72599">
        <ele>506.2</ele>
        <time>2017-02-12T09:17:06.000Z</time>
      </trkpt>
      <trkpt lat="47.45285" lon="6.72596">
        <ele>506.1</ele>
        <time>2017-02-12T09:17:07.000Z</time>
      </trkpt>
      <trkpt lat="47.45282" lon="6.72594">
        <ele>506</ele>
        <time>2017-02-12T09:17:08.000Z</time>
      </trkpt>
      <trkpt lat="47.45278" lon="6.72591">
        <ele>505.9</ele>
        <time>2017-02-12T09:17:09.000Z</time>
      </trkpt>
      <trkpt lat="47.45274" lon="6.72589">
        <ele>505.9</ele>
        <time>2017-02-12T09:17:10.000Z</time>
      </trkpt>
      <trkpt lat="47.4527" lon="6.72586">
        <ele>505.9</ele>
        <time>2017-02-12T09:17:11.000Z</time>
      </trkpt>
      <trkpt lat="47.45266" lon="6.72583">
        <ele>505.8</ele>
        <time>2017-02-12T09:17:12.000Z</time>
      </trkpt>
      <trkpt lat="47.45262" lon="6.72581">
        <ele>505.8</ele>
        <time>2017-02-12T09:17:13.000Z</time>
      </trkpt>
      <trkpt lat="47.45258" lon="6.72578">
        <ele>505.7</ele>
        <time>2017-02-12T09:17:14.000Z</time>
      </trkpt>
      <trkpt lat="47.45255" lon="6.72575">
        <ele>505.7</ele>
        <time>2017-02-12T09:17:15.000Z</time>
      </trkpt>
      <trkpt lat="47.45251" lon="6.72573">
        <ele>505.6</ele>
        <time>2017-02-12T09:17:16.000Z</time>
      </trkpt>
      <trkpt lat="47.45247" lon="6.7257">
        <ele>505.5</ele>
        <time>2017-02-12T09:17:17.000Z</time>
      </trkpt>
      <trkpt lat="47.45243" lon="6.72567">
        <ele>505.5</ele>
        <time>2017-02-12T09:17:18.000Z</time>
      </trkpt>
      <trkpt lat="47.4524" lon="6.72564">
        <ele>505.5</ele>
        <time>2017-02-12T09:17:19.000Z</time>
      </trkpt>
      <trkpt lat="47.45236" lon="6.72561">
        <ele>505.9</ele>
        <time>2017-02-12T09:17:20.000Z</time>
      </trkpt>
      <trkpt lat="47.45232" lon="6.72559">
        <ele>506.5</ele>
        <time>2017-02-12T09:17:21.000Z</time>
      </trkpt>
      <trkpt lat="47.45228" lon="6.72556">
        <ele>507.1</ele>
        <time>2017-02-12T09:17:22.000Z</time>
      </trkpt>
      <trkpt lat="47.45223" lon="6.72553">
        <ele>507.2</ele>
        <time>2017-02-12T09:17:23.000Z</time>
      </trkpt>
      <trkpt lat="47.45218" lon="6.72549">
        <ele>507.4</ele>
        <time>2017-02-12T09:17:24.000Z</time>
      </trkpt>
      <trkpt lat="47.45214" lon="6.72546">
        <ele>507.6</ele>
        <time>2017-02-12T09:17:25.000Z</time>
      </trkpt>
      <trkpt lat="47.4521" lon="6.72542">
        <ele>507.8</ele>
        <time>2017-02-12T09:17:26.000Z</time>
      </trkpt>
      <trkpt lat="47.45205" lon="6.72539">
        <ele>508</ele>
        <time>2017-02-12T09:17:27.000Z</time>
      </trkpt>
      <trkpt lat="47.452" lon="6.72535">
        <ele>508.1</ele>
        <time>2017-02-12T09:17:28.000Z</time>
      </trkpt>
      <trkpt lat="47.45195" lon="6.72532">
        <ele>508.1</ele>
        <time>2017-02-12T09:17:29.000Z</time>
      </trkpt>
      <trkpt lat="47.4519" lon="6.72528">
        <ele>508.1</ele>
        <time>2017-02-12T09:17:30.000Z</time>
      </trkpt>
      <trkpt lat="47.45185" lon="6.72524">
        <ele>508.2</ele>
        <time>2017-02-12T09:17:31.000Z</time>
      </trkpt>
      <trkpt lat="47.4518" lon="6.7252">
        <ele>508.2</ele>
        <time>2017-02-12T09:17:32.000Z</time>
      </trkpt>
      <trkpt lat="47.45174" lon="6.72516">
        <ele>508.2</ele>
        <time>2017-02-12T09:17:33.000Z</time>
      </trkpt>
      <trkpt lat="47.45169" lon="6.72512">
        <ele>508.2</ele>
        <time>2017-02-12T09:17:34.000Z</time>
      </trkpt>
      <trkpt lat="47.45164" lon="6.72508">
        <ele>508.2</ele>
        <time>2017-02-12T09:17:35.000Z</time>
      </trkpt>
      <trkpt lat="47.45158" lon="6.72504">
        <ele>508.1</ele>
        <time>2017-02-12T09:17:36.000Z</time>
      </trkpt>
      <trkpt lat="47.45153" lon="6.72501">
        <ele>508.1</ele>
        <time>2017-02-12T09:17:37.000Z</time>
      </trkpt>
      <trkpt lat="47.45148" lon="6.72498">
        <ele>508.1</ele>
        <time>2017-02-12T09:17:38.000Z</time>
      </trkpt>
      <trkpt lat="47.45144" lon="6.72494">
        <ele>508.1</ele>
        <time>2017-02-12T09:17:39.000Z</time>
      </trkpt>
      <trkpt lat="47.45139" lon="6.72491">
        <ele>508.2</ele>
        <time>2017-02-12T09:17:40.000Z</time>
      </trkpt>
      <trkpt lat="47.45134" lon="6.72488">
        <ele>508.3</ele>
        <time>2017-02-12T09:17:41.000Z</time>
      </trkpt>
      <trkpt lat="47.45129" lon="6.72484">
        <ele>508.4</ele>
        <time>2017-02-12T09:17:42.000Z</time>
      </trkpt>
      <trkpt lat="47.45124" lon="6.7248">
        <ele>508.5</ele>
        <time>2017-02-12T09:17:43.000Z</time>
      </trkpt>
      <trkpt lat="47.45119" lon="6.72477">
        <ele>508.6</ele>
        <time>2017-02-12T09:17:44.000Z</time>
      </trkpt>
      <trkpt lat="47.45115" lon="6.72474">
        <ele>508.7</ele>
        <time>2017-02-12T09:17:45.000Z</time>
      </trkpt>
      <trkpt lat="47.4511" lon="6.72471">
        <ele>508.8</ele>
        <time>2017-02-12T09:17:46.000Z</time>
      </trkpt>
      <trkpt lat="47.45106" lon="6.72468">
        <ele>508.8</ele>
        <time>2017-02-12T09:17:47.000Z</time>
      </trkpt>
      <trkpt lat="47.45102" lon="6.72465">
        <ele>508.8</ele>
        <time>2017-02-12T09:17:48.000Z</time>
      </trkpt>
      <trkpt lat="47.45097" lon="6.72462">
        <ele>508.9</ele>
        <time>2017-02-12T09:17:49.000Z</time>
      </trkpt>
      <trkpt lat="47.45093" lon="6.7246">
        <ele>508.9</ele>
        <time>2017-02-12T09:17:50.000Z</time>
      </trkpt>
      <trkpt lat="47.45089" lon="6.72456">
        <ele>508.9</ele>
        <time>2017-02-12T09:17:51.000Z</time>
      </trkpt>
      <trkpt lat="47.45085" lon="6.72453">
        <ele>508.8</ele>
        <time>2017-02-12T09:17:52.000Z</time>
      </trkpt>
      <trkpt lat="47.45081" lon="6.72451">
        <ele>508.7</ele>
        <time>2017-02-12T09:17:53.000Z</time>
      </trkpt>
      <trkpt lat="47.45078" lon="6.72448">
        <ele>508.7</ele>
        <time>2017-02-12T09:17:54.000Z</time>
      </trkpt>
      <trkpt lat="47.45074" lon="6.72445">
        <ele>508.7</ele>
        <time>2017-02-12T09:17:55.000Z</time>
      </trkpt>
      <trkpt lat="47.4507" lon="6.72442">
        <ele>508.8</ele>
        <time>2017-02-12T09:17:56.000Z</time>
      </trkpt>
      <trkpt lat="47.45067" lon="6.72439">
        <ele>508.9</ele>
        <time>2017-02-12T09:17:57.000Z</time>
      </trkpt>
      <trkpt lat="47.45062" lon="6.72436">
        <ele>508.7</ele>
        <time>2017-02-12T09:17:58.000Z</time>
      </trkpt>
      <trkpt lat="47.45058" lon="6.72434">
        <ele>508.4</ele>
        <time>2017-02-12T09:17:59.000Z</time>
      </trkpt>
      <trkpt lat="47.45054" lon="6.72431">
        <ele>508.1</ele>
        <time>2017-02-12T09:18:00.000Z</time>
      </trkpt>
      <trkpt lat="47.4505" lon="6.72429">
        <ele>507.7</ele>
        <time>2017-02-12T09:18:01.000Z</time>
      </trkpt>
      <trkpt lat="47.45046" lon="6.72426">
        <ele>507.4</ele>
        <time>2017-02-12T09:18:02.000Z</time>
      </trkpt>
      <trkpt lat="47.45042" lon="6.72424">
        <ele>507</ele>
        <time>2017-02-12T09:18:03.000Z</time>
      </trkpt>
      <trkpt lat="47.45038" lon="6.72422">
        <ele>506.8</ele>
        <time>2017-02-12T09:18:04.000Z</time>
      </trkpt>
      <trkpt lat="47.45035" lon="6.7242">
        <ele>506.6</ele>
        <time>2017-02-12T09:18:05.000Z</time>
      </trkpt>
      <trkpt lat="47.45031" lon="6.72417">
        <ele>506.4</ele>
        <time>2017-02-12T09:18:06.000Z</time>
      </trkpt>
      <trkpt lat="47.45028" lon="6.72415">
        <ele>506.5</ele>
        <time>2017-02-12T09:18:07.000Z</time>
      </trkpt>
      <trkpt lat="47.45025" lon="6.72413">
        <ele>506.7</ele>
        <time>2017-02-12T09:18:08.000Z</time>
      </trkpt>
      <trkpt lat="47.45021" lon="6.7241">
        <ele>506.9</ele>
        <time>2017-02-12T09:18:09.000Z</time>
      </trkpt>
      <trkpt lat="47.45017" lon="6.72407">
        <ele>507.1</ele>
        <time>2017-02-12T09:18:10.000Z</time>
      </trkpt>
      <trkpt lat="47.45014" lon="6.72404">
        <ele>507.3</ele>
        <time>2017-02-12T09:18:11.000Z</time>
      </trkpt>
      <trkpt lat="47.45011" lon="6.72402">
        <ele>507.7</ele>
        <time>2017-02-12T09:18:12.000Z</time>
      </trkpt>
      <trkpt lat="47.45008" lon="6.724">
        <ele>507.8</ele>
        <time>2017-02-12T09:18:13.000Z</time>
      </trkpt>
      <trkpt lat="47.45005" lon="6.72397">
        <ele>508.1</ele>
        <time>2017-02-12T09:18:14.000Z</time>
      </trkpt>
      <trkpt lat="47.45002" lon="6.72395">
        <ele>508.1</ele>
        <time>2017-02-12T09:18:15.000Z</time>
      </trkpt>
      <trkpt lat="47.44999" lon="6.72391">
        <ele>508.1</ele>
        <time>2017-02-12T09:18:16.000Z</time>
      </trkpt>
      <trkpt lat="47.44995" lon="6.72388">
        <ele>508.2</ele>
        <time>2017-02-12T09:18:17.000Z</time>
      </trkpt>
      <trkpt lat="47.44993" lon="6.72385">
        <ele>508.2</ele>
        <time>2017-02-12T09:18:18.000Z</time>
      </trkpt>
      <trkpt lat="47.4499" lon="6.72383">
        <ele>508.2</ele>
        <time>2017-02-12T09:18:19.000Z</time>
      </trkpt>
      <trkpt lat="47.44987" lon="6.7238">
        <ele>508.2</ele>
        <time>2017-02-12T09:18:20.000Z</time>
      </trkpt>
      <trkpt lat="47.44983" lon="6.72377">
        <ele>508.7</ele>
        <time>2017-02-12T09:18:21.000Z</time>
      </trkpt>
      <trkpt lat="47.4498" lon="6.72374">
        <ele>509.1</ele>
        <time>2017-02-12T09:18:22.000Z</time>
      </trkpt>
      <trkpt lat="47.44977" lon="6.72371">
        <ele>509.4</ele>
        <time>2017-02-12T09:18:23.000Z</time>
      </trkpt>
      <trkpt lat="47.44973" lon="6.72368">
        <ele>509.6</ele>
        <time>2017-02-12T09:18:24.000Z</time>
      </trkpt>
      <trkpt lat="47.4497" lon="6.72365">
        <ele>509.8</ele>
        <time>2017-02-12T09:18:25.000Z</time>
      </trkpt>
      <trkpt lat="47.44966" lon="6.72361">
        <ele>510</ele>
        <time>2017-02-12T09:18:26.000Z</time>
      </trkpt>
      <trkpt lat="47.44964" lon="6.72359">
        <ele>510.1</ele>
        <time>2017-02-12T09:18:27.000Z</time>
      </trkpt>
      <trkpt lat="47.44961" lon="6.72356">
        <ele>510.1</ele>
        <time>2017-02-12T09:18:28.000Z</time>
      </trkpt>
      <trkpt lat="47.44958" lon="6.72353">
        <ele>510</ele>
        <time>2017-02-12T09:18:29.000Z</time>
      </trkpt>
      <trkpt lat="47.44955" lon="6.7235">
        <ele>509.8</ele>
        <time>2017-02-12T09:18:30.000Z</time>
      </trkpt>
      <trkpt lat="47.44951" lon="6.72347">
        <ele>509.8</ele>
        <time>2017-02-12T09:18:31.000Z</time>
      </trkpt>
      <trkpt lat="47.44948" lon="6.72345">
        <ele>509.8</ele>
        <time>2017-02-12T09:18:32.000Z</time>
      </trkpt>
      <trkpt lat="47.44944" lon="6.72341">
        <ele>509.7</ele>
        <time>2017-02-12T09:18:33.000Z</time>
      </trkpt>
      <trkpt lat="47.44942" lon="6.72338">
        <ele>509.7</ele>
        <time>2017-02-12T09:18:34.000Z</time>
      </trkpt>
      <trkpt lat="47.44939" lon="6.72335">
        <ele>509.8</ele>
        <time>2017-02-12T09:18:35.000Z</time>
      </trkpt>
      <trkpt lat="47.44936" lon="6.72333">
        <ele>509.9</ele>
        <time>2017-02-12T09:18:36.000Z</time>
      </trkpt>
      <trkpt lat="47.44933" lon="6.72331">
        <ele>509.9</ele>
        <time>2017-02-12T09:18:37.000Z</time>
      </trkpt>
      <trkpt lat="47.4493" lon="6.72329">
        <ele>509.9</ele>
        <time>2017-02-12T09:18:38.000Z</time>
      </trkpt>
      <trkpt lat="47.44927" lon="6.72326">
        <ele>510</ele>
        <time>2017-02-12T09:18:39.000Z</time>
      </trkpt>
      <trkpt lat="47.44924" lon="6.72324">
        <ele>510.1</ele>
        <time>2017-02-12T09:18:40.000Z</time>
      </trkpt>
      <trkpt lat="47.44921" lon="6.72323">
        <ele>510.1</ele>
        <time>2017-02-12T09:18:41.000Z</time>
      </trkpt>
      <trkpt lat="47.44919" lon="6.72321">
        <ele>510.2</ele>
        <time>2017-02-12T09:18:42.000Z</time>
      </trkpt>
      <trkpt lat="47.44916" lon="6.72319">
        <ele>510.3</ele>
        <time>2017-02-12T09:18:43.000Z</time>
      </trkpt>
      <trkpt lat="47.44914" lon="6.72317">
        <ele>510.4</ele>
        <time>2017-02-12T09:18:44.000Z</time>
      </trkpt>
      <trkpt lat="47.44911" lon="6.72315">
        <ele>510.4</ele>
        <time>2017-02-12T09:18:45.000Z</time>
      </trkpt>
      <trkpt lat="47.44909" lon="6.72312">
        <ele>510.5</ele>
        <time>2017-02-12T09:18:46.000Z</time>
      </trkpt>
      <trkpt lat="47.44906" lon="6.72309">
        <ele>510.7</ele>
        <time>2017-02-12T09:18:47.000Z</time>
      </trkpt>
      <trkpt lat="47.44904" lon="6.72307">
        <ele>510.8</ele>
        <time>2017-02-12T09:18:48.000Z</time>
      </trkpt>
      <trkpt lat="47.44901" lon="6.72305">
        <ele>510.9</ele>
        <time>2017-02-12T09:18:49.000Z</time>
      </trkpt>
      <trkpt lat="47.44899" lon="6.72303">
        <ele>511</ele>
        <time>2017-02-12T09:18:50.000Z</time>
      </trkpt>
      <trkpt lat="47.44896" lon="6.72301">
        <ele>511.1</ele>
        <time>2017-02-12T09:18:51.000Z</time>
      </trkpt>
      <trkpt lat="47.44893" lon="6.72299">
        <ele>511.2</ele>
        <time>2017-02-12T09:18:52.000Z</time>
      </trkpt>
      <trkpt lat="47.44891" lon="6.72297">
        <ele>511.3</ele>
        <time>2017-02-12T09:18:53.000Z</time>
      </trkpt>
      <trkpt lat="47.44889" lon="6.72295">
        <ele>511.4</ele>
        <time>2017-02-12T09:18:54.000Z</time>
      </trkpt>
      <trkpt lat="47.44885" lon="6.72292">
        <ele>511.6</ele>
        <time>2017-02-12T09:18:56.000Z</time>
      </trkpt>
      <trkpt lat="47.44884" lon="6.7229">
        <ele>511.7</ele>
        <time>2017-02-12T09:18:57.000Z</time>
      </trkpt>
      <trkpt lat="47.44881" lon="6.72289">
        <ele>511.9</ele>
        <time>2017-02-12T09:18:58.000Z</time>
      </trkpt>
      <trkpt lat="47.4488" lon="6.72287">
        <ele>512</ele>
        <time>2017-02-12T09:18:59.000Z</time>
      </trkpt>
      <trkpt lat="47.44877" lon="6.72285">
        <ele>512.2</ele>
        <time>2017-02-12T09:19:01.000Z</time>
      </trkpt>
      <trkpt lat="47.44874" lon="6.72282">
        <ele>512.4</ele>
        <time>2017-02-12T09:19:02.000Z</time>
      </trkpt>
      <trkpt lat="47.44871" lon="6.7228">
        <ele>512.5</ele>
        <time>2017-02-12T09:19:03.000Z</time>
      </trkpt>
      <trkpt lat="47.44868" lon="6.72277">
        <ele>512.6</ele>
        <time>2017-02-12T09:19:04.000Z</time>
      </trkpt>
      <trkpt lat="47.44866" lon="6.72275">
        <ele>512.7</ele>
        <time>2017-02-12T09:19:05.000Z</time>
      </trkpt>
      <trkpt lat="47.44863" lon="6.72273">
        <ele>512.9</ele>
        <time>2017-02-12T09:19:06.000Z</time>
      </trkpt>
      <trkpt lat="47.44861" lon="6.72271">
        <ele>513.1</ele>
        <time>2017-02-12T09:19:07.000Z</time>
      </trkpt>
      <trkpt lat="47.44859" lon="6.7227">
        <ele>513.2</ele>
        <time>2017-02-12T09:19:08.000Z</time>
      </trkpt>
      <trkpt lat="47.44856" lon="6.72268">
        <ele>513.3</ele>
        <time>2017-02-12T09:19:09.000Z</time>
      </trkpt>
      <trkpt lat="47.44854" lon="6.72266">
        <ele>513.4</ele>
        <time>2017-02-12T09:19:10.000Z</time>
      </trkpt>
      <trkpt lat="47.4485" lon="6.72265">
        <ele>513.6</ele>
        <time>2017-02-12T09:19:11.000Z</time>
      </trkpt>
      <trkpt lat="47.44847" lon="6.72263">
        <ele>513.7</ele>
        <time>2017-02-12T09:19:12.000Z</time>
      </trkpt>
      <trkpt lat="47.44844" lon="6.72261">
        <ele>513.9</ele>
        <time>2017-02-12T09:19:13.000Z</time>
      </trkpt>
      <trkpt lat="47.44842" lon="6.7226">
        <ele>514</ele>
        <time>2017-02-12T09:19:14.000Z</time>
      </trkpt>
      <trkpt lat="47.44838" lon="6.72259">
        <ele>514.2</ele>
        <time>2017-02-12T09:19:15.000Z</time>
      </trkpt>
      <trkpt lat="47.44835" lon="6.72258">
        <ele>514.3</ele>
        <time>2017-02-12T09:19:16.000Z</time>
      </trkpt>
      <trkpt lat="47.44833" lon="6.72257">
        <ele>514.4</ele>
        <time>2017-02-12T09:19:17.000Z</time>
      </trkpt>
      <trkpt lat="47.4483" lon="6.72258">
        <ele>514.5</ele>
        <time>2017-02-12T09:19:18.000Z</time>
      </trkpt>
      <trkpt lat="47.44827" lon="6.72257">
        <ele>514.6</ele>
        <time>2017-02-12T09:19:19.000Z</time>
      </trkpt>
      <trkpt lat="47.44824" lon="6.72258">
        <ele>514.8</ele>
        <time>2017-02-12T09:19:20.000Z</time>
      </trkpt>
      <trkpt lat="47.4482" lon="6.72259">
        <ele>514.9</ele>
        <time>2017-02-12T09:19:21.000Z</time>
      </trkpt>
      <trkpt lat="47.44817" lon="6.72259">
        <ele>515</ele>
        <time>2017-02-12T09:19:22.000Z</time>
      </trkpt>
      <trkpt lat="47.44815" lon="6.7226">
        <ele>515.2</ele>
        <time>2017-02-12T09:19:23.000Z</time>
      </trkpt>
      <trkpt lat="47.44812" lon="6.7226">
        <ele>515.3</ele>
        <time>2017-02-12T09:19:24.000Z</time>
      </trkpt>
      <trkpt lat="47.44808" lon="6.72261">
        <ele>515.6</ele>
        <time>2017-02-12T09:19:26.000Z</time>
      </trkpt>
      <trkpt lat="47.44806" lon="6.72262">
        <ele>515.7</ele>
        <time>2017-02-12T09:19:27.000Z</time>
      </trkpt>
      <trkpt lat="47.44803" lon="6.72262">
        <ele>516</ele>
        <time>2017-02-12T09:19:29.000Z</time>
      </trkpt>
      <trkpt lat="47.44801" lon="6.72263">
        <ele>516.2</ele>
        <time>2017-02-12T09:19:30.000Z</time>
      </trkpt>
      <trkpt lat="47.44798" lon="6.72265">
        <ele>516.6</ele>
        <time>2017-02-12T09:19:32.000Z</time>
      </trkpt>
      <trkpt lat="47.44796" lon="6.72265">
        <ele>516.7</ele>
        <time>2017-02-12T09:19:33.000Z</time>
      </trkpt>
      <trkpt lat="47.44792" lon="6.72267">
        <ele>517.3</ele>
        <time>2017-02-12T09:19:35.000Z</time>
      </trkpt>
      <trkpt lat="47.4479" lon="6.72268">
        <ele>517.6</ele>
        <time>2017-02-12T09:19:36.000Z</time>
      </trkpt>
      <trkpt lat="47.44787" lon="6.72269">
        <ele>517.8</ele>
        <time>2017-02-12T09:19:37.000Z</time>
      </trkpt>
      <trkpt lat="47.44785" lon="6.72269">
        <ele>518</ele>
        <time>2017-02-12T09:19:38.000Z</time>
      </trkpt>
      <trkpt lat="47.44782" lon="6.7227">
        <ele>518.2</ele>
        <time>2017-02-12T09:19:39.000Z</time>
      </trkpt>
      <trkpt lat="47.4478" lon="6.72271">
        <ele>518.4</ele>
        <time>2017-02-12T09:19:40.000Z</time>
      </trkpt>
      <trkpt lat="47.44777" lon="6.72272">
        <ele>518.6</ele>
        <time>2017-02-12T09:19:41.000Z</time>
      </trkpt>
      <trkpt lat="47.44774" lon="6.72272">
        <ele>518.7</ele>
        <time>2017-02-12T09:19:42.000Z</time>
      </trkpt>
      <trkpt lat="47.44772" lon="6.72273">
        <ele>518.9</ele>
        <time>2017-02-12T09:19:43.000Z</time>
      </trkpt>
      <trkpt lat="47.4477" lon="6.72274">
        <ele>519.1</ele>
        <time>2017-02-12T09:19:44.000Z</time>
      </trkpt>
      <trkpt lat="47.44768" lon="6.72274">
        <ele>519.4</ele>
        <time>2017-02-12T09:19:45.000Z</time>
      </trkpt>
      <trkpt lat="47.44765" lon="6.72274">
        <ele>519.6</ele>
        <time>2017-02-12T09:19:46.000Z</time>
      </trkpt>
      <trkpt lat="47.44762" lon="6.72274">
        <ele>519.9</ele>
        <time>2017-02-12T09:19:47.000Z</time>
      </trkpt>
      <trkpt lat="47.44759" lon="6.72274">
        <ele>520.2</ele>
        <time>2017-02-12T09:19:48.000Z</time>
      </trkpt>
      <trkpt lat="47.44757" lon="6.72275">
        <ele>520.5</ele>
        <time>2017-02-12T09:19:49.000Z</time>
      </trkpt>
      <trkpt lat="47.44755" lon="6.72276">
        <ele>520.9</ele>
        <time>2017-02-12T09:19:50.000Z</time>
      </trkpt>
      <trkpt lat="47.44752" lon="6.72277">
        <ele>521.2</ele>
        <time>2017-02-12T09:19:51.000Z</time>
      </trkpt>
      <trkpt lat="47.44749" lon="6.72279">
        <ele>521.5</ele>
        <time>2017-02-12T09:19:52.000Z</time>
      </trkpt>
      <trkpt lat="47.44747" lon="6.7228">
        <ele>521.7</ele>
        <time>2017-02-12T09:19:53.000Z</time>
      </trkpt>
      <trkpt lat="47.44744" lon="6.72281">
        <ele>521.9</ele>
        <time>2017-02-12T09:19:54.000Z</time>
      </trkpt>
      <trkpt lat="47.44741" lon="6.72282">
        <ele>522.1</ele>
        <time>2017-02-12T09:19:55.000Z</time>
      </trkpt>
      <trkpt lat="47.44739" lon="6.72285">
        <ele>522.4</ele>
        <time>2017-02-12T09:19:56.000Z</time>
      </trkpt>
      <trkpt lat="47.44735" lon="6.72287">
        <ele>522.9</ele>
        <time>2017-02-12T09:19:58.000Z</time>
      </trkpt>
      <trkpt lat="47.44732" lon="6.72288">
        <ele>523.2</ele>
        <time>2017-02-12T09:19:59.000Z</time>
      </trkpt>
      <trkpt lat="47.4473" lon="6.7229">
        <ele>523.4</ele>
        <time>2017-02-12T09:20:00.000Z</time>
      </trkpt>
      <trkpt lat="47.44727" lon="6.72291">
        <ele>523.7</ele>
        <time>2017-02-12T09:20:01.000Z</time>
      </trkpt>
      <trkpt lat="47.44724" lon="6.72292">
        <ele>524</ele>
        <time>2017-02-12T09:20:02.000Z</time>
      </trkpt>
      <trkpt lat="47.44722" lon="6.72292">
        <ele>524.3</ele>
        <time>2017-02-12T09:20:03.000Z</time>
      </trkpt>
      <trkpt lat="47.44719" lon="6.72293">
        <ele>524.5</ele>
        <time>2017-02-12T09:20:04.000Z</time>
      </trkpt>
      <trkpt lat="47.44715" lon="6.72294">
        <ele>524.9</ele>
        <time>2017-02-12T09:20:05.000Z</time>
      </trkpt>
      <trkpt lat="47.44711" lon="6.72296">
        <ele>525.2</ele>
        <time>2017-02-12T09:20:06.000Z</time>
      </trkpt>
      <trkpt lat="47.44708" lon="6.72297">
        <ele>525.5</ele>
        <time>2017-02-12T09:20:07.000Z</time>
      </trkpt>
      <trkpt lat="47.44705" lon="6.72298">
        <ele>525.8</ele>
        <time>2017-02-12T09:20:08.000Z</time>
      </trkpt>
      <trkpt lat="47.44701" lon="6.72299">
        <ele>526.1</ele>
        <time>2017-02-12T09:20:09.000Z</time>
      </trkpt>
      <trkpt lat="47.44698" lon="6.72301">
        <ele>526.4</ele>
        <time>2017-02-12T09:20:10.000Z</time>
      </trkpt>
      <trkpt lat="47.44694" lon="6.72302">
        <ele>526.7</ele>
        <time>2017-02-12T09:20:11.000Z</time>
      </trkpt>
      <trkpt lat="47.4469" lon="6.72304">
        <ele>526.9</ele>
        <time>2017-02-12T09:20:12.000Z</time>
      </trkpt>
      <trkpt lat="47.44687" lon="6.72306">
        <ele>529.6</ele>
        <time>2017-02-12T09:20:13.000Z</time>
      </trkpt>
      <trkpt lat="47.44683" lon="6.72306">
        <ele>531.4</ele>
        <time>2017-02-12T09:20:14.000Z</time>
      </trkpt>
      <trkpt lat="47.4468" lon="6.72307">
        <ele>531.5</ele>
        <time>2017-02-12T09:20:15.000Z</time>
      </trkpt>
      <trkpt lat="47.44677" lon="6.72309">
        <ele>533.1</ele>
        <time>2017-02-12T09:20:16.000Z</time>
      </trkpt>
      <trkpt lat="47.44674" lon="6.7231">
        <ele>534.4</ele>
        <time>2017-02-12T09:20:17.000Z</time>
      </trkpt>
      <trkpt lat="47.4467" lon="6.72311">
        <ele>536</ele>
        <time>2017-02-12T09:20:18.000Z</time>
      </trkpt>
      <trkpt lat="47.44666" lon="6.72311">
        <ele>537.4</ele>
        <time>2017-02-12T09:20:19.000Z</time>
      </trkpt>
      <trkpt lat="47.44661" lon="6.72313">
        <ele>538.4</ele>
        <time>2017-02-12T09:20:20.000Z</time>
      </trkpt>
      <trkpt lat="47.44656" lon="6.72314">
        <ele>538.9</ele>
        <time>2017-02-12T09:20:21.000Z</time>
      </trkpt>
      <trkpt lat="47.44651" lon="6.72315">
        <ele>539</ele>
        <time>2017-02-12T09:20:22.000Z</time>
      </trkpt>
      <trkpt lat="47.44646" lon="6.72315">
        <ele>539.1</ele>
        <time>2017-02-12T09:20:23.000Z</time>
      </trkpt>
      <trkpt lat="47.44641" lon="6.72315">
        <ele>539.4</ele>
        <time>2017-02-12T09:20:24.000Z</time>
      </trkpt>
      <trkpt lat="47.44636" lon="6.72314">
        <ele>539.5</ele>
        <time>2017-02-12T09:20:25.000Z</time>
      </trkpt>
      <trkpt lat="47.44631" lon="6.72313">
        <ele>539.8</ele>
        <time>2017-02-12T09:20:26.000Z</time>
      </trkpt>
      <trkpt lat="47.44627" lon="6.72312">
        <ele>540.1</ele>
        <time>2017-02-12T09:20:27.000Z</time>
      </trkpt>
      <trkpt lat="47.44622" lon="6.72312">
        <ele>540.2</ele>
        <time>2017-02-12T09:20:28.000Z</time>
      </trkpt>
      <trkpt lat="47.44617" lon="6.72312">
        <ele>540</ele>
        <time>2017-02-12T09:20:29.000Z</time>
      </trkpt>
      <trkpt lat="47.44611" lon="6.72312">
        <ele>539.7</ele>
        <time>2017-02-12T09:20:30.000Z</time>
      </trkpt>
      <trkpt lat="47.44606" lon="6.72313">
        <ele>539.4</ele>
        <time>2017-02-12T09:20:31.000Z</time>
      </trkpt>
      <trkpt lat="47.446" lon="6.72314">
        <ele>538.5</ele>
        <time>2017-02-12T09:20:32.000Z</time>
      </trkpt>
      <trkpt lat="47.44596" lon="6.72315">
        <ele>537.9</ele>
        <time>2017-02-12T09:20:33.000Z</time>
      </trkpt>
      <trkpt lat="47.44592" lon="6.72317">
        <ele>537.8</ele>
        <time>2017-02-12T09:20:34.000Z</time>
      </trkpt>
      <trkpt lat="47.44588" lon="6.72318">
        <ele>537.7</ele>
        <time>2017-02-12T09:20:35.000Z</time>
      </trkpt>
      <trkpt lat="47.44583" lon="6.72319">
        <ele>536.7</ele>
        <time>2017-02-12T09:20:36.000Z</time>
      </trkpt>
      <trkpt lat="47.44579" lon="6.7232">
        <ele>536.3</ele>
        <time>2017-02-12T09:20:37.000Z</time>
      </trkpt>
      <trkpt lat="47.44575" lon="6.72321">
        <ele>536.3</ele>
        <time>2017-02-12T09:20:38.000Z</time>
      </trkpt>
      <trkpt lat="47.44569" lon="6.72322">
        <ele>536.1</ele>
        <time>2017-02-12T09:20:39.000Z</time>
      </trkpt>
      <trkpt lat="47.44564" lon="6.72323">
        <ele>536.1</ele>
        <time>2017-02-12T09:20:40.000Z</time>
      </trkpt>
      <trkpt lat="47.4456" lon="6.72325">
        <ele>536.1</ele>
        <time>2017-02-12T09:20:41.000Z</time>
      </trkpt>
      <trkpt lat="47.44556" lon="6.72325">
        <ele>536.1</ele>
        <time>2017-02-12T09:20:42.000Z</time>
      </trkpt>
      <trkpt lat="47.44553" lon="6.72326">
        <ele>536.1</ele>
        <time>2017-02-12T09:20:43.000Z</time>
      </trkpt>
      <trkpt lat="47.44548" lon="6.72327">
        <ele>536.2</ele>
        <time>2017-02-12T09:20:44.000Z</time>
      </trkpt>
      <trkpt lat="47.44544" lon="6.72328">
        <ele>536.2</ele>
        <time>2017-02-12T09:20:45.000Z</time>
      </trkpt>
      <trkpt lat="47.44538" lon="6.7233">
        <ele>536.2</ele>
        <time>2017-02-12T09:20:46.000Z</time>
      </trkpt>
      <trkpt lat="47.44533" lon="6.72332">
        <ele>536.3</ele>
        <time>2017-02-12T09:20:47.000Z</time>
      </trkpt>
      <trkpt lat="47.44528" lon="6.72333">
        <ele>536.3</ele>
        <time>2017-02-12T09:20:48.000Z</time>
      </trkpt>
      <trkpt lat="47.44523" lon="6.72334">
        <ele>536.4</ele>
        <time>2017-02-12T09:20:49.000Z</time>
      </trkpt>
      <trkpt lat="47.44518" lon="6.72334">
        <ele>536.5</ele>
        <time>2017-02-12T09:20:50.000Z</time>
      </trkpt>
      <trkpt lat="47.44514" lon="6.72336">
        <ele>536.5</ele>
        <time>2017-02-12T09:20:51.000Z</time>
      </trkpt>
      <trkpt lat="47.4451" lon="6.72338">
        <ele>536.5</ele>
        <time>2017-02-12T09:20:52.000Z</time>
      </trkpt>
      <trkpt lat="47.44506" lon="6.72339">
        <ele>536.5</ele>
        <time>2017-02-12T09:20:53.000Z</time>
      </trkpt>
      <trkpt lat="47.44501" lon="6.72341">
        <ele>535.9</ele>
        <time>2017-02-12T09:20:54.000Z</time>
      </trkpt>
      <trkpt lat="47.44495" lon="6.72342">
        <ele>536</ele>
        <time>2017-02-12T09:20:55.000Z</time>
      </trkpt>
      <trkpt lat="47.4449" lon="6.72344">
        <ele>535.8</ele>
        <time>2017-02-12T09:20:56.000Z</time>
      </trkpt>
      <trkpt lat="47.44485" lon="6.72346">
        <ele>535.4</ele>
        <time>2017-02-12T09:20:57.000Z</time>
      </trkpt>
      <trkpt lat="47.4448" lon="6.72346">
        <ele>535.1</ele>
        <time>2017-02-12T09:20:58.000Z</time>
      </trkpt>
      <trkpt lat="47.44475" lon="6.72346">
        <ele>535.6</ele>
        <time>2017-02-12T09:20:59.000Z</time>
      </trkpt>
      <trkpt lat="47.44471" lon="6.72347">
        <ele>535.1</ele>
        <time>2017-02-12T09:21:00.000Z</time>
      </trkpt>
      <trkpt lat="47.44467" lon="6.72348">
        <ele>535</ele>
        <time>2017-02-12T09:21:01.000Z</time>
      </trkpt>
      <trkpt lat="47.44464" lon="6.72348">
        <ele>535</ele>
        <time>2017-02-12T09:21:02.000Z</time>
      </trkpt>
      <trkpt lat="47.44461" lon="6.72348">
        <ele>535</ele>
        <time>2017-02-12T09:21:03.000Z</time>
      </trkpt>
      <trkpt lat="47.44457" lon="6.72348">
        <ele>535</ele>
        <time>2017-02-12T09:21:04.000Z</time>
      </trkpt>
      <trkpt lat="47.44451" lon="6.72349">
        <ele>534.6</ele>
        <time>2017-02-12T09:21:05.000Z</time>
      </trkpt>
      <trkpt lat="47.44446" lon="6.7235">
        <ele>534.5</ele>
        <time>2017-02-12T09:21:06.000Z</time>
      </trkpt>
      <trkpt lat="47.44442" lon="6.72351">
        <ele>534.3</ele>
        <time>2017-02-12T09:21:07.000Z</time>
      </trkpt>
      <trkpt lat="47.44436" lon="6.72353">
        <ele>532.6</ele>
        <time>2017-02-12T09:21:08.000Z</time>
      </trkpt>
      <trkpt lat="47.44431" lon="6.72354">
        <ele>532.5</ele>
        <time>2017-02-12T09:21:09.000Z</time>
      </trkpt>
      <trkpt lat="47.44426" lon="6.72355">
        <ele>531.2</ele>
        <time>2017-02-12T09:21:10.000Z</time>
      </trkpt>
      <trkpt lat="47.4442" lon="6.72356">
        <ele>530.3</ele>
        <time>2017-02-12T09:21:11.000Z</time>
      </trkpt>
      <trkpt lat="47.44414" lon="6.72356">
        <ele>529.7</ele>
        <time>2017-02-12T09:21:12.000Z</time>
      </trkpt>
      <trkpt lat="47.44409" lon="6.72357">
        <ele>529.5</ele>
        <time>2017-02-12T09:21:13.000Z</time>
      </trkpt>
      <trkpt lat="47.44404" lon="6.72357">
        <ele>529.3</ele>
        <time>2017-02-12T09:21:14.000Z</time>
      </trkpt>
      <trkpt lat="47.44399" lon="6.72358">
        <ele>528.9</ele>
        <time>2017-02-12T09:21:15.000Z</time>
      </trkpt>
      <trkpt lat="47.44394" lon="6.72359">
        <ele>528.3</ele>
        <time>2017-02-12T09:21:16.000Z</time>
      </trkpt>
      <trkpt lat="47.44389" lon="6.7236">
        <ele>528.1</ele>
        <time>2017-02-12T09:21:17.000Z</time>
      </trkpt>
      <trkpt lat="47.44385" lon="6.72361">
        <ele>527.7</ele>
        <time>2017-02-12T09:21:18.000Z</time>
      </trkpt>
      <trkpt lat="47.4438" lon="6.72362">
        <ele>527.3</ele>
        <time>2017-02-12T09:21:19.000Z</time>
      </trkpt>
      <trkpt lat="47.44376" lon="6.72364">
        <ele>527</ele>
        <time>2017-02-12T09:21:20.000Z</time>
      </trkpt>
      <trkpt lat="47.44371" lon="6.72365">
        <ele>526.6</ele>
        <time>2017-02-12T09:21:21.000Z</time>
      </trkpt>
      <trkpt lat="47.44367" lon="6.72367">
        <ele>526.2</ele>
        <time>2017-02-12T09:21:22.000Z</time>
      </trkpt>
      <trkpt lat="47.44362" lon="6.72368">
        <ele>526</ele>
        <time>2017-02-12T09:21:23.000Z</time>
      </trkpt>
      <trkpt lat="47.44358" lon="6.7237">
        <ele>525.9</ele>
        <time>2017-02-12T09:21:24.000Z</time>
      </trkpt>
      <trkpt lat="47.44355" lon="6.72371">
        <ele>525.7</ele>
        <time>2017-02-12T09:21:25.000Z</time>
      </trkpt>
      <trkpt lat="47.4435" lon="6.72372">
        <ele>525.4</ele>
        <time>2017-02-12T09:21:26.000Z</time>
      </trkpt>
      <trkpt lat="47.44346" lon="6.72373">
        <ele>524.8</ele>
        <time>2017-02-12T09:21:27.000Z</time>
      </trkpt>
      <trkpt lat="47.44342" lon="6.72375">
        <ele>524.6</ele>
        <time>2017-02-12T09:21:28.000Z</time>
      </trkpt>
      <trkpt lat="47.44338" lon="6.72376">
        <ele>524.5</ele>
        <time>2017-02-12T09:21:29.000Z</time>
      </trkpt>
      <trkpt lat="47.44334" lon="6.72377">
        <ele>524.9</ele>
        <time>2017-02-12T09:21:30.000Z</time>
      </trkpt>
      <trkpt lat="47.4433" lon="6.72378">
        <ele>525.7</ele>
        <time>2017-02-12T09:21:31.000Z</time>
      </trkpt>
      <trkpt lat="47.44326" lon="6.72379">
        <ele>526.5</ele>
        <time>2017-02-12T09:21:32.000Z</time>
      </trkpt>
      <trkpt lat="47.44322" lon="6.7238">
        <ele>527</ele>
        <time>2017-02-12T09:21:33.000Z</time>
      </trkpt>
      <trkpt lat="47.44319" lon="6.72382">
        <ele>527.1</ele>
        <time>2017-02-12T09:21:34.000Z</time>
      </trkpt>
      <trkpt lat="47.44316" lon="6.72383">
        <ele>527.2</ele>
        <time>2017-02-12T09:21:35.000Z</time>
      </trkpt>
      <trkpt lat="47.44312" lon="6.72385">
        <ele>528.4</ele>
        <time>2017-02-12T09:21:36.000Z</time>
      </trkpt>
      <trkpt lat="47.44309" lon="6.72386">
        <ele>528.5</ele>
        <time>2017-02-12T09:21:37.000Z</time>
      </trkpt>
      <trkpt lat="47.44305" lon="6.72387">
        <ele>528.6</ele>
        <time>2017-02-12T09:21:38.000Z</time>
      </trkpt>
      <trkpt lat="47.44301" lon="6.72387">
        <ele>529</ele>
        <time>2017-02-12T09:21:39.000Z</time>
      </trkpt>
      <trkpt lat="47.44298" lon="6.72388">
        <ele>529.1</ele>
        <time>2017-02-12T09:21:40.000Z</time>
      </trkpt>
      <trkpt lat="47.44295" lon="6.72389">
        <ele>529.2</ele>
        <time>2017-02-12T09:21:41.000Z</time>
      </trkpt>
      <trkpt lat="47.44291" lon="6.7239">
        <ele>530.6</ele>
        <time>2017-02-12T09:21:42.000Z</time>
      </trkpt>
      <trkpt lat="47.44288" lon="6.72392">
        <ele>530.6</ele>
        <time>2017-02-12T09:21:43.000Z</time>
      </trkpt>
      <trkpt lat="47.44283" lon="6.72393">
        <ele>530.8</ele>
        <time>2017-02-12T09:21:44.000Z</time>
      </trkpt>
      <trkpt lat="47.44278" lon="6.72393">
        <ele>530.9</ele>
        <time>2017-02-12T09:21:45.000Z</time>
      </trkpt>
      <trkpt lat="47.44274" lon="6.72394">
        <ele>532.6</ele>
        <time>2017-02-12T09:21:46.000Z</time>
      </trkpt>
      <trkpt lat="47.4427" lon="6.72395">
        <ele>532.7</ele>
        <time>2017-02-12T09:21:47.000Z</time>
      </trkpt>
      <trkpt lat="47.44266" lon="6.72395">
        <ele>532.8</ele>
        <time>2017-02-12T09:21:48.000Z</time>
      </trkpt>
      <trkpt lat="47.44263" lon="6.72397">
        <ele>533</ele>
        <time>2017-02-12T09:21:49.000Z</time>
      </trkpt>
      <trkpt lat="47.44259" lon="6.724">
        <ele>533.2</ele>
        <time>2017-02-12T09:21:50.000Z</time>
      </trkpt>
      <trkpt lat="47.44255" lon="6.72401">
        <ele>533.3</ele>
        <time>2017-02-12T09:21:51.000Z</time>
      </trkpt>
      <trkpt lat="47.44252" lon="6.72401">
        <ele>533.5</ele>
        <time>2017-02-12T09:21:52.000Z</time>
      </trkpt>
      <trkpt lat="47.44248" lon="6.72402">
        <ele>533.5</ele>
        <time>2017-02-12T09:21:53.000Z</time>
      </trkpt>
      <trkpt lat="47.44246" lon="6.72403">
        <ele>533.6</ele>
        <time>2017-02-12T09:21:54.000Z</time>
      </trkpt>
      <trkpt lat="47.44242" lon="6.72404">
        <ele>533.6</ele>
        <time>2017-02-12T09:21:55.000Z</time>
      </trkpt>
      <trkpt lat="47.44238" lon="6.72404">
        <ele>533.8</ele>
        <time>2017-02-12T09:21:56.000Z</time>
      </trkpt>
      <trkpt lat="47.44235" lon="6.72404">
        <ele>534</ele>
        <time>2017-02-12T09:21:57.000Z</time>
      </trkpt>
      <trkpt lat="47.4423" lon="6.72405">
        <ele>534.1</ele>
        <time>2017-02-12T09:21:58.000Z</time>
      </trkpt>
      <trkpt lat="47.44224" lon="6.72406">
        <ele>534.3</ele>
        <time>2017-02-12T09:21:59.000Z</time>
      </trkpt>
      <trkpt lat="47.44219" lon="6.72407">
        <ele>534.5</ele>
        <time>2017-02-12T09:22:00.000Z</time>
      </trkpt>
      <trkpt lat="47.44212" lon="6.72408">
        <ele>535.8</ele>
        <time>2017-02-12T09:22:01.000Z</time>
      </trkpt>
      <trkpt lat="47.44206" lon="6.72409">
        <ele>537.1</ele>
        <time>2017-02-12T09:22:02.000Z</time>
      </trkpt>
      <trkpt lat="47.442" lon="6.7241">
        <ele>538.1</ele>
        <time>2017-02-12T09:22:03.000Z</time>
      </trkpt>
      <trkpt lat="47.44197" lon="6.72412">
        <ele>538.2</ele>
        <time>2017-02-12T09:22:04.000Z</time>
      </trkpt>
      <trkpt lat="47.44194" lon="6.72412">
        <ele>538.2</ele>
        <time>2017-02-12T09:22:05.000Z</time>
      </trkpt>
      <trkpt lat="47.4419" lon="6.72414">
        <ele>538.2</ele>
        <time>2017-02-12T09:22:06.000Z</time>
      </trkpt>
      <trkpt lat="47.44185" lon="6.72415">
        <ele>539</ele>
        <time>2017-02-12T09:22:07.000Z</time>
      </trkpt>
      <trkpt lat="47.44178" lon="6.72416">
        <ele>539.5</ele>
        <time>2017-02-12T09:22:08.000Z</time>
      </trkpt>
      <trkpt lat="47.44173" lon="6.72417">
        <ele>540.3</ele>
        <time>2017-02-12T09:22:09.000Z</time>
      </trkpt>
      <trkpt lat="47.4417" lon="6.72418">
        <ele>540.3</ele>
        <time>2017-02-12T09:22:10.000Z</time>
      </trkpt>
      <trkpt lat="47.44167" lon="6.72419">
        <ele>540.3</ele>
        <time>2017-02-12T09:22:11.000Z</time>
      </trkpt>
      <trkpt lat="47.44163" lon="6.72421">
        <ele>540.1</ele>
        <time>2017-02-12T09:22:12.000Z</time>
      </trkpt>
      <trkpt lat="47.44161" lon="6.72423">
        <ele>540.2</ele>
        <time>2017-02-12T09:22:13.000Z</time>
      </trkpt>
      <trkpt lat="47.44158" lon="6.72425">
        <ele>540.2</ele>
        <time>2017-02-12T09:22:14.000Z</time>
      </trkpt>
      <trkpt lat="47.44153" lon="6.72428">
        <ele>540.3</ele>
        <time>2017-02-12T09:22:15.000Z</time>
      </trkpt>
      <trkpt lat="47.44148" lon="6.7243">
        <ele>540.4</ele>
        <time>2017-02-12T09:22:16.000Z</time>
      </trkpt>
      <trkpt lat="47.44142" lon="6.7243">
        <ele>540.4</ele>
        <time>2017-02-12T09:22:17.000Z</time>
      </trkpt>
      <trkpt lat="47.44135" lon="6.72432">
        <ele>540.3</ele>
        <time>2017-02-12T09:22:18.000Z</time>
      </trkpt>
      <trkpt lat="47.44128" lon="6.72433">
        <ele>540.2</ele>
        <time>2017-02-12T09:22:19.000Z</time>
      </trkpt>
      <trkpt lat="47.44122" lon="6.72435">
        <ele>540.4</ele>
        <time>2017-02-12T09:22:20.000Z</time>
      </trkpt>
      <trkpt lat="47.44115" lon="6.72437">
        <ele>540.5</ele>
        <time>2017-02-12T09:22:21.000Z</time>
      </trkpt>
      <trkpt lat="47.44107" lon="6.72439">
        <ele>540.3</ele>
        <time>2017-02-12T09:22:22.000Z</time>
      </trkpt>
      <trkpt lat="47.44099" lon="6.7244">
        <ele>540.4</ele>
        <time>2017-02-12T09:22:23.000Z</time>
      </trkpt>
      <trkpt lat="47.4409" lon="6.72443">
        <ele>540.3</ele>
        <time>2017-02-12T09:22:24.000Z</time>
      </trkpt>
      <trkpt lat="47.44081" lon="6.72445">
        <ele>539.6</ele>
        <time>2017-02-12T09:22:25.000Z</time>
      </trkpt>
      <trkpt lat="47.44073" lon="6.72447">
        <ele>539.4</ele>
        <time>2017-02-12T09:22:26.000Z</time>
      </trkpt>
      <trkpt lat="47.44065" lon="6.72451">
        <ele>538.5</ele>
        <time>2017-02-12T09:22:27.000Z</time>
      </trkpt>
      <trkpt lat="47.44058" lon="6.72455">
        <ele>537.3</ele>
        <time>2017-02-12T09:22:28.000Z</time>
      </trkpt>
      <trkpt lat="47.4405" lon="6.72458">
        <ele>535.9</ele>
        <time>2017-02-12T09:22:29.000Z</time>
      </trkpt>
      <trkpt lat="47.44043" lon="6.72461">
        <ele>534.4</ele>
        <time>2017-02-12T09:22:30.000Z</time>
      </trkpt>
      <trkpt lat="47.44036" lon="6.72464">
        <ele>532.9</ele>
        <time>2017-02-12T09:22:31.000Z</time>
      </trkpt>
      <trkpt lat="47.4403" lon="6.72467">
        <ele>532</ele>
        <time>2017-02-12T09:22:32.000Z</time>
      </trkpt>
      <trkpt lat="47.44024" lon="6.72469">
        <ele>530.7</ele>
        <time>2017-02-12T09:22:33.000Z</time>
      </trkpt>
      <trkpt lat="47.44018" lon="6.72471">
        <ele>529.8</ele>
        <time>2017-02-12T09:22:34.000Z</time>
      </trkpt>
      <trkpt lat="47.44012" lon="6.72474">
        <ele>529.1</ele>
        <time>2017-02-12T09:22:35.000Z</time>
      </trkpt>
      <trkpt lat="47.44006" lon="6.72476">
        <ele>528.6</ele>
        <time>2017-02-12T09:22:36.000Z</time>
      </trkpt>
      <trkpt lat="47.44" lon="6.72477">
        <ele>528.4</ele>
        <time>2017-02-12T09:22:37.000Z</time>
      </trkpt>
      <trkpt lat="47.43996" lon="6.72479">
        <ele>527.3</ele>
        <time>2017-02-12T09:22:38.000Z</time>
      </trkpt>
      <trkpt lat="47.43991" lon="6.72481">
        <ele>526.2</ele>
        <time>2017-02-12T09:22:39.000Z</time>
      </trkpt>
      <trkpt lat="47.43986" lon="6.72484">
        <ele>525.6</ele>
        <time>2017-02-12T09:22:40.000Z</time>
      </trkpt>
      <trkpt lat="47.43981" lon="6.72486">
        <ele>525.3</ele>
        <time>2017-02-12T09:22:41.000Z</time>
      </trkpt>
      <trkpt lat="47.43976" lon="6.72488">
        <ele>524.6</ele>
        <time>2017-02-12T09:22:42.000Z</time>
      </trkpt>
      <trkpt lat="47.43971" lon="6.7249">
        <ele>523.8</ele>
        <time>2017-02-12T09:22:43.000Z</time>
      </trkpt>
      <trkpt lat="47.43967" lon="6.72491">
        <ele>523.2</ele>
        <time>2017-02-12T09:22:44.000Z</time>
      </trkpt>
      <trkpt lat="47.43962" lon="6.72493">
        <ele>522.7</ele>
        <time>2017-02-12T09:22:45.000Z</time>
      </trkpt>
      <trkpt lat="47.43957" lon="6.72494">
        <ele>522.3</ele>
        <time>2017-02-12T09:22:46.000Z</time>
      </trkpt>
      <trkpt lat="47.43952" lon="6.72496">
        <ele>522.4</ele>
        <time>2017-02-12T09:22:47.000Z</time>
      </trkpt>
      <trkpt lat="47.43947" lon="6.72498">
        <ele>522.7</ele>
        <time>2017-02-12T09:22:48.000Z</time>
      </trkpt>
      <trkpt lat="47.43942" lon="6.72499">
        <ele>523.2</ele>
        <time>2017-02-12T09:22:49.000Z</time>
      </trkpt>
      <trkpt lat="47.43936" lon="6.72498">
        <ele>523.7</ele>
        <time>2017-02-12T09:22:50.000Z</time>
      </trkpt>
      <trkpt lat="47.43931" lon="6.72497">
        <ele>523.5</ele>
        <time>2017-02-12T09:22:51.000Z</time>
      </trkpt>
      <trkpt lat="47.43927" lon="6.72495">
        <ele>522.9</ele>
        <time>2017-02-12T09:22:52.000Z</time>
      </trkpt>
      <trkpt lat="47.43923" lon="6.72491">
        <ele>522.3</ele>
        <time>2017-02-12T09:22:53.000Z</time>
      </trkpt>
      <trkpt lat="47.43918" lon="6.72488">
        <ele>521.7</ele>
        <time>2017-02-12T09:22:54.000Z</time>
      </trkpt>
      <trkpt lat="47.43913" lon="6.72484">
        <ele>521</ele>
        <time>2017-02-12T09:22:55.000Z</time>
      </trkpt>
      <trkpt lat="47.43907" lon="6.7248">
        <ele>519.9</ele>
        <time>2017-02-12T09:22:56.000Z</time>
      </trkpt>
      <trkpt lat="47.43901" lon="6.72475">
        <ele>518.8</ele>
        <time>2017-02-12T09:22:57.000Z</time>
      </trkpt>
      <trkpt lat="47.43895" lon="6.72471">
        <ele>517.9</ele>
        <time>2017-02-12T09:22:58.000Z</time>
      </trkpt>
      <trkpt lat="47.43889" lon="6.72467">
        <ele>517</ele>
        <time>2017-02-12T09:22:59.000Z</time>
      </trkpt>
      <trkpt lat="47.43884" lon="6.72463">
        <ele>516.2</ele>
        <time>2017-02-12T09:23:00.000Z</time>
      </trkpt>
      <trkpt lat="47.43878" lon="6.72459">
        <ele>515.2</ele>
        <time>2017-02-12T09:23:01.000Z</time>
      </trkpt>
      <trkpt lat="47.43873" lon="6.72454">
        <ele>514.3</ele>
        <time>2017-02-12T09:23:02.000Z</time>
      </trkpt>
      <trkpt lat="47.43867" lon="6.7245">
        <ele>513.4</ele>
        <time>2017-02-12T09:23:03.000Z</time>
      </trkpt>
      <trkpt lat="47.43861" lon="6.72445">
        <ele>513.2</ele>
        <time>2017-02-12T09:23:04.000Z</time>
      </trkpt>
      <trkpt lat="47.43856" lon="6.7244">
        <ele>513.2</ele>
        <time>2017-02-12T09:23:05.000Z</time>
      </trkpt>
      <trkpt lat="47.43851" lon="6.72436">
        <ele>513.8</ele>
        <time>2017-02-12T09:23:06.000Z</time>
      </trkpt>
      <trkpt lat="47.43846" lon="6.72432">
        <ele>514.4</ele>
        <time>2017-02-12T09:23:07.000Z</time>
      </trkpt>
      <trkpt lat="47.43842" lon="6.72427">
        <ele>515</ele>
        <time>2017-02-12T09:23:08.000Z</time>
      </trkpt>
      <trkpt lat="47.43837" lon="6.72421">
        <ele>515.3</ele>
        <time>2017-02-12T09:23:09.000Z</time>
      </trkpt>
      <trkpt lat="47.43833" lon="6.72416">
        <ele>515.2</ele>
        <time>2017-02-12T09:23:10.000Z</time>
      </trkpt>
      <trkpt lat="47.43829" lon="6.72411">
        <ele>515.2</ele>
        <time>2017-02-12T09:23:11.000Z</time>
      </trkpt>
      <trkpt lat="47.43824" lon="6.72406">
        <ele>515</ele>
        <time>2017-02-12T09:23:12.000Z</time>
      </trkpt>
      <trkpt lat="47.4382" lon="6.72402">
        <ele>515.1</ele>
        <time>2017-02-12T09:23:13.000Z</time>
      </trkpt>
      <trkpt lat="47.43816" lon="6.72397">
        <ele>515.4</ele>
        <time>2017-02-12T09:23:14.000Z</time>
      </trkpt>
      <trkpt lat="47.43812" lon="6.72392">
        <ele>515.9</ele>
        <time>2017-02-12T09:23:15.000Z</time>
      </trkpt>
      <trkpt lat="47.43808" lon="6.72387">
        <ele>516</ele>
        <time>2017-02-12T09:23:16.000Z</time>
      </trkpt>
      <trkpt lat="47.43804" lon="6.72382">
        <ele>516.2</ele>
        <time>2017-02-12T09:23:17.000Z</time>
      </trkpt>
      <trkpt lat="47.438" lon="6.72377">
        <ele>516.3</ele>
        <time>2017-02-12T09:23:18.000Z</time>
      </trkpt>
      <trkpt lat="47.43796" lon="6.72372">
        <ele>516.2</ele>
        <time>2017-02-12T09:23:19.000Z</time>
      </trkpt>
      <trkpt lat="47.43792" lon="6.72367">
        <ele>516.3</ele>
        <time>2017-02-12T09:23:20.000Z</time>
      </trkpt>
      <trkpt lat="47.43787" lon="6.72361">
        <ele>516.2</ele>
        <time>2017-02-12T09:23:21.000Z</time>
      </trkpt>
      <trkpt lat="47.43783" lon="6.72356">
        <ele>516.1</ele>
        <time>2017-02-12T09:23:22.000Z</time>
      </trkpt>
      <trkpt lat="47.43779" lon="6.72351">
        <ele>515.9</ele>
        <time>2017-02-12T09:23:23.000Z</time>
      </trkpt>
      <trkpt lat="47.43775" lon="6.72346">
        <ele>515.7</ele>
        <time>2017-02-12T09:23:24.000Z</time>
      </trkpt>
      <trkpt lat="47.43771" lon="6.72341">
        <ele>515.6</ele>
        <time>2017-02-12T09:23:25.000Z</time>
      </trkpt>
      <trkpt lat="47.43767" lon="6.72336">
        <ele>515.5</ele>
        <time>2017-02-12T09:23:26.000Z</time>
      </trkpt>
      <trkpt lat="47.43763" lon="6.7233">
        <ele>515.4</ele>
        <time>2017-02-12T09:23:27.000Z</time>
      </trkpt>
      <trkpt lat="47.43759" lon="6.72325">
        <ele>515.2</ele>
        <time>2017-02-12T09:23:28.000Z</time>
      </trkpt>
      <trkpt lat="47.43755" lon="6.72319">
        <ele>515.3</ele>
        <time>2017-02-12T09:23:29.000Z</time>
      </trkpt>
      <trkpt lat="47.43751" lon="6.72313">
        <ele>515.2</ele>
        <time>2017-02-12T09:23:30.000Z</time>
      </trkpt>
      <trkpt lat="47.43747" lon="6.72307">
        <ele>515</ele>
        <time>2017-02-12T09:23:31.000Z</time>
      </trkpt>
      <trkpt lat="47.43741" lon="6.72303">
        <ele>514.5</ele>
        <time>2017-02-12T09:23:32.000Z</time>
      </trkpt>
      <trkpt lat="47.43735" lon="6.72302">
        <ele>514.1</ele>
        <time>2017-02-12T09:23:33.000Z</time>
      </trkpt>
      <trkpt lat="47.4373" lon="6.72302">
        <ele>514</ele>
        <time>2017-02-12T09:23:34.000Z</time>
      </trkpt>
      <trkpt lat="47.43724" lon="6.72304">
        <ele>514.5</ele>
        <time>2017-02-12T09:23:35.000Z</time>
      </trkpt>
      <trkpt lat="47.43719" lon="6.72305">
        <ele>514.5</ele>
        <time>2017-02-12T09:23:36.000Z</time>
      </trkpt>
      <trkpt lat="47.43715" lon="6.72309">
        <ele>514.4</ele>
        <time>2017-02-12T09:23:37.000Z</time>
      </trkpt>
      <trkpt lat="47.43711" lon="6.72312">
        <ele>514.1</ele>
        <time>2017-02-12T09:23:38.000Z</time>
      </trkpt>
      <trkpt lat="47.43708" lon="6.72315">
        <ele>514.1</ele>
        <time>2017-02-12T09:23:39.000Z</time>
      </trkpt>
      <trkpt lat="47.43705" lon="6.72318">
        <ele>513.9</ele>
        <time>2017-02-12T09:23:40.000Z</time>
      </trkpt>
      <trkpt lat="47.43701" lon="6.72322">
        <ele>514.3</ele>
        <time>2017-02-12T09:23:41.000Z</time>
      </trkpt>
      <trkpt lat="47.43697" lon="6.72325">
        <ele>514.6</ele>
        <time>2017-02-12T09:23:42.000Z</time>
      </trkpt>
      <trkpt lat="47.43693" lon="6.72328">
        <ele>515</ele>
        <time>2017-02-12T09:23:43.000Z</time>
      </trkpt>
      <trkpt lat="47.43689" lon="6.72332">
        <ele>515.5</ele>
        <time>2017-02-12T09:23:44.000Z</time>
      </trkpt>
      <trkpt lat="47.43686" lon="6.72335">
        <ele>515.9</ele>
        <time>2017-02-12T09:23:45.000Z</time>
      </trkpt>
      <trkpt lat="47.43683" lon="6.72338">
        <ele>516.3</ele>
        <time>2017-02-12T09:23:46.000Z</time>
      </trkpt>
      <trkpt lat="47.43679" lon="6.72341">
        <ele>516.6</ele>
        <time>2017-02-12T09:23:47.000Z</time>
      </trkpt>
      <trkpt lat="47.43675" lon="6.72343">
        <ele>517.1</ele>
        <time>2017-02-12T09:23:48.000Z</time>
      </trkpt>
      <trkpt lat="47.43671" lon="6.72345">
        <ele>517.3</ele>
        <time>2017-02-12T09:23:49.000Z</time>
      </trkpt>
      <trkpt lat="47.43667" lon="6.72348">
        <ele>517.4</ele>
        <time>2017-02-12T09:23:50.000Z</time>
      </trkpt>
      <trkpt lat="47.43663" lon="6.7235">
        <ele>517.3</ele>
        <time>2017-02-12T09:23:51.000Z</time>
      </trkpt>
      <trkpt lat="47.43658" lon="6.72354">
        <ele>517.5</ele>
        <time>2017-02-12T09:23:52.000Z</time>
      </trkpt>
      <trkpt lat="47.43654" lon="6.72357">
        <ele>518.1</ele>
        <time>2017-02-12T09:23:53.000Z</time>
      </trkpt>
      <trkpt lat="47.4365" lon="6.72359">
        <ele>518.9</ele>
        <time>2017-02-12T09:23:54.000Z</time>
      </trkpt>
      <trkpt lat="47.43646" lon="6.72362">
        <ele>519.2</ele>
        <time>2017-02-12T09:23:55.000Z</time>
      </trkpt>
      <trkpt lat="47.43643" lon="6.72363">
        <ele>519</ele>
        <time>2017-02-12T09:23:56.000Z</time>
      </trkpt>
      <trkpt lat="47.4364" lon="6.72365">
        <ele>519.1</ele>
        <time>2017-02-12T09:23:57.000Z</time>
      </trkpt>
      <trkpt lat="47.43636" lon="6.72367">
        <ele>519.3</ele>
        <time>2017-02-12T09:23:58.000Z</time>
      </trkpt>
      <trkpt lat="47.43633" lon="6.72368">
        <ele>519.4</ele>
        <time>2017-02-12T09:23:59.000Z</time>
      </trkpt>
      <trkpt lat="47.43629" lon="6.7237">
        <ele>519.4</ele>
        <time>2017-02-12T09:24:00.000Z</time>
      </trkpt>
      <trkpt lat="47.43625" lon="6.72372">
        <ele>520.2</ele>
        <time>2017-02-12T09:24:01.000Z</time>
      </trkpt>
      <trkpt lat="47.4362" lon="6.72374">
        <ele>520.9</ele>
        <time>2017-02-12T09:24:02.000Z</time>
      </trkpt>
      <trkpt lat="47.43617" lon="6.72375">
        <ele>521.8</ele>
        <time>2017-02-12T09:24:03.000Z</time>
      </trkpt>
      <trkpt lat="47.43613" lon="6.72377">
        <ele>521.8</ele>
        <time>2017-02-12T09:24:04.000Z</time>
      </trkpt>
      <trkpt lat="47.43609" lon="6.72379">
        <ele>522</ele>
        <time>2017-02-12T09:24:05.000Z</time>
      </trkpt>
      <trkpt lat="47.43606" lon="6.7238">
        <ele>522.2</ele>
        <time>2017-02-12T09:24:06.000Z</time>
      </trkpt>
      <trkpt lat="47.43602" lon="6.72381">
        <ele>522.2</ele>
        <time>2017-02-12T09:24:07.000Z</time>
      </trkpt>
      <trkpt lat="47.43599" lon="6.72383">
        <ele>522.2</ele>
        <time>2017-02-12T09:24:08.000Z</time>
      </trkpt>
      <trkpt lat="47.43596" lon="6.72385">
        <ele>522.2</ele>
        <time>2017-02-12T09:24:09.000Z</time>
      </trkpt>
      <trkpt lat="47.43592" lon="6.72386">
        <ele>522.2</ele>
        <time>2017-02-12T09:24:10.000Z</time>
      </trkpt>
      <trkpt lat="47.43588" lon="6.72388">
        <ele>522.2</ele>
        <time>2017-02-12T09:24:11.000Z</time>
      </trkpt>
      <trkpt lat="47.43586" lon="6.72389">
        <ele>522.2</ele>
        <time>2017-02-12T09:24:12.000Z</time>
      </trkpt>
      <trkpt lat="47.43583" lon="6.72391">
        <ele>522.3</ele>
        <time>2017-02-12T09:24:13.000Z</time>
      </trkpt>
      <trkpt lat="47.43579" lon="6.72393">
        <ele>522.3</ele>
        <time>2017-02-12T09:24:14.000Z</time>
      </trkpt>
      <trkpt lat="47.43576" lon="6.72394">
        <ele>522.2</ele>
        <time>2017-02-12T09:24:15.000Z</time>
      </trkpt>
      <trkpt lat="47.43572" lon="6.72396">
        <ele>522.3</ele>
        <time>2017-02-12T09:24:16.000Z</time>
      </trkpt>
      <trkpt lat="47.43569" lon="6.72397">
        <ele>522.3</ele>
        <time>2017-02-12T09:24:17.000Z</time>
      </trkpt>
      <trkpt lat="47.43566" lon="6.72399">
        <ele>522.3</ele>
        <time>2017-02-12T09:24:18.000Z</time>
      </trkpt>
      <trkpt lat="47.43563" lon="6.724">
        <ele>522.3</ele>
        <time>2017-02-12T09:24:19.000Z</time>
      </trkpt>
      <trkpt lat="47.43559" lon="6.72402">
        <ele>522.3</ele>
        <time>2017-02-12T09:24:20.000Z</time>
      </trkpt>
      <trkpt lat="47.43555" lon="6.72404">
        <ele>522.4</ele>
        <time>2017-02-12T09:24:21.000Z</time>
      </trkpt>
      <trkpt lat="47.43552" lon="6.72405">
        <ele>522.4</ele>
        <time>2017-02-12T09:24:22.000Z</time>
      </trkpt>
      <trkpt lat="47.43549" lon="6.72406">
        <ele>522.4</ele>
        <time>2017-02-12T09:24:23.000Z</time>
      </trkpt>
      <trkpt lat="47.43546" lon="6.72408">
        <ele>522.4</ele>
        <time>2017-02-12T09:24:24.000Z</time>
      </trkpt>
      <trkpt lat="47.43543" lon="6.72409">
        <ele>522.5</ele>
        <time>2017-02-12T09:24:25.000Z</time>
      </trkpt>
      <trkpt lat="47.4354" lon="6.72411">
        <ele>522.4</ele>
        <time>2017-02-12T09:24:26.000Z</time>
      </trkpt>
      <trkpt lat="47.43538" lon="6.72412">
        <ele>522.4</ele>
        <time>2017-02-12T09:24:27.000Z</time>
      </trkpt>
      <trkpt lat="47.43535" lon="6.72414">
        <ele>522.4</ele>
        <time>2017-02-12T09:24:28.000Z</time>
      </trkpt>
      <trkpt lat="47.43533" lon="6.72414">
        <ele>522.3</ele>
        <time>2017-02-12T09:24:29.000Z</time>
      </trkpt>
      <trkpt lat="47.4353" lon="6.72415">
        <ele>522.3</ele>
        <time>2017-02-12T09:24:30.000Z</time>
      </trkpt>
      <trkpt lat="47.43528" lon="6.72417">
        <ele>522.3</ele>
        <time>2017-02-12T09:24:31.000Z</time>
      </trkpt>
      <trkpt lat="47.43525" lon="6.72418">
        <ele>522.2</ele>
        <time>2017-02-12T09:24:32.000Z</time>
      </trkpt>
      <trkpt lat="47.43523" lon="6.72419">
        <ele>522.2</ele>
        <time>2017-02-12T09:24:33.000Z</time>
      </trkpt>
      <trkpt lat="47.43519" lon="6.72421">
        <ele>522.2</ele>
        <time>2017-02-12T09:24:35.000Z</time>
      </trkpt>
      <trkpt lat="47.43517" lon="6.72421">
        <ele>522.2</ele>
        <time>2017-02-12T09:24:36.000Z</time>
      </trkpt>
      <trkpt lat="47.43514" lon="6.72419">
        <ele>522.2</ele>
        <time>2017-02-12T09:24:37.000Z</time>
      </trkpt>
      <trkpt lat="47.43512" lon="6.72416">
        <ele>522.1</ele>
        <time>2017-02-12T09:24:38.000Z</time>
      </trkpt>
      <trkpt lat="47.4351" lon="6.72414">
        <ele>522</ele>
        <time>2017-02-12T09:24:39.000Z</time>
      </trkpt>
      <trkpt lat="47.43508" lon="6.7241">
        <ele>522</ele>
        <time>2017-02-12T09:24:40.000Z</time>
      </trkpt>
      <trkpt lat="47.43505" lon="6.72405">
        <ele>521.9</ele>
        <time>2017-02-12T09:24:41.000Z</time>
      </trkpt>
      <trkpt lat="47.43503" lon="6.72402">
        <ele>521.9</ele>
        <time>2017-02-12T09:24:42.000Z</time>
      </trkpt>
      <trkpt lat="47.435" lon="6.72398">
        <ele>521.8</ele>
        <time>2017-02-12T09:24:43.000Z</time>
      </trkpt>
      <trkpt lat="47.43497" lon="6.72394">
        <ele>521.7</ele>
        <time>2017-02-12T09:24:44.000Z</time>
      </trkpt>
      <trkpt lat="47.43494" lon="6.7239">
        <ele>521.3</ele>
        <time>2017-02-12T09:24:45.000Z</time>
      </trkpt>
      <trkpt lat="47.43492" lon="6.72386">
        <ele>521.2</ele>
        <time>2017-02-12T09:24:46.000Z</time>
      </trkpt>
      <trkpt lat="47.43489" lon="6.72381">
        <ele>521.1</ele>
        <time>2017-02-12T09:24:47.000Z</time>
      </trkpt>
      <trkpt lat="47.43485" lon="6.72376">
        <ele>521.4</ele>
        <time>2017-02-12T09:24:48.000Z</time>
      </trkpt>
      <trkpt lat="47.43482" lon="6.72372">
        <ele>521</ele>
        <time>2017-02-12T09:24:49.000Z</time>
      </trkpt>
      <trkpt lat="47.4348" lon="6.72368">
        <ele>521.3</ele>
        <time>2017-02-12T09:24:50.000Z</time>
      </trkpt>
      <trkpt lat="47.43477" lon="6.72364">
        <ele>521</ele>
        <time>2017-02-12T09:24:51.000Z</time>
      </trkpt>
      <trkpt lat="47.43474" lon="6.72359">
        <ele>521</ele>
        <time>2017-02-12T09:24:52.000Z</time>
      </trkpt>
      <trkpt lat="47.43472" lon="6.72356">
        <ele>521.1</ele>
        <time>2017-02-12T09:24:53.000Z</time>
      </trkpt>
      <trkpt lat="47.43469" lon="6.72351">
        <ele>520.9</ele>
        <time>2017-02-12T09:24:54.000Z</time>
      </trkpt>
      <trkpt lat="47.43466" lon="6.72347">
        <ele>521</ele>
        <time>2017-02-12T09:24:55.000Z</time>
      </trkpt>
      <trkpt lat="47.43464" lon="6.72342">
        <ele>520.9</ele>
        <time>2017-02-12T09:24:56.000Z</time>
      </trkpt>
      <trkpt lat="47.43461" lon="6.72338">
        <ele>520.6</ele>
        <time>2017-02-12T09:24:57.000Z</time>
      </trkpt>
      <trkpt lat="47.43457" lon="6.72333">
        <ele>520.4</ele>
        <time>2017-02-12T09:24:58.000Z</time>
      </trkpt>
      <trkpt lat="47.43454" lon="6.72328">
        <ele>520.2</ele>
        <time>2017-02-12T09:24:59.000Z</time>
      </trkpt>
      <trkpt lat="47.43451" lon="6.72323">
        <ele>520.2</ele>
        <time>2017-02-12T09:25:00.000Z</time>
      </trkpt>
      <trkpt lat="47.43449" lon="6.72319">
        <ele>520.1</ele>
        <time>2017-02-12T09:25:01.000Z</time>
      </trkpt>
      <trkpt lat="47.43445" lon="6.72313">
        <ele>520.2</ele>
        <time>2017-02-12T09:25:02.000Z</time>
      </trkpt>
      <trkpt lat="47.43442" lon="6.72307">
        <ele>520.6</ele>
        <time>2017-02-12T09:25:03.000Z</time>
      </trkpt>
      <trkpt lat="47.43438" lon="6.72301">
        <ele>520.5</ele>
        <time>2017-02-12T09:25:04.000Z</time>
      </trkpt>
      <trkpt lat="47.43434" lon="6.72295">
        <ele>520.7</ele>
        <time>2017-02-12T09:25:05.000Z</time>
      </trkpt>
      <trkpt lat="47.43431" lon="6.72291">
        <ele>521</ele>
        <time>2017-02-12T09:25:06.000Z</time>
      </trkpt>
      <trkpt lat="47.43428" lon="6.72286">
        <ele>521.2</ele>
        <time>2017-02-12T09:25:07.000Z</time>
      </trkpt>
      <trkpt lat="47.43424" lon="6.72281">
        <ele>521.2</ele>
        <time>2017-02-12T09:25:08.000Z</time>
      </trkpt>
      <trkpt lat="47.43421" lon="6.72276">
        <ele>520.8</ele>
        <time>2017-02-12T09:25:09.000Z</time>
      </trkpt>
      <trkpt lat="47.43417" lon="6.7227">
        <ele>520.1</ele>
        <time>2017-02-12T09:25:10.000Z</time>
      </trkpt>
      <trkpt lat="47.43414" lon="6.72266">
        <ele>519.7</ele>
        <time>2017-02-12T09:25:11.000Z</time>
      </trkpt>
      <trkpt lat="47.43411" lon="6.72262">
        <ele>519.3</ele>
        <time>2017-02-12T09:25:12.000Z</time>
      </trkpt>
      <trkpt lat="47.43408" lon="6.72257">
        <ele>519</ele>
        <time>2017-02-12T09:25:13.000Z</time>
      </trkpt>
      <trkpt lat="47.43405" lon="6.72253">
        <ele>518.8</ele>
        <time>2017-02-12T09:25:14.000Z</time>
      </trkpt>
      <trkpt lat="47.43402" lon="6.72248">
        <ele>519.1</ele>
        <time>2017-02-12T09:25:15.000Z</time>
      </trkpt>
      <trkpt lat="47.43398" lon="6.72243">
        <ele>519.4</ele>
        <time>2017-02-12T09:25:16.000Z</time>
      </trkpt>
      <trkpt lat="47.43395" lon="6.72237">
        <ele>519.3</ele>
        <time>2017-02-12T09:25:17.000Z</time>
      </trkpt>
      <trkpt lat="47.43393" lon="6.72232">
        <ele>519.2</ele>
        <time>2017-02-12T09:25:18.000Z</time>
      </trkpt>
      <trkpt lat="47.43389" lon="6.72227">
        <ele>519.9</ele>
        <time>2017-02-12T09:25:19.000Z</time>
      </trkpt>
      <trkpt lat="47.43386" lon="6.72222">
        <ele>520.2</ele>
        <time>2017-02-12T09:25:20.000Z</time>
      </trkpt>
      <trkpt lat="47.43383" lon="6.72217">
        <ele>520.2</ele>
        <time>2017-02-12T09:25:21.000Z</time>
      </trkpt>
      <trkpt lat="47.4338" lon="6.72212">
        <ele>520.5</ele>
        <time>2017-02-12T09:25:22.000Z</time>
      </trkpt>
      <trkpt lat="47.43376" lon="6.72207">
        <ele>520.7</ele>
        <time>2017-02-12T09:25:23.000Z</time>
      </trkpt>
      <trkpt lat="47.43373" lon="6.72202">
        <ele>520.3</ele>
        <time>2017-02-12T09:25:24.000Z</time>
      </trkpt>
      <trkpt lat="47.4337" lon="6.72197">
        <ele>519.8</ele>
        <time>2017-02-12T09:25:25.000Z</time>
      </trkpt>
      <trkpt lat="47.43366" lon="6.72191">
        <ele>519.9</ele>
        <time>2017-02-12T09:25:26.000Z</time>
      </trkpt>
      <trkpt lat="47.43362" lon="6.72186">
        <ele>519.5</ele>
        <time>2017-02-12T09:25:27.000Z</time>
      </trkpt>
      <trkpt lat="47.43358" lon="6.72181">
        <ele>519.2</ele>
        <time>2017-02-12T09:25:28.000Z</time>
      </trkpt>
      <trkpt lat="47.43355" lon="6.72176">
        <ele>519.2</ele>
        <time>2017-02-12T09:25:29.000Z</time>
      </trkpt>
      <trkpt lat="47.43351" lon="6.7217">
        <ele>519.3</ele>
        <time>2017-02-12T09:25:30.000Z</time>
      </trkpt>
      <trkpt lat="47.43347" lon="6.72165">
        <ele>519.4</ele>
        <time>2017-02-12T09:25:31.000Z</time>
      </trkpt>
      <trkpt lat="47.43344" lon="6.72159">
        <ele>519.6</ele>
        <time>2017-02-12T09:25:32.000Z</time>
      </trkpt>
      <trkpt lat="47.4334" lon="6.72154">
        <ele>519.9</ele>
        <time>2017-02-12T09:25:33.000Z</time>
      </trkpt>
      <trkpt lat="47.43338" lon="6.72149">
        <ele>520</ele>
        <time>2017-02-12T09:25:34.000Z</time>
      </trkpt>
      <trkpt lat="47.43335" lon="6.72145">
        <ele>520</ele>
        <time>2017-02-12T09:25:35.000Z</time>
      </trkpt>
      <trkpt lat="47.43332" lon="6.72141">
        <ele>519.7</ele>
        <time>2017-02-12T09:25:36.000Z</time>
      </trkpt>
      <trkpt lat="47.43329" lon="6.72136">
        <ele>519.2</ele>
        <time>2017-02-12T09:25:37.000Z</time>
      </trkpt>
      <trkpt lat="47.43325" lon="6.7213">
        <ele>518.9</ele>
        <time>2017-02-12T09:25:38.000Z</time>
      </trkpt>
      <trkpt lat="47.43321" lon="6.72125">
        <ele>518.7</ele>
        <time>2017-02-12T09:25:39.000Z</time>
      </trkpt>
      <trkpt lat="47.43318" lon="6.7212">
        <ele>518.9</ele>
        <time>2017-02-12T09:25:40.000Z</time>
      </trkpt>
      <trkpt lat="47.43314" lon="6.72114">
        <ele>519.2</ele>
        <time>2017-02-12T09:25:41.000Z</time>
      </trkpt>
      <trkpt lat="47.43311" lon="6.7211">
        <ele>519.7</ele>
        <time>2017-02-12T09:25:42.000Z</time>
      </trkpt>
      <trkpt lat="47.43308" lon="6.72105">
        <ele>520.5</ele>
        <time>2017-02-12T09:25:43.000Z</time>
      </trkpt>
      <trkpt lat="47.43305" lon="6.721">
        <ele>520.5</ele>
        <time>2017-02-12T09:25:44.000Z</time>
      </trkpt>
      <trkpt lat="47.43302" lon="6.72096">
        <ele>520.1</ele>
        <time>2017-02-12T09:25:45.000Z</time>
      </trkpt>
      <trkpt lat="47.43299" lon="6.72091">
        <ele>519.9</ele>
        <time>2017-02-12T09:25:46.000Z</time>
      </trkpt>
      <trkpt lat="47.43296" lon="6.72086">
        <ele>519.7</ele>
        <time>2017-02-12T09:25:47.000Z</time>
      </trkpt>
      <trkpt lat="47.43293" lon="6.72081">
        <ele>519.5</ele>
        <time>2017-02-12T09:25:48.000Z</time>
      </trkpt>
      <trkpt lat="47.43289" lon="6.72077">
        <ele>519.2</ele>
        <time>2017-02-12T09:25:49.000Z</time>
      </trkpt>
      <trkpt lat="47.43286" lon="6.72072">
        <ele>518.8</ele>
        <time>2017-02-12T09:25:50.000Z</time>
      </trkpt>
      <trkpt lat="47.43283" lon="6.72068">
        <ele>518.5</ele>
        <time>2017-02-12T09:25:51.000Z</time>
      </trkpt>
      <trkpt lat="47.4328" lon="6.72062">
        <ele>518.9</ele>
        <time>2017-02-12T09:25:52.000Z</time>
      </trkpt>
      <trkpt lat="47.43278" lon="6.72058">
        <ele>518.8</ele>
        <time>2017-02-12T09:25:53.000Z</time>
      </trkpt>
      <trkpt lat="47.43275" lon="6.72053">
        <ele>519</ele>
        <time>2017-02-12T09:25:54.000Z</time>
      </trkpt>
      <trkpt lat="47.43272" lon="6.72048">
        <ele>519.3</ele>
        <time>2017-02-12T09:25:55.000Z</time>
      </trkpt>
      <trkpt lat="47.43269" lon="6.72042">
        <ele>519.9</ele>
        <time>2017-02-12T09:25:56.000Z</time>
      </trkpt>
      <trkpt lat="47.43266" lon="6.72038">
        <ele>520.5</ele>
        <time>2017-02-12T09:25:57.000Z</time>
      </trkpt>
      <trkpt lat="47.43263" lon="6.72033">
        <ele>520.3</ele>
        <time>2017-02-12T09:25:58.000Z</time>
      </trkpt>
      <trkpt lat="47.43261" lon="6.72029">
        <ele>520.1</ele>
        <time>2017-02-12T09:25:59.000Z</time>
      </trkpt>
      <trkpt lat="47.43258" lon="6.72025">
        <ele>520.4</ele>
        <time>2017-02-12T09:26:00.000Z</time>
      </trkpt>
      <trkpt lat="47.43256" lon="6.72021">
        <ele>520</ele>
        <time>2017-02-12T09:26:01.000Z</time>
      </trkpt>
      <trkpt lat="47.43253" lon="6.72016">
        <ele>520</ele>
        <time>2017-02-12T09:26:02.000Z</time>
      </trkpt>
      <trkpt lat="47.4325" lon="6.72012">
        <ele>520.2</ele>
        <time>2017-02-12T09:26:03.000Z</time>
      </trkpt>
      <trkpt lat="47.43247" lon="6.72007">
        <ele>520.1</ele>
        <time>2017-02-12T09:26:04.000Z</time>
      </trkpt>
      <trkpt lat="47.43244" lon="6.72003">
        <ele>520.1</ele>
        <time>2017-02-12T09:26:05.000Z</time>
      </trkpt>
      <trkpt lat="47.43241" lon="6.71998">
        <ele>520.2</ele>
        <time>2017-02-12T09:26:06.000Z</time>
      </trkpt>
      <trkpt lat="47.43238" lon="6.71994">
        <ele>520.2</ele>
        <time>2017-02-12T09:26:07.000Z</time>
      </trkpt>
      <trkpt lat="47.43236" lon="6.71989">
        <ele>520.3</ele>
        <time>2017-02-12T09:26:08.000Z</time>
      </trkpt>
      <trkpt lat="47.43233" lon="6.71985">
        <ele>520.3</ele>
        <time>2017-02-12T09:26:09.000Z</time>
      </trkpt>
      <trkpt lat="47.43231" lon="6.71981">
        <ele>520.7</ele>
        <time>2017-02-12T09:26:10.000Z</time>
      </trkpt>
      <trkpt lat="47.43229" lon="6.71976">
        <ele>521.2</ele>
        <time>2017-02-12T09:26:11.000Z</time>
      </trkpt>
      <trkpt lat="47.43227" lon="6.71972">
        <ele>521.2</ele>
        <time>2017-02-12T09:26:12.000Z</time>
      </trkpt>
      <trkpt lat="47.43225" lon="6.71968">
        <ele>521.2</ele>
        <time>2017-02-12T09:26:13.000Z</time>
      </trkpt>
      <trkpt lat="47.43223" lon="6.71965">
        <ele>521.3</ele>
        <time>2017-02-12T09:26:14.000Z</time>
      </trkpt>
      <trkpt lat="47.43221" lon="6.71962">
        <ele>521.2</ele>
        <time>2017-02-12T09:26:15.000Z</time>
      </trkpt>
      <trkpt lat="47.43218" lon="6.71958">
        <ele>521.2</ele>
        <time>2017-02-12T09:26:16.000Z</time>
      </trkpt>
      <trkpt lat="47.43215" lon="6.71954">
        <ele>521.2</ele>
        <time>2017-02-12T09:26:17.000Z</time>
      </trkpt>
      <trkpt lat="47.43213" lon="6.7195">
        <ele>521.2</ele>
        <time>2017-02-12T09:26:18.000Z</time>
      </trkpt>
      <trkpt lat="47.43212" lon="6.71946">
        <ele>521.2</ele>
        <time>2017-02-12T09:26:19.000Z</time>
      </trkpt>
      <trkpt lat="47.4321" lon="6.71942">
        <ele>521.2</ele>
        <time>2017-02-12T09:26:20.000Z</time>
      </trkpt>
      <trkpt lat="47.43208" lon="6.71939">
        <ele>521.2</ele>
        <time>2017-02-12T09:26:21.000Z</time>
      </trkpt>
      <trkpt lat="47.43206" lon="6.71934">
        <ele>521.2</ele>
        <time>2017-02-12T09:26:22.000Z</time>
      </trkpt>
      <trkpt lat="47.43204" lon="6.71931">
        <ele>521.3</ele>
        <time>2017-02-12T09:26:23.000Z</time>
      </trkpt>
      <trkpt lat="47.43202" lon="6.71927">
        <ele>521.3</ele>
        <time>2017-02-12T09:26:24.000Z</time>
      </trkpt>
      <trkpt lat="47.432" lon="6.71923">
        <ele>521.4</ele>
        <time>2017-02-12T09:26:25.000Z</time>
      </trkpt>
      <trkpt lat="47.43198" lon="6.7192">
        <ele>521.4</ele>
        <time>2017-02-12T09:26:26.000Z</time>
      </trkpt>
      <trkpt lat="47.43197" lon="6.71917">
        <ele>521.4</ele>
        <time>2017-02-12T09:26:27.000Z</time>
      </trkpt>
      <trkpt lat="47.43195" lon="6.71914">
        <ele>521.4</ele>
        <time>2017-02-12T09:26:28.000Z</time>
      </trkpt>
      <trkpt lat="47.43193" lon="6.7191">
        <ele>521.5</ele>
        <time>2017-02-12T09:26:29.000Z</time>
      </trkpt>
      <trkpt lat="47.4319" lon="6.71907">
        <ele>521.6</ele>
        <time>2017-02-12T09:26:30.000Z</time>
      </trkpt>
      <trkpt lat="47.43187" lon="6.71905">
        <ele>521.7</ele>
        <time>2017-02-12T09:26:31.000Z</time>
      </trkpt>
      <trkpt lat="47.43184" lon="6.71904">
        <ele>521.8</ele>
        <time>2017-02-12T09:26:32.000Z</time>
      </trkpt>
      <trkpt lat="47.43182" lon="6.71902">
        <ele>521.9</ele>
        <time>2017-02-12T09:26:33.000Z</time>
      </trkpt>
      <trkpt lat="47.43179" lon="6.71902">
        <ele>522</ele>
        <time>2017-02-12T09:26:34.000Z</time>
      </trkpt>
      <trkpt lat="47.43175" lon="6.71902">
        <ele>522.2</ele>
        <time>2017-02-12T09:26:36.000Z</time>
      </trkpt>
      <trkpt lat="47.43173" lon="6.71903">
        <ele>522.4</ele>
        <time>2017-02-12T09:26:37.000Z</time>
      </trkpt>
      <trkpt lat="47.43169" lon="6.71905">
        <ele>522.5</ele>
        <time>2017-02-12T09:26:39.000Z</time>
      </trkpt>
      <trkpt lat="47.43168" lon="6.71907">
        <ele>522.5</ele>
        <time>2017-02-12T09:26:40.000Z</time>
      </trkpt>
      <trkpt lat="47.43165" lon="6.7191">
        <ele>522.5</ele>
        <time>2017-02-12T09:26:42.000Z</time>
      </trkpt>
      <trkpt lat="47.43164" lon="6.71913">
        <ele>522.5</ele>
        <time>2017-02-12T09:26:43.000Z</time>
      </trkpt>
      <trkpt lat="47.43162" lon="6.71916">
        <ele>522.7</ele>
        <time>2017-02-12T09:26:44.000Z</time>
      </trkpt>
      <trkpt lat="47.4316" lon="6.71918">
        <ele>522.7</ele>
        <time>2017-02-12T09:26:45.000Z</time>
      </trkpt>
      <trkpt lat="47.43157" lon="6.7192">
        <ele>523</ele>
        <time>2017-02-12T09:26:47.000Z</time>
      </trkpt>
      <trkpt lat="47.43156" lon="6.71921">
        <ele>523.1</ele>
        <time>2017-02-12T09:26:48.000Z</time>
      </trkpt>
      <trkpt lat="47.43152" lon="6.71924">
        <ele>523.3</ele>
        <time>2017-02-12T09:26:50.000Z</time>
      </trkpt>
      <trkpt lat="47.43151" lon="6.71925">
        <ele>523.5</ele>
        <time>2017-02-12T09:26:51.000Z</time>
      </trkpt>
      <trkpt lat="47.43147" lon="6.71929">
        <ele>523.8</ele>
        <time>2017-02-12T09:26:54.000Z</time>
      </trkpt>
      <trkpt lat="47.43146" lon="6.7193">
        <ele>524</ele>
        <time>2017-02-12T09:26:55.000Z</time>
      </trkpt>
      <trkpt lat="47.43143" lon="6.71933">
        <ele>524.3</ele>
        <time>2017-02-12T09:26:57.000Z</time>
      </trkpt>
      <trkpt lat="47.43142" lon="6.71935">
        <ele>524.4</ele>
        <time>2017-02-12T09:26:58.000Z</time>
      </trkpt>
      <trkpt lat="47.43138" lon="6.71938">
        <ele>525</ele>
        <time>2017-02-12T09:27:01.000Z</time>
      </trkpt>
      <trkpt lat="47.43136" lon="6.71939">
        <ele>525.2</ele>
        <time>2017-02-12T09:27:02.000Z</time>
      </trkpt>
      <trkpt lat="47.43134" lon="6.71941">
        <ele>525.6</ele>
        <time>2017-02-12T09:27:04.000Z</time>
      </trkpt>
      <trkpt lat="47.43133" lon="6.71943">
        <ele>525.7</ele>
        <time>2017-02-12T09:27:05.000Z</time>
      </trkpt>
      <trkpt lat="47.43129" lon="6.71947">
        <ele>526.1</ele>
        <time>2017-02-12T09:27:07.000Z</time>
      </trkpt>
      <trkpt lat="47.43128" lon="6.71948">
        <ele>526.3</ele>
        <time>2017-02-12T09:27:08.000Z</time>
      </trkpt>
      <trkpt lat="47.43124" lon="6.71952">
        <ele>526.8</ele>
        <time>2017-02-12T09:27:11.000Z</time>
      </trkpt>
      <trkpt lat="47.43123" lon="6.71952">
        <ele>527</ele>
        <time>2017-02-12T09:27:12.000Z</time>
      </trkpt>
      <trkpt lat="47.4312" lon="6.71955">
        <ele>527.5</ele>
        <time>2017-02-12T09:27:14.000Z</time>
      </trkpt>
      <trkpt lat="47.43118" lon="6.71956">
        <ele>527.7</ele>
        <time>2017-02-12T09:27:15.000Z</time>
      </trkpt>
      <trkpt lat="47.43115" lon="6.71959">
        <ele>528</ele>
        <time>2017-02-12T09:27:17.000Z</time>
      </trkpt>
      <trkpt lat="47.43113" lon="6.71961">
        <ele>528.3</ele>
        <time>2017-02-12T09:27:18.000Z</time>
      </trkpt>
      <trkpt lat="47.4311" lon="6.71964">
        <ele>528.6</ele>
        <time>2017-02-12T09:27:20.000Z</time>
      </trkpt>
      <trkpt lat="47.43108" lon="6.71964">
        <ele>528.8</ele>
        <time>2017-02-12T09:27:21.000Z</time>
      </trkpt>
      <trkpt lat="47.43105" lon="6.71966">
        <ele>529.3</ele>
        <time>2017-02-12T09:27:23.000Z</time>
      </trkpt>
      <trkpt lat="47.43104" lon="6.71967">
        <ele>529.5</ele>
        <time>2017-02-12T09:27:24.000Z</time>
      </trkpt>
      <trkpt lat="47.431" lon="6.71971">
        <ele>530</ele>
        <time>2017-02-12T09:27:26.000Z</time>
      </trkpt>
      <trkpt lat="47.43099" lon="6.71972">
        <ele>530.3</ele>
        <time>2017-02-12T09:27:27.000Z</time>
      </trkpt>
      <trkpt lat="47.43096" lon="6.71974">
        <ele>530.6</ele>
        <time>2017-02-12T09:27:29.000Z</time>
      </trkpt>
      <trkpt lat="47.43094" lon="6.71975">
        <ele>530.8</ele>
        <time>2017-02-12T09:27:30.000Z</time>
      </trkpt>
      <trkpt lat="47.43091" lon="6.71978">
        <ele>531.3</ele>
        <time>2017-02-12T09:27:32.000Z</time>
      </trkpt>
      <trkpt lat="47.43088" lon="6.7198">
        <ele>531.4</ele>
        <time>2017-02-12T09:27:33.000Z</time>
      </trkpt>
      <trkpt lat="47.43085" lon="6.71983">
        <ele>531.6</ele>
        <time>2017-02-12T09:27:35.000Z</time>
      </trkpt>
      <trkpt lat="47.43083" lon="6.71984">
        <ele>531.8</ele>
        <time>2017-02-12T09:27:36.000Z</time>
      </trkpt>
      <trkpt lat="47.43081" lon="6.71986">
        <ele>531.9</ele>
        <time>2017-02-12T09:27:37.000Z</time>
      </trkpt>
      <trkpt lat="47.43079" lon="6.71987">
        <ele>532.1</ele>
        <time>2017-02-12T09:27:38.000Z</time>
      </trkpt>
      <trkpt lat="47.43076" lon="6.71989">
        <ele>532.5</ele>
        <time>2017-02-12T09:27:40.000Z</time>
      </trkpt>
      <trkpt lat="47.43075" lon="6.7199">
        <ele>532.7</ele>
        <time>2017-02-12T09:27:41.000Z</time>
      </trkpt>
      <trkpt lat="47.43073" lon="6.71991">
        <ele>532.9</ele>
        <time>2017-02-12T09:27:42.000Z</time>
      </trkpt>
      <trkpt lat="47.43071" lon="6.71994">
        <ele>533</ele>
        <time>2017-02-12T09:27:43.000Z</time>
      </trkpt>
      <trkpt lat="47.43068" lon="6.71996">
        <ele>533.4</ele>
        <time>2017-02-12T09:27:45.000Z</time>
      </trkpt>
      <trkpt lat="47.43066" lon="6.71997">
        <ele>533.6</ele>
        <time>2017-02-12T09:27:46.000Z</time>
      </trkpt>
      <trkpt lat="47.43063" lon="6.72">
        <ele>534</ele>
        <time>2017-02-12T09:27:48.000Z</time>
      </trkpt>
      <trkpt lat="47.43061" lon="6.72001">
        <ele>534.2</ele>
        <time>2017-02-12T09:27:49.000Z</time>
      </trkpt>
      <trkpt lat="47.43059" lon="6.72003">
        <ele>534.5</ele>
        <time>2017-02-12T09:27:51.000Z</time>
      </trkpt>
      <trkpt lat="47.43057" lon="6.72005">
        <ele>534.7</ele>
        <time>2017-02-12T09:27:52.000Z</time>
      </trkpt>
      <trkpt lat="47.43054" lon="6.72008">
        <ele>535.1</ele>
        <time>2017-02-12T09:27:54.000Z</time>
      </trkpt>
      <trkpt lat="47.43052" lon="6.7201">
        <ele>535.2</ele>
        <time>2017-02-12T09:27:55.000Z</time>
      </trkpt>
      <trkpt lat="47.43048" lon="6.72013">
        <ele>535.6</ele>
        <time>2017-02-12T09:27:57.000Z</time>
      </trkpt>
      <trkpt lat="47.43047" lon="6.72014">
        <ele>535.7</ele>
        <time>2017-02-12T09:27:58.000Z</time>
      </trkpt>
      <trkpt lat="47.43043" lon="6.72016">
        <ele>536.1</ele>
        <time>2017-02-12T09:28:00.000Z</time>
      </trkpt>
      <trkpt lat="47.43041" lon="6.72018">
        <ele>536.3</ele>
        <time>2017-02-12T09:28:01.000Z</time>
      </trkpt>
      <trkpt lat="47.43038" lon="6.72021">
        <ele>536.8</ele>
        <time>2017-02-12T09:28:03.000Z</time>
      </trkpt>
      <trkpt lat="47.43037" lon="6.72022">
        <ele>537</ele>
        <time>2017-02-12T09:28:04.000Z</time>
      </trkpt>
      <trkpt lat="47.43033" lon="6.72025">
        <ele>537.3</ele>
        <time>2017-02-12T09:28:06.000Z</time>
      </trkpt>
      <trkpt lat="47.43031" lon="6.72026">
        <ele>537.5</ele>
        <time>2017-02-12T09:28:07.000Z</time>
      </trkpt>
      <trkpt lat="47.43027" lon="6.72029">
        <ele>537.8</ele>
        <time>2017-02-12T09:28:09.000Z</time>
      </trkpt>
      <trkpt lat="47.43026" lon="6.72031">
        <ele>538.1</ele>
        <time>2017-02-12T09:28:10.000Z</time>
      </trkpt>
      <trkpt lat="47.43023" lon="6.72032">
        <ele>538.3</ele>
        <time>2017-02-12T09:28:11.000Z</time>
      </trkpt>
      <trkpt lat="47.43021" lon="6.72034">
        <ele>538.5</ele>
        <time>2017-02-12T09:28:12.000Z</time>
      </trkpt>
      <trkpt lat="47.4302" lon="6.72035">
        <ele>538.8</ele>
        <time>2017-02-12T09:28:13.000Z</time>
      </trkpt>
      <trkpt lat="47.43017" lon="6.72037">
        <ele>539</ele>
        <time>2017-02-12T09:28:14.000Z</time>
      </trkpt>
      <trkpt lat="47.43015" lon="6.7204">
        <ele>539.5</ele>
        <time>2017-02-12T09:28:16.000Z</time>
      </trkpt>
      <trkpt lat="47.43013" lon="6.72041">
        <ele>539.9</ele>
        <time>2017-02-12T09:28:17.000Z</time>
      </trkpt>
      <trkpt lat="47.4301" lon="6.72043">
        <ele>540.5</ele>
        <time>2017-02-12T09:28:19.000Z</time>
      </trkpt>
      <trkpt lat="47.43009" lon="6.72044">
        <ele>540.7</ele>
        <time>2017-02-12T09:28:20.000Z</time>
      </trkpt>
      <trkpt lat="47.43005" lon="6.72045">
        <ele>541.3</ele>
        <time>2017-02-12T09:28:22.000Z</time>
      </trkpt>
      <trkpt lat="47.43003" lon="6.72046">
        <ele>541.5</ele>
        <time>2017-02-12T09:28:23.000Z</time>
      </trkpt>
      <trkpt lat="47.42999" lon="6.72047">
        <ele>542</ele>
        <time>2017-02-12T09:28:25.000Z</time>
      </trkpt>
      <trkpt lat="47.42998" lon="6.72047">
        <ele>542.2</ele>
        <time>2017-02-12T09:28:26.000Z</time>
      </trkpt>
      <trkpt lat="47.42995" lon="6.72043">
        <ele>542.6</ele>
        <time>2017-02-12T09:28:28.000Z</time>
      </trkpt>
      <trkpt lat="47.42993" lon="6.7204">
        <ele>542.8</ele>
        <time>2017-02-12T09:28:29.000Z</time>
      </trkpt>
      <trkpt lat="47.42992" lon="6.72036">
        <ele>543</ele>
        <time>2017-02-12T09:28:30.000Z</time>
      </trkpt>
      <trkpt lat="47.42991" lon="6.72033">
        <ele>543.2</ele>
        <time>2017-02-12T09:28:31.000Z</time>
      </trkpt>
      <trkpt lat="47.4299" lon="6.72029">
        <ele>543.3</ele>
        <time>2017-02-12T09:28:32.000Z</time>
      </trkpt>
      <trkpt lat="47.42988" lon="6.72026">
        <ele>543.6</ele>
        <time>2017-02-12T09:28:33.000Z</time>
      </trkpt>
      <trkpt lat="47.42985" lon="6.72021">
        <ele>543.8</ele>
        <time>2017-02-12T09:28:35.000Z</time>
      </trkpt>
      <trkpt lat="47.42984" lon="6.72019">
        <ele>544</ele>
        <time>2017-02-12T09:28:36.000Z</time>
      </trkpt>
      <trkpt lat="47.42983" lon="6.72015">
        <ele>544.1</ele>
        <time>2017-02-12T09:28:37.000Z</time>
      </trkpt>
      <trkpt lat="47.42981" lon="6.72012">
        <ele>544.2</ele>
        <time>2017-02-12T09:28:38.000Z</time>
      </trkpt>
      <trkpt lat="47.42979" lon="6.72009">
        <ele>544.3</ele>
        <time>2017-02-12T09:28:39.000Z</time>
      </trkpt>
      <trkpt lat="47.42978" lon="6.72006">
        <ele>544.5</ele>
        <time>2017-02-12T09:28:40.000Z</time>
      </trkpt>
      <trkpt lat="47.42976" lon="6.72003">
        <ele>544.7</ele>
        <time>2017-02-12T09:28:41.000Z</time>
      </trkpt>
      <trkpt lat="47.42974" lon="6.71999">
        <ele>544.9</ele>
        <time>2017-02-12T09:28:42.000Z</time>
      </trkpt>
      <trkpt lat="47.42972" lon="6.71996">
        <ele>545.1</ele>
        <time>2017-02-12T09:28:43.000Z</time>
      </trkpt>
      <trkpt lat="47.42971" lon="6.71992">
        <ele>545.3</ele>
        <time>2017-02-12T09:28:44.000Z</time>
      </trkpt>
      <trkpt lat="47.42969" lon="6.71988">
        <ele>545.5</ele>
        <time>2017-02-12T09:28:45.000Z</time>
      </trkpt>
      <trkpt lat="47.42967" lon="6.71983">
        <ele>545.7</ele>
        <time>2017-02-12T09:28:46.000Z</time>
      </trkpt>
      <trkpt lat="47.42965" lon="6.71979">
        <ele>545.8</ele>
        <time>2017-02-12T09:28:47.000Z</time>
      </trkpt>
      <trkpt lat="47.42963" lon="6.71975">
        <ele>545.9</ele>
        <time>2017-02-12T09:28:48.000Z</time>
      </trkpt>
      <trkpt lat="47.42961" lon="6.71972">
        <ele>546.1</ele>
        <time>2017-02-12T09:28:49.000Z</time>
      </trkpt>
      <trkpt lat="47.4296" lon="6.71967">
        <ele>546.2</ele>
        <time>2017-02-12T09:28:50.000Z</time>
      </trkpt>
      <trkpt lat="47.42958" lon="6.71962">
        <ele>546.3</ele>
        <time>2017-02-12T09:28:51.000Z</time>
      </trkpt>
      <trkpt lat="47.42955" lon="6.71958">
        <ele>546.4</ele>
        <time>2017-02-12T09:28:52.000Z</time>
      </trkpt>
      <trkpt lat="47.42953" lon="6.71953">
        <ele>546.5</ele>
        <time>2017-02-12T09:28:53.000Z</time>
      </trkpt>
      <trkpt lat="47.42951" lon="6.7195">
        <ele>546.6</ele>
        <time>2017-02-12T09:28:54.000Z</time>
      </trkpt>
      <trkpt lat="47.42949" lon="6.71947">
        <ele>546.7</ele>
        <time>2017-02-12T09:28:55.000Z</time>
      </trkpt>
      <trkpt lat="47.42947" lon="6.71942">
        <ele>547.4</ele>
        <time>2017-02-12T09:28:56.000Z</time>
      </trkpt>
      <trkpt lat="47.42945" lon="6.71938">
        <ele>547.5</ele>
        <time>2017-02-12T09:28:57.000Z</time>
      </trkpt>
      <trkpt lat="47.42943" lon="6.71932">
        <ele>548.3</ele>
        <time>2017-02-12T09:28:58.000Z</time>
      </trkpt>
      <trkpt lat="47.42941" lon="6.71927">
        <ele>548.8</ele>
        <time>2017-02-12T09:28:59.000Z</time>
      </trkpt>
      <trkpt lat="47.42939" lon="6.71923">
        <ele>549</ele>
        <time>2017-02-12T09:29:00.000Z</time>
      </trkpt>
      <trkpt lat="47.42937" lon="6.71919">
        <ele>548.9</ele>
        <time>2017-02-12T09:29:01.000Z</time>
      </trkpt>
      <trkpt lat="47.42934" lon="6.71914">
        <ele>548.6</ele>
        <time>2017-02-12T09:29:02.000Z</time>
      </trkpt>
      <trkpt lat="47.42932" lon="6.71909">
        <ele>548.4</ele>
        <time>2017-02-12T09:29:03.000Z</time>
      </trkpt>
      <trkpt lat="47.42929" lon="6.71904">
        <ele>548.2</ele>
        <time>2017-02-12T09:29:04.000Z</time>
      </trkpt>
      <trkpt lat="47.42927" lon="6.71899">
        <ele>548</ele>
        <time>2017-02-12T09:29:05.000Z</time>
      </trkpt>
      <trkpt lat="47.42924" lon="6.71893">
        <ele>548</ele>
        <time>2017-02-12T09:29:06.000Z</time>
      </trkpt>
      <trkpt lat="47.42922" lon="6.71888">
        <ele>547.7</ele>
        <time>2017-02-12T09:29:07.000Z</time>
      </trkpt>
      <trkpt lat="47.4292" lon="6.71884">
        <ele>547</ele>
        <time>2017-02-12T09:29:08.000Z</time>
      </trkpt>
      <trkpt lat="47.42918" lon="6.71879">
        <ele>546.7</ele>
        <time>2017-02-12T09:29:09.000Z</time>
      </trkpt>
      <trkpt lat="47.42915" lon="6.71873">
        <ele>546.4</ele>
        <time>2017-02-12T09:29:10.000Z</time>
      </trkpt>
      <trkpt lat="47.42914" lon="6.71866">
        <ele>546.3</ele>
        <time>2017-02-12T09:29:11.000Z</time>
      </trkpt>
      <trkpt lat="47.42912" lon="6.71858">
        <ele>546.5</ele>
        <time>2017-02-12T09:29:12.000Z</time>
      </trkpt>
      <trkpt lat="47.4291" lon="6.71852">
        <ele>546.3</ele>
        <time>2017-02-12T09:29:13.000Z</time>
      </trkpt>
      <trkpt lat="47.42908" lon="6.71844">
        <ele>546.4</ele>
        <time>2017-02-12T09:29:14.000Z</time>
      </trkpt>
      <trkpt lat="47.42907" lon="6.71836">
        <ele>546.6</ele>
        <time>2017-02-12T09:29:15.000Z</time>
      </trkpt>
      <trkpt lat="47.42905" lon="6.71829">
        <ele>546.4</ele>
        <time>2017-02-12T09:29:16.000Z</time>
      </trkpt>
      <trkpt lat="47.42904" lon="6.71821">
        <ele>547.2</ele>
        <time>2017-02-12T09:29:17.000Z</time>
      </trkpt>
      <trkpt lat="47.42903" lon="6.71813">
        <ele>547.6</ele>
        <time>2017-02-12T09:29:18.000Z</time>
      </trkpt>
      <trkpt lat="47.42901" lon="6.71806">
        <ele>547.9</ele>
        <time>2017-02-12T09:29:19.000Z</time>
      </trkpt>
      <trkpt lat="47.42899" lon="6.71799">
        <ele>548</ele>
        <time>2017-02-12T09:29:20.000Z</time>
      </trkpt>
      <trkpt lat="47.42896" lon="6.71791">
        <ele>547.7</ele>
        <time>2017-02-12T09:29:21.000Z</time>
      </trkpt>
      <trkpt lat="47.42893" lon="6.71784">
        <ele>547.4</ele>
        <time>2017-02-12T09:29:22.000Z</time>
      </trkpt>
      <trkpt lat="47.4289" lon="6.71776">
        <ele>547.4</ele>
        <time>2017-02-12T09:29:23.000Z</time>
      </trkpt>
      <trkpt lat="47.42888" lon="6.71769">
        <ele>547.5</ele>
        <time>2017-02-12T09:29:24.000Z</time>
      </trkpt>
      <trkpt lat="47.42885" lon="6.71762">
        <ele>547.4</ele>
        <time>2017-02-12T09:29:25.000Z</time>
      </trkpt>
      <trkpt lat="47.42882" lon="6.71754">
        <ele>546.9</ele>
        <time>2017-02-12T09:29:26.000Z</time>
      </trkpt>
      <trkpt lat="47.42879" lon="6.71747">
        <ele>546.4</ele>
        <time>2017-02-12T09:29:27.000Z</time>
      </trkpt>
      <trkpt lat="47.42876" lon="6.71739">
        <ele>546.3</ele>
        <time>2017-02-12T09:29:28.000Z</time>
      </trkpt>
      <trkpt lat="47.42873" lon="6.71732">
        <ele>546.2</ele>
        <time>2017-02-12T09:29:29.000Z</time>
      </trkpt>
      <trkpt lat="47.42871" lon="6.71725">
        <ele>545.6</ele>
        <time>2017-02-12T09:29:30.000Z</time>
      </trkpt>
      <trkpt lat="47.42868" lon="6.7172">
        <ele>545</ele>
        <time>2017-02-12T09:29:31.000Z</time>
      </trkpt>
      <trkpt lat="47.42865" lon="6.71713">
        <ele>544.5</ele>
        <time>2017-02-12T09:29:32.000Z</time>
      </trkpt>
      <trkpt lat="47.42863" lon="6.71707">
        <ele>544.2</ele>
        <time>2017-02-12T09:29:33.000Z</time>
      </trkpt>
      <trkpt lat="47.4286" lon="6.71701">
        <ele>544</ele>
        <time>2017-02-12T09:29:34.000Z</time>
      </trkpt>
      <trkpt lat="47.42857" lon="6.71695">
        <ele>543.8</ele>
        <time>2017-02-12T09:29:35.000Z</time>
      </trkpt>
      <trkpt lat="47.42854" lon="6.71689">
        <ele>543.3</ele>
        <time>2017-02-12T09:29:36.000Z</time>
      </trkpt>
      <trkpt lat="47.42851" lon="6.71683">
        <ele>542.7</ele>
        <time>2017-02-12T09:29:37.000Z</time>
      </trkpt>
      <trkpt lat="47.42849" lon="6.71678">
        <ele>542.3</ele>
        <time>2017-02-12T09:29:38.000Z</time>
      </trkpt>
      <trkpt lat="47.42846" lon="6.71673">
        <ele>542</ele>
        <time>2017-02-12T09:29:39.000Z</time>
      </trkpt>
      <trkpt lat="47.42843" lon="6.71668">
        <ele>541.7</ele>
        <time>2017-02-12T09:29:40.000Z</time>
      </trkpt>
      <trkpt lat="47.42839" lon="6.71663">
        <ele>541.5</ele>
        <time>2017-02-12T09:29:41.000Z</time>
      </trkpt>
      <trkpt lat="47.42836" lon="6.71658">
        <ele>541.3</ele>
        <time>2017-02-12T09:29:42.000Z</time>
      </trkpt>
      <trkpt lat="47.42833" lon="6.71654">
        <ele>541.2</ele>
        <time>2017-02-12T09:29:43.000Z</time>
      </trkpt>
      <trkpt lat="47.4283" lon="6.7165">
        <ele>541.8</ele>
        <time>2017-02-12T09:29:44.000Z</time>
      </trkpt>
      <trkpt lat="47.42828" lon="6.71646">
        <ele>541.8</ele>
        <time>2017-02-12T09:29:45.000Z</time>
      </trkpt>
      <trkpt lat="47.42825" lon="6.71642">
        <ele>541.9</ele>
        <time>2017-02-12T09:29:46.000Z</time>
      </trkpt>
      <trkpt lat="47.42822" lon="6.71638">
        <ele>541.9</ele>
        <time>2017-02-12T09:29:47.000Z</time>
      </trkpt>
      <trkpt lat="47.4282" lon="6.71634">
        <ele>541.9</ele>
        <time>2017-02-12T09:29:48.000Z</time>
      </trkpt>
      <trkpt lat="47.42817" lon="6.7163">
        <ele>542</ele>
        <time>2017-02-12T09:29:49.000Z</time>
      </trkpt>
      <trkpt lat="47.42815" lon="6.71626">
        <ele>542</ele>
        <time>2017-02-12T09:29:50.000Z</time>
      </trkpt>
      <trkpt lat="47.42812" lon="6.71622">
        <ele>542</ele>
        <time>2017-02-12T09:29:51.000Z</time>
      </trkpt>
      <trkpt lat="47.4281" lon="6.71619">
        <ele>542</ele>
        <time>2017-02-12T09:29:52.000Z</time>
      </trkpt>
      <trkpt lat="47.42808" lon="6.71616">
        <ele>542</ele>
        <time>2017-02-12T09:29:53.000Z</time>
      </trkpt>
      <trkpt lat="47.42805" lon="6.71612">
        <ele>542</ele>
        <time>2017-02-12T09:29:54.000Z</time>
      </trkpt>
      <trkpt lat="47.42802" lon="6.71609">
        <ele>542.1</ele>
        <time>2017-02-12T09:29:55.000Z</time>
      </trkpt>
      <trkpt lat="47.428" lon="6.71606">
        <ele>542.1</ele>
        <time>2017-02-12T09:29:56.000Z</time>
      </trkpt>
      <trkpt lat="47.42798" lon="6.71603">
        <ele>542.1</ele>
        <time>2017-02-12T09:29:57.000Z</time>
      </trkpt>
      <trkpt lat="47.42794" lon="6.71598">
        <ele>543</ele>
        <time>2017-02-12T09:29:58.000Z</time>
      </trkpt>
      <trkpt lat="47.42791" lon="6.71594">
        <ele>543</ele>
        <time>2017-02-12T09:29:59.000Z</time>
      </trkpt>
      <trkpt lat="47.42787" lon="6.71589">
        <ele>543</ele>
        <time>2017-02-12T09:30:00.000Z</time>
      </trkpt>
      <trkpt lat="47.42783" lon="6.71586">
        <ele>542.9</ele>
        <time>2017-02-12T09:30:01.000Z</time>
      </trkpt>
      <trkpt lat="47.4278" lon="6.71582">
        <ele>543.1</ele>
        <time>2017-02-12T09:30:02.000Z</time>
      </trkpt>
      <trkpt lat="47.42776" lon="6.71578">
        <ele>543</ele>
        <time>2017-02-12T09:30:03.000Z</time>
      </trkpt>
      <trkpt lat="47.42772" lon="6.71574">
        <ele>543.2</ele>
        <time>2017-02-12T09:30:04.000Z</time>
      </trkpt>
      <trkpt lat="47.42768" lon="6.71569">
        <ele>543.2</ele>
        <time>2017-02-12T09:30:05.000Z</time>
      </trkpt>
      <trkpt lat="47.42764" lon="6.71564">
        <ele>543.1</ele>
        <time>2017-02-12T09:30:06.000Z</time>
      </trkpt>
      <trkpt lat="47.42761" lon="6.71559">
        <ele>543.2</ele>
        <time>2017-02-12T09:30:07.000Z</time>
      </trkpt>
      <trkpt lat="47.42757" lon="6.71553">
        <ele>543.1</ele>
        <time>2017-02-12T09:30:08.000Z</time>
      </trkpt>
      <trkpt lat="47.42755" lon="6.71546">
        <ele>543.1</ele>
        <time>2017-02-12T09:30:09.000Z</time>
      </trkpt>
      <trkpt lat="47.42752" lon="6.71539">
        <ele>543.1</ele>
        <time>2017-02-12T09:30:10.000Z</time>
      </trkpt>
      <trkpt lat="47.42749" lon="6.71531">
        <ele>543</ele>
        <time>2017-02-12T09:30:11.000Z</time>
      </trkpt>
      <trkpt lat="47.42745" lon="6.71523">
        <ele>542.9</ele>
        <time>2017-02-12T09:30:12.000Z</time>
      </trkpt>
      <trkpt lat="47.42742" lon="6.71515">
        <ele>542.8</ele>
        <time>2017-02-12T09:30:13.000Z</time>
      </trkpt>
      <trkpt lat="47.42738" lon="6.71507">
        <ele>541.9</ele>
        <time>2017-02-12T09:30:14.000Z</time>
      </trkpt>
      <trkpt lat="47.42734" lon="6.71498">
        <ele>540.7</ele>
        <time>2017-02-12T09:30:15.000Z</time>
      </trkpt>
      <trkpt lat="47.4273" lon="6.71489">
        <ele>539.1</ele>
        <time>2017-02-12T09:30:16.000Z</time>
      </trkpt>
      <trkpt lat="47.42726" lon="6.71479">
        <ele>537.8</ele>
        <time>2017-02-12T09:30:17.000Z</time>
      </trkpt>
      <trkpt lat="47.42722" lon="6.7147">
        <ele>536.6</ele>
        <time>2017-02-12T09:30:18.000Z</time>
      </trkpt>
      <trkpt lat="47.42719" lon="6.7146">
        <ele>535.4</ele>
        <time>2017-02-12T09:30:19.000Z</time>
      </trkpt>
      <trkpt lat="47.42715" lon="6.71452">
        <ele>534.4</ele>
        <time>2017-02-12T09:30:20.000Z</time>
      </trkpt>
      <trkpt lat="47.42712" lon="6.71442">
        <ele>533.6</ele>
        <time>2017-02-12T09:30:21.000Z</time>
      </trkpt>
      <trkpt lat="47.42709" lon="6.71433">
        <ele>533.1</ele>
        <time>2017-02-12T09:30:22.000Z</time>
      </trkpt>
      <trkpt lat="47.42706" lon="6.71424">
        <ele>532.6</ele>
        <time>2017-02-12T09:30:23.000Z</time>
      </trkpt>
      <trkpt lat="47.42703" lon="6.71415">
        <ele>532.3</ele>
        <time>2017-02-12T09:30:24.000Z</time>
      </trkpt>
      <trkpt lat="47.42699" lon="6.71405">
        <ele>531.9</ele>
        <time>2017-02-12T09:30:25.000Z</time>
      </trkpt>
      <trkpt lat="47.42696" lon="6.71395">
        <ele>531.6</ele>
        <time>2017-02-12T09:30:26.000Z</time>
      </trkpt>
      <trkpt lat="47.42693" lon="6.71386">
        <ele>531.1</ele>
        <time>2017-02-12T09:30:27.000Z</time>
      </trkpt>
      <trkpt lat="47.4269" lon="6.71376">
        <ele>530.6</ele>
        <time>2017-02-12T09:30:28.000Z</time>
      </trkpt>
      <trkpt lat="47.42687" lon="6.71366">
        <ele>530</ele>
        <time>2017-02-12T09:30:29.000Z</time>
      </trkpt>
      <trkpt lat="47.42684" lon="6.71356">
        <ele>529.5</ele>
        <time>2017-02-12T09:30:30.000Z</time>
      </trkpt>
      <trkpt lat="47.4268" lon="6.71346">
        <ele>529.1</ele>
        <time>2017-02-12T09:30:31.000Z</time>
      </trkpt>
      <trkpt lat="47.42676" lon="6.71335">
        <ele>529.2</ele>
        <time>2017-02-12T09:30:32.000Z</time>
      </trkpt>
      <trkpt lat="47.42673" lon="6.71325">
        <ele>529.3</ele>
        <time>2017-02-12T09:30:33.000Z</time>
      </trkpt>
      <trkpt lat="47.42669" lon="6.71313">
        <ele>529.3</ele>
        <time>2017-02-12T09:30:34.000Z</time>
      </trkpt>
      <trkpt lat="47.42666" lon="6.71303">
        <ele>529.1</ele>
        <time>2017-02-12T09:30:35.000Z</time>
      </trkpt>
      <trkpt lat="47.42663" lon="6.71292">
        <ele>529</ele>
        <time>2017-02-12T09:30:36.000Z</time>
      </trkpt>
      <trkpt lat="47.4266" lon="6.71283">
        <ele>528.8</ele>
        <time>2017-02-12T09:30:37.000Z</time>
      </trkpt>
      <trkpt lat="47.42658" lon="6.71276">
        <ele>528.7</ele>
        <time>2017-02-12T09:30:38.000Z</time>
      </trkpt>
      <trkpt lat="47.42656" lon="6.7127">
        <ele>528.8</ele>
        <time>2017-02-12T09:30:39.000Z</time>
      </trkpt>
      <trkpt lat="47.42653" lon="6.71265">
        <ele>528.5</ele>
        <time>2017-02-12T09:30:40.000Z</time>
      </trkpt>
      <trkpt lat="47.42648" lon="6.71263">
        <ele>528.1</ele>
        <time>2017-02-12T09:30:41.000Z</time>
      </trkpt>
      <trkpt lat="47.42645" lon="6.71265">
        <ele>528.1</ele>
        <time>2017-02-12T09:30:42.000Z</time>
      </trkpt>
      <trkpt lat="47.42642" lon="6.71268">
        <ele>528.7</ele>
        <time>2017-02-12T09:30:43.000Z</time>
      </trkpt>
      <trkpt lat="47.42639" lon="6.71272">
        <ele>528.7</ele>
        <time>2017-02-12T09:30:44.000Z</time>
      </trkpt>
      <trkpt lat="47.42636" lon="6.71275">
        <ele>528.8</ele>
        <time>2017-02-12T09:30:45.000Z</time>
      </trkpt>
      <trkpt lat="47.42634" lon="6.71279">
        <ele>528.8</ele>
        <time>2017-02-12T09:30:46.000Z</time>
      </trkpt>
      <trkpt lat="47.42631" lon="6.71282">
        <ele>528.9</ele>
        <time>2017-02-12T09:30:47.000Z</time>
      </trkpt>
      <trkpt lat="47.42628" lon="6.71286">
        <ele>529</ele>
        <time>2017-02-12T09:30:48.000Z</time>
      </trkpt>
      <trkpt lat="47.42626" lon="6.71289">
        <ele>529.1</ele>
        <time>2017-02-12T09:30:49.000Z</time>
      </trkpt>
      <trkpt lat="47.42623" lon="6.71292">
        <ele>529.2</ele>
        <time>2017-02-12T09:30:50.000Z</time>
      </trkpt>
      <trkpt lat="47.42621" lon="6.71294">
        <ele>529.3</ele>
        <time>2017-02-12T09:30:51.000Z</time>
      </trkpt>
      <trkpt lat="47.42618" lon="6.71298">
        <ele>529.3</ele>
        <time>2017-02-12T09:30:52.000Z</time>
      </trkpt>
      <trkpt lat="47.42616" lon="6.71299">
        <ele>529.4</ele>
        <time>2017-02-12T09:30:53.000Z</time>
      </trkpt>
      <trkpt lat="47.42614" lon="6.71302">
        <ele>529.4</ele>
        <time>2017-02-12T09:30:54.000Z</time>
      </trkpt>
      <trkpt lat="47.42612" lon="6.71304">
        <ele>529.5</ele>
        <time>2017-02-12T09:30:55.000Z</time>
      </trkpt>
      <trkpt lat="47.4261" lon="6.71306">
        <ele>529.6</ele>
        <time>2017-02-12T09:30:56.000Z</time>
      </trkpt>
      <trkpt lat="47.42608" lon="6.71308">
        <ele>529.7</ele>
        <time>2017-02-12T09:30:57.000Z</time>
      </trkpt>
      <trkpt lat="47.42605" lon="6.7131">
        <ele>529.8</ele>
        <time>2017-02-12T09:30:58.000Z</time>
      </trkpt>
      <trkpt lat="47.42602" lon="6.71312">
        <ele>529.9</ele>
        <time>2017-02-12T09:30:59.000Z</time>
      </trkpt>
      <trkpt lat="47.42599" lon="6.71314">
        <ele>530</ele>
        <time>2017-02-12T09:31:00.000Z</time>
      </trkpt>
      <trkpt lat="47.42595" lon="6.71316">
        <ele>530</ele>
        <time>2017-02-12T09:31:01.000Z</time>
      </trkpt>
      <trkpt lat="47.4259" lon="6.71317">
        <ele>530.1</ele>
        <time>2017-02-12T09:31:02.000Z</time>
      </trkpt>
      <trkpt lat="47.42586" lon="6.71319">
        <ele>530.2</ele>
        <time>2017-02-12T09:31:03.000Z</time>
      </trkpt>
      <trkpt lat="47.42583" lon="6.7132">
        <ele>530.3</ele>
        <time>2017-02-12T09:31:04.000Z</time>
      </trkpt>
      <trkpt lat="47.42579" lon="6.71322">
        <ele>530.4</ele>
        <time>2017-02-12T09:31:05.000Z</time>
      </trkpt>
      <trkpt lat="47.42576" lon="6.71323">
        <ele>530.5</ele>
        <time>2017-02-12T09:31:06.000Z</time>
      </trkpt>
      <trkpt lat="47.42573" lon="6.71325">
        <ele>530.6</ele>
        <time>2017-02-12T09:31:07.000Z</time>
      </trkpt>
      <trkpt lat="47.4257" lon="6.71327">
        <ele>530.7</ele>
        <time>2017-02-12T09:31:08.000Z</time>
      </trkpt>
      <trkpt lat="47.42567" lon="6.71329">
        <ele>530.8</ele>
        <time>2017-02-12T09:31:09.000Z</time>
      </trkpt>
      <trkpt lat="47.42563" lon="6.7133">
        <ele>530.9</ele>
        <time>2017-02-12T09:31:10.000Z</time>
      </trkpt>
      <trkpt lat="47.42559" lon="6.71332">
        <ele>531</ele>
        <time>2017-02-12T09:31:11.000Z</time>
      </trkpt>
      <trkpt lat="47.42556" lon="6.71334">
        <ele>531</ele>
        <time>2017-02-12T09:31:12.000Z</time>
      </trkpt>
      <trkpt lat="47.42553" lon="6.71335">
        <ele>531.1</ele>
        <time>2017-02-12T09:31:13.000Z</time>
      </trkpt>
      <trkpt lat="47.42549" lon="6.71337">
        <ele>531.2</ele>
        <time>2017-02-12T09:31:14.000Z</time>
      </trkpt>
      <trkpt lat="47.42546" lon="6.71338">
        <ele>531.3</ele>
        <time>2017-02-12T09:31:15.000Z</time>
      </trkpt>
      <trkpt lat="47.42542" lon="6.7134">
        <ele>531.5</ele>
        <time>2017-02-12T09:31:16.000Z</time>
      </trkpt>
      <trkpt lat="47.42539" lon="6.71342">
        <ele>531.6</ele>
        <time>2017-02-12T09:31:17.000Z</time>
      </trkpt>
      <trkpt lat="47.42536" lon="6.71343">
        <ele>531.8</ele>
        <time>2017-02-12T09:31:18.000Z</time>
      </trkpt>
      <trkpt lat="47.42533" lon="6.71345">
        <ele>531.9</ele>
        <time>2017-02-12T09:31:19.000Z</time>
      </trkpt>
      <trkpt lat="47.42529" lon="6.71346">
        <ele>531.9</ele>
        <time>2017-02-12T09:31:20.000Z</time>
      </trkpt>
      <trkpt lat="47.42526" lon="6.71348">
        <ele>532</ele>
        <time>2017-02-12T09:31:21.000Z</time>
      </trkpt>
      <trkpt lat="47.42523" lon="6.7135">
        <ele>532.1</ele>
        <time>2017-02-12T09:31:22.000Z</time>
      </trkpt>
      <trkpt lat="47.42519" lon="6.71352">
        <ele>532.1</ele>
        <time>2017-02-12T09:31:23.000Z</time>
      </trkpt>
      <trkpt lat="47.42515" lon="6.71354">
        <ele>532.1</ele>
        <time>2017-02-12T09:31:24.000Z</time>
      </trkpt>
      <trkpt lat="47.42512" lon="6.71355">
        <ele>532.2</ele>
        <time>2017-02-12T09:31:25.000Z</time>
      </trkpt>
      <trkpt lat="47.42508" lon="6.71357">
        <ele>532.2</ele>
        <time>2017-02-12T09:31:26.000Z</time>
      </trkpt>
      <trkpt lat="47.42505" lon="6.71358">
        <ele>532.2</ele>
        <time>2017-02-12T09:31:27.000Z</time>
      </trkpt>
      <trkpt lat="47.42504" lon="6.71359">
        <ele>532.2</ele>
        <time>2017-02-12T09:31:28.000Z</time>
      </trkpt>
      <trkpt lat="47.425" lon="6.71361">
        <ele>532.3</ele>
        <time>2017-02-12T09:31:31.000Z</time>
      </trkpt>
      <trkpt lat="47.42499" lon="6.71362">
        <ele>532.3</ele>
        <time>2017-02-12T09:31:32.000Z</time>
      </trkpt>
      <trkpt lat="47.42497" lon="6.71362">
        <ele>532.8</ele>
        <time>2017-02-12T09:31:44.000Z</time>
      </trkpt>
      <trkpt lat="47.4249" lon="6.71347">
        <ele>533.5</ele>
        <time>2017-02-12T09:31:45.000Z</time>
      </trkpt>
      <trkpt lat="47.4249" lon="6.7134">
        <ele>533.5</ele>
        <time>2017-02-12T09:31:46.000Z</time>
      </trkpt>
      <trkpt lat="47.42489" lon="6.71333">
        <ele>533.3</ele>
        <time>2017-02-12T09:31:47.000Z</time>
      </trkpt>
      <trkpt lat="47.42489" lon="6.71325">
        <ele>533.3</ele>
        <time>2017-02-12T09:31:48.000Z</time>
      </trkpt>
      <trkpt lat="47.42489" lon="6.71317">
        <ele>533.3</ele>
        <time>2017-02-12T09:31:49.000Z</time>
      </trkpt>
      <trkpt lat="47.42489" lon="6.71308">
        <ele>533.3</ele>
        <time>2017-02-12T09:31:50.000Z</time>
      </trkpt>
      <trkpt lat="47.42489" lon="6.71299">
        <ele>533.1</ele>
        <time>2017-02-12T09:31:51.000Z</time>
      </trkpt>
      <trkpt lat="47.42488" lon="6.71288">
        <ele>533.1</ele>
        <time>2017-02-12T09:31:52.000Z</time>
      </trkpt>
      <trkpt lat="47.42488" lon="6.71276">
        <ele>532.9</ele>
        <time>2017-02-12T09:31:53.000Z</time>
      </trkpt>
      <trkpt lat="47.42488" lon="6.71266">
        <ele>532.7</ele>
        <time>2017-02-12T09:31:54.000Z</time>
      </trkpt>
      <trkpt lat="47.42488" lon="6.71255">
        <ele>532.9</ele>
        <time>2017-02-12T09:31:55.000Z</time>
      </trkpt>
      <trkpt lat="47.42487" lon="6.71247">
        <ele>532.3</ele>
        <time>2017-02-12T09:31:56.000Z</time>
      </trkpt>
      <trkpt lat="47.42486" lon="6.71238">
        <ele>531.6</ele>
        <time>2017-02-12T09:31:57.000Z</time>
      </trkpt>
      <trkpt lat="47.42485" lon="6.71226">
        <ele>530.9</ele>
        <time>2017-02-12T09:31:58.000Z</time>
      </trkpt>
      <trkpt lat="47.42484" lon="6.71215">
        <ele>530</ele>
        <time>2017-02-12T09:31:59.000Z</time>
      </trkpt>
      <trkpt lat="47.42484" lon="6.71203">
        <ele>529.7</ele>
        <time>2017-02-12T09:32:00.000Z</time>
      </trkpt>
      <trkpt lat="47.42482" lon="6.7119">
        <ele>529.4</ele>
        <time>2017-02-12T09:32:01.000Z</time>
      </trkpt>
      <trkpt lat="47.42481" lon="6.71178">
        <ele>528.8</ele>
        <time>2017-02-12T09:32:02.000Z</time>
      </trkpt>
      <trkpt lat="47.42479" lon="6.71167">
        <ele>528</ele>
        <time>2017-02-12T09:32:03.000Z</time>
      </trkpt>
      <trkpt lat="47.42478" lon="6.71158">
        <ele>527.7</ele>
        <time>2017-02-12T09:32:04.000Z</time>
      </trkpt>
      <trkpt lat="47.42477" lon="6.71148">
        <ele>527</ele>
        <time>2017-02-12T09:32:05.000Z</time>
      </trkpt>
      <trkpt lat="47.42475" lon="6.71139">
        <ele>526.6</ele>
        <time>2017-02-12T09:32:06.000Z</time>
      </trkpt>
      <trkpt lat="47.42473" lon="6.71129">
        <ele>525.6</ele>
        <time>2017-02-12T09:32:07.000Z</time>
      </trkpt>
      <trkpt lat="47.42471" lon="6.7112">
        <ele>524.6</ele>
        <time>2017-02-12T09:32:08.000Z</time>
      </trkpt>
      <trkpt lat="47.42469" lon="6.71109">
        <ele>524.5</ele>
        <time>2017-02-12T09:32:09.000Z</time>
      </trkpt>
      <trkpt lat="47.42468" lon="6.71099">
        <ele>523.9</ele>
        <time>2017-02-12T09:32:10.000Z</time>
      </trkpt>
      <trkpt lat="47.42465" lon="6.71088">
        <ele>523.3</ele>
        <time>2017-02-12T09:32:11.000Z</time>
      </trkpt>
      <trkpt lat="47.42463" lon="6.71078">
        <ele>522.2</ele>
        <time>2017-02-12T09:32:12.000Z</time>
      </trkpt>
      <trkpt lat="47.4246" lon="6.71068">
        <ele>521.2</ele>
        <time>2017-02-12T09:32:13.000Z</time>
      </trkpt>
      <trkpt lat="47.42457" lon="6.71059">
        <ele>519.6</ele>
        <time>2017-02-12T09:32:14.000Z</time>
      </trkpt>
      <trkpt lat="47.42454" lon="6.7105">
        <ele>518.5</ele>
        <time>2017-02-12T09:32:15.000Z</time>
      </trkpt>
      <trkpt lat="47.4245" lon="6.71041">
        <ele>517.4</ele>
        <time>2017-02-12T09:32:16.000Z</time>
      </trkpt>
      <trkpt lat="47.42446" lon="6.71032">
        <ele>516.5</ele>
        <time>2017-02-12T09:32:17.000Z</time>
      </trkpt>
      <trkpt lat="47.42441" lon="6.71024">
        <ele>514.6</ele>
        <time>2017-02-12T09:32:18.000Z</time>
      </trkpt>
      <trkpt lat="47.42437" lon="6.71019">
        <ele>514.4</ele>
        <time>2017-02-12T09:32:19.000Z</time>
      </trkpt>
      <trkpt lat="47.42433" lon="6.71014">
        <ele>514.3</ele>
        <time>2017-02-12T09:32:20.000Z</time>
      </trkpt>
      <trkpt lat="47.42428" lon="6.71007">
        <ele>512</ele>
        <time>2017-02-12T09:32:21.000Z</time>
      </trkpt>
      <trkpt lat="47.42423" lon="6.71001">
        <ele>510.3</ele>
        <time>2017-02-12T09:32:22.000Z</time>
      </trkpt>
      <trkpt lat="47.42418" lon="6.70995">
        <ele>508.2</ele>
        <time>2017-02-12T09:32:23.000Z</time>
      </trkpt>
      <trkpt lat="47.42414" lon="6.70989">
        <ele>506.2</ele>
        <time>2017-02-12T09:32:24.000Z</time>
      </trkpt>
      <trkpt lat="47.42409" lon="6.70982">
        <ele>504.2</ele>
        <time>2017-02-12T09:32:25.000Z</time>
      </trkpt>
      <trkpt lat="47.42404" lon="6.70975">
        <ele>502.3</ele>
        <time>2017-02-12T09:32:26.000Z</time>
      </trkpt>
      <trkpt lat="47.42399" lon="6.70967">
        <ele>500.7</ele>
        <time>2017-02-12T09:32:27.000Z</time>
      </trkpt>
      <trkpt lat="47.42394" lon="6.70957">
        <ele>499.2</ele>
        <time>2017-02-12T09:32:28.000Z</time>
      </trkpt>
      <trkpt lat="47.4239" lon="6.70947">
        <ele>498</ele>
        <time>2017-02-12T09:32:29.000Z</time>
      </trkpt>
      <trkpt lat="47.42385" lon="6.70936">
        <ele>497.7</ele>
        <time>2017-02-12T09:32:30.000Z</time>
      </trkpt>
      <trkpt lat="47.42381" lon="6.70925">
        <ele>496.7</ele>
        <time>2017-02-12T09:32:31.000Z</time>
      </trkpt>
      <trkpt lat="47.42377" lon="6.70914">
        <ele>495.4</ele>
        <time>2017-02-12T09:32:32.000Z</time>
      </trkpt>
      <trkpt lat="47.42373" lon="6.70903">
        <ele>494.2</ele>
        <time>2017-02-12T09:32:33.000Z</time>
      </trkpt>
      <trkpt lat="47.42369" lon="6.70892">
        <ele>492.3</ele>
        <time>2017-02-12T09:32:34.000Z</time>
      </trkpt>
      <trkpt lat="47.42365" lon="6.70882">
        <ele>490.5</ele>
        <time>2017-02-12T09:32:35.000Z</time>
      </trkpt>
      <trkpt lat="47.42361" lon="6.7087">
        <ele>488.4</ele>
        <time>2017-02-12T09:32:36.000Z</time>
      </trkpt>
      <trkpt lat="47.42356" lon="6.70857">
        <ele>486.5</ele>
        <time>2017-02-12T09:32:37.000Z</time>
      </trkpt>
      <trkpt lat="47.42352" lon="6.70845">
        <ele>485.1</ele>
        <time>2017-02-12T09:32:38.000Z</time>
      </trkpt>
      <trkpt lat="47.42348" lon="6.70833">
        <ele>483.9</ele>
        <time>2017-02-12T09:32:39.000Z</time>
      </trkpt>
      <trkpt lat="47.42344" lon="6.70822">
        <ele>483.4</ele>
        <time>2017-02-12T09:32:40.000Z</time>
      </trkpt>
      <trkpt lat="47.4234" lon="6.7081">
        <ele>483.2</ele>
        <time>2017-02-12T09:32:41.000Z</time>
      </trkpt>
      <trkpt lat="47.42335" lon="6.70799">
        <ele>482.4</ele>
        <time>2017-02-12T09:32:42.000Z</time>
      </trkpt>
      <trkpt lat="47.42329" lon="6.70786">
        <ele>481.1</ele>
        <time>2017-02-12T09:32:43.000Z</time>
      </trkpt>
      <trkpt lat="47.42324" lon="6.70776">
        <ele>480.2</ele>
        <time>2017-02-12T09:32:44.000Z</time>
      </trkpt>
      <trkpt lat="47.42317" lon="6.70765">
        <ele>479.4</ele>
        <time>2017-02-12T09:32:45.000Z</time>
      </trkpt>
      <trkpt lat="47.42312" lon="6.70754">
        <ele>478.5</ele>
        <time>2017-02-12T09:32:46.000Z</time>
      </trkpt>
      <trkpt lat="47.42306" lon="6.70744">
        <ele>477.4</ele>
        <time>2017-02-12T09:32:47.000Z</time>
      </trkpt>
      <trkpt lat="47.42299" lon="6.70733">
        <ele>476.4</ele>
        <time>2017-02-12T09:32:48.000Z</time>
      </trkpt>
      <trkpt lat="47.42292" lon="6.7072">
        <ele>475.6</ele>
        <time>2017-02-12T09:32:49.000Z</time>
      </trkpt>
      <trkpt lat="47.42284" lon="6.70706">
        <ele>474.7</ele>
        <time>2017-02-12T09:32:50.000Z</time>
      </trkpt>
      <trkpt lat="47.42277" lon="6.70693">
        <ele>473.5</ele>
        <time>2017-02-12T09:32:51.000Z</time>
      </trkpt>
      <trkpt lat="47.42271" lon="6.7068">
        <ele>472.1</ele>
        <time>2017-02-12T09:32:52.000Z</time>
      </trkpt>
      <trkpt lat="47.42264" lon="6.70666">
        <ele>470.8</ele>
        <time>2017-02-12T09:32:53.000Z</time>
      </trkpt>
      <trkpt lat="47.42257" lon="6.70652">
        <ele>469.4</ele>
        <time>2017-02-12T09:32:54.000Z</time>
      </trkpt>
      <trkpt lat="47.42251" lon="6.7064">
        <ele>467.8</ele>
        <time>2017-02-12T09:32:55.000Z</time>
      </trkpt>
      <trkpt lat="47.42245" lon="6.70627">
        <ele>466.6</ele>
        <time>2017-02-12T09:32:56.000Z</time>
      </trkpt>
      <trkpt lat="47.42241" lon="6.70612">
        <ele>465.6</ele>
        <time>2017-02-12T09:32:57.000Z</time>
      </trkpt>
      <trkpt lat="47.42236" lon="6.70597">
        <ele>464.8</ele>
        <time>2017-02-12T09:32:58.000Z</time>
      </trkpt>
      <trkpt lat="47.42232" lon="6.70582">
        <ele>464.1</ele>
        <time>2017-02-12T09:32:59.000Z</time>
      </trkpt>
      <trkpt lat="47.42228" lon="6.70566">
        <ele>463.5</ele>
        <time>2017-02-12T09:33:00.000Z</time>
      </trkpt>
      <trkpt lat="47.42226" lon="6.70551">
        <ele>462.9</ele>
        <time>2017-02-12T09:33:01.000Z</time>
      </trkpt>
      <trkpt lat="47.42224" lon="6.70538">
        <ele>462.3</ele>
        <time>2017-02-12T09:33:02.000Z</time>
      </trkpt>
      <trkpt lat="47.42223" lon="6.70528">
        <ele>461.8</ele>
        <time>2017-02-12T09:33:03.000Z</time>
      </trkpt>
      <trkpt lat="47.42222" lon="6.7052">
        <ele>461.8</ele>
        <time>2017-02-12T09:33:04.000Z</time>
      </trkpt>
      <trkpt lat="47.42222" lon="6.70515">
        <ele>461.8</ele>
        <time>2017-02-12T09:33:05.000Z</time>
      </trkpt>
      <trkpt lat="47.42222" lon="6.70509">
        <ele>461.8</ele>
        <time>2017-02-12T09:33:06.000Z</time>
      </trkpt>
      <trkpt lat="47.42222" lon="6.70503">
        <ele>461.7</ele>
        <time>2017-02-12T09:33:07.000Z</time>
      </trkpt>
      <trkpt lat="47.42222" lon="6.70498">
        <ele>461.7</ele>
        <time>2017-02-12T09:33:08.000Z</time>
      </trkpt>
      <trkpt lat="47.42223" lon="6.70493">
        <ele>461.6</ele>
        <time>2017-02-12T09:33:09.000Z</time>
      </trkpt>
      <trkpt lat="47.42223" lon="6.70488">
        <ele>461.5</ele>
        <time>2017-02-12T09:33:10.000Z</time>
      </trkpt>
      <trkpt lat="47.42223" lon="6.70483">
        <ele>461.4</ele>
        <time>2017-02-12T09:33:11.000Z</time>
      </trkpt>
      <trkpt lat="47.42223" lon="6.70479">
        <ele>461.3</ele>
        <time>2017-02-12T09:33:12.000Z</time>
      </trkpt>
      <trkpt lat="47.42223" lon="6.70474">
        <ele>461.2</ele>
        <time>2017-02-12T09:33:13.000Z</time>
      </trkpt>
      <trkpt lat="47.42223" lon="6.7047">
        <ele>461.1</ele>
        <time>2017-02-12T09:33:14.000Z</time>
      </trkpt>
      <trkpt lat="47.42223" lon="6.70465">
        <ele>461</ele>
        <time>2017-02-12T09:33:15.000Z</time>
      </trkpt>
      <trkpt lat="47.42223" lon="6.7046">
        <ele>460.9</ele>
        <time>2017-02-12T09:33:16.000Z</time>
      </trkpt>
      <trkpt lat="47.42222" lon="6.70456">
        <ele>460.8</ele>
        <time>2017-02-12T09:33:17.000Z</time>
      </trkpt>
      <trkpt lat="47.42222" lon="6.70451">
        <ele>460.7</ele>
        <time>2017-02-12T09:33:18.000Z</time>
      </trkpt>
      <trkpt lat="47.42221" lon="6.70445">
        <ele>459.5</ele>
        <time>2017-02-12T09:33:19.000Z</time>
      </trkpt>
      <trkpt lat="47.42221" lon="6.70439">
        <ele>458.6</ele>
        <time>2017-02-12T09:33:20.000Z</time>
      </trkpt>
      <trkpt lat="47.42221" lon="6.70434">
        <ele>458.2</ele>
        <time>2017-02-12T09:33:21.000Z</time>
      </trkpt>
      <trkpt lat="47.42221" lon="6.70428">
        <ele>457.8</ele>
        <time>2017-02-12T09:33:22.000Z</time>
      </trkpt>
      <trkpt lat="47.42221" lon="6.70421">
        <ele>457.4</ele>
        <time>2017-02-12T09:33:23.000Z</time>
      </trkpt>
      <trkpt lat="47.42221" lon="6.70414">
        <ele>457.6</ele>
        <time>2017-02-12T09:33:24.000Z</time>
      </trkpt>
      <trkpt lat="47.42221" lon="6.70403">
        <ele>457.2</ele>
        <time>2017-02-12T09:33:25.000Z</time>
      </trkpt>
      <trkpt lat="47.4222" lon="6.70392">
        <ele>456.6</ele>
        <time>2017-02-12T09:33:26.000Z</time>
      </trkpt>
      <trkpt lat="47.4222" lon="6.70383">
        <ele>456.5</ele>
        <time>2017-02-12T09:33:27.000Z</time>
      </trkpt>
      <trkpt lat="47.42219" lon="6.70373">
        <ele>456.1</ele>
        <time>2017-02-12T09:33:28.000Z</time>
      </trkpt>
      <trkpt lat="47.42219" lon="6.70361">
        <ele>455.6</ele>
        <time>2017-02-12T09:33:29.000Z</time>
      </trkpt>
      <trkpt lat="47.42218" lon="6.7035">
        <ele>454.3</ele>
        <time>2017-02-12T09:33:30.000Z</time>
      </trkpt>
      <trkpt lat="47.42218" lon="6.70337">
        <ele>452.8</ele>
        <time>2017-02-12T09:33:31.000Z</time>
      </trkpt>
      <trkpt lat="47.42219" lon="6.70325">
        <ele>452</ele>
        <time>2017-02-12T09:33:32.000Z</time>
      </trkpt>
      <trkpt lat="47.42219" lon="6.70314">
        <ele>451</ele>
        <time>2017-02-12T09:33:33.000Z</time>
      </trkpt>
      <trkpt lat="47.4222" lon="6.70303">
        <ele>450.6</ele>
        <time>2017-02-12T09:33:34.000Z</time>
      </trkpt>
      <trkpt lat="47.42221" lon="6.70292">
        <ele>450.3</ele>
        <time>2017-02-12T09:33:35.000Z</time>
      </trkpt>
      <trkpt lat="47.42222" lon="6.70282">
        <ele>449.9</ele>
        <time>2017-02-12T09:33:36.000Z</time>
      </trkpt>
      <trkpt lat="47.42223" lon="6.70271">
        <ele>449.4</ele>
        <time>2017-02-12T09:33:37.000Z</time>
      </trkpt>
      <trkpt lat="47.42224" lon="6.7026">
        <ele>448.8</ele>
        <time>2017-02-12T09:33:38.000Z</time>
      </trkpt>
      <trkpt lat="47.42225" lon="6.70245">
        <ele>448.3</ele>
        <time>2017-02-12T09:33:39.000Z</time>
      </trkpt>
      <trkpt lat="47.42225" lon="6.7023">
        <ele>447.3</ele>
        <time>2017-02-12T09:33:40.000Z</time>
      </trkpt>
      <trkpt lat="47.42226" lon="6.70214">
        <ele>446</ele>
        <time>2017-02-12T09:33:41.000Z</time>
      </trkpt>
      <trkpt lat="47.42227" lon="6.702">
        <ele>444.6</ele>
        <time>2017-02-12T09:33:42.000Z</time>
      </trkpt>
      <trkpt lat="47.42228" lon="6.70187">
        <ele>443.6</ele>
        <time>2017-02-12T09:33:43.000Z</time>
      </trkpt>
      <trkpt lat="47.42229" lon="6.70173">
        <ele>442.9</ele>
        <time>2017-02-12T09:33:44.000Z</time>
      </trkpt>
      <trkpt lat="47.42231" lon="6.70159">
        <ele>442.1</ele>
        <time>2017-02-12T09:33:45.000Z</time>
      </trkpt>
      <trkpt lat="47.42233" lon="6.70145">
        <ele>441.3</ele>
        <time>2017-02-12T09:33:46.000Z</time>
      </trkpt>
      <trkpt lat="47.42236" lon="6.70132">
        <ele>440.8</ele>
        <time>2017-02-12T09:33:47.000Z</time>
      </trkpt>
      <trkpt lat="47.42238" lon="6.70119">
        <ele>440.4</ele>
        <time>2017-02-12T09:33:48.000Z</time>
      </trkpt>
      <trkpt lat="47.4224" lon="6.70106">
        <ele>440</ele>
        <time>2017-02-12T09:33:49.000Z</time>
      </trkpt>
      <trkpt lat="47.42243" lon="6.70094">
        <ele>439.2</ele>
        <time>2017-02-12T09:33:50.000Z</time>
      </trkpt>
      <trkpt lat="47.42245" lon="6.70085">
        <ele>438.4</ele>
        <time>2017-02-12T09:33:51.000Z</time>
      </trkpt>
      <trkpt lat="47.42247" lon="6.70075">
        <ele>437.7</ele>
        <time>2017-02-12T09:33:52.000Z</time>
      </trkpt>
      <trkpt lat="47.42249" lon="6.70067">
        <ele>436.5</ele>
        <time>2017-02-12T09:33:53.000Z</time>
      </trkpt>
      <trkpt lat="47.42251" lon="6.70059">
        <ele>435.6</ele>
        <time>2017-02-12T09:33:54.000Z</time>
      </trkpt>
      <trkpt lat="47.42254" lon="6.70052">
        <ele>434.8</ele>
        <time>2017-02-12T09:33:55.000Z</time>
      </trkpt>
      <trkpt lat="47.42256" lon="6.70044">
        <ele>434.5</ele>
        <time>2017-02-12T09:33:56.000Z</time>
      </trkpt>
      <trkpt lat="47.42257" lon="6.70037">
        <ele>434.3</ele>
        <time>2017-02-12T09:33:57.000Z</time>
      </trkpt>
      <trkpt lat="47.42259" lon="6.70028">
        <ele>433.9</ele>
        <time>2017-02-12T09:33:58.000Z</time>
      </trkpt>
      <trkpt lat="47.42261" lon="6.70019">
        <ele>433.2</ele>
        <time>2017-02-12T09:33:59.000Z</time>
      </trkpt>
      <trkpt lat="47.4226" lon="6.7001">
        <ele>432.3</ele>
        <time>2017-02-12T09:34:00.000Z</time>
      </trkpt>
      <trkpt lat="47.4226" lon="6.7">
        <ele>431.5</ele>
        <time>2017-02-12T09:34:01.000Z</time>
      </trkpt>
      <trkpt lat="47.42259" lon="6.69989">
        <ele>430.7</ele>
        <time>2017-02-12T09:34:02.000Z</time>
      </trkpt>
      <trkpt lat="47.42259" lon="6.69976">
        <ele>430</ele>
        <time>2017-02-12T09:34:03.000Z</time>
      </trkpt>
      <trkpt lat="47.42258" lon="6.69964">
        <ele>429</ele>
        <time>2017-02-12T09:34:04.000Z</time>
      </trkpt>
      <trkpt lat="47.42257" lon="6.69951">
        <ele>427.9</ele>
        <time>2017-02-12T09:34:05.000Z</time>
      </trkpt>
      <trkpt lat="47.42256" lon="6.69937">
        <ele>426.9</ele>
        <time>2017-02-12T09:34:06.000Z</time>
      </trkpt>
      <trkpt lat="47.42255" lon="6.69923">
        <ele>426.2</ele>
        <time>2017-02-12T09:34:07.000Z</time>
      </trkpt>
      <trkpt lat="47.42254" lon="6.69909">
        <ele>425.7</ele>
        <time>2017-02-12T09:34:08.000Z</time>
      </trkpt>
      <trkpt lat="47.42253" lon="6.69895">
        <ele>424.8</ele>
        <time>2017-02-12T09:34:09.000Z</time>
      </trkpt>
      <trkpt lat="47.42251" lon="6.69882">
        <ele>423.8</ele>
        <time>2017-02-12T09:34:10.000Z</time>
      </trkpt>
      <trkpt lat="47.42249" lon="6.6987">
        <ele>423.1</ele>
        <time>2017-02-12T09:34:11.000Z</time>
      </trkpt>
      <trkpt lat="47.42245" lon="6.69861">
        <ele>422.4</ele>
        <time>2017-02-12T09:34:12.000Z</time>
      </trkpt>
      <trkpt lat="47.42241" lon="6.69851">
        <ele>422</ele>
        <time>2017-02-12T09:34:13.000Z</time>
      </trkpt>
      <trkpt lat="47.42237" lon="6.69843">
        <ele>421.6</ele>
        <time>2017-02-12T09:34:14.000Z</time>
      </trkpt>
      <trkpt lat="47.42234" lon="6.69837">
        <ele>421.2</ele>
        <time>2017-02-12T09:34:15.000Z</time>
      </trkpt>
      <trkpt lat="47.42232" lon="6.69832">
        <ele>421.1</ele>
        <time>2017-02-12T09:34:16.000Z</time>
      </trkpt>
      <trkpt lat="47.42229" lon="6.6983">
        <ele>421</ele>
        <time>2017-02-12T09:34:17.000Z</time>
      </trkpt>
      <trkpt lat="47.42226" lon="6.69828">
        <ele>421</ele>
        <time>2017-02-12T09:34:18.000Z</time>
      </trkpt>
      <trkpt lat="47.42221" lon="6.69827">
        <ele>420.9</ele>
        <time>2017-02-12T09:34:19.000Z</time>
      </trkpt>
      <trkpt lat="47.42217" lon="6.69827">
        <ele>421.1</ele>
        <time>2017-02-12T09:34:20.000Z</time>
      </trkpt>
      <trkpt lat="47.42213" lon="6.69827">
        <ele>420.7</ele>
        <time>2017-02-12T09:34:21.000Z</time>
      </trkpt>
      <trkpt lat="47.42208" lon="6.6983">
        <ele>420</ele>
        <time>2017-02-12T09:34:22.000Z</time>
      </trkpt>
      <trkpt lat="47.42203" lon="6.69833">
        <ele>419.7</ele>
        <time>2017-02-12T09:34:23.000Z</time>
      </trkpt>
      <trkpt lat="47.42197" lon="6.69836">
        <ele>419.2</ele>
        <time>2017-02-12T09:34:24.000Z</time>
      </trkpt>
      <trkpt lat="47.42191" lon="6.69841">
        <ele>418.4</ele>
        <time>2017-02-12T09:34:25.000Z</time>
      </trkpt>
      <trkpt lat="47.42185" lon="6.69845">
        <ele>417.5</ele>
        <time>2017-02-12T09:34:26.000Z</time>
      </trkpt>
      <trkpt lat="47.42179" lon="6.6985">
        <ele>417.3</ele>
        <time>2017-02-12T09:34:27.000Z</time>
      </trkpt>
      <trkpt lat="47.42173" lon="6.69854">
        <ele>417.1</ele>
        <time>2017-02-12T09:34:28.000Z</time>
      </trkpt>
      <trkpt lat="47.42167" lon="6.69859">
        <ele>416.8</ele>
        <time>2017-02-12T09:34:29.000Z</time>
      </trkpt>
      <trkpt lat="47.42163" lon="6.69862">
        <ele>416.8</ele>
        <time>2017-02-12T09:34:30.000Z</time>
      </trkpt>
      <trkpt lat="47.42158" lon="6.69866">
        <ele>416.8</ele>
        <time>2017-02-12T09:34:31.000Z</time>
      </trkpt>
      <trkpt lat="47.42154" lon="6.69869">
        <ele>416.4</ele>
        <time>2017-02-12T09:34:32.000Z</time>
      </trkpt>
      <trkpt lat="47.4215" lon="6.69872">
        <ele>415.8</ele>
        <time>2017-02-12T09:34:33.000Z</time>
      </trkpt>
      <trkpt lat="47.42147" lon="6.69875">
        <ele>414.9</ele>
        <time>2017-02-12T09:34:34.000Z</time>
      </trkpt>
      <trkpt lat="47.42145" lon="6.69877">
        <ele>414.1</ele>
        <time>2017-02-12T09:34:35.000Z</time>
      </trkpt>
      <trkpt lat="47.42142" lon="6.6988">
        <ele>413.3</ele>
        <time>2017-02-12T09:34:36.000Z</time>
      </trkpt>
      <trkpt lat="47.42138" lon="6.69882">
        <ele>413</ele>
        <time>2017-02-12T09:34:37.000Z</time>
      </trkpt>
      <trkpt lat="47.42133" lon="6.69884">
        <ele>413.1</ele>
        <time>2017-02-12T09:34:38.000Z</time>
      </trkpt>
      <trkpt lat="47.42129" lon="6.69887">
        <ele>413.7</ele>
        <time>2017-02-12T09:34:39.000Z</time>
      </trkpt>
      <trkpt lat="47.42124" lon="6.69889">
        <ele>414.1</ele>
        <time>2017-02-12T09:34:40.000Z</time>
      </trkpt>
      <trkpt lat="47.4212" lon="6.69892">
        <ele>414.2</ele>
        <time>2017-02-12T09:34:41.000Z</time>
      </trkpt>
      <trkpt lat="47.42117" lon="6.69894">
        <ele>414.2</ele>
        <time>2017-02-12T09:34:42.000Z</time>
      </trkpt>
      <trkpt lat="47.42113" lon="6.69896">
        <ele>414.3</ele>
        <time>2017-02-12T09:34:43.000Z</time>
      </trkpt>
      <trkpt lat="47.4211" lon="6.69898">
        <ele>414.3</ele>
        <time>2017-02-12T09:34:44.000Z</time>
      </trkpt>
      <trkpt lat="47.42108" lon="6.699">
        <ele>414.4</ele>
        <time>2017-02-12T09:34:45.000Z</time>
      </trkpt>
      <trkpt lat="47.42105" lon="6.69903">
        <ele>414.4</ele>
        <time>2017-02-12T09:34:46.000Z</time>
      </trkpt>
      <trkpt lat="47.42103" lon="6.69905">
        <ele>414.4</ele>
        <time>2017-02-12T09:34:47.000Z</time>
      </trkpt>
      <trkpt lat="47.42101" lon="6.69906">
        <ele>414.5</ele>
        <time>2017-02-12T09:34:48.000Z</time>
      </trkpt>
      <trkpt lat="47.42098" lon="6.69907">
        <ele>414.5</ele>
        <time>2017-02-12T09:34:49.000Z</time>
      </trkpt>
      <trkpt lat="47.42095" lon="6.69908">
        <ele>414.5</ele>
        <time>2017-02-12T09:34:50.000Z</time>
      </trkpt>
      <trkpt lat="47.42093" lon="6.6991">
        <ele>414.5</ele>
        <time>2017-02-12T09:34:51.000Z</time>
      </trkpt>
      <trkpt lat="47.42091" lon="6.69911">
        <ele>414.5</ele>
        <time>2017-02-12T09:34:52.000Z</time>
      </trkpt>
      <trkpt lat="47.42088" lon="6.69911">
        <ele>414.7</ele>
        <time>2017-02-12T09:34:53.000Z</time>
      </trkpt>
      <trkpt lat="47.42085" lon="6.69911">
        <ele>414.8</ele>
        <time>2017-02-12T09:34:54.000Z</time>
      </trkpt>
      <trkpt lat="47.42081" lon="6.69912">
        <ele>414.8</ele>
        <time>2017-02-12T09:34:55.000Z</time>
      </trkpt>
      <trkpt lat="47.42078" lon="6.69912">
        <ele>414.9</ele>
        <time>2017-02-12T09:34:56.000Z</time>
      </trkpt>
      <trkpt lat="47.42074" lon="6.69914">
        <ele>415</ele>
        <time>2017-02-12T09:34:57.000Z</time>
      </trkpt>
      <trkpt lat="47.42071" lon="6.69915">
        <ele>415.1</ele>
        <time>2017-02-12T09:34:58.000Z</time>
      </trkpt>
      <trkpt lat="47.42068" lon="6.69916">
        <ele>415.3</ele>
        <time>2017-02-12T09:34:59.000Z</time>
      </trkpt>
      <trkpt lat="47.42065" lon="6.69917">
        <ele>415.4</ele>
        <time>2017-02-12T09:35:00.000Z</time>
      </trkpt>
      <trkpt lat="47.42062" lon="6.69918">
        <ele>415.6</ele>
        <time>2017-02-12T09:35:01.000Z</time>
      </trkpt>
      <trkpt lat="47.42059" lon="6.69918">
        <ele>415.7</ele>
        <time>2017-02-12T09:35:02.000Z</time>
      </trkpt>
      <trkpt lat="47.42057" lon="6.69919">
        <ele>415.8</ele>
        <time>2017-02-12T09:35:03.000Z</time>
      </trkpt>
      <trkpt lat="47.42054" lon="6.6992">
        <ele>415.8</ele>
        <time>2017-02-12T09:35:04.000Z</time>
      </trkpt>
      <trkpt lat="47.4205" lon="6.6992">
        <ele>415.9</ele>
        <time>2017-02-12T09:35:05.000Z</time>
      </trkpt>
      <trkpt lat="47.42047" lon="6.6992">
        <ele>415.9</ele>
        <time>2017-02-12T09:35:06.000Z</time>
      </trkpt>
      <trkpt lat="47.42043" lon="6.6992">
        <ele>416</ele>
        <time>2017-02-12T09:35:07.000Z</time>
      </trkpt>
      <trkpt lat="47.42039" lon="6.6992">
        <ele>416</ele>
        <time>2017-02-12T09:35:08.000Z</time>
      </trkpt>
      <trkpt lat="47.42036" lon="6.69921">
        <ele>416.1</ele>
        <time>2017-02-12T09:35:09.000Z</time>
      </trkpt>
      <trkpt lat="47.42032" lon="6.69921">
        <ele>416.5</ele>
        <time>2017-02-12T09:35:10.000Z</time>
      </trkpt>
      <trkpt lat="47.4203" lon="6.69921">
        <ele>416.5</ele>
        <time>2017-02-12T09:35:11.000Z</time>
      </trkpt>
      <trkpt lat="47.42026" lon="6.69922">
        <ele>417.2</ele>
        <time>2017-02-12T09:35:12.000Z</time>
      </trkpt>
      <trkpt lat="47.42022" lon="6.69922">
        <ele>417.9</ele>
        <time>2017-02-12T09:35:13.000Z</time>
      </trkpt>
      <trkpt lat="47.42019" lon="6.69922">
        <ele>418.7</ele>
        <time>2017-02-12T09:35:14.000Z</time>
      </trkpt>
      <trkpt lat="47.42015" lon="6.69923">
        <ele>418.7</ele>
        <time>2017-02-12T09:35:15.000Z</time>
      </trkpt>
      <trkpt lat="47.42011" lon="6.69923">
        <ele>418.8</ele>
        <time>2017-02-12T09:35:16.000Z</time>
      </trkpt>
      <trkpt lat="47.42006" lon="6.69924">
        <ele>418.9</ele>
        <time>2017-02-12T09:35:17.000Z</time>
      </trkpt>
      <trkpt lat="47.42002" lon="6.69924">
        <ele>419</ele>
        <time>2017-02-12T09:35:18.000Z</time>
      </trkpt>
      <trkpt lat="47.41997" lon="6.69925">
        <ele>418.8</ele>
        <time>2017-02-12T09:35:19.000Z</time>
      </trkpt>
      <trkpt lat="47.41993" lon="6.69926">
        <ele>418.3</ele>
        <time>2017-02-12T09:35:20.000Z</time>
      </trkpt>
      <trkpt lat="47.41987" lon="6.69927">
        <ele>418.2</ele>
        <time>2017-02-12T09:35:21.000Z</time>
      </trkpt>
      <trkpt lat="47.41982" lon="6.69928">
        <ele>417.9</ele>
        <time>2017-02-12T09:35:22.000Z</time>
      </trkpt>
      <trkpt lat="47.41977" lon="6.69929">
        <ele>417.4</ele>
        <time>2017-02-12T09:35:23.000Z</time>
      </trkpt>
      <trkpt lat="47.41972" lon="6.6993">
        <ele>417.2</ele>
        <time>2017-02-12T09:35:24.000Z</time>
      </trkpt>
      <trkpt lat="47.41968" lon="6.69932">
        <ele>417.1</ele>
        <time>2017-02-12T09:35:25.000Z</time>
      </trkpt>
      <trkpt lat="47.41964" lon="6.69933">
        <ele>417</ele>
        <time>2017-02-12T09:35:26.000Z</time>
      </trkpt>
      <trkpt lat="47.41959" lon="6.69934">
        <ele>417.2</ele>
        <time>2017-02-12T09:35:27.000Z</time>
      </trkpt>
      <trkpt lat="47.41955" lon="6.69935">
        <ele>417.4</ele>
        <time>2017-02-12T09:35:28.000Z</time>
      </trkpt>
      <trkpt lat="47.4195" lon="6.69936">
        <ele>418</ele>
        <time>2017-02-12T09:35:29.000Z</time>
      </trkpt>
      <trkpt lat="47.41945" lon="6.69937">
        <ele>418.4</ele>
        <time>2017-02-12T09:35:30.000Z</time>
      </trkpt>
      <trkpt lat="47.41941" lon="6.69938">
        <ele>418.4</ele>
        <time>2017-02-12T09:35:31.000Z</time>
      </trkpt>
      <trkpt lat="47.41935" lon="6.6994">
        <ele>418.7</ele>
        <time>2017-02-12T09:35:32.000Z</time>
      </trkpt>
      <trkpt lat="47.41931" lon="6.69941">
        <ele>418.7</ele>
        <time>2017-02-12T09:35:33.000Z</time>
      </trkpt>
      <trkpt lat="47.41926" lon="6.69943">
        <ele>418.9</ele>
        <time>2017-02-12T09:35:34.000Z</time>
      </trkpt>
      <trkpt lat="47.41921" lon="6.69944">
        <ele>419.1</ele>
        <time>2017-02-12T09:35:35.000Z</time>
      </trkpt>
      <trkpt lat="47.41916" lon="6.69945">
        <ele>419.4</ele>
        <time>2017-02-12T09:35:36.000Z</time>
      </trkpt>
      <trkpt lat="47.4191" lon="6.69947">
        <ele>419.7</ele>
        <time>2017-02-12T09:35:37.000Z</time>
      </trkpt>
      <trkpt lat="47.41904" lon="6.69949">
        <ele>419.9</ele>
        <time>2017-02-12T09:35:38.000Z</time>
      </trkpt>
      <trkpt lat="47.41897" lon="6.69952">
        <ele>420.5</ele>
        <time>2017-02-12T09:35:39.000Z</time>
      </trkpt>
      <trkpt lat="47.41891" lon="6.69954">
        <ele>421</ele>
        <time>2017-02-12T09:35:40.000Z</time>
      </trkpt>
      <trkpt lat="47.41885" lon="6.69957">
        <ele>421.4</ele>
        <time>2017-02-12T09:35:41.000Z</time>
      </trkpt>
      <trkpt lat="47.41879" lon="6.6996">
        <ele>421.4</ele>
        <time>2017-02-12T09:35:42.000Z</time>
      </trkpt>
      <trkpt lat="47.41873" lon="6.69963">
        <ele>421.3</ele>
        <time>2017-02-12T09:35:43.000Z</time>
      </trkpt>
      <trkpt lat="47.41867" lon="6.69966">
        <ele>421</ele>
        <time>2017-02-12T09:35:44.000Z</time>
      </trkpt>
      <trkpt lat="47.41861" lon="6.69969">
        <ele>420.7</ele>
        <time>2017-02-12T09:35:45.000Z</time>
      </trkpt>
      <trkpt lat="47.41856" lon="6.69972">
        <ele>420</ele>
        <time>2017-02-12T09:35:46.000Z</time>
      </trkpt>
      <trkpt lat="47.41851" lon="6.69975">
        <ele>419.2</ele>
        <time>2017-02-12T09:35:47.000Z</time>
      </trkpt>
      <trkpt lat="47.41847" lon="6.69978">
        <ele>418.4</ele>
        <time>2017-02-12T09:35:48.000Z</time>
      </trkpt>
      <trkpt lat="47.41842" lon="6.6998">
        <ele>417.8</ele>
        <time>2017-02-12T09:35:49.000Z</time>
      </trkpt>
      <trkpt lat="47.41836" lon="6.69982">
        <ele>417.4</ele>
        <time>2017-02-12T09:35:50.000Z</time>
      </trkpt>
      <trkpt lat="47.4183" lon="6.69984">
        <ele>416.9</ele>
        <time>2017-02-12T09:35:51.000Z</time>
      </trkpt>
      <trkpt lat="47.41825" lon="6.69985">
        <ele>416.8</ele>
        <time>2017-02-12T09:35:52.000Z</time>
      </trkpt>
      <trkpt lat="47.4182" lon="6.69985">
        <ele>416.8</ele>
        <time>2017-02-12T09:35:53.000Z</time>
      </trkpt>
      <trkpt lat="47.41816" lon="6.69986">
        <ele>416.7</ele>
        <time>2017-02-12T09:35:54.000Z</time>
      </trkpt>
      <trkpt lat="47.41811" lon="6.69986">
        <ele>416.5</ele>
        <time>2017-02-12T09:35:55.000Z</time>
      </trkpt>
      <trkpt lat="47.41807" lon="6.69986">
        <ele>416.4</ele>
        <time>2017-02-12T09:35:56.000Z</time>
      </trkpt>
      <trkpt lat="47.41802" lon="6.69985">
        <ele>416.3</ele>
        <time>2017-02-12T09:35:57.000Z</time>
      </trkpt>
      <trkpt lat="47.41798" lon="6.69985">
        <ele>416.6</ele>
        <time>2017-02-12T09:35:58.000Z</time>
      </trkpt>
      <trkpt lat="47.41793" lon="6.69985">
        <ele>416.8</ele>
        <time>2017-02-12T09:35:59.000Z</time>
      </trkpt>
      <trkpt lat="47.41788" lon="6.69985">
        <ele>417.3</ele>
        <time>2017-02-12T09:36:00.000Z</time>
      </trkpt>
      <trkpt lat="47.41784" lon="6.69985">
        <ele>417.7</ele>
        <time>2017-02-12T09:36:01.000Z</time>
      </trkpt>
      <trkpt lat="47.4178" lon="6.69985">
        <ele>418</ele>
        <time>2017-02-12T09:36:02.000Z</time>
      </trkpt>
      <trkpt lat="47.41776" lon="6.69985">
        <ele>418.5</ele>
        <time>2017-02-12T09:36:03.000Z</time>
      </trkpt>
      <trkpt lat="47.41771" lon="6.69985">
        <ele>419</ele>
        <time>2017-02-12T09:36:04.000Z</time>
      </trkpt>
      <trkpt lat="47.41768" lon="6.69986">
        <ele>419.6</ele>
        <time>2017-02-12T09:36:05.000Z</time>
      </trkpt>
      <trkpt lat="47.41763" lon="6.69986">
        <ele>420.4</ele>
        <time>2017-02-12T09:36:06.000Z</time>
      </trkpt>
      <trkpt lat="47.41759" lon="6.69987">
        <ele>420.6</ele>
        <time>2017-02-12T09:36:07.000Z</time>
      </trkpt>
      <trkpt lat="47.41754" lon="6.69987">
        <ele>420.8</ele>
        <time>2017-02-12T09:36:08.000Z</time>
      </trkpt>
      <trkpt lat="47.4175" lon="6.69987">
        <ele>421</ele>
        <time>2017-02-12T09:36:09.000Z</time>
      </trkpt>
      <trkpt lat="47.41746" lon="6.69987">
        <ele>421.2</ele>
        <time>2017-02-12T09:36:10.000Z</time>
      </trkpt>
      <trkpt lat="47.41741" lon="6.69988">
        <ele>421.6</ele>
        <time>2017-02-12T09:36:11.000Z</time>
      </trkpt>
      <trkpt lat="47.41737" lon="6.69988">
        <ele>422</ele>
        <time>2017-02-12T09:36:12.000Z</time>
      </trkpt>
      <trkpt lat="47.41732" lon="6.69989">
        <ele>422.5</ele>
        <time>2017-02-12T09:36:13.000Z</time>
      </trkpt>
      <trkpt lat="47.41728" lon="6.69989">
        <ele>422.8</ele>
        <time>2017-02-12T09:36:14.000Z</time>
      </trkpt>
      <trkpt lat="47.41724" lon="6.69989">
        <ele>422.9</ele>
        <time>2017-02-12T09:36:15.000Z</time>
      </trkpt>
      <trkpt lat="47.4172" lon="6.6999">
        <ele>423.1</ele>
        <time>2017-02-12T09:36:16.000Z</time>
      </trkpt>
      <trkpt lat="47.41715" lon="6.69991">
        <ele>423.2</ele>
        <time>2017-02-12T09:36:17.000Z</time>
      </trkpt>
      <trkpt lat="47.41711" lon="6.69994">
        <ele>423.6</ele>
        <time>2017-02-12T09:36:18.000Z</time>
      </trkpt>
      <trkpt lat="47.41707" lon="6.69997">
        <ele>423.8</ele>
        <time>2017-02-12T09:36:19.000Z</time>
      </trkpt>
      <trkpt lat="47.41703" lon="6.7">
        <ele>423.9</ele>
        <time>2017-02-12T09:36:20.000Z</time>
      </trkpt>
      <trkpt lat="47.41698" lon="6.70003">
        <ele>424.1</ele>
        <time>2017-02-12T09:36:21.000Z</time>
      </trkpt>
      <trkpt lat="47.41694" lon="6.70006">
        <ele>424.4</ele>
        <time>2017-02-12T09:36:22.000Z</time>
      </trkpt>
      <trkpt lat="47.4169" lon="6.70009">
        <ele>424.4</ele>
        <time>2017-02-12T09:36:23.000Z</time>
      </trkpt>
      <trkpt lat="47.41687" lon="6.70012">
        <ele>424.4</ele>
        <time>2017-02-12T09:36:24.000Z</time>
      </trkpt>
      <trkpt lat="47.41683" lon="6.70015">
        <ele>424.5</ele>
        <time>2017-02-12T09:36:25.000Z</time>
      </trkpt>
      <trkpt lat="47.4168" lon="6.70018">
        <ele>424.5</ele>
        <time>2017-02-12T09:36:26.000Z</time>
      </trkpt>
      <trkpt lat="47.41677" lon="6.70021">
        <ele>424.9</ele>
        <time>2017-02-12T09:36:27.000Z</time>
      </trkpt>
      <trkpt lat="47.41673" lon="6.70024">
        <ele>424.6</ele>
        <time>2017-02-12T09:36:28.000Z</time>
      </trkpt>
      <trkpt lat="47.4167" lon="6.70027">
        <ele>424.6</ele>
        <time>2017-02-12T09:36:29.000Z</time>
      </trkpt>
      <trkpt lat="47.41666" lon="6.70029">
        <ele>424.5</ele>
        <time>2017-02-12T09:36:30.000Z</time>
      </trkpt>
      <trkpt lat="47.41662" lon="6.70032">
        <ele>424.5</ele>
        <time>2017-02-12T09:36:31.000Z</time>
      </trkpt>
      <trkpt lat="47.41659" lon="6.70034">
        <ele>424.5</ele>
        <time>2017-02-12T09:36:32.000Z</time>
      </trkpt>
      <trkpt lat="47.41655" lon="6.70037">
        <ele>424.4</ele>
        <time>2017-02-12T09:36:33.000Z</time>
      </trkpt>
      <trkpt lat="47.41652" lon="6.70039">
        <ele>424.4</ele>
        <time>2017-02-12T09:36:34.000Z</time>
      </trkpt>
      <trkpt lat="47.41649" lon="6.70041">
        <ele>424.4</ele>
        <time>2017-02-12T09:36:35.000Z</time>
      </trkpt>
      <trkpt lat="47.41645" lon="6.70043">
        <ele>424.3</ele>
        <time>2017-02-12T09:36:36.000Z</time>
      </trkpt>
      <trkpt lat="47.41642" lon="6.70044">
        <ele>424.3</ele>
        <time>2017-02-12T09:36:37.000Z</time>
      </trkpt>
      <trkpt lat="47.41638" lon="6.70046">
        <ele>424.2</ele>
        <time>2017-02-12T09:36:38.000Z</time>
      </trkpt>
      <trkpt lat="47.41634" lon="6.70047">
        <ele>423.9</ele>
        <time>2017-02-12T09:36:39.000Z</time>
      </trkpt>
      <trkpt lat="47.41632" lon="6.70049">
        <ele>423.9</ele>
        <time>2017-02-12T09:36:40.000Z</time>
      </trkpt>
      <trkpt lat="47.41628" lon="6.70051">
        <ele>424</ele>
        <time>2017-02-12T09:36:41.000Z</time>
      </trkpt>
      <trkpt lat="47.41625" lon="6.70053">
        <ele>423.9</ele>
        <time>2017-02-12T09:36:42.000Z</time>
      </trkpt>
      <trkpt lat="47.41622" lon="6.70055">
        <ele>423.9</ele>
        <time>2017-02-12T09:36:43.000Z</time>
      </trkpt>
      <trkpt lat="47.4162" lon="6.70057">
        <ele>423.9</ele>
        <time>2017-02-12T09:36:44.000Z</time>
      </trkpt>
      <trkpt lat="47.41618" lon="6.70059">
        <ele>424</ele>
        <time>2017-02-12T09:36:45.000Z</time>
      </trkpt>
      <trkpt lat="47.41615" lon="6.70061">
        <ele>424</ele>
        <time>2017-02-12T09:36:46.000Z</time>
      </trkpt>
      <trkpt lat="47.41612" lon="6.70064">
        <ele>424.1</ele>
        <time>2017-02-12T09:36:47.000Z</time>
      </trkpt>
      <trkpt lat="47.41608" lon="6.70067">
        <ele>424.1</ele>
        <time>2017-02-12T09:36:48.000Z</time>
      </trkpt>
      <trkpt lat="47.41606" lon="6.70069">
        <ele>424.2</ele>
        <time>2017-02-12T09:36:49.000Z</time>
      </trkpt>
      <trkpt lat="47.41604" lon="6.7007">
        <ele>424.3</ele>
        <time>2017-02-12T09:36:50.000Z</time>
      </trkpt>
      <trkpt lat="47.41602" lon="6.70073">
        <ele>424.4</ele>
        <time>2017-02-12T09:36:51.000Z</time>
      </trkpt>
      <trkpt lat="47.41599" lon="6.70075">
        <ele>424.5</ele>
        <time>2017-02-12T09:36:52.000Z</time>
      </trkpt>
      <trkpt lat="47.41597" lon="6.70078">
        <ele>424.7</ele>
        <time>2017-02-12T09:36:53.000Z</time>
      </trkpt>
      <trkpt lat="47.41594" lon="6.70081">
        <ele>424.8</ele>
        <time>2017-02-12T09:36:54.000Z</time>
      </trkpt>
      <trkpt lat="47.41591" lon="6.70084">
        <ele>424.9</ele>
        <time>2017-02-12T09:36:55.000Z</time>
      </trkpt>
      <trkpt lat="47.41587" lon="6.70087">
        <ele>425</ele>
        <time>2017-02-12T09:36:56.000Z</time>
      </trkpt>
      <trkpt lat="47.41584" lon="6.70091">
        <ele>425.1</ele>
        <time>2017-02-12T09:36:57.000Z</time>
      </trkpt>
      <trkpt lat="47.41581" lon="6.70094">
        <ele>425.2</ele>
        <time>2017-02-12T09:36:58.000Z</time>
      </trkpt>
      <trkpt lat="47.41578" lon="6.70098">
        <ele>425.3</ele>
        <time>2017-02-12T09:36:59.000Z</time>
      </trkpt>
      <trkpt lat="47.41575" lon="6.70101">
        <ele>425.4</ele>
        <time>2017-02-12T09:37:00.000Z</time>
      </trkpt>
      <trkpt lat="47.41573" lon="6.70104">
        <ele>425.5</ele>
        <time>2017-02-12T09:37:01.000Z</time>
      </trkpt>
      <trkpt lat="47.4157" lon="6.70107">
        <ele>425.7</ele>
        <time>2017-02-12T09:37:02.000Z</time>
      </trkpt>
      <trkpt lat="47.41568" lon="6.7011">
        <ele>425.8</ele>
        <time>2017-02-12T09:37:03.000Z</time>
      </trkpt>
      <trkpt lat="47.41566" lon="6.70113">
        <ele>426</ele>
        <time>2017-02-12T09:37:04.000Z</time>
      </trkpt>
      <trkpt lat="47.41565" lon="6.70116">
        <ele>426.1</ele>
        <time>2017-02-12T09:37:05.000Z</time>
      </trkpt>
      <trkpt lat="47.41562" lon="6.70119">
        <ele>426.3</ele>
        <time>2017-02-12T09:37:06.000Z</time>
      </trkpt>
      <trkpt lat="47.4156" lon="6.70123">
        <ele>426.4</ele>
        <time>2017-02-12T09:37:07.000Z</time>
      </trkpt>
      <trkpt lat="47.41557" lon="6.70126">
        <ele>426.6</ele>
        <time>2017-02-12T09:37:08.000Z</time>
      </trkpt>
      <trkpt lat="47.41555" lon="6.7013">
        <ele>427.5</ele>
        <time>2017-02-12T09:37:09.000Z</time>
      </trkpt>
      <trkpt lat="47.4155" lon="6.70135">
        <ele>428.2</ele>
        <time>2017-02-12T09:37:10.000Z</time>
      </trkpt>
      <trkpt lat="47.41547" lon="6.70139">
        <ele>428.6</ele>
        <time>2017-02-12T09:37:11.000Z</time>
      </trkpt>
      <trkpt lat="47.41543" lon="6.70143">
        <ele>428.6</ele>
        <time>2017-02-12T09:37:12.000Z</time>
      </trkpt>
      <trkpt lat="47.41538" lon="6.70147">
        <ele>428.4</ele>
        <time>2017-02-12T09:37:13.000Z</time>
      </trkpt>
      <trkpt lat="47.41533" lon="6.70151">
        <ele>427.8</ele>
        <time>2017-02-12T09:37:14.000Z</time>
      </trkpt>
      <trkpt lat="47.41528" lon="6.70153">
        <ele>427.2</ele>
        <time>2017-02-12T09:37:15.000Z</time>
      </trkpt>
      <trkpt lat="47.41524" lon="6.70155">
        <ele>426.7</ele>
        <time>2017-02-12T09:37:16.000Z</time>
      </trkpt>
      <trkpt lat="47.41519" lon="6.70157">
        <ele>426.2</ele>
        <time>2017-02-12T09:37:17.000Z</time>
      </trkpt>
      <trkpt lat="47.41514" lon="6.70159">
        <ele>425.6</ele>
        <time>2017-02-12T09:37:18.000Z</time>
      </trkpt>
      <trkpt lat="47.41509" lon="6.70161">
        <ele>424.9</ele>
        <time>2017-02-12T09:37:19.000Z</time>
      </trkpt>
      <trkpt lat="47.41506" lon="6.70163">
        <ele>424.7</ele>
        <time>2017-02-12T09:37:20.000Z</time>
      </trkpt>
      <trkpt lat="47.41502" lon="6.70164">
        <ele>424.7</ele>
        <time>2017-02-12T09:37:21.000Z</time>
      </trkpt>
      <trkpt lat="47.41498" lon="6.70167">
        <ele>424.6</ele>
        <time>2017-02-12T09:37:22.000Z</time>
      </trkpt>
      <trkpt lat="47.41494" lon="6.70169">
        <ele>424.6</ele>
        <time>2017-02-12T09:37:23.000Z</time>
      </trkpt>
      <trkpt lat="47.4149" lon="6.70171">
        <ele>424.6</ele>
        <time>2017-02-12T09:37:24.000Z</time>
      </trkpt>
      <trkpt lat="47.41485" lon="6.70174">
        <ele>424.7</ele>
        <time>2017-02-12T09:37:25.000Z</time>
      </trkpt>
      <trkpt lat="47.4148" lon="6.70176">
        <ele>424.7</ele>
        <time>2017-02-12T09:37:26.000Z</time>
      </trkpt>
      <trkpt lat="47.41475" lon="6.70178">
        <ele>424.7</ele>
        <time>2017-02-12T09:37:27.000Z</time>
      </trkpt>
      <trkpt lat="47.4147" lon="6.7018">
        <ele>424.6</ele>
        <time>2017-02-12T09:37:28.000Z</time>
      </trkpt>
      <trkpt lat="47.41465" lon="6.70183">
        <ele>424.6</ele>
        <time>2017-02-12T09:37:29.000Z</time>
      </trkpt>
      <trkpt lat="47.41459" lon="6.70185">
        <ele>424.7</ele>
        <time>2017-02-12T09:37:30.000Z</time>
      </trkpt>
      <trkpt lat="47.41455" lon="6.70188">
        <ele>424.5</ele>
        <time>2017-02-12T09:37:31.000Z</time>
      </trkpt>
      <trkpt lat="47.4145" lon="6.70191">
        <ele>424.5</ele>
        <time>2017-02-12T09:37:32.000Z</time>
      </trkpt>
      <trkpt lat="47.41445" lon="6.70194">
        <ele>423.9</ele>
        <time>2017-02-12T09:37:33.000Z</time>
      </trkpt>
      <trkpt lat="47.41438" lon="6.70198">
        <ele>423.9</ele>
        <time>2017-02-12T09:37:34.000Z</time>
      </trkpt>
      <trkpt lat="47.41433" lon="6.70204">
        <ele>424.5</ele>
        <time>2017-02-12T09:37:35.000Z</time>
      </trkpt>
      <trkpt lat="47.41429" lon="6.70212">
        <ele>424</ele>
        <time>2017-02-12T09:37:36.000Z</time>
      </trkpt>
      <trkpt lat="47.41425" lon="6.7022">
        <ele>423.7</ele>
        <time>2017-02-12T09:37:37.000Z</time>
      </trkpt>
      <trkpt lat="47.41422" lon="6.70228">
        <ele>423.8</ele>
        <time>2017-02-12T09:37:38.000Z</time>
      </trkpt>
      <trkpt lat="47.41418" lon="6.70236">
        <ele>423.2</ele>
        <time>2017-02-12T09:37:39.000Z</time>
      </trkpt>
      <trkpt lat="47.41414" lon="6.70244">
        <ele>422.7</ele>
        <time>2017-02-12T09:37:40.000Z</time>
      </trkpt>
      <trkpt lat="47.4141" lon="6.70252">
        <ele>422.9</ele>
        <time>2017-02-12T09:37:41.000Z</time>
      </trkpt>
      <trkpt lat="47.41406" lon="6.70259">
        <ele>423.5</ele>
        <time>2017-02-12T09:37:42.000Z</time>
      </trkpt>
      <trkpt lat="47.41402" lon="6.70266">
        <ele>423.4</ele>
        <time>2017-02-12T09:37:43.000Z</time>
      </trkpt>
      <trkpt lat="47.41399" lon="6.70273">
        <ele>423.5</ele>
        <time>2017-02-12T09:37:44.000Z</time>
      </trkpt>
      <trkpt lat="47.41396" lon="6.70279">
        <ele>423.4</ele>
        <time>2017-02-12T09:37:45.000Z</time>
      </trkpt>
      <trkpt lat="47.41393" lon="6.70286">
        <ele>422.7</ele>
        <time>2017-02-12T09:37:46.000Z</time>
      </trkpt>
      <trkpt lat="47.4139" lon="6.70292">
        <ele>422.3</ele>
        <time>2017-02-12T09:37:47.000Z</time>
      </trkpt>
      <trkpt lat="47.41386" lon="6.70297">
        <ele>421.6</ele>
        <time>2017-02-12T09:37:48.000Z</time>
      </trkpt>
      <trkpt lat="47.41382" lon="6.70302">
        <ele>421.3</ele>
        <time>2017-02-12T09:37:49.000Z</time>
      </trkpt>
      <trkpt lat="47.41378" lon="6.70306">
        <ele>421.1</ele>
        <time>2017-02-12T09:37:50.000Z</time>
      </trkpt>
      <trkpt lat="47.41375" lon="6.7031">
        <ele>420.8</ele>
        <time>2017-02-12T09:37:51.000Z</time>
      </trkpt>
      <trkpt lat="47.41371" lon="6.70313">
        <ele>420.5</ele>
        <time>2017-02-12T09:37:52.000Z</time>
      </trkpt>
      <trkpt lat="47.41368" lon="6.70317">
        <ele>421</ele>
        <time>2017-02-12T09:37:53.000Z</time>
      </trkpt>
      <trkpt lat="47.41364" lon="6.7032">
        <ele>421.5</ele>
        <time>2017-02-12T09:37:54.000Z</time>
      </trkpt>
      <trkpt lat="47.41361" lon="6.70325">
        <ele>421.7</ele>
        <time>2017-02-12T09:37:55.000Z</time>
      </trkpt>
      <trkpt lat="47.41357" lon="6.70331">
        <ele>421.5</ele>
        <time>2017-02-12T09:37:56.000Z</time>
      </trkpt>
      <trkpt lat="47.41355" lon="6.70335">
        <ele>421.4</ele>
        <time>2017-02-12T09:37:57.000Z</time>
      </trkpt>
      <trkpt lat="47.41352" lon="6.7034">
        <ele>421.4</ele>
        <time>2017-02-12T09:37:58.000Z</time>
      </trkpt>
      <trkpt lat="47.4135" lon="6.70342">
        <ele>421.5</ele>
        <time>2017-02-12T09:37:59.000Z</time>
      </trkpt>
      <trkpt lat="47.41349" lon="6.70345">
        <ele>421.5</ele>
        <time>2017-02-12T09:38:00.000Z</time>
      </trkpt>
      <trkpt lat="47.41346" lon="6.70349">
        <ele>421.6</ele>
        <time>2017-02-12T09:38:02.000Z</time>
      </trkpt>
      <trkpt lat="47.41344" lon="6.70354">
        <ele>421.8</ele>
        <time>2017-02-12T09:38:03.000Z</time>
      </trkpt>
      <trkpt lat="47.41343" lon="6.70357">
        <ele>421.9</ele>
        <time>2017-02-12T09:38:04.000Z</time>
      </trkpt>
      <trkpt lat="47.41341" lon="6.7036">
        <ele>422.1</ele>
        <time>2017-02-12T09:38:05.000Z</time>
      </trkpt>
      <trkpt lat="47.41339" lon="6.70365">
        <ele>422.2</ele>
        <time>2017-02-12T09:38:06.000Z</time>
      </trkpt>
      <trkpt lat="47.41335" lon="6.70369">
        <ele>422.4</ele>
        <time>2017-02-12T09:38:07.000Z</time>
      </trkpt>
      <trkpt lat="47.41331" lon="6.70371">
        <ele>422.5</ele>
        <time>2017-02-12T09:38:08.000Z</time>
      </trkpt>
      <trkpt lat="47.41328" lon="6.70373">
        <ele>422.8</ele>
        <time>2017-02-12T09:38:09.000Z</time>
      </trkpt>
      <trkpt lat="47.41325" lon="6.70377">
        <ele>423.5</ele>
        <time>2017-02-12T09:38:12.000Z</time>
      </trkpt>
      <trkpt lat="47.41323" lon="6.7038">
        <ele>423.8</ele>
        <time>2017-02-12T09:38:13.000Z</time>
      </trkpt>
      <trkpt lat="47.41321" lon="6.70382">
        <ele>424.1</ele>
        <time>2017-02-12T09:38:14.000Z</time>
      </trkpt>
      <trkpt lat="47.41318" lon="6.70385">
        <ele>424.5</ele>
        <time>2017-02-12T09:38:15.000Z</time>
      </trkpt>
      <trkpt lat="47.41314" lon="6.70388">
        <ele>424.8</ele>
        <time>2017-02-12T09:38:16.000Z</time>
      </trkpt>
      <trkpt lat="47.41311" lon="6.70391">
        <ele>425.1</ele>
        <time>2017-02-12T09:38:17.000Z</time>
      </trkpt>
      <trkpt lat="47.41307" lon="6.70394">
        <ele>425.5</ele>
        <time>2017-02-12T09:38:18.000Z</time>
      </trkpt>
      <trkpt lat="47.41303" lon="6.70397">
        <ele>425.7</ele>
        <time>2017-02-12T09:38:19.000Z</time>
      </trkpt>
      <trkpt lat="47.41296" lon="6.70402">
        <ele>425.9</ele>
        <time>2017-02-12T09:38:20.000Z</time>
      </trkpt>
      <trkpt lat="47.41293" lon="6.70403">
        <ele>426.2</ele>
        <time>2017-02-12T09:38:21.000Z</time>
      </trkpt>
      <trkpt lat="47.41289" lon="6.70406">
        <ele>426.4</ele>
        <time>2017-02-12T09:38:22.000Z</time>
      </trkpt>
      <trkpt lat="47.41287" lon="6.70408">
        <ele>426.6</ele>
        <time>2017-02-12T09:38:23.000Z</time>
      </trkpt>
      <trkpt lat="47.41284" lon="6.70412">
        <ele>426.7</ele>
        <time>2017-02-12T09:38:24.000Z</time>
      </trkpt>
      <trkpt lat="47.41281" lon="6.70417">
        <ele>427.9</ele>
        <time>2017-02-12T09:38:25.000Z</time>
      </trkpt>
      <trkpt lat="47.41279" lon="6.70419">
        <ele>428</ele>
        <time>2017-02-12T09:38:26.000Z</time>
      </trkpt>
      <trkpt lat="47.41276" lon="6.70423">
        <ele>428.2</ele>
        <time>2017-02-12T09:38:27.000Z</time>
      </trkpt>
      <trkpt lat="47.41273" lon="6.70427">
        <ele>428.4</ele>
        <time>2017-02-12T09:38:28.000Z</time>
      </trkpt>
      <trkpt lat="47.41271" lon="6.70432">
        <ele>428.6</ele>
        <time>2017-02-12T09:38:29.000Z</time>
      </trkpt>
      <trkpt lat="47.41269" lon="6.70435">
        <ele>428.8</ele>
        <time>2017-02-12T09:38:30.000Z</time>
      </trkpt>
      <trkpt lat="47.41267" lon="6.70437">
        <ele>428.9</ele>
        <time>2017-02-12T09:38:31.000Z</time>
      </trkpt>
      <trkpt lat="47.41264" lon="6.70439">
        <ele>429</ele>
        <time>2017-02-12T09:38:32.000Z</time>
      </trkpt>
      <trkpt lat="47.41262" lon="6.70443">
        <ele>429.2</ele>
        <time>2017-02-12T09:38:33.000Z</time>
      </trkpt>
      <trkpt lat="47.41259" lon="6.70448">
        <ele>429.4</ele>
        <time>2017-02-12T09:38:34.000Z</time>
      </trkpt>
      <trkpt lat="47.41256" lon="6.70452">
        <ele>429.5</ele>
        <time>2017-02-12T09:38:35.000Z</time>
      </trkpt>
      <trkpt lat="47.41254" lon="6.70457">
        <ele>429.7</ele>
        <time>2017-02-12T09:38:36.000Z</time>
      </trkpt>
      <trkpt lat="47.41251" lon="6.70461">
        <ele>429.9</ele>
        <time>2017-02-12T09:38:37.000Z</time>
      </trkpt>
      <trkpt lat="47.41248" lon="6.70464">
        <ele>430</ele>
        <time>2017-02-12T09:38:38.000Z</time>
      </trkpt>
      <trkpt lat="47.41246" lon="6.70467">
        <ele>430.2</ele>
        <time>2017-02-12T09:38:39.000Z</time>
      </trkpt>
      <trkpt lat="47.41244" lon="6.7047">
        <ele>430.3</ele>
        <time>2017-02-12T09:38:40.000Z</time>
      </trkpt>
      <trkpt lat="47.41241" lon="6.70473">
        <ele>430.5</ele>
        <time>2017-02-12T09:38:41.000Z</time>
      </trkpt>
      <trkpt lat="47.41239" lon="6.70476">
        <ele>430.6</ele>
        <time>2017-02-12T09:38:42.000Z</time>
      </trkpt>
      <trkpt lat="47.41237" lon="6.70479">
        <ele>430.6</ele>
        <time>2017-02-12T09:38:43.000Z</time>
      </trkpt>
      <trkpt lat="47.41236" lon="6.70482">
        <ele>430.7</ele>
        <time>2017-02-12T09:38:44.000Z</time>
      </trkpt>
      <trkpt lat="47.41234" lon="6.70486">
        <ele>430.8</ele>
        <time>2017-02-12T09:38:45.000Z</time>
      </trkpt>
      <trkpt lat="47.41232" lon="6.7049">
        <ele>430.8</ele>
        <time>2017-02-12T09:38:46.000Z</time>
      </trkpt>
      <trkpt lat="47.41229" lon="6.70494">
        <ele>430.9</ele>
        <time>2017-02-12T09:38:47.000Z</time>
      </trkpt>
      <trkpt lat="47.41228" lon="6.70499">
        <ele>431</ele>
        <time>2017-02-12T09:38:48.000Z</time>
      </trkpt>
      <trkpt lat="47.41225" lon="6.70503">
        <ele>431</ele>
        <time>2017-02-12T09:38:49.000Z</time>
      </trkpt>
      <trkpt lat="47.41224" lon="6.70506">
        <ele>431.1</ele>
        <time>2017-02-12T09:38:50.000Z</time>
      </trkpt>
      <trkpt lat="47.41221" lon="6.70509">
        <ele>431.1</ele>
        <time>2017-02-12T09:38:51.000Z</time>
      </trkpt>
      <trkpt lat="47.41219" lon="6.70515">
        <ele>431.3</ele>
        <time>2017-02-12T09:38:52.000Z</time>
      </trkpt>
      <trkpt lat="47.41216" lon="6.70521">
        <ele>431.4</ele>
        <time>2017-02-12T09:38:53.000Z</time>
      </trkpt>
      <trkpt lat="47.41213" lon="6.70526">
        <ele>431.5</ele>
        <time>2017-02-12T09:38:54.000Z</time>
      </trkpt>
      <trkpt lat="47.4121" lon="6.70531">
        <ele>431.6</ele>
        <time>2017-02-12T09:38:55.000Z</time>
      </trkpt>
      <trkpt lat="47.41208" lon="6.70539">
        <ele>432.8</ele>
        <time>2017-02-12T09:38:56.000Z</time>
      </trkpt>
      <trkpt lat="47.41205" lon="6.70547">
        <ele>433.6</ele>
        <time>2017-02-12T09:38:57.000Z</time>
      </trkpt>
      <trkpt lat="47.41204" lon="6.70552">
        <ele>433.7</ele>
        <time>2017-02-12T09:38:58.000Z</time>
      </trkpt>
      <trkpt lat="47.41201" lon="6.70559">
        <ele>434.7</ele>
        <time>2017-02-12T09:38:59.000Z</time>
      </trkpt>
      <trkpt lat="47.412" lon="6.70563">
        <ele>434.8</ele>
        <time>2017-02-12T09:39:00.000Z</time>
      </trkpt>
      <trkpt lat="47.41198" lon="6.70568">
        <ele>434.9</ele>
        <time>2017-02-12T09:39:01.000Z</time>
      </trkpt>
      <trkpt lat="47.41196" lon="6.70575">
        <ele>435.1</ele>
        <time>2017-02-12T09:39:02.000Z</time>
      </trkpt>
      <trkpt lat="47.41194" lon="6.70583">
        <ele>437.1</ele>
        <time>2017-02-12T09:39:03.000Z</time>
      </trkpt>
      <trkpt lat="47.41191" lon="6.70588">
        <ele>437.3</ele>
        <time>2017-02-12T09:39:04.000Z</time>
      </trkpt>
      <trkpt lat="47.41189" lon="6.70592">
        <ele>437.5</ele>
        <time>2017-02-12T09:39:05.000Z</time>
      </trkpt>
      <trkpt lat="47.41187" lon="6.70597">
        <ele>437.8</ele>
        <time>2017-02-12T09:39:06.000Z</time>
      </trkpt>
      <trkpt lat="47.41185" lon="6.70602">
        <ele>438.1</ele>
        <time>2017-02-12T09:39:07.000Z</time>
      </trkpt>
      <trkpt lat="47.41184" lon="6.70605">
        <ele>438.3</ele>
        <time>2017-02-12T09:39:08.000Z</time>
      </trkpt>
      <trkpt lat="47.41182" lon="6.70609">
        <ele>438.6</ele>
        <time>2017-02-12T09:39:09.000Z</time>
      </trkpt>
      <trkpt lat="47.4118" lon="6.70613">
        <ele>438.9</ele>
        <time>2017-02-12T09:39:10.000Z</time>
      </trkpt>
      <trkpt lat="47.41179" lon="6.70617">
        <ele>439.2</ele>
        <time>2017-02-12T09:39:11.000Z</time>
      </trkpt>
      <trkpt lat="47.41177" lon="6.70623">
        <ele>439.5</ele>
        <time>2017-02-12T09:39:12.000Z</time>
      </trkpt>
      <trkpt lat="47.41175" lon="6.70629">
        <ele>439.7</ele>
        <time>2017-02-12T09:39:13.000Z</time>
      </trkpt>
      <trkpt lat="47.41173" lon="6.70635">
        <ele>440</ele>
        <time>2017-02-12T09:39:14.000Z</time>
      </trkpt>
      <trkpt lat="47.41171" lon="6.70641">
        <ele>440.2</ele>
        <time>2017-02-12T09:39:15.000Z</time>
      </trkpt>
      <trkpt lat="47.41168" lon="6.70646">
        <ele>440.5</ele>
        <time>2017-02-12T09:39:16.000Z</time>
      </trkpt>
      <trkpt lat="47.41166" lon="6.70653">
        <ele>442.6</ele>
        <time>2017-02-12T09:39:17.000Z</time>
      </trkpt>
      <trkpt lat="47.41164" lon="6.70659">
        <ele>442.8</ele>
        <time>2017-02-12T09:39:18.000Z</time>
      </trkpt>
      <trkpt lat="47.41162" lon="6.70665">
        <ele>442.9</ele>
        <time>2017-02-12T09:39:19.000Z</time>
      </trkpt>
      <trkpt lat="47.41161" lon="6.70668">
        <ele>442.9</ele>
        <time>2017-02-12T09:39:20.000Z</time>
      </trkpt>
      <trkpt lat="47.41159" lon="6.70674">
        <ele>443.1</ele>
        <time>2017-02-12T09:39:21.000Z</time>
      </trkpt>
      <trkpt lat="47.41157" lon="6.70679">
        <ele>443.2</ele>
        <time>2017-02-12T09:39:22.000Z</time>
      </trkpt>
      <trkpt lat="47.41156" lon="6.70685">
        <ele>443.2</ele>
        <time>2017-02-12T09:39:23.000Z</time>
      </trkpt>
      <trkpt lat="47.41154" lon="6.7069">
        <ele>443.2</ele>
        <time>2017-02-12T09:39:24.000Z</time>
      </trkpt>
      <trkpt lat="47.41152" lon="6.70694">
        <ele>443.1</ele>
        <time>2017-02-12T09:39:25.000Z</time>
      </trkpt>
      <trkpt lat="47.4115" lon="6.70698">
        <ele>443</ele>
        <time>2017-02-12T09:39:26.000Z</time>
      </trkpt>
      <trkpt lat="47.41149" lon="6.70701">
        <ele>443</ele>
        <time>2017-02-12T09:39:27.000Z</time>
      </trkpt>
      <trkpt lat="47.41146" lon="6.70705">
        <ele>443</ele>
        <time>2017-02-12T09:39:28.000Z</time>
      </trkpt>
      <trkpt lat="47.41144" lon="6.7071">
        <ele>443</ele>
        <time>2017-02-12T09:39:29.000Z</time>
      </trkpt>
      <trkpt lat="47.41142" lon="6.70714">
        <ele>442.9</ele>
        <time>2017-02-12T09:39:30.000Z</time>
      </trkpt>
      <trkpt lat="47.41141" lon="6.70717">
        <ele>442.9</ele>
        <time>2017-02-12T09:39:31.000Z</time>
      </trkpt>
      <trkpt lat="47.41138" lon="6.70721">
        <ele>442.9</ele>
        <time>2017-02-12T09:39:32.000Z</time>
      </trkpt>
      <trkpt lat="47.41136" lon="6.70724">
        <ele>442.9</ele>
        <time>2017-02-12T09:39:33.000Z</time>
      </trkpt>
      <trkpt lat="47.41134" lon="6.7073">
        <ele>442.9</ele>
        <time>2017-02-12T09:39:35.000Z</time>
      </trkpt>
      <trkpt lat="47.41133" lon="6.70733">
        <ele>443</ele>
        <time>2017-02-12T09:39:36.000Z</time>
      </trkpt>
      <trkpt lat="47.4113" lon="6.70738">
        <ele>443.4</ele>
        <time>2017-02-12T09:39:38.000Z</time>
      </trkpt>
      <trkpt lat="47.41128" lon="6.70743">
        <ele>443.5</ele>
        <time>2017-02-12T09:39:39.000Z</time>
      </trkpt>
      <trkpt lat="47.41126" lon="6.70747">
        <ele>443.7</ele>
        <time>2017-02-12T09:39:40.000Z</time>
      </trkpt>
      <trkpt lat="47.41122" lon="6.70755">
        <ele>443.9</ele>
        <time>2017-02-12T09:39:41.000Z</time>
      </trkpt>
      <trkpt lat="47.4112" lon="6.70761">
        <ele>444</ele>
        <time>2017-02-12T09:39:42.000Z</time>
      </trkpt>
      <trkpt lat="47.41117" lon="6.70766">
        <ele>444.1</ele>
        <time>2017-02-12T09:39:43.000Z</time>
      </trkpt>
      <trkpt lat="47.41114" lon="6.70771">
        <ele>444.1</ele>
        <time>2017-02-12T09:39:44.000Z</time>
      </trkpt>
      <trkpt lat="47.41111" lon="6.70777">
        <ele>444.1</ele>
        <time>2017-02-12T09:39:45.000Z</time>
      </trkpt>
      <trkpt lat="47.41109" lon="6.70783">
        <ele>443.9</ele>
        <time>2017-02-12T09:39:46.000Z</time>
      </trkpt>
      <trkpt lat="47.41107" lon="6.70789">
        <ele>443.8</ele>
        <time>2017-02-12T09:39:47.000Z</time>
      </trkpt>
      <trkpt lat="47.41106" lon="6.70793">
        <ele>443.7</ele>
        <time>2017-02-12T09:39:48.000Z</time>
      </trkpt>
      <trkpt lat="47.41104" lon="6.70797">
        <ele>443.6</ele>
        <time>2017-02-12T09:39:49.000Z</time>
      </trkpt>
      <trkpt lat="47.41102" lon="6.70801">
        <ele>443.5</ele>
        <time>2017-02-12T09:39:50.000Z</time>
      </trkpt>
      <trkpt lat="47.411" lon="6.70806">
        <ele>443.3</ele>
        <time>2017-02-12T09:39:51.000Z</time>
      </trkpt>
      <trkpt lat="47.41098" lon="6.70811">
        <ele>443.2</ele>
        <time>2017-02-12T09:39:52.000Z</time>
      </trkpt>
      <trkpt lat="47.41095" lon="6.70815">
        <ele>443.1</ele>
        <time>2017-02-12T09:39:53.000Z</time>
      </trkpt>
      <trkpt lat="47.41093" lon="6.7082">
        <ele>443</ele>
        <time>2017-02-12T09:39:54.000Z</time>
      </trkpt>
      <trkpt lat="47.41091" lon="6.70826">
        <ele>443</ele>
        <time>2017-02-12T09:39:55.000Z</time>
      </trkpt>
      <trkpt lat="47.4109" lon="6.70832">
        <ele>443.1</ele>
        <time>2017-02-12T09:39:56.000Z</time>
      </trkpt>
      <trkpt lat="47.41088" lon="6.70838">
        <ele>443.3</ele>
        <time>2017-02-12T09:39:57.000Z</time>
      </trkpt>
      <trkpt lat="47.41086" lon="6.70843">
        <ele>443.5</ele>
        <time>2017-02-12T09:39:58.000Z</time>
      </trkpt>
      <trkpt lat="47.41084" lon="6.70847">
        <ele>443.5</ele>
        <time>2017-02-12T09:39:59.000Z</time>
      </trkpt>
      <trkpt lat="47.41082" lon="6.7085">
        <ele>443.5</ele>
        <time>2017-02-12T09:40:00.000Z</time>
      </trkpt>
      <trkpt lat="47.4108" lon="6.70853">
        <ele>443.6</ele>
        <time>2017-02-12T09:40:01.000Z</time>
      </trkpt>
      <trkpt lat="47.41077" lon="6.70857">
        <ele>443.6</ele>
        <time>2017-02-12T09:40:02.000Z</time>
      </trkpt>
      <trkpt lat="47.41076" lon="6.70862">
        <ele>443.7</ele>
        <time>2017-02-12T09:40:03.000Z</time>
      </trkpt>
      <trkpt lat="47.41074" lon="6.70867">
        <ele>443.8</ele>
        <time>2017-02-12T09:40:04.000Z</time>
      </trkpt>
      <trkpt lat="47.41073" lon="6.70871">
        <ele>443.9</ele>
        <time>2017-02-12T09:40:05.000Z</time>
      </trkpt>
      <trkpt lat="47.41073" lon="6.70877">
        <ele>443.9</ele>
        <time>2017-02-12T09:40:06.000Z</time>
      </trkpt>
      <trkpt lat="47.41072" lon="6.70882">
        <ele>443.9</ele>
        <time>2017-02-12T09:40:07.000Z</time>
      </trkpt>
      <trkpt lat="47.41071" lon="6.70886">
        <ele>444</ele>
        <time>2017-02-12T09:40:08.000Z</time>
      </trkpt>
      <trkpt lat="47.4107" lon="6.70891">
        <ele>444</ele>
        <time>2017-02-12T09:40:09.000Z</time>
      </trkpt>
      <trkpt lat="47.41069" lon="6.70897">
        <ele>444.1</ele>
        <time>2017-02-12T09:40:10.000Z</time>
      </trkpt>
      <trkpt lat="47.41069" lon="6.70903">
        <ele>444.2</ele>
        <time>2017-02-12T09:40:11.000Z</time>
      </trkpt>
      <trkpt lat="47.41068" lon="6.70908">
        <ele>444.4</ele>
        <time>2017-02-12T09:40:12.000Z</time>
      </trkpt>
      <trkpt lat="47.41068" lon="6.70913">
        <ele>444.5</ele>
        <time>2017-02-12T09:40:13.000Z</time>
      </trkpt>
      <trkpt lat="47.41067" lon="6.70918">
        <ele>444.5</ele>
        <time>2017-02-12T09:40:14.000Z</time>
      </trkpt>
      <trkpt lat="47.41067" lon="6.70922">
        <ele>444.6</ele>
        <time>2017-02-12T09:40:15.000Z</time>
      </trkpt>
      <trkpt lat="47.41066" lon="6.70925">
        <ele>444.7</ele>
        <time>2017-02-12T09:40:16.000Z</time>
      </trkpt>
      <trkpt lat="47.41066" lon="6.70929">
        <ele>444.8</ele>
        <time>2017-02-12T09:40:17.000Z</time>
      </trkpt>
      <trkpt lat="47.41066" lon="6.70934">
        <ele>445</ele>
        <time>2017-02-12T09:40:18.000Z</time>
      </trkpt>
      <trkpt lat="47.41066" lon="6.70939">
        <ele>445.1</ele>
        <time>2017-02-12T09:40:19.000Z</time>
      </trkpt>
      <trkpt lat="47.41066" lon="6.70943">
        <ele>445.1</ele>
        <time>2017-02-12T09:40:20.000Z</time>
      </trkpt>
      <trkpt lat="47.41065" lon="6.70946">
        <ele>445</ele>
        <time>2017-02-12T09:40:21.000Z</time>
      </trkpt>
      <trkpt lat="47.41064" lon="6.70952">
        <ele>445</ele>
        <time>2017-02-12T09:40:23.000Z</time>
      </trkpt>
      <trkpt lat="47.41064" lon="6.70955">
        <ele>445</ele>
        <time>2017-02-12T09:40:24.000Z</time>
      </trkpt>
      <trkpt lat="47.41061" lon="6.7096">
        <ele>445.2</ele>
        <time>2017-02-12T09:40:26.000Z</time>
      </trkpt>
      <trkpt lat="47.4106" lon="6.70963">
        <ele>445.2</ele>
        <time>2017-02-12T09:40:27.000Z</time>
      </trkpt>
      <trkpt lat="47.41059" lon="6.70969">
        <ele>445.3</ele>
        <time>2017-02-12T09:40:29.000Z</time>
      </trkpt>
      <trkpt lat="47.41058" lon="6.70972">
        <ele>445.5</ele>
        <time>2017-02-12T09:40:30.000Z</time>
      </trkpt>
      <trkpt lat="47.41057" lon="6.70976">
        <ele>445.7</ele>
        <time>2017-02-12T09:40:31.000Z</time>
      </trkpt>
      <trkpt lat="47.41056" lon="6.70979">
        <ele>445.9</ele>
        <time>2017-02-12T09:40:32.000Z</time>
      </trkpt>
      <trkpt lat="47.41055" lon="6.70985">
        <ele>446.2</ele>
        <time>2017-02-12T09:40:34.000Z</time>
      </trkpt>
      <trkpt lat="47.41055" lon="6.70987">
        <ele>446.3</ele>
        <time>2017-02-12T09:40:35.000Z</time>
      </trkpt>
      <trkpt lat="47.41054" lon="6.70993">
        <ele>446.6</ele>
        <time>2017-02-12T09:40:36.999Z</time>
      </trkpt>
      <trkpt lat="47.41053" lon="6.70996">
        <ele>446.8</ele>
        <time>2017-02-12T09:40:37.999Z</time>
      </trkpt>
      <trkpt lat="47.41051" lon="6.71">
        <ele>446.9</ele>
        <time>2017-02-12T09:40:38.999Z</time>
      </trkpt>
      <trkpt lat="47.4105" lon="6.71004">
        <ele>447.1</ele>
        <time>2017-02-12T09:40:39.999Z</time>
      </trkpt>
      <trkpt lat="47.41049" lon="6.71008">
        <ele>447.3</ele>
        <time>2017-02-12T09:40:40.999Z</time>
      </trkpt>
      <trkpt lat="47.41048" lon="6.71011">
        <ele>447.4</ele>
        <time>2017-02-12T09:40:41.999Z</time>
      </trkpt>
      <trkpt lat="47.41047" lon="6.71015">
        <ele>447.4</ele>
        <time>2017-02-12T09:40:42.999Z</time>
      </trkpt>
      <trkpt lat="47.41046" lon="6.71018">
        <ele>447.5</ele>
        <time>2017-02-12T09:40:43.999Z</time>
      </trkpt>
      <trkpt lat="47.41044" lon="6.71022">
        <ele>447.5</ele>
        <time>2017-02-12T09:40:44.999Z</time>
      </trkpt>
      <trkpt lat="47.41043" lon="6.71024">
        <ele>447.6</ele>
        <time>2017-02-12T09:40:45.999Z</time>
      </trkpt>
      <trkpt lat="47.41042" lon="6.71027">
        <ele>447.6</ele>
        <time>2017-02-12T09:40:46.999Z</time>
      </trkpt>
      <trkpt lat="47.41041" lon="6.71031">
        <ele>447.7</ele>
        <time>2017-02-12T09:40:47.999Z</time>
      </trkpt>
      <trkpt lat="47.4104" lon="6.71035">
        <ele>447.7</ele>
        <time>2017-02-12T09:40:48.999Z</time>
      </trkpt>
      <trkpt lat="47.41038" lon="6.7104">
        <ele>447.7</ele>
        <time>2017-02-12T09:40:49.999Z</time>
      </trkpt>
      <trkpt lat="47.41037" lon="6.71045">
        <ele>447.7</ele>
        <time>2017-02-12T09:40:50.999Z</time>
      </trkpt>
      <trkpt lat="47.41036" lon="6.7105">
        <ele>447.6</ele>
        <time>2017-02-12T09:40:51.999Z</time>
      </trkpt>
      <trkpt lat="47.41035" lon="6.71055">
        <ele>447.5</ele>
        <time>2017-02-12T09:40:52.999Z</time>
      </trkpt>
      <trkpt lat="47.41034" lon="6.71059">
        <ele>447.4</ele>
        <time>2017-02-12T09:40:53.999Z</time>
      </trkpt>
      <trkpt lat="47.41033" lon="6.71063">
        <ele>447.3</ele>
        <time>2017-02-12T09:40:54.999Z</time>
      </trkpt>
      <trkpt lat="47.41032" lon="6.71067">
        <ele>447.2</ele>
        <time>2017-02-12T09:40:55.999Z</time>
      </trkpt>
      <trkpt lat="47.41031" lon="6.71072">
        <ele>447.1</ele>
        <time>2017-02-12T09:40:56.999Z</time>
      </trkpt>
      <trkpt lat="47.4103" lon="6.71076">
        <ele>447</ele>
        <time>2017-02-12T09:40:57.999Z</time>
      </trkpt>
      <trkpt lat="47.41029" lon="6.7108">
        <ele>447</ele>
        <time>2017-02-12T09:40:58.999Z</time>
      </trkpt>
      <trkpt lat="47.41028" lon="6.71084">
        <ele>446.9</ele>
        <time>2017-02-12T09:40:59.999Z</time>
      </trkpt>
      <trkpt lat="47.41026" lon="6.71089">
        <ele>446.8</ele>
        <time>2017-02-12T09:41:00.999Z</time>
      </trkpt>
      <trkpt lat="47.41025" lon="6.71094">
        <ele>446.8</ele>
        <time>2017-02-12T09:41:01.999Z</time>
      </trkpt>
      <trkpt lat="47.41024" lon="6.71099">
        <ele>446.7</ele>
        <time>2017-02-12T09:41:02.999Z</time>
      </trkpt>
      <trkpt lat="47.41022" lon="6.71105">
        <ele>446.6</ele>
        <time>2017-02-12T09:41:03.999Z</time>
      </trkpt>
      <trkpt lat="47.41021" lon="6.71111">
        <ele>446.7</ele>
        <time>2017-02-12T09:41:04.999Z</time>
      </trkpt>
      <trkpt lat="47.4102" lon="6.71116">
        <ele>446.5</ele>
        <time>2017-02-12T09:41:05.999Z</time>
      </trkpt>
      <trkpt lat="47.41018" lon="6.71122">
        <ele>446.4</ele>
        <time>2017-02-12T09:41:06.999Z</time>
      </trkpt>
      <trkpt lat="47.41017" lon="6.71129">
        <ele>446.1</ele>
        <time>2017-02-12T09:41:07.999Z</time>
      </trkpt>
      <trkpt lat="47.41016" lon="6.71135">
        <ele>446.1</ele>
        <time>2017-02-12T09:41:08.999Z</time>
      </trkpt>
      <trkpt lat="47.41015" lon="6.71141">
        <ele>446.1</ele>
        <time>2017-02-12T09:41:09.999Z</time>
      </trkpt>
      <trkpt lat="47.41014" lon="6.71147">
        <ele>446.3</ele>
        <time>2017-02-12T09:41:10.999Z</time>
      </trkpt>
      <trkpt lat="47.41013" lon="6.71152">
        <ele>446.4</ele>
        <time>2017-02-12T09:41:11.999Z</time>
      </trkpt>
      <trkpt lat="47.41012" lon="6.71158">
        <ele>446.4</ele>
        <time>2017-02-12T09:41:12.999Z</time>
      </trkpt>
      <trkpt lat="47.41011" lon="6.71163">
        <ele>446.7</ele>
        <time>2017-02-12T09:41:13.999Z</time>
      </trkpt>
      <trkpt lat="47.41009" lon="6.71169">
        <ele>446.7</ele>
        <time>2017-02-12T09:41:14.999Z</time>
      </trkpt>
      <trkpt lat="47.41008" lon="6.71174">
        <ele>446.5</ele>
        <time>2017-02-12T09:41:15.999Z</time>
      </trkpt>
      <trkpt lat="47.41007" lon="6.71179">
        <ele>446.6</ele>
        <time>2017-02-12T09:41:16.999Z</time>
      </trkpt>
      <trkpt lat="47.41006" lon="6.71184">
        <ele>446.6</ele>
        <time>2017-02-12T09:41:17.999Z</time>
      </trkpt>
      <trkpt lat="47.41005" lon="6.71189">
        <ele>446.7</ele>
        <time>2017-02-12T09:41:18.999Z</time>
      </trkpt>
      <trkpt lat="47.41004" lon="6.71194">
        <ele>446.7</ele>
        <time>2017-02-12T09:41:19.999Z</time>
      </trkpt>
      <trkpt lat="47.41003" lon="6.712">
        <ele>446.8</ele>
        <time>2017-02-12T09:41:20.999Z</time>
      </trkpt>
      <trkpt lat="47.41003" lon="6.71205">
        <ele>446.8</ele>
        <time>2017-02-12T09:41:21.999Z</time>
      </trkpt>
      <trkpt lat="47.41002" lon="6.7121">
        <ele>446.9</ele>
        <time>2017-02-12T09:41:22.999Z</time>
      </trkpt>
      <trkpt lat="47.41" lon="6.71217">
        <ele>447</ele>
        <time>2017-02-12T09:41:23.999Z</time>
      </trkpt>
      <trkpt lat="47.40999" lon="6.71222">
        <ele>447.1</ele>
        <time>2017-02-12T09:41:24.999Z</time>
      </trkpt>
      <trkpt lat="47.40997" lon="6.71226">
        <ele>447.2</ele>
        <time>2017-02-12T09:41:25.999Z</time>
      </trkpt>
      <trkpt lat="47.40996" lon="6.71228">
        <ele>447.3</ele>
        <time>2017-02-12T09:41:26.999Z</time>
      </trkpt>
      <trkpt lat="47.40995" lon="6.71233">
        <ele>447.5</ele>
        <time>2017-02-12T09:41:27.999Z</time>
      </trkpt>
      <trkpt lat="47.40994" lon="6.71237">
        <ele>447.7</ele>
        <time>2017-02-12T09:41:28.999Z</time>
      </trkpt>
      <trkpt lat="47.40993" lon="6.71244">
        <ele>447.8</ele>
        <time>2017-02-12T09:41:29.999Z</time>
      </trkpt>
      <trkpt lat="47.40992" lon="6.71249">
        <ele>447.9</ele>
        <time>2017-02-12T09:41:30.999Z</time>
      </trkpt>
      <trkpt lat="47.4099" lon="6.71254">
        <ele>448.1</ele>
        <time>2017-02-12T09:41:31.999Z</time>
      </trkpt>
      <trkpt lat="47.40989" lon="6.71258">
        <ele>448.2</ele>
        <time>2017-02-12T09:41:32.999Z</time>
      </trkpt>
      <trkpt lat="47.40988" lon="6.71261">
        <ele>448.2</ele>
        <time>2017-02-12T09:41:33.999Z</time>
      </trkpt>
      <trkpt lat="47.40986" lon="6.71265">
        <ele>448.3</ele>
        <time>2017-02-12T09:41:34.999Z</time>
      </trkpt>
      <trkpt lat="47.40985" lon="6.71271">
        <ele>448</ele>
        <time>2017-02-12T09:41:35.999Z</time>
      </trkpt>
      <trkpt lat="47.40984" lon="6.71276">
        <ele>447.9</ele>
        <time>2017-02-12T09:41:36.999Z</time>
      </trkpt>
      <trkpt lat="47.40981" lon="6.71284">
        <ele>447.8</ele>
        <time>2017-02-12T09:41:37.999Z</time>
      </trkpt>
      <trkpt lat="47.40979" lon="6.71289">
        <ele>447.7</ele>
        <time>2017-02-12T09:41:38.999Z</time>
      </trkpt>
      <trkpt lat="47.40978" lon="6.71293">
        <ele>447.6</ele>
        <time>2017-02-12T09:41:39.999Z</time>
      </trkpt>
      <trkpt lat="47.40977" lon="6.71297">
        <ele>447.5</ele>
        <time>2017-02-12T09:41:40.999Z</time>
      </trkpt>
      <trkpt lat="47.40977" lon="6.71301">
        <ele>447.4</ele>
        <time>2017-02-12T09:41:41.999Z</time>
      </trkpt>
      <trkpt lat="47.40975" lon="6.71305">
        <ele>447.3</ele>
        <time>2017-02-12T09:41:42.999Z</time>
      </trkpt>
      <trkpt lat="47.40974" lon="6.71309">
        <ele>447.3</ele>
        <time>2017-02-12T09:41:43.999Z</time>
      </trkpt>
      <trkpt lat="47.40972" lon="6.71314">
        <ele>447.2</ele>
        <time>2017-02-12T09:41:44.999Z</time>
      </trkpt>
      <trkpt lat="47.40971" lon="6.71318">
        <ele>447.1</ele>
        <time>2017-02-12T09:41:45.999Z</time>
      </trkpt>
      <trkpt lat="47.4097" lon="6.71321">
        <ele>447</ele>
        <time>2017-02-12T09:41:46.999Z</time>
      </trkpt>
      <trkpt lat="47.40969" lon="6.71325">
        <ele>447</ele>
        <time>2017-02-12T09:41:47.999Z</time>
      </trkpt>
      <trkpt lat="47.40969" lon="6.71329">
        <ele>447</ele>
        <time>2017-02-12T09:41:48.999Z</time>
      </trkpt>
      <trkpt lat="47.40968" lon="6.71333">
        <ele>447.1</ele>
        <time>2017-02-12T09:41:49.999Z</time>
      </trkpt>
      <trkpt lat="47.40968" lon="6.71336">
        <ele>447.2</ele>
        <time>2017-02-12T09:41:50.999Z</time>
      </trkpt>
      <trkpt lat="47.40968" lon="6.71342">
        <ele>447.3</ele>
        <time>2017-02-12T09:41:51.999Z</time>
      </trkpt>
      <trkpt lat="47.40968" lon="6.71347">
        <ele>448</ele>
        <time>2017-02-12T09:41:54.999Z</time>
      </trkpt>
      <trkpt lat="47.40967" lon="6.7135">
        <ele>448.3</ele>
        <time>2017-02-12T09:41:55.999Z</time>
      </trkpt>
      <trkpt lat="47.40967" lon="6.71353">
        <ele>448.7</ele>
        <time>2017-02-12T09:41:56.999Z</time>
      </trkpt>
      <trkpt lat="47.40967" lon="6.71357">
        <ele>449.1</ele>
        <time>2017-02-12T09:41:57.999Z</time>
      </trkpt>
      <trkpt lat="47.40967" lon="6.71361">
        <ele>449.3</ele>
        <time>2017-02-12T09:41:58.999Z</time>
      </trkpt>
      <trkpt lat="47.40967" lon="6.71365">
        <ele>449.5</ele>
        <time>2017-02-12T09:41:59.999Z</time>
      </trkpt>
      <trkpt lat="47.40967" lon="6.71369">
        <ele>449.7</ele>
        <time>2017-02-12T09:42:00.999Z</time>
      </trkpt>
      <trkpt lat="47.40967" lon="6.71373">
        <ele>449.9</ele>
        <time>2017-02-12T09:42:01.999Z</time>
      </trkpt>
      <trkpt lat="47.40967" lon="6.71376">
        <ele>450.1</ele>
        <time>2017-02-12T09:42:02.999Z</time>
      </trkpt>
      <trkpt lat="47.40965" lon="6.71379">
        <ele>450.2</ele>
        <time>2017-02-12T09:42:03.999Z</time>
      </trkpt>
      <trkpt lat="47.40964" lon="6.71384">
        <ele>450.4</ele>
        <time>2017-02-12T09:42:05.999Z</time>
      </trkpt>
      <trkpt lat="47.40964" lon="6.71388">
        <ele>450.5</ele>
        <time>2017-02-12T09:42:06.999Z</time>
      </trkpt>
      <trkpt lat="47.40964" lon="6.71393">
        <ele>450.7</ele>
        <time>2017-02-12T09:42:07.999Z</time>
      </trkpt>
      <trkpt lat="47.40965" lon="6.71398">
        <ele>451</ele>
        <time>2017-02-12T09:42:08.999Z</time>
      </trkpt>
      <trkpt lat="47.40965" lon="6.71403">
        <ele>451.2</ele>
        <time>2017-02-12T09:42:09.999Z</time>
      </trkpt>
      <trkpt lat="47.40965" lon="6.71407">
        <ele>451.5</ele>
        <time>2017-02-12T09:42:10.999Z</time>
      </trkpt>
      <trkpt lat="47.40966" lon="6.71411">
        <ele>451.7</ele>
        <time>2017-02-12T09:42:11.999Z</time>
      </trkpt>
      <trkpt lat="47.40966" lon="6.71416">
        <ele>451.9</ele>
        <time>2017-02-12T09:42:12.999Z</time>
      </trkpt>
      <trkpt lat="47.40966" lon="6.71421">
        <ele>452.1</ele>
        <time>2017-02-12T09:42:13.999Z</time>
      </trkpt>
      <trkpt lat="47.40966" lon="6.71426">
        <ele>452.3</ele>
        <time>2017-02-12T09:42:14.999Z</time>
      </trkpt>
      <trkpt lat="47.40966" lon="6.71431">
        <ele>452.5</ele>
        <time>2017-02-12T09:42:15.999Z</time>
      </trkpt>
      <trkpt lat="47.40966" lon="6.71435">
        <ele>452.7</ele>
        <time>2017-02-12T09:42:16.999Z</time>
      </trkpt>
      <trkpt lat="47.40966" lon="6.7144">
        <ele>452.8</ele>
        <time>2017-02-12T09:42:17.999Z</time>
      </trkpt>
      <trkpt lat="47.40966" lon="6.71445">
        <ele>453</ele>
        <time>2017-02-12T09:42:18.999Z</time>
      </trkpt>
      <trkpt lat="47.40966" lon="6.7145">
        <ele>453.1</ele>
        <time>2017-02-12T09:42:19.999Z</time>
      </trkpt>
      <trkpt lat="47.40966" lon="6.71454">
        <ele>453.2</ele>
        <time>2017-02-12T09:42:20.999Z</time>
      </trkpt>
      <trkpt lat="47.40966" lon="6.71457">
        <ele>453.3</ele>
        <time>2017-02-12T09:42:21.999Z</time>
      </trkpt>
      <trkpt lat="47.40966" lon="6.71461">
        <ele>453.4</ele>
        <time>2017-02-12T09:42:22.999Z</time>
      </trkpt>
      <trkpt lat="47.40966" lon="6.71466">
        <ele>453.5</ele>
        <time>2017-02-12T09:42:23.999Z</time>
      </trkpt>
      <trkpt lat="47.40966" lon="6.71471">
        <ele>453.6</ele>
        <time>2017-02-12T09:42:24.999Z</time>
      </trkpt>
      <trkpt lat="47.40966" lon="6.71477">
        <ele>453.7</ele>
        <time>2017-02-12T09:42:25.999Z</time>
      </trkpt>
      <trkpt lat="47.40967" lon="6.71482">
        <ele>453.8</ele>
        <time>2017-02-12T09:42:26.999Z</time>
      </trkpt>
      <trkpt lat="47.40968" lon="6.71486">
        <ele>454</ele>
        <time>2017-02-12T09:42:27.999Z</time>
      </trkpt>
      <trkpt lat="47.40969" lon="6.7149">
        <ele>454.2</ele>
        <time>2017-02-12T09:42:28.999Z</time>
      </trkpt>
      <trkpt lat="47.40971" lon="6.71494">
        <ele>454.3</ele>
        <time>2017-02-12T09:42:29.999Z</time>
      </trkpt>
      <trkpt lat="47.40972" lon="6.71497">
        <ele>454.5</ele>
        <time>2017-02-12T09:42:30.999Z</time>
      </trkpt>
      <trkpt lat="47.40973" lon="6.71502">
        <ele>454.8</ele>
        <time>2017-02-12T09:42:31.999Z</time>
      </trkpt>
      <trkpt lat="47.40973" lon="6.71506">
        <ele>455.1</ele>
        <time>2017-02-12T09:42:32.999Z</time>
      </trkpt>
      <trkpt lat="47.40974" lon="6.71512">
        <ele>455.4</ele>
        <time>2017-02-12T09:42:33.999Z</time>
      </trkpt>
      <trkpt lat="47.40974" lon="6.71517">
        <ele>455.7</ele>
        <time>2017-02-12T09:42:34.999Z</time>
      </trkpt>
      <trkpt lat="47.40974" lon="6.71521">
        <ele>456</ele>
        <time>2017-02-12T09:42:35.999Z</time>
      </trkpt>
      <trkpt lat="47.40973" lon="6.71525">
        <ele>456.3</ele>
        <time>2017-02-12T09:42:36.999Z</time>
      </trkpt>
      <trkpt lat="47.40972" lon="6.71531">
        <ele>456.7</ele>
        <time>2017-02-12T09:42:37.999Z</time>
      </trkpt>
      <trkpt lat="47.40971" lon="6.71537">
        <ele>457.1</ele>
        <time>2017-02-12T09:42:38.999Z</time>
      </trkpt>
      <trkpt lat="47.40969" lon="6.7154">
        <ele>457.5</ele>
        <time>2017-02-12T09:42:39.999Z</time>
      </trkpt>
      <trkpt lat="47.40967" lon="6.71542">
        <ele>457.9</ele>
        <time>2017-02-12T09:42:40.999Z</time>
      </trkpt>
      <trkpt lat="47.40966" lon="6.71547">
        <ele>458.3</ele>
        <time>2017-02-12T09:42:41.999Z</time>
      </trkpt>
      <trkpt lat="47.40965" lon="6.71553">
        <ele>458.6</ele>
        <time>2017-02-12T09:42:42.999Z</time>
      </trkpt>
      <trkpt lat="47.40964" lon="6.71558">
        <ele>458.9</ele>
        <time>2017-02-12T09:42:43.999Z</time>
      </trkpt>
      <trkpt lat="47.40963" lon="6.71563">
        <ele>459.1</ele>
        <time>2017-02-12T09:42:44.999Z</time>
      </trkpt>
      <trkpt lat="47.40962" lon="6.71568">
        <ele>459.4</ele>
        <time>2017-02-12T09:42:45.999Z</time>
      </trkpt>
      <trkpt lat="47.4096" lon="6.71572">
        <ele>459.5</ele>
        <time>2017-02-12T09:42:46.999Z</time>
      </trkpt>
      <trkpt lat="47.40957" lon="6.71576">
        <ele>459.6</ele>
        <time>2017-02-12T09:42:47.999Z</time>
      </trkpt>
      <trkpt lat="47.40955" lon="6.71581">
        <ele>459.6</ele>
        <time>2017-02-12T09:42:48.999Z</time>
      </trkpt>
      <trkpt lat="47.40953" lon="6.71585">
        <ele>459.6</ele>
        <time>2017-02-12T09:42:49.999Z</time>
      </trkpt>
      <trkpt lat="47.40952" lon="6.71589">
        <ele>459.7</ele>
        <time>2017-02-12T09:42:50.999Z</time>
      </trkpt>
      <trkpt lat="47.40951" lon="6.71592">
        <ele>459.7</ele>
        <time>2017-02-12T09:42:51.999Z</time>
      </trkpt>
      <trkpt lat="47.4095" lon="6.71596">
        <ele>459.7</ele>
        <time>2017-02-12T09:42:52.999Z</time>
      </trkpt>
      <trkpt lat="47.40949" lon="6.71601">
        <ele>459.8</ele>
        <time>2017-02-12T09:42:53.999Z</time>
      </trkpt>
      <trkpt lat="47.40948" lon="6.71605">
        <ele>459.8</ele>
        <time>2017-02-12T09:42:54.999Z</time>
      </trkpt>
      <trkpt lat="47.40946" lon="6.7161">
        <ele>459.9</ele>
        <time>2017-02-12T09:42:55.999Z</time>
      </trkpt>
      <trkpt lat="47.40944" lon="6.71615">
        <ele>460</ele>
        <time>2017-02-12T09:42:56.999Z</time>
      </trkpt>
      <trkpt lat="47.40942" lon="6.7162">
        <ele>460.1</ele>
        <time>2017-02-12T09:42:57.999Z</time>
      </trkpt>
      <trkpt lat="47.40941" lon="6.71623">
        <ele>460.2</ele>
        <time>2017-02-12T09:42:58.999Z</time>
      </trkpt>
      <trkpt lat="47.40941" lon="6.71626">
        <ele>460.2</ele>
        <time>2017-02-12T09:42:59.999Z</time>
      </trkpt>
      <trkpt lat="47.40939" lon="6.7163">
        <ele>460.3</ele>
        <time>2017-02-12T09:43:00.999Z</time>
      </trkpt>
      <trkpt lat="47.40937" lon="6.71633">
        <ele>460.5</ele>
        <time>2017-02-12T09:43:01.999Z</time>
      </trkpt>
      <trkpt lat="47.40935" lon="6.71637">
        <ele>460.6</ele>
        <time>2017-02-12T09:43:02.999Z</time>
      </trkpt>
      <trkpt lat="47.40933" lon="6.7164">
        <ele>460.8</ele>
        <time>2017-02-12T09:43:03.999Z</time>
      </trkpt>
      <trkpt lat="47.40932" lon="6.71643">
        <ele>460.9</ele>
        <time>2017-02-12T09:43:04.999Z</time>
      </trkpt>
      <trkpt lat="47.4093" lon="6.71646">
        <ele>461.2</ele>
        <time>2017-02-12T09:43:05.999Z</time>
      </trkpt>
      <trkpt lat="47.40928" lon="6.71648">
        <ele>461.4</ele>
        <time>2017-02-12T09:43:06.999Z</time>
      </trkpt>
      <trkpt lat="47.40926" lon="6.71651">
        <ele>461.6</ele>
        <time>2017-02-12T09:43:07.999Z</time>
      </trkpt>
      <trkpt lat="47.40925" lon="6.71655">
        <ele>461.7</ele>
        <time>2017-02-12T09:43:08.999Z</time>
      </trkpt>
      <trkpt lat="47.40922" lon="6.71657">
        <ele>461.9</ele>
        <time>2017-02-12T09:43:09.999Z</time>
      </trkpt>
      <trkpt lat="47.40921" lon="6.7166">
        <ele>462</ele>
        <time>2017-02-12T09:43:10.999Z</time>
      </trkpt>
      <trkpt lat="47.4092" lon="6.71667">
        <ele>462.3</ele>
        <time>2017-02-12T09:43:12.999Z</time>
      </trkpt>
      <trkpt lat="47.40919" lon="6.71669">
        <ele>462.5</ele>
        <time>2017-02-12T09:43:13.999Z</time>
      </trkpt>
      <trkpt lat="47.40916" lon="6.71673">
        <ele>463.1</ele>
        <time>2017-02-12T09:43:15.999Z</time>
      </trkpt>
      <trkpt lat="47.40913" lon="6.71678">
        <ele>463.3</ele>
        <time>2017-02-12T09:43:16.999Z</time>
      </trkpt>
      <trkpt lat="47.40907" lon="6.71683">
        <ele>463.5</ele>
        <time>2017-02-12T09:43:17.999Z</time>
      </trkpt>
      <trkpt lat="47.40901" lon="6.71688">
        <ele>463.7</ele>
        <time>2017-02-12T09:43:18.999Z</time>
      </trkpt>
      <trkpt lat="47.40898" lon="6.71693">
        <ele>463.9</ele>
        <time>2017-02-12T09:43:19.999Z</time>
      </trkpt>
      <trkpt lat="47.40894" lon="6.71697">
        <ele>464.1</ele>
        <time>2017-02-12T09:43:20.999Z</time>
      </trkpt>
      <trkpt lat="47.40892" lon="6.71701">
        <ele>464.3</ele>
        <time>2017-02-12T09:43:21.999Z</time>
      </trkpt>
      <trkpt lat="47.4089" lon="6.71704">
        <ele>464.4</ele>
        <time>2017-02-12T09:43:22.999Z</time>
      </trkpt>
      <trkpt lat="47.40889" lon="6.71707">
        <ele>464.5</ele>
        <time>2017-02-12T09:43:23.999Z</time>
      </trkpt>
      <trkpt lat="47.40887" lon="6.71712">
        <ele>464.5</ele>
        <time>2017-02-12T09:43:24.999Z</time>
      </trkpt>
      <trkpt lat="47.40884" lon="6.71716">
        <ele>464.5</ele>
        <time>2017-02-12T09:43:25.999Z</time>
      </trkpt>
      <trkpt lat="47.40883" lon="6.71721">
        <ele>464.4</ele>
        <time>2017-02-12T09:43:26.999Z</time>
      </trkpt>
      <trkpt lat="47.40881" lon="6.71726">
        <ele>464.3</ele>
        <time>2017-02-12T09:43:27.999Z</time>
      </trkpt>
      <trkpt lat="47.40879" lon="6.71732">
        <ele>464.2</ele>
        <time>2017-02-12T09:43:28.999Z</time>
      </trkpt>
      <trkpt lat="47.40877" lon="6.7174">
        <ele>464</ele>
        <time>2017-02-12T09:43:29.999Z</time>
      </trkpt>
      <trkpt lat="47.40876" lon="6.71744">
        <ele>464</ele>
        <time>2017-02-12T09:43:30.999Z</time>
      </trkpt>
      <trkpt lat="47.40875" lon="6.71749">
        <ele>463.9</ele>
        <time>2017-02-12T09:43:31.999Z</time>
      </trkpt>
      <trkpt lat="47.40873" lon="6.71755">
        <ele>463.8</ele>
        <time>2017-02-12T09:43:32.999Z</time>
      </trkpt>
      <trkpt lat="47.40872" lon="6.71759">
        <ele>463.6</ele>
        <time>2017-02-12T09:43:33.999Z</time>
      </trkpt>
      <trkpt lat="47.4087" lon="6.71765">
        <ele>463.3</ele>
        <time>2017-02-12T09:43:35.999Z</time>
      </trkpt>
      <trkpt lat="47.40868" lon="6.71768">
        <ele>463.3</ele>
        <time>2017-02-12T09:43:36.999Z</time>
      </trkpt>
      <trkpt lat="47.40866" lon="6.71771">
        <ele>463.2</ele>
        <time>2017-02-12T09:43:37.999Z</time>
      </trkpt>
      <trkpt lat="47.40865" lon="6.71775">
        <ele>463.2</ele>
        <time>2017-02-12T09:43:38.999Z</time>
      </trkpt>
      <trkpt lat="47.40863" lon="6.71778">
        <ele>463.1</ele>
        <time>2017-02-12T09:43:40.999Z</time>
      </trkpt>
      <trkpt lat="47.40862" lon="6.7178">
        <ele>463.2</ele>
        <time>2017-02-12T09:43:41.999Z</time>
      </trkpt>
      <trkpt lat="47.4086" lon="6.71783">
        <ele>463.2</ele>
        <time>2017-02-12T09:43:42.999Z</time>
      </trkpt>
      <trkpt lat="47.40858" lon="6.71787">
        <ele>463.2</ele>
        <time>2017-02-12T09:43:43.999Z</time>
      </trkpt>
      <trkpt lat="47.40855" lon="6.71792">
        <ele>463.2</ele>
        <time>2017-02-12T09:43:44.999Z</time>
      </trkpt>
      <trkpt lat="47.40853" lon="6.71796">
        <ele>463.2</ele>
        <time>2017-02-12T09:43:45.999Z</time>
      </trkpt>
      <trkpt lat="47.4085" lon="6.718">
        <ele>463.2</ele>
        <time>2017-02-12T09:43:46.999Z</time>
      </trkpt>
      <trkpt lat="47.40847" lon="6.71803">
        <ele>463.2</ele>
        <time>2017-02-12T09:43:47.999Z</time>
      </trkpt>
      <trkpt lat="47.40846" lon="6.71807">
        <ele>463.1</ele>
        <time>2017-02-12T09:43:48.999Z</time>
      </trkpt>
      <trkpt lat="47.40845" lon="6.71811">
        <ele>463.1</ele>
        <time>2017-02-12T09:43:49.999Z</time>
      </trkpt>
      <trkpt lat="47.40843" lon="6.71814">
        <ele>463.1</ele>
        <time>2017-02-12T09:43:50.999Z</time>
      </trkpt>
      <trkpt lat="47.40841" lon="6.71817">
        <ele>463.1</ele>
        <time>2017-02-12T09:43:51.999Z</time>
      </trkpt>
      <trkpt lat="47.40838" lon="6.7182">
        <ele>463.2</ele>
        <time>2017-02-12T09:43:52.999Z</time>
      </trkpt>
      <trkpt lat="47.40836" lon="6.71824">
        <ele>463.2</ele>
        <time>2017-02-12T09:43:53.999Z</time>
      </trkpt>
      <trkpt lat="47.40834" lon="6.71829">
        <ele>463.3</ele>
        <time>2017-02-12T09:43:54.999Z</time>
      </trkpt>
      <trkpt lat="47.40832" lon="6.71834">
        <ele>463.3</ele>
        <time>2017-02-12T09:43:55.999Z</time>
      </trkpt>
      <trkpt lat="47.4083" lon="6.71837">
        <ele>463.3</ele>
        <time>2017-02-12T09:43:56.999Z</time>
      </trkpt>
      <trkpt lat="47.40828" lon="6.7184">
        <ele>463.3</ele>
        <time>2017-02-12T09:43:57.999Z</time>
      </trkpt>
      <trkpt lat="47.40827" lon="6.71845">
        <ele>463.3</ele>
        <time>2017-02-12T09:43:58.999Z</time>
      </trkpt>
      <trkpt lat="47.40827" lon="6.71849">
        <ele>463.2</ele>
        <time>2017-02-12T09:43:59.999Z</time>
      </trkpt>
      <trkpt lat="47.40825" lon="6.71852">
        <ele>463.2</ele>
        <time>2017-02-12T09:44:00.999Z</time>
      </trkpt>
      <trkpt lat="47.40823" lon="6.71855">
        <ele>463.2</ele>
        <time>2017-02-12T09:44:01.999Z</time>
      </trkpt>
      <trkpt lat="47.40821" lon="6.71857">
        <ele>463.2</ele>
        <time>2017-02-12T09:44:02.999Z</time>
      </trkpt>
      <trkpt lat="47.40819" lon="6.71862">
        <ele>463.1</ele>
        <time>2017-02-12T09:44:03.999Z</time>
      </trkpt>
      <trkpt lat="47.40817" lon="6.71866">
        <ele>463.1</ele>
        <time>2017-02-12T09:44:04.999Z</time>
      </trkpt>
      <trkpt lat="47.40815" lon="6.71868">
        <ele>463</ele>
        <time>2017-02-12T09:44:05.999Z</time>
      </trkpt>
      <trkpt lat="47.40813" lon="6.71871">
        <ele>463.1</ele>
        <time>2017-02-12T09:44:06.999Z</time>
      </trkpt>
      <trkpt lat="47.40812" lon="6.71874">
        <ele>463</ele>
        <time>2017-02-12T09:44:07.999Z</time>
      </trkpt>
      <trkpt lat="47.40809" lon="6.71877">
        <ele>463.1</ele>
        <time>2017-02-12T09:44:08.999Z</time>
      </trkpt>
      <trkpt lat="47.40807" lon="6.7188">
        <ele>463</ele>
        <time>2017-02-12T09:44:09.999Z</time>
      </trkpt>
      <trkpt lat="47.40804" lon="6.71882">
        <ele>463.1</ele>
        <time>2017-02-12T09:44:10.999Z</time>
      </trkpt>
      <trkpt lat="47.40802" lon="6.71884">
        <ele>463.2</ele>
        <time>2017-02-12T09:44:11.999Z</time>
      </trkpt>
      <trkpt lat="47.408" lon="6.71889">
        <ele>463.2</ele>
        <time>2017-02-12T09:44:13.999Z</time>
      </trkpt>
      <trkpt lat="47.40798" lon="6.71893">
        <ele>463.1</ele>
        <time>2017-02-12T09:44:14.999Z</time>
      </trkpt>
      <trkpt lat="47.40794" lon="6.71897">
        <ele>463.1</ele>
        <time>2017-02-12T09:44:16.999Z</time>
      </trkpt>
      <trkpt lat="47.40793" lon="6.71899">
        <ele>463.1</ele>
        <time>2017-02-12T09:44:17.999Z</time>
      </trkpt>
      <trkpt lat="47.4079" lon="6.71901">
        <ele>463.2</ele>
        <time>2017-02-12T09:44:18.999Z</time>
      </trkpt>
      <trkpt lat="47.40788" lon="6.71906">
        <ele>463.2</ele>
        <time>2017-02-12T09:44:19.999Z</time>
      </trkpt>
      <trkpt lat="47.40785" lon="6.71909">
        <ele>463.2</ele>
        <time>2017-02-12T09:44:20.999Z</time>
      </trkpt>
      <trkpt lat="47.40782" lon="6.71914">
        <ele>463.2</ele>
        <time>2017-02-12T09:44:21.999Z</time>
      </trkpt>
      <trkpt lat="47.40777" lon="6.71916">
        <ele>463.1</ele>
        <time>2017-02-12T09:44:22.999Z</time>
      </trkpt>
      <trkpt lat="47.40774" lon="6.71918">
        <ele>463.1</ele>
        <time>2017-02-12T09:44:23.999Z</time>
      </trkpt>
      <trkpt lat="47.40772" lon="6.71921">
        <ele>463.1</ele>
        <time>2017-02-12T09:44:24.999Z</time>
      </trkpt>
      <trkpt lat="47.4077" lon="6.71924">
        <ele>463</ele>
        <time>2017-02-12T09:44:25.999Z</time>
      </trkpt>
      <trkpt lat="47.40767" lon="6.71927">
        <ele>463</ele>
        <time>2017-02-12T09:44:26.999Z</time>
      </trkpt>
      <trkpt lat="47.40765" lon="6.71931">
        <ele>462.9</ele>
        <time>2017-02-12T09:44:27.999Z</time>
      </trkpt>
      <trkpt lat="47.40764" lon="6.71934">
        <ele>462.9</ele>
        <time>2017-02-12T09:44:28.999Z</time>
      </trkpt>
      <trkpt lat="47.40761" lon="6.71937">
        <ele>462.9</ele>
        <time>2017-02-12T09:44:29.999Z</time>
      </trkpt>
      <trkpt lat="47.40759" lon="6.7194">
        <ele>462.9</ele>
        <time>2017-02-12T09:44:30.999Z</time>
      </trkpt>
      <trkpt lat="47.40756" lon="6.71943">
        <ele>462.9</ele>
        <time>2017-02-12T09:44:31.999Z</time>
      </trkpt>
      <trkpt lat="47.40754" lon="6.71947">
        <ele>462.9</ele>
        <time>2017-02-12T09:44:32.999Z</time>
      </trkpt>
      <trkpt lat="47.40751" lon="6.71949">
        <ele>462.9</ele>
        <time>2017-02-12T09:44:34.999Z</time>
      </trkpt>
      <trkpt lat="47.40749" lon="6.71951">
        <ele>462.9</ele>
        <time>2017-02-12T09:44:35.999Z</time>
      </trkpt>
      <trkpt lat="47.40747" lon="6.71952">
        <ele>463.1</ele>
        <time>2017-02-12T09:44:37.999Z</time>
      </trkpt>
      <trkpt lat="47.40745" lon="6.71954">
        <ele>463.2</ele>
        <time>2017-02-12T09:44:38.999Z</time>
      </trkpt>
      <trkpt lat="47.40742" lon="6.71958">
        <ele>463.3</ele>
        <time>2017-02-12T09:44:40.999Z</time>
      </trkpt>
      <trkpt lat="47.40741" lon="6.7196">
        <ele>463.3</ele>
        <time>2017-02-12T09:44:41.999Z</time>
      </trkpt>
      <trkpt lat="47.40739" lon="6.71964">
        <ele>463.2</ele>
        <time>2017-02-12T09:44:43.999Z</time>
      </trkpt>
      <trkpt lat="47.40738" lon="6.71966">
        <ele>463.2</ele>
        <time>2017-02-12T09:44:44.999Z</time>
      </trkpt>
      <trkpt lat="47.40735" lon="6.7197">
        <ele>463.2</ele>
        <time>2017-02-12T09:44:46.999Z</time>
      </trkpt>
      <trkpt lat="47.40734" lon="6.71972">
        <ele>463.2</ele>
        <time>2017-02-12T09:44:47.999Z</time>
      </trkpt>
      <trkpt lat="47.40733" lon="6.71975">
        <ele>463.3</ele>
        <time>2017-02-12T09:44:49.999Z</time>
      </trkpt>
      <trkpt lat="47.40732" lon="6.71977">
        <ele>463.4</ele>
        <time>2017-02-12T09:44:50.999Z</time>
      </trkpt>
      <trkpt lat="47.40729" lon="6.71982">
        <ele>463.4</ele>
        <time>2017-02-12T09:44:52.999Z</time>
      </trkpt>
      <trkpt lat="47.40727" lon="6.71986">
        <ele>463.3</ele>
        <time>2017-02-12T09:44:53.999Z</time>
      </trkpt>
      <trkpt lat="47.40725" lon="6.71988">
        <ele>463.2</ele>
        <time>2017-02-12T09:44:54.999Z</time>
      </trkpt>
      <trkpt lat="47.40723" lon="6.71989">
        <ele>463.1</ele>
        <time>2017-02-12T09:44:55.999Z</time>
      </trkpt>
      <trkpt lat="47.4072" lon="6.71992">
        <ele>462.9</ele>
        <time>2017-02-12T09:44:57.999Z</time>
      </trkpt>
      <trkpt lat="47.40718" lon="6.71994">
        <ele>462.9</ele>
        <time>2017-02-12T09:44:58.999Z</time>
      </trkpt>
      <trkpt lat="47.40716" lon="6.71996">
        <ele>462.9</ele>
        <time>2017-02-12T09:44:59.999Z</time>
      </trkpt>
      <trkpt lat="47.40714" lon="6.71998">
        <ele>462.9</ele>
        <time>2017-02-12T09:45:00.999Z</time>
      </trkpt>
      <trkpt lat="47.4071" lon="6.72">
        <ele>463</ele>
        <time>2017-02-12T09:45:03.999Z</time>
      </trkpt>
      <trkpt lat="47.40709" lon="6.72003">
        <ele>463.1</ele>
        <time>2017-02-12T09:45:04.999Z</time>
      </trkpt>
      <trkpt lat="47.40707" lon="6.72006">
        <ele>463.1</ele>
        <time>2017-02-12T09:45:05.999Z</time>
      </trkpt>
      <trkpt lat="47.40705" lon="6.72011">
        <ele>463.1</ele>
        <time>2017-02-12T09:45:06.999Z</time>
      </trkpt>
      <trkpt lat="47.40703" lon="6.72016">
        <ele>463</ele>
        <time>2017-02-12T09:45:07.999Z</time>
      </trkpt>
      <trkpt lat="47.407" lon="6.72018">
        <ele>463</ele>
        <time>2017-02-12T09:45:08.999Z</time>
      </trkpt>
      <trkpt lat="47.40697" lon="6.72019">
        <ele>463</ele>
        <time>2017-02-12T09:45:09.999Z</time>
      </trkpt>
      <trkpt lat="47.40695" lon="6.7202">
        <ele>463</ele>
        <time>2017-02-12T09:45:10.999Z</time>
      </trkpt>
      <trkpt lat="47.40692" lon="6.72023">
        <ele>463.1</ele>
        <time>2017-02-12T09:45:13.999Z</time>
      </trkpt>
      <trkpt lat="47.4069" lon="6.72025">
        <ele>463.2</ele>
        <time>2017-02-12T09:45:14.999Z</time>
      </trkpt>
      <trkpt lat="47.40688" lon="6.72028">
        <ele>463.5</ele>
        <time>2017-02-12T09:45:16.999Z</time>
      </trkpt>
      <trkpt lat="47.40687" lon="6.72029">
        <ele>463.6</ele>
        <time>2017-02-12T09:45:17.999Z</time>
      </trkpt>
      <trkpt lat="47.40684" lon="6.72034">
        <ele>464.4</ele>
        <time>2017-02-12T09:45:22.999Z</time>
      </trkpt>
      <trkpt lat="47.40682" lon="6.72038">
        <ele>464.6</ele>
        <time>2017-02-12T09:45:23.999Z</time>
      </trkpt>
      <trkpt lat="47.40679" lon="6.72042">
        <ele>464.7</ele>
        <time>2017-02-12T09:45:26.999Z</time>
      </trkpt>
      <trkpt lat="47.40678" lon="6.72043">
        <ele>464.7</ele>
        <time>2017-02-12T09:45:27.999Z</time>
      </trkpt>
      <trkpt lat="47.40676" lon="6.72049">
        <ele>464.7</ele>
        <time>2017-02-12T09:45:30.999Z</time>
      </trkpt>
      <trkpt lat="47.40676" lon="6.72051">
        <ele>464.7</ele>
        <time>2017-02-12T09:45:31.999Z</time>
      </trkpt>
      <trkpt lat="47.40674" lon="6.72054">
        <ele>464.6</ele>
        <time>2017-02-12T09:45:33.999Z</time>
      </trkpt>
      <trkpt lat="47.40675" lon="6.72058">
        <ele>464.6</ele>
        <time>2017-02-12T09:45:34.999Z</time>
      </trkpt>
      <trkpt lat="47.40674" lon="6.72062">
        <ele>464.5</ele>
        <time>2017-02-12T09:45:38.999Z</time>
      </trkpt>
      <trkpt lat="47.40673" lon="6.72065">
        <ele>464.6</ele>
        <time>2017-02-12T09:45:39.999Z</time>
      </trkpt>
      <trkpt lat="47.40672" lon="6.72068">
        <ele>464.7</ele>
        <time>2017-02-12T09:45:40.999Z</time>
      </trkpt>
      <trkpt lat="47.40671" lon="6.72071">
        <ele>464.8</ele>
        <time>2017-02-12T09:45:41.999Z</time>
      </trkpt>
      <trkpt lat="47.40669" lon="6.72075">
        <ele>464.9</ele>
        <time>2017-02-12T09:45:43.999Z</time>
      </trkpt>
      <trkpt lat="47.40667" lon="6.72078">
        <ele>464.9</ele>
        <time>2017-02-12T09:45:44.999Z</time>
      </trkpt>
      <trkpt lat="47.40666" lon="6.72082">
        <ele>465</ele>
        <time>2017-02-12T09:45:45.999Z</time>
      </trkpt>
      <trkpt lat="47.40664" lon="6.72087">
        <ele>465</ele>
        <time>2017-02-12T09:45:46.999Z</time>
      </trkpt>
      <trkpt lat="47.40663" lon="6.72091">
        <ele>464.9</ele>
        <time>2017-02-12T09:45:48.999Z</time>
      </trkpt>
      <trkpt lat="47.40662" lon="6.72093">
        <ele>464.9</ele>
        <time>2017-02-12T09:45:49.999Z</time>
      </trkpt>
      <trkpt lat="47.40661" lon="6.72097">
        <ele>465</ele>
        <time>2017-02-12T09:45:50.999Z</time>
      </trkpt>
      <trkpt lat="47.4066" lon="6.72102">
        <ele>465.1</ele>
        <time>2017-02-12T09:45:51.999Z</time>
      </trkpt>
      <trkpt lat="47.40659" lon="6.72106">
        <ele>465.2</ele>
        <time>2017-02-12T09:45:52.999Z</time>
      </trkpt>
      <trkpt lat="47.40659" lon="6.72111">
        <ele>465.3</ele>
        <time>2017-02-12T09:45:53.999Z</time>
      </trkpt>
      <trkpt lat="47.40658" lon="6.72115">
        <ele>465.3</ele>
        <time>2017-02-12T09:45:54.999Z</time>
      </trkpt>
      <trkpt lat="47.40657" lon="6.72119">
        <ele>465.4</ele>
        <time>2017-02-12T09:45:55.999Z</time>
      </trkpt>
      <trkpt lat="47.40657" lon="6.72125">
        <ele>465.6</ele>
        <time>2017-02-12T09:45:57.999Z</time>
      </trkpt>
      <trkpt lat="47.40656" lon="6.72127">
        <ele>465.7</ele>
        <time>2017-02-12T09:45:58.999Z</time>
      </trkpt>
      <trkpt lat="47.40655" lon="6.7213">
        <ele>465.9</ele>
        <time>2017-02-12T09:45:59.999Z</time>
      </trkpt>
      <trkpt lat="47.40655" lon="6.72135">
        <ele>466.2</ele>
        <time>2017-02-12T09:46:00.999Z</time>
      </trkpt>
      <trkpt lat="47.40655" lon="6.72139">
        <ele>466.4</ele>
        <time>2017-02-12T09:46:01.999Z</time>
      </trkpt>
      <trkpt lat="47.40654" lon="6.72141">
        <ele>466.7</ele>
        <time>2017-02-12T09:46:02.999Z</time>
      </trkpt>
      <trkpt lat="47.40652" lon="6.72147">
        <ele>467</ele>
        <time>2017-02-12T09:46:04.999Z</time>
      </trkpt>
      <trkpt lat="47.40652" lon="6.72149">
        <ele>467.3</ele>
        <time>2017-02-12T09:46:05.999Z</time>
      </trkpt>
      <trkpt lat="47.4065" lon="6.72154">
        <ele>467.9</ele>
        <time>2017-02-12T09:46:07.999Z</time>
      </trkpt>
      <trkpt lat="47.40648" lon="6.72157">
        <ele>468.2</ele>
        <time>2017-02-12T09:46:08.999Z</time>
      </trkpt>
      <trkpt lat="47.40646" lon="6.72162">
        <ele>468.7</ele>
        <time>2017-02-12T09:46:10.999Z</time>
      </trkpt>
      <trkpt lat="47.40646" lon="6.72167">
        <ele>469.1</ele>
        <time>2017-02-12T09:46:11.999Z</time>
      </trkpt>
      <trkpt lat="47.40644" lon="6.72172">
        <ele>469.9</ele>
        <time>2017-02-12T09:46:13.999Z</time>
      </trkpt>
      <trkpt lat="47.40644" lon="6.72174">
        <ele>470.2</ele>
        <time>2017-02-12T09:46:14.999Z</time>
      </trkpt>
      <trkpt lat="47.40643" lon="6.7218">
        <ele>471</ele>
        <time>2017-02-12T09:46:16.999Z</time>
      </trkpt>
      <trkpt lat="47.40642" lon="6.72182">
        <ele>471.3</ele>
        <time>2017-02-12T09:46:17.999Z</time>
      </trkpt>
      <trkpt lat="47.40642" lon="6.72186">
        <ele>471.6</ele>
        <time>2017-02-12T09:46:18.999Z</time>
      </trkpt>
      <trkpt lat="47.40641" lon="6.72191">
        <ele>472</ele>
        <time>2017-02-12T09:46:19.999Z</time>
      </trkpt>
      <trkpt lat="47.40641" lon="6.72196">
        <ele>472.4</ele>
        <time>2017-02-12T09:46:20.999Z</time>
      </trkpt>
      <trkpt lat="47.40642" lon="6.72199">
        <ele>472.8</ele>
        <time>2017-02-12T09:46:21.999Z</time>
      </trkpt>
      <trkpt lat="47.4064" lon="6.72204">
        <ele>473.6</ele>
        <time>2017-02-12T09:46:23.999Z</time>
      </trkpt>
      <trkpt lat="47.40639" lon="6.7221">
        <ele>474</ele>
        <time>2017-02-12T09:46:24.999Z</time>
      </trkpt>
      <trkpt lat="47.40639" lon="6.72214">
        <ele>474.5</ele>
        <time>2017-02-12T09:46:25.999Z</time>
      </trkpt>
      <trkpt lat="47.40638" lon="6.72217">
        <ele>475</ele>
        <time>2017-02-12T09:46:26.999Z</time>
      </trkpt>
      <trkpt lat="47.40637" lon="6.72221">
        <ele>475.5</ele>
        <time>2017-02-12T09:46:27.999Z</time>
      </trkpt>
      <trkpt lat="47.40637" lon="6.72226">
        <ele>476</ele>
        <time>2017-02-12T09:46:28.999Z</time>
      </trkpt>
      <trkpt lat="47.40635" lon="6.72229">
        <ele>476.3</ele>
        <time>2017-02-12T09:46:29.999Z</time>
      </trkpt>
      <trkpt lat="47.40634" lon="6.72233">
        <ele>476.7</ele>
        <time>2017-02-12T09:46:30.999Z</time>
      </trkpt>
      <trkpt lat="47.40632" lon="6.72235">
        <ele>477</ele>
        <time>2017-02-12T09:46:31.999Z</time>
      </trkpt>
      <trkpt lat="47.4063" lon="6.72238">
        <ele>477.3</ele>
        <time>2017-02-12T09:46:32.999Z</time>
      </trkpt>
      <trkpt lat="47.4063" lon="6.72241">
        <ele>477.5</ele>
        <time>2017-02-12T09:46:33.999Z</time>
      </trkpt>
      <trkpt lat="47.40629" lon="6.72245">
        <ele>477.8</ele>
        <time>2017-02-12T09:46:34.999Z</time>
      </trkpt>
      <trkpt lat="47.40627" lon="6.72249">
        <ele>478</ele>
        <time>2017-02-12T09:46:35.999Z</time>
      </trkpt>
      <trkpt lat="47.40626" lon="6.72254">
        <ele>478.2</ele>
        <time>2017-02-12T09:46:36.999Z</time>
      </trkpt>
      <trkpt lat="47.40626" lon="6.72259">
        <ele>478.5</ele>
        <time>2017-02-12T09:46:37.999Z</time>
      </trkpt>
      <trkpt lat="47.40624" lon="6.72262">
        <ele>478.6</ele>
        <time>2017-02-12T09:46:38.999Z</time>
      </trkpt>
      <trkpt lat="47.40623" lon="6.72265">
        <ele>478.8</ele>
        <time>2017-02-12T09:46:39.999Z</time>
      </trkpt>
      <trkpt lat="47.40622" lon="6.72269">
        <ele>479.1</ele>
        <time>2017-02-12T09:46:40.999Z</time>
      </trkpt>
      <trkpt lat="47.40621" lon="6.72273">
        <ele>479.3</ele>
        <time>2017-02-12T09:46:41.999Z</time>
      </trkpt>
      <trkpt lat="47.40621" lon="6.72278">
        <ele>479.6</ele>
        <time>2017-02-12T09:46:42.999Z</time>
      </trkpt>
      <trkpt lat="47.40619" lon="6.72283">
        <ele>479.9</ele>
        <time>2017-02-12T09:46:43.999Z</time>
      </trkpt>
      <trkpt lat="47.40618" lon="6.72288">
        <ele>480.2</ele>
        <time>2017-02-12T09:46:44.999Z</time>
      </trkpt>
      <trkpt lat="47.40616" lon="6.72291">
        <ele>480.5</ele>
        <time>2017-02-12T09:46:45.999Z</time>
      </trkpt>
      <trkpt lat="47.40614" lon="6.72295">
        <ele>480.8</ele>
        <time>2017-02-12T09:46:46.999Z</time>
      </trkpt>
      <trkpt lat="47.40613" lon="6.723">
        <ele>481</ele>
        <time>2017-02-12T09:46:47.999Z</time>
      </trkpt>
      <trkpt lat="47.40612" lon="6.72306">
        <ele>481.2</ele>
        <time>2017-02-12T09:46:48.999Z</time>
      </trkpt>
      <trkpt lat="47.4061" lon="6.7231">
        <ele>481.4</ele>
        <time>2017-02-12T09:46:49.999Z</time>
      </trkpt>
      <trkpt lat="47.40608" lon="6.72314">
        <ele>481.5</ele>
        <time>2017-02-12T09:46:50.999Z</time>
      </trkpt>
      <trkpt lat="47.40607" lon="6.72318">
        <ele>481.6</ele>
        <time>2017-02-12T09:46:51.999Z</time>
      </trkpt>
      <trkpt lat="47.40605" lon="6.72324">
        <ele>481.7</ele>
        <time>2017-02-12T09:46:52.999Z</time>
      </trkpt>
      <trkpt lat="47.40602" lon="6.72329">
        <ele>481.8</ele>
        <time>2017-02-12T09:46:53.999Z</time>
      </trkpt>
      <trkpt lat="47.40599" lon="6.72333">
        <ele>481.9</ele>
        <time>2017-02-12T09:46:54.999Z</time>
      </trkpt>
      <trkpt lat="47.40595" lon="6.7234">
        <ele>481.9</ele>
        <time>2017-02-12T09:46:55.999Z</time>
      </trkpt>
      <trkpt lat="47.40593" lon="6.72346">
        <ele>481.9</ele>
        <time>2017-02-12T09:46:56.999Z</time>
      </trkpt>
      <trkpt lat="47.40591" lon="6.72352">
        <ele>482</ele>
        <time>2017-02-12T09:46:57.999Z</time>
      </trkpt>
      <trkpt lat="47.40587" lon="6.72358">
        <ele>482</ele>
        <time>2017-02-12T09:46:58.999Z</time>
      </trkpt>
      <trkpt lat="47.40586" lon="6.72364">
        <ele>482</ele>
        <time>2017-02-12T09:46:59.999Z</time>
      </trkpt>
      <trkpt lat="47.40584" lon="6.72367">
        <ele>482</ele>
        <time>2017-02-12T09:47:00.999Z</time>
      </trkpt>
      <trkpt lat="47.40582" lon="6.72373">
        <ele>482</ele>
        <time>2017-02-12T09:47:01.999Z</time>
      </trkpt>
      <trkpt lat="47.40582" lon="6.72376">
        <ele>482</ele>
        <time>2017-02-12T09:47:02.999Z</time>
      </trkpt>
      <trkpt lat="47.4058" lon="6.72379">
        <ele>481.9</ele>
        <time>2017-02-12T09:47:03.999Z</time>
      </trkpt>
      <trkpt lat="47.40579" lon="6.72381">
        <ele>481.9</ele>
        <time>2017-02-12T09:47:04.999Z</time>
      </trkpt>
      <trkpt lat="47.40578" lon="6.72384">
        <ele>481.9</ele>
        <time>2017-02-12T09:47:05.999Z</time>
      </trkpt>
      <trkpt lat="47.40576" lon="6.72388">
        <ele>481.8</ele>
        <time>2017-02-12T09:47:06.999Z</time>
      </trkpt>
      <trkpt lat="47.40574" lon="6.72391">
        <ele>481.8</ele>
        <time>2017-02-12T09:47:07.999Z</time>
      </trkpt>
      <trkpt lat="47.40573" lon="6.72394">
        <ele>481.8</ele>
        <time>2017-02-12T09:47:08.999Z</time>
      </trkpt>
      <trkpt lat="47.40571" lon="6.72397">
        <ele>481.8</ele>
        <time>2017-02-12T09:47:09.999Z</time>
      </trkpt>
      <trkpt lat="47.4057" lon="6.72399">
        <ele>481.9</ele>
        <time>2017-02-12T09:47:10.999Z</time>
      </trkpt>
      <trkpt lat="47.40569" lon="6.72405">
        <ele>482.4</ele>
        <time>2017-02-12T09:47:14.999Z</time>
      </trkpt>
      <trkpt lat="47.40571" lon="6.72413">
        <ele>482.5</ele>
        <time>2017-02-12T09:47:15.999Z</time>
      </trkpt>
      <trkpt lat="47.40572" lon="6.72419">
        <ele>482.6</ele>
        <time>2017-02-12T09:47:16.999Z</time>
      </trkpt>
      <trkpt lat="47.40571" lon="6.72422">
        <ele>482.8</ele>
        <time>2017-02-12T09:47:17.999Z</time>
      </trkpt>
      <trkpt lat="47.40572" lon="6.72426">
        <ele>482.9</ele>
        <time>2017-02-12T09:47:18.999Z</time>
      </trkpt>
      <trkpt lat="47.40572" lon="6.72429">
        <ele>483.2</ele>
        <time>2017-02-12T09:47:19.999Z</time>
      </trkpt>
      <trkpt lat="47.40571" lon="6.72435">
        <ele>483.6</ele>
        <time>2017-02-12T09:47:21.999Z</time>
      </trkpt>
      <trkpt lat="47.40571" lon="6.72438">
        <ele>483.9</ele>
        <time>2017-02-12T09:47:22.999Z</time>
      </trkpt>
      <trkpt lat="47.40571" lon="6.72444">
        <ele>484.9</ele>
        <time>2017-02-12T09:47:25.999Z</time>
      </trkpt>
      <trkpt lat="47.40571" lon="6.72448">
        <ele>485.2</ele>
        <time>2017-02-12T09:47:26.999Z</time>
      </trkpt>
      <trkpt lat="47.40571" lon="6.72453">
        <ele>485.9</ele>
        <time>2017-02-12T09:47:28.999Z</time>
      </trkpt>
      <trkpt lat="47.40572" lon="6.72457">
        <ele>486.3</ele>
        <time>2017-02-12T09:47:29.999Z</time>
      </trkpt>
      <trkpt lat="47.40571" lon="6.72461">
        <ele>486.6</ele>
        <time>2017-02-12T09:47:30.999Z</time>
      </trkpt>
      <trkpt lat="47.40572" lon="6.72464">
        <ele>487</ele>
        <time>2017-02-12T09:47:31.999Z</time>
      </trkpt>
      <trkpt lat="47.40571" lon="6.7247">
        <ele>488.3</ele>
        <time>2017-02-12T09:47:35.999Z</time>
      </trkpt>
      <trkpt lat="47.40571" lon="6.72472">
        <ele>488.6</ele>
        <time>2017-02-12T09:47:36.999Z</time>
      </trkpt>
      <trkpt lat="47.40571" lon="6.72474">
        <ele>489</ele>
        <time>2017-02-12T09:47:37.999Z</time>
      </trkpt>
      <trkpt lat="47.40571" lon="6.7248">
        <ele>489.5</ele>
        <time>2017-02-12T09:47:38.999Z</time>
      </trkpt>
      <trkpt lat="47.40571" lon="6.72484">
        <ele>489.8</ele>
        <time>2017-02-12T09:47:39.999Z</time>
      </trkpt>
      <trkpt lat="47.40572" lon="6.72487">
        <ele>490.2</ele>
        <time>2017-02-12T09:47:40.999Z</time>
      </trkpt>
      <trkpt lat="47.40572" lon="6.72491">
        <ele>490.5</ele>
        <time>2017-02-12T09:47:41.999Z</time>
      </trkpt>
      <trkpt lat="47.40572" lon="6.72495">
        <ele>491</ele>
        <time>2017-02-12T09:47:42.999Z</time>
      </trkpt>
      <trkpt lat="47.40571" lon="6.72499">
        <ele>491.3</ele>
        <time>2017-02-12T09:47:43.999Z</time>
      </trkpt>
      <trkpt lat="47.40572" lon="6.72502">
        <ele>491.7</ele>
        <time>2017-02-12T09:47:44.999Z</time>
      </trkpt>
      <trkpt lat="47.40572" lon="6.72507">
        <ele>492.1</ele>
        <time>2017-02-12T09:47:45.999Z</time>
      </trkpt>
      <trkpt lat="47.40573" lon="6.72511">
        <ele>492.5</ele>
        <time>2017-02-12T09:47:46.999Z</time>
      </trkpt>
      <trkpt lat="47.40573" lon="6.72515">
        <ele>492.8</ele>
        <time>2017-02-12T09:47:47.999Z</time>
      </trkpt>
      <trkpt lat="47.40573" lon="6.72518">
        <ele>493.3</ele>
        <time>2017-02-12T09:47:48.999Z</time>
      </trkpt>
      <trkpt lat="47.40573" lon="6.72522">
        <ele>493.6</ele>
        <time>2017-02-12T09:47:49.999Z</time>
      </trkpt>
      <trkpt lat="47.40573" lon="6.72525">
        <ele>493.9</ele>
        <time>2017-02-12T09:47:50.999Z</time>
      </trkpt>
      <trkpt lat="47.40572" lon="6.72531">
        <ele>494.5</ele>
        <time>2017-02-12T09:47:53.999Z</time>
      </trkpt>
      <trkpt lat="47.4057" lon="6.72534">
        <ele>494.7</ele>
        <time>2017-02-12T09:47:54.999Z</time>
      </trkpt>
      <trkpt lat="47.40569" lon="6.7254">
        <ele>495.1</ele>
        <time>2017-02-12T09:47:56.999Z</time>
      </trkpt>
      <trkpt lat="47.4057" lon="6.72542">
        <ele>495.3</ele>
        <time>2017-02-12T09:47:57.999Z</time>
      </trkpt>
      <trkpt lat="47.40571" lon="6.72545">
        <ele>495.9</ele>
        <time>2017-02-12T09:47:59.999Z</time>
      </trkpt>
      <trkpt lat="47.40571" lon="6.72549">
        <ele>496.2</ele>
        <time>2017-02-12T09:48:00.999Z</time>
      </trkpt>
      <trkpt lat="47.40572" lon="6.72554">
        <ele>496.9</ele>
        <time>2017-02-12T09:48:03.999Z</time>
      </trkpt>
      <trkpt lat="47.40572" lon="6.72557">
        <ele>497.2</ele>
        <time>2017-02-12T09:48:04.999Z</time>
      </trkpt>
      <trkpt lat="47.40571" lon="6.7256">
        <ele>497.4</ele>
        <time>2017-02-12T09:48:05.999Z</time>
      </trkpt>
      <trkpt lat="47.40572" lon="6.72564">
        <ele>497.6</ele>
        <time>2017-02-12T09:48:06.999Z</time>
      </trkpt>
      <trkpt lat="47.40572" lon="6.7257">
        <ele>498</ele>
        <time>2017-02-12T09:48:08.999Z</time>
      </trkpt>
      <trkpt lat="47.40572" lon="6.72573">
        <ele>498</ele>
        <time>2017-02-12T09:48:09.999Z</time>
      </trkpt>
      <trkpt lat="47.40573" lon="6.72578">
        <ele>498.3</ele>
        <time>2017-02-12T09:48:11.999Z</time>
      </trkpt>
      <trkpt lat="47.40573" lon="6.7258">
        <ele>498.4</ele>
        <time>2017-02-12T09:48:12.999Z</time>
      </trkpt>
      <trkpt lat="47.40574" lon="6.72584">
        <ele>498.7</ele>
        <time>2017-02-12T09:48:13.999Z</time>
      </trkpt>
      <trkpt lat="47.40575" lon="6.72587">
        <ele>499.1</ele>
        <time>2017-02-12T09:48:14.999Z</time>
      </trkpt>
      <trkpt lat="47.40576" lon="6.72593">
        <ele>499.6</ele>
        <time>2017-02-12T09:48:16.999Z</time>
      </trkpt>
      <trkpt lat="47.40575" lon="6.72597">
        <ele>499.8</ele>
        <time>2017-02-12T09:48:17.999Z</time>
      </trkpt>
      <trkpt lat="47.40576" lon="6.72602">
        <ele>500</ele>
        <time>2017-02-12T09:48:18.999Z</time>
      </trkpt>
      <trkpt lat="47.40576" lon="6.72606">
        <ele>500.1</ele>
        <time>2017-02-12T09:48:19.999Z</time>
      </trkpt>
      <trkpt lat="47.40575" lon="6.72612">
        <ele>500.6</ele>
        <time>2017-02-12T09:48:21.999Z</time>
      </trkpt>
      <trkpt lat="47.40575" lon="6.72613">
        <ele>500.8</ele>
        <time>2017-02-12T09:48:22.999Z</time>
      </trkpt>
      <trkpt lat="47.40575" lon="6.72616">
        <ele>500.9</ele>
        <time>2017-02-12T09:48:23.999Z</time>
      </trkpt>
      <trkpt lat="47.40575" lon="6.7262">
        <ele>501.1</ele>
        <time>2017-02-12T09:48:24.999Z</time>
      </trkpt>
      <trkpt lat="47.40575" lon="6.72624">
        <ele>501.2</ele>
        <time>2017-02-12T09:48:25.999Z</time>
      </trkpt>
      <trkpt lat="47.40576" lon="6.72628">
        <ele>501.4</ele>
        <time>2017-02-12T09:48:26.999Z</time>
      </trkpt>
      <trkpt lat="47.40576" lon="6.72633">
        <ele>501.4</ele>
        <time>2017-02-12T09:48:28.999Z</time>
      </trkpt>
      <trkpt lat="47.40576" lon="6.72637">
        <ele>501.3</ele>
        <time>2017-02-12T09:48:29.999Z</time>
      </trkpt>
      <trkpt lat="47.40576" lon="6.72641">
        <ele>501.3</ele>
        <time>2017-02-12T09:48:30.999Z</time>
      </trkpt>
      <trkpt lat="47.40576" lon="6.72645">
        <ele>501.2</ele>
        <time>2017-02-12T09:48:31.999Z</time>
      </trkpt>
      <trkpt lat="47.40575" lon="6.7265">
        <ele>500.8</ele>
        <time>2017-02-12T09:48:33.999Z</time>
      </trkpt>
      <trkpt lat="47.40576" lon="6.72653">
        <ele>500.6</ele>
        <time>2017-02-12T09:48:34.999Z</time>
      </trkpt>
      <trkpt lat="47.40576" lon="6.72659">
        <ele>500.3</ele>
        <time>2017-02-12T09:48:36.999Z</time>
      </trkpt>
      <trkpt lat="47.40576" lon="6.72663">
        <ele>500.1</ele>
        <time>2017-02-12T09:48:37.999Z</time>
      </trkpt>
      <trkpt lat="47.40576" lon="6.72666">
        <ele>499.9</ele>
        <time>2017-02-12T09:48:38.999Z</time>
      </trkpt>
      <trkpt lat="47.40575" lon="6.7267">
        <ele>499.7</ele>
        <time>2017-02-12T09:48:39.999Z</time>
      </trkpt>
      <trkpt lat="47.40575" lon="6.72676">
        <ele>499.4</ele>
        <time>2017-02-12T09:48:41.999Z</time>
      </trkpt>
      <trkpt lat="47.40575" lon="6.72678">
        <ele>499.3</ele>
        <time>2017-02-12T09:48:42.999Z</time>
      </trkpt>
      <trkpt lat="47.40574" lon="6.72682">
        <ele>499.2</ele>
        <time>2017-02-12T09:48:43.999Z</time>
      </trkpt>
      <trkpt lat="47.40575" lon="6.72685">
        <ele>499.1</ele>
        <time>2017-02-12T09:48:44.999Z</time>
      </trkpt>
      <trkpt lat="47.40574" lon="6.72691">
        <ele>499.1</ele>
        <time>2017-02-12T09:48:47.999Z</time>
      </trkpt>
      <trkpt lat="47.40575" lon="6.72694">
        <ele>499.1</ele>
        <time>2017-02-12T09:48:48.999Z</time>
      </trkpt>
      <trkpt lat="47.40575" lon="6.72698">
        <ele>498.9</ele>
        <time>2017-02-12T09:48:50.999Z</time>
      </trkpt>
      <trkpt lat="47.40572" lon="6.727">
        <ele>498.7</ele>
        <time>2017-02-12T09:48:51.999Z</time>
      </trkpt>
      <trkpt lat="47.40571" lon="6.72706">
        <ele>498.4</ele>
        <time>2017-02-12T09:48:54.999Z</time>
      </trkpt>
      <trkpt lat="47.40571" lon="6.72707">
        <ele>498.3</ele>
        <time>2017-02-12T09:48:55.999Z</time>
      </trkpt>
      <trkpt lat="47.4057" lon="6.72713">
        <ele>498.3</ele>
        <time>2017-02-12T09:48:58.999Z</time>
      </trkpt>
      <trkpt lat="47.40571" lon="6.72715">
        <ele>498.2</ele>
        <time>2017-02-12T09:48:59.999Z</time>
      </trkpt>
      <trkpt lat="47.40572" lon="6.72719">
        <ele>498.2</ele>
        <time>2017-02-12T09:49:00.999Z</time>
      </trkpt>
      <trkpt lat="47.40573" lon="6.7272">
        <ele>498.2</ele>
        <time>2017-02-12T09:49:01.999Z</time>
      </trkpt>
      <trkpt lat="47.40576" lon="6.72724">
        <ele>498.6</ele>
        <time>2017-02-12T09:49:08.999Z</time>
      </trkpt>
      <trkpt lat="47.40577" lon="6.72724">
        <ele>498.6</ele>
        <time>2017-02-12T09:49:09.999Z</time>
      </trkpt>
      <trkpt lat="47.40574" lon="6.72723">
        <ele>493.7</ele>
        <time>2017-02-12T09:53:15.999Z</time>
      </trkpt>
      <trkpt lat="47.40572" lon="6.72723">
        <ele>493.7</ele>
        <time>2017-02-12T09:53:16.999Z</time>
      </trkpt>
      <trkpt lat="47.40569" lon="6.72722">
        <ele>493.5</ele>
        <time>2017-02-12T09:53:18.999Z</time>
      </trkpt>
      <trkpt lat="47.40567" lon="6.72722">
        <ele>493.4</ele>
        <time>2017-02-12T09:53:19.999Z</time>
      </trkpt>
      <trkpt lat="47.40564" lon="6.72719">
        <ele>493.1</ele>
        <time>2017-02-12T09:53:21.999Z</time>
      </trkpt>
      <trkpt lat="47.40561" lon="6.72718">
        <ele>492.9</ele>
        <time>2017-02-12T09:53:22.999Z</time>
      </trkpt>
      <trkpt lat="47.40559" lon="6.72715">
        <ele>492.8</ele>
        <time>2017-02-12T09:53:23.999Z</time>
      </trkpt>
      <trkpt lat="47.40556" lon="6.72712">
        <ele>492.7</ele>
        <time>2017-02-12T09:53:24.999Z</time>
      </trkpt>
      <trkpt lat="47.40554" lon="6.72709">
        <ele>492.6</ele>
        <time>2017-02-12T09:53:25.999Z</time>
      </trkpt>
      <trkpt lat="47.40552" lon="6.72706">
        <ele>492.5</ele>
        <time>2017-02-12T09:53:26.999Z</time>
      </trkpt>
      <trkpt lat="47.4055" lon="6.72701">
        <ele>492.3</ele>
        <time>2017-02-12T09:53:28.999Z</time>
      </trkpt>
      <trkpt lat="47.40549" lon="6.72699">
        <ele>492.1</ele>
        <time>2017-02-12T09:53:29.999Z</time>
      </trkpt>
      <trkpt lat="47.40546" lon="6.72695">
        <ele>492</ele>
        <time>2017-02-12T09:53:31.999Z</time>
      </trkpt>
      <trkpt lat="47.40546" lon="6.72693">
        <ele>491.9</ele>
        <time>2017-02-12T09:53:32.999Z</time>
      </trkpt>
      <trkpt lat="47.40543" lon="6.72688">
        <ele>491.9</ele>
        <time>2017-02-12T09:53:34.999Z</time>
      </trkpt>
      <trkpt lat="47.40542" lon="6.72684">
        <ele>491.8</ele>
        <time>2017-02-12T09:53:35.999Z</time>
      </trkpt>
      <trkpt lat="47.40541" lon="6.7268">
        <ele>491.8</ele>
        <time>2017-02-12T09:53:36.999Z</time>
      </trkpt>
      <trkpt lat="47.4054" lon="6.72677">
        <ele>491.8</ele>
        <time>2017-02-12T09:53:37.999Z</time>
      </trkpt>
      <trkpt lat="47.4054" lon="6.72672">
        <ele>491.8</ele>
        <time>2017-02-12T09:53:39.999Z</time>
      </trkpt>
      <trkpt lat="47.40539" lon="6.72669">
        <ele>491.9</ele>
        <time>2017-02-12T09:53:40.999Z</time>
      </trkpt>
      <trkpt lat="47.40538" lon="6.72662">
        <ele>491.9</ele>
        <time>2017-02-12T09:53:42.999Z</time>
      </trkpt>
      <trkpt lat="47.40537" lon="6.72658">
        <ele>491.9</ele>
        <time>2017-02-12T09:53:43.999Z</time>
      </trkpt>
      <trkpt lat="47.40537" lon="6.72653">
        <ele>491.9</ele>
        <time>2017-02-12T09:53:44.999Z</time>
      </trkpt>
      <trkpt lat="47.40537" lon="6.72649">
        <ele>492</ele>
        <time>2017-02-12T09:53:45.999Z</time>
      </trkpt>
      <trkpt lat="47.40536" lon="6.72645">
        <ele>492.1</ele>
        <time>2017-02-12T09:53:46.999Z</time>
      </trkpt>
      <trkpt lat="47.40536" lon="6.72641">
        <ele>492.1</ele>
        <time>2017-02-12T09:53:47.999Z</time>
      </trkpt>
      <trkpt lat="47.40536" lon="6.72635">
        <ele>492.1</ele>
        <time>2017-02-12T09:53:48.999Z</time>
      </trkpt>
      <trkpt lat="47.40537" lon="6.72629">
        <ele>492.1</ele>
        <time>2017-02-12T09:53:49.999Z</time>
      </trkpt>
      <trkpt lat="47.40537" lon="6.72623">
        <ele>492.1</ele>
        <time>2017-02-12T09:53:50.999Z</time>
      </trkpt>
      <trkpt lat="47.40537" lon="6.72619">
        <ele>492.2</ele>
        <time>2017-02-12T09:53:51.999Z</time>
      </trkpt>
      <trkpt lat="47.40537" lon="6.72613">
        <ele>492.3</ele>
        <time>2017-02-12T09:53:52.999Z</time>
      </trkpt>
      <trkpt lat="47.40537" lon="6.72607">
        <ele>492.4</ele>
        <time>2017-02-12T09:53:53.999Z</time>
      </trkpt>
      <trkpt lat="47.40536" lon="6.72601">
        <ele>492.5</ele>
        <time>2017-02-12T09:53:54.999Z</time>
      </trkpt>
      <trkpt lat="47.40536" lon="6.72597">
        <ele>492.7</ele>
        <time>2017-02-12T09:53:55.999Z</time>
      </trkpt>
      <trkpt lat="47.40535" lon="6.72593">
        <ele>492.8</ele>
        <time>2017-02-12T09:53:56.999Z</time>
      </trkpt>
      <trkpt lat="47.40535" lon="6.72588">
        <ele>493</ele>
        <time>2017-02-12T09:53:57.999Z</time>
      </trkpt>
      <trkpt lat="47.40535" lon="6.72582">
        <ele>493.1</ele>
        <time>2017-02-12T09:53:58.999Z</time>
      </trkpt>
      <trkpt lat="47.40535" lon="6.72576">
        <ele>493.3</ele>
        <time>2017-02-12T09:53:59.999Z</time>
      </trkpt>
      <trkpt lat="47.40535" lon="6.72569">
        <ele>493.3</ele>
        <time>2017-02-12T09:54:00.999Z</time>
      </trkpt>
      <trkpt lat="47.40535" lon="6.72563">
        <ele>493.4</ele>
        <time>2017-02-12T09:54:01.999Z</time>
      </trkpt>
      <trkpt lat="47.40534" lon="6.72557">
        <ele>493.5</ele>
        <time>2017-02-12T09:54:02.999Z</time>
      </trkpt>
      <trkpt lat="47.40534" lon="6.72551">
        <ele>493.6</ele>
        <time>2017-02-12T09:54:03.999Z</time>
      </trkpt>
      <trkpt lat="47.40533" lon="6.72545">
        <ele>493.7</ele>
        <time>2017-02-12T09:54:04.999Z</time>
      </trkpt>
      <trkpt lat="47.40533" lon="6.72539">
        <ele>493.8</ele>
        <time>2017-02-12T09:54:05.999Z</time>
      </trkpt>
      <trkpt lat="47.40532" lon="6.72532">
        <ele>493.9</ele>
        <time>2017-02-12T09:54:06.999Z</time>
      </trkpt>
      <trkpt lat="47.40531" lon="6.72526">
        <ele>494</ele>
        <time>2017-02-12T09:54:07.999Z</time>
      </trkpt>
      <trkpt lat="47.4053" lon="6.72516">
        <ele>494</ele>
        <time>2017-02-12T09:54:08.999Z</time>
      </trkpt>
      <trkpt lat="47.4053" lon="6.72507">
        <ele>494</ele>
        <time>2017-02-12T09:54:09.999Z</time>
      </trkpt>
      <trkpt lat="47.40531" lon="6.725">
        <ele>494</ele>
        <time>2017-02-12T09:54:10.999Z</time>
      </trkpt>
      <trkpt lat="47.4053" lon="6.72494">
        <ele>494</ele>
        <time>2017-02-12T09:54:11.999Z</time>
      </trkpt>
      <trkpt lat="47.40529" lon="6.72487">
        <ele>493.9</ele>
        <time>2017-02-12T09:54:12.999Z</time>
      </trkpt>
      <trkpt lat="47.40527" lon="6.7248">
        <ele>493.7</ele>
        <time>2017-02-12T09:54:13.999Z</time>
      </trkpt>
      <trkpt lat="47.40524" lon="6.72474">
        <ele>493.5</ele>
        <time>2017-02-12T09:54:14.999Z</time>
      </trkpt>
      <trkpt lat="47.40523" lon="6.72469">
        <ele>493.4</ele>
        <time>2017-02-12T09:54:15.999Z</time>
      </trkpt>
      <trkpt lat="47.4052" lon="6.72465">
        <ele>493.3</ele>
        <time>2017-02-12T09:54:16.999Z</time>
      </trkpt>
      <trkpt lat="47.40518" lon="6.7246">
        <ele>493.3</ele>
        <time>2017-02-12T09:54:17.999Z</time>
      </trkpt>
      <trkpt lat="47.40517" lon="6.72456">
        <ele>493.1</ele>
        <time>2017-02-12T09:54:18.999Z</time>
      </trkpt>
      <trkpt lat="47.40516" lon="6.72453">
        <ele>493</ele>
        <time>2017-02-12T09:54:19.999Z</time>
      </trkpt>
      <trkpt lat="47.40514" lon="6.7245">
        <ele>492.9</ele>
        <time>2017-02-12T09:54:20.999Z</time>
      </trkpt>
      <trkpt lat="47.40512" lon="6.72444">
        <ele>492.6</ele>
        <time>2017-02-12T09:54:22.999Z</time>
      </trkpt>
      <trkpt lat="47.40511" lon="6.72441">
        <ele>492.5</ele>
        <time>2017-02-12T09:54:23.999Z</time>
      </trkpt>
      <trkpt lat="47.40509" lon="6.72438">
        <ele>492.4</ele>
        <time>2017-02-12T09:54:24.999Z</time>
      </trkpt>
      <trkpt lat="47.40508" lon="6.72436">
        <ele>492.3</ele>
        <time>2017-02-12T09:54:25.999Z</time>
      </trkpt>
      <trkpt lat="47.40506" lon="6.72433">
        <ele>492.2</ele>
        <time>2017-02-12T09:54:27.999Z</time>
      </trkpt>
      <trkpt lat="47.40501" lon="6.72425">
        <ele>492.1</ele>
        <time>2017-02-12T09:54:28.999Z</time>
      </trkpt>
      <trkpt lat="47.40497" lon="6.72419">
        <ele>492.1</ele>
        <time>2017-02-12T09:54:29.999Z</time>
      </trkpt>
      <trkpt lat="47.40493" lon="6.72415">
        <ele>492.1</ele>
        <time>2017-02-12T09:54:30.999Z</time>
      </trkpt>
      <trkpt lat="47.40489" lon="6.72411">
        <ele>492.2</ele>
        <time>2017-02-12T09:54:31.999Z</time>
      </trkpt>
      <trkpt lat="47.40485" lon="6.72408">
        <ele>492.2</ele>
        <time>2017-02-12T09:54:32.999Z</time>
      </trkpt>
      <trkpt lat="47.40481" lon="6.72405">
        <ele>492.3</ele>
        <time>2017-02-12T09:54:33.999Z</time>
      </trkpt>
      <trkpt lat="47.40479" lon="6.72404">
        <ele>492.3</ele>
        <time>2017-02-12T09:54:34.999Z</time>
      </trkpt>
      <trkpt lat="47.40476" lon="6.72402">
        <ele>492.4</ele>
        <time>2017-02-12T09:54:35.999Z</time>
      </trkpt>
      <trkpt lat="47.40471" lon="6.724">
        <ele>492.5</ele>
        <time>2017-02-12T09:54:36.999Z</time>
      </trkpt>
      <trkpt lat="47.40467" lon="6.72399">
        <ele>492.7</ele>
        <time>2017-02-12T09:54:37.999Z</time>
      </trkpt>
      <trkpt lat="47.40463" lon="6.72397">
        <ele>493.1</ele>
        <time>2017-02-12T09:54:38.999Z</time>
      </trkpt>
      <trkpt lat="47.40459" lon="6.72396">
        <ele>493.1</ele>
        <time>2017-02-12T09:54:39.999Z</time>
      </trkpt>
      <trkpt lat="47.40455" lon="6.72395">
        <ele>493.1</ele>
        <time>2017-02-12T09:54:40.999Z</time>
      </trkpt>
      <trkpt lat="47.40451" lon="6.72393">
        <ele>493.1</ele>
        <time>2017-02-12T09:54:41.999Z</time>
      </trkpt>
      <trkpt lat="47.40447" lon="6.72392">
        <ele>493.1</ele>
        <time>2017-02-12T09:54:42.999Z</time>
      </trkpt>
      <trkpt lat="47.40445" lon="6.72391">
        <ele>493.2</ele>
        <time>2017-02-12T09:54:43.999Z</time>
      </trkpt>
      <trkpt lat="47.4044" lon="6.7239">
        <ele>493.2</ele>
        <time>2017-02-12T09:54:44.999Z</time>
      </trkpt>
      <trkpt lat="47.40436" lon="6.72389">
        <ele>493.3</ele>
        <time>2017-02-12T09:54:45.999Z</time>
      </trkpt>
      <trkpt lat="47.40433" lon="6.72387">
        <ele>493.3</ele>
        <time>2017-02-12T09:54:46.999Z</time>
      </trkpt>
      <trkpt lat="47.4043" lon="6.72387">
        <ele>493.4</ele>
        <time>2017-02-12T09:54:47.999Z</time>
      </trkpt>
      <trkpt lat="47.40427" lon="6.72385">
        <ele>493.5</ele>
        <time>2017-02-12T09:54:48.999Z</time>
      </trkpt>
      <trkpt lat="47.40423" lon="6.72384">
        <ele>493.5</ele>
        <time>2017-02-12T09:54:49.999Z</time>
      </trkpt>
      <trkpt lat="47.4042" lon="6.72384">
        <ele>493.6</ele>
        <time>2017-02-12T09:54:50.999Z</time>
      </trkpt>
      <trkpt lat="47.40418" lon="6.72383">
        <ele>493.6</ele>
        <time>2017-02-12T09:54:51.999Z</time>
      </trkpt>
      <trkpt lat="47.40416" lon="6.72383">
        <ele>493.7</ele>
        <time>2017-02-12T09:54:52.999Z</time>
      </trkpt>
      <trkpt lat="47.40413" lon="6.72383">
        <ele>493.8</ele>
        <time>2017-02-12T09:54:53.999Z</time>
      </trkpt>
      <trkpt lat="47.4041" lon="6.72384">
        <ele>493.9</ele>
        <time>2017-02-12T09:54:54.999Z</time>
      </trkpt>
      <trkpt lat="47.40407" lon="6.72382">
        <ele>494</ele>
        <time>2017-02-12T09:54:55.999Z</time>
      </trkpt>
      <trkpt lat="47.40404" lon="6.72381">
        <ele>494</ele>
        <time>2017-02-12T09:54:56.999Z</time>
      </trkpt>
      <trkpt lat="47.40402" lon="6.72381">
        <ele>494</ele>
        <time>2017-02-12T09:54:57.999Z</time>
      </trkpt>
      <trkpt lat="47.40399" lon="6.7238">
        <ele>494.1</ele>
        <time>2017-02-12T09:54:58.999Z</time>
      </trkpt>
      <trkpt lat="47.40396" lon="6.72378">
        <ele>494.1</ele>
        <time>2017-02-12T09:54:59.999Z</time>
      </trkpt>
      <trkpt lat="47.40392" lon="6.72376">
        <ele>494.1</ele>
        <time>2017-02-12T09:55:00.999Z</time>
      </trkpt>
      <trkpt lat="47.40389" lon="6.72374">
        <ele>494.2</ele>
        <time>2017-02-12T09:55:01.999Z</time>
      </trkpt>
      <trkpt lat="47.40385" lon="6.72373">
        <ele>494.3</ele>
        <time>2017-02-12T09:55:02.999Z</time>
      </trkpt>
      <trkpt lat="47.40381" lon="6.7237">
        <ele>496.1</ele>
        <time>2017-02-12T09:55:03.999Z</time>
      </trkpt>
      <trkpt lat="47.40379" lon="6.72369">
        <ele>496.3</ele>
        <time>2017-02-12T09:55:04.999Z</time>
      </trkpt>
      <trkpt lat="47.40377" lon="6.72369">
        <ele>496.4</ele>
        <time>2017-02-12T09:55:05.999Z</time>
      </trkpt>
      <trkpt lat="47.40373" lon="6.72367">
        <ele>496.5</ele>
        <time>2017-02-12T09:55:06.999Z</time>
      </trkpt>
      <trkpt lat="47.40369" lon="6.72366">
        <ele>496.6</ele>
        <time>2017-02-12T09:55:07.999Z</time>
      </trkpt>
      <trkpt lat="47.40365" lon="6.72364">
        <ele>496.7</ele>
        <time>2017-02-12T09:55:08.999Z</time>
      </trkpt>
      <trkpt lat="47.40361" lon="6.72363">
        <ele>496.8</ele>
        <time>2017-02-12T09:55:09.999Z</time>
      </trkpt>
      <trkpt lat="47.40356" lon="6.7236">
        <ele>498.2</ele>
        <time>2017-02-12T09:55:10.999Z</time>
      </trkpt>
      <trkpt lat="47.40352" lon="6.72358">
        <ele>498.3</ele>
        <time>2017-02-12T09:55:11.999Z</time>
      </trkpt>
      <trkpt lat="47.40348" lon="6.72358">
        <ele>498.4</ele>
        <time>2017-02-12T09:55:12.999Z</time>
      </trkpt>
      <trkpt lat="47.40345" lon="6.72357">
        <ele>498.5</ele>
        <time>2017-02-12T09:55:13.999Z</time>
      </trkpt>
      <trkpt lat="47.40342" lon="6.72357">
        <ele>498.6</ele>
        <time>2017-02-12T09:55:14.999Z</time>
      </trkpt>
      <trkpt lat="47.40339" lon="6.72355">
        <ele>498.7</ele>
        <time>2017-02-12T09:55:15.999Z</time>
      </trkpt>
      <trkpt lat="47.40337" lon="6.72354">
        <ele>498.7</ele>
        <time>2017-02-12T09:55:16.999Z</time>
      </trkpt>
      <trkpt lat="47.40335" lon="6.72353">
        <ele>498.7</ele>
        <time>2017-02-12T09:55:17.999Z</time>
      </trkpt>
      <trkpt lat="47.40331" lon="6.72349">
        <ele>498.8</ele>
        <time>2017-02-12T09:55:18.999Z</time>
      </trkpt>
      <trkpt lat="47.40327" lon="6.72347">
        <ele>498.9</ele>
        <time>2017-02-12T09:55:19.999Z</time>
      </trkpt>
      <trkpt lat="47.40324" lon="6.72345">
        <ele>499</ele>
        <time>2017-02-12T09:55:20.999Z</time>
      </trkpt>
      <trkpt lat="47.4032" lon="6.72343">
        <ele>499.1</ele>
        <time>2017-02-12T09:55:21.999Z</time>
      </trkpt>
      <trkpt lat="47.40317" lon="6.72342">
        <ele>499.4</ele>
        <time>2017-02-12T09:55:22.999Z</time>
      </trkpt>
      <trkpt lat="47.40313" lon="6.72342">
        <ele>499.5</ele>
        <time>2017-02-12T09:55:23.999Z</time>
      </trkpt>
      <trkpt lat="47.4031" lon="6.72341">
        <ele>499.7</ele>
        <time>2017-02-12T09:55:24.999Z</time>
      </trkpt>
      <trkpt lat="47.40307" lon="6.72338">
        <ele>500.2</ele>
        <time>2017-02-12T09:55:26.999Z</time>
      </trkpt>
      <trkpt lat="47.40304" lon="6.72338">
        <ele>500.5</ele>
        <time>2017-02-12T09:55:27.999Z</time>
      </trkpt>
      <trkpt lat="47.40302" lon="6.72336">
        <ele>500.9</ele>
        <time>2017-02-12T09:55:28.999Z</time>
      </trkpt>
      <trkpt lat="47.403" lon="6.72334">
        <ele>501.2</ele>
        <time>2017-02-12T09:55:29.999Z</time>
      </trkpt>
      <trkpt lat="47.40296" lon="6.72331">
        <ele>502</ele>
        <time>2017-02-12T09:55:31.999Z</time>
      </trkpt>
      <trkpt lat="47.40295" lon="6.72329">
        <ele>502.3</ele>
        <time>2017-02-12T09:55:32.999Z</time>
      </trkpt>
      <trkpt lat="47.40291" lon="6.72326">
        <ele>503</ele>
        <time>2017-02-12T09:55:34.999Z</time>
      </trkpt>
      <trkpt lat="47.40289" lon="6.72325">
        <ele>503.4</ele>
        <time>2017-02-12T09:55:35.999Z</time>
      </trkpt>
      <trkpt lat="47.40287" lon="6.72323">
        <ele>503.9</ele>
        <time>2017-02-12T09:55:36.999Z</time>
      </trkpt>
      <trkpt lat="47.40284" lon="6.7232">
        <ele>504.5</ele>
        <time>2017-02-12T09:55:37.999Z</time>
      </trkpt>
      <trkpt lat="47.40281" lon="6.72318">
        <ele>505.5</ele>
        <time>2017-02-12T09:55:39.999Z</time>
      </trkpt>
      <trkpt lat="47.40279" lon="6.72316">
        <ele>506.1</ele>
        <time>2017-02-12T09:55:40.999Z</time>
      </trkpt>
      <trkpt lat="47.40277" lon="6.72313">
        <ele>506.6</ele>
        <time>2017-02-12T09:55:41.999Z</time>
      </trkpt>
      <trkpt lat="47.40276" lon="6.72311">
        <ele>507</ele>
        <time>2017-02-12T09:55:42.999Z</time>
      </trkpt>
      <trkpt lat="47.40274" lon="6.72307">
        <ele>507.8</ele>
        <time>2017-02-12T09:55:44.999Z</time>
      </trkpt>
      <trkpt lat="47.40273" lon="6.72302">
        <ele>508.1</ele>
        <time>2017-02-12T09:55:45.999Z</time>
      </trkpt>
      <trkpt lat="47.40271" lon="6.72301">
        <ele>508.5</ele>
        <time>2017-02-12T09:55:46.999Z</time>
      </trkpt>
      <trkpt lat="47.40264" lon="6.72298">
        <ele>509</ele>
        <time>2017-02-12T09:55:47.999Z</time>
      </trkpt>
      <trkpt lat="47.40259" lon="6.72294">
        <ele>509.6</ele>
        <time>2017-02-12T09:55:48.999Z</time>
      </trkpt>
      <trkpt lat="47.40255" lon="6.72292">
        <ele>510.1</ele>
        <time>2017-02-12T09:55:49.999Z</time>
      </trkpt>
      <trkpt lat="47.40251" lon="6.7229">
        <ele>510.7</ele>
        <time>2017-02-12T09:55:50.999Z</time>
      </trkpt>
      <trkpt lat="47.40249" lon="6.72288">
        <ele>511.2</ele>
        <time>2017-02-12T09:55:51.999Z</time>
      </trkpt>
      <trkpt lat="47.40246" lon="6.72288">
        <ele>511.7</ele>
        <time>2017-02-12T09:55:52.999Z</time>
      </trkpt>
      <trkpt lat="47.40242" lon="6.72284">
        <ele>512.6</ele>
        <time>2017-02-12T09:55:54.999Z</time>
      </trkpt>
      <trkpt lat="47.4024" lon="6.72282">
        <ele>513.1</ele>
        <time>2017-02-12T09:55:55.999Z</time>
      </trkpt>
      <trkpt lat="47.40238" lon="6.7228">
        <ele>513.5</ele>
        <time>2017-02-12T09:55:56.999Z</time>
      </trkpt>
      <trkpt lat="47.40235" lon="6.72279">
        <ele>513.9</ele>
        <time>2017-02-12T09:55:57.999Z</time>
      </trkpt>
      <trkpt lat="47.40232" lon="6.72276">
        <ele>514.6</ele>
        <time>2017-02-12T09:55:59.999Z</time>
      </trkpt>
      <trkpt lat="47.4023" lon="6.72274">
        <ele>514.8</ele>
        <time>2017-02-12T09:56:00.999Z</time>
      </trkpt>
      <trkpt lat="47.40226" lon="6.72272">
        <ele>515.4</ele>
        <time>2017-02-12T09:56:02.999Z</time>
      </trkpt>
      <trkpt lat="47.40224" lon="6.72271">
        <ele>515.6</ele>
        <time>2017-02-12T09:56:03.999Z</time>
      </trkpt>
      <trkpt lat="47.40221" lon="6.7227">
        <ele>515.8</ele>
        <time>2017-02-12T09:56:04.999Z</time>
      </trkpt>
      <trkpt lat="47.40219" lon="6.72269">
        <ele>516</ele>
        <time>2017-02-12T09:56:05.999Z</time>
      </trkpt>
      <trkpt lat="47.40216" lon="6.72267">
        <ele>516.2</ele>
        <time>2017-02-12T09:56:06.999Z</time>
      </trkpt>
      <trkpt lat="47.40213" lon="6.72266">
        <ele>516.4</ele>
        <time>2017-02-12T09:56:07.999Z</time>
      </trkpt>
      <trkpt lat="47.4021" lon="6.72266">
        <ele>516.6</ele>
        <time>2017-02-12T09:56:08.999Z</time>
      </trkpt>
      <trkpt lat="47.40208" lon="6.72266">
        <ele>516.9</ele>
        <time>2017-02-12T09:56:09.999Z</time>
      </trkpt>
      <trkpt lat="47.40204" lon="6.72266">
        <ele>517.4</ele>
        <time>2017-02-12T09:56:11.999Z</time>
      </trkpt>
      <trkpt lat="47.40202" lon="6.72266">
        <ele>517.8</ele>
        <time>2017-02-12T09:56:12.999Z</time>
      </trkpt>
      <trkpt lat="47.40198" lon="6.72266">
        <ele>518.7</ele>
        <time>2017-02-12T09:56:15.999Z</time>
      </trkpt>
      <trkpt lat="47.40197" lon="6.72266">
        <ele>519</ele>
        <time>2017-02-12T09:56:16.999Z</time>
      </trkpt>
      <trkpt lat="47.40195" lon="6.72265">
        <ele>519.3</ele>
        <time>2017-02-12T09:56:17.999Z</time>
      </trkpt>
      <trkpt lat="47.40193" lon="6.72264">
        <ele>519.6</ele>
        <time>2017-02-12T09:56:18.999Z</time>
      </trkpt>
      <trkpt lat="47.4019" lon="6.72263">
        <ele>520.1</ele>
        <time>2017-02-12T09:56:19.999Z</time>
      </trkpt>
      <trkpt lat="47.40188" lon="6.72263">
        <ele>520.5</ele>
        <time>2017-02-12T09:56:20.999Z</time>
      </trkpt>
      <trkpt lat="47.40186" lon="6.72262">
        <ele>521</ele>
        <time>2017-02-12T09:56:21.999Z</time>
      </trkpt>
      <trkpt lat="47.40183" lon="6.72262">
        <ele>521.4</ele>
        <time>2017-02-12T09:56:22.999Z</time>
      </trkpt>
      <trkpt lat="47.40181" lon="6.72262">
        <ele>521.8</ele>
        <time>2017-02-12T09:56:23.999Z</time>
      </trkpt>
      <trkpt lat="47.40177" lon="6.72261">
        <ele>522.3</ele>
        <time>2017-02-12T09:56:24.999Z</time>
      </trkpt>
      <trkpt lat="47.40173" lon="6.72261">
        <ele>522.7</ele>
        <time>2017-02-12T09:56:25.999Z</time>
      </trkpt>
      <trkpt lat="47.4017" lon="6.72262">
        <ele>523</ele>
        <time>2017-02-12T09:56:26.999Z</time>
      </trkpt>
      <trkpt lat="47.40168" lon="6.72263">
        <ele>523.2</ele>
        <time>2017-02-12T09:56:27.999Z</time>
      </trkpt>
      <trkpt lat="47.40165" lon="6.72263">
        <ele>523.3</ele>
        <time>2017-02-12T09:56:28.999Z</time>
      </trkpt>
      <trkpt lat="47.40162" lon="6.72263">
        <ele>523.5</ele>
        <time>2017-02-12T09:56:29.999Z</time>
      </trkpt>
      <trkpt lat="47.40159" lon="6.72263">
        <ele>523.6</ele>
        <time>2017-02-12T09:56:30.999Z</time>
      </trkpt>
      <trkpt lat="47.40156" lon="6.72264">
        <ele>523.8</ele>
        <time>2017-02-12T09:56:31.999Z</time>
      </trkpt>
      <trkpt lat="47.40152" lon="6.72263">
        <ele>523.9</ele>
        <time>2017-02-12T09:56:32.999Z</time>
      </trkpt>
      <trkpt lat="47.40149" lon="6.72263">
        <ele>524.1</ele>
        <time>2017-02-12T09:56:33.999Z</time>
      </trkpt>
      <trkpt lat="47.40147" lon="6.72264">
        <ele>524.2</ele>
        <time>2017-02-12T09:56:34.999Z</time>
      </trkpt>
      <trkpt lat="47.40143" lon="6.72265">
        <ele>524.4</ele>
        <time>2017-02-12T09:56:36.999Z</time>
      </trkpt>
      <trkpt lat="47.40141" lon="6.72266">
        <ele>524.6</ele>
        <time>2017-02-12T09:56:37.999Z</time>
      </trkpt>
      <trkpt lat="47.40138" lon="6.72267">
        <ele>525</ele>
        <time>2017-02-12T09:56:39.999Z</time>
      </trkpt>
      <trkpt lat="47.40136" lon="6.72267">
        <ele>525.2</ele>
        <time>2017-02-12T09:56:40.999Z</time>
      </trkpt>
      <trkpt lat="47.40132" lon="6.72265">
        <ele>525.2</ele>
        <time>2017-02-12T09:56:44.999Z</time>
      </trkpt>
      <trkpt lat="47.40131" lon="6.72265">
        <ele>525.2</ele>
        <time>2017-02-12T09:56:45.999Z</time>
      </trkpt>
      <trkpt lat="47.40127" lon="6.72265">
        <ele>525.1</ele>
        <time>2017-02-12T09:56:48.999Z</time>
      </trkpt>
      <trkpt lat="47.40125" lon="6.72264">
        <ele>525</ele>
        <time>2017-02-12T09:56:49.999Z</time>
      </trkpt>
      <trkpt lat="47.40121" lon="6.72263">
        <ele>524.9</ele>
        <time>2017-02-12T09:56:51.999Z</time>
      </trkpt>
      <trkpt lat="47.40118" lon="6.72262">
        <ele>525</ele>
        <time>2017-02-12T09:56:52.999Z</time>
      </trkpt>
      <trkpt lat="47.40116" lon="6.72261">
        <ele>524.9</ele>
        <time>2017-02-12T09:56:53.999Z</time>
      </trkpt>
      <trkpt lat="47.40111" lon="6.72259">
        <ele>524.9</ele>
        <time>2017-02-12T09:56:54.999Z</time>
      </trkpt>
      <trkpt lat="47.40108" lon="6.72258">
        <ele>524.9</ele>
        <time>2017-02-12T09:56:58.999Z</time>
      </trkpt>
      <trkpt lat="47.40106" lon="6.72257">
        <ele>525.1</ele>
        <time>2017-02-12T09:56:59.999Z</time>
      </trkpt>
      <trkpt lat="47.40104" lon="6.72255">
        <ele>525.2</ele>
        <time>2017-02-12T09:57:00.999Z</time>
      </trkpt>
      <trkpt lat="47.40098" lon="6.72253">
        <ele>525.4</ele>
        <time>2017-02-12T09:57:01.999Z</time>
      </trkpt>
      <trkpt lat="47.40092" lon="6.7225">
        <ele>525.7</ele>
        <time>2017-02-12T09:57:02.999Z</time>
      </trkpt>
      <trkpt lat="47.40089" lon="6.72249">
        <ele>526</ele>
        <time>2017-02-12T09:57:03.999Z</time>
      </trkpt>
      <trkpt lat="47.40084" lon="6.72247">
        <ele>526.3</ele>
        <time>2017-02-12T09:57:04.999Z</time>
      </trkpt>
      <trkpt lat="47.40081" lon="6.72246">
        <ele>526.7</ele>
        <time>2017-02-12T09:57:05.999Z</time>
      </trkpt>
      <trkpt lat="47.40076" lon="6.72245">
        <ele>527</ele>
        <time>2017-02-12T09:57:06.999Z</time>
      </trkpt>
      <trkpt lat="47.40073" lon="6.72241">
        <ele>528.1</ele>
        <time>2017-02-12T09:57:10.999Z</time>
      </trkpt>
      <trkpt lat="47.4007" lon="6.72238">
        <ele>528.4</ele>
        <time>2017-02-12T09:57:11.999Z</time>
      </trkpt>
      <trkpt lat="47.40065" lon="6.72237">
        <ele>528.9</ele>
        <time>2017-02-12T09:57:13.999Z</time>
      </trkpt>
      <trkpt lat="47.40064" lon="6.72237">
        <ele>529.1</ele>
        <time>2017-02-12T09:57:14.999Z</time>
      </trkpt>
      <trkpt lat="47.4006" lon="6.72234">
        <ele>529.3</ele>
        <time>2017-02-12T09:57:16.999Z</time>
      </trkpt>
      <trkpt lat="47.40058" lon="6.72233">
        <ele>529.4</ele>
        <time>2017-02-12T09:57:17.999Z</time>
      </trkpt>
      <trkpt lat="47.40055" lon="6.72231">
        <ele>529.5</ele>
        <time>2017-02-12T09:57:18.999Z</time>
      </trkpt>
      <trkpt lat="47.40052" lon="6.72228">
        <ele>529.6</ele>
        <time>2017-02-12T09:57:19.999Z</time>
      </trkpt>
      <trkpt lat="47.40049" lon="6.72225">
        <ele>529.7</ele>
        <time>2017-02-12T09:57:20.999Z</time>
      </trkpt>
      <trkpt lat="47.40047" lon="6.72223">
        <ele>529.8</ele>
        <time>2017-02-12T09:57:21.999Z</time>
      </trkpt>
      <trkpt lat="47.40045" lon="6.7222">
        <ele>529.9</ele>
        <time>2017-02-12T09:57:23.999Z</time>
      </trkpt>
      <trkpt lat="47.40044" lon="6.72217">
        <ele>529.9</ele>
        <time>2017-02-12T09:57:24.999Z</time>
      </trkpt>
      <trkpt lat="47.40042" lon="6.72213">
        <ele>529.8</ele>
        <time>2017-02-12T09:57:25.999Z</time>
      </trkpt>
      <trkpt lat="47.40041" lon="6.72211">
        <ele>529.8</ele>
        <time>2017-02-12T09:57:26.999Z</time>
      </trkpt>
      <trkpt lat="47.40039" lon="6.72207">
        <ele>529.6</ele>
        <time>2017-02-12T09:57:28.999Z</time>
      </trkpt>
      <trkpt lat="47.40038" lon="6.72205">
        <ele>529.5</ele>
        <time>2017-02-12T09:57:29.999Z</time>
      </trkpt>
      <trkpt lat="47.40035" lon="6.72204">
        <ele>529.4</ele>
        <time>2017-02-12T09:57:31.999Z</time>
      </trkpt>
      <trkpt lat="47.40033" lon="6.72203">
        <ele>529.4</ele>
        <time>2017-02-12T09:57:32.999Z</time>
      </trkpt>
      <trkpt lat="47.40029" lon="6.722">
        <ele>529.4</ele>
        <time>2017-02-12T09:57:34.999Z</time>
      </trkpt>
      <trkpt lat="47.40028" lon="6.722">
        <ele>529.5</ele>
        <time>2017-02-12T09:57:35.999Z</time>
      </trkpt>
      <trkpt lat="47.40025" lon="6.72196">
        <ele>529.7</ele>
        <time>2017-02-12T09:57:37.999Z</time>
      </trkpt>
      <trkpt lat="47.40024" lon="6.72195">
        <ele>529.9</ele>
        <time>2017-02-12T09:57:38.999Z</time>
      </trkpt>
      <trkpt lat="47.40023" lon="6.72193">
        <ele>530</ele>
        <time>2017-02-12T09:57:39.999Z</time>
      </trkpt>
      <trkpt lat="47.40021" lon="6.72188">
        <ele>530.2</ele>
        <time>2017-02-12T09:57:40.999Z</time>
      </trkpt>
      <trkpt lat="47.40018" lon="6.72184">
        <ele>530.4</ele>
        <time>2017-02-12T09:57:42.999Z</time>
      </trkpt>
      <trkpt lat="47.40017" lon="6.72183">
        <ele>530.5</ele>
        <time>2017-02-12T09:57:43.999Z</time>
      </trkpt>
      <trkpt lat="47.40015" lon="6.7218">
        <ele>531.7</ele>
        <time>2017-02-12T09:57:52.999Z</time>
      </trkpt>
      <trkpt lat="47.40013" lon="6.72178">
        <ele>531.8</ele>
        <time>2017-02-12T09:57:53.999Z</time>
      </trkpt>
      <trkpt lat="47.40009" lon="6.72173">
        <ele>532</ele>
        <time>2017-02-12T09:57:54.999Z</time>
      </trkpt>
      <trkpt lat="47.40005" lon="6.72168">
        <ele>532.3</ele>
        <time>2017-02-12T09:57:55.999Z</time>
      </trkpt>
      <trkpt lat="47.40003" lon="6.72164">
        <ele>532.4</ele>
        <time>2017-02-12T09:57:56.999Z</time>
      </trkpt>
      <trkpt lat="47.40002" lon="6.72163">
        <ele>532.7</ele>
        <time>2017-02-12T09:57:57.999Z</time>
      </trkpt>
      <trkpt lat="47.39999" lon="6.7216">
        <ele>532.8</ele>
        <time>2017-02-12T09:57:58.999Z</time>
      </trkpt>
      <trkpt lat="47.39996" lon="6.72157">
        <ele>533</ele>
        <time>2017-02-12T09:57:59.999Z</time>
      </trkpt>
      <trkpt lat="47.39994" lon="6.72152">
        <ele>533.5</ele>
        <time>2017-02-12T09:58:01.999Z</time>
      </trkpt>
      <trkpt lat="47.39992" lon="6.72148">
        <ele>533.6</ele>
        <time>2017-02-12T09:58:02.999Z</time>
      </trkpt>
      <trkpt lat="47.39989" lon="6.72145">
        <ele>534.2</ele>
        <time>2017-02-12T09:58:06.999Z</time>
      </trkpt>
      <trkpt lat="47.39986" lon="6.7214">
        <ele>534.3</ele>
        <time>2017-02-12T09:58:07.999Z</time>
      </trkpt>
      <trkpt lat="47.39985" lon="6.72138">
        <ele>534.4</ele>
        <time>2017-02-12T09:58:09.999Z</time>
      </trkpt>
      <trkpt lat="47.39981" lon="6.72135">
        <ele>534.4</ele>
        <time>2017-02-12T09:58:10.999Z</time>
      </trkpt>
      <trkpt lat="47.39979" lon="6.72131">
        <ele>534.5</ele>
        <time>2017-02-12T09:58:13.999Z</time>
      </trkpt>
      <trkpt lat="47.39978" lon="6.72129">
        <ele>534.6</ele>
        <time>2017-02-12T09:58:14.999Z</time>
      </trkpt>
      <trkpt lat="47.39973" lon="6.72125">
        <ele>534.6</ele>
        <time>2017-02-12T09:58:15.999Z</time>
      </trkpt>
      <trkpt lat="47.3997" lon="6.7212">
        <ele>534.7</ele>
        <time>2017-02-12T09:58:16.999Z</time>
      </trkpt>
      <trkpt lat="47.39968" lon="6.72118">
        <ele>534.7</ele>
        <time>2017-02-12T09:58:17.999Z</time>
      </trkpt>
      <trkpt lat="47.39966" lon="6.72115">
        <ele>534.7</ele>
        <time>2017-02-12T09:58:18.999Z</time>
      </trkpt>
      <trkpt lat="47.39962" lon="6.7211">
        <ele>534.7</ele>
        <time>2017-02-12T09:58:19.999Z</time>
      </trkpt>
      <trkpt lat="47.39959" lon="6.72105">
        <ele>534.7</ele>
        <time>2017-02-12T09:58:20.999Z</time>
      </trkpt>
      <trkpt lat="47.39957" lon="6.72099">
        <ele>534.7</ele>
        <time>2017-02-12T09:58:21.999Z</time>
      </trkpt>
      <trkpt lat="47.39955" lon="6.72095">
        <ele>534.7</ele>
        <time>2017-02-12T09:58:22.999Z</time>
      </trkpt>
      <trkpt lat="47.39955" lon="6.7209">
        <ele>534.7</ele>
        <time>2017-02-12T09:58:23.999Z</time>
      </trkpt>
      <trkpt lat="47.39956" lon="6.72084">
        <ele>534.7</ele>
        <time>2017-02-12T09:58:25.999Z</time>
      </trkpt>
      <trkpt lat="47.39957" lon="6.72084">
        <ele>534.6</ele>
        <time>2017-02-12T09:58:26.999Z</time>
      </trkpt>
      <trkpt lat="47.3996" lon="6.72083">
        <ele>534.5</ele>
        <time>2017-02-12T09:58:28.999Z</time>
      </trkpt>
      <trkpt lat="47.39962" lon="6.72083">
        <ele>534.3</ele>
        <time>2017-02-12T09:58:29.999Z</time>
      </trkpt>
      <trkpt lat="47.39965" lon="6.72085">
        <ele>533.9</ele>
        <time>2017-02-12T09:58:32.999Z</time>
      </trkpt>
      <trkpt lat="47.39967" lon="6.72085">
        <ele>533.8</ele>
        <time>2017-02-12T09:58:33.999Z</time>
      </trkpt>
      <trkpt lat="47.3997" lon="6.72083">
        <ele>533.7</ele>
        <time>2017-02-12T09:58:36.999Z</time>
      </trkpt>
      <trkpt lat="47.39972" lon="6.72084">
        <ele>533.7</ele>
        <time>2017-02-12T09:58:37.999Z</time>
      </trkpt>
      <trkpt lat="47.39974" lon="6.72083">
        <ele>533.8</ele>
        <time>2017-02-12T09:58:38.999Z</time>
      </trkpt>
      <trkpt lat="47.39977" lon="6.72082">
        <ele>533.9</ele>
        <time>2017-02-12T09:58:39.999Z</time>
      </trkpt>
      <trkpt lat="47.39981" lon="6.72082">
        <ele>534.2</ele>
        <time>2017-02-12T09:58:41.999Z</time>
      </trkpt>
      <trkpt lat="47.39982" lon="6.72083">
        <ele>534.3</ele>
        <time>2017-02-12T09:58:42.999Z</time>
      </trkpt>
      <trkpt lat="47.39986" lon="6.72083">
        <ele>534.6</ele>
        <time>2017-02-12T09:58:44.999Z</time>
      </trkpt>
      <trkpt lat="47.39987" lon="6.72083">
        <ele>534.8</ele>
        <time>2017-02-12T09:58:45.999Z</time>
      </trkpt>
      <trkpt lat="47.39991" lon="6.72084">
        <ele>535</ele>
        <time>2017-02-12T09:58:47.999Z</time>
      </trkpt>
      <trkpt lat="47.39994" lon="6.72087">
        <ele>535.2</ele>
        <time>2017-02-12T09:58:48.999Z</time>
      </trkpt>
      <trkpt lat="47.39995" lon="6.72088">
        <ele>535.3</ele>
        <time>2017-02-12T09:58:49.999Z</time>
      </trkpt>
      <trkpt lat="47.39999" lon="6.72089">
        <ele>535.5</ele>
        <time>2017-02-12T09:58:50.999Z</time>
      </trkpt>
      <trkpt lat="47.40003" lon="6.72091">
        <ele>535.6</ele>
        <time>2017-02-12T09:58:51.999Z</time>
      </trkpt>
      <trkpt lat="47.40004" lon="6.72092">
        <ele>535.8</ele>
        <time>2017-02-12T09:58:52.999Z</time>
      </trkpt>
      <trkpt lat="47.40007" lon="6.72094">
        <ele>535.9</ele>
        <time>2017-02-12T09:58:54.999Z</time>
      </trkpt>
      <trkpt lat="47.40009" lon="6.72094">
        <ele>535.9</ele>
        <time>2017-02-12T09:58:55.999Z</time>
      </trkpt>
      <trkpt lat="47.40013" lon="6.72093">
        <ele>536</ele>
        <time>2017-02-12T09:58:57.999Z</time>
      </trkpt>
      <trkpt lat="47.40015" lon="6.72094">
        <ele>536</ele>
        <time>2017-02-12T09:58:58.999Z</time>
      </trkpt>
      <trkpt lat="47.40019" lon="6.72094">
        <ele>536.3</ele>
        <time>2017-02-12T09:59:01.999Z</time>
      </trkpt>
      <trkpt lat="47.40021" lon="6.72096">
        <ele>536.3</ele>
        <time>2017-02-12T09:59:02.999Z</time>
      </trkpt>
      <trkpt lat="47.40025" lon="6.72098">
        <ele>536.5</ele>
        <time>2017-02-12T09:59:05.999Z</time>
      </trkpt>
      <trkpt lat="47.40027" lon="6.72099">
        <ele>536.7</ele>
        <time>2017-02-12T09:59:06.999Z</time>
      </trkpt>
      <trkpt lat="47.40031" lon="6.72101">
        <ele>536.9</ele>
        <time>2017-02-12T09:59:08.999Z</time>
      </trkpt>
      <trkpt lat="47.40033" lon="6.72101">
        <ele>537.1</ele>
        <time>2017-02-12T09:59:09.999Z</time>
      </trkpt>
      <trkpt lat="47.40037" lon="6.72102">
        <ele>537.5</ele>
        <time>2017-02-12T09:59:12.999Z</time>
      </trkpt>
      <trkpt lat="47.40039" lon="6.72103">
        <ele>537.6</ele>
        <time>2017-02-12T09:59:13.999Z</time>
      </trkpt>
      <trkpt lat="47.40042" lon="6.72106">
        <ele>538</ele>
        <time>2017-02-12T09:59:16.999Z</time>
      </trkpt>
      <trkpt lat="47.40046" lon="6.72108">
        <ele>538.2</ele>
        <time>2017-02-12T09:59:17.999Z</time>
      </trkpt>
      <trkpt lat="47.40049" lon="6.72109">
        <ele>538.6</ele>
        <time>2017-02-12T09:59:18.999Z</time>
      </trkpt>
      <trkpt lat="47.40051" lon="6.7211">
        <ele>538.9</ele>
        <time>2017-02-12T09:59:19.999Z</time>
      </trkpt>
      <trkpt lat="47.40053" lon="6.72112">
        <ele>539.3</ele>
        <time>2017-02-12T09:59:21.999Z</time>
      </trkpt>
      <trkpt lat="47.40055" lon="6.72114">
        <ele>539.6</ele>
        <time>2017-02-12T09:59:22.999Z</time>
      </trkpt>
      <trkpt lat="47.40058" lon="6.72117">
        <ele>540.1</ele>
        <time>2017-02-12T09:59:24.999Z</time>
      </trkpt>
      <trkpt lat="47.4006" lon="6.72118">
        <ele>540.3</ele>
        <time>2017-02-12T09:59:25.999Z</time>
      </trkpt>
      <trkpt lat="47.40064" lon="6.7212">
        <ele>540.7</ele>
        <time>2017-02-12T09:59:27.999Z</time>
      </trkpt>
      <trkpt lat="47.40066" lon="6.72121">
        <ele>541</ele>
        <time>2017-02-12T09:59:28.999Z</time>
      </trkpt>
      <trkpt lat="47.40069" lon="6.72123">
        <ele>541.2</ele>
        <time>2017-02-12T09:59:29.999Z</time>
      </trkpt>
      <trkpt lat="47.40071" lon="6.72124">
        <ele>541.4</ele>
        <time>2017-02-12T09:59:30.999Z</time>
      </trkpt>
      <trkpt lat="47.40074" lon="6.72126">
        <ele>541.8</ele>
        <time>2017-02-12T09:59:32.999Z</time>
      </trkpt>
      <trkpt lat="47.40077" lon="6.72127">
        <ele>542.1</ele>
        <time>2017-02-12T09:59:33.999Z</time>
      </trkpt>
      <trkpt lat="47.4008" lon="6.7213">
        <ele>542.5</ele>
        <time>2017-02-12T09:59:34.999Z</time>
      </trkpt>
      <trkpt lat="47.40081" lon="6.72131">
        <ele>542.8</ele>
        <time>2017-02-12T09:59:35.999Z</time>
      </trkpt>
      <trkpt lat="47.40085" lon="6.72132">
        <ele>543.2</ele>
        <time>2017-02-12T09:59:37.999Z</time>
      </trkpt>
      <trkpt lat="47.40087" lon="6.72133">
        <ele>543.4</ele>
        <time>2017-02-12T09:59:38.999Z</time>
      </trkpt>
      <trkpt lat="47.4009" lon="6.72133">
        <ele>543.6</ele>
        <time>2017-02-12T09:59:39.999Z</time>
      </trkpt>
      <trkpt lat="47.40092" lon="6.72134">
        <ele>543.7</ele>
        <time>2017-02-12T09:59:40.999Z</time>
      </trkpt>
      <trkpt lat="47.40096" lon="6.72135">
        <ele>543.8</ele>
        <time>2017-02-12T09:59:42.999Z</time>
      </trkpt>
      <trkpt lat="47.40098" lon="6.72135">
        <ele>543.8</ele>
        <time>2017-02-12T09:59:43.999Z</time>
      </trkpt>
      <trkpt lat="47.40099" lon="6.72134">
        <ele>543.9</ele>
        <time>2017-02-12T09:59:44.999Z</time>
      </trkpt>
      <trkpt lat="47.40102" lon="6.72133">
        <ele>543.9</ele>
        <time>2017-02-12T09:59:45.999Z</time>
      </trkpt>
      <trkpt lat="47.40105" lon="6.72132">
        <ele>543.9</ele>
        <time>2017-02-12T09:59:47.999Z</time>
      </trkpt>
      <trkpt lat="47.40107" lon="6.72132">
        <ele>544</ele>
        <time>2017-02-12T09:59:48.999Z</time>
      </trkpt>
      <trkpt lat="47.4011" lon="6.7213">
        <ele>543.9</ele>
        <time>2017-02-12T09:59:50.999Z</time>
      </trkpt>
      <trkpt lat="47.4011" lon="6.72127">
        <ele>543.9</ele>
        <time>2017-02-12T09:59:51.999Z</time>
      </trkpt>
      <trkpt lat="47.40111" lon="6.72124">
        <ele>543.9</ele>
        <time>2017-02-12T09:59:52.999Z</time>
      </trkpt>
      <trkpt lat="47.40111" lon="6.7212">
        <ele>543.8</ele>
        <time>2017-02-12T09:59:53.999Z</time>
      </trkpt>
      <trkpt lat="47.40111" lon="6.72116">
        <ele>543.8</ele>
        <time>2017-02-12T09:59:54.999Z</time>
      </trkpt>
      <trkpt lat="47.40112" lon="6.72112">
        <ele>543.8</ele>
        <time>2017-02-12T09:59:55.999Z</time>
      </trkpt>
      <trkpt lat="47.40113" lon="6.72108">
        <ele>543.8</ele>
        <time>2017-02-12T09:59:56.999Z</time>
      </trkpt>
      <trkpt lat="47.40114" lon="6.72104">
        <ele>543.8</ele>
        <time>2017-02-12T09:59:57.999Z</time>
      </trkpt>
      <trkpt lat="47.40114" lon="6.721">
        <ele>543.8</ele>
        <time>2017-02-12T09:59:58.999Z</time>
      </trkpt>
      <trkpt lat="47.40115" lon="6.72095">
        <ele>543.8</ele>
        <time>2017-02-12T09:59:59.999Z</time>
      </trkpt>
      <trkpt lat="47.40115" lon="6.7209">
        <ele>543.8</ele>
        <time>2017-02-12T10:00:00.999Z</time>
      </trkpt>
      <trkpt lat="47.40115" lon="6.72087">
        <ele>543.8</ele>
        <time>2017-02-12T10:00:01.999Z</time>
      </trkpt>
      <trkpt lat="47.40113" lon="6.72083">
        <ele>543.8</ele>
        <time>2017-02-12T10:00:02.999Z</time>
      </trkpt>
      <trkpt lat="47.40112" lon="6.7208">
        <ele>543.9</ele>
        <time>2017-02-12T10:00:03.999Z</time>
      </trkpt>
      <trkpt lat="47.40113" lon="6.72077">
        <ele>543.9</ele>
        <time>2017-02-12T10:00:04.999Z</time>
      </trkpt>
      <trkpt lat="47.40112" lon="6.7207">
        <ele>543.9</ele>
        <time>2017-02-12T10:00:05.999Z</time>
      </trkpt>
      <trkpt lat="47.40112" lon="6.72064">
        <ele>544</ele>
        <time>2017-02-12T10:00:06.999Z</time>
      </trkpt>
      <trkpt lat="47.40112" lon="6.7206">
        <ele>544</ele>
        <time>2017-02-12T10:00:07.999Z</time>
      </trkpt>
      <trkpt lat="47.40111" lon="6.72055">
        <ele>544</ele>
        <time>2017-02-12T10:00:08.999Z</time>
      </trkpt>
      <trkpt lat="47.40111" lon="6.72049">
        <ele>544</ele>
        <time>2017-02-12T10:00:09.999Z</time>
      </trkpt>
      <trkpt lat="47.40113" lon="6.72043">
        <ele>544</ele>
        <time>2017-02-12T10:00:10.999Z</time>
      </trkpt>
      <trkpt lat="47.40115" lon="6.72038">
        <ele>544</ele>
        <time>2017-02-12T10:00:11.999Z</time>
      </trkpt>
      <trkpt lat="47.40116" lon="6.72033">
        <ele>544</ele>
        <time>2017-02-12T10:00:12.999Z</time>
      </trkpt>
      <trkpt lat="47.40116" lon="6.72029">
        <ele>544</ele>
        <time>2017-02-12T10:00:13.999Z</time>
      </trkpt>
      <trkpt lat="47.40117" lon="6.72024">
        <ele>543.9</ele>
        <time>2017-02-12T10:00:14.999Z</time>
      </trkpt>
      <trkpt lat="47.40118" lon="6.72018">
        <ele>543.8</ele>
        <time>2017-02-12T10:00:15.999Z</time>
      </trkpt>
      <trkpt lat="47.40119" lon="6.72014">
        <ele>543.7</ele>
        <time>2017-02-12T10:00:16.999Z</time>
      </trkpt>
      <trkpt lat="47.4012" lon="6.72009">
        <ele>543.6</ele>
        <time>2017-02-12T10:00:17.999Z</time>
      </trkpt>
      <trkpt lat="47.4012" lon="6.72005">
        <ele>543.5</ele>
        <time>2017-02-12T10:00:18.999Z</time>
      </trkpt>
      <trkpt lat="47.40121" lon="6.71999">
        <ele>543.3</ele>
        <time>2017-02-12T10:00:19.999Z</time>
      </trkpt>
      <trkpt lat="47.40121" lon="6.71995">
        <ele>543.2</ele>
        <time>2017-02-12T10:00:20.999Z</time>
      </trkpt>
      <trkpt lat="47.40121" lon="6.7199">
        <ele>543.1</ele>
        <time>2017-02-12T10:00:21.999Z</time>
      </trkpt>
      <trkpt lat="47.40121" lon="6.71984">
        <ele>543.1</ele>
        <time>2017-02-12T10:00:22.999Z</time>
      </trkpt>
      <trkpt lat="47.40121" lon="6.71978">
        <ele>543</ele>
        <time>2017-02-12T10:00:23.999Z</time>
      </trkpt>
      <trkpt lat="47.40121" lon="6.71972">
        <ele>543</ele>
        <time>2017-02-12T10:00:24.999Z</time>
      </trkpt>
      <trkpt lat="47.40121" lon="6.71966">
        <ele>543.1</ele>
        <time>2017-02-12T10:00:25.999Z</time>
      </trkpt>
      <trkpt lat="47.4012" lon="6.71962">
        <ele>543.2</ele>
        <time>2017-02-12T10:00:26.999Z</time>
      </trkpt>
      <trkpt lat="47.4012" lon="6.71958">
        <ele>543.3</ele>
        <time>2017-02-12T10:00:27.999Z</time>
      </trkpt>
      <trkpt lat="47.40121" lon="6.71954">
        <ele>543.4</ele>
        <time>2017-02-12T10:00:28.999Z</time>
      </trkpt>
      <trkpt lat="47.4012" lon="6.71951">
        <ele>543.5</ele>
        <time>2017-02-12T10:00:29.999Z</time>
      </trkpt>
      <trkpt lat="47.40121" lon="6.71947">
        <ele>543.6</ele>
        <time>2017-02-12T10:00:30.999Z</time>
      </trkpt>
      <trkpt lat="47.40121" lon="6.71943">
        <ele>543.6</ele>
        <time>2017-02-12T10:00:31.999Z</time>
      </trkpt>
      <trkpt lat="47.40122" lon="6.7194">
        <ele>543.7</ele>
        <time>2017-02-12T10:00:32.999Z</time>
      </trkpt>
      <trkpt lat="47.40122" lon="6.71936">
        <ele>543.9</ele>
        <time>2017-02-12T10:00:33.999Z</time>
      </trkpt>
      <trkpt lat="47.40121" lon="6.71933">
        <ele>543.9</ele>
        <time>2017-02-12T10:00:34.999Z</time>
      </trkpt>
      <trkpt lat="47.4012" lon="6.7193">
        <ele>544</ele>
        <time>2017-02-12T10:00:35.999Z</time>
      </trkpt>
      <trkpt lat="47.40117" lon="6.71928">
        <ele>544.1</ele>
        <time>2017-02-12T10:00:37.999Z</time>
      </trkpt>
      <trkpt lat="47.40115" lon="6.71927">
        <ele>544.2</ele>
        <time>2017-02-12T10:00:38.999Z</time>
      </trkpt>
      <trkpt lat="47.40111" lon="6.71928">
        <ele>544.5</ele>
        <time>2017-02-12T10:00:41.999Z</time>
      </trkpt>
      <trkpt lat="47.40109" lon="6.7193">
        <ele>544.6</ele>
        <time>2017-02-12T10:00:42.999Z</time>
      </trkpt>
      <trkpt lat="47.40107" lon="6.71931">
        <ele>544.6</ele>
        <time>2017-02-12T10:00:43.999Z</time>
      </trkpt>
      <trkpt lat="47.40105" lon="6.71933">
        <ele>544.7</ele>
        <time>2017-02-12T10:00:44.999Z</time>
      </trkpt>
      <trkpt lat="47.40103" lon="6.71935">
        <ele>544.7</ele>
        <time>2017-02-12T10:00:45.999Z</time>
      </trkpt>
      <trkpt lat="47.40101" lon="6.71936">
        <ele>544.8</ele>
        <time>2017-02-12T10:00:46.999Z</time>
      </trkpt>
      <trkpt lat="47.40098" lon="6.71938">
        <ele>544.8</ele>
        <time>2017-02-12T10:00:47.999Z</time>
      </trkpt>
      <trkpt lat="47.40096" lon="6.71939">
        <ele>544.9</ele>
        <time>2017-02-12T10:00:48.999Z</time>
      </trkpt>
      <trkpt lat="47.40092" lon="6.71943">
        <ele>545</ele>
        <time>2017-02-12T10:00:50.999Z</time>
      </trkpt>
      <trkpt lat="47.40091" lon="6.71945">
        <ele>545.1</ele>
        <time>2017-02-12T10:00:51.999Z</time>
      </trkpt>
      <trkpt lat="47.40088" lon="6.71948">
        <ele>545.5</ele>
        <time>2017-02-12T10:00:54.999Z</time>
      </trkpt>
      <trkpt lat="47.40087" lon="6.71949">
        <ele>545.7</ele>
        <time>2017-02-12T10:00:55.999Z</time>
      </trkpt>
      <trkpt lat="47.40085" lon="6.71951">
        <ele>545.8</ele>
        <time>2017-02-12T10:00:56.999Z</time>
      </trkpt>
      <trkpt lat="47.40083" lon="6.71953">
        <ele>545.9</ele>
        <time>2017-02-12T10:00:57.999Z</time>
      </trkpt>
      <trkpt lat="47.4008" lon="6.71955">
        <ele>546.5</ele>
        <time>2017-02-12T10:01:01.999Z</time>
      </trkpt>
      <trkpt lat="47.40079" lon="6.71955">
        <ele>546.7</ele>
        <time>2017-02-12T10:01:02.999Z</time>
      </trkpt>
      <trkpt lat="47.40075" lon="6.71959">
        <ele>545.1</ele>
        <time>2017-02-12T10:01:50.999Z</time>
      </trkpt>
      <trkpt lat="47.40074" lon="6.71958">
        <ele>545.1</ele>
        <time>2017-02-12T10:01:51.999Z</time>
      </trkpt>
      <trkpt lat="47.40078" lon="6.71959">
        <ele>544.5</ele>
        <time>2017-02-12T10:02:21.999Z</time>
      </trkpt>
      <trkpt lat="47.40079" lon="6.71958">
        <ele>544.5</ele>
        <time>2017-02-12T10:02:22.999Z</time>
      </trkpt>
      <trkpt lat="47.40076" lon="6.71962">
        <ele>545.2</ele>
        <time>2017-02-12T10:02:35.999Z</time>
      </trkpt>
      <trkpt lat="47.40076" lon="6.71963">
        <ele>545.1</ele>
        <time>2017-02-12T10:02:36.999Z</time>
      </trkpt>
      <trkpt lat="47.40078" lon="6.71966">
        <ele>545.6</ele>
        <time>2017-02-12T10:02:48.999Z</time>
      </trkpt>
      <trkpt lat="47.4008" lon="6.71966">
        <ele>545.5</ele>
        <time>2017-02-12T10:02:49.999Z</time>
      </trkpt>
      <trkpt lat="47.40076" lon="6.71963">
        <ele>543.5</ele>
        <time>2017-02-12T10:02:59.999Z</time>
      </trkpt>
      <trkpt lat="47.40075" lon="6.71962">
        <ele>543.5</ele>
        <time>2017-02-12T10:03:00.999Z</time>
      </trkpt>
      <trkpt lat="47.40072" lon="6.7196">
        <ele>543.6</ele>
        <time>2017-02-12T10:03:41.999Z</time>
      </trkpt>
      <trkpt lat="47.40071" lon="6.71961">
        <ele>543.6</ele>
        <time>2017-02-12T10:03:42.999Z</time>
      </trkpt>
      <trkpt lat="47.40067" lon="6.71962">
        <ele>543.4</ele>
        <time>2017-02-12T10:03:45.999Z</time>
      </trkpt>
      <trkpt lat="47.40066" lon="6.71962">
        <ele>543.3</ele>
        <time>2017-02-12T10:03:46.999Z</time>
      </trkpt>
      <trkpt lat="47.40069" lon="6.71965">
        <ele>542.8</ele>
        <time>2017-02-12T10:03:56.999Z</time>
      </trkpt>
      <trkpt lat="47.40069" lon="6.71966">
        <ele>542.8</ele>
        <time>2017-02-12T10:03:57.999Z</time>
      </trkpt>
      <trkpt lat="47.40074" lon="6.71965">
        <ele>543</ele>
        <time>2017-02-12T10:04:04.999Z</time>
      </trkpt>
      <trkpt lat="47.40075" lon="6.71965">
        <ele>543.1</ele>
        <time>2017-02-12T10:04:05.999Z</time>
      </trkpt>
      <trkpt lat="47.40078" lon="6.71962">
        <ele>543.9</ele>
        <time>2017-02-12T10:04:28.999Z</time>
      </trkpt>
      <trkpt lat="47.40079" lon="6.71961">
        <ele>544</ele>
        <time>2017-02-12T10:04:29.999Z</time>
      </trkpt>
      <trkpt lat="47.40083" lon="6.71958">
        <ele>543.7</ele>
        <time>2017-02-12T10:04:56.999Z</time>
      </trkpt>
      <trkpt lat="47.40083" lon="6.71958">
        <ele>543.5</ele>
        <time>2017-02-12T10:04:57.999Z</time>
      </trkpt>
      <trkpt lat="47.4008" lon="6.71962">
        <ele>542.3</ele>
        <time>2017-02-12T10:05:04.999Z</time>
      </trkpt>
      <trkpt lat="47.40078" lon="6.71964">
        <ele>542.2</ele>
        <time>2017-02-12T10:05:05.999Z</time>
      </trkpt>
      <trkpt lat="47.40074" lon="6.71966">
        <ele>542.1</ele>
        <time>2017-02-12T10:05:07.999Z</time>
      </trkpt>
      <trkpt lat="47.40073" lon="6.71968">
        <ele>542</ele>
        <time>2017-02-12T10:05:08.999Z</time>
      </trkpt>
      <trkpt lat="47.4007" lon="6.7197">
        <ele>541.9</ele>
        <time>2017-02-12T10:05:10.999Z</time>
      </trkpt>
      <trkpt lat="47.40068" lon="6.71971">
        <ele>541.9</ele>
        <time>2017-02-12T10:05:11.999Z</time>
      </trkpt>
      <trkpt lat="47.40065" lon="6.71972">
        <ele>541.7</ele>
        <time>2017-02-12T10:05:13.999Z</time>
      </trkpt>
      <trkpt lat="47.40062" lon="6.71971">
        <ele>541.6</ele>
        <time>2017-02-12T10:05:14.999Z</time>
      </trkpt>
      <trkpt lat="47.40058" lon="6.71972">
        <ele>541.5</ele>
        <time>2017-02-12T10:05:16.999Z</time>
      </trkpt>
      <trkpt lat="47.40056" lon="6.71972">
        <ele>541.4</ele>
        <time>2017-02-12T10:05:17.999Z</time>
      </trkpt>
      <trkpt lat="47.40053" lon="6.71971">
        <ele>541.3</ele>
        <time>2017-02-12T10:05:19.999Z</time>
      </trkpt>
      <trkpt lat="47.40051" lon="6.71971">
        <ele>541.3</ele>
        <time>2017-02-12T10:05:20.999Z</time>
      </trkpt>
      <trkpt lat="47.40048" lon="6.7197">
        <ele>541.4</ele>
        <time>2017-02-12T10:05:21.999Z</time>
      </trkpt>
      <trkpt lat="47.40045" lon="6.7197">
        <ele>541.6</ele>
        <time>2017-02-12T10:05:22.999Z</time>
      </trkpt>
      <trkpt lat="47.40043" lon="6.71969">
        <ele>541.7</ele>
        <time>2017-02-12T10:05:23.999Z</time>
      </trkpt>
      <trkpt lat="47.40041" lon="6.71967">
        <ele>541.9</ele>
        <time>2017-02-12T10:05:24.999Z</time>
      </trkpt>
      <trkpt lat="47.40038" lon="6.71965">
        <ele>542.1</ele>
        <time>2017-02-12T10:05:26.999Z</time>
      </trkpt>
      <trkpt lat="47.40037" lon="6.71964">
        <ele>542.2</ele>
        <time>2017-02-12T10:05:27.999Z</time>
      </trkpt>
      <trkpt lat="47.40033" lon="6.71962">
        <ele>542.7</ele>
        <time>2017-02-12T10:05:30.999Z</time>
      </trkpt>
      <trkpt lat="47.40032" lon="6.71961">
        <ele>542.8</ele>
        <time>2017-02-12T10:05:31.999Z</time>
      </trkpt>
      <trkpt lat="47.40028" lon="6.71958">
        <ele>542.9</ele>
        <time>2017-02-12T10:05:33.999Z</time>
      </trkpt>
      <trkpt lat="47.40025" lon="6.71956">
        <ele>543</ele>
        <time>2017-02-12T10:05:34.999Z</time>
      </trkpt>
      <trkpt lat="47.40023" lon="6.71954">
        <ele>543.1</ele>
        <time>2017-02-12T10:05:35.999Z</time>
      </trkpt>
      <trkpt lat="47.40021" lon="6.71952">
        <ele>543.2</ele>
        <time>2017-02-12T10:05:36.999Z</time>
      </trkpt>
      <trkpt lat="47.40019" lon="6.7195">
        <ele>543.4</ele>
        <time>2017-02-12T10:05:37.999Z</time>
      </trkpt>
      <trkpt lat="47.40017" lon="6.71949">
        <ele>543.5</ele>
        <time>2017-02-12T10:05:38.999Z</time>
      </trkpt>
      <trkpt lat="47.40013" lon="6.71947">
        <ele>543.9</ele>
        <time>2017-02-12T10:05:40.999Z</time>
      </trkpt>
      <trkpt lat="47.4001" lon="6.71945">
        <ele>544</ele>
        <time>2017-02-12T10:05:41.999Z</time>
      </trkpt>
      <trkpt lat="47.40006" lon="6.71943">
        <ele>544.3</ele>
        <time>2017-02-12T10:05:43.999Z</time>
      </trkpt>
      <trkpt lat="47.40003" lon="6.71942">
        <ele>544.3</ele>
        <time>2017-02-12T10:05:44.999Z</time>
      </trkpt>
      <trkpt lat="47.40001" lon="6.71941">
        <ele>544.3</ele>
        <time>2017-02-12T10:05:45.999Z</time>
      </trkpt>
      <trkpt lat="47.39998" lon="6.71939">
        <ele>544.4</ele>
        <time>2017-02-12T10:05:46.999Z</time>
      </trkpt>
      <trkpt lat="47.39994" lon="6.71938">
        <ele>544.3</ele>
        <time>2017-02-12T10:05:48.999Z</time>
      </trkpt>
      <trkpt lat="47.39992" lon="6.71936">
        <ele>544.3</ele>
        <time>2017-02-12T10:05:49.999Z</time>
      </trkpt>
      <trkpt lat="47.3999" lon="6.71935">
        <ele>544.3</ele>
        <time>2017-02-12T10:05:50.999Z</time>
      </trkpt>
      <trkpt lat="47.39987" lon="6.71934">
        <ele>544.3</ele>
        <time>2017-02-12T10:05:51.999Z</time>
      </trkpt>
      <trkpt lat="47.39985" lon="6.71932">
        <ele>544.3</ele>
        <time>2017-02-12T10:05:52.999Z</time>
      </trkpt>
      <trkpt lat="47.39983" lon="6.71931">
        <ele>544.4</ele>
        <time>2017-02-12T10:05:53.999Z</time>
      </trkpt>
      <trkpt lat="47.3998" lon="6.7193">
        <ele>544.5</ele>
        <time>2017-02-12T10:05:54.999Z</time>
      </trkpt>
      <trkpt lat="47.39978" lon="6.71929">
        <ele>544.6</ele>
        <time>2017-02-12T10:05:55.999Z</time>
      </trkpt>
      <trkpt lat="47.39976" lon="6.71929">
        <ele>544.7</ele>
        <time>2017-02-12T10:05:56.999Z</time>
      </trkpt>
      <trkpt lat="47.39973" lon="6.71928">
        <ele>544.8</ele>
        <time>2017-02-12T10:05:57.999Z</time>
      </trkpt>
      <trkpt lat="47.39971" lon="6.71927">
        <ele>545</ele>
        <time>2017-02-12T10:05:58.999Z</time>
      </trkpt>
      <trkpt lat="47.39968" lon="6.71927">
        <ele>545.1</ele>
        <time>2017-02-12T10:05:59.999Z</time>
      </trkpt>
      <trkpt lat="47.39964" lon="6.71927">
        <ele>545.3</ele>
        <time>2017-02-12T10:06:00.999Z</time>
      </trkpt>
      <trkpt lat="47.39962" lon="6.71926">
        <ele>545.4</ele>
        <time>2017-02-12T10:06:01.999Z</time>
      </trkpt>
      <trkpt lat="47.39958" lon="6.71926">
        <ele>545.6</ele>
        <time>2017-02-12T10:06:03.999Z</time>
      </trkpt>
      <trkpt lat="47.39956" lon="6.71925">
        <ele>545.7</ele>
        <time>2017-02-12T10:06:04.999Z</time>
      </trkpt>
      <trkpt lat="47.39954" lon="6.71924">
        <ele>545.8</ele>
        <time>2017-02-12T10:06:05.999Z</time>
      </trkpt>
      <trkpt lat="47.39951" lon="6.71924">
        <ele>545.9</ele>
        <time>2017-02-12T10:06:06.999Z</time>
      </trkpt>
      <trkpt lat="47.39949" lon="6.71924">
        <ele>545.9</ele>
        <time>2017-02-12T10:06:07.999Z</time>
      </trkpt>
      <trkpt lat="47.39946" lon="6.71923">
        <ele>546</ele>
        <time>2017-02-12T10:06:08.999Z</time>
      </trkpt>
      <trkpt lat="47.39942" lon="6.71923">
        <ele>546.1</ele>
        <time>2017-02-12T10:06:10.999Z</time>
      </trkpt>
      <trkpt lat="47.3994" lon="6.71922">
        <ele>546.2</ele>
        <time>2017-02-12T10:06:11.999Z</time>
      </trkpt>
      <trkpt lat="47.39937" lon="6.71922">
        <ele>546.2</ele>
        <time>2017-02-12T10:06:12.999Z</time>
      </trkpt>
      <trkpt lat="47.39935" lon="6.71921">
        <ele>546.3</ele>
        <time>2017-02-12T10:06:13.999Z</time>
      </trkpt>
      <trkpt lat="47.39932" lon="6.7192">
        <ele>546.3</ele>
        <time>2017-02-12T10:06:14.999Z</time>
      </trkpt>
      <trkpt lat="47.3993" lon="6.71919">
        <ele>546.4</ele>
        <time>2017-02-12T10:06:15.999Z</time>
      </trkpt>
      <trkpt lat="47.39928" lon="6.71918">
        <ele>546.4</ele>
        <time>2017-02-12T10:06:16.999Z</time>
      </trkpt>
      <trkpt lat="47.39926" lon="6.71917">
        <ele>546.5</ele>
        <time>2017-02-12T10:06:17.999Z</time>
      </trkpt>
      <trkpt lat="47.39921" lon="6.71916">
        <ele>546.6</ele>
        <time>2017-02-12T10:06:19.999Z</time>
      </trkpt>
      <trkpt lat="47.3992" lon="6.71916">
        <ele>546.7</ele>
        <time>2017-02-12T10:06:20.999Z</time>
      </trkpt>
      <trkpt lat="47.39915" lon="6.71915">
        <ele>546.9</ele>
        <time>2017-02-12T10:06:22.999Z</time>
      </trkpt>
      <trkpt lat="47.39913" lon="6.71914">
        <ele>547</ele>
        <time>2017-02-12T10:06:23.999Z</time>
      </trkpt>
      <trkpt lat="47.3991" lon="6.71913">
        <ele>547.1</ele>
        <time>2017-02-12T10:06:24.999Z</time>
      </trkpt>
      <trkpt lat="47.39908" lon="6.71912">
        <ele>547.2</ele>
        <time>2017-02-12T10:06:25.999Z</time>
      </trkpt>
      <trkpt lat="47.39906" lon="6.71911">
        <ele>547.4</ele>
        <time>2017-02-12T10:06:26.999Z</time>
      </trkpt>
      <trkpt lat="47.39903" lon="6.7191">
        <ele>547.6</ele>
        <time>2017-02-12T10:06:27.999Z</time>
      </trkpt>
      <trkpt lat="47.39901" lon="6.71909">
        <ele>547.7</ele>
        <time>2017-02-12T10:06:28.999Z</time>
      </trkpt>
      <trkpt lat="47.39899" lon="6.71909">
        <ele>547.8</ele>
        <time>2017-02-12T10:06:29.999Z</time>
      </trkpt>
      <trkpt lat="47.39896" lon="6.71908">
        <ele>547.9</ele>
        <time>2017-02-12T10:06:30.999Z</time>
      </trkpt>
      <trkpt lat="47.39893" lon="6.71907">
        <ele>548.1</ele>
        <time>2017-02-12T10:06:31.999Z</time>
      </trkpt>
      <trkpt lat="47.39889" lon="6.71907">
        <ele>548.3</ele>
        <time>2017-02-12T10:06:33.999Z</time>
      </trkpt>
      <trkpt lat="47.39887" lon="6.71907">
        <ele>548.4</ele>
        <time>2017-02-12T10:06:34.999Z</time>
      </trkpt>
      <trkpt lat="47.39883" lon="6.71907">
        <ele>548.6</ele>
        <time>2017-02-12T10:06:36.999Z</time>
      </trkpt>
      <trkpt lat="47.39881" lon="6.71907">
        <ele>548.7</ele>
        <time>2017-02-12T10:06:37.999Z</time>
      </trkpt>
      <trkpt lat="47.39876" lon="6.71906">
        <ele>548.9</ele>
        <time>2017-02-12T10:06:39.999Z</time>
      </trkpt>
      <trkpt lat="47.39873" lon="6.71905">
        <ele>549</ele>
        <time>2017-02-12T10:06:40.999Z</time>
      </trkpt>
      <trkpt lat="47.39871" lon="6.71904">
        <ele>549.1</ele>
        <time>2017-02-12T10:06:41.999Z</time>
      </trkpt>
      <trkpt lat="47.39869" lon="6.71904">
        <ele>549.2</ele>
        <time>2017-02-12T10:06:42.999Z</time>
      </trkpt>
      <trkpt lat="47.39864" lon="6.71902">
        <ele>549.6</ele>
        <time>2017-02-12T10:06:44.999Z</time>
      </trkpt>
      <trkpt lat="47.39862" lon="6.71901">
        <ele>549.7</ele>
        <time>2017-02-12T10:06:45.999Z</time>
      </trkpt>
      <trkpt lat="47.39858" lon="6.71899">
        <ele>550.1</ele>
        <time>2017-02-12T10:06:47.999Z</time>
      </trkpt>
      <trkpt lat="47.39857" lon="6.71897">
        <ele>550.4</ele>
        <time>2017-02-12T10:06:48.999Z</time>
      </trkpt>
      <trkpt lat="47.39853" lon="6.71895">
        <ele>550.9</ele>
        <time>2017-02-12T10:06:50.999Z</time>
      </trkpt>
      <trkpt lat="47.3985" lon="6.71894">
        <ele>551.1</ele>
        <time>2017-02-12T10:06:51.999Z</time>
      </trkpt>
      <trkpt lat="47.39847" lon="6.7189">
        <ele>551.5</ele>
        <time>2017-02-12T10:06:53.999Z</time>
      </trkpt>
      <trkpt lat="47.39845" lon="6.71888">
        <ele>551.7</ele>
        <time>2017-02-12T10:06:54.999Z</time>
      </trkpt>
      <trkpt lat="47.39843" lon="6.71886">
        <ele>551.9</ele>
        <time>2017-02-12T10:06:55.999Z</time>
      </trkpt>
      <trkpt lat="47.39841" lon="6.71884">
        <ele>552</ele>
        <time>2017-02-12T10:06:56.999Z</time>
      </trkpt>
      <trkpt lat="47.39838" lon="6.71881">
        <ele>552.2</ele>
        <time>2017-02-12T10:06:58.999Z</time>
      </trkpt>
      <trkpt lat="47.39837" lon="6.71878">
        <ele>552.4</ele>
        <time>2017-02-12T10:06:59.999Z</time>
      </trkpt>
      <trkpt lat="47.39834" lon="6.71875">
        <ele>552.6</ele>
        <time>2017-02-12T10:07:01.999Z</time>
      </trkpt>
      <trkpt lat="47.39832" lon="6.71873">
        <ele>552.7</ele>
        <time>2017-02-12T10:07:02.999Z</time>
      </trkpt>
      <trkpt lat="47.3983" lon="6.71871">
        <ele>552.8</ele>
        <time>2017-02-12T10:07:03.999Z</time>
      </trkpt>
      <trkpt lat="47.39828" lon="6.71868">
        <ele>552.9</ele>
        <time>2017-02-12T10:07:04.999Z</time>
      </trkpt>
      <trkpt lat="47.39824" lon="6.71865">
        <ele>553.2</ele>
        <time>2017-02-12T10:07:06.999Z</time>
      </trkpt>
      <trkpt lat="47.39823" lon="6.71863">
        <ele>553.3</ele>
        <time>2017-02-12T10:07:07.999Z</time>
      </trkpt>
      <trkpt lat="47.39821" lon="6.71861">
        <ele>553.4</ele>
        <time>2017-02-12T10:07:08.999Z</time>
      </trkpt>
      <trkpt lat="47.39819" lon="6.71859">
        <ele>553.5</ele>
        <time>2017-02-12T10:07:09.999Z</time>
      </trkpt>
      <trkpt lat="47.39817" lon="6.71856">
        <ele>553.6</ele>
        <time>2017-02-12T10:07:10.999Z</time>
      </trkpt>
      <trkpt lat="47.39815" lon="6.71855">
        <ele>553.7</ele>
        <time>2017-02-12T10:07:11.999Z</time>
      </trkpt>
      <trkpt lat="47.39811" lon="6.71853">
        <ele>553.9</ele>
        <time>2017-02-12T10:07:13.999Z</time>
      </trkpt>
      <trkpt lat="47.3981" lon="6.71851">
        <ele>554</ele>
        <time>2017-02-12T10:07:14.999Z</time>
      </trkpt>
      <trkpt lat="47.39806" lon="6.7185">
        <ele>554.3</ele>
        <time>2017-02-12T10:07:16.999Z</time>
      </trkpt>
      <trkpt lat="47.39805" lon="6.71849">
        <ele>554.5</ele>
        <time>2017-02-12T10:07:17.999Z</time>
      </trkpt>
      <trkpt lat="47.39801" lon="6.71847">
        <ele>554.8</ele>
        <time>2017-02-12T10:07:19.999Z</time>
      </trkpt>
      <trkpt lat="47.398" lon="6.71845">
        <ele>555</ele>
        <time>2017-02-12T10:07:20.999Z</time>
      </trkpt>
      <trkpt lat="47.39796" lon="6.71843">
        <ele>555.4</ele>
        <time>2017-02-12T10:07:22.999Z</time>
      </trkpt>
      <trkpt lat="47.39793" lon="6.71843">
        <ele>555.6</ele>
        <time>2017-02-12T10:07:23.999Z</time>
      </trkpt>
      <trkpt lat="47.39789" lon="6.71841">
        <ele>556.2</ele>
        <time>2017-02-12T10:07:25.999Z</time>
      </trkpt>
      <trkpt lat="47.39787" lon="6.7184">
        <ele>556.5</ele>
        <time>2017-02-12T10:07:26.999Z</time>
      </trkpt>
      <trkpt lat="47.39783" lon="6.71838">
        <ele>557</ele>
        <time>2017-02-12T10:07:28.999Z</time>
      </trkpt>
      <trkpt lat="47.39781" lon="6.71836">
        <ele>557.3</ele>
        <time>2017-02-12T10:07:29.999Z</time>
      </trkpt>
      <trkpt lat="47.39779" lon="6.71834">
        <ele>557.5</ele>
        <time>2017-02-12T10:07:30.999Z</time>
      </trkpt>
      <trkpt lat="47.39777" lon="6.71833">
        <ele>557.7</ele>
        <time>2017-02-12T10:07:31.999Z</time>
      </trkpt>
      <trkpt lat="47.39773" lon="6.71831">
        <ele>558.3</ele>
        <time>2017-02-12T10:07:33.999Z</time>
      </trkpt>
      <trkpt lat="47.3977" lon="6.7183">
        <ele>558.6</ele>
        <time>2017-02-12T10:07:34.999Z</time>
      </trkpt>
      <trkpt lat="47.39766" lon="6.71827">
        <ele>559.1</ele>
        <time>2017-02-12T10:07:36.999Z</time>
      </trkpt>
      <trkpt lat="47.39764" lon="6.71825">
        <ele>559.3</ele>
        <time>2017-02-12T10:07:37.999Z</time>
      </trkpt>
      <trkpt lat="47.39762" lon="6.71824">
        <ele>559.5</ele>
        <time>2017-02-12T10:07:38.999Z</time>
      </trkpt>
      <trkpt lat="47.39759" lon="6.71823">
        <ele>559.8</ele>
        <time>2017-02-12T10:07:39.999Z</time>
      </trkpt>
      <trkpt lat="47.39756" lon="6.71822">
        <ele>560</ele>
        <time>2017-02-12T10:07:40.999Z</time>
      </trkpt>
      <trkpt lat="47.39754" lon="6.71821">
        <ele>560.2</ele>
        <time>2017-02-12T10:07:41.999Z</time>
      </trkpt>
      <trkpt lat="47.39751" lon="6.7182">
        <ele>560.4</ele>
        <time>2017-02-12T10:07:42.999Z</time>
      </trkpt>
      <trkpt lat="47.39749" lon="6.71819">
        <ele>560.5</ele>
        <time>2017-02-12T10:07:43.999Z</time>
      </trkpt>
      <trkpt lat="47.39746" lon="6.71818">
        <ele>560.7</ele>
        <time>2017-02-12T10:07:44.999Z</time>
      </trkpt>
      <trkpt lat="47.39744" lon="6.71817">
        <ele>560.8</ele>
        <time>2017-02-12T10:07:45.999Z</time>
      </trkpt>
      <trkpt lat="47.39741" lon="6.71815">
        <ele>561</ele>
        <time>2017-02-12T10:07:46.999Z</time>
      </trkpt>
      <trkpt lat="47.39739" lon="6.71813">
        <ele>561.1</ele>
        <time>2017-02-12T10:07:47.999Z</time>
      </trkpt>
      <trkpt lat="47.39736" lon="6.71812">
        <ele>561.3</ele>
        <time>2017-02-12T10:07:48.999Z</time>
      </trkpt>
      <trkpt lat="47.39734" lon="6.71811">
        <ele>561.5</ele>
        <time>2017-02-12T10:07:49.999Z</time>
      </trkpt>
      <trkpt lat="47.39731" lon="6.7181">
        <ele>561.7</ele>
        <time>2017-02-12T10:07:50.999Z</time>
      </trkpt>
      <trkpt lat="47.39728" lon="6.71809">
        <ele>561.9</ele>
        <time>2017-02-12T10:07:51.999Z</time>
      </trkpt>
      <trkpt lat="47.39725" lon="6.71809">
        <ele>562.2</ele>
        <time>2017-02-12T10:07:52.999Z</time>
      </trkpt>
      <trkpt lat="47.39722" lon="6.71808">
        <ele>562.6</ele>
        <time>2017-02-12T10:07:53.999Z</time>
      </trkpt>
      <trkpt lat="47.39718" lon="6.71807">
        <ele>562.9</ele>
        <time>2017-02-12T10:07:54.999Z</time>
      </trkpt>
      <trkpt lat="47.39716" lon="6.71806">
        <ele>563.3</ele>
        <time>2017-02-12T10:07:55.999Z</time>
      </trkpt>
      <trkpt lat="47.39713" lon="6.71806">
        <ele>563.7</ele>
        <time>2017-02-12T10:07:56.999Z</time>
      </trkpt>
      <trkpt lat="47.3971" lon="6.71806">
        <ele>564</ele>
        <time>2017-02-12T10:07:57.999Z</time>
      </trkpt>
      <trkpt lat="47.39708" lon="6.71805">
        <ele>564.4</ele>
        <time>2017-02-12T10:07:58.999Z</time>
      </trkpt>
      <trkpt lat="47.39705" lon="6.71805">
        <ele>564.7</ele>
        <time>2017-02-12T10:07:59.999Z</time>
      </trkpt>
      <trkpt lat="47.39702" lon="6.71806">
        <ele>565</ele>
        <time>2017-02-12T10:08:00.999Z</time>
      </trkpt>
      <trkpt lat="47.397" lon="6.71807">
        <ele>565.3</ele>
        <time>2017-02-12T10:08:01.999Z</time>
      </trkpt>
      <trkpt lat="47.39697" lon="6.71807">
        <ele>565.7</ele>
        <time>2017-02-12T10:08:02.999Z</time>
      </trkpt>
      <trkpt lat="47.39694" lon="6.71808">
        <ele>566</ele>
        <time>2017-02-12T10:08:03.999Z</time>
      </trkpt>
      <trkpt lat="47.39689" lon="6.7181">
        <ele>566.7</ele>
        <time>2017-02-12T10:08:05.999Z</time>
      </trkpt>
      <trkpt lat="47.39687" lon="6.7181">
        <ele>567</ele>
        <time>2017-02-12T10:08:06.999Z</time>
      </trkpt>
      <trkpt lat="47.39683" lon="6.71812">
        <ele>567.5</ele>
        <time>2017-02-12T10:08:08.999Z</time>
      </trkpt>
      <trkpt lat="47.39681" lon="6.71813">
        <ele>567.8</ele>
        <time>2017-02-12T10:08:09.999Z</time>
      </trkpt>
      <trkpt lat="47.39676" lon="6.71814">
        <ele>568.2</ele>
        <time>2017-02-12T10:08:11.999Z</time>
      </trkpt>
      <trkpt lat="47.39674" lon="6.71814">
        <ele>568.3</ele>
        <time>2017-02-12T10:08:12.999Z</time>
      </trkpt>
      <trkpt lat="47.39672" lon="6.71815">
        <ele>568.6</ele>
        <time>2017-02-12T10:08:13.999Z</time>
      </trkpt>
      <trkpt lat="47.39669" lon="6.71816">
        <ele>568.8</ele>
        <time>2017-02-12T10:08:14.999Z</time>
      </trkpt>
      <trkpt lat="47.39667" lon="6.71818">
        <ele>568.9</ele>
        <time>2017-02-12T10:08:15.999Z</time>
      </trkpt>
      <trkpt lat="47.39664" lon="6.71819">
        <ele>569</ele>
        <time>2017-02-12T10:08:16.999Z</time>
      </trkpt>
      <trkpt lat="47.39661" lon="6.7182">
        <ele>569.2</ele>
        <time>2017-02-12T10:08:17.999Z</time>
      </trkpt>
      <trkpt lat="47.39658" lon="6.71821">
        <ele>569.2</ele>
        <time>2017-02-12T10:08:18.999Z</time>
      </trkpt>
      <trkpt lat="47.39655" lon="6.71824">
        <ele>569.3</ele>
        <time>2017-02-12T10:08:19.999Z</time>
      </trkpt>
      <trkpt lat="47.39652" lon="6.71826">
        <ele>569.4</ele>
        <time>2017-02-12T10:08:20.999Z</time>
      </trkpt>
      <trkpt lat="47.3965" lon="6.71829">
        <ele>569.6</ele>
        <time>2017-02-12T10:08:21.999Z</time>
      </trkpt>
      <trkpt lat="47.39648" lon="6.7183">
        <ele>569.7</ele>
        <time>2017-02-12T10:08:22.999Z</time>
      </trkpt>
      <trkpt lat="47.39646" lon="6.7183">
        <ele>569.9</ele>
        <time>2017-02-12T10:08:23.999Z</time>
      </trkpt>
      <trkpt lat="47.39643" lon="6.71832">
        <ele>570.1</ele>
        <time>2017-02-12T10:08:24.999Z</time>
      </trkpt>
      <trkpt lat="47.39641" lon="6.71834">
        <ele>570.2</ele>
        <time>2017-02-12T10:08:25.999Z</time>
      </trkpt>
      <trkpt lat="47.39638" lon="6.71835">
        <ele>570.4</ele>
        <time>2017-02-12T10:08:26.999Z</time>
      </trkpt>
      <trkpt lat="47.39636" lon="6.71837">
        <ele>570.7</ele>
        <time>2017-02-12T10:08:27.999Z</time>
      </trkpt>
      <trkpt lat="47.39633" lon="6.71838">
        <ele>571</ele>
        <time>2017-02-12T10:08:28.999Z</time>
      </trkpt>
      <trkpt lat="47.3963" lon="6.71839">
        <ele>571.3</ele>
        <time>2017-02-12T10:08:29.999Z</time>
      </trkpt>
      <trkpt lat="47.39627" lon="6.71841">
        <ele>571.6</ele>
        <time>2017-02-12T10:08:30.999Z</time>
      </trkpt>
      <trkpt lat="47.39624" lon="6.71843">
        <ele>571.9</ele>
        <time>2017-02-12T10:08:31.999Z</time>
      </trkpt>
      <trkpt lat="47.39621" lon="6.71843">
        <ele>572.2</ele>
        <time>2017-02-12T10:08:32.999Z</time>
      </trkpt>
      <trkpt lat="47.39617" lon="6.71842">
        <ele>572.7</ele>
        <time>2017-02-12T10:08:34.999Z</time>
      </trkpt>
      <trkpt lat="47.39616" lon="6.71841">
        <ele>572.9</ele>
        <time>2017-02-12T10:08:35.999Z</time>
      </trkpt>
      <trkpt lat="47.39614" lon="6.71835">
        <ele>573.6</ele>
        <time>2017-02-12T10:08:40.999Z</time>
      </trkpt>
      <trkpt lat="47.39615" lon="6.71832">
        <ele>573.7</ele>
        <time>2017-02-12T10:08:41.999Z</time>
      </trkpt>
      <trkpt lat="47.39616" lon="6.71828">
        <ele>573.8</ele>
        <time>2017-02-12T10:08:43.999Z</time>
      </trkpt>
      <trkpt lat="47.39616" lon="6.71824">
        <ele>573.9</ele>
        <time>2017-02-12T10:08:44.999Z</time>
      </trkpt>
      <trkpt lat="47.39617" lon="6.71818">
        <ele>574</ele>
        <time>2017-02-12T10:08:46.999Z</time>
      </trkpt>
      <trkpt lat="47.39617" lon="6.71815">
        <ele>574</ele>
        <time>2017-02-12T10:08:47.999Z</time>
      </trkpt>
      <trkpt lat="47.39618" lon="6.71811">
        <ele>574.1</ele>
        <time>2017-02-12T10:08:48.999Z</time>
      </trkpt>
      <trkpt lat="47.39618" lon="6.71808">
        <ele>574.3</ele>
        <time>2017-02-12T10:08:49.999Z</time>
      </trkpt>
      <trkpt lat="47.39618" lon="6.71805">
        <ele>574.4</ele>
        <time>2017-02-12T10:08:50.999Z</time>
      </trkpt>
      <trkpt lat="47.39618" lon="6.71801">
        <ele>574.4</ele>
        <time>2017-02-12T10:08:51.999Z</time>
      </trkpt>
      <trkpt lat="47.39618" lon="6.71796">
        <ele>574.5</ele>
        <time>2017-02-12T10:08:52.999Z</time>
      </trkpt>
      <trkpt lat="47.39619" lon="6.71792">
        <ele>574.5</ele>
        <time>2017-02-12T10:08:53.999Z</time>
      </trkpt>
      <trkpt lat="47.39619" lon="6.71787">
        <ele>574.6</ele>
        <time>2017-02-12T10:08:54.999Z</time>
      </trkpt>
      <trkpt lat="47.3962" lon="6.71784">
        <ele>574.6</ele>
        <time>2017-02-12T10:08:55.999Z</time>
      </trkpt>
      <trkpt lat="47.3962" lon="6.7178">
        <ele>574.6</ele>
        <time>2017-02-12T10:08:56.999Z</time>
      </trkpt>
      <trkpt lat="47.3962" lon="6.71775">
        <ele>574.7</ele>
        <time>2017-02-12T10:08:57.999Z</time>
      </trkpt>
      <trkpt lat="47.39621" lon="6.71769">
        <ele>574.9</ele>
        <time>2017-02-12T10:08:59.999Z</time>
      </trkpt>
      <trkpt lat="47.39621" lon="6.71766">
        <ele>575.1</ele>
        <time>2017-02-12T10:09:00.999Z</time>
      </trkpt>
      <trkpt lat="47.39622" lon="6.71761">
        <ele>575.3</ele>
        <time>2017-02-12T10:09:01.999Z</time>
      </trkpt>
      <trkpt lat="47.39623" lon="6.71758">
        <ele>575.5</ele>
        <time>2017-02-12T10:09:02.999Z</time>
      </trkpt>
      <trkpt lat="47.39624" lon="6.71754">
        <ele>575.7</ele>
        <time>2017-02-12T10:09:03.999Z</time>
      </trkpt>
      <trkpt lat="47.39624" lon="6.7175">
        <ele>575.9</ele>
        <time>2017-02-12T10:09:04.999Z</time>
      </trkpt>
      <trkpt lat="47.39625" lon="6.71744">
        <ele>576.2</ele>
        <time>2017-02-12T10:09:06.999Z</time>
      </trkpt>
      <trkpt lat="47.39625" lon="6.71741">
        <ele>576.4</ele>
        <time>2017-02-12T10:09:07.999Z</time>
      </trkpt>
      <trkpt lat="47.39625" lon="6.71737">
        <ele>576.5</ele>
        <time>2017-02-12T10:09:08.999Z</time>
      </trkpt>
      <trkpt lat="47.39625" lon="6.71734">
        <ele>576.7</ele>
        <time>2017-02-12T10:09:09.999Z</time>
      </trkpt>
      <trkpt lat="47.39626" lon="6.71728">
        <ele>577</ele>
        <time>2017-02-12T10:09:11.999Z</time>
      </trkpt>
      <trkpt lat="47.39627" lon="6.71724">
        <ele>577.1</ele>
        <time>2017-02-12T10:09:12.999Z</time>
      </trkpt>
      <trkpt lat="47.39627" lon="6.7172">
        <ele>577.3</ele>
        <time>2017-02-12T10:09:13.999Z</time>
      </trkpt>
      <trkpt lat="47.39627" lon="6.71717">
        <ele>577.4</ele>
        <time>2017-02-12T10:09:14.999Z</time>
      </trkpt>
      <trkpt lat="47.39628" lon="6.71711">
        <ele>577.6</ele>
        <time>2017-02-12T10:09:16.999Z</time>
      </trkpt>
      <trkpt lat="47.39628" lon="6.71708">
        <ele>577.7</ele>
        <time>2017-02-12T10:09:17.999Z</time>
      </trkpt>
      <trkpt lat="47.39629" lon="6.71701">
        <ele>577.9</ele>
        <time>2017-02-12T10:09:19.999Z</time>
      </trkpt>
      <trkpt lat="47.3963" lon="6.71698">
        <ele>578.1</ele>
        <time>2017-02-12T10:09:20.999Z</time>
      </trkpt>
      <trkpt lat="47.3963" lon="6.71695">
        <ele>578.2</ele>
        <time>2017-02-12T10:09:21.999Z</time>
      </trkpt>
      <trkpt lat="47.39631" lon="6.71692">
        <ele>578.3</ele>
        <time>2017-02-12T10:09:22.999Z</time>
      </trkpt>
      <trkpt lat="47.39631" lon="6.71686">
        <ele>578.4</ele>
        <time>2017-02-12T10:09:24.999Z</time>
      </trkpt>
      <trkpt lat="47.39631" lon="6.71682">
        <ele>578.4</ele>
        <time>2017-02-12T10:09:25.999Z</time>
      </trkpt>
      <trkpt lat="47.3963" lon="6.71679">
        <ele>578.4</ele>
        <time>2017-02-12T10:09:26.999Z</time>
      </trkpt>
      <trkpt lat="47.3963" lon="6.71675">
        <ele>578.5</ele>
        <time>2017-02-12T10:09:27.999Z</time>
      </trkpt>
      <trkpt lat="47.3963" lon="6.71669">
        <ele>578.4</ele>
        <time>2017-02-12T10:09:29.999Z</time>
      </trkpt>
      <trkpt lat="47.39631" lon="6.71666">
        <ele>578.4</ele>
        <time>2017-02-12T10:09:30.999Z</time>
      </trkpt>
      <trkpt lat="47.39631" lon="6.71662">
        <ele>578.3</ele>
        <time>2017-02-12T10:09:31.999Z</time>
      </trkpt>
      <trkpt lat="47.39631" lon="6.71658">
        <ele>578.3</ele>
        <time>2017-02-12T10:09:32.999Z</time>
      </trkpt>
      <trkpt lat="47.39632" lon="6.71653">
        <ele>578.2</ele>
        <time>2017-02-12T10:09:33.999Z</time>
      </trkpt>
      <trkpt lat="47.39632" lon="6.71648">
        <ele>578.1</ele>
        <time>2017-02-12T10:09:34.999Z</time>
      </trkpt>
      <trkpt lat="47.39633" lon="6.71642">
        <ele>578.1</ele>
        <time>2017-02-12T10:09:35.999Z</time>
      </trkpt>
      <trkpt lat="47.39633" lon="6.71636">
        <ele>578.2</ele>
        <time>2017-02-12T10:09:36.999Z</time>
      </trkpt>
      <trkpt lat="47.39633" lon="6.71632">
        <ele>578.2</ele>
        <time>2017-02-12T10:09:37.999Z</time>
      </trkpt>
      <trkpt lat="47.39633" lon="6.71628">
        <ele>578.3</ele>
        <time>2017-02-12T10:09:38.999Z</time>
      </trkpt>
      <trkpt lat="47.39633" lon="6.71624">
        <ele>578.4</ele>
        <time>2017-02-12T10:09:39.999Z</time>
      </trkpt>
      <trkpt lat="47.39633" lon="6.71621">
        <ele>578.5</ele>
        <time>2017-02-12T10:09:40.999Z</time>
      </trkpt>
      <trkpt lat="47.39633" lon="6.71616">
        <ele>578.5</ele>
        <time>2017-02-12T10:09:41.999Z</time>
      </trkpt>
      <trkpt lat="47.39633" lon="6.71612">
        <ele>578.5</ele>
        <time>2017-02-12T10:09:42.999Z</time>
      </trkpt>
      <trkpt lat="47.39633" lon="6.71606">
        <ele>578.8</ele>
        <time>2017-02-12T10:09:44.999Z</time>
      </trkpt>
      <trkpt lat="47.39633" lon="6.71603">
        <ele>578.9</ele>
        <time>2017-02-12T10:09:45.999Z</time>
      </trkpt>
      <trkpt lat="47.39634" lon="6.71597">
        <ele>579</ele>
        <time>2017-02-12T10:09:47.999Z</time>
      </trkpt>
      <trkpt lat="47.39634" lon="6.71593">
        <ele>579.1</ele>
        <time>2017-02-12T10:09:48.999Z</time>
      </trkpt>
      <trkpt lat="47.39635" lon="6.71589">
        <ele>579.1</ele>
        <time>2017-02-12T10:09:49.999Z</time>
      </trkpt>
      <trkpt lat="47.39635" lon="6.71585">
        <ele>579.1</ele>
        <time>2017-02-12T10:09:50.999Z</time>
      </trkpt>
      <trkpt lat="47.39635" lon="6.7158">
        <ele>579.1</ele>
        <time>2017-02-12T10:09:51.999Z</time>
      </trkpt>
      <trkpt lat="47.39635" lon="6.71576">
        <ele>579.2</ele>
        <time>2017-02-12T10:09:52.999Z</time>
      </trkpt>
      <trkpt lat="47.39636" lon="6.71571">
        <ele>579.2</ele>
        <time>2017-02-12T10:09:53.999Z</time>
      </trkpt>
      <trkpt lat="47.39636" lon="6.71568">
        <ele>579.2</ele>
        <time>2017-02-12T10:09:54.999Z</time>
      </trkpt>
      <trkpt lat="47.39635" lon="6.71562">
        <ele>579.3</ele>
        <time>2017-02-12T10:09:55.999Z</time>
      </trkpt>
      <trkpt lat="47.39635" lon="6.71558">
        <ele>579.3</ele>
        <time>2017-02-12T10:09:56.999Z</time>
      </trkpt>
      <trkpt lat="47.39636" lon="6.71552">
        <ele>579.3</ele>
        <time>2017-02-12T10:09:57.999Z</time>
      </trkpt>
      <trkpt lat="47.39635" lon="6.71547">
        <ele>579.4</ele>
        <time>2017-02-12T10:09:58.999Z</time>
      </trkpt>
      <trkpt lat="47.39635" lon="6.71543">
        <ele>579.3</ele>
        <time>2017-02-12T10:09:59.999Z</time>
      </trkpt>
      <trkpt lat="47.39635" lon="6.71538">
        <ele>579.4</ele>
        <time>2017-02-12T10:10:00.999Z</time>
      </trkpt>
      <trkpt lat="47.39635" lon="6.71533">
        <ele>579.4</ele>
        <time>2017-02-12T10:10:01.999Z</time>
      </trkpt>
      <trkpt lat="47.39634" lon="6.7153">
        <ele>579.5</ele>
        <time>2017-02-12T10:10:02.999Z</time>
      </trkpt>
      <trkpt lat="47.39633" lon="6.71526">
        <ele>579.6</ele>
        <time>2017-02-12T10:10:03.999Z</time>
      </trkpt>
      <trkpt lat="47.39632" lon="6.71521">
        <ele>579.7</ele>
        <time>2017-02-12T10:10:04.999Z</time>
      </trkpt>
      <trkpt lat="47.39631" lon="6.71517">
        <ele>579.8</ele>
        <time>2017-02-12T10:10:05.999Z</time>
      </trkpt>
      <trkpt lat="47.3963" lon="6.71513">
        <ele>579.9</ele>
        <time>2017-02-12T10:10:06.999Z</time>
      </trkpt>
      <trkpt lat="47.3963" lon="6.71507">
        <ele>580</ele>
        <time>2017-02-12T10:10:07.999Z</time>
      </trkpt>
      <trkpt lat="47.39629" lon="6.71501">
        <ele>580.1</ele>
        <time>2017-02-12T10:10:08.999Z</time>
      </trkpt>
      <trkpt lat="47.39628" lon="6.71497">
        <ele>580.2</ele>
        <time>2017-02-12T10:10:09.999Z</time>
      </trkpt>
      <trkpt lat="47.39628" lon="6.71491">
        <ele>580.3</ele>
        <time>2017-02-12T10:10:10.999Z</time>
      </trkpt>
      <trkpt lat="47.39627" lon="6.71488">
        <ele>580.4</ele>
        <time>2017-02-12T10:10:11.999Z</time>
      </trkpt>
      <trkpt lat="47.39627" lon="6.71483">
        <ele>580.4</ele>
        <time>2017-02-12T10:10:12.999Z</time>
      </trkpt>
      <trkpt lat="47.39627" lon="6.71478">
        <ele>580.7</ele>
        <time>2017-02-12T10:10:17.999Z</time>
      </trkpt>
      <trkpt lat="47.39628" lon="6.71477">
        <ele>580.8</ele>
        <time>2017-02-12T10:10:18.999Z</time>
      </trkpt>
      <trkpt lat="47.39631" lon="6.71478">
        <ele>581.2</ele>
        <time>2017-02-12T10:10:25.999Z</time>
      </trkpt>
      <trkpt lat="47.39632" lon="6.71479">
        <ele>581.2</ele>
        <time>2017-02-12T10:10:26.999Z</time>
      </trkpt>
      <trkpt lat="47.39636" lon="6.71482">
        <ele>581.7</ele>
        <time>2017-02-12T10:10:29.999Z</time>
      </trkpt>
      <trkpt lat="47.39637" lon="6.71482">
        <ele>582</ele>
        <time>2017-02-12T10:10:30.999Z</time>
      </trkpt>
      <trkpt lat="47.3964" lon="6.7148">
        <ele>583.2</ele>
        <time>2017-02-12T10:10:36.999Z</time>
      </trkpt>
      <trkpt lat="47.3964" lon="6.71478">
        <ele>583.3</ele>
        <time>2017-02-12T10:10:37.999Z</time>
      </trkpt>
      <trkpt lat="47.39639" lon="6.71471">
        <ele>583.5</ele>
        <time>2017-02-12T10:10:50.999Z</time>
      </trkpt>
      <trkpt lat="47.39639" lon="6.71471">
        <ele>583.5</ele>
        <time>2017-02-12T10:10:51.999Z</time>
      </trkpt>
      <trkpt lat="47.39642" lon="6.71471">
        <ele>585.6</ele>
        <time>2017-02-12T10:12:07.999Z</time>
      </trkpt>
      <trkpt lat="47.39645" lon="6.7147">
        <ele>585.7</ele>
        <time>2017-02-12T10:12:08.999Z</time>
      </trkpt>
      <trkpt lat="47.39649" lon="6.71469">
        <ele>587.6</ele>
        <time>2017-02-12T10:12:09.999Z</time>
      </trkpt>
      <trkpt lat="47.39653" lon="6.71466">
        <ele>588.8</ele>
        <time>2017-02-12T10:12:10.999Z</time>
      </trkpt>
      <trkpt lat="47.39658" lon="6.71464">
        <ele>589.3</ele>
        <time>2017-02-12T10:12:11.999Z</time>
      </trkpt>
      <trkpt lat="47.39663" lon="6.71462">
        <ele>589.5</ele>
        <time>2017-02-12T10:12:12.999Z</time>
      </trkpt>
      <trkpt lat="47.39668" lon="6.71459">
        <ele>589.4</ele>
        <time>2017-02-12T10:12:13.999Z</time>
      </trkpt>
      <trkpt lat="47.39674" lon="6.71455">
        <ele>589.3</ele>
        <time>2017-02-12T10:12:14.999Z</time>
      </trkpt>
      <trkpt lat="47.3968" lon="6.71451">
        <ele>589</ele>
        <time>2017-02-12T10:12:15.999Z</time>
      </trkpt>
      <trkpt lat="47.39686" lon="6.71448">
        <ele>588.5</ele>
        <time>2017-02-12T10:12:16.999Z</time>
      </trkpt>
      <trkpt lat="47.39692" lon="6.71443">
        <ele>587.1</ele>
        <time>2017-02-12T10:12:17.999Z</time>
      </trkpt>
      <trkpt lat="47.397" lon="6.71438">
        <ele>585.9</ele>
        <time>2017-02-12T10:12:18.999Z</time>
      </trkpt>
      <trkpt lat="47.39707" lon="6.71434">
        <ele>585.3</ele>
        <time>2017-02-12T10:12:19.999Z</time>
      </trkpt>
      <trkpt lat="47.39714" lon="6.71429">
        <ele>584.9</ele>
        <time>2017-02-12T10:12:20.999Z</time>
      </trkpt>
      <trkpt lat="47.3972" lon="6.71425">
        <ele>584.3</ele>
        <time>2017-02-12T10:12:21.999Z</time>
      </trkpt>
      <trkpt lat="47.39727" lon="6.7142">
        <ele>583.6</ele>
        <time>2017-02-12T10:12:22.999Z</time>
      </trkpt>
      <trkpt lat="47.39733" lon="6.71416">
        <ele>582.6</ele>
        <time>2017-02-12T10:12:23.999Z</time>
      </trkpt>
      <trkpt lat="47.3974" lon="6.71411">
        <ele>581.9</ele>
        <time>2017-02-12T10:12:24.999Z</time>
      </trkpt>
      <trkpt lat="47.39747" lon="6.71406">
        <ele>581.7</ele>
        <time>2017-02-12T10:12:25.999Z</time>
      </trkpt>
      <trkpt lat="47.39755" lon="6.71401">
        <ele>581.3</ele>
        <time>2017-02-12T10:12:26.999Z</time>
      </trkpt>
      <trkpt lat="47.39762" lon="6.71396">
        <ele>581.2</ele>
        <time>2017-02-12T10:12:27.999Z</time>
      </trkpt>
      <trkpt lat="47.3977" lon="6.7139">
        <ele>581.1</ele>
        <time>2017-02-12T10:12:28.999Z</time>
      </trkpt>
      <trkpt lat="47.39778" lon="6.71383">
        <ele>580.9</ele>
        <time>2017-02-12T10:12:29.999Z</time>
      </trkpt>
      <trkpt lat="47.39785" lon="6.71377">
        <ele>580.6</ele>
        <time>2017-02-12T10:12:30.999Z</time>
      </trkpt>
      <trkpt lat="47.39793" lon="6.71371">
        <ele>579.6</ele>
        <time>2017-02-12T10:12:31.999Z</time>
      </trkpt>
      <trkpt lat="47.398" lon="6.71365">
        <ele>578.8</ele>
        <time>2017-02-12T10:12:32.999Z</time>
      </trkpt>
      <trkpt lat="47.39806" lon="6.71359">
        <ele>577.5</ele>
        <time>2017-02-12T10:12:33.999Z</time>
      </trkpt>
      <trkpt lat="47.39812" lon="6.71353">
        <ele>575.6</ele>
        <time>2017-02-12T10:12:34.999Z</time>
      </trkpt>
      <trkpt lat="47.3982" lon="6.71347">
        <ele>574.6</ele>
        <time>2017-02-12T10:12:35.999Z</time>
      </trkpt>
      <trkpt lat="47.39827" lon="6.7134">
        <ele>573.3</ele>
        <time>2017-02-12T10:12:36.999Z</time>
      </trkpt>
      <trkpt lat="47.39836" lon="6.71332">
        <ele>572.2</ele>
        <time>2017-02-12T10:12:37.999Z</time>
      </trkpt>
      <trkpt lat="47.39844" lon="6.71326">
        <ele>570.9</ele>
        <time>2017-02-12T10:12:38.999Z</time>
      </trkpt>
      <trkpt lat="47.39854" lon="6.7132">
        <ele>569.9</ele>
        <time>2017-02-12T10:12:39.999Z</time>
      </trkpt>
      <trkpt lat="47.39863" lon="6.71318">
        <ele>569.4</ele>
        <time>2017-02-12T10:12:40.999Z</time>
      </trkpt>
      <trkpt lat="47.39873" lon="6.71316">
        <ele>568.9</ele>
        <time>2017-02-12T10:12:41.999Z</time>
      </trkpt>
      <trkpt lat="47.39881" lon="6.71318">
        <ele>568.6</ele>
        <time>2017-02-12T10:12:42.999Z</time>
      </trkpt>
      <trkpt lat="47.39889" lon="6.7132">
        <ele>568.1</ele>
        <time>2017-02-12T10:12:43.999Z</time>
      </trkpt>
      <trkpt lat="47.39896" lon="6.71322">
        <ele>568.7</ele>
        <time>2017-02-12T10:12:44.999Z</time>
      </trkpt>
      <trkpt lat="47.39904" lon="6.71323">
        <ele>568.7</ele>
        <time>2017-02-12T10:12:45.999Z</time>
      </trkpt>
      <trkpt lat="47.39911" lon="6.71321">
        <ele>568.9</ele>
        <time>2017-02-12T10:12:46.999Z</time>
      </trkpt>
      <trkpt lat="47.39919" lon="6.71319">
        <ele>568.4</ele>
        <time>2017-02-12T10:12:47.999Z</time>
      </trkpt>
      <trkpt lat="47.39926" lon="6.71313">
        <ele>567.5</ele>
        <time>2017-02-12T10:12:48.999Z</time>
      </trkpt>
      <trkpt lat="47.39934" lon="6.71306">
        <ele>566.7</ele>
        <time>2017-02-12T10:12:49.999Z</time>
      </trkpt>
      <trkpt lat="47.39941" lon="6.71299">
        <ele>566.5</ele>
        <time>2017-02-12T10:12:50.999Z</time>
      </trkpt>
      <trkpt lat="47.39947" lon="6.71293">
        <ele>565.9</ele>
        <time>2017-02-12T10:12:51.999Z</time>
      </trkpt>
      <trkpt lat="47.39952" lon="6.71287">
        <ele>565.3</ele>
        <time>2017-02-12T10:12:52.999Z</time>
      </trkpt>
      <trkpt lat="47.39957" lon="6.71281">
        <ele>564.9</ele>
        <time>2017-02-12T10:12:53.999Z</time>
      </trkpt>
      <trkpt lat="47.39964" lon="6.71272">
        <ele>564.8</ele>
        <time>2017-02-12T10:12:54.999Z</time>
      </trkpt>
      <trkpt lat="47.39969" lon="6.71264">
        <ele>564.6</ele>
        <time>2017-02-12T10:12:55.999Z</time>
      </trkpt>
      <trkpt lat="47.39974" lon="6.71255">
        <ele>564.6</ele>
        <time>2017-02-12T10:12:56.999Z</time>
      </trkpt>
      <trkpt lat="47.3998" lon="6.71246">
        <ele>564.5</ele>
        <time>2017-02-12T10:12:57.999Z</time>
      </trkpt>
      <trkpt lat="47.39985" lon="6.71237">
        <ele>564.4</ele>
        <time>2017-02-12T10:12:58.999Z</time>
      </trkpt>
      <trkpt lat="47.39989" lon="6.71229">
        <ele>564.6</ele>
        <time>2017-02-12T10:12:59.999Z</time>
      </trkpt>
      <trkpt lat="47.39993" lon="6.71222">
        <ele>564.3</ele>
        <time>2017-02-12T10:13:00.999Z</time>
      </trkpt>
      <trkpt lat="47.39997" lon="6.71218">
        <ele>563.7</ele>
        <time>2017-02-12T10:13:01.999Z</time>
      </trkpt>
      <trkpt lat="47.40001" lon="6.71214">
        <ele>564</ele>
        <time>2017-02-12T10:13:02.999Z</time>
      </trkpt>
      <trkpt lat="47.40002" lon="6.71209">
        <ele>564.1</ele>
        <time>2017-02-12T10:13:03.999Z</time>
      </trkpt>
      <trkpt lat="47.40003" lon="6.71203">
        <ele>564.2</ele>
        <time>2017-02-12T10:13:04.999Z</time>
      </trkpt>
      <trkpt lat="47.40003" lon="6.71197">
        <ele>565.1</ele>
        <time>2017-02-12T10:13:05.999Z</time>
      </trkpt>
      <trkpt lat="47.40003" lon="6.71193">
        <ele>565.2</ele>
        <time>2017-02-12T10:13:06.999Z</time>
      </trkpt>
      <trkpt lat="47.40002" lon="6.71188">
        <ele>565.2</ele>
        <time>2017-02-12T10:13:07.999Z</time>
      </trkpt>
      <trkpt lat="47.40003" lon="6.71184">
        <ele>565.3</ele>
        <time>2017-02-12T10:13:08.999Z</time>
      </trkpt>
      <trkpt lat="47.40004" lon="6.7118">
        <ele>565.4</ele>
        <time>2017-02-12T10:13:09.999Z</time>
      </trkpt>
      <trkpt lat="47.40004" lon="6.71175">
        <ele>565.5</ele>
        <time>2017-02-12T10:13:10.999Z</time>
      </trkpt>
      <trkpt lat="47.40004" lon="6.71169">
        <ele>565.6</ele>
        <time>2017-02-12T10:13:11.999Z</time>
      </trkpt>
      <trkpt lat="47.40004" lon="6.71164">
        <ele>565.8</ele>
        <time>2017-02-12T10:13:12.999Z</time>
      </trkpt>
      <trkpt lat="47.40005" lon="6.71158">
        <ele>565.9</ele>
        <time>2017-02-12T10:13:13.999Z</time>
      </trkpt>
      <trkpt lat="47.40005" lon="6.71153">
        <ele>566</ele>
        <time>2017-02-12T10:13:14.999Z</time>
      </trkpt>
      <trkpt lat="47.40005" lon="6.71147">
        <ele>566.2</ele>
        <time>2017-02-12T10:13:15.999Z</time>
      </trkpt>
      <trkpt lat="47.40004" lon="6.71142">
        <ele>566.3</ele>
        <time>2017-02-12T10:13:16.999Z</time>
      </trkpt>
      <trkpt lat="47.40003" lon="6.71137">
        <ele>566.4</ele>
        <time>2017-02-12T10:13:17.999Z</time>
      </trkpt>
      <trkpt lat="47.40002" lon="6.71132">
        <ele>566.5</ele>
        <time>2017-02-12T10:13:18.999Z</time>
      </trkpt>
      <trkpt lat="47.40001" lon="6.71128">
        <ele>566.7</ele>
        <time>2017-02-12T10:13:19.999Z</time>
      </trkpt>
      <trkpt lat="47.4" lon="6.71123">
        <ele>566.8</ele>
        <time>2017-02-12T10:13:20.999Z</time>
      </trkpt>
      <trkpt lat="47.39999" lon="6.71118">
        <ele>567</ele>
        <time>2017-02-12T10:13:21.999Z</time>
      </trkpt>
      <trkpt lat="47.39998" lon="6.71112">
        <ele>567.2</ele>
        <time>2017-02-12T10:13:22.999Z</time>
      </trkpt>
      <trkpt lat="47.39996" lon="6.71105">
        <ele>567.4</ele>
        <time>2017-02-12T10:13:23.999Z</time>
      </trkpt>
      <trkpt lat="47.39995" lon="6.71097">
        <ele>567.5</ele>
        <time>2017-02-12T10:13:24.999Z</time>
      </trkpt>
      <trkpt lat="47.39995" lon="6.71092">
        <ele>567.7</ele>
        <time>2017-02-12T10:13:25.999Z</time>
      </trkpt>
      <trkpt lat="47.39994" lon="6.71086">
        <ele>567.8</ele>
        <time>2017-02-12T10:13:26.999Z</time>
      </trkpt>
      <trkpt lat="47.39993" lon="6.7108">
        <ele>568.1</ele>
        <time>2017-02-12T10:13:27.999Z</time>
      </trkpt>
      <trkpt lat="47.39993" lon="6.71074">
        <ele>568.2</ele>
        <time>2017-02-12T10:13:28.999Z</time>
      </trkpt>
      <trkpt lat="47.39992" lon="6.71069">
        <ele>568.4</ele>
        <time>2017-02-12T10:13:29.999Z</time>
      </trkpt>
      <trkpt lat="47.39992" lon="6.71065">
        <ele>568.6</ele>
        <time>2017-02-12T10:13:30.999Z</time>
      </trkpt>
      <trkpt lat="47.39992" lon="6.71059">
        <ele>568.8</ele>
        <time>2017-02-12T10:13:31.999Z</time>
      </trkpt>
      <trkpt lat="47.39991" lon="6.71054">
        <ele>568.9</ele>
        <time>2017-02-12T10:13:32.999Z</time>
      </trkpt>
      <trkpt lat="47.39989" lon="6.71048">
        <ele>569</ele>
        <time>2017-02-12T10:13:33.999Z</time>
      </trkpt>
      <trkpt lat="47.39989" lon="6.71043">
        <ele>569.2</ele>
        <time>2017-02-12T10:13:34.999Z</time>
      </trkpt>
      <trkpt lat="47.39988" lon="6.71036">
        <ele>569.3</ele>
        <time>2017-02-12T10:13:35.999Z</time>
      </trkpt>
      <trkpt lat="47.39987" lon="6.71029">
        <ele>570</ele>
        <time>2017-02-12T10:13:36.999Z</time>
      </trkpt>
      <trkpt lat="47.39986" lon="6.71021">
        <ele>570</ele>
        <time>2017-02-12T10:13:37.999Z</time>
      </trkpt>
      <trkpt lat="47.39983" lon="6.71011">
        <ele>570.6</ele>
        <time>2017-02-12T10:13:38.999Z</time>
      </trkpt>
      <trkpt lat="47.3998" lon="6.71001">
        <ele>570.9</ele>
        <time>2017-02-12T10:13:39.999Z</time>
      </trkpt>
      <trkpt lat="47.39978" lon="6.70991">
        <ele>570.9</ele>
        <time>2017-02-12T10:13:40.999Z</time>
      </trkpt>
      <trkpt lat="47.39976" lon="6.70983">
        <ele>571.2</ele>
        <time>2017-02-12T10:13:41.999Z</time>
      </trkpt>
      <trkpt lat="47.39974" lon="6.70974">
        <ele>571.9</ele>
        <time>2017-02-12T10:13:42.999Z</time>
      </trkpt>
      <trkpt lat="47.39971" lon="6.70963">
        <ele>572.1</ele>
        <time>2017-02-12T10:13:43.999Z</time>
      </trkpt>
      <trkpt lat="47.3997" lon="6.70955">
        <ele>572.4</ele>
        <time>2017-02-12T10:13:44.999Z</time>
      </trkpt>
      <trkpt lat="47.39967" lon="6.70947">
        <ele>572.4</ele>
        <time>2017-02-12T10:13:45.999Z</time>
      </trkpt>
      <trkpt lat="47.39966" lon="6.70942">
        <ele>572.4</ele>
        <time>2017-02-12T10:13:46.999Z</time>
      </trkpt>
      <trkpt lat="47.39966" lon="6.70938">
        <ele>572.4</ele>
        <time>2017-02-12T10:13:47.999Z</time>
      </trkpt>
      <trkpt lat="47.39964" lon="6.70934">
        <ele>572.5</ele>
        <time>2017-02-12T10:13:49.999Z</time>
      </trkpt>
      <trkpt lat="47.39965" lon="6.7093">
        <ele>572.5</ele>
        <time>2017-02-12T10:13:50.999Z</time>
      </trkpt>
      <trkpt lat="47.39967" lon="6.70924">
        <ele>572.4</ele>
        <time>2017-02-12T10:13:51.999Z</time>
      </trkpt>
      <trkpt lat="47.3997" lon="6.70918">
        <ele>571.7</ele>
        <time>2017-02-12T10:13:52.999Z</time>
      </trkpt>
      <trkpt lat="47.39972" lon="6.70912">
        <ele>571.8</ele>
        <time>2017-02-12T10:13:53.999Z</time>
      </trkpt>
      <trkpt lat="47.39974" lon="6.70906">
        <ele>571.8</ele>
        <time>2017-02-12T10:13:54.999Z</time>
      </trkpt>
      <trkpt lat="47.39975" lon="6.70902">
        <ele>571.7</ele>
        <time>2017-02-12T10:13:55.999Z</time>
      </trkpt>
      <trkpt lat="47.39976" lon="6.70898">
        <ele>571.7</ele>
        <time>2017-02-12T10:13:56.999Z</time>
      </trkpt>
      <trkpt lat="47.39978" lon="6.70894">
        <ele>571.7</ele>
        <time>2017-02-12T10:13:57.999Z</time>
      </trkpt>
      <trkpt lat="47.39981" lon="6.70888">
        <ele>571.8</ele>
        <time>2017-02-12T10:13:58.999Z</time>
      </trkpt>
      <trkpt lat="47.39982" lon="6.70883">
        <ele>571.8</ele>
        <time>2017-02-12T10:13:59.999Z</time>
      </trkpt>
      <trkpt lat="47.39984" lon="6.70879">
        <ele>571.8</ele>
        <time>2017-02-12T10:14:00.999Z</time>
      </trkpt>
      <trkpt lat="47.39985" lon="6.70876">
        <ele>571.8</ele>
        <time>2017-02-12T10:14:01.999Z</time>
      </trkpt>
      <trkpt lat="47.39987" lon="6.70872">
        <ele>571.7</ele>
        <time>2017-02-12T10:14:02.999Z</time>
      </trkpt>
      <trkpt lat="47.39988" lon="6.70866">
        <ele>571.7</ele>
        <time>2017-02-12T10:14:03.999Z</time>
      </trkpt>
      <trkpt lat="47.3999" lon="6.70861">
        <ele>571.6</ele>
        <time>2017-02-12T10:14:04.999Z</time>
      </trkpt>
      <trkpt lat="47.39991" lon="6.70857">
        <ele>571.5</ele>
        <time>2017-02-12T10:14:05.999Z</time>
      </trkpt>
      <trkpt lat="47.39992" lon="6.70854">
        <ele>571.4</ele>
        <time>2017-02-12T10:14:06.999Z</time>
      </trkpt>
      <trkpt lat="47.39994" lon="6.7085">
        <ele>571.4</ele>
        <time>2017-02-12T10:14:07.999Z</time>
      </trkpt>
      <trkpt lat="47.39994" lon="6.70848">
        <ele>571.4</ele>
        <time>2017-02-12T10:14:08.999Z</time>
      </trkpt>
      <trkpt lat="47.39996" lon="6.70845">
        <ele>571.3</ele>
        <time>2017-02-12T10:14:09.999Z</time>
      </trkpt>
      <trkpt lat="47.39996" lon="6.7084">
        <ele>571.2</ele>
        <time>2017-02-12T10:14:10.999Z</time>
      </trkpt>
      <trkpt lat="47.39997" lon="6.70836">
        <ele>571</ele>
        <time>2017-02-12T10:14:11.999Z</time>
      </trkpt>
      <trkpt lat="47.39998" lon="6.70832">
        <ele>570.8</ele>
        <time>2017-02-12T10:14:12.999Z</time>
      </trkpt>
      <trkpt lat="47.39999" lon="6.70829">
        <ele>570.7</ele>
        <time>2017-02-12T10:14:13.999Z</time>
      </trkpt>
      <trkpt lat="47.4" lon="6.70823">
        <ele>570.6</ele>
        <time>2017-02-12T10:14:14.999Z</time>
      </trkpt>
      <trkpt lat="47.4" lon="6.70817">
        <ele>570.4</ele>
        <time>2017-02-12T10:14:15.999Z</time>
      </trkpt>
      <trkpt lat="47.4" lon="6.70812">
        <ele>570.2</ele>
        <time>2017-02-12T10:14:16.999Z</time>
      </trkpt>
      <trkpt lat="47.40002" lon="6.70807">
        <ele>570.1</ele>
        <time>2017-02-12T10:14:17.999Z</time>
      </trkpt>
      <trkpt lat="47.40003" lon="6.70801">
        <ele>569.9</ele>
        <time>2017-02-12T10:14:18.999Z</time>
      </trkpt>
      <trkpt lat="47.40004" lon="6.70794">
        <ele>569.8</ele>
        <time>2017-02-12T10:14:19.999Z</time>
      </trkpt>
      <trkpt lat="47.40005" lon="6.70787">
        <ele>569.6</ele>
        <time>2017-02-12T10:14:20.999Z</time>
      </trkpt>
      <trkpt lat="47.40006" lon="6.7078">
        <ele>569.4</ele>
        <time>2017-02-12T10:14:21.999Z</time>
      </trkpt>
      <trkpt lat="47.40008" lon="6.70773">
        <ele>569.3</ele>
        <time>2017-02-12T10:14:22.999Z</time>
      </trkpt>
      <trkpt lat="47.40009" lon="6.70766">
        <ele>569.2</ele>
        <time>2017-02-12T10:14:23.999Z</time>
      </trkpt>
      <trkpt lat="47.40011" lon="6.7076">
        <ele>568</ele>
        <time>2017-02-12T10:14:24.999Z</time>
      </trkpt>
      <trkpt lat="47.40014" lon="6.70752">
        <ele>566.4</ele>
        <time>2017-02-12T10:14:25.999Z</time>
      </trkpt>
      <trkpt lat="47.40015" lon="6.70745">
        <ele>566.3</ele>
        <time>2017-02-12T10:14:26.999Z</time>
      </trkpt>
      <trkpt lat="47.40017" lon="6.70737">
        <ele>565.4</ele>
        <time>2017-02-12T10:14:27.999Z</time>
      </trkpt>
      <trkpt lat="47.40021" lon="6.70726">
        <ele>564.5</ele>
        <time>2017-02-12T10:14:28.999Z</time>
      </trkpt>
      <trkpt lat="47.40024" lon="6.70715">
        <ele>563.7</ele>
        <time>2017-02-12T10:14:29.999Z</time>
      </trkpt>
      <trkpt lat="47.40025" lon="6.70704">
        <ele>564</ele>
        <time>2017-02-12T10:14:30.999Z</time>
      </trkpt>
      <trkpt lat="47.40027" lon="6.70694">
        <ele>564.1</ele>
        <time>2017-02-12T10:14:31.999Z</time>
      </trkpt>
      <trkpt lat="47.40028" lon="6.70684">
        <ele>563.9</ele>
        <time>2017-02-12T10:14:32.999Z</time>
      </trkpt>
      <trkpt lat="47.40027" lon="6.70675">
        <ele>563.9</ele>
        <time>2017-02-12T10:14:33.999Z</time>
      </trkpt>
      <trkpt lat="47.40027" lon="6.70666">
        <ele>563.1</ele>
        <time>2017-02-12T10:14:34.999Z</time>
      </trkpt>
      <trkpt lat="47.40026" lon="6.70657">
        <ele>561.9</ele>
        <time>2017-02-12T10:14:35.999Z</time>
      </trkpt>
      <trkpt lat="47.40025" lon="6.7065">
        <ele>560.8</ele>
        <time>2017-02-12T10:14:36.999Z</time>
      </trkpt>
      <trkpt lat="47.40025" lon="6.70643">
        <ele>559.3</ele>
        <time>2017-02-12T10:14:37.999Z</time>
      </trkpt>
      <trkpt lat="47.40024" lon="6.70633">
        <ele>557.8</ele>
        <time>2017-02-12T10:14:38.999Z</time>
      </trkpt>
      <trkpt lat="47.40024" lon="6.70625">
        <ele>556.9</ele>
        <time>2017-02-12T10:14:39.999Z</time>
      </trkpt>
      <trkpt lat="47.40022" lon="6.70617">
        <ele>556.2</ele>
        <time>2017-02-12T10:14:40.999Z</time>
      </trkpt>
      <trkpt lat="47.4002" lon="6.70608">
        <ele>555.1</ele>
        <time>2017-02-12T10:14:41.999Z</time>
      </trkpt>
      <trkpt lat="47.40019" lon="6.706">
        <ele>554.5</ele>
        <time>2017-02-12T10:14:42.999Z</time>
      </trkpt>
      <trkpt lat="47.40018" lon="6.70592">
        <ele>554.1</ele>
        <time>2017-02-12T10:14:43.999Z</time>
      </trkpt>
      <trkpt lat="47.40017" lon="6.70583">
        <ele>553.6</ele>
        <time>2017-02-12T10:14:44.999Z</time>
      </trkpt>
      <trkpt lat="47.40016" lon="6.70573">
        <ele>554.1</ele>
        <time>2017-02-12T10:14:45.999Z</time>
      </trkpt>
      <trkpt lat="47.40016" lon="6.70564">
        <ele>554.3</ele>
        <time>2017-02-12T10:14:46.999Z</time>
      </trkpt>
      <trkpt lat="47.40015" lon="6.70555">
        <ele>554.4</ele>
        <time>2017-02-12T10:14:47.999Z</time>
      </trkpt>
      <trkpt lat="47.40014" lon="6.70544">
        <ele>554.6</ele>
        <time>2017-02-12T10:14:48.999Z</time>
      </trkpt>
      <trkpt lat="47.40012" lon="6.70535">
        <ele>554.7</ele>
        <time>2017-02-12T10:14:49.999Z</time>
      </trkpt>
      <trkpt lat="47.40011" lon="6.70526">
        <ele>554.5</ele>
        <time>2017-02-12T10:14:50.999Z</time>
      </trkpt>
      <trkpt lat="47.40012" lon="6.70516">
        <ele>553.5</ele>
        <time>2017-02-12T10:14:51.999Z</time>
      </trkpt>
      <trkpt lat="47.40012" lon="6.70508">
        <ele>553.6</ele>
        <time>2017-02-12T10:14:52.999Z</time>
      </trkpt>
      <trkpt lat="47.4001" lon="6.70501">
        <ele>553.2</ele>
        <time>2017-02-12T10:14:53.999Z</time>
      </trkpt>
      <trkpt lat="47.4001" lon="6.70493">
        <ele>552.8</ele>
        <time>2017-02-12T10:14:54.999Z</time>
      </trkpt>
      <trkpt lat="47.4001" lon="6.70484">
        <ele>553.4</ele>
        <time>2017-02-12T10:14:55.999Z</time>
      </trkpt>
      <trkpt lat="47.40008" lon="6.70472">
        <ele>553.9</ele>
        <time>2017-02-12T10:14:56.999Z</time>
      </trkpt>
      <trkpt lat="47.40006" lon="6.7046">
        <ele>554.9</ele>
        <time>2017-02-12T10:14:57.999Z</time>
      </trkpt>
      <trkpt lat="47.40003" lon="6.70448">
        <ele>554.7</ele>
        <time>2017-02-12T10:14:58.999Z</time>
      </trkpt>
      <trkpt lat="47.40001" lon="6.70434">
        <ele>554.4</ele>
        <time>2017-02-12T10:14:59.999Z</time>
      </trkpt>
      <trkpt lat="47.39998" lon="6.70421">
        <ele>553.7</ele>
        <time>2017-02-12T10:15:00.999Z</time>
      </trkpt>
      <trkpt lat="47.39996" lon="6.70408">
        <ele>553.2</ele>
        <time>2017-02-12T10:15:01.999Z</time>
      </trkpt>
      <trkpt lat="47.39994" lon="6.70397">
        <ele>553.5</ele>
        <time>2017-02-12T10:15:02.999Z</time>
      </trkpt>
      <trkpt lat="47.39992" lon="6.70386">
        <ele>552.9</ele>
        <time>2017-02-12T10:15:03.999Z</time>
      </trkpt>
      <trkpt lat="47.39991" lon="6.70377">
        <ele>552.6</ele>
        <time>2017-02-12T10:15:04.999Z</time>
      </trkpt>
      <trkpt lat="47.39989" lon="6.70368">
        <ele>551.3</ele>
        <time>2017-02-12T10:15:05.999Z</time>
      </trkpt>
      <trkpt lat="47.39988" lon="6.70362">
        <ele>550.1</ele>
        <time>2017-02-12T10:15:06.999Z</time>
      </trkpt>
      <trkpt lat="47.39988" lon="6.70356">
        <ele>550</ele>
        <time>2017-02-12T10:15:07.999Z</time>
      </trkpt>
      <trkpt lat="47.39988" lon="6.70353">
        <ele>549.9</ele>
        <time>2017-02-12T10:15:08.999Z</time>
      </trkpt>
      <trkpt lat="47.39992" lon="6.70352">
        <ele>549.3</ele>
        <time>2017-02-12T10:15:11.999Z</time>
      </trkpt>
      <trkpt lat="47.39996" lon="6.70352">
        <ele>549.1</ele>
        <time>2017-02-12T10:15:12.999Z</time>
      </trkpt>
      <trkpt lat="47.39997" lon="6.70355">
        <ele>548.9</ele>
        <time>2017-02-12T10:15:13.999Z</time>
      </trkpt>
      <trkpt lat="47.4" lon="6.70355">
        <ele>548.7</ele>
        <time>2017-02-12T10:15:14.999Z</time>
      </trkpt>
      <trkpt lat="47.40002" lon="6.70355">
        <ele>548.5</ele>
        <time>2017-02-12T10:15:15.999Z</time>
      </trkpt>
      <trkpt lat="47.40007" lon="6.70355">
        <ele>545.8</ele>
        <time>2017-02-12T10:15:16.999Z</time>
      </trkpt>
      <trkpt lat="47.40012" lon="6.70357">
        <ele>543.8</ele>
        <time>2017-02-12T10:15:17.999Z</time>
      </trkpt>
      <trkpt lat="47.40016" lon="6.70359">
        <ele>542.7</ele>
        <time>2017-02-12T10:15:18.999Z</time>
      </trkpt>
      <trkpt lat="47.40023" lon="6.7036">
        <ele>542.2</ele>
        <time>2017-02-12T10:15:19.999Z</time>
      </trkpt>
      <trkpt lat="47.40028" lon="6.70359">
        <ele>541.9</ele>
        <time>2017-02-12T10:15:20.999Z</time>
      </trkpt>
      <trkpt lat="47.40034" lon="6.70359">
        <ele>540.8</ele>
        <time>2017-02-12T10:15:21.999Z</time>
      </trkpt>
      <trkpt lat="47.40039" lon="6.70359">
        <ele>539.1</ele>
        <time>2017-02-12T10:15:22.999Z</time>
      </trkpt>
      <trkpt lat="47.40044" lon="6.70361">
        <ele>537.9</ele>
        <time>2017-02-12T10:15:23.999Z</time>
      </trkpt>
      <trkpt lat="47.40047" lon="6.70362">
        <ele>537.7</ele>
        <time>2017-02-12T10:15:24.999Z</time>
      </trkpt>
      <trkpt lat="47.40051" lon="6.70362">
        <ele>537.6</ele>
        <time>2017-02-12T10:15:25.999Z</time>
      </trkpt>
      <trkpt lat="47.40055" lon="6.70365">
        <ele>537.4</ele>
        <time>2017-02-12T10:15:26.999Z</time>
      </trkpt>
      <trkpt lat="47.4006" lon="6.70367">
        <ele>534.3</ele>
        <time>2017-02-12T10:15:27.999Z</time>
      </trkpt>
      <trkpt lat="47.40067" lon="6.70369">
        <ele>532.4</ele>
        <time>2017-02-12T10:15:28.999Z</time>
      </trkpt>
      <trkpt lat="47.40072" lon="6.70371">
        <ele>530.7</ele>
        <time>2017-02-12T10:15:29.999Z</time>
      </trkpt>
      <trkpt lat="47.40077" lon="6.70376">
        <ele>529.6</ele>
        <time>2017-02-12T10:15:30.999Z</time>
      </trkpt>
      <trkpt lat="47.40081" lon="6.7038">
        <ele>529.2</ele>
        <time>2017-02-12T10:15:31.999Z</time>
      </trkpt>
      <trkpt lat="47.40087" lon="6.70385">
        <ele>529.3</ele>
        <time>2017-02-12T10:15:32.999Z</time>
      </trkpt>
      <trkpt lat="47.40092" lon="6.7039">
        <ele>529.8</ele>
        <time>2017-02-12T10:15:33.999Z</time>
      </trkpt>
      <trkpt lat="47.40096" lon="6.70395">
        <ele>530.4</ele>
        <time>2017-02-12T10:15:34.999Z</time>
      </trkpt>
      <trkpt lat="47.40101" lon="6.70395">
        <ele>531.3</ele>
        <time>2017-02-12T10:15:35.999Z</time>
      </trkpt>
      <trkpt lat="47.40105" lon="6.70391">
        <ele>532.1</ele>
        <time>2017-02-12T10:15:36.999Z</time>
      </trkpt>
      <trkpt lat="47.40108" lon="6.70387">
        <ele>532.7</ele>
        <time>2017-02-12T10:15:37.999Z</time>
      </trkpt>
      <trkpt lat="47.40111" lon="6.70384">
        <ele>532.8</ele>
        <time>2017-02-12T10:15:38.999Z</time>
      </trkpt>
      <trkpt lat="47.40112" lon="6.70383">
        <ele>532.8</ele>
        <time>2017-02-12T10:15:39.999Z</time>
      </trkpt>
      <trkpt lat="47.40116" lon="6.70382">
        <ele>532.8</ele>
        <time>2017-02-12T10:15:41.999Z</time>
      </trkpt>
      <trkpt lat="47.40119" lon="6.70383">
        <ele>532.4</ele>
        <time>2017-02-12T10:15:42.999Z</time>
      </trkpt>
      <trkpt lat="47.40122" lon="6.70382">
        <ele>532.4</ele>
        <time>2017-02-12T10:15:43.999Z</time>
      </trkpt>
      <trkpt lat="47.40126" lon="6.70382">
        <ele>532.4</ele>
        <time>2017-02-12T10:15:44.999Z</time>
      </trkpt>
      <trkpt lat="47.4013" lon="6.70383">
        <ele>532.3</ele>
        <time>2017-02-12T10:15:45.999Z</time>
      </trkpt>
      <trkpt lat="47.40135" lon="6.70384">
        <ele>532.4</ele>
        <time>2017-02-12T10:15:46.999Z</time>
      </trkpt>
      <trkpt lat="47.40139" lon="6.70384">
        <ele>532.4</ele>
        <time>2017-02-12T10:15:47.999Z</time>
      </trkpt>
      <trkpt lat="47.40143" lon="6.70384">
        <ele>533.5</ele>
        <time>2017-02-12T10:15:48.999Z</time>
      </trkpt>
      <trkpt lat="47.40148" lon="6.70384">
        <ele>533.5</ele>
        <time>2017-02-12T10:15:49.999Z</time>
      </trkpt>
      <trkpt lat="47.40154" lon="6.70385">
        <ele>534.1</ele>
        <time>2017-02-12T10:15:50.999Z</time>
      </trkpt>
      <trkpt lat="47.40159" lon="6.70385">
        <ele>533.8</ele>
        <time>2017-02-12T10:15:51.999Z</time>
      </trkpt>
      <trkpt lat="47.40165" lon="6.70385">
        <ele>533.7</ele>
        <time>2017-02-12T10:15:52.999Z</time>
      </trkpt>
      <trkpt lat="47.40169" lon="6.70385">
        <ele>533.7</ele>
        <time>2017-02-12T10:15:53.999Z</time>
      </trkpt>
      <trkpt lat="47.40173" lon="6.70388">
        <ele>533.7</ele>
        <time>2017-02-12T10:15:54.999Z</time>
      </trkpt>
      <trkpt lat="47.40177" lon="6.70392">
        <ele>533.5</ele>
        <time>2017-02-12T10:15:55.999Z</time>
      </trkpt>
      <trkpt lat="47.40182" lon="6.70392">
        <ele>533.4</ele>
        <time>2017-02-12T10:15:56.999Z</time>
      </trkpt>
      <trkpt lat="47.40185" lon="6.70392">
        <ele>533.3</ele>
        <time>2017-02-12T10:15:57.999Z</time>
      </trkpt>
      <trkpt lat="47.4019" lon="6.70395">
        <ele>532.6</ele>
        <time>2017-02-12T10:15:58.999Z</time>
      </trkpt>
      <trkpt lat="47.40195" lon="6.70399">
        <ele>531.3</ele>
        <time>2017-02-12T10:15:59.999Z</time>
      </trkpt>
      <trkpt lat="47.402" lon="6.70401">
        <ele>530.9</ele>
        <time>2017-02-12T10:16:00.999Z</time>
      </trkpt>
      <trkpt lat="47.40203" lon="6.70402">
        <ele>530.4</ele>
        <time>2017-02-12T10:16:01.999Z</time>
      </trkpt>
      <trkpt lat="47.40207" lon="6.70405">
        <ele>529.6</ele>
        <time>2017-02-12T10:16:02.999Z</time>
      </trkpt>
      <trkpt lat="47.40211" lon="6.70408">
        <ele>528.6</ele>
        <time>2017-02-12T10:16:03.999Z</time>
      </trkpt>
      <trkpt lat="47.40215" lon="6.70412">
        <ele>527.7</ele>
        <time>2017-02-12T10:16:04.999Z</time>
      </trkpt>
      <trkpt lat="47.40219" lon="6.70416">
        <ele>527.2</ele>
        <time>2017-02-12T10:16:05.999Z</time>
      </trkpt>
      <trkpt lat="47.40222" lon="6.7042">
        <ele>527.5</ele>
        <time>2017-02-12T10:16:06.999Z</time>
      </trkpt>
      <trkpt lat="47.40225" lon="6.70424">
        <ele>527.5</ele>
        <time>2017-02-12T10:16:07.999Z</time>
      </trkpt>
      <trkpt lat="47.40228" lon="6.70429">
        <ele>527.5</ele>
        <time>2017-02-12T10:16:08.999Z</time>
      </trkpt>
      <trkpt lat="47.40233" lon="6.70435">
        <ele>527.4</ele>
        <time>2017-02-12T10:16:09.999Z</time>
      </trkpt>
      <trkpt lat="47.40237" lon="6.70441">
        <ele>527.7</ele>
        <time>2017-02-12T10:16:10.999Z</time>
      </trkpt>
      <trkpt lat="47.40243" lon="6.70448">
        <ele>527.5</ele>
        <time>2017-02-12T10:16:11.999Z</time>
      </trkpt>
      <trkpt lat="47.40249" lon="6.70454">
        <ele>526.9</ele>
        <time>2017-02-12T10:16:12.999Z</time>
      </trkpt>
      <trkpt lat="47.40255" lon="6.70459">
        <ele>526.2</ele>
        <time>2017-02-12T10:16:13.999Z</time>
      </trkpt>
      <trkpt lat="47.40261" lon="6.70463">
        <ele>525.1</ele>
        <time>2017-02-12T10:16:14.999Z</time>
      </trkpt>
      <trkpt lat="47.40266" lon="6.70468">
        <ele>524.1</ele>
        <time>2017-02-12T10:16:15.999Z</time>
      </trkpt>
      <trkpt lat="47.40271" lon="6.70472">
        <ele>523.2</ele>
        <time>2017-02-12T10:16:16.999Z</time>
      </trkpt>
      <trkpt lat="47.40276" lon="6.70476">
        <ele>522.5</ele>
        <time>2017-02-12T10:16:17.999Z</time>
      </trkpt>
      <trkpt lat="47.40281" lon="6.70481">
        <ele>521.9</ele>
        <time>2017-02-12T10:16:18.999Z</time>
      </trkpt>
      <trkpt lat="47.40285" lon="6.70485">
        <ele>521.6</ele>
        <time>2017-02-12T10:16:19.999Z</time>
      </trkpt>
      <trkpt lat="47.40288" lon="6.70491">
        <ele>521.5</ele>
        <time>2017-02-12T10:16:20.999Z</time>
      </trkpt>
      <trkpt lat="47.40292" lon="6.70498">
        <ele>520.5</ele>
        <time>2017-02-12T10:16:21.999Z</time>
      </trkpt>
      <trkpt lat="47.40296" lon="6.70503">
        <ele>519.7</ele>
        <time>2017-02-12T10:16:22.999Z</time>
      </trkpt>
      <trkpt lat="47.40298" lon="6.70507">
        <ele>519.6</ele>
        <time>2017-02-12T10:16:23.999Z</time>
      </trkpt>
      <trkpt lat="47.40301" lon="6.70513">
        <ele>518.8</ele>
        <time>2017-02-12T10:16:24.999Z</time>
      </trkpt>
      <trkpt lat="47.40305" lon="6.70516">
        <ele>518.7</ele>
        <time>2017-02-12T10:16:25.999Z</time>
      </trkpt>
      <trkpt lat="47.40311" lon="6.7052">
        <ele>518.2</ele>
        <time>2017-02-12T10:16:26.999Z</time>
      </trkpt>
      <trkpt lat="47.40317" lon="6.70524">
        <ele>517.4</ele>
        <time>2017-02-12T10:16:27.999Z</time>
      </trkpt>
      <trkpt lat="47.40324" lon="6.70528">
        <ele>516.4</ele>
        <time>2017-02-12T10:16:28.999Z</time>
      </trkpt>
      <trkpt lat="47.4033" lon="6.70531">
        <ele>514.8</ele>
        <time>2017-02-12T10:16:29.999Z</time>
      </trkpt>
      <trkpt lat="47.40336" lon="6.70534">
        <ele>512.9</ele>
        <time>2017-02-12T10:16:30.999Z</time>
      </trkpt>
      <trkpt lat="47.40341" lon="6.70539">
        <ele>512.3</ele>
        <time>2017-02-12T10:16:31.999Z</time>
      </trkpt>
      <trkpt lat="47.40346" lon="6.70543">
        <ele>511.9</ele>
        <time>2017-02-12T10:16:32.999Z</time>
      </trkpt>
      <trkpt lat="47.4035" lon="6.70546">
        <ele>511.9</ele>
        <time>2017-02-12T10:16:33.999Z</time>
      </trkpt>
      <trkpt lat="47.40353" lon="6.70547">
        <ele>511.8</ele>
        <time>2017-02-12T10:16:50.999Z</time>
      </trkpt>
      <trkpt lat="47.40363" lon="6.70551">
        <ele>511.9</ele>
        <time>2017-02-12T10:16:51.999Z</time>
      </trkpt>
      <trkpt lat="47.40366" lon="6.70555">
        <ele>512.2</ele>
        <time>2017-02-12T10:16:55.999Z</time>
      </trkpt>
      <trkpt lat="47.40368" lon="6.70555">
        <ele>512.2</ele>
        <time>2017-02-12T10:16:56.999Z</time>
      </trkpt>
      <trkpt lat="47.40372" lon="6.70557">
        <ele>512.3</ele>
        <time>2017-02-12T10:16:58.999Z</time>
      </trkpt>
      <trkpt lat="47.40373" lon="6.70558">
        <ele>512.3</ele>
        <time>2017-02-12T10:16:59.999Z</time>
      </trkpt>
      <trkpt lat="47.40377" lon="6.7056">
        <ele>512.4</ele>
        <time>2017-02-12T10:17:01.999Z</time>
      </trkpt>
      <trkpt lat="47.40379" lon="6.7056">
        <ele>512.4</ele>
        <time>2017-02-12T10:17:02.999Z</time>
      </trkpt>
      <trkpt lat="47.40381" lon="6.70562">
        <ele>512.4</ele>
        <time>2017-02-12T10:17:04.999Z</time>
      </trkpt>
      <trkpt lat="47.40383" lon="6.70563">
        <ele>512.4</ele>
        <time>2017-02-12T10:17:05.999Z</time>
      </trkpt>
      <trkpt lat="47.40385" lon="6.70565">
        <ele>512.4</ele>
        <time>2017-02-12T10:17:07.999Z</time>
      </trkpt>
      <trkpt lat="47.40387" lon="6.70567">
        <ele>512.3</ele>
        <time>2017-02-12T10:17:08.999Z</time>
      </trkpt>
      <trkpt lat="47.4039" lon="6.7057">
        <ele>512.2</ele>
        <time>2017-02-12T10:17:11.999Z</time>
      </trkpt>
      <trkpt lat="47.40391" lon="6.70571">
        <ele>512.2</ele>
        <time>2017-02-12T10:17:12.999Z</time>
      </trkpt>
      <trkpt lat="47.40394" lon="6.70574">
        <ele>512.3</ele>
        <time>2017-02-12T10:17:14.999Z</time>
      </trkpt>
      <trkpt lat="47.40396" lon="6.70576">
        <ele>512.3</ele>
        <time>2017-02-12T10:17:15.999Z</time>
      </trkpt>
      <trkpt lat="47.40398" lon="6.70578">
        <ele>512.4</ele>
        <time>2017-02-12T10:17:16.999Z</time>
      </trkpt>
      <trkpt lat="47.404" lon="6.7058">
        <ele>512.4</ele>
        <time>2017-02-12T10:17:17.999Z</time>
      </trkpt>
      <trkpt lat="47.40403" lon="6.70585">
        <ele>512.5</ele>
        <time>2017-02-12T10:17:19.999Z</time>
      </trkpt>
      <trkpt lat="47.40404" lon="6.70588">
        <ele>512.7</ele>
        <time>2017-02-12T10:17:20.999Z</time>
      </trkpt>
      <trkpt lat="47.40407" lon="6.70591">
        <ele>512.8</ele>
        <time>2017-02-12T10:17:21.999Z</time>
      </trkpt>
      <trkpt lat="47.40409" lon="6.70593">
        <ele>512.8</ele>
        <time>2017-02-12T10:17:22.999Z</time>
      </trkpt>
      <trkpt lat="47.40412" lon="6.70596">
        <ele>512.9</ele>
        <time>2017-02-12T10:17:24.999Z</time>
      </trkpt>
      <trkpt lat="47.40415" lon="6.70598">
        <ele>512.8</ele>
        <time>2017-02-12T10:17:26.000Z</time>
      </trkpt>
      <trkpt lat="47.40419" lon="6.70599">
        <ele>512.7</ele>
        <time>2017-02-12T10:17:29.000Z</time>
      </trkpt>
      <trkpt lat="47.40421" lon="6.706">
        <ele>512.7</ele>
        <time>2017-02-12T10:17:30.000Z</time>
      </trkpt>
      <trkpt lat="47.40425" lon="6.70604">
        <ele>512.6</ele>
        <time>2017-02-12T10:17:32.000Z</time>
      </trkpt>
      <trkpt lat="47.40426" lon="6.70605">
        <ele>512.6</ele>
        <time>2017-02-12T10:17:33.000Z</time>
      </trkpt>
      <trkpt lat="47.40426" lon="6.70605">
        <ele>511.5</ele>
        <time>2017-02-12T10:17:45.000Z</time>
      </trkpt>
      <trkpt lat="47.40431" lon="6.70626">
        <ele>511.5</ele>
        <time>2017-02-12T10:17:46.000Z</time>
      </trkpt>
      <trkpt lat="47.40431" lon="6.70626">
        <ele>511.5</ele>
        <time>2017-02-12T10:17:47.000Z</time>
      </trkpt>
      <trkpt lat="47.40435" lon="6.70632">
        <ele>511.5</ele>
        <time>2017-02-12T10:17:48.000Z</time>
      </trkpt>
      <trkpt lat="47.40439" lon="6.70635">
        <ele>512.2</ele>
        <time>2017-02-12T10:17:49.000Z</time>
      </trkpt>
      <trkpt lat="47.40443" lon="6.70639">
        <ele>512.2</ele>
        <time>2017-02-12T10:17:50.000Z</time>
      </trkpt>
      <trkpt lat="47.40447" lon="6.70643">
        <ele>512.2</ele>
        <time>2017-02-12T10:17:51.000Z</time>
      </trkpt>
      <trkpt lat="47.40452" lon="6.70648">
        <ele>512.1</ele>
        <time>2017-02-12T10:17:52.000Z</time>
      </trkpt>
      <trkpt lat="47.40457" lon="6.7065">
        <ele>511.1</ele>
        <time>2017-02-12T10:17:53.000Z</time>
      </trkpt>
      <trkpt lat="47.40461" lon="6.70653">
        <ele>510</ele>
        <time>2017-02-12T10:17:54.000Z</time>
      </trkpt>
      <trkpt lat="47.40466" lon="6.70655">
        <ele>508.9</ele>
        <time>2017-02-12T10:17:55.000Z</time>
      </trkpt>
      <trkpt lat="47.4047" lon="6.70657">
        <ele>508.8</ele>
        <time>2017-02-12T10:17:56.000Z</time>
      </trkpt>
      <trkpt lat="47.40473" lon="6.70658">
        <ele>508.7</ele>
        <time>2017-02-12T10:17:57.000Z</time>
      </trkpt>
      <trkpt lat="47.40477" lon="6.70659">
        <ele>508.5</ele>
        <time>2017-02-12T10:17:58.000Z</time>
      </trkpt>
      <trkpt lat="47.4048" lon="6.70657">
        <ele>508.4</ele>
        <time>2017-02-12T10:17:59.000Z</time>
      </trkpt>
      <trkpt lat="47.40483" lon="6.70657">
        <ele>508.5</ele>
        <time>2017-02-12T10:18:00.000Z</time>
      </trkpt>
      <trkpt lat="47.40487" lon="6.7066">
        <ele>508.8</ele>
        <time>2017-02-12T10:18:01.000Z</time>
      </trkpt>
      <trkpt lat="47.40491" lon="6.70662">
        <ele>508.8</ele>
        <time>2017-02-12T10:18:02.000Z</time>
      </trkpt>
      <trkpt lat="47.40493" lon="6.70661">
        <ele>508.8</ele>
        <time>2017-02-12T10:18:03.000Z</time>
      </trkpt>
      <trkpt lat="47.40498" lon="6.7066">
        <ele>508.8</ele>
        <time>2017-02-12T10:18:04.000Z</time>
      </trkpt>
      <trkpt lat="47.40502" lon="6.70658">
        <ele>508.3</ele>
        <time>2017-02-12T10:18:05.000Z</time>
      </trkpt>
      <trkpt lat="47.40507" lon="6.70656">
        <ele>508.6</ele>
        <time>2017-02-12T10:18:06.000Z</time>
      </trkpt>
      <trkpt lat="47.40511" lon="6.70654">
        <ele>508.6</ele>
        <time>2017-02-12T10:18:07.000Z</time>
      </trkpt>
      <trkpt lat="47.40516" lon="6.70652">
        <ele>508.6</ele>
        <time>2017-02-12T10:18:08.000Z</time>
      </trkpt>
      <trkpt lat="47.4052" lon="6.7065">
        <ele>508.3</ele>
        <time>2017-02-12T10:18:09.000Z</time>
      </trkpt>
      <trkpt lat="47.40525" lon="6.70648">
        <ele>507.9</ele>
        <time>2017-02-12T10:18:10.000Z</time>
      </trkpt>
      <trkpt lat="47.4053" lon="6.70647">
        <ele>507.8</ele>
        <time>2017-02-12T10:18:11.000Z</time>
      </trkpt>
      <trkpt lat="47.40534" lon="6.70646">
        <ele>507.8</ele>
        <time>2017-02-12T10:18:12.000Z</time>
      </trkpt>
      <trkpt lat="47.40536" lon="6.70647">
        <ele>507.8</ele>
        <time>2017-02-12T10:18:13.000Z</time>
      </trkpt>
      <trkpt lat="47.40539" lon="6.70645">
        <ele>507.8</ele>
        <time>2017-02-12T10:18:14.000Z</time>
      </trkpt>
      <trkpt lat="47.40543" lon="6.70644">
        <ele>507.8</ele>
        <time>2017-02-12T10:18:15.000Z</time>
      </trkpt>
      <trkpt lat="47.40547" lon="6.70642">
        <ele>507.8</ele>
        <time>2017-02-12T10:18:16.000Z</time>
      </trkpt>
      <trkpt lat="47.40551" lon="6.7064">
        <ele>507.8</ele>
        <time>2017-02-12T10:18:17.000Z</time>
      </trkpt>
      <trkpt lat="47.40556" lon="6.70639">
        <ele>507.7</ele>
        <time>2017-02-12T10:18:18.000Z</time>
      </trkpt>
      <trkpt lat="47.4056" lon="6.70637">
        <ele>507.6</ele>
        <time>2017-02-12T10:18:19.000Z</time>
      </trkpt>
      <trkpt lat="47.40563" lon="6.70635">
        <ele>507.5</ele>
        <time>2017-02-12T10:18:20.000Z</time>
      </trkpt>
      <trkpt lat="47.40568" lon="6.70631">
        <ele>507.3</ele>
        <time>2017-02-12T10:18:21.000Z</time>
      </trkpt>
      <trkpt lat="47.40573" lon="6.70629">
        <ele>507.2</ele>
        <time>2017-02-12T10:18:22.000Z</time>
      </trkpt>
      <trkpt lat="47.40577" lon="6.70629">
        <ele>507.1</ele>
        <time>2017-02-12T10:18:23.000Z</time>
      </trkpt>
      <trkpt lat="47.40579" lon="6.70627">
        <ele>507</ele>
        <time>2017-02-12T10:18:24.000Z</time>
      </trkpt>
      <trkpt lat="47.40583" lon="6.70626">
        <ele>507</ele>
        <time>2017-02-12T10:18:25.000Z</time>
      </trkpt>
      <trkpt lat="47.40587" lon="6.70622">
        <ele>507</ele>
        <time>2017-02-12T10:18:26.000Z</time>
      </trkpt>
      <trkpt lat="47.40591" lon="6.7062">
        <ele>506.8</ele>
        <time>2017-02-12T10:18:27.000Z</time>
      </trkpt>
      <trkpt lat="47.40595" lon="6.70618">
        <ele>504.8</ele>
        <time>2017-02-12T10:18:28.000Z</time>
      </trkpt>
      <trkpt lat="47.406" lon="6.70615">
        <ele>502.7</ele>
        <time>2017-02-12T10:18:29.000Z</time>
      </trkpt>
      <trkpt lat="47.40604" lon="6.70613">
        <ele>502.5</ele>
        <time>2017-02-12T10:18:30.000Z</time>
      </trkpt>
      <trkpt lat="47.40608" lon="6.70609">
        <ele>501</ele>
        <time>2017-02-12T10:18:31.000Z</time>
      </trkpt>
      <trkpt lat="47.40614" lon="6.70604">
        <ele>499.7</ele>
        <time>2017-02-12T10:18:32.000Z</time>
      </trkpt>
      <trkpt lat="47.40619" lon="6.70598">
        <ele>498.7</ele>
        <time>2017-02-12T10:18:33.000Z</time>
      </trkpt>
      <trkpt lat="47.40624" lon="6.70592">
        <ele>498.8</ele>
        <time>2017-02-12T10:18:34.000Z</time>
      </trkpt>
      <trkpt lat="47.40629" lon="6.70585">
        <ele>498.9</ele>
        <time>2017-02-12T10:18:35.000Z</time>
      </trkpt>
      <trkpt lat="47.40632" lon="6.7058">
        <ele>498.9</ele>
        <time>2017-02-12T10:18:36.000Z</time>
      </trkpt>
      <trkpt lat="47.40635" lon="6.70574">
        <ele>499</ele>
        <time>2017-02-12T10:18:37.000Z</time>
      </trkpt>
      <trkpt lat="47.40639" lon="6.70568">
        <ele>499</ele>
        <time>2017-02-12T10:18:38.000Z</time>
      </trkpt>
      <trkpt lat="47.40642" lon="6.70564">
        <ele>499.1</ele>
        <time>2017-02-12T10:18:39.000Z</time>
      </trkpt>
      <trkpt lat="47.40646" lon="6.70559">
        <ele>499.2</ele>
        <time>2017-02-12T10:18:40.000Z</time>
      </trkpt>
      <trkpt lat="47.40649" lon="6.70553">
        <ele>499.2</ele>
        <time>2017-02-12T10:18:41.000Z</time>
      </trkpt>
      <trkpt lat="47.40653" lon="6.70548">
        <ele>499.3</ele>
        <time>2017-02-12T10:18:42.000Z</time>
      </trkpt>
      <trkpt lat="47.40656" lon="6.70542">
        <ele>499.4</ele>
        <time>2017-02-12T10:18:43.000Z</time>
      </trkpt>
      <trkpt lat="47.40658" lon="6.70535">
        <ele>499.4</ele>
        <time>2017-02-12T10:18:44.000Z</time>
      </trkpt>
      <trkpt lat="47.40661" lon="6.70529">
        <ele>499.4</ele>
        <time>2017-02-12T10:18:45.000Z</time>
      </trkpt>
      <trkpt lat="47.40664" lon="6.70525">
        <ele>499.5</ele>
        <time>2017-02-12T10:18:46.000Z</time>
      </trkpt>
      <trkpt lat="47.40667" lon="6.70523">
        <ele>499.6</ele>
        <time>2017-02-12T10:18:47.000Z</time>
      </trkpt>
      <trkpt lat="47.4067" lon="6.70522">
        <ele>499.7</ele>
        <time>2017-02-12T10:18:48.000Z</time>
      </trkpt>
      <trkpt lat="47.40672" lon="6.7052">
        <ele>499.8</ele>
        <time>2017-02-12T10:18:49.000Z</time>
      </trkpt>
      <trkpt lat="47.40675" lon="6.70514">
        <ele>499.9</ele>
        <time>2017-02-12T10:18:50.000Z</time>
      </trkpt>
      <trkpt lat="47.40674" lon="6.70505">
        <ele>500.7</ele>
        <time>2017-02-12T10:18:51.000Z</time>
      </trkpt>
      <trkpt lat="47.40674" lon="6.70494">
        <ele>500.3</ele>
        <time>2017-02-12T10:18:52.000Z</time>
      </trkpt>
      <trkpt lat="47.40676" lon="6.70486">
        <ele>500.4</ele>
        <time>2017-02-12T10:18:53.000Z</time>
      </trkpt>
      <trkpt lat="47.4068" lon="6.7048">
        <ele>500.4</ele>
        <time>2017-02-12T10:18:54.000Z</time>
      </trkpt>
      <trkpt lat="47.40683" lon="6.70473">
        <ele>500.3</ele>
        <time>2017-02-12T10:18:55.000Z</time>
      </trkpt>
      <trkpt lat="47.40683" lon="6.70466">
        <ele>500.3</ele>
        <time>2017-02-12T10:18:56.000Z</time>
      </trkpt>
      <trkpt lat="47.40683" lon="6.7046">
        <ele>500.3</ele>
        <time>2017-02-12T10:18:57.000Z</time>
      </trkpt>
      <trkpt lat="47.40683" lon="6.70452">
        <ele>499.9</ele>
        <time>2017-02-12T10:18:58.000Z</time>
      </trkpt>
      <trkpt lat="47.40684" lon="6.70444">
        <ele>499.5</ele>
        <time>2017-02-12T10:18:59.000Z</time>
      </trkpt>
      <trkpt lat="47.40684" lon="6.70435">
        <ele>499.2</ele>
        <time>2017-02-12T10:19:00.000Z</time>
      </trkpt>
      <trkpt lat="47.40685" lon="6.70428">
        <ele>499</ele>
        <time>2017-02-12T10:19:01.000Z</time>
      </trkpt>
      <trkpt lat="47.40686" lon="6.70423">
        <ele>499</ele>
        <time>2017-02-12T10:19:02.000Z</time>
      </trkpt>
      <trkpt lat="47.40687" lon="6.70418">
        <ele>498.9</ele>
        <time>2017-02-12T10:19:03.000Z</time>
      </trkpt>
      <trkpt lat="47.40688" lon="6.70413">
        <ele>498.8</ele>
        <time>2017-02-12T10:19:04.000Z</time>
      </trkpt>
      <trkpt lat="47.4069" lon="6.70409">
        <ele>498.8</ele>
        <time>2017-02-12T10:19:05.000Z</time>
      </trkpt>
      <trkpt lat="47.40692" lon="6.70408">
        <ele>498.5</ele>
        <time>2017-02-12T10:19:08.000Z</time>
      </trkpt>
      <trkpt lat="47.40694" lon="6.70409">
        <ele>498.4</ele>
        <time>2017-02-12T10:19:09.000Z</time>
      </trkpt>
      <trkpt lat="47.40698" lon="6.70411">
        <ele>497.2</ele>
        <time>2017-02-12T10:19:10.000Z</time>
      </trkpt>
      <trkpt lat="47.40701" lon="6.70411">
        <ele>497.1</ele>
        <time>2017-02-12T10:19:11.000Z</time>
      </trkpt>
      <trkpt lat="47.40704" lon="6.70413">
        <ele>497</ele>
        <time>2017-02-12T10:19:12.000Z</time>
      </trkpt>
      <trkpt lat="47.40708" lon="6.70416">
        <ele>496.9</ele>
        <time>2017-02-12T10:19:13.000Z</time>
      </trkpt>
      <trkpt lat="47.40709" lon="6.70413">
        <ele>496.8</ele>
        <time>2017-02-12T10:19:14.000Z</time>
      </trkpt>
      <trkpt lat="47.40712" lon="6.7041">
        <ele>496.6</ele>
        <time>2017-02-12T10:19:15.000Z</time>
      </trkpt>
      <trkpt lat="47.40715" lon="6.70408">
        <ele>496.4</ele>
        <time>2017-02-12T10:19:16.000Z</time>
      </trkpt>
      <trkpt lat="47.40719" lon="6.70408">
        <ele>496.3</ele>
        <time>2017-02-12T10:19:17.000Z</time>
      </trkpt>
      <trkpt lat="47.40722" lon="6.70409">
        <ele>496.1</ele>
        <time>2017-02-12T10:19:18.000Z</time>
      </trkpt>
      <trkpt lat="47.40725" lon="6.7041">
        <ele>495.9</ele>
        <time>2017-02-12T10:19:19.000Z</time>
      </trkpt>
      <trkpt lat="47.40728" lon="6.70411">
        <ele>495.7</ele>
        <time>2017-02-12T10:19:20.000Z</time>
      </trkpt>
      <trkpt lat="47.4073" lon="6.70412">
        <ele>495.6</ele>
        <time>2017-02-12T10:19:21.000Z</time>
      </trkpt>
      <trkpt lat="47.40732" lon="6.70412">
        <ele>495.4</ele>
        <time>2017-02-12T10:19:22.000Z</time>
      </trkpt>
      <trkpt lat="47.40736" lon="6.70413">
        <ele>495.2</ele>
        <time>2017-02-12T10:19:23.000Z</time>
      </trkpt>
      <trkpt lat="47.4074" lon="6.70415">
        <ele>494.9</ele>
        <time>2017-02-12T10:19:24.000Z</time>
      </trkpt>
      <trkpt lat="47.40743" lon="6.70416">
        <ele>494.7</ele>
        <time>2017-02-12T10:19:25.000Z</time>
      </trkpt>
      <trkpt lat="47.40747" lon="6.7042">
        <ele>494.5</ele>
        <time>2017-02-12T10:19:26.000Z</time>
      </trkpt>
      <trkpt lat="47.40751" lon="6.70424">
        <ele>494.3</ele>
        <time>2017-02-12T10:19:27.000Z</time>
      </trkpt>
      <trkpt lat="47.40755" lon="6.70426">
        <ele>494.2</ele>
        <time>2017-02-12T10:19:28.000Z</time>
      </trkpt>
      <trkpt lat="47.40758" lon="6.70427">
        <ele>494</ele>
        <time>2017-02-12T10:19:29.000Z</time>
      </trkpt>
      <trkpt lat="47.40761" lon="6.70428">
        <ele>493.7</ele>
        <time>2017-02-12T10:19:30.000Z</time>
      </trkpt>
      <trkpt lat="47.40764" lon="6.70429">
        <ele>493.6</ele>
        <time>2017-02-12T10:19:31.000Z</time>
      </trkpt>
      <trkpt lat="47.40767" lon="6.70429">
        <ele>493.4</ele>
        <time>2017-02-12T10:19:32.000Z</time>
      </trkpt>
      <trkpt lat="47.40773" lon="6.7043">
        <ele>492</ele>
        <time>2017-02-12T10:19:33.000Z</time>
      </trkpt>
      <trkpt lat="47.40779" lon="6.70431">
        <ele>491</ele>
        <time>2017-02-12T10:19:34.000Z</time>
      </trkpt>
      <trkpt lat="47.40784" lon="6.70431">
        <ele>490.1</ele>
        <time>2017-02-12T10:19:35.000Z</time>
      </trkpt>
      <trkpt lat="47.4079" lon="6.70431">
        <ele>488.8</ele>
        <time>2017-02-12T10:19:36.000Z</time>
      </trkpt>
      <trkpt lat="47.40796" lon="6.70431">
        <ele>488.2</ele>
        <time>2017-02-12T10:19:37.000Z</time>
      </trkpt>
      <trkpt lat="47.40801" lon="6.70433">
        <ele>487.6</ele>
        <time>2017-02-12T10:19:38.000Z</time>
      </trkpt>
      <trkpt lat="47.40807" lon="6.70435">
        <ele>487.2</ele>
        <time>2017-02-12T10:19:39.000Z</time>
      </trkpt>
      <trkpt lat="47.40812" lon="6.70436">
        <ele>486.5</ele>
        <time>2017-02-12T10:19:40.000Z</time>
      </trkpt>
      <trkpt lat="47.40818" lon="6.70437">
        <ele>486.1</ele>
        <time>2017-02-12T10:19:41.000Z</time>
      </trkpt>
      <trkpt lat="47.40825" lon="6.70438">
        <ele>484.9</ele>
        <time>2017-02-12T10:19:42.000Z</time>
      </trkpt>
      <trkpt lat="47.40831" lon="6.70439">
        <ele>483.2</ele>
        <time>2017-02-12T10:19:43.000Z</time>
      </trkpt>
      <trkpt lat="47.40838" lon="6.70441">
        <ele>481.9</ele>
        <time>2017-02-12T10:19:44.000Z</time>
      </trkpt>
      <trkpt lat="47.40844" lon="6.70443">
        <ele>480.9</ele>
        <time>2017-02-12T10:19:45.000Z</time>
      </trkpt>
      <trkpt lat="47.4085" lon="6.70446">
        <ele>479.9</ele>
        <time>2017-02-12T10:19:46.000Z</time>
      </trkpt>
      <trkpt lat="47.40856" lon="6.7045">
        <ele>478.9</ele>
        <time>2017-02-12T10:19:47.000Z</time>
      </trkpt>
      <trkpt lat="47.40862" lon="6.70455">
        <ele>478.3</ele>
        <time>2017-02-12T10:19:48.000Z</time>
      </trkpt>
      <trkpt lat="47.40868" lon="6.70455">
        <ele>478.3</ele>
        <time>2017-02-12T10:19:49.000Z</time>
      </trkpt>
      <trkpt lat="47.40874" lon="6.70454">
        <ele>478.5</ele>
        <time>2017-02-12T10:19:50.000Z</time>
      </trkpt>
      <trkpt lat="47.40883" lon="6.70453">
        <ele>478</ele>
        <time>2017-02-12T10:19:51.000Z</time>
      </trkpt>
      <trkpt lat="47.40891" lon="6.7045">
        <ele>477.4</ele>
        <time>2017-02-12T10:19:52.000Z</time>
      </trkpt>
      <trkpt lat="47.40898" lon="6.70447">
        <ele>476.4</ele>
        <time>2017-02-12T10:19:53.000Z</time>
      </trkpt>
      <trkpt lat="47.40904" lon="6.70443">
        <ele>475</ele>
        <time>2017-02-12T10:19:54.000Z</time>
      </trkpt>
      <trkpt lat="47.4091" lon="6.7044">
        <ele>474.1</ele>
        <time>2017-02-12T10:19:55.000Z</time>
      </trkpt>
      <trkpt lat="47.40915" lon="6.70437">
        <ele>474.1</ele>
        <time>2017-02-12T10:19:56.000Z</time>
      </trkpt>
      <trkpt lat="47.40919" lon="6.70434">
        <ele>474</ele>
        <time>2017-02-12T10:19:57.000Z</time>
      </trkpt>
      <trkpt lat="47.40922" lon="6.70425">
        <ele>473.9</ele>
        <time>2017-02-12T10:19:58.000Z</time>
      </trkpt>
      <trkpt lat="47.40926" lon="6.70413">
        <ele>473.8</ele>
        <time>2017-02-12T10:19:59.000Z</time>
      </trkpt>
      <trkpt lat="47.40929" lon="6.70405">
        <ele>473.7</ele>
        <time>2017-02-12T10:20:00.000Z</time>
      </trkpt>
      <trkpt lat="47.40931" lon="6.704">
        <ele>473.5</ele>
        <time>2017-02-12T10:20:01.000Z</time>
      </trkpt>
      <trkpt lat="47.40933" lon="6.70397">
        <ele>473.4</ele>
        <time>2017-02-12T10:20:02.000Z</time>
      </trkpt>
      <trkpt lat="47.40934" lon="6.70396">
        <ele>472.7</ele>
        <time>2017-02-12T10:23:37.000Z</time>
      </trkpt>
      <trkpt lat="47.40946" lon="6.70397">
        <ele>472.7</ele>
        <time>2017-02-12T10:23:38.000Z</time>
      </trkpt>
      <trkpt lat="47.40949" lon="6.70399">
        <ele>472.6</ele>
        <time>2017-02-12T10:23:39.000Z</time>
      </trkpt>
      <trkpt lat="47.40953" lon="6.70399">
        <ele>471.2</ele>
        <time>2017-02-12T10:23:40.000Z</time>
      </trkpt>
      <trkpt lat="47.40956" lon="6.704">
        <ele>471.1</ele>
        <time>2017-02-12T10:23:41.000Z</time>
      </trkpt>
      <trkpt lat="47.40959" lon="6.70402">
        <ele>471</ele>
        <time>2017-02-12T10:23:42.000Z</time>
      </trkpt>
      <trkpt lat="47.40963" lon="6.70404">
        <ele>470.8</ele>
        <time>2017-02-12T10:23:43.000Z</time>
      </trkpt>
      <trkpt lat="47.40967" lon="6.70405">
        <ele>469.9</ele>
        <time>2017-02-12T10:23:44.000Z</time>
      </trkpt>
      <trkpt lat="47.40971" lon="6.70407">
        <ele>469.8</ele>
        <time>2017-02-12T10:23:45.000Z</time>
      </trkpt>
      <trkpt lat="47.40974" lon="6.70409">
        <ele>469.7</ele>
        <time>2017-02-12T10:23:46.000Z</time>
      </trkpt>
      <trkpt lat="47.40978" lon="6.7041">
        <ele>469.7</ele>
        <time>2017-02-12T10:23:47.000Z</time>
      </trkpt>
      <trkpt lat="47.40982" lon="6.70412">
        <ele>469.6</ele>
        <time>2017-02-12T10:23:48.000Z</time>
      </trkpt>
      <trkpt lat="47.40988" lon="6.70413">
        <ele>469.1</ele>
        <time>2017-02-12T10:23:49.000Z</time>
      </trkpt>
      <trkpt lat="47.40992" lon="6.70415">
        <ele>469.4</ele>
        <time>2017-02-12T10:23:50.000Z</time>
      </trkpt>
      <trkpt lat="47.40997" lon="6.70416">
        <ele>469.6</ele>
        <time>2017-02-12T10:23:51.000Z</time>
      </trkpt>
      <trkpt lat="47.41002" lon="6.70417">
        <ele>469.7</ele>
        <time>2017-02-12T10:23:52.000Z</time>
      </trkpt>
      <trkpt lat="47.41007" lon="6.70418">
        <ele>469.4</ele>
        <time>2017-02-12T10:23:53.000Z</time>
      </trkpt>
      <trkpt lat="47.41012" lon="6.7042">
        <ele>468.8</ele>
        <time>2017-02-12T10:23:54.000Z</time>
      </trkpt>
      <trkpt lat="47.41018" lon="6.70422">
        <ele>467.9</ele>
        <time>2017-02-12T10:23:55.000Z</time>
      </trkpt>
      <trkpt lat="47.41024" lon="6.70424">
        <ele>466.6</ele>
        <time>2017-02-12T10:23:56.000Z</time>
      </trkpt>
      <trkpt lat="47.4103" lon="6.70426">
        <ele>465.8</ele>
        <time>2017-02-12T10:23:57.000Z</time>
      </trkpt>
      <trkpt lat="47.41034" lon="6.70429">
        <ele>464.4</ele>
        <time>2017-02-12T10:23:58.000Z</time>
      </trkpt>
      <trkpt lat="47.4104" lon="6.70432">
        <ele>463.8</ele>
        <time>2017-02-12T10:23:59.000Z</time>
      </trkpt>
      <trkpt lat="47.41045" lon="6.70433">
        <ele>463.4</ele>
        <time>2017-02-12T10:24:00.000Z</time>
      </trkpt>
      <trkpt lat="47.4105" lon="6.70435">
        <ele>462.4</ele>
        <time>2017-02-12T10:24:01.000Z</time>
      </trkpt>
      <trkpt lat="47.41056" lon="6.70435">
        <ele>461.6</ele>
        <time>2017-02-12T10:24:02.000Z</time>
      </trkpt>
      <trkpt lat="47.41063" lon="6.70434">
        <ele>460.4</ele>
        <time>2017-02-12T10:24:03.000Z</time>
      </trkpt>
      <trkpt lat="47.41068" lon="6.70432">
        <ele>458.9</ele>
        <time>2017-02-12T10:24:04.000Z</time>
      </trkpt>
      <trkpt lat="47.41072" lon="6.70431">
        <ele>458.9</ele>
        <time>2017-02-12T10:24:05.000Z</time>
      </trkpt>
      <trkpt lat="47.41077" lon="6.7043">
        <ele>458.8</ele>
        <time>2017-02-12T10:24:06.000Z</time>
      </trkpt>
      <trkpt lat="47.41081" lon="6.70426">
        <ele>458.7</ele>
        <time>2017-02-12T10:24:07.000Z</time>
      </trkpt>
      <trkpt lat="47.41087" lon="6.7042">
        <ele>458.6</ele>
        <time>2017-02-12T10:24:08.000Z</time>
      </trkpt>
      <trkpt lat="47.41091" lon="6.7041">
        <ele>458.1</ele>
        <time>2017-02-12T10:24:09.000Z</time>
      </trkpt>
      <trkpt lat="47.41095" lon="6.70398">
        <ele>457.9</ele>
        <time>2017-02-12T10:24:10.000Z</time>
      </trkpt>
      <trkpt lat="47.41097" lon="6.7039">
        <ele>457.4</ele>
        <time>2017-02-12T10:24:11.000Z</time>
      </trkpt>
      <trkpt lat="47.41099" lon="6.70382">
        <ele>457.4</ele>
        <time>2017-02-12T10:24:12.000Z</time>
      </trkpt>
      <trkpt lat="47.41102" lon="6.70374">
        <ele>456.8</ele>
        <time>2017-02-12T10:24:13.000Z</time>
      </trkpt>
      <trkpt lat="47.41104" lon="6.70365">
        <ele>456.1</ele>
        <time>2017-02-12T10:24:14.000Z</time>
      </trkpt>
      <trkpt lat="47.41107" lon="6.70358">
        <ele>456.2</ele>
        <time>2017-02-12T10:24:15.000Z</time>
      </trkpt>
      <trkpt lat="47.41109" lon="6.7035">
        <ele>456.5</ele>
        <time>2017-02-12T10:24:16.000Z</time>
      </trkpt>
      <trkpt lat="47.41112" lon="6.70342">
        <ele>456.2</ele>
        <time>2017-02-12T10:24:17.000Z</time>
      </trkpt>
      <trkpt lat="47.41115" lon="6.70335">
        <ele>456.5</ele>
        <time>2017-02-12T10:24:18.000Z</time>
      </trkpt>
      <trkpt lat="47.41118" lon="6.70327">
        <ele>456.5</ele>
        <time>2017-02-12T10:24:19.000Z</time>
      </trkpt>
      <trkpt lat="47.41123" lon="6.70317">
        <ele>457</ele>
        <time>2017-02-12T10:24:20.000Z</time>
      </trkpt>
      <trkpt lat="47.41126" lon="6.70306">
        <ele>457.2</ele>
        <time>2017-02-12T10:24:21.000Z</time>
      </trkpt>
      <trkpt lat="47.4113" lon="6.70297">
        <ele>456.3</ele>
        <time>2017-02-12T10:24:22.000Z</time>
      </trkpt>
      <trkpt lat="47.41133" lon="6.70288">
        <ele>455.4</ele>
        <time>2017-02-12T10:24:23.000Z</time>
      </trkpt>
      <trkpt lat="47.41135" lon="6.70278">
        <ele>454.9</ele>
        <time>2017-02-12T10:24:24.000Z</time>
      </trkpt>
      <trkpt lat="47.41137" lon="6.70269">
        <ele>454.1</ele>
        <time>2017-02-12T10:24:25.000Z</time>
      </trkpt>
      <trkpt lat="47.41138" lon="6.7026">
        <ele>453</ele>
        <time>2017-02-12T10:24:26.000Z</time>
      </trkpt>
      <trkpt lat="47.41139" lon="6.70251">
        <ele>451.9</ele>
        <time>2017-02-12T10:24:27.000Z</time>
      </trkpt>
      <trkpt lat="47.41142" lon="6.70244">
        <ele>450.7</ele>
        <time>2017-02-12T10:24:28.000Z</time>
      </trkpt>
      <trkpt lat="47.41144" lon="6.70238">
        <ele>450.1</ele>
        <time>2017-02-12T10:24:29.000Z</time>
      </trkpt>
      <trkpt lat="47.41146" lon="6.70233">
        <ele>448.6</ele>
        <time>2017-02-12T10:24:30.000Z</time>
      </trkpt>
      <trkpt lat="47.41148" lon="6.70232">
        <ele>448.5</ele>
        <time>2017-02-12T10:24:31.000Z</time>
      </trkpt>
      <trkpt lat="47.41149" lon="6.70231">
        <ele>446</ele>
        <time>2017-02-12T10:24:47.000Z</time>
      </trkpt>
      <trkpt lat="47.41149" lon="6.70218">
        <ele>445.5</ele>
        <time>2017-02-12T10:24:48.000Z</time>
      </trkpt>
      <trkpt lat="47.41151" lon="6.70214">
        <ele>445.2</ele>
        <time>2017-02-12T10:24:49.000Z</time>
      </trkpt>
      <trkpt lat="47.41153" lon="6.70209">
        <ele>444.9</ele>
        <time>2017-02-12T10:24:50.000Z</time>
      </trkpt>
      <trkpt lat="47.41153" lon="6.70204">
        <ele>444.5</ele>
        <time>2017-02-12T10:24:51.000Z</time>
      </trkpt>
      <trkpt lat="47.41153" lon="6.70201">
        <ele>444.2</ele>
        <time>2017-02-12T10:24:52.000Z</time>
      </trkpt>
      <trkpt lat="47.41152" lon="6.70199">
        <ele>443.6</ele>
        <time>2017-02-12T10:24:54.000Z</time>
      </trkpt>
      <trkpt lat="47.41151" lon="6.70193">
        <ele>443.3</ele>
        <time>2017-02-12T10:24:55.000Z</time>
      </trkpt>
      <trkpt lat="47.41151" lon="6.70187">
        <ele>443.1</ele>
        <time>2017-02-12T10:24:56.000Z</time>
      </trkpt>
      <trkpt lat="47.4115" lon="6.70184">
        <ele>441.6</ele>
        <time>2017-02-12T10:25:10.000Z</time>
      </trkpt>
      <trkpt lat="47.41165" lon="6.70178">
        <ele>441.5</ele>
        <time>2017-02-12T10:25:11.000Z</time>
      </trkpt>
      <trkpt lat="47.41165" lon="6.70178">
        <ele>441.5</ele>
        <time>2017-02-12T10:25:12.000Z</time>
      </trkpt>
      <trkpt lat="47.41169" lon="6.70178">
        <ele>441.4</ele>
        <time>2017-02-12T10:25:13.000Z</time>
      </trkpt>
      <trkpt lat="47.41173" lon="6.70177">
        <ele>441.2</ele>
        <time>2017-02-12T10:25:15.000Z</time>
      </trkpt>
      <trkpt lat="47.41175" lon="6.70176">
        <ele>441.1</ele>
        <time>2017-02-12T10:25:16.000Z</time>
      </trkpt>
      <trkpt lat="47.41178" lon="6.70175">
        <ele>441</ele>
        <time>2017-02-12T10:25:17.000Z</time>
      </trkpt>
      <trkpt lat="47.41181" lon="6.70174">
        <ele>440.8</ele>
        <time>2017-02-12T10:25:18.000Z</time>
      </trkpt>
      <trkpt lat="47.41186" lon="6.70174">
        <ele>440.8</ele>
        <time>2017-02-12T10:25:19.000Z</time>
      </trkpt>
      <trkpt lat="47.41189" lon="6.70175">
        <ele>440.7</ele>
        <time>2017-02-12T10:25:20.000Z</time>
      </trkpt>
      <trkpt lat="47.41192" lon="6.70176">
        <ele>440.6</ele>
        <time>2017-02-12T10:25:21.000Z</time>
      </trkpt>
      <trkpt lat="47.41196" lon="6.70177">
        <ele>440.6</ele>
        <time>2017-02-12T10:25:22.000Z</time>
      </trkpt>
      <trkpt lat="47.412" lon="6.70179">
        <ele>440.5</ele>
        <time>2017-02-12T10:25:23.000Z</time>
      </trkpt>
      <trkpt lat="47.41203" lon="6.70178">
        <ele>440.4</ele>
        <time>2017-02-12T10:25:24.000Z</time>
      </trkpt>
      <trkpt lat="47.41207" lon="6.70178">
        <ele>440.4</ele>
        <time>2017-02-12T10:25:25.000Z</time>
      </trkpt>
      <trkpt lat="47.4121" lon="6.70178">
        <ele>440.4</ele>
        <time>2017-02-12T10:25:26.000Z</time>
      </trkpt>
      <trkpt lat="47.41214" lon="6.70178">
        <ele>440.4</ele>
        <time>2017-02-12T10:25:27.000Z</time>
      </trkpt>
      <trkpt lat="47.41218" lon="6.70178">
        <ele>440.3</ele>
        <time>2017-02-12T10:25:28.000Z</time>
      </trkpt>
      <trkpt lat="47.41222" lon="6.70178">
        <ele>440.2</ele>
        <time>2017-02-12T10:25:29.000Z</time>
      </trkpt>
      <trkpt lat="47.41227" lon="6.70178">
        <ele>439.1</ele>
        <time>2017-02-12T10:25:30.000Z</time>
      </trkpt>
      <trkpt lat="47.41231" lon="6.70179">
        <ele>437.5</ele>
        <time>2017-02-12T10:25:31.000Z</time>
      </trkpt>
      <trkpt lat="47.41235" lon="6.7018">
        <ele>437.4</ele>
        <time>2017-02-12T10:25:32.000Z</time>
      </trkpt>
      <trkpt lat="47.4124" lon="6.70181">
        <ele>437.4</ele>
        <time>2017-02-12T10:25:33.000Z</time>
      </trkpt>
      <trkpt lat="47.41245" lon="6.70182">
        <ele>437.4</ele>
        <time>2017-02-12T10:25:34.000Z</time>
      </trkpt>
      <trkpt lat="47.4125" lon="6.70182">
        <ele>437.3</ele>
        <time>2017-02-12T10:25:35.000Z</time>
      </trkpt>
      <trkpt lat="47.41255" lon="6.70182">
        <ele>437.2</ele>
        <time>2017-02-12T10:25:36.000Z</time>
      </trkpt>
      <trkpt lat="47.41259" lon="6.70182">
        <ele>437.2</ele>
        <time>2017-02-12T10:25:37.000Z</time>
      </trkpt>
      <trkpt lat="47.41263" lon="6.70182">
        <ele>437.3</ele>
        <time>2017-02-12T10:25:38.000Z</time>
      </trkpt>
      <trkpt lat="47.41267" lon="6.70183">
        <ele>437.3</ele>
        <time>2017-02-12T10:25:39.000Z</time>
      </trkpt>
      <trkpt lat="47.4127" lon="6.70183">
        <ele>437.4</ele>
        <time>2017-02-12T10:25:40.000Z</time>
      </trkpt>
      <trkpt lat="47.41273" lon="6.70182">
        <ele>437.4</ele>
        <time>2017-02-12T10:25:41.000Z</time>
      </trkpt>
      <trkpt lat="47.41275" lon="6.70181">
        <ele>437.5</ele>
        <time>2017-02-12T10:25:42.000Z</time>
      </trkpt>
      <trkpt lat="47.41276" lon="6.7018">
        <ele>437.7</ele>
        <time>2017-02-12T10:25:43.000Z</time>
      </trkpt>
      <trkpt lat="47.41279" lon="6.70179">
        <ele>437.8</ele>
        <time>2017-02-12T10:25:44.000Z</time>
      </trkpt>
      <trkpt lat="47.41282" lon="6.70177">
        <ele>437.8</ele>
        <time>2017-02-12T10:25:45.000Z</time>
      </trkpt>
      <trkpt lat="47.41285" lon="6.70175">
        <ele>437.8</ele>
        <time>2017-02-12T10:25:46.000Z</time>
      </trkpt>
      <trkpt lat="47.41289" lon="6.70172">
        <ele>437.9</ele>
        <time>2017-02-12T10:25:48.000Z</time>
      </trkpt>
      <trkpt lat="47.41291" lon="6.70171">
        <ele>437.9</ele>
        <time>2017-02-12T10:25:49.000Z</time>
      </trkpt>
      <trkpt lat="47.41294" lon="6.70169">
        <ele>437.7</ele>
        <time>2017-02-12T10:25:50.000Z</time>
      </trkpt>
      <trkpt lat="47.41297" lon="6.70166">
        <ele>437.5</ele>
        <time>2017-02-12T10:25:51.000Z</time>
      </trkpt>
      <trkpt lat="47.41303" lon="6.70162">
        <ele>437.2</ele>
        <time>2017-02-12T10:25:52.000Z</time>
      </trkpt>
      <trkpt lat="47.41309" lon="6.70158">
        <ele>436.8</ele>
        <time>2017-02-12T10:25:53.000Z</time>
      </trkpt>
      <trkpt lat="47.41314" lon="6.70153">
        <ele>436.5</ele>
        <time>2017-02-12T10:25:54.000Z</time>
      </trkpt>
      <trkpt lat="47.41318" lon="6.70148">
        <ele>436</ele>
        <time>2017-02-12T10:25:55.000Z</time>
      </trkpt>
      <trkpt lat="47.41322" lon="6.70143">
        <ele>435.7</ele>
        <time>2017-02-12T10:25:56.000Z</time>
      </trkpt>
      <trkpt lat="47.41328" lon="6.70135">
        <ele>435.3</ele>
        <time>2017-02-12T10:25:57.000Z</time>
      </trkpt>
      <trkpt lat="47.41331" lon="6.70129">
        <ele>435</ele>
        <time>2017-02-12T10:25:58.000Z</time>
      </trkpt>
      <trkpt lat="47.41333" lon="6.70123">
        <ele>434.6</ele>
        <time>2017-02-12T10:25:59.000Z</time>
      </trkpt>
      <trkpt lat="47.41335" lon="6.70119">
        <ele>434.2</ele>
        <time>2017-02-12T10:26:00.000Z</time>
      </trkpt>
      <trkpt lat="47.41338" lon="6.70114">
        <ele>433.7</ele>
        <time>2017-02-12T10:26:01.000Z</time>
      </trkpt>
      <trkpt lat="47.4134" lon="6.7011">
        <ele>433.3</ele>
        <time>2017-02-12T10:26:02.000Z</time>
      </trkpt>
      <trkpt lat="47.41343" lon="6.70105">
        <ele>432.9</ele>
        <time>2017-02-12T10:26:03.000Z</time>
      </trkpt>
      <trkpt lat="47.41347" lon="6.70099">
        <ele>427.3</ele>
        <time>2017-02-12T10:26:04.000Z</time>
      </trkpt>
      <trkpt lat="47.41351" lon="6.70093">
        <ele>423.1</ele>
        <time>2017-02-12T10:26:05.000Z</time>
      </trkpt>
      <trkpt lat="47.41355" lon="6.70088">
        <ele>419.3</ele>
        <time>2017-02-12T10:26:06.000Z</time>
      </trkpt>
      <trkpt lat="47.41358" lon="6.70083">
        <ele>417</ele>
        <time>2017-02-12T10:26:07.000Z</time>
      </trkpt>
      <trkpt lat="47.41362" lon="6.70078">
        <ele>414.9</ele>
        <time>2017-02-12T10:26:08.000Z</time>
      </trkpt>
      <trkpt lat="47.41365" lon="6.70072">
        <ele>413.3</ele>
        <time>2017-02-12T10:26:09.000Z</time>
      </trkpt>
      <trkpt lat="47.41369" lon="6.70066">
        <ele>412.7</ele>
        <time>2017-02-12T10:26:10.000Z</time>
      </trkpt>
      <trkpt lat="47.41371" lon="6.70062">
        <ele>412.6</ele>
        <time>2017-02-12T10:26:11.000Z</time>
      </trkpt>
      <trkpt lat="47.41374" lon="6.70057">
        <ele>412.5</ele>
        <time>2017-02-12T10:26:12.000Z</time>
      </trkpt>
      <trkpt lat="47.41377" lon="6.70052">
        <ele>412.3</ele>
        <time>2017-02-12T10:26:13.000Z</time>
      </trkpt>
      <trkpt lat="47.4138" lon="6.70046">
        <ele>412.2</ele>
        <time>2017-02-12T10:26:14.000Z</time>
      </trkpt>
      <trkpt lat="47.41384" lon="6.70038">
        <ele>412.1</ele>
        <time>2017-02-12T10:26:15.000Z</time>
      </trkpt>
      <trkpt lat="47.41387" lon="6.70034">
        <ele>412.1</ele>
        <time>2017-02-12T10:26:16.000Z</time>
      </trkpt>
      <trkpt lat="47.4139" lon="6.70031">
        <ele>412.2</ele>
        <time>2017-02-12T10:26:17.000Z</time>
      </trkpt>
      <trkpt lat="47.41393" lon="6.70032">
        <ele>412.5</ele>
        <time>2017-02-12T10:26:18.000Z</time>
      </trkpt>
      <trkpt lat="47.41397" lon="6.70031">
        <ele>414.5</ele>
        <time>2017-02-12T10:26:19.000Z</time>
      </trkpt>
      <trkpt lat="47.41401" lon="6.7003">
        <ele>415.7</ele>
        <time>2017-02-12T10:26:20.000Z</time>
      </trkpt>
      <trkpt lat="47.41404" lon="6.7003">
        <ele>415.7</ele>
        <time>2017-02-12T10:26:21.000Z</time>
      </trkpt>
      <trkpt lat="47.41406" lon="6.70031">
        <ele>415.9</ele>
        <time>2017-02-12T10:26:22.000Z</time>
      </trkpt>
      <trkpt lat="47.4141" lon="6.70029">
        <ele>418.2</ele>
        <time>2017-02-12T10:26:23.000Z</time>
      </trkpt>
      <trkpt lat="47.41415" lon="6.70029">
        <ele>420.6</ele>
        <time>2017-02-12T10:26:24.000Z</time>
      </trkpt>
      <trkpt lat="47.41419" lon="6.70029">
        <ele>423</ele>
        <time>2017-02-12T10:26:25.000Z</time>
      </trkpt>
      <trkpt lat="47.41423" lon="6.7003">
        <ele>423.3</ele>
        <time>2017-02-12T10:26:26.000Z</time>
      </trkpt>
      <trkpt lat="47.41428" lon="6.70032">
        <ele>423.5</ele>
        <time>2017-02-12T10:26:27.000Z</time>
      </trkpt>
      <trkpt lat="47.41432" lon="6.70033">
        <ele>425.5</ele>
        <time>2017-02-12T10:26:28.000Z</time>
      </trkpt>
      <trkpt lat="47.41436" lon="6.70033">
        <ele>425.6</ele>
        <time>2017-02-12T10:26:29.000Z</time>
      </trkpt>
      <trkpt lat="47.4144" lon="6.70033">
        <ele>425.7</ele>
        <time>2017-02-12T10:26:30.000Z</time>
      </trkpt>
      <trkpt lat="47.41444" lon="6.70033">
        <ele>425.7</ele>
        <time>2017-02-12T10:26:31.000Z</time>
      </trkpt>
      <trkpt lat="47.41448" lon="6.70034">
        <ele>425.5</ele>
        <time>2017-02-12T10:26:32.000Z</time>
      </trkpt>
      <trkpt lat="47.41453" lon="6.70035">
        <ele>425.7</ele>
        <time>2017-02-12T10:26:33.000Z</time>
      </trkpt>
      <trkpt lat="47.41457" lon="6.70036">
        <ele>425.7</ele>
        <time>2017-02-12T10:26:34.000Z</time>
      </trkpt>
      <trkpt lat="47.41462" lon="6.70037">
        <ele>425.6</ele>
        <time>2017-02-12T10:26:35.000Z</time>
      </trkpt>
      <trkpt lat="47.41466" lon="6.70038">
        <ele>425.5</ele>
        <time>2017-02-12T10:26:36.000Z</time>
      </trkpt>
      <trkpt lat="47.4147" lon="6.7004">
        <ele>425.1</ele>
        <time>2017-02-12T10:26:37.000Z</time>
      </trkpt>
      <trkpt lat="47.41475" lon="6.7004">
        <ele>425</ele>
        <time>2017-02-12T10:26:38.000Z</time>
      </trkpt>
      <trkpt lat="47.41479" lon="6.7004">
        <ele>424.7</ele>
        <time>2017-02-12T10:26:39.000Z</time>
      </trkpt>
      <trkpt lat="47.41483" lon="6.7004">
        <ele>424.1</ele>
        <time>2017-02-12T10:26:40.000Z</time>
      </trkpt>
      <trkpt lat="47.41488" lon="6.7004">
        <ele>423.3</ele>
        <time>2017-02-12T10:26:41.000Z</time>
      </trkpt>
      <trkpt lat="47.41492" lon="6.70039">
        <ele>423.2</ele>
        <time>2017-02-12T10:26:42.000Z</time>
      </trkpt>
      <trkpt lat="47.41495" lon="6.70038">
        <ele>423.1</ele>
        <time>2017-02-12T10:26:43.000Z</time>
      </trkpt>
      <trkpt lat="47.41499" lon="6.70037">
        <ele>423.1</ele>
        <time>2017-02-12T10:26:44.000Z</time>
      </trkpt>
      <trkpt lat="47.41502" lon="6.70035">
        <ele>422.9</ele>
        <time>2017-02-12T10:26:45.000Z</time>
      </trkpt>
      <trkpt lat="47.41506" lon="6.70034">
        <ele>422.8</ele>
        <time>2017-02-12T10:26:46.000Z</time>
      </trkpt>
      <trkpt lat="47.41509" lon="6.70033">
        <ele>422.6</ele>
        <time>2017-02-12T10:26:47.000Z</time>
      </trkpt>
      <trkpt lat="47.41512" lon="6.70032">
        <ele>422.4</ele>
        <time>2017-02-12T10:26:48.000Z</time>
      </trkpt>
      <trkpt lat="47.41515" lon="6.70031">
        <ele>422.3</ele>
        <time>2017-02-12T10:26:49.000Z</time>
      </trkpt>
      <trkpt lat="47.41517" lon="6.7003">
        <ele>422.1</ele>
        <time>2017-02-12T10:26:50.000Z</time>
      </trkpt>
      <trkpt lat="47.41521" lon="6.70028">
        <ele>421.9</ele>
        <time>2017-02-12T10:26:51.000Z</time>
      </trkpt>
      <trkpt lat="47.41524" lon="6.70026">
        <ele>421.8</ele>
        <time>2017-02-12T10:26:52.000Z</time>
      </trkpt>
      <trkpt lat="47.41527" lon="6.70026">
        <ele>421.7</ele>
        <time>2017-02-12T10:26:53.000Z</time>
      </trkpt>
      <trkpt lat="47.41531" lon="6.70025">
        <ele>421.6</ele>
        <time>2017-02-12T10:26:54.000Z</time>
      </trkpt>
      <trkpt lat="47.41535" lon="6.70023">
        <ele>420.8</ele>
        <time>2017-02-12T10:26:55.000Z</time>
      </trkpt>
      <trkpt lat="47.41539" lon="6.70022">
        <ele>420.1</ele>
        <time>2017-02-12T10:26:56.000Z</time>
      </trkpt>
      <trkpt lat="47.41543" lon="6.7002">
        <ele>419.6</ele>
        <time>2017-02-12T10:26:57.000Z</time>
      </trkpt>
      <trkpt lat="47.41546" lon="6.70019">
        <ele>419.6</ele>
        <time>2017-02-12T10:26:58.000Z</time>
      </trkpt>
      <trkpt lat="47.4155" lon="6.70017">
        <ele>420</ele>
        <time>2017-02-12T10:26:59.000Z</time>
      </trkpt>
      <trkpt lat="47.41553" lon="6.70016">
        <ele>420</ele>
        <time>2017-02-12T10:27:00.000Z</time>
      </trkpt>
      <trkpt lat="47.41556" lon="6.70015">
        <ele>420.3</ele>
        <time>2017-02-12T10:27:01.000Z</time>
      </trkpt>
      <trkpt lat="47.4156" lon="6.70013">
        <ele>420.9</ele>
        <time>2017-02-12T10:27:02.000Z</time>
      </trkpt>
      <trkpt lat="47.41563" lon="6.70012">
        <ele>421.3</ele>
        <time>2017-02-12T10:27:03.000Z</time>
      </trkpt>
      <trkpt lat="47.41567" lon="6.70012">
        <ele>422.4</ele>
        <time>2017-02-12T10:27:04.000Z</time>
      </trkpt>
      <trkpt lat="47.41571" lon="6.70011">
        <ele>423.1</ele>
        <time>2017-02-12T10:27:05.000Z</time>
      </trkpt>
      <trkpt lat="47.41575" lon="6.70009">
        <ele>424.1</ele>
        <time>2017-02-12T10:27:06.000Z</time>
      </trkpt>
      <trkpt lat="47.41579" lon="6.70008">
        <ele>424.4</ele>
        <time>2017-02-12T10:27:07.000Z</time>
      </trkpt>
      <trkpt lat="47.41583" lon="6.70007">
        <ele>424.7</ele>
        <time>2017-02-12T10:27:08.000Z</time>
      </trkpt>
      <trkpt lat="47.41587" lon="6.70005">
        <ele>424.9</ele>
        <time>2017-02-12T10:27:09.000Z</time>
      </trkpt>
      <trkpt lat="47.41591" lon="6.70003">
        <ele>424.5</ele>
        <time>2017-02-12T10:27:10.000Z</time>
      </trkpt>
      <trkpt lat="47.41596" lon="6.70001">
        <ele>424.4</ele>
        <time>2017-02-12T10:27:11.000Z</time>
      </trkpt>
      <trkpt lat="47.416" lon="6.7">
        <ele>424.3</ele>
        <time>2017-02-12T10:27:12.000Z</time>
      </trkpt>
      <trkpt lat="47.41604" lon="6.69999">
        <ele>424.2</ele>
        <time>2017-02-12T10:27:13.000Z</time>
      </trkpt>
      <trkpt lat="47.41608" lon="6.69998">
        <ele>423.3</ele>
        <time>2017-02-12T10:27:14.000Z</time>
      </trkpt>
      <trkpt lat="47.41613" lon="6.69997">
        <ele>422.7</ele>
        <time>2017-02-12T10:27:15.000Z</time>
      </trkpt>
      <trkpt lat="47.41617" lon="6.69996">
        <ele>421.9</ele>
        <time>2017-02-12T10:27:16.000Z</time>
      </trkpt>
      <trkpt lat="47.41622" lon="6.69994">
        <ele>421.2</ele>
        <time>2017-02-12T10:27:17.000Z</time>
      </trkpt>
      <trkpt lat="47.41626" lon="6.69993">
        <ele>420.6</ele>
        <time>2017-02-12T10:27:18.000Z</time>
      </trkpt>
      <trkpt lat="47.4163" lon="6.69993">
        <ele>420.6</ele>
        <time>2017-02-12T10:27:19.000Z</time>
      </trkpt>
      <trkpt lat="47.41634" lon="6.69992">
        <ele>419.9</ele>
        <time>2017-02-12T10:27:20.000Z</time>
      </trkpt>
      <trkpt lat="47.41639" lon="6.69991">
        <ele>419.3</ele>
        <time>2017-02-12T10:27:21.000Z</time>
      </trkpt>
      <trkpt lat="47.41643" lon="6.69991">
        <ele>418.6</ele>
        <time>2017-02-12T10:27:22.000Z</time>
      </trkpt>
      <trkpt lat="47.41647" lon="6.6999">
        <ele>418.3</ele>
        <time>2017-02-12T10:27:23.000Z</time>
      </trkpt>
      <trkpt lat="47.41651" lon="6.6999">
        <ele>418.3</ele>
        <time>2017-02-12T10:27:24.000Z</time>
      </trkpt>
      <trkpt lat="47.41655" lon="6.6999">
        <ele>418.2</ele>
        <time>2017-02-12T10:27:25.000Z</time>
      </trkpt>
      <trkpt lat="47.41658" lon="6.69989">
        <ele>418.2</ele>
        <time>2017-02-12T10:27:26.000Z</time>
      </trkpt>
      <trkpt lat="47.41661" lon="6.6999">
        <ele>418.1</ele>
        <time>2017-02-12T10:27:27.000Z</time>
      </trkpt>
      <trkpt lat="47.41664" lon="6.69991">
        <ele>418</ele>
        <time>2017-02-12T10:27:28.000Z</time>
      </trkpt>
      <trkpt lat="47.41667" lon="6.69992">
        <ele>418</ele>
        <time>2017-02-12T10:27:29.000Z</time>
      </trkpt>
      <trkpt lat="47.4167" lon="6.69994">
        <ele>417.9</ele>
        <time>2017-02-12T10:27:30.000Z</time>
      </trkpt>
      <trkpt lat="47.41673" lon="6.69995">
        <ele>417.9</ele>
        <time>2017-02-12T10:27:31.000Z</time>
      </trkpt>
      <trkpt lat="47.41677" lon="6.69996">
        <ele>417.9</ele>
        <time>2017-02-12T10:27:32.000Z</time>
      </trkpt>
      <trkpt lat="47.4168" lon="6.69996">
        <ele>417.9</ele>
        <time>2017-02-12T10:27:33.000Z</time>
      </trkpt>
      <trkpt lat="47.41683" lon="6.69996">
        <ele>417.8</ele>
        <time>2017-02-12T10:27:34.000Z</time>
      </trkpt>
      <trkpt lat="47.41687" lon="6.69998">
        <ele>417.7</ele>
        <time>2017-02-12T10:27:35.000Z</time>
      </trkpt>
      <trkpt lat="47.41691" lon="6.69998">
        <ele>416.5</ele>
        <time>2017-02-12T10:27:36.000Z</time>
      </trkpt>
      <trkpt lat="47.41695" lon="6.69998">
        <ele>415.4</ele>
        <time>2017-02-12T10:27:37.000Z</time>
      </trkpt>
      <trkpt lat="47.41698" lon="6.69999">
        <ele>415.3</ele>
        <time>2017-02-12T10:27:38.000Z</time>
      </trkpt>
      <trkpt lat="47.41701" lon="6.70001">
        <ele>415.3</ele>
        <time>2017-02-12T10:27:39.000Z</time>
      </trkpt>
      <trkpt lat="47.41705" lon="6.70002">
        <ele>415.2</ele>
        <time>2017-02-12T10:27:40.000Z</time>
      </trkpt>
      <trkpt lat="47.41709" lon="6.70002">
        <ele>414.8</ele>
        <time>2017-02-12T10:27:41.000Z</time>
      </trkpt>
      <trkpt lat="47.41713" lon="6.70003">
        <ele>415.2</ele>
        <time>2017-02-12T10:27:42.000Z</time>
      </trkpt>
      <trkpt lat="47.41717" lon="6.70004">
        <ele>415.6</ele>
        <time>2017-02-12T10:27:43.000Z</time>
      </trkpt>
      <trkpt lat="47.41721" lon="6.70004">
        <ele>416.6</ele>
        <time>2017-02-12T10:27:44.000Z</time>
      </trkpt>
      <trkpt lat="47.41725" lon="6.70004">
        <ele>417.2</ele>
        <time>2017-02-12T10:27:45.000Z</time>
      </trkpt>
      <trkpt lat="47.41729" lon="6.70003">
        <ele>418.6</ele>
        <time>2017-02-12T10:27:46.000Z</time>
      </trkpt>
      <trkpt lat="47.41734" lon="6.70003">
        <ele>419.2</ele>
        <time>2017-02-12T10:27:47.000Z</time>
      </trkpt>
      <trkpt lat="47.41738" lon="6.70003">
        <ele>419.9</ele>
        <time>2017-02-12T10:27:48.000Z</time>
      </trkpt>
      <trkpt lat="47.41743" lon="6.70002">
        <ele>419.6</ele>
        <time>2017-02-12T10:27:49.000Z</time>
      </trkpt>
      <trkpt lat="47.41748" lon="6.70001">
        <ele>419</ele>
        <time>2017-02-12T10:27:50.000Z</time>
      </trkpt>
      <trkpt lat="47.41752" lon="6.70001">
        <ele>418.8</ele>
        <time>2017-02-12T10:27:51.000Z</time>
      </trkpt>
      <trkpt lat="47.41757" lon="6.7">
        <ele>418.7</ele>
        <time>2017-02-12T10:27:52.000Z</time>
      </trkpt>
      <trkpt lat="47.41762" lon="6.69999">
        <ele>418.4</ele>
        <time>2017-02-12T10:27:53.000Z</time>
      </trkpt>
      <trkpt lat="47.41766" lon="6.69999">
        <ele>418.6</ele>
        <time>2017-02-12T10:27:54.000Z</time>
      </trkpt>
      <trkpt lat="47.41771" lon="6.69998">
        <ele>419.3</ele>
        <time>2017-02-12T10:27:55.000Z</time>
      </trkpt>
      <trkpt lat="47.41776" lon="6.69998">
        <ele>418.9</ele>
        <time>2017-02-12T10:27:56.000Z</time>
      </trkpt>
      <trkpt lat="47.41781" lon="6.69998">
        <ele>418.6</ele>
        <time>2017-02-12T10:27:57.000Z</time>
      </trkpt>
      <trkpt lat="47.41785" lon="6.69997">
        <ele>418.3</ele>
        <time>2017-02-12T10:27:58.000Z</time>
      </trkpt>
      <trkpt lat="47.4179" lon="6.69995">
        <ele>418.6</ele>
        <time>2017-02-12T10:27:59.000Z</time>
      </trkpt>
      <trkpt lat="47.41795" lon="6.69994">
        <ele>418.5</ele>
        <time>2017-02-12T10:28:00.000Z</time>
      </trkpt>
      <trkpt lat="47.418" lon="6.69993">
        <ele>418.4</ele>
        <time>2017-02-12T10:28:01.000Z</time>
      </trkpt>
      <trkpt lat="47.41804" lon="6.69992">
        <ele>417.7</ele>
        <time>2017-02-12T10:28:02.000Z</time>
      </trkpt>
      <trkpt lat="47.41809" lon="6.69992">
        <ele>417.3</ele>
        <time>2017-02-12T10:28:03.000Z</time>
      </trkpt>
      <trkpt lat="47.41813" lon="6.69992">
        <ele>416.4</ele>
        <time>2017-02-12T10:28:04.000Z</time>
      </trkpt>
      <trkpt lat="47.41818" lon="6.69993">
        <ele>415.8</ele>
        <time>2017-02-12T10:28:05.000Z</time>
      </trkpt>
      <trkpt lat="47.41823" lon="6.69993">
        <ele>415.8</ele>
        <time>2017-02-12T10:28:06.000Z</time>
      </trkpt>
      <trkpt lat="47.41828" lon="6.69993">
        <ele>416</ele>
        <time>2017-02-12T10:28:07.000Z</time>
      </trkpt>
      <trkpt lat="47.41832" lon="6.69993">
        <ele>415.4</ele>
        <time>2017-02-12T10:28:08.000Z</time>
      </trkpt>
      <trkpt lat="47.41837" lon="6.69993">
        <ele>415</ele>
        <time>2017-02-12T10:28:09.000Z</time>
      </trkpt>
      <trkpt lat="47.41842" lon="6.69992">
        <ele>415.2</ele>
        <time>2017-02-12T10:28:10.000Z</time>
      </trkpt>
      <trkpt lat="47.41846" lon="6.69991">
        <ele>415.3</ele>
        <time>2017-02-12T10:28:11.000Z</time>
      </trkpt>
      <trkpt lat="47.41851" lon="6.6999">
        <ele>415.2</ele>
        <time>2017-02-12T10:28:12.000Z</time>
      </trkpt>
      <trkpt lat="47.41855" lon="6.69988">
        <ele>415.2</ele>
        <time>2017-02-12T10:28:13.000Z</time>
      </trkpt>
      <trkpt lat="47.41858" lon="6.69986">
        <ele>415.1</ele>
        <time>2017-02-12T10:28:14.000Z</time>
      </trkpt>
      <trkpt lat="47.41862" lon="6.69984">
        <ele>415.1</ele>
        <time>2017-02-12T10:28:15.000Z</time>
      </trkpt>
      <trkpt lat="47.41867" lon="6.6998">
        <ele>415.5</ele>
        <time>2017-02-12T10:28:16.000Z</time>
      </trkpt>
      <trkpt lat="47.41871" lon="6.69977">
        <ele>416.2</ele>
        <time>2017-02-12T10:28:17.000Z</time>
      </trkpt>
      <trkpt lat="47.41875" lon="6.69974">
        <ele>417.1</ele>
        <time>2017-02-12T10:28:18.000Z</time>
      </trkpt>
      <trkpt lat="47.41879" lon="6.6997">
        <ele>417.3</ele>
        <time>2017-02-12T10:28:19.000Z</time>
      </trkpt>
      <trkpt lat="47.41883" lon="6.69967">
        <ele>418.7</ele>
        <time>2017-02-12T10:28:20.000Z</time>
      </trkpt>
      <trkpt lat="47.41888" lon="6.69964">
        <ele>420.3</ele>
        <time>2017-02-12T10:28:21.000Z</time>
      </trkpt>
      <trkpt lat="47.41892" lon="6.69963">
        <ele>421.9</ele>
        <time>2017-02-12T10:28:22.000Z</time>
      </trkpt>
      <trkpt lat="47.41896" lon="6.69961">
        <ele>422.7</ele>
        <time>2017-02-12T10:28:23.000Z</time>
      </trkpt>
      <trkpt lat="47.419" lon="6.69959">
        <ele>423.3</ele>
        <time>2017-02-12T10:28:24.000Z</time>
      </trkpt>
      <trkpt lat="47.41905" lon="6.69956">
        <ele>423.9</ele>
        <time>2017-02-12T10:28:25.000Z</time>
      </trkpt>
      <trkpt lat="47.41909" lon="6.69954">
        <ele>423.4</ele>
        <time>2017-02-12T10:28:26.000Z</time>
      </trkpt>
      <trkpt lat="47.41912" lon="6.69954">
        <ele>423.3</ele>
        <time>2017-02-12T10:28:27.000Z</time>
      </trkpt>
      <trkpt lat="47.41915" lon="6.69954">
        <ele>423.3</ele>
        <time>2017-02-12T10:28:28.000Z</time>
      </trkpt>
      <trkpt lat="47.41917" lon="6.69954">
        <ele>423.3</ele>
        <time>2017-02-12T10:28:29.000Z</time>
      </trkpt>
      <trkpt lat="47.41919" lon="6.69954">
        <ele>423.3</ele>
        <time>2017-02-12T10:28:30.000Z</time>
      </trkpt>
      <trkpt lat="47.41922" lon="6.69954">
        <ele>423.2</ele>
        <time>2017-02-12T10:28:31.000Z</time>
      </trkpt>
      <trkpt lat="47.41925" lon="6.69953">
        <ele>423</ele>
        <time>2017-02-12T10:28:32.000Z</time>
      </trkpt>
      <trkpt lat="47.41928" lon="6.69952">
        <ele>422.9</ele>
        <time>2017-02-12T10:28:33.000Z</time>
      </trkpt>
      <trkpt lat="47.41932" lon="6.69951">
        <ele>422.8</ele>
        <time>2017-02-12T10:28:34.000Z</time>
      </trkpt>
      <trkpt lat="47.41934" lon="6.6995">
        <ele>422.7</ele>
        <time>2017-02-12T10:28:35.000Z</time>
      </trkpt>
      <trkpt lat="47.41938" lon="6.69948">
        <ele>422.6</ele>
        <time>2017-02-12T10:28:36.000Z</time>
      </trkpt>
      <trkpt lat="47.41941" lon="6.69947">
        <ele>422.6</ele>
        <time>2017-02-12T10:28:37.000Z</time>
      </trkpt>
      <trkpt lat="47.41944" lon="6.69945">
        <ele>422.5</ele>
        <time>2017-02-12T10:28:38.000Z</time>
      </trkpt>
      <trkpt lat="47.41948" lon="6.69944">
        <ele>422.5</ele>
        <time>2017-02-12T10:28:39.000Z</time>
      </trkpt>
      <trkpt lat="47.41952" lon="6.69942">
        <ele>422.5</ele>
        <time>2017-02-12T10:28:40.000Z</time>
      </trkpt>
      <trkpt lat="47.41956" lon="6.69941">
        <ele>422.5</ele>
        <time>2017-02-12T10:28:41.000Z</time>
      </trkpt>
      <trkpt lat="47.4196" lon="6.6994">
        <ele>422</ele>
        <time>2017-02-12T10:28:42.000Z</time>
      </trkpt>
      <trkpt lat="47.41964" lon="6.69939">
        <ele>421.9</ele>
        <time>2017-02-12T10:28:43.000Z</time>
      </trkpt>
      <trkpt lat="47.41967" lon="6.69938">
        <ele>421.9</ele>
        <time>2017-02-12T10:28:44.000Z</time>
      </trkpt>
      <trkpt lat="47.41971" lon="6.69937">
        <ele>421.9</ele>
        <time>2017-02-12T10:28:45.000Z</time>
      </trkpt>
      <trkpt lat="47.41974" lon="6.69936">
        <ele>421.8</ele>
        <time>2017-02-12T10:28:46.000Z</time>
      </trkpt>
      <trkpt lat="47.41976" lon="6.69935">
        <ele>421.7</ele>
        <time>2017-02-12T10:28:47.000Z</time>
      </trkpt>
      <trkpt lat="47.41979" lon="6.69935">
        <ele>421.7</ele>
        <time>2017-02-12T10:28:48.000Z</time>
      </trkpt>
      <trkpt lat="47.41983" lon="6.69934">
        <ele>421.7</ele>
        <time>2017-02-12T10:28:49.000Z</time>
      </trkpt>
      <trkpt lat="47.41987" lon="6.69932">
        <ele>421.7</ele>
        <time>2017-02-12T10:28:50.000Z</time>
      </trkpt>
      <trkpt lat="47.4199" lon="6.69931">
        <ele>421.7</ele>
        <time>2017-02-12T10:28:51.000Z</time>
      </trkpt>
      <trkpt lat="47.41993" lon="6.69931">
        <ele>421.6</ele>
        <time>2017-02-12T10:28:52.000Z</time>
      </trkpt>
      <trkpt lat="47.41997" lon="6.6993">
        <ele>421.5</ele>
        <time>2017-02-12T10:28:53.000Z</time>
      </trkpt>
      <trkpt lat="47.42" lon="6.6993">
        <ele>421.4</ele>
        <time>2017-02-12T10:28:54.000Z</time>
      </trkpt>
      <trkpt lat="47.42005" lon="6.69929">
        <ele>421.3</ele>
        <time>2017-02-12T10:28:55.000Z</time>
      </trkpt>
      <trkpt lat="47.42008" lon="6.69929">
        <ele>421.2</ele>
        <time>2017-02-12T10:28:56.000Z</time>
      </trkpt>
      <trkpt lat="47.42012" lon="6.69928">
        <ele>421.2</ele>
        <time>2017-02-12T10:28:57.000Z</time>
      </trkpt>
      <trkpt lat="47.42016" lon="6.69928">
        <ele>421.3</ele>
        <time>2017-02-12T10:28:58.000Z</time>
      </trkpt>
      <trkpt lat="47.4202" lon="6.69927">
        <ele>421.3</ele>
        <time>2017-02-12T10:28:59.000Z</time>
      </trkpt>
      <trkpt lat="47.42023" lon="6.69926">
        <ele>421.4</ele>
        <time>2017-02-12T10:29:00.000Z</time>
      </trkpt>
      <trkpt lat="47.42027" lon="6.69925">
        <ele>421.5</ele>
        <time>2017-02-12T10:29:01.000Z</time>
      </trkpt>
      <trkpt lat="47.4203" lon="6.69924">
        <ele>421.6</ele>
        <time>2017-02-12T10:29:02.000Z</time>
      </trkpt>
      <trkpt lat="47.42033" lon="6.69925">
        <ele>421.7</ele>
        <time>2017-02-12T10:29:03.000Z</time>
      </trkpt>
      <trkpt lat="47.42036" lon="6.69925">
        <ele>421.7</ele>
        <time>2017-02-12T10:29:04.000Z</time>
      </trkpt>
      <trkpt lat="47.42039" lon="6.69925">
        <ele>421.7</ele>
        <time>2017-02-12T10:29:05.000Z</time>
      </trkpt>
      <trkpt lat="47.42042" lon="6.69925">
        <ele>421.7</ele>
        <time>2017-02-12T10:29:06.000Z</time>
      </trkpt>
      <trkpt lat="47.42045" lon="6.69925">
        <ele>421.7</ele>
        <time>2017-02-12T10:29:07.000Z</time>
      </trkpt>
      <trkpt lat="47.42049" lon="6.69925">
        <ele>421.7</ele>
        <time>2017-02-12T10:29:08.000Z</time>
      </trkpt>
      <trkpt lat="47.42053" lon="6.69925">
        <ele>421.7</ele>
        <time>2017-02-12T10:29:09.000Z</time>
      </trkpt>
      <trkpt lat="47.42056" lon="6.69925">
        <ele>421.8</ele>
        <time>2017-02-12T10:29:10.000Z</time>
      </trkpt>
      <trkpt lat="47.4206" lon="6.69924">
        <ele>422.4</ele>
        <time>2017-02-12T10:29:11.000Z</time>
      </trkpt>
      <trkpt lat="47.42065" lon="6.69923">
        <ele>423</ele>
        <time>2017-02-12T10:29:12.000Z</time>
      </trkpt>
      <trkpt lat="47.4207" lon="6.69922">
        <ele>423.5</ele>
        <time>2017-02-12T10:29:13.000Z</time>
      </trkpt>
      <trkpt lat="47.42075" lon="6.69921">
        <ele>423.3</ele>
        <time>2017-02-12T10:29:14.000Z</time>
      </trkpt>
      <trkpt lat="47.4208" lon="6.6992">
        <ele>423.4</ele>
        <time>2017-02-12T10:29:15.000Z</time>
      </trkpt>
      <trkpt lat="47.42086" lon="6.69918">
        <ele>423.4</ele>
        <time>2017-02-12T10:29:16.000Z</time>
      </trkpt>
      <trkpt lat="47.42091" lon="6.69916">
        <ele>423.1</ele>
        <time>2017-02-12T10:29:17.000Z</time>
      </trkpt>
      <trkpt lat="47.42098" lon="6.69913">
        <ele>422.7</ele>
        <time>2017-02-12T10:29:18.000Z</time>
      </trkpt>
      <trkpt lat="47.42104" lon="6.6991">
        <ele>422</ele>
        <time>2017-02-12T10:29:19.000Z</time>
      </trkpt>
      <trkpt lat="47.42111" lon="6.69907">
        <ele>421.1</ele>
        <time>2017-02-12T10:29:20.000Z</time>
      </trkpt>
      <trkpt lat="47.42117" lon="6.69903">
        <ele>420.2</ele>
        <time>2017-02-12T10:29:21.000Z</time>
      </trkpt>
      <trkpt lat="47.42123" lon="6.69898">
        <ele>419.5</ele>
        <time>2017-02-12T10:29:22.000Z</time>
      </trkpt>
      <trkpt lat="47.42131" lon="6.69893">
        <ele>419</ele>
        <time>2017-02-12T10:29:23.000Z</time>
      </trkpt>
      <trkpt lat="47.42139" lon="6.69888">
        <ele>418.7</ele>
        <time>2017-02-12T10:29:24.000Z</time>
      </trkpt>
      <trkpt lat="47.42147" lon="6.69882">
        <ele>418.2</ele>
        <time>2017-02-12T10:29:25.000Z</time>
      </trkpt>
      <trkpt lat="47.42154" lon="6.69875">
        <ele>417.3</ele>
        <time>2017-02-12T10:29:26.000Z</time>
      </trkpt>
      <trkpt lat="47.42161" lon="6.69869">
        <ele>415.8</ele>
        <time>2017-02-12T10:29:27.000Z</time>
      </trkpt>
      <trkpt lat="47.42168" lon="6.69864">
        <ele>414.6</ele>
        <time>2017-02-12T10:29:28.000Z</time>
      </trkpt>
      <trkpt lat="47.42175" lon="6.69858">
        <ele>413.9</ele>
        <time>2017-02-12T10:29:29.000Z</time>
      </trkpt>
      <trkpt lat="47.42181" lon="6.69853">
        <ele>413.5</ele>
        <time>2017-02-12T10:29:30.000Z</time>
      </trkpt>
      <trkpt lat="47.42186" lon="6.69849">
        <ele>413.3</ele>
        <time>2017-02-12T10:29:31.000Z</time>
      </trkpt>
      <trkpt lat="47.42191" lon="6.69846">
        <ele>413.2</ele>
        <time>2017-02-12T10:29:32.000Z</time>
      </trkpt>
      <trkpt lat="47.42195" lon="6.69843">
        <ele>413.4</ele>
        <time>2017-02-12T10:29:33.000Z</time>
      </trkpt>
      <trkpt lat="47.422" lon="6.6984">
        <ele>413.8</ele>
        <time>2017-02-12T10:29:34.000Z</time>
      </trkpt>
      <trkpt lat="47.42203" lon="6.69838">
        <ele>413.9</ele>
        <time>2017-02-12T10:29:35.000Z</time>
      </trkpt>
      <trkpt lat="47.42206" lon="6.69836">
        <ele>413.9</ele>
        <time>2017-02-12T10:29:36.000Z</time>
      </trkpt>
      <trkpt lat="47.42209" lon="6.69836">
        <ele>414</ele>
        <time>2017-02-12T10:29:38.000Z</time>
      </trkpt>
      <trkpt lat="47.42212" lon="6.69834">
        <ele>414</ele>
        <time>2017-02-12T10:29:39.000Z</time>
      </trkpt>
      <trkpt lat="47.42214" lon="6.69835">
        <ele>414</ele>
        <time>2017-02-12T10:29:40.000Z</time>
      </trkpt>
      <trkpt lat="47.42217" lon="6.69835">
        <ele>413.9</ele>
        <time>2017-02-12T10:29:41.000Z</time>
      </trkpt>
      <trkpt lat="47.42221" lon="6.69834">
        <ele>414</ele>
        <time>2017-02-12T10:29:43.000Z</time>
      </trkpt>
      <trkpt lat="47.42224" lon="6.69835">
        <ele>414.1</ele>
        <time>2017-02-12T10:29:44.000Z</time>
      </trkpt>
      <trkpt lat="47.42226" lon="6.69837">
        <ele>414.2</ele>
        <time>2017-02-12T10:29:45.000Z</time>
      </trkpt>
      <trkpt lat="47.42228" lon="6.6984">
        <ele>414.3</ele>
        <time>2017-02-12T10:29:46.000Z</time>
      </trkpt>
      <trkpt lat="47.4223" lon="6.69843">
        <ele>414.4</ele>
        <time>2017-02-12T10:29:48.000Z</time>
      </trkpt>
      <trkpt lat="47.42232" lon="6.69847">
        <ele>414.4</ele>
        <time>2017-02-12T10:29:49.000Z</time>
      </trkpt>
      <trkpt lat="47.42234" lon="6.6985">
        <ele>414.5</ele>
        <time>2017-02-12T10:29:50.000Z</time>
      </trkpt>
      <trkpt lat="47.42236" lon="6.69853">
        <ele>414.5</ele>
        <time>2017-02-12T10:29:51.000Z</time>
      </trkpt>
      <trkpt lat="47.42237" lon="6.69856">
        <ele>414.6</ele>
        <time>2017-02-12T10:29:52.000Z</time>
      </trkpt>
      <trkpt lat="47.42238" lon="6.69859">
        <ele>414.5</ele>
        <time>2017-02-12T10:29:53.000Z</time>
      </trkpt>
      <trkpt lat="47.4224" lon="6.69863">
        <ele>414.5</ele>
        <time>2017-02-12T10:29:54.000Z</time>
      </trkpt>
      <trkpt lat="47.42243" lon="6.69865">
        <ele>414.5</ele>
        <time>2017-02-12T10:29:55.000Z</time>
      </trkpt>
      <trkpt lat="47.42246" lon="6.69866">
        <ele>414.5</ele>
        <time>2017-02-12T10:29:56.000Z</time>
      </trkpt>
      <trkpt lat="47.42249" lon="6.69867">
        <ele>414.6</ele>
        <time>2017-02-12T10:29:57.000Z</time>
      </trkpt>
      <trkpt lat="47.42253" lon="6.69865">
        <ele>414.5</ele>
        <time>2017-02-12T10:29:58.000Z</time>
      </trkpt>
      <trkpt lat="47.42256" lon="6.69864">
        <ele>414.5</ele>
        <time>2017-02-12T10:29:59.000Z</time>
      </trkpt>
      <trkpt lat="47.4226" lon="6.69863">
        <ele>414.4</ele>
        <time>2017-02-12T10:30:00.000Z</time>
      </trkpt>
      <trkpt lat="47.42263" lon="6.69862">
        <ele>414.4</ele>
        <time>2017-02-12T10:30:01.000Z</time>
      </trkpt>
      <trkpt lat="47.42266" lon="6.69863">
        <ele>414.4</ele>
        <time>2017-02-12T10:30:02.000Z</time>
      </trkpt>
      <trkpt lat="47.42269" lon="6.69863">
        <ele>414.5</ele>
        <time>2017-02-12T10:30:03.000Z</time>
      </trkpt>
      <trkpt lat="47.42272" lon="6.69863">
        <ele>414.5</ele>
        <time>2017-02-12T10:30:04.000Z</time>
      </trkpt>
      <trkpt lat="47.42275" lon="6.69864">
        <ele>414.6</ele>
        <time>2017-02-12T10:30:05.000Z</time>
      </trkpt>
      <trkpt lat="47.42278" lon="6.69865">
        <ele>414.6</ele>
        <time>2017-02-12T10:30:06.000Z</time>
      </trkpt>
      <trkpt lat="47.42282" lon="6.69865">
        <ele>414.7</ele>
        <time>2017-02-12T10:30:07.000Z</time>
      </trkpt>
      <trkpt lat="47.42284" lon="6.69867">
        <ele>414.7</ele>
        <time>2017-02-12T10:30:08.000Z</time>
      </trkpt>
      <trkpt lat="47.42288" lon="6.69867">
        <ele>414.8</ele>
        <time>2017-02-12T10:30:09.000Z</time>
      </trkpt>
      <trkpt lat="47.42291" lon="6.69869">
        <ele>414.8</ele>
        <time>2017-02-12T10:30:10.000Z</time>
      </trkpt>
      <trkpt lat="47.42294" lon="6.69869">
        <ele>414.9</ele>
        <time>2017-02-12T10:30:11.000Z</time>
      </trkpt>
      <trkpt lat="47.42297" lon="6.6987">
        <ele>415</ele>
        <time>2017-02-12T10:30:12.000Z</time>
      </trkpt>
      <trkpt lat="47.42299" lon="6.69871">
        <ele>415.1</ele>
        <time>2017-02-12T10:30:13.000Z</time>
      </trkpt>
      <trkpt lat="47.42301" lon="6.69873">
        <ele>415.1</ele>
        <time>2017-02-12T10:30:14.000Z</time>
      </trkpt>
      <trkpt lat="47.42304" lon="6.69875">
        <ele>415.1</ele>
        <time>2017-02-12T10:30:15.000Z</time>
      </trkpt>
      <trkpt lat="47.42307" lon="6.69876">
        <ele>415.1</ele>
        <time>2017-02-12T10:30:16.000Z</time>
      </trkpt>
      <trkpt lat="47.4231" lon="6.69878">
        <ele>415.1</ele>
        <time>2017-02-12T10:30:17.000Z</time>
      </trkpt>
      <trkpt lat="47.42313" lon="6.6988">
        <ele>415</ele>
        <time>2017-02-12T10:30:18.000Z</time>
      </trkpt>
      <trkpt lat="47.42315" lon="6.69881">
        <ele>414.9</ele>
        <time>2017-02-12T10:30:19.000Z</time>
      </trkpt>
      <trkpt lat="47.42318" lon="6.69881">
        <ele>414.9</ele>
        <time>2017-02-12T10:30:20.000Z</time>
      </trkpt>
      <trkpt lat="47.42322" lon="6.69882">
        <ele>414.9</ele>
        <time>2017-02-12T10:30:21.000Z</time>
      </trkpt>
      <trkpt lat="47.42326" lon="6.69882">
        <ele>414.9</ele>
        <time>2017-02-12T10:30:22.000Z</time>
      </trkpt>
      <trkpt lat="47.42328" lon="6.69881">
        <ele>414.9</ele>
        <time>2017-02-12T10:30:23.000Z</time>
      </trkpt>
      <trkpt lat="47.42331" lon="6.69878">
        <ele>414.9</ele>
        <time>2017-02-12T10:30:24.000Z</time>
      </trkpt>
      <trkpt lat="47.42333" lon="6.69876">
        <ele>414.9</ele>
        <time>2017-02-12T10:30:25.000Z</time>
      </trkpt>
      <trkpt lat="47.42336" lon="6.69872">
        <ele>414.8</ele>
        <time>2017-02-12T10:30:26.000Z</time>
      </trkpt>
      <trkpt lat="47.42338" lon="6.69868">
        <ele>414.8</ele>
        <time>2017-02-12T10:30:27.000Z</time>
      </trkpt>
      <trkpt lat="47.42339" lon="6.69864">
        <ele>414.9</ele>
        <time>2017-02-12T10:30:28.000Z</time>
      </trkpt>
      <trkpt lat="47.4234" lon="6.6986">
        <ele>415</ele>
        <time>2017-02-12T10:30:29.000Z</time>
      </trkpt>
      <trkpt lat="47.42341" lon="6.69856">
        <ele>415.1</ele>
        <time>2017-02-12T10:30:30.000Z</time>
      </trkpt>
      <trkpt lat="47.42341" lon="6.69851">
        <ele>415.2</ele>
        <time>2017-02-12T10:30:31.000Z</time>
      </trkpt>
      <trkpt lat="47.42342" lon="6.69848">
        <ele>415.4</ele>
        <time>2017-02-12T10:30:32.000Z</time>
      </trkpt>
      <trkpt lat="47.42342" lon="6.69845">
        <ele>415.6</ele>
        <time>2017-02-12T10:30:33.000Z</time>
      </trkpt>
      <trkpt lat="47.42341" lon="6.6984">
        <ele>415.7</ele>
        <time>2017-02-12T10:30:34.000Z</time>
      </trkpt>
      <trkpt lat="47.42341" lon="6.69835">
        <ele>415.8</ele>
        <time>2017-02-12T10:30:35.000Z</time>
      </trkpt>
      <trkpt lat="47.42341" lon="6.69831">
        <ele>416</ele>
        <time>2017-02-12T10:30:36.000Z</time>
      </trkpt>
      <trkpt lat="47.42341" lon="6.69827">
        <ele>416.1</ele>
        <time>2017-02-12T10:30:37.000Z</time>
      </trkpt>
      <trkpt lat="47.42341" lon="6.69821">
        <ele>416.2</ele>
        <time>2017-02-12T10:30:39.000Z</time>
      </trkpt>
      <trkpt lat="47.42341" lon="6.69817">
        <ele>416.3</ele>
        <time>2017-02-12T10:30:40.000Z</time>
      </trkpt>
      <trkpt lat="47.42341" lon="6.69813">
        <ele>416.4</ele>
        <time>2017-02-12T10:30:41.000Z</time>
      </trkpt>
      <trkpt lat="47.42341" lon="6.6981">
        <ele>416.6</ele>
        <time>2017-02-12T10:30:42.000Z</time>
      </trkpt>
      <trkpt lat="47.42341" lon="6.69806">
        <ele>416.6</ele>
        <time>2017-02-12T10:30:43.000Z</time>
      </trkpt>
      <trkpt lat="47.42341" lon="6.69803">
        <ele>416.8</ele>
        <time>2017-02-12T10:30:44.000Z</time>
      </trkpt>
      <trkpt lat="47.42341" lon="6.69797">
        <ele>417</ele>
        <time>2017-02-12T10:30:46.000Z</time>
      </trkpt>
      <trkpt lat="47.4234" lon="6.69793">
        <ele>417.1</ele>
        <time>2017-02-12T10:30:47.000Z</time>
      </trkpt>
      <trkpt lat="47.42341" lon="6.6979">
        <ele>417.2</ele>
        <time>2017-02-12T10:30:48.000Z</time>
      </trkpt>
      <trkpt lat="47.42342" lon="6.69786">
        <ele>417.4</ele>
        <time>2017-02-12T10:30:49.000Z</time>
      </trkpt>
      <trkpt lat="47.42343" lon="6.69782">
        <ele>417.5</ele>
        <time>2017-02-12T10:30:50.000Z</time>
      </trkpt>
      <trkpt lat="47.42343" lon="6.69778">
        <ele>417.7</ele>
        <time>2017-02-12T10:30:51.000Z</time>
      </trkpt>
      <trkpt lat="47.42344" lon="6.69772">
        <ele>418.2</ele>
        <time>2017-02-12T10:30:53.000Z</time>
      </trkpt>
      <trkpt lat="47.42343" lon="6.69769">
        <ele>418.4</ele>
        <time>2017-02-12T10:30:54.000Z</time>
      </trkpt>
      <trkpt lat="47.42343" lon="6.69764">
        <ele>418.6</ele>
        <time>2017-02-12T10:30:55.000Z</time>
      </trkpt>
      <trkpt lat="47.42342" lon="6.6976">
        <ele>418.7</ele>
        <time>2017-02-12T10:30:56.000Z</time>
      </trkpt>
      <trkpt lat="47.42342" lon="6.69756">
        <ele>418.9</ele>
        <time>2017-02-12T10:30:57.000Z</time>
      </trkpt>
      <trkpt lat="47.42343" lon="6.69753">
        <ele>419</ele>
        <time>2017-02-12T10:30:58.000Z</time>
      </trkpt>
      <trkpt lat="47.42343" lon="6.69749">
        <ele>419.2</ele>
        <time>2017-02-12T10:30:59.000Z</time>
      </trkpt>
      <trkpt lat="47.42342" lon="6.69746">
        <ele>419.2</ele>
        <time>2017-02-12T10:31:00.000Z</time>
      </trkpt>
      <trkpt lat="47.42343" lon="6.69742">
        <ele>419.3</ele>
        <time>2017-02-12T10:31:01.000Z</time>
      </trkpt>
      <trkpt lat="47.42343" lon="6.69738">
        <ele>419.4</ele>
        <time>2017-02-12T10:31:02.000Z</time>
      </trkpt>
      <trkpt lat="47.42343" lon="6.69735">
        <ele>419.5</ele>
        <time>2017-02-12T10:31:03.000Z</time>
      </trkpt>
      <trkpt lat="47.42343" lon="6.69731">
        <ele>419.6</ele>
        <time>2017-02-12T10:31:04.000Z</time>
      </trkpt>
      <trkpt lat="47.42343" lon="6.69725">
        <ele>419.8</ele>
        <time>2017-02-12T10:31:06.000Z</time>
      </trkpt>
      <trkpt lat="47.42343" lon="6.69723">
        <ele>419.9</ele>
        <time>2017-02-12T10:31:07.000Z</time>
      </trkpt>
      <trkpt lat="47.42344" lon="6.69717">
        <ele>420.2</ele>
        <time>2017-02-12T10:31:10.000Z</time>
      </trkpt>
      <trkpt lat="47.42344" lon="6.69715">
        <ele>420.2</ele>
        <time>2017-02-12T10:31:11.000Z</time>
      </trkpt>
      <trkpt lat="47.42345" lon="6.69711">
        <ele>420.4</ele>
        <time>2017-02-12T10:31:13.000Z</time>
      </trkpt>
      <trkpt lat="47.42345" lon="6.69708">
        <ele>420.4</ele>
        <time>2017-02-12T10:31:14.000Z</time>
      </trkpt>
      <trkpt lat="47.42345" lon="6.69704">
        <ele>420.4</ele>
        <time>2017-02-12T10:31:16.000Z</time>
      </trkpt>
      <trkpt lat="47.42346" lon="6.69702">
        <ele>420.4</ele>
        <time>2017-02-12T10:31:17.000Z</time>
      </trkpt>
      <trkpt lat="47.42346" lon="6.69697">
        <ele>420.5</ele>
        <time>2017-02-12T10:31:19.000Z</time>
      </trkpt>
      <trkpt lat="47.42347" lon="6.69695">
        <ele>420.6</ele>
        <time>2017-02-12T10:31:20.000Z</time>
      </trkpt>
      <trkpt lat="47.42348" lon="6.6969">
        <ele>420.9</ele>
        <time>2017-02-12T10:31:22.000Z</time>
      </trkpt>
      <trkpt lat="47.42349" lon="6.69688">
        <ele>421</ele>
        <time>2017-02-12T10:31:23.000Z</time>
      </trkpt>
      <trkpt lat="47.42351" lon="6.69684">
        <ele>421.4</ele>
        <time>2017-02-12T10:31:25.000Z</time>
      </trkpt>
      <trkpt lat="47.42352" lon="6.69682">
        <ele>421.5</ele>
        <time>2017-02-12T10:31:26.000Z</time>
      </trkpt>
      <trkpt lat="47.42354" lon="6.69677">
        <ele>421.8</ele>
        <time>2017-02-12T10:31:29.000Z</time>
      </trkpt>
      <trkpt lat="47.42355" lon="6.69675">
        <ele>421.9</ele>
        <time>2017-02-12T10:31:30.000Z</time>
      </trkpt>
      <trkpt lat="47.42357" lon="6.6967">
        <ele>422.2</ele>
        <time>2017-02-12T10:31:33.000Z</time>
      </trkpt>
      <trkpt lat="47.42358" lon="6.69668">
        <ele>422.3</ele>
        <time>2017-02-12T10:31:34.000Z</time>
      </trkpt>
      <trkpt lat="47.4236" lon="6.69663">
        <ele>422.5</ele>
        <time>2017-02-12T10:31:36.000Z</time>
      </trkpt>
      <trkpt lat="47.4236" lon="6.6966">
        <ele>422.7</ele>
        <time>2017-02-12T10:31:37.000Z</time>
      </trkpt>
      <trkpt lat="47.42363" lon="6.69656">
        <ele>422.9</ele>
        <time>2017-02-12T10:31:39.000Z</time>
      </trkpt>
      <trkpt lat="47.42365" lon="6.69655">
        <ele>423</ele>
        <time>2017-02-12T10:31:40.000Z</time>
      </trkpt>
      <trkpt lat="47.42367" lon="6.69652">
        <ele>423.3</ele>
        <time>2017-02-12T10:31:42.000Z</time>
      </trkpt>
      <trkpt lat="47.42369" lon="6.69651">
        <ele>423.5</ele>
        <time>2017-02-12T10:31:43.000Z</time>
      </trkpt>
      <trkpt lat="47.42372" lon="6.69647">
        <ele>423.8</ele>
        <time>2017-02-12T10:31:45.000Z</time>
      </trkpt>
      <trkpt lat="47.42373" lon="6.69646">
        <ele>423.9</ele>
        <time>2017-02-12T10:31:46.000Z</time>
      </trkpt>
      <trkpt lat="47.42377" lon="6.69643">
        <ele>424</ele>
        <time>2017-02-12T10:31:48.000Z</time>
      </trkpt>
      <trkpt lat="47.42378" lon="6.69642">
        <ele>424.1</ele>
        <time>2017-02-12T10:31:49.000Z</time>
      </trkpt>
      <trkpt lat="47.42382" lon="6.6964">
        <ele>424.4</ele>
        <time>2017-02-12T10:31:51.000Z</time>
      </trkpt>
      <trkpt lat="47.42383" lon="6.69639">
        <ele>424.5</ele>
        <time>2017-02-12T10:31:52.000Z</time>
      </trkpt>
      <trkpt lat="47.42386" lon="6.69638">
        <ele>424.8</ele>
        <time>2017-02-12T10:31:54.000Z</time>
      </trkpt>
      <trkpt lat="47.42388" lon="6.69637">
        <ele>424.9</ele>
        <time>2017-02-12T10:31:55.000Z</time>
      </trkpt>
      <trkpt lat="47.42389" lon="6.69636">
        <ele>425</ele>
        <time>2017-02-12T10:31:56.000Z</time>
      </trkpt>
      <trkpt lat="47.42392" lon="6.69634">
        <ele>425.1</ele>
        <time>2017-02-12T10:31:57.000Z</time>
      </trkpt>
      <trkpt lat="47.42395" lon="6.69631">
        <ele>425.1</ele>
        <time>2017-02-12T10:31:59.000Z</time>
      </trkpt>
      <trkpt lat="47.42397" lon="6.6963">
        <ele>425.2</ele>
        <time>2017-02-12T10:32:00.000Z</time>
      </trkpt>
      <trkpt lat="47.424" lon="6.69627">
        <ele>425.3</ele>
        <time>2017-02-12T10:32:02.000Z</time>
      </trkpt>
      <trkpt lat="47.42401" lon="6.69624">
        <ele>425.4</ele>
        <time>2017-02-12T10:32:03.000Z</time>
      </trkpt>
      <trkpt lat="47.42403" lon="6.69621">
        <ele>425.5</ele>
        <time>2017-02-12T10:32:04.000Z</time>
      </trkpt>
      <trkpt lat="47.42405" lon="6.69619">
        <ele>425.6</ele>
        <time>2017-02-12T10:32:05.000Z</time>
      </trkpt>
      <trkpt lat="47.42407" lon="6.69618">
        <ele>425.8</ele>
        <time>2017-02-12T10:32:06.000Z</time>
      </trkpt>
      <trkpt lat="47.42409" lon="6.69616">
        <ele>425.9</ele>
        <time>2017-02-12T10:32:07.000Z</time>
      </trkpt>
      <trkpt lat="47.42411" lon="6.69613">
        <ele>426</ele>
        <time>2017-02-12T10:32:08.000Z</time>
      </trkpt>
      <trkpt lat="47.42413" lon="6.69611">
        <ele>426.1</ele>
        <time>2017-02-12T10:32:09.000Z</time>
      </trkpt>
      <trkpt lat="47.42417" lon="6.69607">
        <ele>426.3</ele>
        <time>2017-02-12T10:32:11.000Z</time>
      </trkpt>
      <trkpt lat="47.42418" lon="6.69605">
        <ele>426.4</ele>
        <time>2017-02-12T10:32:12.000Z</time>
      </trkpt>
      <trkpt lat="47.4242" lon="6.69602">
        <ele>426.5</ele>
        <time>2017-02-12T10:32:13.000Z</time>
      </trkpt>
      <trkpt lat="47.42421" lon="6.69599">
        <ele>426.5</ele>
        <time>2017-02-12T10:32:14.000Z</time>
      </trkpt>
      <trkpt lat="47.42424" lon="6.69596">
        <ele>426.7</ele>
        <time>2017-02-12T10:32:16.000Z</time>
      </trkpt>
      <trkpt lat="47.42426" lon="6.69594">
        <ele>426.9</ele>
        <time>2017-02-12T10:32:17.000Z</time>
      </trkpt>
      <trkpt lat="47.42428" lon="6.69591">
        <ele>427.1</ele>
        <time>2017-02-12T10:32:18.000Z</time>
      </trkpt>
      <trkpt lat="47.4243" lon="6.69588">
        <ele>427.3</ele>
        <time>2017-02-12T10:32:19.000Z</time>
      </trkpt>
      <trkpt lat="47.42433" lon="6.69583">
        <ele>427.6</ele>
        <time>2017-02-12T10:32:21.000Z</time>
      </trkpt>
      <trkpt lat="47.42435" lon="6.6958">
        <ele>427.8</ele>
        <time>2017-02-12T10:32:22.000Z</time>
      </trkpt>
      <trkpt lat="47.42437" lon="6.69578">
        <ele>428</ele>
        <time>2017-02-12T10:32:23.000Z</time>
      </trkpt>
      <trkpt lat="47.42438" lon="6.69576">
        <ele>428.2</ele>
        <time>2017-02-12T10:32:24.000Z</time>
      </trkpt>
      <trkpt lat="47.42441" lon="6.69572">
        <ele>428.5</ele>
        <time>2017-02-12T10:32:26.000Z</time>
      </trkpt>
      <trkpt lat="47.42443" lon="6.69571">
        <ele>428.7</ele>
        <time>2017-02-12T10:32:27.000Z</time>
      </trkpt>
      <trkpt lat="47.42445" lon="6.69568">
        <ele>428.9</ele>
        <time>2017-02-12T10:32:29.000Z</time>
      </trkpt>
      <trkpt lat="47.42446" lon="6.69567">
        <ele>429</ele>
        <time>2017-02-12T10:32:30.000Z</time>
      </trkpt>
      <trkpt lat="47.42451" lon="6.69566">
        <ele>429.5</ele>
        <time>2017-02-12T10:32:34.000Z</time>
      </trkpt>
      <trkpt lat="47.42453" lon="6.69567">
        <ele>429.7</ele>
        <time>2017-02-12T10:32:35.000Z</time>
      </trkpt>
      <trkpt lat="47.42456" lon="6.69568">
        <ele>430</ele>
        <time>2017-02-12T10:32:37.000Z</time>
      </trkpt>
      <trkpt lat="47.42458" lon="6.6957">
        <ele>430.1</ele>
        <time>2017-02-12T10:32:38.000Z</time>
      </trkpt>
      <trkpt lat="47.42462" lon="6.69574">
        <ele>430.3</ele>
        <time>2017-02-12T10:32:40.000Z</time>
      </trkpt>
      <trkpt lat="47.42463" lon="6.69577">
        <ele>430.4</ele>
        <time>2017-02-12T10:32:41.000Z</time>
      </trkpt>
      <trkpt lat="47.42464" lon="6.69582">
        <ele>430.6</ele>
        <time>2017-02-12T10:32:43.000Z</time>
      </trkpt>
      <trkpt lat="47.42464" lon="6.69586">
        <ele>430.7</ele>
        <time>2017-02-12T10:32:44.000Z</time>
      </trkpt>
      <trkpt lat="47.42464" lon="6.69592">
        <ele>430.9</ele>
        <time>2017-02-12T10:32:46.000Z</time>
      </trkpt>
      <trkpt lat="47.42463" lon="6.69595">
        <ele>431</ele>
        <time>2017-02-12T10:32:47.000Z</time>
      </trkpt>
      <trkpt lat="47.4246" lon="6.69598">
        <ele>431.2</ele>
        <time>2017-02-12T10:32:49.000Z</time>
      </trkpt>
      <trkpt lat="47.42459" lon="6.696">
        <ele>431.3</ele>
        <time>2017-02-12T10:32:50.000Z</time>
      </trkpt>
      <trkpt lat="47.42456" lon="6.69604">
        <ele>431.5</ele>
        <time>2017-02-12T10:32:52.000Z</time>
      </trkpt>
      <trkpt lat="47.42453" lon="6.69606">
        <ele>431.7</ele>
        <time>2017-02-12T10:32:53.000Z</time>
      </trkpt>
      <trkpt lat="47.4245" lon="6.69609">
        <ele>432</ele>
        <time>2017-02-12T10:32:55.000Z</time>
      </trkpt>
      <trkpt lat="47.42448" lon="6.69611">
        <ele>432.1</ele>
        <time>2017-02-12T10:32:56.000Z</time>
      </trkpt>
      <trkpt lat="47.42446" lon="6.69614">
        <ele>432.3</ele>
        <time>2017-02-12T10:32:57.000Z</time>
      </trkpt>
      <trkpt lat="47.42444" lon="6.69617">
        <ele>432.5</ele>
        <time>2017-02-12T10:32:58.000Z</time>
      </trkpt>
      <trkpt lat="47.42442" lon="6.6962">
        <ele>432.7</ele>
        <time>2017-02-12T10:32:59.000Z</time>
      </trkpt>
      <trkpt lat="47.4244" lon="6.69622">
        <ele>432.9</ele>
        <time>2017-02-12T10:33:00.000Z</time>
      </trkpt>
      <trkpt lat="47.42438" lon="6.69625">
        <ele>433.1</ele>
        <time>2017-02-12T10:33:01.000Z</time>
      </trkpt>
      <trkpt lat="47.42437" lon="6.69627">
        <ele>433.3</ele>
        <time>2017-02-12T10:33:02.000Z</time>
      </trkpt>
      <trkpt lat="47.42435" lon="6.6963">
        <ele>433.4</ele>
        <time>2017-02-12T10:33:03.000Z</time>
      </trkpt>
      <trkpt lat="47.42434" lon="6.69633">
        <ele>433.7</ele>
        <time>2017-02-12T10:33:04.000Z</time>
      </trkpt>
      <trkpt lat="47.42432" lon="6.69635">
        <ele>433.9</ele>
        <time>2017-02-12T10:33:05.000Z</time>
      </trkpt>
      <trkpt lat="47.42431" lon="6.69638">
        <ele>434.1</ele>
        <time>2017-02-12T10:33:06.000Z</time>
      </trkpt>
      <trkpt lat="47.42428" lon="6.69643">
        <ele>434.6</ele>
        <time>2017-02-12T10:33:08.000Z</time>
      </trkpt>
      <trkpt lat="47.42428" lon="6.69645">
        <ele>434.9</ele>
        <time>2017-02-12T10:33:09.000Z</time>
      </trkpt>
      <trkpt lat="47.42426" lon="6.69651">
        <ele>435.4</ele>
        <time>2017-02-12T10:33:11.000Z</time>
      </trkpt>
      <trkpt lat="47.42425" lon="6.69654">
        <ele>435.7</ele>
        <time>2017-02-12T10:33:12.000Z</time>
      </trkpt>
      <trkpt lat="47.42424" lon="6.69658">
        <ele>435.9</ele>
        <time>2017-02-12T10:33:13.000Z</time>
      </trkpt>
      <trkpt lat="47.42423" lon="6.69661">
        <ele>436.1</ele>
        <time>2017-02-12T10:33:14.000Z</time>
      </trkpt>
      <trkpt lat="47.42422" lon="6.69665">
        <ele>436.3</ele>
        <time>2017-02-12T10:33:15.000Z</time>
      </trkpt>
      <trkpt lat="47.42422" lon="6.69668">
        <ele>436.5</ele>
        <time>2017-02-12T10:33:16.000Z</time>
      </trkpt>
      <trkpt lat="47.42422" lon="6.69671">
        <ele>436.7</ele>
        <time>2017-02-12T10:33:17.000Z</time>
      </trkpt>
      <trkpt lat="47.42421" lon="6.69675">
        <ele>436.9</ele>
        <time>2017-02-12T10:33:18.000Z</time>
      </trkpt>
      <trkpt lat="47.4242" lon="6.69679">
        <ele>437.1</ele>
        <time>2017-02-12T10:33:19.000Z</time>
      </trkpt>
      <trkpt lat="47.4242" lon="6.69683">
        <ele>437.3</ele>
        <time>2017-02-12T10:33:20.000Z</time>
      </trkpt>
      <trkpt lat="47.4242" lon="6.69686">
        <ele>437.5</ele>
        <time>2017-02-12T10:33:21.000Z</time>
      </trkpt>
      <trkpt lat="47.42419" lon="6.6969">
        <ele>437.6</ele>
        <time>2017-02-12T10:33:22.000Z</time>
      </trkpt>
      <trkpt lat="47.42419" lon="6.69696">
        <ele>437.9</ele>
        <time>2017-02-12T10:33:24.000Z</time>
      </trkpt>
      <trkpt lat="47.42419" lon="6.69701">
        <ele>438.1</ele>
        <time>2017-02-12T10:33:25.000Z</time>
      </trkpt>
      <trkpt lat="47.42419" lon="6.69704">
        <ele>438.1</ele>
        <time>2017-02-12T10:33:26.000Z</time>
      </trkpt>
      <trkpt lat="47.4242" lon="6.69708">
        <ele>438.2</ele>
        <time>2017-02-12T10:33:27.000Z</time>
      </trkpt>
      <trkpt lat="47.42421" lon="6.69712">
        <ele>438.4</ele>
        <time>2017-02-12T10:33:28.000Z</time>
      </trkpt>
      <trkpt lat="47.4242" lon="6.69716">
        <ele>438.5</ele>
        <time>2017-02-12T10:33:29.000Z</time>
      </trkpt>
      <trkpt lat="47.4242" lon="6.69719">
        <ele>438.6</ele>
        <time>2017-02-12T10:33:30.000Z</time>
      </trkpt>
      <trkpt lat="47.42419" lon="6.69723">
        <ele>438.8</ele>
        <time>2017-02-12T10:33:31.000Z</time>
      </trkpt>
      <trkpt lat="47.42419" lon="6.69726">
        <ele>439</ele>
        <time>2017-02-12T10:33:32.000Z</time>
      </trkpt>
      <trkpt lat="47.42418" lon="6.69729">
        <ele>439.1</ele>
        <time>2017-02-12T10:33:33.000Z</time>
      </trkpt>
      <trkpt lat="47.42417" lon="6.69735">
        <ele>439.4</ele>
        <time>2017-02-12T10:33:35.000Z</time>
      </trkpt>
      <trkpt lat="47.42416" lon="6.69738">
        <ele>439.5</ele>
        <time>2017-02-12T10:33:36.000Z</time>
      </trkpt>
      <trkpt lat="47.42415" lon="6.69742">
        <ele>439.7</ele>
        <time>2017-02-12T10:33:37.000Z</time>
      </trkpt>
      <trkpt lat="47.42415" lon="6.69745">
        <ele>439.8</ele>
        <time>2017-02-12T10:33:38.000Z</time>
      </trkpt>
      <trkpt lat="47.42415" lon="6.6975">
        <ele>439.9</ele>
        <time>2017-02-12T10:33:39.000Z</time>
      </trkpt>
      <trkpt lat="47.42415" lon="6.69753">
        <ele>440</ele>
        <time>2017-02-12T10:33:40.000Z</time>
      </trkpt>
      <trkpt lat="47.42414" lon="6.69758">
        <ele>440.3</ele>
        <time>2017-02-12T10:33:42.000Z</time>
      </trkpt>
      <trkpt lat="47.42414" lon="6.69762">
        <ele>440.4</ele>
        <time>2017-02-12T10:33:43.000Z</time>
      </trkpt>
      <trkpt lat="47.42413" lon="6.69765">
        <ele>440.5</ele>
        <time>2017-02-12T10:33:44.000Z</time>
      </trkpt>
      <trkpt lat="47.42412" lon="6.69768">
        <ele>440.5</ele>
        <time>2017-02-12T10:33:45.000Z</time>
      </trkpt>
      <trkpt lat="47.42411" lon="6.69774">
        <ele>440.6</ele>
        <time>2017-02-12T10:33:47.000Z</time>
      </trkpt>
      <trkpt lat="47.4241" lon="6.69777">
        <ele>440.7</ele>
        <time>2017-02-12T10:33:48.000Z</time>
      </trkpt>
      <trkpt lat="47.42409" lon="6.69783">
        <ele>440.8</ele>
        <time>2017-02-12T10:33:50.000Z</time>
      </trkpt>
      <trkpt lat="47.42408" lon="6.69786">
        <ele>440.8</ele>
        <time>2017-02-12T10:33:51.000Z</time>
      </trkpt>
      <trkpt lat="47.42407" lon="6.69789">
        <ele>440.9</ele>
        <time>2017-02-12T10:33:52.000Z</time>
      </trkpt>
      <trkpt lat="47.42407" lon="6.69793">
        <ele>441</ele>
        <time>2017-02-12T10:33:53.000Z</time>
      </trkpt>
      <trkpt lat="47.42406" lon="6.69796">
        <ele>441.1</ele>
        <time>2017-02-12T10:33:54.000Z</time>
      </trkpt>
      <trkpt lat="47.42406" lon="6.698">
        <ele>441.2</ele>
        <time>2017-02-12T10:33:55.000Z</time>
      </trkpt>
      <trkpt lat="47.42406" lon="6.69804">
        <ele>441.3</ele>
        <time>2017-02-12T10:33:56.000Z</time>
      </trkpt>
      <trkpt lat="47.42406" lon="6.69807">
        <ele>441.4</ele>
        <time>2017-02-12T10:33:57.000Z</time>
      </trkpt>
      <trkpt lat="47.42406" lon="6.69811">
        <ele>441.6</ele>
        <time>2017-02-12T10:33:58.000Z</time>
      </trkpt>
      <trkpt lat="47.42406" lon="6.69815">
        <ele>441.7</ele>
        <time>2017-02-12T10:33:59.000Z</time>
      </trkpt>
      <trkpt lat="47.42406" lon="6.69818">
        <ele>441.8</ele>
        <time>2017-02-12T10:34:00.000Z</time>
      </trkpt>
      <trkpt lat="47.42406" lon="6.69822">
        <ele>441.8</ele>
        <time>2017-02-12T10:34:01.000Z</time>
      </trkpt>
      <trkpt lat="47.42406" lon="6.69828">
        <ele>442</ele>
        <time>2017-02-12T10:34:03.000Z</time>
      </trkpt>
      <trkpt lat="47.42407" lon="6.69831">
        <ele>442.1</ele>
        <time>2017-02-12T10:34:04.000Z</time>
      </trkpt>
      <trkpt lat="47.42408" lon="6.69836">
        <ele>442.2</ele>
        <time>2017-02-12T10:34:06.000Z</time>
      </trkpt>
      <trkpt lat="47.42408" lon="6.6984">
        <ele>442.3</ele>
        <time>2017-02-12T10:34:07.000Z</time>
      </trkpt>
      <trkpt lat="47.42408" lon="6.69843">
        <ele>442.4</ele>
        <time>2017-02-12T10:34:08.000Z</time>
      </trkpt>
      <trkpt lat="47.42409" lon="6.69847">
        <ele>442.6</ele>
        <time>2017-02-12T10:34:09.000Z</time>
      </trkpt>
      <trkpt lat="47.42409" lon="6.69853">
        <ele>442.7</ele>
        <time>2017-02-12T10:34:11.000Z</time>
      </trkpt>
      <trkpt lat="47.4241" lon="6.69856">
        <ele>442.7</ele>
        <time>2017-02-12T10:34:12.000Z</time>
      </trkpt>
      <trkpt lat="47.42411" lon="6.69861">
        <ele>442.9</ele>
        <time>2017-02-12T10:34:14.000Z</time>
      </trkpt>
      <trkpt lat="47.42412" lon="6.69865">
        <ele>443</ele>
        <time>2017-02-12T10:34:15.000Z</time>
      </trkpt>
      <trkpt lat="47.42414" lon="6.6987">
        <ele>443.2</ele>
        <time>2017-02-12T10:34:17.000Z</time>
      </trkpt>
      <trkpt lat="47.42415" lon="6.69873">
        <ele>443.3</ele>
        <time>2017-02-12T10:34:18.000Z</time>
      </trkpt>
      <trkpt lat="47.42416" lon="6.69876">
        <ele>443.5</ele>
        <time>2017-02-12T10:34:19.000Z</time>
      </trkpt>
      <trkpt lat="47.42417" lon="6.69879">
        <ele>443.6</ele>
        <time>2017-02-12T10:34:20.000Z</time>
      </trkpt>
      <trkpt lat="47.42418" lon="6.69883">
        <ele>443.8</ele>
        <time>2017-02-12T10:34:21.000Z</time>
      </trkpt>
      <trkpt lat="47.42419" lon="6.69886">
        <ele>443.9</ele>
        <time>2017-02-12T10:34:22.000Z</time>
      </trkpt>
      <trkpt lat="47.42421" lon="6.6989">
        <ele>444.1</ele>
        <time>2017-02-12T10:34:24.000Z</time>
      </trkpt>
      <trkpt lat="47.42422" lon="6.69892">
        <ele>444.2</ele>
        <time>2017-02-12T10:34:25.000Z</time>
      </trkpt>
      <trkpt lat="47.42423" lon="6.69895">
        <ele>444.4</ele>
        <time>2017-02-12T10:34:26.000Z</time>
      </trkpt>
      <trkpt lat="47.42424" lon="6.69899">
        <ele>444.6</ele>
        <time>2017-02-12T10:34:27.000Z</time>
      </trkpt>
      <trkpt lat="47.42426" lon="6.69903">
        <ele>444.7</ele>
        <time>2017-02-12T10:34:28.000Z</time>
      </trkpt>
      <trkpt lat="47.42427" lon="6.69906">
        <ele>444.8</ele>
        <time>2017-02-12T10:34:29.000Z</time>
      </trkpt>
      <trkpt lat="47.42429" lon="6.6991">
        <ele>445</ele>
        <time>2017-02-12T10:34:30.000Z</time>
      </trkpt>
      <trkpt lat="47.4243" lon="6.69913">
        <ele>445.2</ele>
        <time>2017-02-12T10:34:31.000Z</time>
      </trkpt>
      <trkpt lat="47.42432" lon="6.69918">
        <ele>445.5</ele>
        <time>2017-02-12T10:34:33.000Z</time>
      </trkpt>
      <trkpt lat="47.42433" lon="6.69919">
        <ele>445.7</ele>
        <time>2017-02-12T10:34:34.000Z</time>
      </trkpt>
      <trkpt lat="47.42435" lon="6.69925">
        <ele>445.9</ele>
        <time>2017-02-12T10:34:36.000Z</time>
      </trkpt>
      <trkpt lat="47.42436" lon="6.69928">
        <ele>446</ele>
        <time>2017-02-12T10:34:37.000Z</time>
      </trkpt>
      <trkpt lat="47.42438" lon="6.69933">
        <ele>446.4</ele>
        <time>2017-02-12T10:34:39.000Z</time>
      </trkpt>
      <trkpt lat="47.4244" lon="6.69936">
        <ele>446.6</ele>
        <time>2017-02-12T10:34:40.000Z</time>
      </trkpt>
      <trkpt lat="47.42441" lon="6.69939">
        <ele>446.7</ele>
        <time>2017-02-12T10:34:41.000Z</time>
      </trkpt>
      <trkpt lat="47.42442" lon="6.69942">
        <ele>446.9</ele>
        <time>2017-02-12T10:34:42.000Z</time>
      </trkpt>
      <trkpt lat="47.42444" lon="6.69947">
        <ele>447.1</ele>
        <time>2017-02-12T10:34:44.000Z</time>
      </trkpt>
      <trkpt lat="47.42446" lon="6.6995">
        <ele>447.3</ele>
        <time>2017-02-12T10:34:45.000Z</time>
      </trkpt>
      <trkpt lat="47.42448" lon="6.69953">
        <ele>447.5</ele>
        <time>2017-02-12T10:34:46.000Z</time>
      </trkpt>
      <trkpt lat="47.4245" lon="6.69956">
        <ele>447.6</ele>
        <time>2017-02-12T10:34:47.000Z</time>
      </trkpt>
      <trkpt lat="47.42451" lon="6.69959">
        <ele>447.7</ele>
        <time>2017-02-12T10:34:48.000Z</time>
      </trkpt>
      <trkpt lat="47.42453" lon="6.69961">
        <ele>447.8</ele>
        <time>2017-02-12T10:34:49.000Z</time>
      </trkpt>
      <trkpt lat="47.42457" lon="6.69964">
        <ele>448</ele>
        <time>2017-02-12T10:34:51.000Z</time>
      </trkpt>
      <trkpt lat="47.42458" lon="6.69966">
        <ele>448.2</ele>
        <time>2017-02-12T10:34:52.000Z</time>
      </trkpt>
      <trkpt lat="47.42459" lon="6.69968">
        <ele>448.4</ele>
        <time>2017-02-12T10:34:53.000Z</time>
      </trkpt>
      <trkpt lat="47.42461" lon="6.69971">
        <ele>448.5</ele>
        <time>2017-02-12T10:34:54.000Z</time>
      </trkpt>
      <trkpt lat="47.42463" lon="6.69974">
        <ele>448.7</ele>
        <time>2017-02-12T10:34:55.000Z</time>
      </trkpt>
      <trkpt lat="47.42464" lon="6.69978">
        <ele>448.8</ele>
        <time>2017-02-12T10:34:56.000Z</time>
      </trkpt>
      <trkpt lat="47.42465" lon="6.69981">
        <ele>449</ele>
        <time>2017-02-12T10:34:57.000Z</time>
      </trkpt>
      <trkpt lat="47.42465" lon="6.69984">
        <ele>449.1</ele>
        <time>2017-02-12T10:34:58.000Z</time>
      </trkpt>
      <trkpt lat="47.42467" lon="6.69989">
        <ele>449.4</ele>
        <time>2017-02-12T10:35:00.000Z</time>
      </trkpt>
      <trkpt lat="47.42469" lon="6.69991">
        <ele>449.6</ele>
        <time>2017-02-12T10:35:01.000Z</time>
      </trkpt>
      <trkpt lat="47.42472" lon="6.69996">
        <ele>449.8</ele>
        <time>2017-02-12T10:35:03.000Z</time>
      </trkpt>
      <trkpt lat="47.42474" lon="6.69998">
        <ele>449.9</ele>
        <time>2017-02-12T10:35:04.000Z</time>
      </trkpt>
      <trkpt lat="47.42476" lon="6.7">
        <ele>449.9</ele>
        <time>2017-02-12T10:35:05.000Z</time>
      </trkpt>
      <trkpt lat="47.42478" lon="6.70001">
        <ele>450</ele>
        <time>2017-02-12T10:35:06.000Z</time>
      </trkpt>
      <trkpt lat="47.42481" lon="6.70005">
        <ele>450.1</ele>
        <time>2017-02-12T10:35:08.000Z</time>
      </trkpt>
      <trkpt lat="47.42483" lon="6.70007">
        <ele>450.2</ele>
        <time>2017-02-12T10:35:09.000Z</time>
      </trkpt>
      <trkpt lat="47.42484" lon="6.70009">
        <ele>450.2</ele>
        <time>2017-02-12T10:35:10.000Z</time>
      </trkpt>
      <trkpt lat="47.42486" lon="6.70011">
        <ele>450.3</ele>
        <time>2017-02-12T10:35:11.000Z</time>
      </trkpt>
      <trkpt lat="47.4249" lon="6.70014">
        <ele>450.2</ele>
        <time>2017-02-12T10:35:13.000Z</time>
      </trkpt>
      <trkpt lat="47.42492" lon="6.70016">
        <ele>450.2</ele>
        <time>2017-02-12T10:35:14.000Z</time>
      </trkpt>
      <trkpt lat="47.42494" lon="6.70018">
        <ele>450.4</ele>
        <time>2017-02-12T10:35:16.000Z</time>
      </trkpt>
      <trkpt lat="47.42496" lon="6.7002">
        <ele>450.5</ele>
        <time>2017-02-12T10:35:17.000Z</time>
      </trkpt>
      <trkpt lat="47.425" lon="6.70021">
        <ele>450.8</ele>
        <time>2017-02-12T10:35:19.000Z</time>
      </trkpt>
      <trkpt lat="47.42502" lon="6.70023">
        <ele>451</ele>
        <time>2017-02-12T10:35:20.000Z</time>
      </trkpt>
      <trkpt lat="47.42504" lon="6.70025">
        <ele>451.2</ele>
        <time>2017-02-12T10:35:21.000Z</time>
      </trkpt>
      <trkpt lat="47.42506" lon="6.70026">
        <ele>451.4</ele>
        <time>2017-02-12T10:35:22.000Z</time>
      </trkpt>
      <trkpt lat="47.42508" lon="6.70028">
        <ele>451.6</ele>
        <time>2017-02-12T10:35:23.000Z</time>
      </trkpt>
      <trkpt lat="47.42511" lon="6.70029">
        <ele>451.9</ele>
        <time>2017-02-12T10:35:24.000Z</time>
      </trkpt>
      <trkpt lat="47.42513" lon="6.7003">
        <ele>452.1</ele>
        <time>2017-02-12T10:35:25.000Z</time>
      </trkpt>
      <trkpt lat="47.42515" lon="6.70031">
        <ele>452.3</ele>
        <time>2017-02-12T10:35:26.000Z</time>
      </trkpt>
      <trkpt lat="47.42518" lon="6.70033">
        <ele>452.6</ele>
        <time>2017-02-12T10:35:27.000Z</time>
      </trkpt>
      <trkpt lat="47.4252" lon="6.70035">
        <ele>452.7</ele>
        <time>2017-02-12T10:35:28.000Z</time>
      </trkpt>
      <trkpt lat="47.42524" lon="6.70037">
        <ele>453.1</ele>
        <time>2017-02-12T10:35:30.000Z</time>
      </trkpt>
      <trkpt lat="47.42527" lon="6.70039">
        <ele>453.3</ele>
        <time>2017-02-12T10:35:31.000Z</time>
      </trkpt>
      <trkpt lat="47.4253" lon="6.7004">
        <ele>453.4</ele>
        <time>2017-02-12T10:35:32.000Z</time>
      </trkpt>
      <trkpt lat="47.42533" lon="6.70041">
        <ele>453.5</ele>
        <time>2017-02-12T10:35:33.000Z</time>
      </trkpt>
      <trkpt lat="47.42535" lon="6.70042">
        <ele>453.7</ele>
        <time>2017-02-12T10:35:34.000Z</time>
      </trkpt>
      <trkpt lat="47.42538" lon="6.70044">
        <ele>453.7</ele>
        <time>2017-02-12T10:35:35.000Z</time>
      </trkpt>
      <trkpt lat="47.42542" lon="6.70045">
        <ele>453.9</ele>
        <time>2017-02-12T10:35:37.000Z</time>
      </trkpt>
      <trkpt lat="47.42545" lon="6.70046">
        <ele>454.1</ele>
        <time>2017-02-12T10:35:38.000Z</time>
      </trkpt>
      <trkpt lat="47.42547" lon="6.70047">
        <ele>454.2</ele>
        <time>2017-02-12T10:35:39.000Z</time>
      </trkpt>
      <trkpt lat="47.4255" lon="6.70048">
        <ele>454.2</ele>
        <time>2017-02-12T10:35:40.000Z</time>
      </trkpt>
      <trkpt lat="47.42552" lon="6.70049">
        <ele>454.2</ele>
        <time>2017-02-12T10:35:41.000Z</time>
      </trkpt>
      <trkpt lat="47.42554" lon="6.7005">
        <ele>454.1</ele>
        <time>2017-02-12T10:35:42.000Z</time>
      </trkpt>
      <trkpt lat="47.42556" lon="6.70052">
        <ele>454.1</ele>
        <time>2017-02-12T10:35:43.000Z</time>
      </trkpt>
      <trkpt lat="47.42558" lon="6.70053">
        <ele>454.1</ele>
        <time>2017-02-12T10:35:44.000Z</time>
      </trkpt>
      <trkpt lat="47.42561" lon="6.70056">
        <ele>454.3</ele>
        <time>2017-02-12T10:35:46.000Z</time>
      </trkpt>
      <trkpt lat="47.42563" lon="6.70058">
        <ele>454.5</ele>
        <time>2017-02-12T10:35:47.000Z</time>
      </trkpt>
      <trkpt lat="47.42565" lon="6.70062">
        <ele>454.8</ele>
        <time>2017-02-12T10:35:49.000Z</time>
      </trkpt>
      <trkpt lat="47.42567" lon="6.70064">
        <ele>454.9</ele>
        <time>2017-02-12T10:35:50.000Z</time>
      </trkpt>
      <trkpt lat="47.42569" lon="6.70066">
        <ele>455.1</ele>
        <time>2017-02-12T10:35:51.000Z</time>
      </trkpt>
      <trkpt lat="47.42572" lon="6.70068">
        <ele>455.2</ele>
        <time>2017-02-12T10:35:52.000Z</time>
      </trkpt>
      <trkpt lat="47.42574" lon="6.70069">
        <ele>455.4</ele>
        <time>2017-02-12T10:35:53.000Z</time>
      </trkpt>
      <trkpt lat="47.42577" lon="6.70071">
        <ele>455.4</ele>
        <time>2017-02-12T10:35:54.000Z</time>
      </trkpt>
      <trkpt lat="47.42579" lon="6.70072">
        <ele>455.5</ele>
        <time>2017-02-12T10:35:55.000Z</time>
      </trkpt>
      <trkpt lat="47.42582" lon="6.70075">
        <ele>455.6</ele>
        <time>2017-02-12T10:35:56.000Z</time>
      </trkpt>
      <trkpt lat="47.42585" lon="6.70077">
        <ele>455.7</ele>
        <time>2017-02-12T10:35:57.000Z</time>
      </trkpt>
      <trkpt lat="47.42587" lon="6.7008">
        <ele>455.8</ele>
        <time>2017-02-12T10:35:58.000Z</time>
      </trkpt>
      <trkpt lat="47.42588" lon="6.70081">
        <ele>456</ele>
        <time>2017-02-12T10:35:59.000Z</time>
      </trkpt>
      <trkpt lat="47.42591" lon="6.70083">
        <ele>456.1</ele>
        <time>2017-02-12T10:36:00.000Z</time>
      </trkpt>
      <trkpt lat="47.42593" lon="6.70086">
        <ele>456.2</ele>
        <time>2017-02-12T10:36:01.000Z</time>
      </trkpt>
      <trkpt lat="47.42594" lon="6.70088">
        <ele>456.3</ele>
        <time>2017-02-12T10:36:02.000Z</time>
      </trkpt>
      <trkpt lat="47.42597" lon="6.70091">
        <ele>456.5</ele>
        <time>2017-02-12T10:36:04.000Z</time>
      </trkpt>
      <trkpt lat="47.42599" lon="6.70092">
        <ele>456.6</ele>
        <time>2017-02-12T10:36:05.000Z</time>
      </trkpt>
      <trkpt lat="47.42601" lon="6.70094">
        <ele>456.8</ele>
        <time>2017-02-12T10:36:06.000Z</time>
      </trkpt>
      <trkpt lat="47.42603" lon="6.70096">
        <ele>456.9</ele>
        <time>2017-02-12T10:36:07.000Z</time>
      </trkpt>
      <trkpt lat="47.42606" lon="6.70099">
        <ele>457</ele>
        <time>2017-02-12T10:36:08.000Z</time>
      </trkpt>
      <trkpt lat="47.42609" lon="6.701">
        <ele>457.1</ele>
        <time>2017-02-12T10:36:09.000Z</time>
      </trkpt>
      <trkpt lat="47.42613" lon="6.701">
        <ele>457.2</ele>
        <time>2017-02-12T10:36:10.000Z</time>
      </trkpt>
      <trkpt lat="47.42614" lon="6.70102">
        <ele>457.3</ele>
        <time>2017-02-12T10:36:11.000Z</time>
      </trkpt>
      <trkpt lat="47.42616" lon="6.70106">
        <ele>457.5</ele>
        <time>2017-02-12T10:36:13.000Z</time>
      </trkpt>
      <trkpt lat="47.42618" lon="6.70109">
        <ele>457.6</ele>
        <time>2017-02-12T10:36:14.000Z</time>
      </trkpt>
      <trkpt lat="47.42621" lon="6.70113">
        <ele>457.7</ele>
        <time>2017-02-12T10:36:16.000Z</time>
      </trkpt>
      <trkpt lat="47.42623" lon="6.70115">
        <ele>457.7</ele>
        <time>2017-02-12T10:36:17.000Z</time>
      </trkpt>
      <trkpt lat="47.42625" lon="6.70117">
        <ele>457.9</ele>
        <time>2017-02-12T10:36:18.000Z</time>
      </trkpt>
      <trkpt lat="47.42628" lon="6.70119">
        <ele>458</ele>
        <time>2017-02-12T10:36:19.000Z</time>
      </trkpt>
      <trkpt lat="47.42631" lon="6.70123">
        <ele>458.3</ele>
        <time>2017-02-12T10:36:21.000Z</time>
      </trkpt>
      <trkpt lat="47.42632" lon="6.70126">
        <ele>458.4</ele>
        <time>2017-02-12T10:36:22.000Z</time>
      </trkpt>
      <trkpt lat="47.42634" lon="6.70127">
        <ele>458.5</ele>
        <time>2017-02-12T10:36:23.000Z</time>
      </trkpt>
      <trkpt lat="47.42637" lon="6.70128">
        <ele>458.7</ele>
        <time>2017-02-12T10:36:24.000Z</time>
      </trkpt>
      <trkpt lat="47.42641" lon="6.70131">
        <ele>458.8</ele>
        <time>2017-02-12T10:36:26.000Z</time>
      </trkpt>
      <trkpt lat="47.42644" lon="6.70132">
        <ele>458.9</ele>
        <time>2017-02-12T10:36:27.000Z</time>
      </trkpt>
      <trkpt lat="47.42647" lon="6.70133">
        <ele>459.1</ele>
        <time>2017-02-12T10:36:28.000Z</time>
      </trkpt>
      <trkpt lat="47.42648" lon="6.70134">
        <ele>459.2</ele>
        <time>2017-02-12T10:36:29.000Z</time>
      </trkpt>
      <trkpt lat="47.4265" lon="6.70137">
        <ele>459.3</ele>
        <time>2017-02-12T10:36:30.000Z</time>
      </trkpt>
      <trkpt lat="47.42652" lon="6.70139">
        <ele>459.4</ele>
        <time>2017-02-12T10:36:31.000Z</time>
      </trkpt>
      <trkpt lat="47.42654" lon="6.70141">
        <ele>459.5</ele>
        <time>2017-02-12T10:36:32.000Z</time>
      </trkpt>
      <trkpt lat="47.42656" lon="6.70144">
        <ele>459.7</ele>
        <time>2017-02-12T10:36:33.000Z</time>
      </trkpt>
      <trkpt lat="47.4266" lon="6.70148">
        <ele>460</ele>
        <time>2017-02-12T10:36:35.000Z</time>
      </trkpt>
      <trkpt lat="47.42662" lon="6.7015">
        <ele>460.3</ele>
        <time>2017-02-12T10:36:36.000Z</time>
      </trkpt>
      <trkpt lat="47.42664" lon="6.70151">
        <ele>460.5</ele>
        <time>2017-02-12T10:36:37.000Z</time>
      </trkpt>
      <trkpt lat="47.42666" lon="6.70153">
        <ele>460.7</ele>
        <time>2017-02-12T10:36:38.000Z</time>
      </trkpt>
      <trkpt lat="47.42668" lon="6.70156">
        <ele>460.8</ele>
        <time>2017-02-12T10:36:39.000Z</time>
      </trkpt>
      <trkpt lat="47.42669" lon="6.70159">
        <ele>460.9</ele>
        <time>2017-02-12T10:36:40.000Z</time>
      </trkpt>
      <trkpt lat="47.42672" lon="6.70161">
        <ele>461.1</ele>
        <time>2017-02-12T10:36:41.000Z</time>
      </trkpt>
      <trkpt lat="47.42674" lon="6.70163">
        <ele>461.3</ele>
        <time>2017-02-12T10:36:42.000Z</time>
      </trkpt>
      <trkpt lat="47.42677" lon="6.70167">
        <ele>461.7</ele>
        <time>2017-02-12T10:36:44.000Z</time>
      </trkpt>
      <trkpt lat="47.42679" lon="6.70169">
        <ele>461.9</ele>
        <time>2017-02-12T10:36:45.000Z</time>
      </trkpt>
      <trkpt lat="47.42681" lon="6.70171">
        <ele>462</ele>
        <time>2017-02-12T10:36:46.000Z</time>
      </trkpt>
      <trkpt lat="47.42683" lon="6.70174">
        <ele>462.2</ele>
        <time>2017-02-12T10:36:47.000Z</time>
      </trkpt>
      <trkpt lat="47.42686" lon="6.70178">
        <ele>462.3</ele>
        <time>2017-02-12T10:36:49.000Z</time>
      </trkpt>
      <trkpt lat="47.42688" lon="6.7018">
        <ele>462.4</ele>
        <time>2017-02-12T10:36:50.000Z</time>
      </trkpt>
      <trkpt lat="47.42689" lon="6.70183">
        <ele>462.5</ele>
        <time>2017-02-12T10:36:51.000Z</time>
      </trkpt>
      <trkpt lat="47.42691" lon="6.70185">
        <ele>462.6</ele>
        <time>2017-02-12T10:36:52.000Z</time>
      </trkpt>
      <trkpt lat="47.42693" lon="6.70189">
        <ele>462.8</ele>
        <time>2017-02-12T10:36:53.000Z</time>
      </trkpt>
      <trkpt lat="47.42696" lon="6.70192">
        <ele>463</ele>
        <time>2017-02-12T10:36:54.000Z</time>
      </trkpt>
      <trkpt lat="47.42698" lon="6.70195">
        <ele>463.1</ele>
        <time>2017-02-12T10:36:55.000Z</time>
      </trkpt>
      <trkpt lat="47.42699" lon="6.70197">
        <ele>463.2</ele>
        <time>2017-02-12T10:36:56.000Z</time>
      </trkpt>
      <trkpt lat="47.42702" lon="6.70201">
        <ele>463.4</ele>
        <time>2017-02-12T10:36:58.000Z</time>
      </trkpt>
      <trkpt lat="47.42703" lon="6.70203">
        <ele>463.5</ele>
        <time>2017-02-12T10:36:59.000Z</time>
      </trkpt>
      <trkpt lat="47.42705" lon="6.70205">
        <ele>463.5</ele>
        <time>2017-02-12T10:37:00.000Z</time>
      </trkpt>
      <trkpt lat="47.42707" lon="6.70207">
        <ele>463.5</ele>
        <time>2017-02-12T10:37:01.000Z</time>
      </trkpt>
      <trkpt lat="47.42709" lon="6.7021">
        <ele>463.6</ele>
        <time>2017-02-12T10:37:02.000Z</time>
      </trkpt>
      <trkpt lat="47.42711" lon="6.70212">
        <ele>463.7</ele>
        <time>2017-02-12T10:37:03.000Z</time>
      </trkpt>
      <trkpt lat="47.42713" lon="6.70214">
        <ele>463.7</ele>
        <time>2017-02-12T10:37:04.000Z</time>
      </trkpt>
      <trkpt lat="47.42715" lon="6.70216">
        <ele>463.7</ele>
        <time>2017-02-12T10:37:05.000Z</time>
      </trkpt>
      <trkpt lat="47.42718" lon="6.7022">
        <ele>463.8</ele>
        <time>2017-02-12T10:37:07.000Z</time>
      </trkpt>
      <trkpt lat="47.42719" lon="6.70221">
        <ele>463.9</ele>
        <time>2017-02-12T10:37:08.000Z</time>
      </trkpt>
      <trkpt lat="47.42722" lon="6.70226">
        <ele>464.2</ele>
        <time>2017-02-12T10:37:10.000Z</time>
      </trkpt>
      <trkpt lat="47.42724" lon="6.70228">
        <ele>464.3</ele>
        <time>2017-02-12T10:37:11.000Z</time>
      </trkpt>
      <trkpt lat="47.42726" lon="6.7023">
        <ele>464.4</ele>
        <time>2017-02-12T10:37:12.000Z</time>
      </trkpt>
      <trkpt lat="47.42728" lon="6.70233">
        <ele>464.6</ele>
        <time>2017-02-12T10:37:13.000Z</time>
      </trkpt>
      <trkpt lat="47.42729" lon="6.70236">
        <ele>465</ele>
        <time>2017-02-12T10:37:15.000Z</time>
      </trkpt>
      <trkpt lat="47.42731" lon="6.70239">
        <ele>465.3</ele>
        <time>2017-02-12T10:37:16.000Z</time>
      </trkpt>
      <trkpt lat="47.42732" lon="6.70241">
        <ele>465.5</ele>
        <time>2017-02-12T10:37:17.000Z</time>
      </trkpt>
      <trkpt lat="47.42735" lon="6.70243">
        <ele>465.8</ele>
        <time>2017-02-12T10:37:18.000Z</time>
      </trkpt>
      <trkpt lat="47.42736" lon="6.70245">
        <ele>466.1</ele>
        <time>2017-02-12T10:37:19.000Z</time>
      </trkpt>
      <trkpt lat="47.42738" lon="6.70247">
        <ele>466.4</ele>
        <time>2017-02-12T10:37:20.000Z</time>
      </trkpt>
      <trkpt lat="47.42741" lon="6.70251">
        <ele>466.5</ele>
        <time>2017-02-12T10:37:21.000Z</time>
      </trkpt>
      <trkpt lat="47.42743" lon="6.70253">
        <ele>466.7</ele>
        <time>2017-02-12T10:37:22.000Z</time>
      </trkpt>
      <trkpt lat="47.42745" lon="6.70255">
        <ele>466.9</ele>
        <time>2017-02-12T10:37:23.000Z</time>
      </trkpt>
      <trkpt lat="47.42747" lon="6.70257">
        <ele>467.1</ele>
        <time>2017-02-12T10:37:24.000Z</time>
      </trkpt>
      <trkpt lat="47.4275" lon="6.70258">
        <ele>467.4</ele>
        <time>2017-02-12T10:37:25.000Z</time>
      </trkpt>
      <trkpt lat="47.42752" lon="6.7026">
        <ele>467.5</ele>
        <time>2017-02-12T10:37:26.000Z</time>
      </trkpt>
      <trkpt lat="47.42755" lon="6.70263">
        <ele>467.9</ele>
        <time>2017-02-12T10:37:28.000Z</time>
      </trkpt>
      <trkpt lat="47.42757" lon="6.70265">
        <ele>468.1</ele>
        <time>2017-02-12T10:37:29.000Z</time>
      </trkpt>
      <trkpt lat="47.42759" lon="6.70266">
        <ele>468.2</ele>
        <time>2017-02-12T10:37:30.000Z</time>
      </trkpt>
      <trkpt lat="47.42762" lon="6.70267">
        <ele>468.4</ele>
        <time>2017-02-12T10:37:31.000Z</time>
      </trkpt>
      <trkpt lat="47.42764" lon="6.70268">
        <ele>468.6</ele>
        <time>2017-02-12T10:37:32.000Z</time>
      </trkpt>
      <trkpt lat="47.42766" lon="6.70269">
        <ele>468.7</ele>
        <time>2017-02-12T10:37:33.000Z</time>
      </trkpt>
      <trkpt lat="47.42769" lon="6.70271">
        <ele>468.9</ele>
        <time>2017-02-12T10:37:34.000Z</time>
      </trkpt>
      <trkpt lat="47.42771" lon="6.70271">
        <ele>469.1</ele>
        <time>2017-02-12T10:37:35.000Z</time>
      </trkpt>
      <trkpt lat="47.42773" lon="6.70273">
        <ele>469.3</ele>
        <time>2017-02-12T10:37:36.000Z</time>
      </trkpt>
      <trkpt lat="47.42776" lon="6.70273">
        <ele>469.5</ele>
        <time>2017-02-12T10:37:37.000Z</time>
      </trkpt>
      <trkpt lat="47.42777" lon="6.70276">
        <ele>469.7</ele>
        <time>2017-02-12T10:37:38.000Z</time>
      </trkpt>
      <trkpt lat="47.42779" lon="6.70278">
        <ele>469.8</ele>
        <time>2017-02-12T10:37:39.000Z</time>
      </trkpt>
      <trkpt lat="47.42782" lon="6.70282">
        <ele>470.2</ele>
        <time>2017-02-12T10:37:41.000Z</time>
      </trkpt>
      <trkpt lat="47.42783" lon="6.70285">
        <ele>470.3</ele>
        <time>2017-02-12T10:37:42.000Z</time>
      </trkpt>
      <trkpt lat="47.42786" lon="6.70288">
        <ele>470.4</ele>
        <time>2017-02-12T10:37:43.000Z</time>
      </trkpt>
      <trkpt lat="47.42788" lon="6.7029">
        <ele>470.5</ele>
        <time>2017-02-12T10:37:44.000Z</time>
      </trkpt>
      <trkpt lat="47.42791" lon="6.70293">
        <ele>470.7</ele>
        <time>2017-02-12T10:37:46.000Z</time>
      </trkpt>
      <trkpt lat="47.42793" lon="6.70294">
        <ele>470.9</ele>
        <time>2017-02-12T10:37:47.000Z</time>
      </trkpt>
      <trkpt lat="47.42795" lon="6.70296">
        <ele>471.1</ele>
        <time>2017-02-12T10:37:48.000Z</time>
      </trkpt>
      <trkpt lat="47.42798" lon="6.70297">
        <ele>471.3</ele>
        <time>2017-02-12T10:37:49.000Z</time>
      </trkpt>
      <trkpt lat="47.42801" lon="6.703">
        <ele>471.6</ele>
        <time>2017-02-12T10:37:51.000Z</time>
      </trkpt>
      <trkpt lat="47.42802" lon="6.70302">
        <ele>471.8</ele>
        <time>2017-02-12T10:37:52.000Z</time>
      </trkpt>
      <trkpt lat="47.42805" lon="6.70304">
        <ele>472.1</ele>
        <time>2017-02-12T10:37:53.000Z</time>
      </trkpt>
      <trkpt lat="47.42807" lon="6.70306">
        <ele>472.3</ele>
        <time>2017-02-12T10:37:54.000Z</time>
      </trkpt>
      <trkpt lat="47.42809" lon="6.70307">
        <ele>472.5</ele>
        <time>2017-02-12T10:37:55.000Z</time>
      </trkpt>
      <trkpt lat="47.42812" lon="6.70308">
        <ele>472.7</ele>
        <time>2017-02-12T10:37:56.000Z</time>
      </trkpt>
      <trkpt lat="47.42814" lon="6.70312">
        <ele>473.1</ele>
        <time>2017-02-12T10:37:58.000Z</time>
      </trkpt>
      <trkpt lat="47.42816" lon="6.70314">
        <ele>473.3</ele>
        <time>2017-02-12T10:37:59.000Z</time>
      </trkpt>
      <trkpt lat="47.42819" lon="6.70318">
        <ele>473.5</ele>
        <time>2017-02-12T10:38:01.000Z</time>
      </trkpt>
      <trkpt lat="47.4282" lon="6.70319">
        <ele>473.7</ele>
        <time>2017-02-12T10:38:02.000Z</time>
      </trkpt>
      <trkpt lat="47.42823" lon="6.70322">
        <ele>474.1</ele>
        <time>2017-02-12T10:38:04.000Z</time>
      </trkpt>
      <trkpt lat="47.42825" lon="6.70325">
        <ele>474.2</ele>
        <time>2017-02-12T10:38:05.000Z</time>
      </trkpt>
      <trkpt lat="47.42829" lon="6.70328">
        <ele>474.7</ele>
        <time>2017-02-12T10:38:07.000Z</time>
      </trkpt>
      <trkpt lat="47.4283" lon="6.70331">
        <ele>474.8</ele>
        <time>2017-02-12T10:38:08.000Z</time>
      </trkpt>
      <trkpt lat="47.42832" lon="6.70334">
        <ele>475</ele>
        <time>2017-02-12T10:38:09.000Z</time>
      </trkpt>
      <trkpt lat="47.42834" lon="6.70337">
        <ele>475.2</ele>
        <time>2017-02-12T10:38:10.000Z</time>
      </trkpt>
      <trkpt lat="47.42836" lon="6.7034">
        <ele>475.3</ele>
        <time>2017-02-12T10:38:11.000Z</time>
      </trkpt>
      <trkpt lat="47.42838" lon="6.70344">
        <ele>475.5</ele>
        <time>2017-02-12T10:38:12.000Z</time>
      </trkpt>
      <trkpt lat="47.42839" lon="6.70346">
        <ele>475.7</ele>
        <time>2017-02-12T10:38:13.000Z</time>
      </trkpt>
      <trkpt lat="47.42841" lon="6.70349">
        <ele>475.8</ele>
        <time>2017-02-12T10:38:14.000Z</time>
      </trkpt>
      <trkpt lat="47.42843" lon="6.70353">
        <ele>475.9</ele>
        <time>2017-02-12T10:38:15.000Z</time>
      </trkpt>
      <trkpt lat="47.42845" lon="6.70355">
        <ele>476</ele>
        <time>2017-02-12T10:38:16.000Z</time>
      </trkpt>
      <trkpt lat="47.42846" lon="6.70358">
        <ele>476.1</ele>
        <time>2017-02-12T10:38:17.000Z</time>
      </trkpt>
      <trkpt lat="47.42848" lon="6.7036">
        <ele>476.2</ele>
        <time>2017-02-12T10:38:18.000Z</time>
      </trkpt>
      <trkpt lat="47.4285" lon="6.70364">
        <ele>476.4</ele>
        <time>2017-02-12T10:38:20.000Z</time>
      </trkpt>
      <trkpt lat="47.42852" lon="6.70366">
        <ele>476.4</ele>
        <time>2017-02-12T10:38:21.000Z</time>
      </trkpt>
      <trkpt lat="47.42855" lon="6.70371">
        <ele>476.2</ele>
        <time>2017-02-12T10:38:23.000Z</time>
      </trkpt>
      <trkpt lat="47.42855" lon="6.70373">
        <ele>476.1</ele>
        <time>2017-02-12T10:38:24.000Z</time>
      </trkpt>
      <trkpt lat="47.42856" lon="6.70376">
        <ele>476</ele>
        <time>2017-02-12T10:38:25.000Z</time>
      </trkpt>
      <trkpt lat="47.42857" lon="6.70379">
        <ele>476</ele>
        <time>2017-02-12T10:38:26.000Z</time>
      </trkpt>
      <trkpt lat="47.4286" lon="6.70385">
        <ele>475.9</ele>
        <time>2017-02-12T10:38:28.000Z</time>
      </trkpt>
      <trkpt lat="47.42861" lon="6.70388">
        <ele>476</ele>
        <time>2017-02-12T10:38:29.000Z</time>
      </trkpt>
      <trkpt lat="47.42862" lon="6.70394">
        <ele>476</ele>
        <time>2017-02-12T10:38:31.000Z</time>
      </trkpt>
      <trkpt lat="47.42863" lon="6.70397">
        <ele>476</ele>
        <time>2017-02-12T10:38:32.000Z</time>
      </trkpt>
      <trkpt lat="47.42863" lon="6.704">
        <ele>476.1</ele>
        <time>2017-02-12T10:38:33.000Z</time>
      </trkpt>
      <trkpt lat="47.42864" lon="6.70404">
        <ele>476.1</ele>
        <time>2017-02-12T10:38:34.000Z</time>
      </trkpt>
      <trkpt lat="47.42865" lon="6.70407">
        <ele>476.2</ele>
        <time>2017-02-12T10:38:35.000Z</time>
      </trkpt>
      <trkpt lat="47.42866" lon="6.70411">
        <ele>476.2</ele>
        <time>2017-02-12T10:38:36.000Z</time>
      </trkpt>
      <trkpt lat="47.42867" lon="6.70414">
        <ele>476.4</ele>
        <time>2017-02-12T10:38:38.000Z</time>
      </trkpt>
      <trkpt lat="47.42867" lon="6.70417">
        <ele>476.5</ele>
        <time>2017-02-12T10:38:39.000Z</time>
      </trkpt>
      <trkpt lat="47.42867" lon="6.70423">
        <ele>476.9</ele>
        <time>2017-02-12T10:38:41.000Z</time>
      </trkpt>
      <trkpt lat="47.42867" lon="6.70427">
        <ele>477</ele>
        <time>2017-02-12T10:38:42.000Z</time>
      </trkpt>
      <trkpt lat="47.42867" lon="6.70432">
        <ele>477.2</ele>
        <time>2017-02-12T10:38:43.000Z</time>
      </trkpt>
      <trkpt lat="47.42867" lon="6.70436">
        <ele>477.4</ele>
        <time>2017-02-12T10:38:44.000Z</time>
      </trkpt>
      <trkpt lat="47.42867" lon="6.7044">
        <ele>477.6</ele>
        <time>2017-02-12T10:38:45.000Z</time>
      </trkpt>
      <trkpt lat="47.42866" lon="6.70443">
        <ele>477.8</ele>
        <time>2017-02-12T10:38:46.000Z</time>
      </trkpt>
      <trkpt lat="47.42866" lon="6.70448">
        <ele>478.3</ele>
        <time>2017-02-12T10:38:48.000Z</time>
      </trkpt>
      <trkpt lat="47.42865" lon="6.7045">
        <ele>478.6</ele>
        <time>2017-02-12T10:38:49.000Z</time>
      </trkpt>
      <trkpt lat="47.42864" lon="6.70456">
        <ele>479.1</ele>
        <time>2017-02-12T10:38:51.000Z</time>
      </trkpt>
      <trkpt lat="47.42863" lon="6.70459">
        <ele>479.3</ele>
        <time>2017-02-12T10:38:52.000Z</time>
      </trkpt>
      <trkpt lat="47.42861" lon="6.70462">
        <ele>479.5</ele>
        <time>2017-02-12T10:38:53.000Z</time>
      </trkpt>
      <trkpt lat="47.4286" lon="6.70464">
        <ele>479.6</ele>
        <time>2017-02-12T10:38:54.000Z</time>
      </trkpt>
      <trkpt lat="47.42858" lon="6.70467">
        <ele>479.8</ele>
        <time>2017-02-12T10:38:55.000Z</time>
      </trkpt>
      <trkpt lat="47.42857" lon="6.70469">
        <ele>480</ele>
        <time>2017-02-12T10:38:56.000Z</time>
      </trkpt>
      <trkpt lat="47.42855" lon="6.70473">
        <ele>480.2</ele>
        <time>2017-02-12T10:38:58.000Z</time>
      </trkpt>
      <trkpt lat="47.42853" lon="6.70475">
        <ele>480.3</ele>
        <time>2017-02-12T10:38:59.000Z</time>
      </trkpt>
      <trkpt lat="47.4285" lon="6.70479">
        <ele>480.4</ele>
        <time>2017-02-12T10:39:01.000Z</time>
      </trkpt>
      <trkpt lat="47.42849" lon="6.70481">
        <ele>480.5</ele>
        <time>2017-02-12T10:39:02.000Z</time>
      </trkpt>
      <trkpt lat="47.42846" lon="6.70484">
        <ele>480.6</ele>
        <time>2017-02-12T10:39:03.000Z</time>
      </trkpt>
      <trkpt lat="47.42845" lon="6.70487">
        <ele>480.7</ele>
        <time>2017-02-12T10:39:04.000Z</time>
      </trkpt>
      <trkpt lat="47.42842" lon="6.7049">
        <ele>481.1</ele>
        <time>2017-02-12T10:39:06.000Z</time>
      </trkpt>
      <trkpt lat="47.4284" lon="6.70491">
        <ele>481.3</ele>
        <time>2017-02-12T10:39:07.000Z</time>
      </trkpt>
      <trkpt lat="47.42837" lon="6.70495">
        <ele>481.7</ele>
        <time>2017-02-12T10:39:09.000Z</time>
      </trkpt>
      <trkpt lat="47.42835" lon="6.70497">
        <ele>482</ele>
        <time>2017-02-12T10:39:10.000Z</time>
      </trkpt>
      <trkpt lat="47.42833" lon="6.705">
        <ele>482.4</ele>
        <time>2017-02-12T10:39:12.000Z</time>
      </trkpt>
      <trkpt lat="47.42831" lon="6.70502">
        <ele>482.8</ele>
        <time>2017-02-12T10:39:13.000Z</time>
      </trkpt>
      <trkpt lat="47.42828" lon="6.70506">
        <ele>483.3</ele>
        <time>2017-02-12T10:39:15.000Z</time>
      </trkpt>
      <trkpt lat="47.42827" lon="6.70507">
        <ele>483.5</ele>
        <time>2017-02-12T10:39:16.000Z</time>
      </trkpt>
      <trkpt lat="47.42825" lon="6.70511">
        <ele>484.2</ele>
        <time>2017-02-12T10:39:19.000Z</time>
      </trkpt>
      <trkpt lat="47.42824" lon="6.70514">
        <ele>484.5</ele>
        <time>2017-02-12T10:39:20.000Z</time>
      </trkpt>
      <trkpt lat="47.42823" lon="6.70518">
        <ele>484.7</ele>
        <time>2017-02-12T10:39:21.000Z</time>
      </trkpt>
      <trkpt lat="47.42822" lon="6.70521">
        <ele>484.9</ele>
        <time>2017-02-12T10:39:22.000Z</time>
      </trkpt>
      <trkpt lat="47.42821" lon="6.70525">
        <ele>485.1</ele>
        <time>2017-02-12T10:39:23.000Z</time>
      </trkpt>
      <trkpt lat="47.42821" lon="6.70528">
        <ele>485.3</ele>
        <time>2017-02-12T10:39:24.000Z</time>
      </trkpt>
      <trkpt lat="47.42821" lon="6.70533">
        <ele>485.6</ele>
        <time>2017-02-12T10:39:26.000Z</time>
      </trkpt>
      <trkpt lat="47.42821" lon="6.70538">
        <ele>485.8</ele>
        <time>2017-02-12T10:39:27.000Z</time>
      </trkpt>
      <trkpt lat="47.42823" lon="6.70542">
        <ele>486.1</ele>
        <time>2017-02-12T10:39:29.000Z</time>
      </trkpt>
      <trkpt lat="47.42824" lon="6.70544">
        <ele>486.2</ele>
        <time>2017-02-12T10:39:30.000Z</time>
      </trkpt>
      <trkpt lat="47.42827" lon="6.70549">
        <ele>486.5</ele>
        <time>2017-02-12T10:39:32.000Z</time>
      </trkpt>
      <trkpt lat="47.42828" lon="6.7055">
        <ele>486.7</ele>
        <time>2017-02-12T10:39:33.000Z</time>
      </trkpt>
      <trkpt lat="47.42831" lon="6.70555">
        <ele>487.4</ele>
        <time>2017-02-12T10:39:38.000Z</time>
      </trkpt>
      <trkpt lat="47.42832" lon="6.70557">
        <ele>487.5</ele>
        <time>2017-02-12T10:39:39.000Z</time>
      </trkpt>
      <trkpt lat="47.42834" lon="6.70561">
        <ele>487.7</ele>
        <time>2017-02-12T10:39:42.000Z</time>
      </trkpt>
      <trkpt lat="47.42835" lon="6.70563">
        <ele>487.7</ele>
        <time>2017-02-12T10:39:43.000Z</time>
      </trkpt>
      <trkpt lat="47.42836" lon="6.70568">
        <ele>487.9</ele>
        <time>2017-02-12T10:39:46.000Z</time>
      </trkpt>
      <trkpt lat="47.42837" lon="6.70569">
        <ele>488</ele>
        <time>2017-02-12T10:39:47.000Z</time>
      </trkpt>
      <trkpt lat="47.42839" lon="6.70574">
        <ele>488.3</ele>
        <time>2017-02-12T10:39:50.000Z</time>
      </trkpt>
      <trkpt lat="47.4284" lon="6.70575">
        <ele>488.4</ele>
        <time>2017-02-12T10:39:51.000Z</time>
      </trkpt>
      <trkpt lat="47.42843" lon="6.7058">
        <ele>488.6</ele>
        <time>2017-02-12T10:39:55.000Z</time>
      </trkpt>
      <trkpt lat="47.42843" lon="6.70581">
        <ele>488.7</ele>
        <time>2017-02-12T10:39:56.000Z</time>
      </trkpt>
      <trkpt lat="47.42846" lon="6.70585">
        <ele>488.8</ele>
        <time>2017-02-12T10:40:00.000Z</time>
      </trkpt>
      <trkpt lat="47.42846" lon="6.70586">
        <ele>488.9</ele>
        <time>2017-02-12T10:40:01.000Z</time>
      </trkpt>
      <trkpt lat="47.42848" lon="6.70591">
        <ele>489.1</ele>
        <time>2017-02-12T10:40:05.000Z</time>
      </trkpt>
      <trkpt lat="47.42848" lon="6.70593">
        <ele>489.1</ele>
        <time>2017-02-12T10:40:06.000Z</time>
      </trkpt>
      <trkpt lat="47.42849" lon="6.70598">
        <ele>489.2</ele>
        <time>2017-02-12T10:40:08.000Z</time>
      </trkpt>
      <trkpt lat="47.4285" lon="6.70601">
        <ele>489.1</ele>
        <time>2017-02-12T10:40:09.000Z</time>
      </trkpt>
      <trkpt lat="47.42853" lon="6.70603">
        <ele>489.1</ele>
        <time>2017-02-12T10:40:11.000Z</time>
      </trkpt>
      <trkpt lat="47.42854" lon="6.70604">
        <ele>489.1</ele>
        <time>2017-02-12T10:40:12.000Z</time>
      </trkpt>
      <trkpt lat="47.42857" lon="6.70609">
        <ele>489.2</ele>
        <time>2017-02-12T10:40:15.000Z</time>
      </trkpt>
      <trkpt lat="47.42858" lon="6.70611">
        <ele>489.3</ele>
        <time>2017-02-12T10:40:16.000Z</time>
      </trkpt>
      <trkpt lat="47.42862" lon="6.70615">
        <ele>489.2</ele>
        <time>2017-02-12T10:40:18.000Z</time>
      </trkpt>
      <trkpt lat="47.42863" lon="6.70617">
        <ele>489.2</ele>
        <time>2017-02-12T10:40:19.000Z</time>
      </trkpt>
      <trkpt lat="47.42865" lon="6.7062">
        <ele>489.2</ele>
        <time>2017-02-12T10:40:21.000Z</time>
      </trkpt>
      <trkpt lat="47.42866" lon="6.70622">
        <ele>489.2</ele>
        <time>2017-02-12T10:40:22.000Z</time>
      </trkpt>
      <trkpt lat="47.42867" lon="6.70627">
        <ele>489.2</ele>
        <time>2017-02-12T10:40:24.000Z</time>
      </trkpt>
      <trkpt lat="47.42867" lon="6.7063">
        <ele>489.2</ele>
        <time>2017-02-12T10:40:25.000Z</time>
      </trkpt>
      <trkpt lat="47.42869" lon="6.70634">
        <ele>489.2</ele>
        <time>2017-02-12T10:40:27.000Z</time>
      </trkpt>
      <trkpt lat="47.4287" lon="6.70636">
        <ele>489.2</ele>
        <time>2017-02-12T10:40:28.000Z</time>
      </trkpt>
      <trkpt lat="47.42872" lon="6.7064">
        <ele>489.1</ele>
        <time>2017-02-12T10:40:30.000Z</time>
      </trkpt>
      <trkpt lat="47.42873" lon="6.70642">
        <ele>489.1</ele>
        <time>2017-02-12T10:40:31.000Z</time>
      </trkpt>
      <trkpt lat="47.42875" lon="6.70646">
        <ele>489.2</ele>
        <time>2017-02-12T10:40:32.000Z</time>
      </trkpt>
      <trkpt lat="47.42876" lon="6.70648">
        <ele>489.3</ele>
        <time>2017-02-12T10:40:33.000Z</time>
      </trkpt>
      <trkpt lat="47.42877" lon="6.70652">
        <ele>489.4</ele>
        <time>2017-02-12T10:40:34.000Z</time>
      </trkpt>
      <trkpt lat="47.42878" lon="6.70654">
        <ele>489.5</ele>
        <time>2017-02-12T10:40:35.000Z</time>
      </trkpt>
      <trkpt lat="47.42881" lon="6.7066">
        <ele>489.7</ele>
        <time>2017-02-12T10:40:37.000Z</time>
      </trkpt>
      <trkpt lat="47.42881" lon="6.70662">
        <ele>489.9</ele>
        <time>2017-02-12T10:40:38.000Z</time>
      </trkpt>
      <trkpt lat="47.42884" lon="6.70667">
        <ele>490.2</ele>
        <time>2017-02-12T10:40:40.000Z</time>
      </trkpt>
      <trkpt lat="47.42885" lon="6.7067">
        <ele>490.2</ele>
        <time>2017-02-12T10:40:41.000Z</time>
      </trkpt>
      <trkpt lat="47.42886" lon="6.70673">
        <ele>490.3</ele>
        <time>2017-02-12T10:40:42.000Z</time>
      </trkpt>
      <trkpt lat="47.42887" lon="6.70676">
        <ele>490.4</ele>
        <time>2017-02-12T10:40:43.000Z</time>
      </trkpt>
      <trkpt lat="47.42888" lon="6.70681">
        <ele>490.7</ele>
        <time>2017-02-12T10:40:45.000Z</time>
      </trkpt>
      <trkpt lat="47.42889" lon="6.70684">
        <ele>490.9</ele>
        <time>2017-02-12T10:40:46.000Z</time>
      </trkpt>
      <trkpt lat="47.4289" lon="6.70688">
        <ele>491.1</ele>
        <time>2017-02-12T10:40:48.000Z</time>
      </trkpt>
      <trkpt lat="47.42891" lon="6.7069">
        <ele>491.2</ele>
        <time>2017-02-12T10:40:49.000Z</time>
      </trkpt>
      <trkpt lat="47.42893" lon="6.70696">
        <ele>491.4</ele>
        <time>2017-02-12T10:40:51.000Z</time>
      </trkpt>
      <trkpt lat="47.42894" lon="6.70699">
        <ele>491.5</ele>
        <time>2017-02-12T10:40:52.000Z</time>
      </trkpt>
      <trkpt lat="47.42896" lon="6.70704">
        <ele>491.6</ele>
        <time>2017-02-12T10:40:54.000Z</time>
      </trkpt>
      <trkpt lat="47.42897" lon="6.70707">
        <ele>491.7</ele>
        <time>2017-02-12T10:40:55.000Z</time>
      </trkpt>
      <trkpt lat="47.42898" lon="6.70709">
        <ele>491.8</ele>
        <time>2017-02-12T10:40:56.000Z</time>
      </trkpt>
      <trkpt lat="47.42899" lon="6.70713">
        <ele>491.9</ele>
        <time>2017-02-12T10:40:57.000Z</time>
      </trkpt>
      <trkpt lat="47.42902" lon="6.70718">
        <ele>492.1</ele>
        <time>2017-02-12T10:40:59.000Z</time>
      </trkpt>
      <trkpt lat="47.42903" lon="6.7072">
        <ele>492.3</ele>
        <time>2017-02-12T10:41:00.000Z</time>
      </trkpt>
      <trkpt lat="47.42904" lon="6.70723">
        <ele>492.3</ele>
        <time>2017-02-12T10:41:01.000Z</time>
      </trkpt>
      <trkpt lat="47.42906" lon="6.70726">
        <ele>492.4</ele>
        <time>2017-02-12T10:41:02.000Z</time>
      </trkpt>
      <trkpt lat="47.42908" lon="6.70731">
        <ele>492.5</ele>
        <time>2017-02-12T10:41:04.000Z</time>
      </trkpt>
      <trkpt lat="47.42909" lon="6.70733">
        <ele>492.5</ele>
        <time>2017-02-12T10:41:05.000Z</time>
      </trkpt>
      <trkpt lat="47.42911" lon="6.70736">
        <ele>492.6</ele>
        <time>2017-02-12T10:41:06.000Z</time>
      </trkpt>
      <trkpt lat="47.42913" lon="6.70738">
        <ele>492.6</ele>
        <time>2017-02-12T10:41:07.000Z</time>
      </trkpt>
      <trkpt lat="47.42914" lon="6.70741">
        <ele>492.6</ele>
        <time>2017-02-12T10:41:08.000Z</time>
      </trkpt>
      <trkpt lat="47.42916" lon="6.70743">
        <ele>492.6</ele>
        <time>2017-02-12T10:41:09.000Z</time>
      </trkpt>
      <trkpt lat="47.42917" lon="6.70746">
        <ele>492.6</ele>
        <time>2017-02-12T10:41:10.000Z</time>
      </trkpt>
      <trkpt lat="47.42919" lon="6.70749">
        <ele>492.6</ele>
        <time>2017-02-12T10:41:11.000Z</time>
      </trkpt>
      <trkpt lat="47.42921" lon="6.70751">
        <ele>492.6</ele>
        <time>2017-02-12T10:41:12.000Z</time>
      </trkpt>
      <trkpt lat="47.42923" lon="6.70754">
        <ele>492.6</ele>
        <time>2017-02-12T10:41:13.000Z</time>
      </trkpt>
      <trkpt lat="47.42924" lon="6.70757">
        <ele>492.7</ele>
        <time>2017-02-12T10:41:14.000Z</time>
      </trkpt>
      <trkpt lat="47.42926" lon="6.70759">
        <ele>492.8</ele>
        <time>2017-02-12T10:41:15.000Z</time>
      </trkpt>
      <trkpt lat="47.42927" lon="6.70762">
        <ele>492.9</ele>
        <time>2017-02-12T10:41:16.000Z</time>
      </trkpt>
      <trkpt lat="47.42929" lon="6.70764">
        <ele>492.9</ele>
        <time>2017-02-12T10:41:17.000Z</time>
      </trkpt>
      <trkpt lat="47.4293" lon="6.70767">
        <ele>492.9</ele>
        <time>2017-02-12T10:41:18.000Z</time>
      </trkpt>
      <trkpt lat="47.42932" lon="6.70769">
        <ele>493</ele>
        <time>2017-02-12T10:41:19.000Z</time>
      </trkpt>
      <trkpt lat="47.42935" lon="6.70774">
        <ele>493.1</ele>
        <time>2017-02-12T10:41:21.000Z</time>
      </trkpt>
      <trkpt lat="47.42936" lon="6.70776">
        <ele>493.2</ele>
        <time>2017-02-12T10:41:22.000Z</time>
      </trkpt>
      <trkpt lat="47.42938" lon="6.7078">
        <ele>493.4</ele>
        <time>2017-02-12T10:41:24.000Z</time>
      </trkpt>
      <trkpt lat="47.42939" lon="6.70783">
        <ele>493.4</ele>
        <time>2017-02-12T10:41:25.000Z</time>
      </trkpt>
      <trkpt lat="47.42941" lon="6.70787">
        <ele>493.8</ele>
        <time>2017-02-12T10:41:28.000Z</time>
      </trkpt>
      <trkpt lat="47.42943" lon="6.7079">
        <ele>494</ele>
        <time>2017-02-12T10:41:29.000Z</time>
      </trkpt>
      <trkpt lat="47.42944" lon="6.70792">
        <ele>494.1</ele>
        <time>2017-02-12T10:41:30.000Z</time>
      </trkpt>
      <trkpt lat="47.42946" lon="6.70794">
        <ele>494.3</ele>
        <time>2017-02-12T10:41:31.000Z</time>
      </trkpt>
      <trkpt lat="47.42949" lon="6.70798">
        <ele>494.6</ele>
        <time>2017-02-12T10:41:33.000Z</time>
      </trkpt>
      <trkpt lat="47.4295" lon="6.708">
        <ele>494.7</ele>
        <time>2017-02-12T10:41:34.000Z</time>
      </trkpt>
      <trkpt lat="47.42951" lon="6.70806">
        <ele>496</ele>
        <time>2017-02-12T10:41:51.000Z</time>
      </trkpt>
      <trkpt lat="47.4295" lon="6.70807">
        <ele>495.9</ele>
        <time>2017-02-12T10:41:52.000Z</time>
      </trkpt>
      <trkpt lat="47.42953" lon="6.70812">
        <ele>496.1</ele>
        <time>2017-02-12T10:41:57.000Z</time>
      </trkpt>
      <trkpt lat="47.42954" lon="6.70812">
        <ele>496.2</ele>
        <time>2017-02-12T10:41:58.000Z</time>
      </trkpt>
      <trkpt lat="47.42958" lon="6.70813">
        <ele>496.4</ele>
        <time>2017-02-12T10:42:03.000Z</time>
      </trkpt>
      <trkpt lat="47.42959" lon="6.70814">
        <ele>496.5</ele>
        <time>2017-02-12T10:42:04.000Z</time>
      </trkpt>
      <trkpt lat="47.42962" lon="6.70817">
        <ele>496.5</ele>
        <time>2017-02-12T10:42:06.000Z</time>
      </trkpt>
      <trkpt lat="47.42963" lon="6.70819">
        <ele>496.5</ele>
        <time>2017-02-12T10:42:07.000Z</time>
      </trkpt>
      <trkpt lat="47.42967" lon="6.70821">
        <ele>496.7</ele>
        <time>2017-02-12T10:42:12.000Z</time>
      </trkpt>
      <trkpt lat="47.42968" lon="6.70822">
        <ele>496.7</ele>
        <time>2017-02-12T10:42:13.000Z</time>
      </trkpt>
      <trkpt lat="47.42972" lon="6.70824">
        <ele>496.6</ele>
        <time>2017-02-12T10:42:15.000Z</time>
      </trkpt>
      <trkpt lat="47.42973" lon="6.70825">
        <ele>496.6</ele>
        <time>2017-02-12T10:42:16.000Z</time>
      </trkpt>
      <trkpt lat="47.42976" lon="6.70821">
        <ele>496.8</ele>
        <time>2017-02-12T10:42:23.000Z</time>
      </trkpt>
      <trkpt lat="47.42976" lon="6.70819">
        <ele>496.8</ele>
        <time>2017-02-12T10:42:24.000Z</time>
      </trkpt>
      <trkpt lat="47.42972" lon="6.7082">
        <ele>497.1</ele>
        <time>2017-02-12T10:42:28.000Z</time>
      </trkpt>
      <trkpt lat="47.4297" lon="6.70822">
        <ele>497.1</ele>
        <time>2017-02-12T10:42:29.000Z</time>
      </trkpt>
      <trkpt lat="47.42968" lon="6.70827">
        <ele>497.5</ele>
        <time>2017-02-12T10:42:33.000Z</time>
      </trkpt>
      <trkpt lat="47.42967" lon="6.70828">
        <ele>497.5</ele>
        <time>2017-02-12T10:42:34.000Z</time>
      </trkpt>
      <trkpt lat="47.42963" lon="6.70829">
        <ele>497.8</ele>
        <time>2017-02-12T10:42:37.000Z</time>
      </trkpt>
      <trkpt lat="47.42962" lon="6.70828">
        <ele>497.9</ele>
        <time>2017-02-12T10:42:38.000Z</time>
      </trkpt>
      <trkpt lat="47.42959" lon="6.70824">
        <ele>498</ele>
        <time>2017-02-12T10:42:43.000Z</time>
      </trkpt>
      <trkpt lat="47.42958" lon="6.70825">
        <ele>498</ele>
        <time>2017-02-12T10:42:44.000Z</time>
      </trkpt>
      <trkpt lat="47.42954" lon="6.70825">
        <ele>497.9</ele>
        <time>2017-02-12T10:42:47.000Z</time>
      </trkpt>
      <trkpt lat="47.42953" lon="6.70824">
        <ele>497.9</ele>
        <time>2017-02-12T10:42:48.000Z</time>
      </trkpt>
      <trkpt lat="47.42952" lon="6.70818">
        <ele>498.2</ele>
        <time>2017-02-12T10:42:52.000Z</time>
      </trkpt>
      <trkpt lat="47.42952" lon="6.70816">
        <ele>498.3</ele>
        <time>2017-02-12T10:42:53.000Z</time>
      </trkpt>
      <trkpt lat="47.42953" lon="6.7081">
        <ele>499.4</ele>
        <time>2017-02-12T10:43:04.000Z</time>
      </trkpt>
      <trkpt lat="47.42953" lon="6.70809">
        <ele>499.5</ele>
        <time>2017-02-12T10:43:05.000Z</time>
      </trkpt>
      <trkpt lat="47.42949" lon="6.70812">
        <ele>499.8</ele>
        <time>2017-02-12T10:43:22.000Z</time>
      </trkpt>
      <trkpt lat="47.42949" lon="6.70812">
        <ele>499.7</ele>
        <time>2017-02-12T10:43:23.000Z</time>
      </trkpt>
      <trkpt lat="47.42949" lon="6.70819">
        <ele>499.4</ele>
        <time>2017-02-12T10:43:30.000Z</time>
      </trkpt>
      <trkpt lat="47.4295" lon="6.7082">
        <ele>499.3</ele>
        <time>2017-02-12T10:43:31.000Z</time>
      </trkpt>
      <trkpt lat="47.42949" lon="6.70825">
        <ele>498.3</ele>
        <time>2017-02-12T10:43:40.000Z</time>
      </trkpt>
      <trkpt lat="47.4295" lon="6.70827">
        <ele>498.3</ele>
        <time>2017-02-12T10:43:41.000Z</time>
      </trkpt>
      <trkpt lat="47.42951" lon="6.7083">
        <ele>498.5</ele>
        <time>2017-02-12T10:43:43.000Z</time>
      </trkpt>
      <trkpt lat="47.42952" lon="6.70832">
        <ele>498.7</ele>
        <time>2017-02-12T10:43:44.000Z</time>
      </trkpt>
      <trkpt lat="47.42953" lon="6.70837">
        <ele>498.9</ele>
        <time>2017-02-12T10:43:46.000Z</time>
      </trkpt>
      <trkpt lat="47.42954" lon="6.7084">
        <ele>499.1</ele>
        <time>2017-02-12T10:43:47.000Z</time>
      </trkpt>
      <trkpt lat="47.42955" lon="6.70845">
        <ele>499.3</ele>
        <time>2017-02-12T10:43:49.000Z</time>
      </trkpt>
      <trkpt lat="47.42956" lon="6.70848">
        <ele>499.4</ele>
        <time>2017-02-12T10:43:50.000Z</time>
      </trkpt>
      <trkpt lat="47.42957" lon="6.70854">
        <ele>499.6</ele>
        <time>2017-02-12T10:43:52.000Z</time>
      </trkpt>
      <trkpt lat="47.42958" lon="6.70858">
        <ele>499.7</ele>
        <time>2017-02-12T10:43:53.000Z</time>
      </trkpt>
      <trkpt lat="47.42958" lon="6.70862">
        <ele>499.8</ele>
        <time>2017-02-12T10:43:54.000Z</time>
      </trkpt>
      <trkpt lat="47.42959" lon="6.70867">
        <ele>499.9</ele>
        <time>2017-02-12T10:43:55.000Z</time>
      </trkpt>
      <trkpt lat="47.4296" lon="6.70871">
        <ele>500</ele>
        <time>2017-02-12T10:43:56.000Z</time>
      </trkpt>
      <trkpt lat="47.42961" lon="6.70875">
        <ele>500.1</ele>
        <time>2017-02-12T10:43:57.000Z</time>
      </trkpt>
      <trkpt lat="47.42962" lon="6.70879">
        <ele>500.1</ele>
        <time>2017-02-12T10:43:58.000Z</time>
      </trkpt>
      <trkpt lat="47.42964" lon="6.70884">
        <ele>500</ele>
        <time>2017-02-12T10:43:59.000Z</time>
      </trkpt>
      <trkpt lat="47.42965" lon="6.70888">
        <ele>499.9</ele>
        <time>2017-02-12T10:44:00.000Z</time>
      </trkpt>
      <trkpt lat="47.42966" lon="6.70893">
        <ele>499.8</ele>
        <time>2017-02-12T10:44:01.000Z</time>
      </trkpt>
      <trkpt lat="47.42967" lon="6.70899">
        <ele>499.7</ele>
        <time>2017-02-12T10:44:02.000Z</time>
      </trkpt>
      <trkpt lat="47.42968" lon="6.70904">
        <ele>499.5</ele>
        <time>2017-02-12T10:44:03.000Z</time>
      </trkpt>
      <trkpt lat="47.4297" lon="6.70909">
        <ele>499.3</ele>
        <time>2017-02-12T10:44:04.000Z</time>
      </trkpt>
      <trkpt lat="47.42971" lon="6.70914">
        <ele>499.1</ele>
        <time>2017-02-12T10:44:05.000Z</time>
      </trkpt>
      <trkpt lat="47.42973" lon="6.70918">
        <ele>499</ele>
        <time>2017-02-12T10:44:06.000Z</time>
      </trkpt>
      <trkpt lat="47.42974" lon="6.70923">
        <ele>498.9</ele>
        <time>2017-02-12T10:44:07.000Z</time>
      </trkpt>
      <trkpt lat="47.42976" lon="6.70928">
        <ele>498.8</ele>
        <time>2017-02-12T10:44:08.000Z</time>
      </trkpt>
      <trkpt lat="47.42977" lon="6.70933">
        <ele>498.2</ele>
        <time>2017-02-12T10:44:09.000Z</time>
      </trkpt>
      <trkpt lat="47.42978" lon="6.70938">
        <ele>497.9</ele>
        <time>2017-02-12T10:44:10.000Z</time>
      </trkpt>
      <trkpt lat="47.4298" lon="6.70943">
        <ele>498</ele>
        <time>2017-02-12T10:44:11.000Z</time>
      </trkpt>
      <trkpt lat="47.42982" lon="6.70948">
        <ele>498</ele>
        <time>2017-02-12T10:44:12.000Z</time>
      </trkpt>
      <trkpt lat="47.42984" lon="6.70954">
        <ele>498.2</ele>
        <time>2017-02-12T10:44:13.000Z</time>
      </trkpt>
      <trkpt lat="47.42986" lon="6.7096">
        <ele>498.3</ele>
        <time>2017-02-12T10:44:14.000Z</time>
      </trkpt>
      <trkpt lat="47.42988" lon="6.70965">
        <ele>498.4</ele>
        <time>2017-02-12T10:44:15.000Z</time>
      </trkpt>
      <trkpt lat="47.4299" lon="6.70971">
        <ele>498.4</ele>
        <time>2017-02-12T10:44:16.000Z</time>
      </trkpt>
      <trkpt lat="47.42992" lon="6.70977">
        <ele>498.2</ele>
        <time>2017-02-12T10:44:17.000Z</time>
      </trkpt>
      <trkpt lat="47.42994" lon="6.70982">
        <ele>498.1</ele>
        <time>2017-02-12T10:44:18.000Z</time>
      </trkpt>
      <trkpt lat="47.42996" lon="6.70988">
        <ele>497.9</ele>
        <time>2017-02-12T10:44:19.000Z</time>
      </trkpt>
      <trkpt lat="47.42998" lon="6.70995">
        <ele>497.3</ele>
        <time>2017-02-12T10:44:20.000Z</time>
      </trkpt>
      <trkpt lat="47.43" lon="6.71001">
        <ele>496.5</ele>
        <time>2017-02-12T10:44:21.000Z</time>
      </trkpt>
      <trkpt lat="47.43003" lon="6.71007">
        <ele>495.8</ele>
        <time>2017-02-12T10:44:22.000Z</time>
      </trkpt>
      <trkpt lat="47.43005" lon="6.71013">
        <ele>495.6</ele>
        <time>2017-02-12T10:44:23.000Z</time>
      </trkpt>
      <trkpt lat="47.43007" lon="6.71019">
        <ele>495.1</ele>
        <time>2017-02-12T10:44:24.000Z</time>
      </trkpt>
      <trkpt lat="47.43009" lon="6.71024">
        <ele>494.5</ele>
        <time>2017-02-12T10:44:25.000Z</time>
      </trkpt>
      <trkpt lat="47.43011" lon="6.71029">
        <ele>494.1</ele>
        <time>2017-02-12T10:44:26.000Z</time>
      </trkpt>
      <trkpt lat="47.43014" lon="6.71034">
        <ele>493</ele>
        <time>2017-02-12T10:44:27.000Z</time>
      </trkpt>
      <trkpt lat="47.43016" lon="6.71039">
        <ele>492</ele>
        <time>2017-02-12T10:44:28.000Z</time>
      </trkpt>
      <trkpt lat="47.43018" lon="6.71044">
        <ele>491.1</ele>
        <time>2017-02-12T10:44:29.000Z</time>
      </trkpt>
      <trkpt lat="47.4302" lon="6.71049">
        <ele>490.6</ele>
        <time>2017-02-12T10:44:30.000Z</time>
      </trkpt>
      <trkpt lat="47.43022" lon="6.71054">
        <ele>490.5</ele>
        <time>2017-02-12T10:44:31.000Z</time>
      </trkpt>
      <trkpt lat="47.43024" lon="6.7106">
        <ele>490.2</ele>
        <time>2017-02-12T10:44:32.000Z</time>
      </trkpt>
      <trkpt lat="47.43026" lon="6.71065">
        <ele>490.5</ele>
        <time>2017-02-12T10:44:33.000Z</time>
      </trkpt>
      <trkpt lat="47.43028" lon="6.71069">
        <ele>491.2</ele>
        <time>2017-02-12T10:44:34.000Z</time>
      </trkpt>
      <trkpt lat="47.4303" lon="6.71073">
        <ele>491.3</ele>
        <time>2017-02-12T10:44:35.000Z</time>
      </trkpt>
      <trkpt lat="47.43032" lon="6.71078">
        <ele>492</ele>
        <time>2017-02-12T10:44:36.000Z</time>
      </trkpt>
      <trkpt lat="47.43033" lon="6.71083">
        <ele>492.6</ele>
        <time>2017-02-12T10:44:37.000Z</time>
      </trkpt>
      <trkpt lat="47.43035" lon="6.71087">
        <ele>492.7</ele>
        <time>2017-02-12T10:44:38.000Z</time>
      </trkpt>
      <trkpt lat="47.43037" lon="6.71092">
        <ele>492.7</ele>
        <time>2017-02-12T10:44:39.000Z</time>
      </trkpt>
      <trkpt lat="47.43039" lon="6.71096">
        <ele>492.3</ele>
        <time>2017-02-12T10:44:40.000Z</time>
      </trkpt>
      <trkpt lat="47.43041" lon="6.71101">
        <ele>491.6</ele>
        <time>2017-02-12T10:44:41.000Z</time>
      </trkpt>
      <trkpt lat="47.43044" lon="6.71106">
        <ele>491.1</ele>
        <time>2017-02-12T10:44:42.000Z</time>
      </trkpt>
      <trkpt lat="47.43046" lon="6.7111">
        <ele>490.7</ele>
        <time>2017-02-12T10:44:43.000Z</time>
      </trkpt>
      <trkpt lat="47.43049" lon="6.71114">
        <ele>490.6</ele>
        <time>2017-02-12T10:44:44.000Z</time>
      </trkpt>
      <trkpt lat="47.43051" lon="6.71117">
        <ele>490.6</ele>
        <time>2017-02-12T10:44:45.000Z</time>
      </trkpt>
      <trkpt lat="47.43054" lon="6.7112">
        <ele>490.6</ele>
        <time>2017-02-12T10:44:46.000Z</time>
      </trkpt>
      <trkpt lat="47.43057" lon="6.71124">
        <ele>490.6</ele>
        <time>2017-02-12T10:44:47.000Z</time>
      </trkpt>
      <trkpt lat="47.4306" lon="6.71127">
        <ele>490.6</ele>
        <time>2017-02-12T10:44:48.000Z</time>
      </trkpt>
      <trkpt lat="47.43062" lon="6.7113">
        <ele>490.7</ele>
        <time>2017-02-12T10:44:49.000Z</time>
      </trkpt>
      <trkpt lat="47.43065" lon="6.71132">
        <ele>490.7</ele>
        <time>2017-02-12T10:44:50.000Z</time>
      </trkpt>
      <trkpt lat="47.43067" lon="6.71135">
        <ele>490.8</ele>
        <time>2017-02-12T10:44:51.000Z</time>
      </trkpt>
      <trkpt lat="47.4307" lon="6.71139">
        <ele>490.9</ele>
        <time>2017-02-12T10:44:53.000Z</time>
      </trkpt>
      <trkpt lat="47.43072" lon="6.71142">
        <ele>491</ele>
        <time>2017-02-12T10:44:54.000Z</time>
      </trkpt>
      <trkpt lat="47.43074" lon="6.71144">
        <ele>491</ele>
        <time>2017-02-12T10:44:55.000Z</time>
      </trkpt>
      <trkpt lat="47.43077" lon="6.71148">
        <ele>491.1</ele>
        <time>2017-02-12T10:44:56.000Z</time>
      </trkpt>
      <trkpt lat="47.43079" lon="6.7115">
        <ele>491.2</ele>
        <time>2017-02-12T10:44:57.000Z</time>
      </trkpt>
      <trkpt lat="47.43082" lon="6.71155">
        <ele>491.3</ele>
        <time>2017-02-12T10:44:58.000Z</time>
      </trkpt>
      <trkpt lat="47.43083" lon="6.71158">
        <ele>491.4</ele>
        <time>2017-02-12T10:44:59.000Z</time>
      </trkpt>
      <trkpt lat="47.43085" lon="6.71161">
        <ele>491.5</ele>
        <time>2017-02-12T10:45:00.000Z</time>
      </trkpt>
      <trkpt lat="47.43086" lon="6.71164">
        <ele>491.7</ele>
        <time>2017-02-12T10:45:01.000Z</time>
      </trkpt>
      <trkpt lat="47.43088" lon="6.71167">
        <ele>491.8</ele>
        <time>2017-02-12T10:45:02.000Z</time>
      </trkpt>
      <trkpt lat="47.43089" lon="6.71171">
        <ele>491.9</ele>
        <time>2017-02-12T10:45:03.000Z</time>
      </trkpt>
      <trkpt lat="47.43091" lon="6.71175">
        <ele>492</ele>
        <time>2017-02-12T10:45:04.000Z</time>
      </trkpt>
      <trkpt lat="47.43094" lon="6.71178">
        <ele>492.2</ele>
        <time>2017-02-12T10:45:06.000Z</time>
      </trkpt>
      <trkpt lat="47.43096" lon="6.71181">
        <ele>492.3</ele>
        <time>2017-02-12T10:45:07.000Z</time>
      </trkpt>
      <trkpt lat="47.43098" lon="6.71184">
        <ele>492.4</ele>
        <time>2017-02-12T10:45:08.000Z</time>
      </trkpt>
      <trkpt lat="47.43101" lon="6.71187">
        <ele>492.5</ele>
        <time>2017-02-12T10:45:09.000Z</time>
      </trkpt>
      <trkpt lat="47.43103" lon="6.7119">
        <ele>492.6</ele>
        <time>2017-02-12T10:45:10.000Z</time>
      </trkpt>
      <trkpt lat="47.43104" lon="6.71193">
        <ele>492.7</ele>
        <time>2017-02-12T10:45:11.000Z</time>
      </trkpt>
      <trkpt lat="47.43107" lon="6.71196">
        <ele>492.8</ele>
        <time>2017-02-12T10:45:12.000Z</time>
      </trkpt>
      <trkpt lat="47.43108" lon="6.71198">
        <ele>492.9</ele>
        <time>2017-02-12T10:45:13.000Z</time>
      </trkpt>
      <trkpt lat="47.4311" lon="6.71202">
        <ele>493</ele>
        <time>2017-02-12T10:45:14.000Z</time>
      </trkpt>
      <trkpt lat="47.43111" lon="6.71204">
        <ele>493.1</ele>
        <time>2017-02-12T10:45:15.000Z</time>
      </trkpt>
      <trkpt lat="47.43114" lon="6.71208">
        <ele>493.4</ele>
        <time>2017-02-12T10:45:17.000Z</time>
      </trkpt>
      <trkpt lat="47.43117" lon="6.71211">
        <ele>493.6</ele>
        <time>2017-02-12T10:45:18.000Z</time>
      </trkpt>
      <trkpt lat="47.43119" lon="6.71213">
        <ele>493.8</ele>
        <time>2017-02-12T10:45:19.000Z</time>
      </trkpt>
      <trkpt lat="47.43121" lon="6.71217">
        <ele>493.9</ele>
        <time>2017-02-12T10:45:20.000Z</time>
      </trkpt>
      <trkpt lat="47.43123" lon="6.71219">
        <ele>494</ele>
        <time>2017-02-12T10:45:21.000Z</time>
      </trkpt>
      <trkpt lat="47.43124" lon="6.71221">
        <ele>494.1</ele>
        <time>2017-02-12T10:45:22.000Z</time>
      </trkpt>
      <trkpt lat="47.43127" lon="6.71224">
        <ele>494.1</ele>
        <time>2017-02-12T10:45:23.000Z</time>
      </trkpt>
      <trkpt lat="47.43129" lon="6.71226">
        <ele>494.2</ele>
        <time>2017-02-12T10:45:24.000Z</time>
      </trkpt>
      <trkpt lat="47.43132" lon="6.71228">
        <ele>494.4</ele>
        <time>2017-02-12T10:45:25.000Z</time>
      </trkpt>
      <trkpt lat="47.43134" lon="6.7123">
        <ele>494.5</ele>
        <time>2017-02-12T10:45:26.000Z</time>
      </trkpt>
      <trkpt lat="47.43136" lon="6.71233">
        <ele>494.5</ele>
        <time>2017-02-12T10:45:27.000Z</time>
      </trkpt>
      <trkpt lat="47.43138" lon="6.71235">
        <ele>494.5</ele>
        <time>2017-02-12T10:45:28.000Z</time>
      </trkpt>
      <trkpt lat="47.4314" lon="6.71238">
        <ele>494.5</ele>
        <time>2017-02-12T10:45:29.000Z</time>
      </trkpt>
      <trkpt lat="47.43142" lon="6.7124">
        <ele>494.6</ele>
        <time>2017-02-12T10:45:30.000Z</time>
      </trkpt>
      <trkpt lat="47.43142" lon="6.71242">
        <ele>494.7</ele>
        <time>2017-02-12T10:45:31.000Z</time>
      </trkpt>
      <trkpt lat="47.43144" lon="6.71245">
        <ele>494.7</ele>
        <time>2017-02-12T10:45:32.000Z</time>
      </trkpt>
      <trkpt lat="47.43146" lon="6.71248">
        <ele>494.8</ele>
        <time>2017-02-12T10:45:33.000Z</time>
      </trkpt>
      <trkpt lat="47.43148" lon="6.71251">
        <ele>495</ele>
        <time>2017-02-12T10:45:34.000Z</time>
      </trkpt>
      <trkpt lat="47.4315" lon="6.71255">
        <ele>495.1</ele>
        <time>2017-02-12T10:45:35.000Z</time>
      </trkpt>
      <trkpt lat="47.43151" lon="6.71257">
        <ele>495.2</ele>
        <time>2017-02-12T10:45:36.000Z</time>
      </trkpt>
      <trkpt lat="47.43154" lon="6.71261">
        <ele>495.6</ele>
        <time>2017-02-12T10:45:38.000Z</time>
      </trkpt>
      <trkpt lat="47.43156" lon="6.71265">
        <ele>495.8</ele>
        <time>2017-02-12T10:45:39.000Z</time>
      </trkpt>
      <trkpt lat="47.43157" lon="6.71268">
        <ele>496</ele>
        <time>2017-02-12T10:45:40.000Z</time>
      </trkpt>
      <trkpt lat="47.43159" lon="6.71271">
        <ele>496.2</ele>
        <time>2017-02-12T10:45:41.000Z</time>
      </trkpt>
      <trkpt lat="47.4316" lon="6.71275">
        <ele>496.4</ele>
        <time>2017-02-12T10:45:42.000Z</time>
      </trkpt>
      <trkpt lat="47.43162" lon="6.71279">
        <ele>496.5</ele>
        <time>2017-02-12T10:45:43.000Z</time>
      </trkpt>
      <trkpt lat="47.43164" lon="6.71281">
        <ele>496.7</ele>
        <time>2017-02-12T10:45:44.000Z</time>
      </trkpt>
      <trkpt lat="47.43166" lon="6.71285">
        <ele>496.9</ele>
        <time>2017-02-12T10:45:45.000Z</time>
      </trkpt>
      <trkpt lat="47.43168" lon="6.71289">
        <ele>497</ele>
        <time>2017-02-12T10:45:46.000Z</time>
      </trkpt>
      <trkpt lat="47.43169" lon="6.71292">
        <ele>497.1</ele>
        <time>2017-02-12T10:45:47.000Z</time>
      </trkpt>
      <trkpt lat="47.43171" lon="6.71295">
        <ele>497.3</ele>
        <time>2017-02-12T10:45:48.000Z</time>
      </trkpt>
      <trkpt lat="47.43172" lon="6.71299">
        <ele>497.4</ele>
        <time>2017-02-12T10:45:49.000Z</time>
      </trkpt>
      <trkpt lat="47.43173" lon="6.71302">
        <ele>497.5</ele>
        <time>2017-02-12T10:45:50.000Z</time>
      </trkpt>
      <trkpt lat="47.43175" lon="6.71305">
        <ele>497.7</ele>
        <time>2017-02-12T10:45:51.000Z</time>
      </trkpt>
      <trkpt lat="47.43177" lon="6.71309">
        <ele>497.8</ele>
        <time>2017-02-12T10:45:52.000Z</time>
      </trkpt>
      <trkpt lat="47.43179" lon="6.71312">
        <ele>498</ele>
        <time>2017-02-12T10:45:53.000Z</time>
      </trkpt>
      <trkpt lat="47.4318" lon="6.71314">
        <ele>498.1</ele>
        <time>2017-02-12T10:45:54.000Z</time>
      </trkpt>
      <trkpt lat="47.43181" lon="6.71318">
        <ele>498.3</ele>
        <time>2017-02-12T10:45:55.000Z</time>
      </trkpt>
      <trkpt lat="47.43183" lon="6.71321">
        <ele>498.4</ele>
        <time>2017-02-12T10:45:56.000Z</time>
      </trkpt>
      <trkpt lat="47.43185" lon="6.71324">
        <ele>498.6</ele>
        <time>2017-02-12T10:45:57.000Z</time>
      </trkpt>
      <trkpt lat="47.43187" lon="6.71327">
        <ele>498.7</ele>
        <time>2017-02-12T10:45:58.000Z</time>
      </trkpt>
      <trkpt lat="47.43188" lon="6.71331">
        <ele>498.8</ele>
        <time>2017-02-12T10:45:59.000Z</time>
      </trkpt>
      <trkpt lat="47.4319" lon="6.71335">
        <ele>498.9</ele>
        <time>2017-02-12T10:46:00.000Z</time>
      </trkpt>
      <trkpt lat="47.43191" lon="6.71337">
        <ele>499</ele>
        <time>2017-02-12T10:46:01.000Z</time>
      </trkpt>
      <trkpt lat="47.43192" lon="6.7134">
        <ele>499.1</ele>
        <time>2017-02-12T10:46:02.000Z</time>
      </trkpt>
      <trkpt lat="47.43193" lon="6.71343">
        <ele>499.2</ele>
        <time>2017-02-12T10:46:03.000Z</time>
      </trkpt>
      <trkpt lat="47.43194" lon="6.71346">
        <ele>499.3</ele>
        <time>2017-02-12T10:46:04.000Z</time>
      </trkpt>
      <trkpt lat="47.43196" lon="6.7135">
        <ele>499.4</ele>
        <time>2017-02-12T10:46:05.000Z</time>
      </trkpt>
      <trkpt lat="47.43198" lon="6.71355">
        <ele>499.5</ele>
        <time>2017-02-12T10:46:06.000Z</time>
      </trkpt>
      <trkpt lat="47.432" lon="6.71359">
        <ele>499.6</ele>
        <time>2017-02-12T10:46:07.000Z</time>
      </trkpt>
      <trkpt lat="47.43201" lon="6.71363">
        <ele>499.6</ele>
        <time>2017-02-12T10:46:08.000Z</time>
      </trkpt>
      <trkpt lat="47.43203" lon="6.71366">
        <ele>499.7</ele>
        <time>2017-02-12T10:46:09.000Z</time>
      </trkpt>
      <trkpt lat="47.43205" lon="6.7137">
        <ele>499.8</ele>
        <time>2017-02-12T10:46:10.000Z</time>
      </trkpt>
      <trkpt lat="47.43207" lon="6.71373">
        <ele>500</ele>
        <time>2017-02-12T10:46:11.000Z</time>
      </trkpt>
      <trkpt lat="47.43208" lon="6.71376">
        <ele>500.2</ele>
        <time>2017-02-12T10:46:12.000Z</time>
      </trkpt>
      <trkpt lat="47.43209" lon="6.71378">
        <ele>500.3</ele>
        <time>2017-02-12T10:46:13.000Z</time>
      </trkpt>
      <trkpt lat="47.43211" lon="6.71382">
        <ele>500.4</ele>
        <time>2017-02-12T10:46:14.000Z</time>
      </trkpt>
      <trkpt lat="47.43212" lon="6.71386">
        <ele>500.4</ele>
        <time>2017-02-12T10:46:15.000Z</time>
      </trkpt>
      <trkpt lat="47.43214" lon="6.7139">
        <ele>500.5</ele>
        <time>2017-02-12T10:46:16.000Z</time>
      </trkpt>
      <trkpt lat="47.43215" lon="6.71394">
        <ele>500.5</ele>
        <time>2017-02-12T10:46:17.000Z</time>
      </trkpt>
      <trkpt lat="47.43217" lon="6.71398">
        <ele>500.6</ele>
        <time>2017-02-12T10:46:18.000Z</time>
      </trkpt>
      <trkpt lat="47.43219" lon="6.71401">
        <ele>500.6</ele>
        <time>2017-02-12T10:46:19.000Z</time>
      </trkpt>
      <trkpt lat="47.4322" lon="6.71404">
        <ele>500.7</ele>
        <time>2017-02-12T10:46:20.000Z</time>
      </trkpt>
      <trkpt lat="47.43222" lon="6.71409">
        <ele>500.7</ele>
        <time>2017-02-12T10:46:21.000Z</time>
      </trkpt>
      <trkpt lat="47.43224" lon="6.71411">
        <ele>500.8</ele>
        <time>2017-02-12T10:46:22.000Z</time>
      </trkpt>
      <trkpt lat="47.43225" lon="6.71414">
        <ele>500.9</ele>
        <time>2017-02-12T10:46:23.000Z</time>
      </trkpt>
      <trkpt lat="47.43227" lon="6.71418">
        <ele>501</ele>
        <time>2017-02-12T10:46:24.000Z</time>
      </trkpt>
      <trkpt lat="47.43228" lon="6.71421">
        <ele>501.2</ele>
        <time>2017-02-12T10:46:25.000Z</time>
      </trkpt>
      <trkpt lat="47.4323" lon="6.71424">
        <ele>501.4</ele>
        <time>2017-02-12T10:46:26.000Z</time>
      </trkpt>
      <trkpt lat="47.43231" lon="6.71427">
        <ele>501.6</ele>
        <time>2017-02-12T10:46:27.000Z</time>
      </trkpt>
      <trkpt lat="47.43232" lon="6.71431">
        <ele>501.8</ele>
        <time>2017-02-12T10:46:28.000Z</time>
      </trkpt>
      <trkpt lat="47.43234" lon="6.71435">
        <ele>502</ele>
        <time>2017-02-12T10:46:29.000Z</time>
      </trkpt>
      <trkpt lat="47.43236" lon="6.71439">
        <ele>502.2</ele>
        <time>2017-02-12T10:46:30.000Z</time>
      </trkpt>
      <trkpt lat="47.43238" lon="6.71442">
        <ele>502.3</ele>
        <time>2017-02-12T10:46:31.000Z</time>
      </trkpt>
      <trkpt lat="47.43239" lon="6.71446">
        <ele>502.5</ele>
        <time>2017-02-12T10:46:32.000Z</time>
      </trkpt>
      <trkpt lat="47.43241" lon="6.71449">
        <ele>502.6</ele>
        <time>2017-02-12T10:46:33.000Z</time>
      </trkpt>
      <trkpt lat="47.43243" lon="6.71452">
        <ele>502.8</ele>
        <time>2017-02-12T10:46:34.000Z</time>
      </trkpt>
      <trkpt lat="47.43245" lon="6.71456">
        <ele>503</ele>
        <time>2017-02-12T10:46:35.000Z</time>
      </trkpt>
      <trkpt lat="47.43247" lon="6.71459">
        <ele>503.1</ele>
        <time>2017-02-12T10:46:36.000Z</time>
      </trkpt>
      <trkpt lat="47.4325" lon="6.71462">
        <ele>503.3</ele>
        <time>2017-02-12T10:46:37.000Z</time>
      </trkpt>
      <trkpt lat="47.43252" lon="6.71467">
        <ele>503.5</ele>
        <time>2017-02-12T10:46:38.000Z</time>
      </trkpt>
      <trkpt lat="47.43255" lon="6.7147">
        <ele>503.6</ele>
        <time>2017-02-12T10:46:39.000Z</time>
      </trkpt>
      <trkpt lat="47.43258" lon="6.71474">
        <ele>504.4</ele>
        <time>2017-02-12T10:46:40.000Z</time>
      </trkpt>
      <trkpt lat="47.43262" lon="6.71479">
        <ele>504.6</ele>
        <time>2017-02-12T10:46:41.000Z</time>
      </trkpt>
      <trkpt lat="47.43265" lon="6.71484">
        <ele>505</ele>
        <time>2017-02-12T10:46:42.000Z</time>
      </trkpt>
      <trkpt lat="47.43269" lon="6.71489">
        <ele>505.5</ele>
        <time>2017-02-12T10:46:43.000Z</time>
      </trkpt>
      <trkpt lat="47.43273" lon="6.71494">
        <ele>505.7</ele>
        <time>2017-02-12T10:46:44.000Z</time>
      </trkpt>
      <trkpt lat="47.43277" lon="6.71499">
        <ele>505.9</ele>
        <time>2017-02-12T10:46:45.000Z</time>
      </trkpt>
      <trkpt lat="47.43281" lon="6.71504">
        <ele>506.1</ele>
        <time>2017-02-12T10:46:46.000Z</time>
      </trkpt>
      <trkpt lat="47.43285" lon="6.7151">
        <ele>506.2</ele>
        <time>2017-02-12T10:46:47.000Z</time>
      </trkpt>
      <trkpt lat="47.4329" lon="6.71515">
        <ele>506.1</ele>
        <time>2017-02-12T10:46:48.000Z</time>
      </trkpt>
      <trkpt lat="47.43294" lon="6.71521">
        <ele>505.6</ele>
        <time>2017-02-12T10:46:49.000Z</time>
      </trkpt>
      <trkpt lat="47.43298" lon="6.71526">
        <ele>505.1</ele>
        <time>2017-02-12T10:46:50.000Z</time>
      </trkpt>
      <trkpt lat="47.43302" lon="6.71531">
        <ele>504.7</ele>
        <time>2017-02-12T10:46:51.000Z</time>
      </trkpt>
      <trkpt lat="47.43306" lon="6.71537">
        <ele>504.1</ele>
        <time>2017-02-12T10:46:52.000Z</time>
      </trkpt>
      <trkpt lat="47.4331" lon="6.71543">
        <ele>503.7</ele>
        <time>2017-02-12T10:46:53.000Z</time>
      </trkpt>
      <trkpt lat="47.43314" lon="6.71549">
        <ele>503.7</ele>
        <time>2017-02-12T10:46:54.000Z</time>
      </trkpt>
      <trkpt lat="47.43318" lon="6.71554">
        <ele>503.4</ele>
        <time>2017-02-12T10:46:55.000Z</time>
      </trkpt>
      <trkpt lat="47.43322" lon="6.71559">
        <ele>502.9</ele>
        <time>2017-02-12T10:46:56.000Z</time>
      </trkpt>
      <trkpt lat="47.43327" lon="6.71565">
        <ele>503</ele>
        <time>2017-02-12T10:46:57.000Z</time>
      </trkpt>
      <trkpt lat="47.43331" lon="6.71571">
        <ele>502.9</ele>
        <time>2017-02-12T10:46:58.000Z</time>
      </trkpt>
      <trkpt lat="47.43335" lon="6.71576">
        <ele>502.5</ele>
        <time>2017-02-12T10:46:59.000Z</time>
      </trkpt>
      <trkpt lat="47.43339" lon="6.71582">
        <ele>501.9</ele>
        <time>2017-02-12T10:47:00.000Z</time>
      </trkpt>
      <trkpt lat="47.43344" lon="6.71587">
        <ele>501.5</ele>
        <time>2017-02-12T10:47:01.000Z</time>
      </trkpt>
      <trkpt lat="47.43348" lon="6.71592">
        <ele>500.9</ele>
        <time>2017-02-12T10:47:02.000Z</time>
      </trkpt>
      <trkpt lat="47.43351" lon="6.71598">
        <ele>500.4</ele>
        <time>2017-02-12T10:47:03.000Z</time>
      </trkpt>
      <trkpt lat="47.43355" lon="6.71603">
        <ele>499.8</ele>
        <time>2017-02-12T10:47:04.000Z</time>
      </trkpt>
      <trkpt lat="47.43358" lon="6.71609">
        <ele>499.4</ele>
        <time>2017-02-12T10:47:05.000Z</time>
      </trkpt>
      <trkpt lat="47.43362" lon="6.71614">
        <ele>499.1</ele>
        <time>2017-02-12T10:47:06.000Z</time>
      </trkpt>
      <trkpt lat="47.43366" lon="6.7162">
        <ele>498.8</ele>
        <time>2017-02-12T10:47:07.000Z</time>
      </trkpt>
      <trkpt lat="47.4337" lon="6.71626">
        <ele>498.3</ele>
        <time>2017-02-12T10:47:08.000Z</time>
      </trkpt>
      <trkpt lat="47.43373" lon="6.71631">
        <ele>497.4</ele>
        <time>2017-02-12T10:47:09.000Z</time>
      </trkpt>
      <trkpt lat="47.43376" lon="6.71637">
        <ele>496.6</ele>
        <time>2017-02-12T10:47:10.000Z</time>
      </trkpt>
      <trkpt lat="47.4338" lon="6.71643">
        <ele>496</ele>
        <time>2017-02-12T10:47:11.000Z</time>
      </trkpt>
      <trkpt lat="47.43383" lon="6.71648">
        <ele>495.9</ele>
        <time>2017-02-12T10:47:12.000Z</time>
      </trkpt>
      <trkpt lat="47.43387" lon="6.71654">
        <ele>496.2</ele>
        <time>2017-02-12T10:47:13.000Z</time>
      </trkpt>
      <trkpt lat="47.4339" lon="6.71659">
        <ele>496.8</ele>
        <time>2017-02-12T10:47:14.000Z</time>
      </trkpt>
      <trkpt lat="47.43394" lon="6.71664">
        <ele>496.7</ele>
        <time>2017-02-12T10:47:15.000Z</time>
      </trkpt>
      <trkpt lat="47.43398" lon="6.71669">
        <ele>496.7</ele>
        <time>2017-02-12T10:47:16.000Z</time>
      </trkpt>
      <trkpt lat="47.43401" lon="6.71674">
        <ele>496.9</ele>
        <time>2017-02-12T10:47:17.000Z</time>
      </trkpt>
      <trkpt lat="47.43405" lon="6.7168">
        <ele>497.3</ele>
        <time>2017-02-12T10:47:18.000Z</time>
      </trkpt>
      <trkpt lat="47.43409" lon="6.71685">
        <ele>497.3</ele>
        <time>2017-02-12T10:47:19.000Z</time>
      </trkpt>
      <trkpt lat="47.43413" lon="6.71691">
        <ele>497.1</ele>
        <time>2017-02-12T10:47:20.000Z</time>
      </trkpt>
      <trkpt lat="47.43416" lon="6.71697">
        <ele>497.5</ele>
        <time>2017-02-12T10:47:21.000Z</time>
      </trkpt>
      <trkpt lat="47.4342" lon="6.71704">
        <ele>497.4</ele>
        <time>2017-02-12T10:47:22.000Z</time>
      </trkpt>
      <trkpt lat="47.43423" lon="6.71709">
        <ele>497.4</ele>
        <time>2017-02-12T10:47:23.000Z</time>
      </trkpt>
      <trkpt lat="47.43426" lon="6.71715">
        <ele>497.4</ele>
        <time>2017-02-12T10:47:24.000Z</time>
      </trkpt>
      <trkpt lat="47.43428" lon="6.71721">
        <ele>497.6</ele>
        <time>2017-02-12T10:47:25.000Z</time>
      </trkpt>
      <trkpt lat="47.43431" lon="6.71727">
        <ele>497.8</ele>
        <time>2017-02-12T10:47:26.000Z</time>
      </trkpt>
      <trkpt lat="47.43434" lon="6.71733">
        <ele>498.5</ele>
        <time>2017-02-12T10:47:27.000Z</time>
      </trkpt>
      <trkpt lat="47.43437" lon="6.71739">
        <ele>499</ele>
        <time>2017-02-12T10:47:28.000Z</time>
      </trkpt>
      <trkpt lat="47.4344" lon="6.71745">
        <ele>499.6</ele>
        <time>2017-02-12T10:47:29.000Z</time>
      </trkpt>
      <trkpt lat="47.43442" lon="6.71751">
        <ele>500.3</ele>
        <time>2017-02-12T10:47:30.000Z</time>
      </trkpt>
      <trkpt lat="47.43444" lon="6.71756">
        <ele>500.4</ele>
        <time>2017-02-12T10:47:31.000Z</time>
      </trkpt>
      <trkpt lat="47.43446" lon="6.7176">
        <ele>500.2</ele>
        <time>2017-02-12T10:47:32.000Z</time>
      </trkpt>
      <trkpt lat="47.43448" lon="6.71766">
        <ele>500</ele>
        <time>2017-02-12T10:47:33.000Z</time>
      </trkpt>
      <trkpt lat="47.4345" lon="6.71771">
        <ele>500</ele>
        <time>2017-02-12T10:47:34.000Z</time>
      </trkpt>
      <trkpt lat="47.43451" lon="6.71775">
        <ele>500.3</ele>
        <time>2017-02-12T10:47:35.000Z</time>
      </trkpt>
      <trkpt lat="47.43453" lon="6.71783">
        <ele>500.3</ele>
        <time>2017-02-12T10:47:36.000Z</time>
      </trkpt>
      <trkpt lat="47.43455" lon="6.7179">
        <ele>499.9</ele>
        <time>2017-02-12T10:47:37.000Z</time>
      </trkpt>
      <trkpt lat="47.43457" lon="6.71795">
        <ele>499.8</ele>
        <time>2017-02-12T10:47:38.000Z</time>
      </trkpt>
      <trkpt lat="47.43458" lon="6.71801">
        <ele>499</ele>
        <time>2017-02-12T10:47:39.000Z</time>
      </trkpt>
      <trkpt lat="47.43459" lon="6.71807">
        <ele>498.8</ele>
        <time>2017-02-12T10:47:40.000Z</time>
      </trkpt>
      <trkpt lat="47.4346" lon="6.71812">
        <ele>498.7</ele>
        <time>2017-02-12T10:47:41.000Z</time>
      </trkpt>
      <trkpt lat="47.43461" lon="6.71818">
        <ele>498.6</ele>
        <time>2017-02-12T10:47:42.000Z</time>
      </trkpt>
      <trkpt lat="47.43462" lon="6.71825">
        <ele>498</ele>
        <time>2017-02-12T10:47:43.000Z</time>
      </trkpt>
      <trkpt lat="47.43463" lon="6.71831">
        <ele>498</ele>
        <time>2017-02-12T10:47:44.000Z</time>
      </trkpt>
      <trkpt lat="47.43464" lon="6.71836">
        <ele>497.9</ele>
        <time>2017-02-12T10:47:45.000Z</time>
      </trkpt>
      <trkpt lat="47.43465" lon="6.7184">
        <ele>497.9</ele>
        <time>2017-02-12T10:47:46.000Z</time>
      </trkpt>
      <trkpt lat="47.43467" lon="6.71844">
        <ele>497.7</ele>
        <time>2017-02-12T10:47:47.000Z</time>
      </trkpt>
      <trkpt lat="47.43467" lon="6.71848">
        <ele>497.7</ele>
        <time>2017-02-12T10:47:48.000Z</time>
      </trkpt>
      <trkpt lat="47.43468" lon="6.71853">
        <ele>497.6</ele>
        <time>2017-02-12T10:47:49.000Z</time>
      </trkpt>
      <trkpt lat="47.43469" lon="6.71857">
        <ele>497.5</ele>
        <time>2017-02-12T10:47:50.000Z</time>
      </trkpt>
      <trkpt lat="47.4347" lon="6.71861">
        <ele>497.4</ele>
        <time>2017-02-12T10:47:51.000Z</time>
      </trkpt>
      <trkpt lat="47.43471" lon="6.71866">
        <ele>497.3</ele>
        <time>2017-02-12T10:47:52.000Z</time>
      </trkpt>
      <trkpt lat="47.43473" lon="6.71869">
        <ele>497.2</ele>
        <time>2017-02-12T10:47:53.000Z</time>
      </trkpt>
      <trkpt lat="47.43474" lon="6.71874">
        <ele>497.1</ele>
        <time>2017-02-12T10:47:54.000Z</time>
      </trkpt>
      <trkpt lat="47.43476" lon="6.71879">
        <ele>497</ele>
        <time>2017-02-12T10:47:55.000Z</time>
      </trkpt>
      <trkpt lat="47.43477" lon="6.71883">
        <ele>497</ele>
        <time>2017-02-12T10:47:56.000Z</time>
      </trkpt>
      <trkpt lat="47.43478" lon="6.71887">
        <ele>496.9</ele>
        <time>2017-02-12T10:47:57.000Z</time>
      </trkpt>
      <trkpt lat="47.43479" lon="6.71891">
        <ele>496.8</ele>
        <time>2017-02-12T10:47:58.000Z</time>
      </trkpt>
      <trkpt lat="47.4348" lon="6.71895">
        <ele>496.8</ele>
        <time>2017-02-12T10:47:59.000Z</time>
      </trkpt>
      <trkpt lat="47.43481" lon="6.719">
        <ele>496.7</ele>
        <time>2017-02-12T10:48:00.000Z</time>
      </trkpt>
      <trkpt lat="47.43482" lon="6.71904">
        <ele>496.6</ele>
        <time>2017-02-12T10:48:01.000Z</time>
      </trkpt>
      <trkpt lat="47.43483" lon="6.71909">
        <ele>496.5</ele>
        <time>2017-02-12T10:48:02.000Z</time>
      </trkpt>
      <trkpt lat="47.43484" lon="6.71913">
        <ele>496.5</ele>
        <time>2017-02-12T10:48:03.000Z</time>
      </trkpt>
      <trkpt lat="47.43485" lon="6.71918">
        <ele>496.4</ele>
        <time>2017-02-12T10:48:04.000Z</time>
      </trkpt>
      <trkpt lat="47.43486" lon="6.71922">
        <ele>496.4</ele>
        <time>2017-02-12T10:48:05.000Z</time>
      </trkpt>
      <trkpt lat="47.43486" lon="6.71926">
        <ele>496.4</ele>
        <time>2017-02-12T10:48:06.000Z</time>
      </trkpt>
      <trkpt lat="47.43487" lon="6.7193">
        <ele>496.4</ele>
        <time>2017-02-12T10:48:07.000Z</time>
      </trkpt>
      <trkpt lat="47.43488" lon="6.71933">
        <ele>496.4</ele>
        <time>2017-02-12T10:48:08.000Z</time>
      </trkpt>
      <trkpt lat="47.43489" lon="6.71937">
        <ele>496.4</ele>
        <time>2017-02-12T10:48:09.000Z</time>
      </trkpt>
      <trkpt lat="47.4349" lon="6.71942">
        <ele>496.3</ele>
        <time>2017-02-12T10:48:10.000Z</time>
      </trkpt>
      <trkpt lat="47.43491" lon="6.71946">
        <ele>496.3</ele>
        <time>2017-02-12T10:48:11.000Z</time>
      </trkpt>
      <trkpt lat="47.43492" lon="6.7195">
        <ele>496.3</ele>
        <time>2017-02-12T10:48:12.000Z</time>
      </trkpt>
      <trkpt lat="47.43493" lon="6.71953">
        <ele>496.3</ele>
        <time>2017-02-12T10:48:13.000Z</time>
      </trkpt>
      <trkpt lat="47.43494" lon="6.71957">
        <ele>496.3</ele>
        <time>2017-02-12T10:48:14.000Z</time>
      </trkpt>
      <trkpt lat="47.43496" lon="6.7196">
        <ele>496.2</ele>
        <time>2017-02-12T10:48:15.000Z</time>
      </trkpt>
      <trkpt lat="47.43497" lon="6.71965">
        <ele>496.3</ele>
        <time>2017-02-12T10:48:16.000Z</time>
      </trkpt>
      <trkpt lat="47.43498" lon="6.71969">
        <ele>496.3</ele>
        <time>2017-02-12T10:48:17.000Z</time>
      </trkpt>
      <trkpt lat="47.43499" lon="6.71972">
        <ele>496.3</ele>
        <time>2017-02-12T10:48:18.000Z</time>
      </trkpt>
      <trkpt lat="47.435" lon="6.71975">
        <ele>496.3</ele>
        <time>2017-02-12T10:48:19.000Z</time>
      </trkpt>
      <trkpt lat="47.43501" lon="6.71979">
        <ele>496.4</ele>
        <time>2017-02-12T10:48:20.000Z</time>
      </trkpt>
      <trkpt lat="47.43501" lon="6.71983">
        <ele>496.3</ele>
        <time>2017-02-12T10:48:21.000Z</time>
      </trkpt>
      <trkpt lat="47.43502" lon="6.71987">
        <ele>496.4</ele>
        <time>2017-02-12T10:48:22.000Z</time>
      </trkpt>
      <trkpt lat="47.43503" lon="6.7199">
        <ele>496.4</ele>
        <time>2017-02-12T10:48:23.000Z</time>
      </trkpt>
      <trkpt lat="47.43505" lon="6.71996">
        <ele>496.4</ele>
        <time>2017-02-12T10:48:25.000Z</time>
      </trkpt>
      <trkpt lat="47.43506" lon="6.71999">
        <ele>496.4</ele>
        <time>2017-02-12T10:48:26.000Z</time>
      </trkpt>
      <trkpt lat="47.43507" lon="6.72003">
        <ele>496.5</ele>
        <time>2017-02-12T10:48:27.000Z</time>
      </trkpt>
      <trkpt lat="47.43508" lon="6.72006">
        <ele>496.5</ele>
        <time>2017-02-12T10:48:28.000Z</time>
      </trkpt>
      <trkpt lat="47.43509" lon="6.7201">
        <ele>496.6</ele>
        <time>2017-02-12T10:48:29.000Z</time>
      </trkpt>
      <trkpt lat="47.43509" lon="6.72013">
        <ele>496.7</ele>
        <time>2017-02-12T10:48:30.000Z</time>
      </trkpt>
      <trkpt lat="47.43511" lon="6.72019">
        <ele>496.9</ele>
        <time>2017-02-12T10:48:32.000Z</time>
      </trkpt>
      <trkpt lat="47.43511" lon="6.72022">
        <ele>497</ele>
        <time>2017-02-12T10:48:33.000Z</time>
      </trkpt>
      <trkpt lat="47.43512" lon="6.72025">
        <ele>497.2</ele>
        <time>2017-02-12T10:48:34.000Z</time>
      </trkpt>
      <trkpt lat="47.43513" lon="6.72028">
        <ele>497.3</ele>
        <time>2017-02-12T10:48:35.000Z</time>
      </trkpt>
      <trkpt lat="47.43514" lon="6.72031">
        <ele>497.5</ele>
        <time>2017-02-12T10:48:36.000Z</time>
      </trkpt>
      <trkpt lat="47.43515" lon="6.72034">
        <ele>497.6</ele>
        <time>2017-02-12T10:48:37.000Z</time>
      </trkpt>
      <trkpt lat="47.43516" lon="6.72038">
        <ele>497.8</ele>
        <time>2017-02-12T10:48:38.000Z</time>
      </trkpt>
      <trkpt lat="47.43517" lon="6.72041">
        <ele>498</ele>
        <time>2017-02-12T10:48:39.000Z</time>
      </trkpt>
      <trkpt lat="47.43518" lon="6.72045">
        <ele>498.1</ele>
        <time>2017-02-12T10:48:40.000Z</time>
      </trkpt>
      <trkpt lat="47.4352" lon="6.72049">
        <ele>498.3</ele>
        <time>2017-02-12T10:48:41.000Z</time>
      </trkpt>
      <trkpt lat="47.43521" lon="6.72052">
        <ele>498.4</ele>
        <time>2017-02-12T10:48:42.000Z</time>
      </trkpt>
      <trkpt lat="47.43522" lon="6.72055">
        <ele>498.5</ele>
        <time>2017-02-12T10:48:43.000Z</time>
      </trkpt>
      <trkpt lat="47.43524" lon="6.72058">
        <ele>498.7</ele>
        <time>2017-02-12T10:48:44.000Z</time>
      </trkpt>
      <trkpt lat="47.43525" lon="6.72062">
        <ele>498.8</ele>
        <time>2017-02-12T10:48:45.000Z</time>
      </trkpt>
      <trkpt lat="47.43527" lon="6.72065">
        <ele>498.9</ele>
        <time>2017-02-12T10:48:46.000Z</time>
      </trkpt>
      <trkpt lat="47.43528" lon="6.72069">
        <ele>499</ele>
        <time>2017-02-12T10:48:47.000Z</time>
      </trkpt>
      <trkpt lat="47.43529" lon="6.72073">
        <ele>499.2</ele>
        <time>2017-02-12T10:48:48.000Z</time>
      </trkpt>
      <trkpt lat="47.43531" lon="6.72077">
        <ele>499.3</ele>
        <time>2017-02-12T10:48:49.000Z</time>
      </trkpt>
      <trkpt lat="47.43532" lon="6.7208">
        <ele>499.4</ele>
        <time>2017-02-12T10:48:50.000Z</time>
      </trkpt>
      <trkpt lat="47.43533" lon="6.72084">
        <ele>499.6</ele>
        <time>2017-02-12T10:48:51.000Z</time>
      </trkpt>
      <trkpt lat="47.43535" lon="6.72088">
        <ele>499.7</ele>
        <time>2017-02-12T10:48:52.000Z</time>
      </trkpt>
      <trkpt lat="47.43536" lon="6.72091">
        <ele>499.8</ele>
        <time>2017-02-12T10:48:53.000Z</time>
      </trkpt>
      <trkpt lat="47.43537" lon="6.72094">
        <ele>499.9</ele>
        <time>2017-02-12T10:48:54.000Z</time>
      </trkpt>
      <trkpt lat="47.43539" lon="6.72098">
        <ele>500.1</ele>
        <time>2017-02-12T10:48:55.000Z</time>
      </trkpt>
      <trkpt lat="47.43541" lon="6.72101">
        <ele>500.2</ele>
        <time>2017-02-12T10:48:56.000Z</time>
      </trkpt>
      <trkpt lat="47.43542" lon="6.72104">
        <ele>500.3</ele>
        <time>2017-02-12T10:48:57.000Z</time>
      </trkpt>
      <trkpt lat="47.43544" lon="6.72107">
        <ele>500.4</ele>
        <time>2017-02-12T10:48:58.000Z</time>
      </trkpt>
      <trkpt lat="47.43545" lon="6.7211">
        <ele>500.4</ele>
        <time>2017-02-12T10:48:59.000Z</time>
      </trkpt>
      <trkpt lat="47.43547" lon="6.72113">
        <ele>500.4</ele>
        <time>2017-02-12T10:49:00.000Z</time>
      </trkpt>
      <trkpt lat="47.43548" lon="6.72116">
        <ele>500.5</ele>
        <time>2017-02-12T10:49:01.000Z</time>
      </trkpt>
      <trkpt lat="47.43551" lon="6.72121">
        <ele>500.6</ele>
        <time>2017-02-12T10:49:03.000Z</time>
      </trkpt>
      <trkpt lat="47.43552" lon="6.72124">
        <ele>500.7</ele>
        <time>2017-02-12T10:49:04.000Z</time>
      </trkpt>
      <trkpt lat="47.43553" lon="6.72127">
        <ele>500.8</ele>
        <time>2017-02-12T10:49:05.000Z</time>
      </trkpt>
      <trkpt lat="47.43555" lon="6.7213">
        <ele>500.9</ele>
        <time>2017-02-12T10:49:06.000Z</time>
      </trkpt>
      <trkpt lat="47.43556" lon="6.72133">
        <ele>501.1</ele>
        <time>2017-02-12T10:49:07.000Z</time>
      </trkpt>
      <trkpt lat="47.43557" lon="6.72136">
        <ele>501.2</ele>
        <time>2017-02-12T10:49:08.000Z</time>
      </trkpt>
      <trkpt lat="47.43559" lon="6.72141">
        <ele>501.3</ele>
        <time>2017-02-12T10:49:10.000Z</time>
      </trkpt>
      <trkpt lat="47.43561" lon="6.72144">
        <ele>501.4</ele>
        <time>2017-02-12T10:49:11.000Z</time>
      </trkpt>
      <trkpt lat="47.43562" lon="6.7215">
        <ele>501.5</ele>
        <time>2017-02-12T10:49:13.000Z</time>
      </trkpt>
      <trkpt lat="47.43563" lon="6.72152">
        <ele>501.6</ele>
        <time>2017-02-12T10:49:14.000Z</time>
      </trkpt>
      <trkpt lat="47.43565" lon="6.72158">
        <ele>501.9</ele>
        <time>2017-02-12T10:49:16.000Z</time>
      </trkpt>
      <trkpt lat="47.43566" lon="6.72161">
        <ele>502</ele>
        <time>2017-02-12T10:49:17.000Z</time>
      </trkpt>
      <trkpt lat="47.43567" lon="6.72164">
        <ele>502.1</ele>
        <time>2017-02-12T10:49:18.000Z</time>
      </trkpt>
      <trkpt lat="47.43569" lon="6.72167">
        <ele>502.2</ele>
        <time>2017-02-12T10:49:19.000Z</time>
      </trkpt>
      <trkpt lat="47.43571" lon="6.72172">
        <ele>502.4</ele>
        <time>2017-02-12T10:49:21.000Z</time>
      </trkpt>
      <trkpt lat="47.43572" lon="6.72175">
        <ele>502.5</ele>
        <time>2017-02-12T10:49:22.000Z</time>
      </trkpt>
      <trkpt lat="47.43573" lon="6.72178">
        <ele>502.6</ele>
        <time>2017-02-12T10:49:23.000Z</time>
      </trkpt>
      <trkpt lat="47.43574" lon="6.72181">
        <ele>502.7</ele>
        <time>2017-02-12T10:49:24.000Z</time>
      </trkpt>
      <trkpt lat="47.43576" lon="6.72186">
        <ele>502.9</ele>
        <time>2017-02-12T10:49:26.000Z</time>
      </trkpt>
      <trkpt lat="47.43577" lon="6.7219">
        <ele>503.1</ele>
        <time>2017-02-12T10:49:27.000Z</time>
      </trkpt>
      <trkpt lat="47.43578" lon="6.72192">
        <ele>503.3</ele>
        <time>2017-02-12T10:49:28.000Z</time>
      </trkpt>
      <trkpt lat="47.43579" lon="6.72195">
        <ele>503.5</ele>
        <time>2017-02-12T10:49:29.000Z</time>
      </trkpt>
      <trkpt lat="47.43582" lon="6.722">
        <ele>503.8</ele>
        <time>2017-02-12T10:49:31.000Z</time>
      </trkpt>
      <trkpt lat="47.43583" lon="6.72203">
        <ele>503.9</ele>
        <time>2017-02-12T10:49:32.000Z</time>
      </trkpt>
      <trkpt lat="47.43585" lon="6.72206">
        <ele>504</ele>
        <time>2017-02-12T10:49:33.000Z</time>
      </trkpt>
      <trkpt lat="47.43587" lon="6.72209">
        <ele>504.2</ele>
        <time>2017-02-12T10:49:34.000Z</time>
      </trkpt>
      <trkpt lat="47.43588" lon="6.72212">
        <ele>504.3</ele>
        <time>2017-02-12T10:49:35.000Z</time>
      </trkpt>
      <trkpt lat="47.43589" lon="6.72214">
        <ele>504.4</ele>
        <time>2017-02-12T10:49:36.000Z</time>
      </trkpt>
      <trkpt lat="47.43591" lon="6.72217">
        <ele>504.6</ele>
        <time>2017-02-12T10:49:37.000Z</time>
      </trkpt>
      <trkpt lat="47.43592" lon="6.7222">
        <ele>504.7</ele>
        <time>2017-02-12T10:49:38.000Z</time>
      </trkpt>
      <trkpt lat="47.43594" lon="6.72223">
        <ele>504.9</ele>
        <time>2017-02-12T10:49:39.000Z</time>
      </trkpt>
      <trkpt lat="47.43595" lon="6.72225">
        <ele>505</ele>
        <time>2017-02-12T10:49:40.000Z</time>
      </trkpt>
      <trkpt lat="47.43596" lon="6.72228">
        <ele>505.2</ele>
        <time>2017-02-12T10:49:41.000Z</time>
      </trkpt>
      <trkpt lat="47.43597" lon="6.72231">
        <ele>505.3</ele>
        <time>2017-02-12T10:49:42.000Z</time>
      </trkpt>
      <trkpt lat="47.43599" lon="6.72233">
        <ele>505.5</ele>
        <time>2017-02-12T10:49:43.000Z</time>
      </trkpt>
      <trkpt lat="47.43601" lon="6.72236">
        <ele>505.6</ele>
        <time>2017-02-12T10:49:44.000Z</time>
      </trkpt>
      <trkpt lat="47.43602" lon="6.72239">
        <ele>505.8</ele>
        <time>2017-02-12T10:49:45.000Z</time>
      </trkpt>
      <trkpt lat="47.43604" lon="6.72241">
        <ele>506</ele>
        <time>2017-02-12T10:49:46.000Z</time>
      </trkpt>
      <trkpt lat="47.43607" lon="6.72246">
        <ele>506.4</ele>
        <time>2017-02-12T10:49:48.000Z</time>
      </trkpt>
      <trkpt lat="47.43608" lon="6.72248">
        <ele>506.6</ele>
        <time>2017-02-12T10:49:49.000Z</time>
      </trkpt>
      <trkpt lat="47.43611" lon="6.72252">
        <ele>507</ele>
        <time>2017-02-12T10:49:51.000Z</time>
      </trkpt>
      <trkpt lat="47.43612" lon="6.72255">
        <ele>507.1</ele>
        <time>2017-02-12T10:49:52.000Z</time>
      </trkpt>
      <trkpt lat="47.43614" lon="6.72258">
        <ele>507.2</ele>
        <time>2017-02-12T10:49:53.000Z</time>
      </trkpt>
      <trkpt lat="47.43615" lon="6.7226">
        <ele>507.4</ele>
        <time>2017-02-12T10:49:54.000Z</time>
      </trkpt>
      <trkpt lat="47.43616" lon="6.72264">
        <ele>507.5</ele>
        <time>2017-02-12T10:49:55.000Z</time>
      </trkpt>
      <trkpt lat="47.43618" lon="6.72267">
        <ele>507.6</ele>
        <time>2017-02-12T10:49:56.000Z</time>
      </trkpt>
      <trkpt lat="47.4362" lon="6.7227">
        <ele>507.8</ele>
        <time>2017-02-12T10:49:57.000Z</time>
      </trkpt>
      <trkpt lat="47.43621" lon="6.72272">
        <ele>507.9</ele>
        <time>2017-02-12T10:49:58.000Z</time>
      </trkpt>
      <trkpt lat="47.43623" lon="6.72275">
        <ele>508.1</ele>
        <time>2017-02-12T10:49:59.000Z</time>
      </trkpt>
      <trkpt lat="47.43625" lon="6.72278">
        <ele>508.2</ele>
        <time>2017-02-12T10:50:00.000Z</time>
      </trkpt>
      <trkpt lat="47.43627" lon="6.7228">
        <ele>508.3</ele>
        <time>2017-02-12T10:50:01.000Z</time>
      </trkpt>
      <trkpt lat="47.43629" lon="6.72283">
        <ele>508.3</ele>
        <time>2017-02-12T10:50:02.000Z</time>
      </trkpt>
      <trkpt lat="47.4363" lon="6.72286">
        <ele>508.3</ele>
        <time>2017-02-12T10:50:03.000Z</time>
      </trkpt>
      <trkpt lat="47.43632" lon="6.72289">
        <ele>508.4</ele>
        <time>2017-02-12T10:50:04.000Z</time>
      </trkpt>
      <trkpt lat="47.43633" lon="6.72291">
        <ele>508.4</ele>
        <time>2017-02-12T10:50:05.000Z</time>
      </trkpt>
      <trkpt lat="47.43635" lon="6.72294">
        <ele>508.4</ele>
        <time>2017-02-12T10:50:06.000Z</time>
      </trkpt>
      <trkpt lat="47.43636" lon="6.72296">
        <ele>508.5</ele>
        <time>2017-02-12T10:50:07.000Z</time>
      </trkpt>
      <trkpt lat="47.43638" lon="6.72299">
        <ele>508.6</ele>
        <time>2017-02-12T10:50:08.000Z</time>
      </trkpt>
      <trkpt lat="47.43639" lon="6.72302">
        <ele>508.6</ele>
        <time>2017-02-12T10:50:09.000Z</time>
      </trkpt>
      <trkpt lat="47.43641" lon="6.72306">
        <ele>508.7</ele>
        <time>2017-02-12T10:50:10.000Z</time>
      </trkpt>
      <trkpt lat="47.43643" lon="6.72309">
        <ele>508.7</ele>
        <time>2017-02-12T10:50:11.000Z</time>
      </trkpt>
      <trkpt lat="47.43645" lon="6.72313">
        <ele>508.8</ele>
        <time>2017-02-12T10:50:12.000Z</time>
      </trkpt>
      <trkpt lat="47.43647" lon="6.72317">
        <ele>509</ele>
        <time>2017-02-12T10:50:13.000Z</time>
      </trkpt>
      <trkpt lat="47.43648" lon="6.7232">
        <ele>509</ele>
        <time>2017-02-12T10:50:14.000Z</time>
      </trkpt>
      <trkpt lat="47.43649" lon="6.72322">
        <ele>509.1</ele>
        <time>2017-02-12T10:50:15.000Z</time>
      </trkpt>
      <trkpt lat="47.43651" lon="6.72325">
        <ele>509.1</ele>
        <time>2017-02-12T10:50:16.000Z</time>
      </trkpt>
      <trkpt lat="47.43653" lon="6.72329">
        <ele>509.2</ele>
        <time>2017-02-12T10:50:17.000Z</time>
      </trkpt>
      <trkpt lat="47.43655" lon="6.72332">
        <ele>509.2</ele>
        <time>2017-02-12T10:50:18.000Z</time>
      </trkpt>
      <trkpt lat="47.43657" lon="6.72336">
        <ele>509.3</ele>
        <time>2017-02-12T10:50:19.000Z</time>
      </trkpt>
      <trkpt lat="47.43658" lon="6.7234">
        <ele>509.4</ele>
        <time>2017-02-12T10:50:20.000Z</time>
      </trkpt>
      <trkpt lat="47.4366" lon="6.72343">
        <ele>509.4</ele>
        <time>2017-02-12T10:50:21.000Z</time>
      </trkpt>
      <trkpt lat="47.43662" lon="6.72345">
        <ele>509.5</ele>
        <time>2017-02-12T10:50:22.000Z</time>
      </trkpt>
      <trkpt lat="47.43664" lon="6.72347">
        <ele>509.6</ele>
        <time>2017-02-12T10:50:23.000Z</time>
      </trkpt>
      <trkpt lat="47.43666" lon="6.72348">
        <ele>509.6</ele>
        <time>2017-02-12T10:50:24.000Z</time>
      </trkpt>
      <trkpt lat="47.43669" lon="6.72348">
        <ele>509.7</ele>
        <time>2017-02-12T10:50:25.000Z</time>
      </trkpt>
      <trkpt lat="47.43671" lon="6.72348">
        <ele>509.8</ele>
        <time>2017-02-12T10:50:26.000Z</time>
      </trkpt>
      <trkpt lat="47.43674" lon="6.72347">
        <ele>509.9</ele>
        <time>2017-02-12T10:50:27.000Z</time>
      </trkpt>
      <trkpt lat="47.43677" lon="6.72346">
        <ele>510</ele>
        <time>2017-02-12T10:50:28.000Z</time>
      </trkpt>
      <trkpt lat="47.43679" lon="6.72344">
        <ele>510.1</ele>
        <time>2017-02-12T10:50:29.000Z</time>
      </trkpt>
      <trkpt lat="47.43682" lon="6.72343">
        <ele>510.2</ele>
        <time>2017-02-12T10:50:30.000Z</time>
      </trkpt>
      <trkpt lat="47.43685" lon="6.72341">
        <ele>510.3</ele>
        <time>2017-02-12T10:50:31.000Z</time>
      </trkpt>
      <trkpt lat="47.43687" lon="6.72339">
        <ele>510.4</ele>
        <time>2017-02-12T10:50:32.000Z</time>
      </trkpt>
      <trkpt lat="47.43689" lon="6.72337">
        <ele>510.5</ele>
        <time>2017-02-12T10:50:33.000Z</time>
      </trkpt>
      <trkpt lat="47.43691" lon="6.72335">
        <ele>510.6</ele>
        <time>2017-02-12T10:50:34.000Z</time>
      </trkpt>
      <trkpt lat="47.43693" lon="6.72334">
        <ele>510.7</ele>
        <time>2017-02-12T10:50:35.000Z</time>
      </trkpt>
      <trkpt lat="47.43696" lon="6.72331">
        <ele>510.8</ele>
        <time>2017-02-12T10:50:36.000Z</time>
      </trkpt>
      <trkpt lat="47.43698" lon="6.72329">
        <ele>511</ele>
        <time>2017-02-12T10:50:37.000Z</time>
      </trkpt>
      <trkpt lat="47.43701" lon="6.72327">
        <ele>511.2</ele>
        <time>2017-02-12T10:50:38.000Z</time>
      </trkpt>
      <trkpt lat="47.43703" lon="6.72325">
        <ele>511.4</ele>
        <time>2017-02-12T10:50:39.000Z</time>
      </trkpt>
      <trkpt lat="47.43705" lon="6.72323">
        <ele>511.5</ele>
        <time>2017-02-12T10:50:40.000Z</time>
      </trkpt>
      <trkpt lat="47.43709" lon="6.7232">
        <ele>512.3</ele>
        <time>2017-02-12T10:50:46.000Z</time>
      </trkpt>
      <trkpt lat="47.4371" lon="6.7232">
        <ele>512.4</ele>
        <time>2017-02-12T10:50:47.000Z</time>
      </trkpt>
      <trkpt lat="47.43713" lon="6.72315">
        <ele>513.8</ele>
        <time>2017-02-12T10:51:08.000Z</time>
      </trkpt>
      <trkpt lat="47.43714" lon="6.72315">
        <ele>514</ele>
        <time>2017-02-12T10:51:09.000Z</time>
      </trkpt>
      <trkpt lat="47.43718" lon="6.72313">
        <ele>514.1</ele>
        <time>2017-02-12T10:51:11.000Z</time>
      </trkpt>
      <trkpt lat="47.4372" lon="6.72311">
        <ele>514.3</ele>
        <time>2017-02-12T10:51:12.000Z</time>
      </trkpt>
      <trkpt lat="47.43723" lon="6.72308">
        <ele>514.5</ele>
        <time>2017-02-12T10:51:13.000Z</time>
      </trkpt>
      <trkpt lat="47.43727" lon="6.72306">
        <ele>514.7</ele>
        <time>2017-02-12T10:51:14.000Z</time>
      </trkpt>
      <trkpt lat="47.43731" lon="6.72304">
        <ele>514.8</ele>
        <time>2017-02-12T10:51:15.000Z</time>
      </trkpt>
      <trkpt lat="47.43734" lon="6.72303">
        <ele>515</ele>
        <time>2017-02-12T10:51:16.000Z</time>
      </trkpt>
      <trkpt lat="47.43738" lon="6.72303">
        <ele>515.1</ele>
        <time>2017-02-12T10:51:17.000Z</time>
      </trkpt>
      <trkpt lat="47.43742" lon="6.72305">
        <ele>515.2</ele>
        <time>2017-02-12T10:51:18.000Z</time>
      </trkpt>
      <trkpt lat="47.43746" lon="6.72308">
        <ele>515.3</ele>
        <time>2017-02-12T10:51:19.000Z</time>
      </trkpt>
      <trkpt lat="47.43749" lon="6.7231">
        <ele>515.3</ele>
        <time>2017-02-12T10:51:20.000Z</time>
      </trkpt>
      <trkpt lat="47.43751" lon="6.72313">
        <ele>515.2</ele>
        <time>2017-02-12T10:51:21.000Z</time>
      </trkpt>
      <trkpt lat="47.43753" lon="6.72316">
        <ele>515.1</ele>
        <time>2017-02-12T10:51:22.000Z</time>
      </trkpt>
      <trkpt lat="47.43756" lon="6.7232">
        <ele>514.9</ele>
        <time>2017-02-12T10:51:24.000Z</time>
      </trkpt>
      <trkpt lat="47.43758" lon="6.72323">
        <ele>514.8</ele>
        <time>2017-02-12T10:51:25.000Z</time>
      </trkpt>
      <trkpt lat="47.4376" lon="6.72325">
        <ele>514.8</ele>
        <time>2017-02-12T10:51:26.000Z</time>
      </trkpt>
      <trkpt lat="47.43762" lon="6.72328">
        <ele>514.7</ele>
        <time>2017-02-12T10:51:27.000Z</time>
      </trkpt>
      <trkpt lat="47.43764" lon="6.72332">
        <ele>514.7</ele>
        <time>2017-02-12T10:51:28.000Z</time>
      </trkpt>
      <trkpt lat="47.43767" lon="6.72336">
        <ele>514.7</ele>
        <time>2017-02-12T10:51:29.000Z</time>
      </trkpt>
      <trkpt lat="47.43769" lon="6.72339">
        <ele>514.6</ele>
        <time>2017-02-12T10:51:30.000Z</time>
      </trkpt>
      <trkpt lat="47.43772" lon="6.72343">
        <ele>514.5</ele>
        <time>2017-02-12T10:51:31.000Z</time>
      </trkpt>
      <trkpt lat="47.43774" lon="6.72346">
        <ele>514.4</ele>
        <time>2017-02-12T10:51:32.000Z</time>
      </trkpt>
      <trkpt lat="47.43776" lon="6.7235">
        <ele>514.3</ele>
        <time>2017-02-12T10:51:33.000Z</time>
      </trkpt>
      <trkpt lat="47.43779" lon="6.72353">
        <ele>514.3</ele>
        <time>2017-02-12T10:51:34.000Z</time>
      </trkpt>
      <trkpt lat="47.43781" lon="6.72356">
        <ele>514.3</ele>
        <time>2017-02-12T10:51:35.000Z</time>
      </trkpt>
      <trkpt lat="47.43783" lon="6.72359">
        <ele>514.4</ele>
        <time>2017-02-12T10:51:36.000Z</time>
      </trkpt>
      <trkpt lat="47.43785" lon="6.72362">
        <ele>514.4</ele>
        <time>2017-02-12T10:51:37.000Z</time>
      </trkpt>
      <trkpt lat="47.43788" lon="6.72365">
        <ele>514.4</ele>
        <time>2017-02-12T10:51:38.000Z</time>
      </trkpt>
      <trkpt lat="47.4379" lon="6.72368">
        <ele>514.4</ele>
        <time>2017-02-12T10:51:39.000Z</time>
      </trkpt>
      <trkpt lat="47.43792" lon="6.72371">
        <ele>514.4</ele>
        <time>2017-02-12T10:51:40.000Z</time>
      </trkpt>
      <trkpt lat="47.43794" lon="6.72374">
        <ele>514.4</ele>
        <time>2017-02-12T10:51:41.000Z</time>
      </trkpt>
      <trkpt lat="47.43797" lon="6.72378">
        <ele>514.4</ele>
        <time>2017-02-12T10:51:42.000Z</time>
      </trkpt>
      <trkpt lat="47.438" lon="6.72381">
        <ele>514.4</ele>
        <time>2017-02-12T10:51:43.000Z</time>
      </trkpt>
      <trkpt lat="47.43803" lon="6.72385">
        <ele>514.3</ele>
        <time>2017-02-12T10:51:44.000Z</time>
      </trkpt>
      <trkpt lat="47.43805" lon="6.72388">
        <ele>514.3</ele>
        <time>2017-02-12T10:51:45.000Z</time>
      </trkpt>
      <trkpt lat="47.43808" lon="6.72391">
        <ele>514.2</ele>
        <time>2017-02-12T10:51:46.000Z</time>
      </trkpt>
      <trkpt lat="47.43811" lon="6.72394">
        <ele>514.1</ele>
        <time>2017-02-12T10:51:47.000Z</time>
      </trkpt>
      <trkpt lat="47.43814" lon="6.72397">
        <ele>514.1</ele>
        <time>2017-02-12T10:51:48.000Z</time>
      </trkpt>
      <trkpt lat="47.43817" lon="6.724">
        <ele>514.1</ele>
        <time>2017-02-12T10:51:49.000Z</time>
      </trkpt>
      <trkpt lat="47.43819" lon="6.72403">
        <ele>514</ele>
        <time>2017-02-12T10:51:50.000Z</time>
      </trkpt>
      <trkpt lat="47.43821" lon="6.72406">
        <ele>514.1</ele>
        <time>2017-02-12T10:51:51.000Z</time>
      </trkpt>
      <trkpt lat="47.43824" lon="6.72408">
        <ele>514.1</ele>
        <time>2017-02-12T10:51:52.000Z</time>
      </trkpt>
      <trkpt lat="47.43827" lon="6.72411">
        <ele>514.1</ele>
        <time>2017-02-12T10:51:53.000Z</time>
      </trkpt>
      <trkpt lat="47.4383" lon="6.72414">
        <ele>514.1</ele>
        <time>2017-02-12T10:51:54.000Z</time>
      </trkpt>
      <trkpt lat="47.43833" lon="6.72418">
        <ele>514.5</ele>
        <time>2017-02-12T10:51:55.000Z</time>
      </trkpt>
      <trkpt lat="47.43836" lon="6.72422">
        <ele>514.7</ele>
        <time>2017-02-12T10:51:56.000Z</time>
      </trkpt>
      <trkpt lat="47.43839" lon="6.72425">
        <ele>515.1</ele>
        <time>2017-02-12T10:51:57.000Z</time>
      </trkpt>
      <trkpt lat="47.43842" lon="6.72429">
        <ele>515.3</ele>
        <time>2017-02-12T10:51:58.000Z</time>
      </trkpt>
      <trkpt lat="47.43845" lon="6.72432">
        <ele>515.3</ele>
        <time>2017-02-12T10:51:59.000Z</time>
      </trkpt>
      <trkpt lat="47.43848" lon="6.72436">
        <ele>515.2</ele>
        <time>2017-02-12T10:52:00.000Z</time>
      </trkpt>
      <trkpt lat="47.43852" lon="6.7244">
        <ele>515.3</ele>
        <time>2017-02-12T10:52:01.000Z</time>
      </trkpt>
      <trkpt lat="47.43855" lon="6.72444">
        <ele>515.3</ele>
        <time>2017-02-12T10:52:02.000Z</time>
      </trkpt>
      <trkpt lat="47.43859" lon="6.72448">
        <ele>515.5</ele>
        <time>2017-02-12T10:52:03.000Z</time>
      </trkpt>
      <trkpt lat="47.43863" lon="6.72452">
        <ele>515.6</ele>
        <time>2017-02-12T10:52:04.000Z</time>
      </trkpt>
      <trkpt lat="47.43866" lon="6.72455">
        <ele>515.6</ele>
        <time>2017-02-12T10:52:05.000Z</time>
      </trkpt>
      <trkpt lat="47.4387" lon="6.72459">
        <ele>515.7</ele>
        <time>2017-02-12T10:52:06.000Z</time>
      </trkpt>
      <trkpt lat="47.43873" lon="6.72462">
        <ele>515.6</ele>
        <time>2017-02-12T10:52:07.000Z</time>
      </trkpt>
      <trkpt lat="47.43877" lon="6.72465">
        <ele>515.7</ele>
        <time>2017-02-12T10:52:08.000Z</time>
      </trkpt>
      <trkpt lat="47.43881" lon="6.72468">
        <ele>516</ele>
        <time>2017-02-12T10:52:09.000Z</time>
      </trkpt>
      <trkpt lat="47.43884" lon="6.72471">
        <ele>516</ele>
        <time>2017-02-12T10:52:10.000Z</time>
      </trkpt>
      <trkpt lat="47.43887" lon="6.72474">
        <ele>516</ele>
        <time>2017-02-12T10:52:11.000Z</time>
      </trkpt>
      <trkpt lat="47.4389" lon="6.72477">
        <ele>516</ele>
        <time>2017-02-12T10:52:12.000Z</time>
      </trkpt>
      <trkpt lat="47.43894" lon="6.72479">
        <ele>515.9</ele>
        <time>2017-02-12T10:52:13.000Z</time>
      </trkpt>
      <trkpt lat="47.43897" lon="6.72482">
        <ele>515.8</ele>
        <time>2017-02-12T10:52:14.000Z</time>
      </trkpt>
      <trkpt lat="47.43901" lon="6.72485">
        <ele>515.7</ele>
        <time>2017-02-12T10:52:15.000Z</time>
      </trkpt>
      <trkpt lat="47.43904" lon="6.72487">
        <ele>515.6</ele>
        <time>2017-02-12T10:52:16.000Z</time>
      </trkpt>
      <trkpt lat="47.43907" lon="6.7249">
        <ele>515.6</ele>
        <time>2017-02-12T10:52:17.000Z</time>
      </trkpt>
      <trkpt lat="47.4391" lon="6.72492">
        <ele>515.5</ele>
        <time>2017-02-12T10:52:18.000Z</time>
      </trkpt>
      <trkpt lat="47.43913" lon="6.72495">
        <ele>515.3</ele>
        <time>2017-02-12T10:52:19.000Z</time>
      </trkpt>
      <trkpt lat="47.43916" lon="6.72497">
        <ele>515.1</ele>
        <time>2017-02-12T10:52:20.000Z</time>
      </trkpt>
      <trkpt lat="47.4392" lon="6.725">
        <ele>515</ele>
        <time>2017-02-12T10:52:21.000Z</time>
      </trkpt>
      <trkpt lat="47.43923" lon="6.72502">
        <ele>514.8</ele>
        <time>2017-02-12T10:52:22.000Z</time>
      </trkpt>
      <trkpt lat="47.43926" lon="6.72503">
        <ele>514.6</ele>
        <time>2017-02-12T10:52:23.000Z</time>
      </trkpt>
      <trkpt lat="47.43928" lon="6.72503">
        <ele>514.6</ele>
        <time>2017-02-12T10:52:24.000Z</time>
      </trkpt>
      <trkpt lat="47.43932" lon="6.72503">
        <ele>514.5</ele>
        <time>2017-02-12T10:52:25.000Z</time>
      </trkpt>
      <trkpt lat="47.43935" lon="6.72503">
        <ele>514.5</ele>
        <time>2017-02-12T10:52:26.000Z</time>
      </trkpt>
      <trkpt lat="47.43938" lon="6.72503">
        <ele>514.5</ele>
        <time>2017-02-12T10:52:27.000Z</time>
      </trkpt>
      <trkpt lat="47.43941" lon="6.72503">
        <ele>514.5</ele>
        <time>2017-02-12T10:52:28.000Z</time>
      </trkpt>
      <trkpt lat="47.43945" lon="6.72502">
        <ele>514.6</ele>
        <time>2017-02-12T10:52:29.000Z</time>
      </trkpt>
      <trkpt lat="47.43949" lon="6.72501">
        <ele>514.6</ele>
        <time>2017-02-12T10:52:30.000Z</time>
      </trkpt>
      <trkpt lat="47.43953" lon="6.725">
        <ele>514.5</ele>
        <time>2017-02-12T10:52:31.000Z</time>
      </trkpt>
      <trkpt lat="47.43957" lon="6.72498">
        <ele>514.5</ele>
        <time>2017-02-12T10:52:32.000Z</time>
      </trkpt>
      <trkpt lat="47.43961" lon="6.72497">
        <ele>514.5</ele>
        <time>2017-02-12T10:52:33.000Z</time>
      </trkpt>
      <trkpt lat="47.43964" lon="6.72495">
        <ele>514.4</ele>
        <time>2017-02-12T10:52:34.000Z</time>
      </trkpt>
      <trkpt lat="47.43968" lon="6.72493">
        <ele>514.4</ele>
        <time>2017-02-12T10:52:35.000Z</time>
      </trkpt>
      <trkpt lat="47.43972" lon="6.72491">
        <ele>514.3</ele>
        <time>2017-02-12T10:52:36.000Z</time>
      </trkpt>
      <trkpt lat="47.43977" lon="6.7249">
        <ele>513.9</ele>
        <time>2017-02-12T10:52:37.000Z</time>
      </trkpt>
      <trkpt lat="47.43981" lon="6.72488">
        <ele>513.8</ele>
        <time>2017-02-12T10:52:38.000Z</time>
      </trkpt>
      <trkpt lat="47.43985" lon="6.72486">
        <ele>513.7</ele>
        <time>2017-02-12T10:52:39.000Z</time>
      </trkpt>
      <trkpt lat="47.43989" lon="6.72484">
        <ele>513.6</ele>
        <time>2017-02-12T10:52:40.000Z</time>
      </trkpt>
      <trkpt lat="47.43993" lon="6.72482">
        <ele>513.7</ele>
        <time>2017-02-12T10:52:41.000Z</time>
      </trkpt>
      <trkpt lat="47.43997" lon="6.7248">
        <ele>514.3</ele>
        <time>2017-02-12T10:52:42.000Z</time>
      </trkpt>
      <trkpt lat="47.44001" lon="6.72479">
        <ele>514.6</ele>
        <time>2017-02-12T10:52:43.000Z</time>
      </trkpt>
      <trkpt lat="47.44006" lon="6.72477">
        <ele>514.9</ele>
        <time>2017-02-12T10:52:44.000Z</time>
      </trkpt>
      <trkpt lat="47.4401" lon="6.72475">
        <ele>515.2</ele>
        <time>2017-02-12T10:52:45.000Z</time>
      </trkpt>
      <trkpt lat="47.44014" lon="6.72474">
        <ele>515.2</ele>
        <time>2017-02-12T10:52:46.000Z</time>
      </trkpt>
      <trkpt lat="47.44018" lon="6.72472">
        <ele>515.4</ele>
        <time>2017-02-12T10:52:47.000Z</time>
      </trkpt>
      <trkpt lat="47.44022" lon="6.72471">
        <ele>516</ele>
        <time>2017-02-12T10:52:48.000Z</time>
      </trkpt>
      <trkpt lat="47.44026" lon="6.72469">
        <ele>516.4</ele>
        <time>2017-02-12T10:52:49.000Z</time>
      </trkpt>
      <trkpt lat="47.44029" lon="6.72468">
        <ele>517</ele>
        <time>2017-02-12T10:52:50.000Z</time>
      </trkpt>
      <trkpt lat="47.44033" lon="6.72466">
        <ele>517.4</ele>
        <time>2017-02-12T10:52:51.000Z</time>
      </trkpt>
      <trkpt lat="47.44037" lon="6.72464">
        <ele>518.1</ele>
        <time>2017-02-12T10:52:52.000Z</time>
      </trkpt>
      <trkpt lat="47.44041" lon="6.72462">
        <ele>518.5</ele>
        <time>2017-02-12T10:52:53.000Z</time>
      </trkpt>
      <trkpt lat="47.44045" lon="6.72461">
        <ele>518.9</ele>
        <time>2017-02-12T10:52:54.000Z</time>
      </trkpt>
      <trkpt lat="47.4405" lon="6.72459">
        <ele>519.2</ele>
        <time>2017-02-12T10:52:55.000Z</time>
      </trkpt>
      <trkpt lat="47.44054" lon="6.72458">
        <ele>519.3</ele>
        <time>2017-02-12T10:52:56.000Z</time>
      </trkpt>
      <trkpt lat="47.44058" lon="6.72457">
        <ele>519.3</ele>
        <time>2017-02-12T10:52:57.000Z</time>
      </trkpt>
      <trkpt lat="47.44062" lon="6.72456">
        <ele>519.2</ele>
        <time>2017-02-12T10:52:58.000Z</time>
      </trkpt>
      <trkpt lat="47.44066" lon="6.72454">
        <ele>519.8</ele>
        <time>2017-02-12T10:52:59.000Z</time>
      </trkpt>
      <trkpt lat="47.44069" lon="6.72453">
        <ele>519.8</ele>
        <time>2017-02-12T10:53:00.000Z</time>
      </trkpt>
      <trkpt lat="47.44072" lon="6.72453">
        <ele>519.9</ele>
        <time>2017-02-12T10:53:01.000Z</time>
      </trkpt>
      <trkpt lat="47.44075" lon="6.72452">
        <ele>519.9</ele>
        <time>2017-02-12T10:53:02.000Z</time>
      </trkpt>
      <trkpt lat="47.44078" lon="6.72452">
        <ele>520</ele>
        <time>2017-02-12T10:53:03.000Z</time>
      </trkpt>
      <trkpt lat="47.44082" lon="6.72452">
        <ele>519.9</ele>
        <time>2017-02-12T10:53:04.000Z</time>
      </trkpt>
      <trkpt lat="47.44084" lon="6.7245">
        <ele>519.9</ele>
        <time>2017-02-12T10:53:05.000Z</time>
      </trkpt>
      <trkpt lat="47.44087" lon="6.72449">
        <ele>520</ele>
        <time>2017-02-12T10:53:06.000Z</time>
      </trkpt>
      <trkpt lat="47.4409" lon="6.72449">
        <ele>520.1</ele>
        <time>2017-02-12T10:53:07.000Z</time>
      </trkpt>
      <trkpt lat="47.44092" lon="6.72448">
        <ele>520.1</ele>
        <time>2017-02-12T10:53:08.000Z</time>
      </trkpt>
      <trkpt lat="47.44094" lon="6.72448">
        <ele>520.2</ele>
        <time>2017-02-12T10:53:09.000Z</time>
      </trkpt>
      <trkpt lat="47.44098" lon="6.72448">
        <ele>520.2</ele>
        <time>2017-02-12T10:53:11.000Z</time>
      </trkpt>
      <trkpt lat="47.44101" lon="6.72449">
        <ele>520.3</ele>
        <time>2017-02-12T10:53:12.000Z</time>
      </trkpt>
      <trkpt lat="47.44104" lon="6.72449">
        <ele>520.3</ele>
        <time>2017-02-12T10:53:13.000Z</time>
      </trkpt>
      <trkpt lat="47.44106" lon="6.72449">
        <ele>520.4</ele>
        <time>2017-02-12T10:53:14.000Z</time>
      </trkpt>
      <trkpt lat="47.44109" lon="6.72448">
        <ele>520.5</ele>
        <time>2017-02-12T10:53:15.000Z</time>
      </trkpt>
      <trkpt lat="47.44112" lon="6.72448">
        <ele>520.5</ele>
        <time>2017-02-12T10:53:16.000Z</time>
      </trkpt>
      <trkpt lat="47.44114" lon="6.72447">
        <ele>520.5</ele>
        <time>2017-02-12T10:53:17.000Z</time>
      </trkpt>
      <trkpt lat="47.44116" lon="6.72447">
        <ele>520.6</ele>
        <time>2017-02-12T10:53:18.000Z</time>
      </trkpt>
      <trkpt lat="47.44119" lon="6.72447">
        <ele>520.7</ele>
        <time>2017-02-12T10:53:19.000Z</time>
      </trkpt>
      <trkpt lat="47.44122" lon="6.72446">
        <ele>520.8</ele>
        <time>2017-02-12T10:53:20.000Z</time>
      </trkpt>
      <trkpt lat="47.44125" lon="6.72445">
        <ele>520.9</ele>
        <time>2017-02-12T10:53:21.000Z</time>
      </trkpt>
      <trkpt lat="47.44129" lon="6.72444">
        <ele>521.1</ele>
        <time>2017-02-12T10:53:22.000Z</time>
      </trkpt>
      <trkpt lat="47.44132" lon="6.72444">
        <ele>521.3</ele>
        <time>2017-02-12T10:53:23.000Z</time>
      </trkpt>
      <trkpt lat="47.44137" lon="6.72443">
        <ele>521.5</ele>
        <time>2017-02-12T10:53:24.000Z</time>
      </trkpt>
      <trkpt lat="47.4414" lon="6.72442">
        <ele>521.7</ele>
        <time>2017-02-12T10:53:25.000Z</time>
      </trkpt>
      <trkpt lat="47.44144" lon="6.72441">
        <ele>522</ele>
        <time>2017-02-12T10:53:26.000Z</time>
      </trkpt>
      <trkpt lat="47.44149" lon="6.7244">
        <ele>524.6</ele>
        <time>2017-02-12T10:53:27.000Z</time>
      </trkpt>
      <trkpt lat="47.44153" lon="6.7244">
        <ele>524.8</ele>
        <time>2017-02-12T10:53:28.000Z</time>
      </trkpt>
      <trkpt lat="47.44156" lon="6.7244">
        <ele>524.9</ele>
        <time>2017-02-12T10:53:29.000Z</time>
      </trkpt>
      <trkpt lat="47.44158" lon="6.7244">
        <ele>525.1</ele>
        <time>2017-02-12T10:53:29.999Z</time>
      </trkpt>
      <trkpt lat="47.44161" lon="6.72439">
        <ele>525.3</ele>
        <time>2017-02-12T10:53:30.999Z</time>
      </trkpt>
      <trkpt lat="47.44165" lon="6.72439">
        <ele>525.4</ele>
        <time>2017-02-12T10:53:31.999Z</time>
      </trkpt>
      <trkpt lat="47.44168" lon="6.72438">
        <ele>525.5</ele>
        <time>2017-02-12T10:53:32.999Z</time>
      </trkpt>
      <trkpt lat="47.44172" lon="6.72438">
        <ele>525.6</ele>
        <time>2017-02-12T10:53:33.999Z</time>
      </trkpt>
      <trkpt lat="47.44176" lon="6.72437">
        <ele>525.7</ele>
        <time>2017-02-12T10:53:34.999Z</time>
      </trkpt>
      <trkpt lat="47.44179" lon="6.72437">
        <ele>525.8</ele>
        <time>2017-02-12T10:53:35.999Z</time>
      </trkpt>
      <trkpt lat="47.44182" lon="6.72437">
        <ele>526</ele>
        <time>2017-02-12T10:53:36.999Z</time>
      </trkpt>
      <trkpt lat="47.44184" lon="6.72436">
        <ele>526.2</ele>
        <time>2017-02-12T10:53:37.999Z</time>
      </trkpt>
      <trkpt lat="47.44188" lon="6.72435">
        <ele>526.3</ele>
        <time>2017-02-12T10:53:38.999Z</time>
      </trkpt>
      <trkpt lat="47.44191" lon="6.72435">
        <ele>526.4</ele>
        <time>2017-02-12T10:53:39.999Z</time>
      </trkpt>
      <trkpt lat="47.44194" lon="6.72434">
        <ele>526.5</ele>
        <time>2017-02-12T10:53:40.999Z</time>
      </trkpt>
      <trkpt lat="47.44197" lon="6.72433">
        <ele>526.7</ele>
        <time>2017-02-12T10:53:41.999Z</time>
      </trkpt>
      <trkpt lat="47.44201" lon="6.72432">
        <ele>526.9</ele>
        <time>2017-02-12T10:53:42.999Z</time>
      </trkpt>
      <trkpt lat="47.44204" lon="6.72431">
        <ele>527.2</ele>
        <time>2017-02-12T10:53:43.999Z</time>
      </trkpt>
      <trkpt lat="47.44209" lon="6.72431">
        <ele>527.4</ele>
        <time>2017-02-12T10:53:44.999Z</time>
      </trkpt>
      <trkpt lat="47.44213" lon="6.7243">
        <ele>527.6</ele>
        <time>2017-02-12T10:53:45.999Z</time>
      </trkpt>
      <trkpt lat="47.44217" lon="6.7243">
        <ele>527.8</ele>
        <time>2017-02-12T10:53:46.999Z</time>
      </trkpt>
      <trkpt lat="47.44221" lon="6.7243">
        <ele>530</ele>
        <time>2017-02-12T10:53:47.999Z</time>
      </trkpt>
      <trkpt lat="47.44225" lon="6.72429">
        <ele>531.4</ele>
        <time>2017-02-12T10:53:48.999Z</time>
      </trkpt>
      <trkpt lat="47.4423" lon="6.72428">
        <ele>532.6</ele>
        <time>2017-02-12T10:53:49.999Z</time>
      </trkpt>
      <trkpt lat="47.44235" lon="6.72428">
        <ele>534</ele>
        <time>2017-02-12T10:53:50.999Z</time>
      </trkpt>
      <trkpt lat="47.4424" lon="6.72428">
        <ele>534.9</ele>
        <time>2017-02-12T10:53:51.999Z</time>
      </trkpt>
      <trkpt lat="47.44247" lon="6.72425">
        <ele>536.6</ele>
        <time>2017-02-12T10:53:52.999Z</time>
      </trkpt>
      <trkpt lat="47.44252" lon="6.72424">
        <ele>537.5</ele>
        <time>2017-02-12T10:53:53.999Z</time>
      </trkpt>
      <trkpt lat="47.44258" lon="6.72422">
        <ele>537.8</ele>
        <time>2017-02-12T10:53:54.999Z</time>
      </trkpt>
      <trkpt lat="47.44263" lon="6.7242">
        <ele>537.7</ele>
        <time>2017-02-12T10:53:55.999Z</time>
      </trkpt>
      <trkpt lat="47.44268" lon="6.72419">
        <ele>537.9</ele>
        <time>2017-02-12T10:53:56.999Z</time>
      </trkpt>
      <trkpt lat="47.44273" lon="6.72419">
        <ele>538.2</ele>
        <time>2017-02-12T10:53:57.999Z</time>
      </trkpt>
      <trkpt lat="47.44278" lon="6.72418">
        <ele>539.4</ele>
        <time>2017-02-12T10:53:58.999Z</time>
      </trkpt>
      <trkpt lat="47.44284" lon="6.72416">
        <ele>540.4</ele>
        <time>2017-02-12T10:53:59.999Z</time>
      </trkpt>
      <trkpt lat="47.44289" lon="6.72415">
        <ele>541.5</ele>
        <time>2017-02-12T10:54:00.999Z</time>
      </trkpt>
      <trkpt lat="47.44295" lon="6.72413">
        <ele>541.5</ele>
        <time>2017-02-12T10:54:01.999Z</time>
      </trkpt>
      <trkpt lat="47.443" lon="6.72411">
        <ele>541.7</ele>
        <time>2017-02-12T10:54:02.999Z</time>
      </trkpt>
      <trkpt lat="47.44306" lon="6.7241">
        <ele>541.8</ele>
        <time>2017-02-12T10:54:03.999Z</time>
      </trkpt>
      <trkpt lat="47.44312" lon="6.72409">
        <ele>542</ele>
        <time>2017-02-12T10:54:04.999Z</time>
      </trkpt>
      <trkpt lat="47.44318" lon="6.72407">
        <ele>542.5</ele>
        <time>2017-02-12T10:54:05.999Z</time>
      </trkpt>
      <trkpt lat="47.44323" lon="6.72404">
        <ele>541.9</ele>
        <time>2017-02-12T10:54:06.999Z</time>
      </trkpt>
      <trkpt lat="47.44329" lon="6.72402">
        <ele>541.2</ele>
        <time>2017-02-12T10:54:07.999Z</time>
      </trkpt>
      <trkpt lat="47.44335" lon="6.72398">
        <ele>540.1</ele>
        <time>2017-02-12T10:54:08.999Z</time>
      </trkpt>
      <trkpt lat="47.44342" lon="6.72394">
        <ele>538.9</ele>
        <time>2017-02-12T10:54:09.999Z</time>
      </trkpt>
      <trkpt lat="47.44348" lon="6.72391">
        <ele>537.7</ele>
        <time>2017-02-12T10:54:10.999Z</time>
      </trkpt>
      <trkpt lat="47.44353" lon="6.72388">
        <ele>536.4</ele>
        <time>2017-02-12T10:54:11.999Z</time>
      </trkpt>
      <trkpt lat="47.44359" lon="6.72384">
        <ele>535.5</ele>
        <time>2017-02-12T10:54:12.999Z</time>
      </trkpt>
      <trkpt lat="47.44365" lon="6.72382">
        <ele>534.5</ele>
        <time>2017-02-12T10:54:13.999Z</time>
      </trkpt>
      <trkpt lat="47.4437" lon="6.72379">
        <ele>533.8</ele>
        <time>2017-02-12T10:54:14.999Z</time>
      </trkpt>
      <trkpt lat="47.44377" lon="6.72376">
        <ele>533.3</ele>
        <time>2017-02-12T10:54:15.999Z</time>
      </trkpt>
      <trkpt lat="47.44383" lon="6.72374">
        <ele>532.6</ele>
        <time>2017-02-12T10:54:16.999Z</time>
      </trkpt>
      <trkpt lat="47.4439" lon="6.72371">
        <ele>532.1</ele>
        <time>2017-02-12T10:54:17.999Z</time>
      </trkpt>
      <trkpt lat="47.44397" lon="6.72369">
        <ele>532</ele>
        <time>2017-02-12T10:54:18.999Z</time>
      </trkpt>
      <trkpt lat="47.44404" lon="6.72367">
        <ele>532</ele>
        <time>2017-02-12T10:54:19.999Z</time>
      </trkpt>
      <trkpt lat="47.4441" lon="6.72365">
        <ele>531.5</ele>
        <time>2017-02-12T10:54:20.999Z</time>
      </trkpt>
      <trkpt lat="47.44416" lon="6.72363">
        <ele>531.3</ele>
        <time>2017-02-12T10:54:21.999Z</time>
      </trkpt>
      <trkpt lat="47.44422" lon="6.7236">
        <ele>531.2</ele>
        <time>2017-02-12T10:54:22.999Z</time>
      </trkpt>
      <trkpt lat="47.44428" lon="6.72359">
        <ele>531.6</ele>
        <time>2017-02-12T10:54:23.999Z</time>
      </trkpt>
      <trkpt lat="47.44434" lon="6.72357">
        <ele>532</ele>
        <time>2017-02-12T10:54:24.999Z</time>
      </trkpt>
      <trkpt lat="47.44439" lon="6.72356">
        <ele>532.3</ele>
        <time>2017-02-12T10:54:25.999Z</time>
      </trkpt>
      <trkpt lat="47.44445" lon="6.72355">
        <ele>532.6</ele>
        <time>2017-02-12T10:54:26.999Z</time>
      </trkpt>
      <trkpt lat="47.4445" lon="6.72355">
        <ele>532.5</ele>
        <time>2017-02-12T10:54:27.999Z</time>
      </trkpt>
      <trkpt lat="47.44455" lon="6.72354">
        <ele>532.4</ele>
        <time>2017-02-12T10:54:28.999Z</time>
      </trkpt>
      <trkpt lat="47.44459" lon="6.72353">
        <ele>532.3</ele>
        <time>2017-02-12T10:54:29.999Z</time>
      </trkpt>
      <trkpt lat="47.44463" lon="6.72353">
        <ele>532.3</ele>
        <time>2017-02-12T10:54:30.999Z</time>
      </trkpt>
      <trkpt lat="47.44467" lon="6.72352">
        <ele>532.3</ele>
        <time>2017-02-12T10:54:31.999Z</time>
      </trkpt>
      <trkpt lat="47.44471" lon="6.72351">
        <ele>532</ele>
        <time>2017-02-12T10:54:32.999Z</time>
      </trkpt>
      <trkpt lat="47.44475" lon="6.72351">
        <ele>532.1</ele>
        <time>2017-02-12T10:54:33.999Z</time>
      </trkpt>
      <trkpt lat="47.44479" lon="6.72351">
        <ele>532.1</ele>
        <time>2017-02-12T10:54:34.999Z</time>
      </trkpt>
      <trkpt lat="47.44484" lon="6.7235">
        <ele>531.7</ele>
        <time>2017-02-12T10:54:35.999Z</time>
      </trkpt>
      <trkpt lat="47.44489" lon="6.7235">
        <ele>530.8</ele>
        <time>2017-02-12T10:54:36.999Z</time>
      </trkpt>
      <trkpt lat="47.44495" lon="6.72349">
        <ele>530.3</ele>
        <time>2017-02-12T10:54:37.999Z</time>
      </trkpt>
      <trkpt lat="47.44501" lon="6.72348">
        <ele>529.8</ele>
        <time>2017-02-12T10:54:38.999Z</time>
      </trkpt>
      <trkpt lat="47.44507" lon="6.72347">
        <ele>529.9</ele>
        <time>2017-02-12T10:54:39.999Z</time>
      </trkpt>
      <trkpt lat="47.44513" lon="6.72346">
        <ele>530.7</ele>
        <time>2017-02-12T10:54:40.999Z</time>
      </trkpt>
      <trkpt lat="47.44519" lon="6.72344">
        <ele>531</ele>
        <time>2017-02-12T10:54:41.999Z</time>
      </trkpt>
      <trkpt lat="47.44526" lon="6.72343">
        <ele>531.1</ele>
        <time>2017-02-12T10:54:42.999Z</time>
      </trkpt>
      <trkpt lat="47.44532" lon="6.72341">
        <ele>531.5</ele>
        <time>2017-02-12T10:54:43.999Z</time>
      </trkpt>
      <trkpt lat="47.44537" lon="6.72339">
        <ele>531.4</ele>
        <time>2017-02-12T10:54:44.999Z</time>
      </trkpt>
      <trkpt lat="47.44542" lon="6.72338">
        <ele>531.9</ele>
        <time>2017-02-12T10:54:45.999Z</time>
      </trkpt>
      <trkpt lat="47.44548" lon="6.72337">
        <ele>532.7</ele>
        <time>2017-02-12T10:54:46.999Z</time>
      </trkpt>
      <trkpt lat="47.44553" lon="6.72335">
        <ele>533.2</ele>
        <time>2017-02-12T10:54:47.999Z</time>
      </trkpt>
      <trkpt lat="47.44559" lon="6.72333">
        <ele>533.5</ele>
        <time>2017-02-12T10:54:48.999Z</time>
      </trkpt>
      <trkpt lat="47.44566" lon="6.72332">
        <ele>534.4</ele>
        <time>2017-02-12T10:54:49.999Z</time>
      </trkpt>
      <trkpt lat="47.44572" lon="6.72332">
        <ele>535.3</ele>
        <time>2017-02-12T10:54:50.999Z</time>
      </trkpt>
      <trkpt lat="47.44578" lon="6.72331">
        <ele>535.3</ele>
        <time>2017-02-12T10:54:51.999Z</time>
      </trkpt>
      <trkpt lat="47.44583" lon="6.72331">
        <ele>534.8</ele>
        <time>2017-02-12T10:54:52.999Z</time>
      </trkpt>
      <trkpt lat="47.44588" lon="6.72329">
        <ele>534.2</ele>
        <time>2017-02-12T10:54:53.999Z</time>
      </trkpt>
      <trkpt lat="47.44594" lon="6.72328">
        <ele>533.6</ele>
        <time>2017-02-12T10:54:54.999Z</time>
      </trkpt>
      <trkpt lat="47.44599" lon="6.72328">
        <ele>532.7</ele>
        <time>2017-02-12T10:54:55.999Z</time>
      </trkpt>
      <trkpt lat="47.44604" lon="6.72327">
        <ele>531.8</ele>
        <time>2017-02-12T10:54:56.999Z</time>
      </trkpt>
      <trkpt lat="47.44608" lon="6.72326">
        <ele>530.7</ele>
        <time>2017-02-12T10:54:57.999Z</time>
      </trkpt>
      <trkpt lat="47.44612" lon="6.72326">
        <ele>529.8</ele>
        <time>2017-02-12T10:54:58.999Z</time>
      </trkpt>
      <trkpt lat="47.44618" lon="6.72326">
        <ele>529.5</ele>
        <time>2017-02-12T10:54:59.999Z</time>
      </trkpt>
      <trkpt lat="47.44622" lon="6.72325">
        <ele>529.6</ele>
        <time>2017-02-12T10:55:00.999Z</time>
      </trkpt>
      <trkpt lat="47.44628" lon="6.72324">
        <ele>529.4</ele>
        <time>2017-02-12T10:55:01.999Z</time>
      </trkpt>
      <trkpt lat="47.44633" lon="6.72324">
        <ele>529.3</ele>
        <time>2017-02-12T10:55:02.999Z</time>
      </trkpt>
      <trkpt lat="47.44638" lon="6.72323">
        <ele>529.6</ele>
        <time>2017-02-12T10:55:03.999Z</time>
      </trkpt>
      <trkpt lat="47.44642" lon="6.72323">
        <ele>529.9</ele>
        <time>2017-02-12T10:55:04.999Z</time>
      </trkpt>
      <trkpt lat="47.44646" lon="6.72322">
        <ele>529.9</ele>
        <time>2017-02-12T10:55:05.999Z</time>
      </trkpt>
      <trkpt lat="47.4465" lon="6.72322">
        <ele>529.9</ele>
        <time>2017-02-12T10:55:06.999Z</time>
      </trkpt>
      <trkpt lat="47.44655" lon="6.72321">
        <ele>529.1</ele>
        <time>2017-02-12T10:55:07.999Z</time>
      </trkpt>
      <trkpt lat="47.44659" lon="6.72321">
        <ele>528.5</ele>
        <time>2017-02-12T10:55:08.999Z</time>
      </trkpt>
      <trkpt lat="47.44663" lon="6.7232">
        <ele>528.4</ele>
        <time>2017-02-12T10:55:09.999Z</time>
      </trkpt>
      <trkpt lat="47.44667" lon="6.72319">
        <ele>527.8</ele>
        <time>2017-02-12T10:55:10.999Z</time>
      </trkpt>
      <trkpt lat="47.44671" lon="6.72318">
        <ele>527</ele>
        <time>2017-02-12T10:55:11.999Z</time>
      </trkpt>
      <trkpt lat="47.44675" lon="6.72317">
        <ele>526.9</ele>
        <time>2017-02-12T10:55:12.999Z</time>
      </trkpt>
      <trkpt lat="47.44679" lon="6.72316">
        <ele>525.3</ele>
        <time>2017-02-12T10:55:13.999Z</time>
      </trkpt>
      <trkpt lat="47.44683" lon="6.72315">
        <ele>524.4</ele>
        <time>2017-02-12T10:55:14.999Z</time>
      </trkpt>
      <trkpt lat="47.44688" lon="6.72314">
        <ele>524.2</ele>
        <time>2017-02-12T10:55:15.999Z</time>
      </trkpt>
      <trkpt lat="47.44692" lon="6.72313">
        <ele>524.8</ele>
        <time>2017-02-12T10:55:16.999Z</time>
      </trkpt>
      <trkpt lat="47.44696" lon="6.72311">
        <ele>525.3</ele>
        <time>2017-02-12T10:55:17.999Z</time>
      </trkpt>
      <trkpt lat="47.44701" lon="6.72309">
        <ele>525.3</ele>
        <time>2017-02-12T10:55:18.999Z</time>
      </trkpt>
      <trkpt lat="47.44705" lon="6.72307">
        <ele>525.3</ele>
        <time>2017-02-12T10:55:19.999Z</time>
      </trkpt>
      <trkpt lat="47.44709" lon="6.72305">
        <ele>525.3</ele>
        <time>2017-02-12T10:55:20.999Z</time>
      </trkpt>
      <trkpt lat="47.44712" lon="6.72304">
        <ele>524.9</ele>
        <time>2017-02-12T10:55:21.999Z</time>
      </trkpt>
      <trkpt lat="47.44717" lon="6.72301">
        <ele>524.6</ele>
        <time>2017-02-12T10:55:22.999Z</time>
      </trkpt>
      <trkpt lat="47.44722" lon="6.72298">
        <ele>524.3</ele>
        <time>2017-02-12T10:55:23.999Z</time>
      </trkpt>
      <trkpt lat="47.44728" lon="6.72295">
        <ele>524.3</ele>
        <time>2017-02-12T10:55:24.999Z</time>
      </trkpt>
      <trkpt lat="47.44734" lon="6.72293">
        <ele>524.2</ele>
        <time>2017-02-12T10:55:25.999Z</time>
      </trkpt>
      <trkpt lat="47.4474" lon="6.7229">
        <ele>524.4</ele>
        <time>2017-02-12T10:55:26.999Z</time>
      </trkpt>
      <trkpt lat="47.44747" lon="6.72288">
        <ele>524.6</ele>
        <time>2017-02-12T10:55:27.999Z</time>
      </trkpt>
      <trkpt lat="47.44754" lon="6.72285">
        <ele>524.7</ele>
        <time>2017-02-12T10:55:28.999Z</time>
      </trkpt>
      <trkpt lat="47.44761" lon="6.72283">
        <ele>524.6</ele>
        <time>2017-02-12T10:55:29.999Z</time>
      </trkpt>
      <trkpt lat="47.4477" lon="6.72281">
        <ele>524.7</ele>
        <time>2017-02-12T10:55:30.999Z</time>
      </trkpt>
      <trkpt lat="47.44779" lon="6.72278">
        <ele>525.1</ele>
        <time>2017-02-12T10:55:31.999Z</time>
      </trkpt>
      <trkpt lat="47.44787" lon="6.72274">
        <ele>525.6</ele>
        <time>2017-02-12T10:55:32.999Z</time>
      </trkpt>
      <trkpt lat="47.44796" lon="6.72271">
        <ele>525.7</ele>
        <time>2017-02-12T10:55:33.999Z</time>
      </trkpt>
      <trkpt lat="47.44804" lon="6.72268">
        <ele>525.9</ele>
        <time>2017-02-12T10:55:34.999Z</time>
      </trkpt>
      <trkpt lat="47.44813" lon="6.72265">
        <ele>526</ele>
        <time>2017-02-12T10:55:35.999Z</time>
      </trkpt>
      <trkpt lat="47.44822" lon="6.72264">
        <ele>526.2</ele>
        <time>2017-02-12T10:55:36.999Z</time>
      </trkpt>
      <trkpt lat="47.44832" lon="6.72267">
        <ele>526.2</ele>
        <time>2017-02-12T10:55:37.999Z</time>
      </trkpt>
      <trkpt lat="47.44842" lon="6.72272">
        <ele>525.4</ele>
        <time>2017-02-12T10:55:38.999Z</time>
      </trkpt>
      <trkpt lat="47.44851" lon="6.72276">
        <ele>524.5</ele>
        <time>2017-02-12T10:55:39.999Z</time>
      </trkpt>
      <trkpt lat="47.4486" lon="6.7228">
        <ele>523.2</ele>
        <time>2017-02-12T10:55:40.999Z</time>
      </trkpt>
      <trkpt lat="47.44869" lon="6.72285">
        <ele>522.2</ele>
        <time>2017-02-12T10:55:41.999Z</time>
      </trkpt>
      <trkpt lat="47.44877" lon="6.72291">
        <ele>521.6</ele>
        <time>2017-02-12T10:55:42.999Z</time>
      </trkpt>
      <trkpt lat="47.44887" lon="6.72297">
        <ele>521</ele>
        <time>2017-02-12T10:55:43.999Z</time>
      </trkpt>
      <trkpt lat="47.44895" lon="6.72304">
        <ele>520.2</ele>
        <time>2017-02-12T10:55:44.999Z</time>
      </trkpt>
      <trkpt lat="47.44904" lon="6.7231">
        <ele>518.8</ele>
        <time>2017-02-12T10:55:45.999Z</time>
      </trkpt>
      <trkpt lat="47.44914" lon="6.72318">
        <ele>517.7</ele>
        <time>2017-02-12T10:55:46.999Z</time>
      </trkpt>
      <trkpt lat="47.44923" lon="6.72325">
        <ele>516.4</ele>
        <time>2017-02-12T10:55:47.999Z</time>
      </trkpt>
      <trkpt lat="47.44931" lon="6.72332">
        <ele>514.9</ele>
        <time>2017-02-12T10:55:48.999Z</time>
      </trkpt>
      <trkpt lat="47.44939" lon="6.72338">
        <ele>513.9</ele>
        <time>2017-02-12T10:55:49.999Z</time>
      </trkpt>
      <trkpt lat="47.44947" lon="6.72344">
        <ele>513.5</ele>
        <time>2017-02-12T10:55:50.999Z</time>
      </trkpt>
      <trkpt lat="47.44955" lon="6.72351">
        <ele>513.4</ele>
        <time>2017-02-12T10:55:51.999Z</time>
      </trkpt>
      <trkpt lat="47.44963" lon="6.72359">
        <ele>513.1</ele>
        <time>2017-02-12T10:55:52.999Z</time>
      </trkpt>
      <trkpt lat="47.4497" lon="6.72366">
        <ele>512.6</ele>
        <time>2017-02-12T10:55:53.999Z</time>
      </trkpt>
      <trkpt lat="47.44977" lon="6.72372">
        <ele>512.1</ele>
        <time>2017-02-12T10:55:54.999Z</time>
      </trkpt>
      <trkpt lat="47.44985" lon="6.72379">
        <ele>511.1</ele>
        <time>2017-02-12T10:55:55.999Z</time>
      </trkpt>
      <trkpt lat="47.44993" lon="6.72386">
        <ele>509.6</ele>
        <time>2017-02-12T10:55:56.999Z</time>
      </trkpt>
      <trkpt lat="47.45" lon="6.72393">
        <ele>508.4</ele>
        <time>2017-02-12T10:55:57.999Z</time>
      </trkpt>
      <trkpt lat="47.45006" lon="6.72398">
        <ele>507.5</ele>
        <time>2017-02-12T10:55:58.999Z</time>
      </trkpt>
      <trkpt lat="47.45013" lon="6.72404">
        <ele>506.6</ele>
        <time>2017-02-12T10:55:59.999Z</time>
      </trkpt>
      <trkpt lat="47.45019" lon="6.72409">
        <ele>505.7</ele>
        <time>2017-02-12T10:56:00.999Z</time>
      </trkpt>
      <trkpt lat="47.45026" lon="6.72415">
        <ele>505</ele>
        <time>2017-02-12T10:56:01.999Z</time>
      </trkpt>
      <trkpt lat="47.45032" lon="6.72421">
        <ele>504.5</ele>
        <time>2017-02-12T10:56:02.999Z</time>
      </trkpt>
      <trkpt lat="47.45038" lon="6.72425">
        <ele>504.5</ele>
        <time>2017-02-12T10:56:03.999Z</time>
      </trkpt>
      <trkpt lat="47.45044" lon="6.72429">
        <ele>504.8</ele>
        <time>2017-02-12T10:56:04.999Z</time>
      </trkpt>
      <trkpt lat="47.45049" lon="6.72434">
        <ele>504.9</ele>
        <time>2017-02-12T10:56:05.999Z</time>
      </trkpt>
      <trkpt lat="47.45055" lon="6.72438">
        <ele>504.7</ele>
        <time>2017-02-12T10:56:06.999Z</time>
      </trkpt>
      <trkpt lat="47.45062" lon="6.72442">
        <ele>504.9</ele>
        <time>2017-02-12T10:56:07.999Z</time>
      </trkpt>
      <trkpt lat="47.45068" lon="6.72446">
        <ele>505.1</ele>
        <time>2017-02-12T10:56:08.999Z</time>
      </trkpt>
      <trkpt lat="47.45074" lon="6.7245">
        <ele>505.3</ele>
        <time>2017-02-12T10:56:09.999Z</time>
      </trkpt>
      <trkpt lat="47.4508" lon="6.72453">
        <ele>505.4</ele>
        <time>2017-02-12T10:56:10.999Z</time>
      </trkpt>
      <trkpt lat="47.45086" lon="6.72457">
        <ele>505.4</ele>
        <time>2017-02-12T10:56:11.999Z</time>
      </trkpt>
      <trkpt lat="47.45092" lon="6.72461">
        <ele>505.2</ele>
        <time>2017-02-12T10:56:12.999Z</time>
      </trkpt>
      <trkpt lat="47.45098" lon="6.72465">
        <ele>505</ele>
        <time>2017-02-12T10:56:13.999Z</time>
      </trkpt>
      <trkpt lat="47.45103" lon="6.72469">
        <ele>504.8</ele>
        <time>2017-02-12T10:56:14.999Z</time>
      </trkpt>
      <trkpt lat="47.45109" lon="6.72473">
        <ele>504.6</ele>
        <time>2017-02-12T10:56:15.999Z</time>
      </trkpt>
      <trkpt lat="47.45114" lon="6.72476">
        <ele>504.2</ele>
        <time>2017-02-12T10:56:16.999Z</time>
      </trkpt>
      <trkpt lat="47.45119" lon="6.7248">
        <ele>503.3</ele>
        <time>2017-02-12T10:56:17.999Z</time>
      </trkpt>
      <trkpt lat="47.45125" lon="6.72483">
        <ele>502.3</ele>
        <time>2017-02-12T10:56:18.999Z</time>
      </trkpt>
      <trkpt lat="47.4513" lon="6.72487">
        <ele>501.5</ele>
        <time>2017-02-12T10:56:19.999Z</time>
      </trkpt>
      <trkpt lat="47.45135" lon="6.7249">
        <ele>500.9</ele>
        <time>2017-02-12T10:56:20.999Z</time>
      </trkpt>
      <trkpt lat="47.45139" lon="6.72493">
        <ele>500.5</ele>
        <time>2017-02-12T10:56:21.999Z</time>
      </trkpt>
      <trkpt lat="47.45143" lon="6.72496">
        <ele>499.7</ele>
        <time>2017-02-12T10:56:22.999Z</time>
      </trkpt>
      <trkpt lat="47.45147" lon="6.72499">
        <ele>499.2</ele>
        <time>2017-02-12T10:56:23.999Z</time>
      </trkpt>
      <trkpt lat="47.45151" lon="6.72502">
        <ele>498.9</ele>
        <time>2017-02-12T10:56:24.999Z</time>
      </trkpt>
      <trkpt lat="47.45155" lon="6.72505">
        <ele>498.5</ele>
        <time>2017-02-12T10:56:25.999Z</time>
      </trkpt>
      <trkpt lat="47.45159" lon="6.72508">
        <ele>498.1</ele>
        <time>2017-02-12T10:56:26.999Z</time>
      </trkpt>
      <trkpt lat="47.45163" lon="6.72511">
        <ele>498</ele>
        <time>2017-02-12T10:56:27.999Z</time>
      </trkpt>
      <trkpt lat="47.45167" lon="6.72514">
        <ele>497.6</ele>
        <time>2017-02-12T10:56:28.999Z</time>
      </trkpt>
      <trkpt lat="47.45171" lon="6.72517">
        <ele>497.2</ele>
        <time>2017-02-12T10:56:29.999Z</time>
      </trkpt>
      <trkpt lat="47.45175" lon="6.72519">
        <ele>497.1</ele>
        <time>2017-02-12T10:56:30.999Z</time>
      </trkpt>
      <trkpt lat="47.45179" lon="6.72522">
        <ele>497.1</ele>
        <time>2017-02-12T10:56:31.999Z</time>
      </trkpt>
      <trkpt lat="47.45183" lon="6.72524">
        <ele>497.2</ele>
        <time>2017-02-12T10:56:32.999Z</time>
      </trkpt>
      <trkpt lat="47.45186" lon="6.72527">
        <ele>497.2</ele>
        <time>2017-02-12T10:56:33.999Z</time>
      </trkpt>
      <trkpt lat="47.4519" lon="6.72529">
        <ele>497.2</ele>
        <time>2017-02-12T10:56:34.999Z</time>
      </trkpt>
      <trkpt lat="47.45193" lon="6.72531">
        <ele>497.2</ele>
        <time>2017-02-12T10:56:35.999Z</time>
      </trkpt>
      <trkpt lat="47.45196" lon="6.72533">
        <ele>497.2</ele>
        <time>2017-02-12T10:56:36.999Z</time>
      </trkpt>
      <trkpt lat="47.45199" lon="6.72535">
        <ele>497.2</ele>
        <time>2017-02-12T10:56:37.999Z</time>
      </trkpt>
      <trkpt lat="47.45202" lon="6.72537">
        <ele>497.2</ele>
        <time>2017-02-12T10:56:38.999Z</time>
      </trkpt>
      <trkpt lat="47.45204" lon="6.72539">
        <ele>497.2</ele>
        <time>2017-02-12T10:56:39.999Z</time>
      </trkpt>
      <trkpt lat="47.45207" lon="6.72541">
        <ele>497.2</ele>
        <time>2017-02-12T10:56:40.999Z</time>
      </trkpt>
      <trkpt lat="47.45209" lon="6.72542">
        <ele>497.3</ele>
        <time>2017-02-12T10:56:41.999Z</time>
      </trkpt>
      <trkpt lat="47.45212" lon="6.72543">
        <ele>497.4</ele>
        <time>2017-02-12T10:56:42.999Z</time>
      </trkpt>
      <trkpt lat="47.45215" lon="6.72545">
        <ele>497.4</ele>
        <time>2017-02-12T10:56:43.999Z</time>
      </trkpt>
      <trkpt lat="47.45217" lon="6.72547">
        <ele>497.5</ele>
        <time>2017-02-12T10:56:44.999Z</time>
      </trkpt>
      <trkpt lat="47.4522" lon="6.72549">
        <ele>497.6</ele>
        <time>2017-02-12T10:56:45.999Z</time>
      </trkpt>
      <trkpt lat="47.45223" lon="6.72551">
        <ele>497.8</ele>
        <time>2017-02-12T10:56:46.999Z</time>
      </trkpt>
      <trkpt lat="47.45226" lon="6.72553">
        <ele>498</ele>
        <time>2017-02-12T10:56:47.999Z</time>
      </trkpt>
      <trkpt lat="47.45229" lon="6.72555">
        <ele>498.1</ele>
        <time>2017-02-12T10:56:48.999Z</time>
      </trkpt>
      <trkpt lat="47.45231" lon="6.72557">
        <ele>498.2</ele>
        <time>2017-02-12T10:56:49.999Z</time>
      </trkpt>
      <trkpt lat="47.45233" lon="6.72559">
        <ele>498.3</ele>
        <time>2017-02-12T10:56:50.999Z</time>
      </trkpt>
      <trkpt lat="47.45236" lon="6.72561">
        <ele>498.5</ele>
        <time>2017-02-12T10:56:51.999Z</time>
      </trkpt>
      <trkpt lat="47.45239" lon="6.72563">
        <ele>498.6</ele>
        <time>2017-02-12T10:56:52.999Z</time>
      </trkpt>
      <trkpt lat="47.45242" lon="6.72565">
        <ele>498.8</ele>
        <time>2017-02-12T10:56:53.999Z</time>
      </trkpt>
      <trkpt lat="47.45245" lon="6.72567">
        <ele>498.8</ele>
        <time>2017-02-12T10:56:54.999Z</time>
      </trkpt>
      <trkpt lat="47.45248" lon="6.72569">
        <ele>498.9</ele>
        <time>2017-02-12T10:56:55.999Z</time>
      </trkpt>
      <trkpt lat="47.45251" lon="6.72571">
        <ele>499</ele>
        <time>2017-02-12T10:56:56.999Z</time>
      </trkpt>
      <trkpt lat="47.45254" lon="6.72574">
        <ele>499.1</ele>
        <time>2017-02-12T10:56:57.999Z</time>
      </trkpt>
      <trkpt lat="47.45258" lon="6.72576">
        <ele>499.2</ele>
        <time>2017-02-12T10:56:58.999Z</time>
      </trkpt>
      <trkpt lat="47.4526" lon="6.72578">
        <ele>499.3</ele>
        <time>2017-02-12T10:56:59.999Z</time>
      </trkpt>
      <trkpt lat="47.45264" lon="6.7258">
        <ele>499.4</ele>
        <time>2017-02-12T10:57:00.999Z</time>
      </trkpt>
      <trkpt lat="47.45266" lon="6.72582">
        <ele>499.5</ele>
        <time>2017-02-12T10:57:01.999Z</time>
      </trkpt>
      <trkpt lat="47.45268" lon="6.72583">
        <ele>499.6</ele>
        <time>2017-02-12T10:57:02.999Z</time>
      </trkpt>
      <trkpt lat="47.45271" lon="6.72585">
        <ele>499.6</ele>
        <time>2017-02-12T10:57:03.999Z</time>
      </trkpt>
      <trkpt lat="47.45274" lon="6.72587">
        <ele>499.7</ele>
        <time>2017-02-12T10:57:04.999Z</time>
      </trkpt>
      <trkpt lat="47.45277" lon="6.72589">
        <ele>499.7</ele>
        <time>2017-02-12T10:57:05.999Z</time>
      </trkpt>
      <trkpt lat="47.4528" lon="6.72591">
        <ele>499.8</ele>
        <time>2017-02-12T10:57:06.999Z</time>
      </trkpt>
      <trkpt lat="47.45283" lon="6.72593">
        <ele>499.8</ele>
        <time>2017-02-12T10:57:07.999Z</time>
      </trkpt>
      <trkpt lat="47.45286" lon="6.72595">
        <ele>499.8</ele>
        <time>2017-02-12T10:57:08.999Z</time>
      </trkpt>
      <trkpt lat="47.45289" lon="6.72597">
        <ele>499.8</ele>
        <time>2017-02-12T10:57:09.999Z</time>
      </trkpt>
      <trkpt lat="47.45291" lon="6.72599">
        <ele>499.8</ele>
        <time>2017-02-12T10:57:10.999Z</time>
      </trkpt>
      <trkpt lat="47.45295" lon="6.72601">
        <ele>499.8</ele>
        <time>2017-02-12T10:57:11.999Z</time>
      </trkpt>
      <trkpt lat="47.45297" lon="6.72603">
        <ele>499.9</ele>
        <time>2017-02-12T10:57:12.999Z</time>
      </trkpt>
      <trkpt lat="47.45301" lon="6.72605">
        <ele>499.9</ele>
        <time>2017-02-12T10:57:13.999Z</time>
      </trkpt>
      <trkpt lat="47.45304" lon="6.72607">
        <ele>499.9</ele>
        <time>2017-02-12T10:57:14.999Z</time>
      </trkpt>
      <trkpt lat="47.45307" lon="6.7261">
        <ele>499.9</ele>
        <time>2017-02-12T10:57:15.999Z</time>
      </trkpt>
      <trkpt lat="47.4531" lon="6.72612">
        <ele>499.9</ele>
        <time>2017-02-12T10:57:16.999Z</time>
      </trkpt>
      <trkpt lat="47.45313" lon="6.72615">
        <ele>499.9</ele>
        <time>2017-02-12T10:57:17.999Z</time>
      </trkpt>
      <trkpt lat="47.45316" lon="6.72618">
        <ele>499.9</ele>
        <time>2017-02-12T10:57:18.999Z</time>
      </trkpt>
      <trkpt lat="47.45318" lon="6.7262">
        <ele>499.9</ele>
        <time>2017-02-12T10:57:19.999Z</time>
      </trkpt>
      <trkpt lat="47.45321" lon="6.72623">
        <ele>500</ele>
        <time>2017-02-12T10:57:20.999Z</time>
      </trkpt>
      <trkpt lat="47.45323" lon="6.72625">
        <ele>500</ele>
        <time>2017-02-12T10:57:21.999Z</time>
      </trkpt>
      <trkpt lat="47.45326" lon="6.72628">
        <ele>500.1</ele>
        <time>2017-02-12T10:57:22.999Z</time>
      </trkpt>
      <trkpt lat="47.45328" lon="6.72631">
        <ele>500.2</ele>
        <time>2017-02-12T10:57:23.999Z</time>
      </trkpt>
      <trkpt lat="47.45331" lon="6.72635">
        <ele>500.3</ele>
        <time>2017-02-12T10:57:24.999Z</time>
      </trkpt>
      <trkpt lat="47.45334" lon="6.72638">
        <ele>500.3</ele>
        <time>2017-02-12T10:57:25.999Z</time>
      </trkpt>
      <trkpt lat="47.45337" lon="6.72642">
        <ele>500.4</ele>
        <time>2017-02-12T10:57:26.999Z</time>
      </trkpt>
      <trkpt lat="47.45339" lon="6.72645">
        <ele>500.5</ele>
        <time>2017-02-12T10:57:27.999Z</time>
      </trkpt>
      <trkpt lat="47.45342" lon="6.72648">
        <ele>501</ele>
        <time>2017-02-12T10:57:28.999Z</time>
      </trkpt>
      <trkpt lat="47.45345" lon="6.72652">
        <ele>501.1</ele>
        <time>2017-02-12T10:57:29.999Z</time>
      </trkpt>
      <trkpt lat="47.45347" lon="6.72655">
        <ele>501.1</ele>
        <time>2017-02-12T10:57:30.999Z</time>
      </trkpt>
      <trkpt lat="47.4535" lon="6.72659">
        <ele>501</ele>
        <time>2017-02-12T10:57:31.999Z</time>
      </trkpt>
      <trkpt lat="47.45353" lon="6.72662">
        <ele>501.1</ele>
        <time>2017-02-12T10:57:32.999Z</time>
      </trkpt>
      <trkpt lat="47.45355" lon="6.72665">
        <ele>501.1</ele>
        <time>2017-02-12T10:57:33.999Z</time>
      </trkpt>
      <trkpt lat="47.45358" lon="6.72668">
        <ele>501.1</ele>
        <time>2017-02-12T10:57:34.999Z</time>
      </trkpt>
      <trkpt lat="47.4536" lon="6.72671">
        <ele>501.2</ele>
        <time>2017-02-12T10:57:35.999Z</time>
      </trkpt>
      <trkpt lat="47.45363" lon="6.72674">
        <ele>501.2</ele>
        <time>2017-02-12T10:57:36.999Z</time>
      </trkpt>
      <trkpt lat="47.45365" lon="6.72677">
        <ele>501.2</ele>
        <time>2017-02-12T10:57:37.999Z</time>
      </trkpt>
      <trkpt lat="47.45367" lon="6.7268">
        <ele>501.2</ele>
        <time>2017-02-12T10:57:38.999Z</time>
      </trkpt>
      <trkpt lat="47.4537" lon="6.72683">
        <ele>501.3</ele>
        <time>2017-02-12T10:57:39.999Z</time>
      </trkpt>
      <trkpt lat="47.45372" lon="6.72686">
        <ele>501.3</ele>
        <time>2017-02-12T10:57:40.999Z</time>
      </trkpt>
      <trkpt lat="47.45374" lon="6.72689">
        <ele>501.4</ele>
        <time>2017-02-12T10:57:41.999Z</time>
      </trkpt>
      <trkpt lat="47.45377" lon="6.72691">
        <ele>501.4</ele>
        <time>2017-02-12T10:57:42.999Z</time>
      </trkpt>
      <trkpt lat="47.4538" lon="6.72694">
        <ele>501.4</ele>
        <time>2017-02-12T10:57:43.999Z</time>
      </trkpt>
      <trkpt lat="47.45382" lon="6.72697">
        <ele>501.5</ele>
        <time>2017-02-12T10:57:44.999Z</time>
      </trkpt>
      <trkpt lat="47.45385" lon="6.727">
        <ele>501.6</ele>
        <time>2017-02-12T10:57:45.999Z</time>
      </trkpt>
      <trkpt lat="47.45388" lon="6.72703">
        <ele>501.6</ele>
        <time>2017-02-12T10:57:46.999Z</time>
      </trkpt>
      <trkpt lat="47.4539" lon="6.72706">
        <ele>501.5</ele>
        <time>2017-02-12T10:57:47.999Z</time>
      </trkpt>
      <trkpt lat="47.45393" lon="6.72709">
        <ele>501.5</ele>
        <time>2017-02-12T10:57:48.999Z</time>
      </trkpt>
      <trkpt lat="47.45396" lon="6.72712">
        <ele>501.5</ele>
        <time>2017-02-12T10:57:49.999Z</time>
      </trkpt>
      <trkpt lat="47.45399" lon="6.72715">
        <ele>501.5</ele>
        <time>2017-02-12T10:57:50.999Z</time>
      </trkpt>
      <trkpt lat="47.45402" lon="6.72717">
        <ele>501.5</ele>
        <time>2017-02-12T10:57:51.999Z</time>
      </trkpt>
      <trkpt lat="47.45405" lon="6.72719">
        <ele>501.5</ele>
        <time>2017-02-12T10:57:52.999Z</time>
      </trkpt>
      <trkpt lat="47.45408" lon="6.72721">
        <ele>501.6</ele>
        <time>2017-02-12T10:57:53.999Z</time>
      </trkpt>
      <trkpt lat="47.45411" lon="6.72722">
        <ele>501.6</ele>
        <time>2017-02-12T10:57:54.999Z</time>
      </trkpt>
      <trkpt lat="47.45415" lon="6.72723">
        <ele>501.7</ele>
        <time>2017-02-12T10:57:55.999Z</time>
      </trkpt>
      <trkpt lat="47.45419" lon="6.72724">
        <ele>501.8</ele>
        <time>2017-02-12T10:57:56.999Z</time>
      </trkpt>
      <trkpt lat="47.45423" lon="6.72725">
        <ele>501.8</ele>
        <time>2017-02-12T10:57:57.999Z</time>
      </trkpt>
      <trkpt lat="47.45427" lon="6.72725">
        <ele>502.2</ele>
        <time>2017-02-12T10:57:58.999Z</time>
      </trkpt>
      <trkpt lat="47.45431" lon="6.72725">
        <ele>502.2</ele>
        <time>2017-02-12T10:57:59.999Z</time>
      </trkpt>
      <trkpt lat="47.45435" lon="6.72726">
        <ele>502.2</ele>
        <time>2017-02-12T10:58:00.999Z</time>
      </trkpt>
      <trkpt lat="47.45438" lon="6.72727">
        <ele>502.3</ele>
        <time>2017-02-12T10:58:01.999Z</time>
      </trkpt>
      <trkpt lat="47.45441" lon="6.72728">
        <ele>502.3</ele>
        <time>2017-02-12T10:58:02.999Z</time>
      </trkpt>
      <trkpt lat="47.45444" lon="6.7273">
        <ele>502.3</ele>
        <time>2017-02-12T10:58:03.999Z</time>
      </trkpt>
      <trkpt lat="47.45445" lon="6.72734">
        <ele>502.3</ele>
        <time>2017-02-12T10:58:04.999Z</time>
      </trkpt>
      <trkpt lat="47.45446" lon="6.72737">
        <ele>502.4</ele>
        <time>2017-02-12T10:58:05.999Z</time>
      </trkpt>
      <trkpt lat="47.45445" lon="6.72743">
        <ele>502.4</ele>
        <time>2017-02-12T10:58:07.999Z</time>
      </trkpt>
      <trkpt lat="47.45445" lon="6.72746">
        <ele>502.5</ele>
        <time>2017-02-12T10:58:08.999Z</time>
      </trkpt>
      <trkpt lat="47.45443" lon="6.72751">
        <ele>502.6</ele>
        <time>2017-02-12T10:58:10.999Z</time>
      </trkpt>
      <trkpt lat="47.45442" lon="6.72753">
        <ele>502.7</ele>
        <time>2017-02-12T10:58:11.999Z</time>
      </trkpt>
      <trkpt lat="47.45442" lon="6.72759">
        <ele>502.9</ele>
        <time>2017-02-12T10:58:13.999Z</time>
      </trkpt>
      <trkpt lat="47.45443" lon="6.7276">
        <ele>503</ele>
        <time>2017-02-12T10:58:14.999Z</time>
      </trkpt>
      <trkpt lat="47.45444" lon="6.72764">
        <ele>503.6</ele>
        <time>2017-02-12T10:59:02.999Z</time>
      </trkpt>
      <trkpt lat="47.4545" lon="6.72776">
        <ele>503.4</ele>
        <time>2017-02-12T10:59:03.999Z</time>
      </trkpt>
      <trkpt lat="47.4545" lon="6.72776">
        <ele>503.2</ele>
        <time>2017-02-12T10:59:04.999Z</time>
      </trkpt>
      <trkpt lat="47.45453" lon="6.72783">
        <ele>503.2</ele>
        <time>2017-02-12T10:59:05.999Z</time>
      </trkpt>
      <trkpt lat="47.45454" lon="6.72787">
        <ele>503.1</ele>
        <time>2017-02-12T10:59:06.999Z</time>
      </trkpt>
      <trkpt lat="47.45456" lon="6.72791">
        <ele>503.1</ele>
        <time>2017-02-12T10:59:07.999Z</time>
      </trkpt>
      <trkpt lat="47.45457" lon="6.72795">
        <ele>503.2</ele>
        <time>2017-02-12T10:59:08.999Z</time>
      </trkpt>
      <trkpt lat="47.45458" lon="6.72798">
        <ele>503.3</ele>
        <time>2017-02-12T10:59:09.999Z</time>
      </trkpt>
      <trkpt lat="47.45458" lon="6.72803">
        <ele>503.4</ele>
        <time>2017-02-12T10:59:10.999Z</time>
      </trkpt>
      <trkpt lat="47.45458" lon="6.72806">
        <ele>503.6</ele>
        <time>2017-02-12T10:59:11.999Z</time>
      </trkpt>
      <trkpt lat="47.45458" lon="6.7281">
        <ele>503.7</ele>
        <time>2017-02-12T10:59:12.999Z</time>
      </trkpt>
      <trkpt lat="47.45459" lon="6.72815">
        <ele>503.9</ele>
        <time>2017-02-12T10:59:13.999Z</time>
      </trkpt>
      <trkpt lat="47.4546" lon="6.7282">
        <ele>504</ele>
        <time>2017-02-12T10:59:14.999Z</time>
      </trkpt>
      <trkpt lat="47.45461" lon="6.72824">
        <ele>504.2</ele>
        <time>2017-02-12T10:59:15.999Z</time>
      </trkpt>
      <trkpt lat="47.45462" lon="6.7283">
        <ele>504.5</ele>
        <time>2017-02-12T10:59:16.999Z</time>
      </trkpt>
      <trkpt lat="47.45463" lon="6.72834">
        <ele>504.7</ele>
        <time>2017-02-12T10:59:17.999Z</time>
      </trkpt>
      <trkpt lat="47.45465" lon="6.72839">
        <ele>505</ele>
        <time>2017-02-12T10:59:18.999Z</time>
      </trkpt>
      <trkpt lat="47.45466" lon="6.72844">
        <ele>505.3</ele>
        <time>2017-02-12T10:59:19.999Z</time>
      </trkpt>
      <trkpt lat="47.45468" lon="6.72849">
        <ele>505.6</ele>
        <time>2017-02-12T10:59:20.999Z</time>
      </trkpt>
      <trkpt lat="47.4547" lon="6.72856">
        <ele>505.9</ele>
        <time>2017-02-12T10:59:21.999Z</time>
      </trkpt>
      <trkpt lat="47.45472" lon="6.72862">
        <ele>506.1</ele>
        <time>2017-02-12T10:59:22.999Z</time>
      </trkpt>
      <trkpt lat="47.45473" lon="6.72866">
        <ele>506.2</ele>
        <time>2017-02-12T10:59:23.999Z</time>
      </trkpt>
      <trkpt lat="47.45473" lon="6.7287">
        <ele>506.2</ele>
        <time>2017-02-12T10:59:24.999Z</time>
      </trkpt>
      <trkpt lat="47.45474" lon="6.72874">
        <ele>506.2</ele>
        <time>2017-02-12T10:59:25.999Z</time>
      </trkpt>
      <trkpt lat="47.45476" lon="6.72879">
        <ele>506.3</ele>
        <time>2017-02-12T10:59:26.999Z</time>
      </trkpt>
      <trkpt lat="47.45479" lon="6.72884">
        <ele>506.4</ele>
        <time>2017-02-12T10:59:27.999Z</time>
      </trkpt>
      <trkpt lat="47.4548" lon="6.72889">
        <ele>506.5</ele>
        <time>2017-02-12T10:59:28.999Z</time>
      </trkpt>
      <trkpt lat="47.45483" lon="6.72895">
        <ele>506.7</ele>
        <time>2017-02-12T10:59:29.999Z</time>
      </trkpt>
      <trkpt lat="47.45486" lon="6.72901">
        <ele>506.9</ele>
        <time>2017-02-12T10:59:30.999Z</time>
      </trkpt>
      <trkpt lat="47.4549" lon="6.72906">
        <ele>507</ele>
        <time>2017-02-12T10:59:31.999Z</time>
      </trkpt>
      <trkpt lat="47.45492" lon="6.72911">
        <ele>507.3</ele>
        <time>2017-02-12T10:59:32.999Z</time>
      </trkpt>
      <trkpt lat="47.45495" lon="6.72916">
        <ele>507.4</ele>
        <time>2017-02-12T10:59:33.999Z</time>
      </trkpt>
      <trkpt lat="47.45497" lon="6.7292">
        <ele>507.5</ele>
        <time>2017-02-12T10:59:34.999Z</time>
      </trkpt>
      <trkpt lat="47.45499" lon="6.72925">
        <ele>507.7</ele>
        <time>2017-02-12T10:59:35.999Z</time>
      </trkpt>
      <trkpt lat="47.45501" lon="6.7293">
        <ele>507.9</ele>
        <time>2017-02-12T10:59:36.999Z</time>
      </trkpt>
      <trkpt lat="47.45503" lon="6.72934">
        <ele>508.1</ele>
        <time>2017-02-12T10:59:37.999Z</time>
      </trkpt>
      <trkpt lat="47.45506" lon="6.72939">
        <ele>509.9</ele>
        <time>2017-02-12T10:59:38.999Z</time>
      </trkpt>
      <trkpt lat="47.4551" lon="6.72943">
        <ele>510</ele>
        <time>2017-02-12T10:59:39.999Z</time>
      </trkpt>
      <trkpt lat="47.45511" lon="6.72946">
        <ele>510.1</ele>
        <time>2017-02-12T10:59:40.999Z</time>
      </trkpt>
      <trkpt lat="47.45513" lon="6.7295">
        <ele>510.2</ele>
        <time>2017-02-12T10:59:41.999Z</time>
      </trkpt>
      <trkpt lat="47.45515" lon="6.72953">
        <ele>510.3</ele>
        <time>2017-02-12T10:59:42.999Z</time>
      </trkpt>
      <trkpt lat="47.45518" lon="6.72957">
        <ele>510.4</ele>
        <time>2017-02-12T10:59:43.999Z</time>
      </trkpt>
      <trkpt lat="47.45522" lon="6.72963">
        <ele>510.4</ele>
        <time>2017-02-12T10:59:44.999Z</time>
      </trkpt>
      <trkpt lat="47.45525" lon="6.72968">
        <ele>510.4</ele>
        <time>2017-02-12T10:59:45.999Z</time>
      </trkpt>
      <trkpt lat="47.45526" lon="6.72972">
        <ele>510.4</ele>
        <time>2017-02-12T10:59:46.999Z</time>
      </trkpt>
      <trkpt lat="47.45528" lon="6.72975">
        <ele>510.3</ele>
        <time>2017-02-12T10:59:47.999Z</time>
      </trkpt>
      <trkpt lat="47.45529" lon="6.72979">
        <ele>510.4</ele>
        <time>2017-02-12T10:59:48.999Z</time>
      </trkpt>
      <trkpt lat="47.45531" lon="6.72984">
        <ele>510.4</ele>
        <time>2017-02-12T10:59:49.999Z</time>
      </trkpt>
      <trkpt lat="47.45533" lon="6.72989">
        <ele>510.4</ele>
        <time>2017-02-12T10:59:50.999Z</time>
      </trkpt>
      <trkpt lat="47.45535" lon="6.72994">
        <ele>510.4</ele>
        <time>2017-02-12T10:59:51.999Z</time>
      </trkpt>
      <trkpt lat="47.45537" lon="6.73">
        <ele>510.4</ele>
        <time>2017-02-12T10:59:52.999Z</time>
      </trkpt>
      <trkpt lat="47.4554" lon="6.73004">
        <ele>510.4</ele>
        <time>2017-02-12T10:59:53.999Z</time>
      </trkpt>
      <trkpt lat="47.45543" lon="6.73007">
        <ele>510.4</ele>
        <time>2017-02-12T10:59:54.999Z</time>
      </trkpt>
      <trkpt lat="47.45546" lon="6.73011">
        <ele>510.5</ele>
        <time>2017-02-12T10:59:55.999Z</time>
      </trkpt>
      <trkpt lat="47.45549" lon="6.73014">
        <ele>510.6</ele>
        <time>2017-02-12T10:59:56.999Z</time>
      </trkpt>
      <trkpt lat="47.45552" lon="6.73017">
        <ele>510.6</ele>
        <time>2017-02-12T10:59:57.999Z</time>
      </trkpt>
      <trkpt lat="47.45554" lon="6.7302">
        <ele>510.5</ele>
        <time>2017-02-12T10:59:58.999Z</time>
      </trkpt>
      <trkpt lat="47.45559" lon="6.73025">
        <ele>510.5</ele>
        <time>2017-02-12T11:00:00.999Z</time>
      </trkpt>
      <trkpt lat="47.45562" lon="6.73031">
        <ele>510.5</ele>
        <time>2017-02-12T11:00:01.999Z</time>
      </trkpt>
      <trkpt lat="47.45564" lon="6.73034">
        <ele>510.5</ele>
        <time>2017-02-12T11:00:02.999Z</time>
      </trkpt>
      <trkpt lat="47.45566" lon="6.73039">
        <ele>510.6</ele>
        <time>2017-02-12T11:00:03.999Z</time>
      </trkpt>
      <trkpt lat="47.45569" lon="6.73044">
        <ele>511.1</ele>
        <time>2017-02-12T11:00:04.999Z</time>
      </trkpt>
      <trkpt lat="47.45572" lon="6.7305">
        <ele>511</ele>
        <time>2017-02-12T11:00:05.999Z</time>
      </trkpt>
      <trkpt lat="47.45574" lon="6.73055">
        <ele>511</ele>
        <time>2017-02-12T11:00:06.999Z</time>
      </trkpt>
      <trkpt lat="47.45576" lon="6.7306">
        <ele>510.9</ele>
        <time>2017-02-12T11:00:07.999Z</time>
      </trkpt>
      <trkpt lat="47.45578" lon="6.73065">
        <ele>510.4</ele>
        <time>2017-02-12T11:00:08.999Z</time>
      </trkpt>
      <trkpt lat="47.4558" lon="6.73071">
        <ele>510.4</ele>
        <time>2017-02-12T11:00:09.999Z</time>
      </trkpt>
      <trkpt lat="47.45581" lon="6.73074">
        <ele>510.3</ele>
        <time>2017-02-12T11:00:10.999Z</time>
      </trkpt>
      <trkpt lat="47.45583" lon="6.73078">
        <ele>510.4</ele>
        <time>2017-02-12T11:00:11.999Z</time>
      </trkpt>
      <trkpt lat="47.45584" lon="6.73081">
        <ele>510.4</ele>
        <time>2017-02-12T11:00:12.999Z</time>
      </trkpt>
      <trkpt lat="47.45586" lon="6.73083">
        <ele>510.4</ele>
        <time>2017-02-12T11:00:13.999Z</time>
      </trkpt>
      <trkpt lat="47.45583" lon="6.73088">
        <ele>510.4</ele>
        <time>2017-02-12T11:00:15.999Z</time>
      </trkpt>
      <trkpt lat="47.45581" lon="6.73091">
        <ele>510.5</ele>
        <time>2017-02-12T11:00:16.999Z</time>
      </trkpt>
      <trkpt lat="47.45581" lon="6.73096">
        <ele>510.7</ele>
        <time>2017-02-12T11:00:17.999Z</time>
      </trkpt>
      <trkpt lat="47.45581" lon="6.73101">
        <ele>510.9</ele>
        <time>2017-02-12T11:00:18.999Z</time>
      </trkpt>
      <trkpt lat="47.45582" lon="6.73105">
        <ele>511.2</ele>
        <time>2017-02-12T11:00:19.999Z</time>
      </trkpt>
      <trkpt lat="47.45583" lon="6.7311">
        <ele>511.3</ele>
        <time>2017-02-12T11:00:20.999Z</time>
      </trkpt>
      <trkpt lat="47.45584" lon="6.73115">
        <ele>511.5</ele>
        <time>2017-02-12T11:00:21.999Z</time>
      </trkpt>
      <trkpt lat="47.45584" lon="6.73121">
        <ele>511.6</ele>
        <time>2017-02-12T11:00:22.999Z</time>
      </trkpt>
      <trkpt lat="47.45584" lon="6.73128">
        <ele>511.6</ele>
        <time>2017-02-12T11:00:23.999Z</time>
      </trkpt>
      <trkpt lat="47.45584" lon="6.73132">
        <ele>511.6</ele>
        <time>2017-02-12T11:00:24.999Z</time>
      </trkpt>
      <trkpt lat="47.45584" lon="6.73138">
        <ele>511.6</ele>
        <time>2017-02-12T11:00:25.999Z</time>
      </trkpt>
      <trkpt lat="47.45584" lon="6.73144">
        <ele>511.6</ele>
        <time>2017-02-12T11:00:26.999Z</time>
      </trkpt>
      <trkpt lat="47.45584" lon="6.73151">
        <ele>511.6</ele>
        <time>2017-02-12T11:00:27.999Z</time>
      </trkpt>
      <trkpt lat="47.45584" lon="6.73159">
        <ele>511.5</ele>
        <time>2017-02-12T11:00:28.999Z</time>
      </trkpt>
      <trkpt lat="47.45584" lon="6.73166">
        <ele>511.3</ele>
        <time>2017-02-12T11:00:29.999Z</time>
      </trkpt>
      <trkpt lat="47.45584" lon="6.73174">
        <ele>511.2</ele>
        <time>2017-02-12T11:00:30.999Z</time>
      </trkpt>
      <trkpt lat="47.45584" lon="6.7318">
        <ele>511</ele>
        <time>2017-02-12T11:00:31.999Z</time>
      </trkpt>
      <trkpt lat="47.45584" lon="6.73186">
        <ele>511</ele>
        <time>2017-02-12T11:00:32.999Z</time>
      </trkpt>
      <trkpt lat="47.45583" lon="6.73192">
        <ele>510.9</ele>
        <time>2017-02-12T11:00:33.999Z</time>
      </trkpt>
      <trkpt lat="47.45583" lon="6.73199">
        <ele>510.9</ele>
        <time>2017-02-12T11:00:34.999Z</time>
      </trkpt>
      <trkpt lat="47.45583" lon="6.73209">
        <ele>510.8</ele>
        <time>2017-02-12T11:00:35.999Z</time>
      </trkpt>
      <trkpt lat="47.45582" lon="6.73215">
        <ele>510.8</ele>
        <time>2017-02-12T11:00:36.999Z</time>
      </trkpt>
      <trkpt lat="47.45581" lon="6.7322">
        <ele>510.7</ele>
        <time>2017-02-12T11:00:37.999Z</time>
      </trkpt>
      <trkpt lat="47.45578" lon="6.73224">
        <ele>510.8</ele>
        <time>2017-02-12T11:00:38.999Z</time>
      </trkpt>
      <trkpt lat="47.45573" lon="6.73229">
        <ele>511.2</ele>
        <time>2017-02-12T11:00:39.999Z</time>
      </trkpt>
      <trkpt lat="47.45569" lon="6.73233">
        <ele>512.3</ele>
        <time>2017-02-12T11:00:40.999Z</time>
      </trkpt>
      <trkpt lat="47.45565" lon="6.73239">
        <ele>512.6</ele>
        <time>2017-02-12T11:00:41.999Z</time>
      </trkpt>
      <trkpt lat="47.45562" lon="6.73243">
        <ele>512.1</ele>
        <time>2017-02-12T11:00:42.999Z</time>
      </trkpt>
      <trkpt lat="47.45558" lon="6.73249">
        <ele>512.5</ele>
        <time>2017-02-12T11:00:43.999Z</time>
      </trkpt>
      <trkpt lat="47.45555" lon="6.73251">
        <ele>513.5</ele>
        <time>2017-02-12T11:00:44.999Z</time>
      </trkpt>
      <trkpt lat="47.4555" lon="6.73255">
        <ele>515.2</ele>
        <time>2017-02-12T11:00:45.999Z</time>
      </trkpt>
      <trkpt lat="47.45546" lon="6.73258">
        <ele>516.9</ele>
        <time>2017-02-12T11:00:46.999Z</time>
      </trkpt>
      <trkpt lat="47.45542" lon="6.73262">
        <ele>518.8</ele>
        <time>2017-02-12T11:00:47.999Z</time>
      </trkpt>
      <trkpt lat="47.45539" lon="6.73265">
        <ele>518.9</ele>
        <time>2017-02-12T11:00:48.999Z</time>
      </trkpt>
      <trkpt lat="47.45534" lon="6.73269">
        <ele>518.8</ele>
        <time>2017-02-12T11:00:49.999Z</time>
      </trkpt>
      <trkpt lat="47.45528" lon="6.73273">
        <ele>518.2</ele>
        <time>2017-02-12T11:00:50.999Z</time>
      </trkpt>
      <trkpt lat="47.45522" lon="6.73277">
        <ele>517.9</ele>
        <time>2017-02-12T11:00:51.999Z</time>
      </trkpt>
      <trkpt lat="47.45517" lon="6.73279">
        <ele>517.5</ele>
        <time>2017-02-12T11:00:52.999Z</time>
      </trkpt>
      <trkpt lat="47.45512" lon="6.73282">
        <ele>517.4</ele>
        <time>2017-02-12T11:00:53.999Z</time>
      </trkpt>
      <trkpt lat="47.45508" lon="6.73287">
        <ele>517.5</ele>
        <time>2017-02-12T11:00:54.999Z</time>
      </trkpt>
      <trkpt lat="47.45504" lon="6.73293">
        <ele>517</ele>
        <time>2017-02-12T11:00:55.999Z</time>
      </trkpt>
      <trkpt lat="47.45501" lon="6.73298">
        <ele>516.9</ele>
        <time>2017-02-12T11:00:56.999Z</time>
      </trkpt>
      <trkpt lat="47.45499" lon="6.73302">
        <ele>516.9</ele>
        <time>2017-02-12T11:00:57.999Z</time>
      </trkpt>
      <trkpt lat="47.45494" lon="6.73305">
        <ele>516.8</ele>
        <time>2017-02-12T11:00:58.999Z</time>
      </trkpt>
      <trkpt lat="47.45489" lon="6.73308">
        <ele>517.9</ele>
        <time>2017-02-12T11:00:59.999Z</time>
      </trkpt>
      <trkpt lat="47.45485" lon="6.73311">
        <ele>519.4</ele>
        <time>2017-02-12T11:01:00.999Z</time>
      </trkpt>
      <trkpt lat="47.4548" lon="6.73316">
        <ele>520.6</ele>
        <time>2017-02-12T11:01:01.999Z</time>
      </trkpt>
      <trkpt lat="47.45475" lon="6.73318">
        <ele>521.5</ele>
        <time>2017-02-12T11:01:02.999Z</time>
      </trkpt>
      <trkpt lat="47.45471" lon="6.7332">
        <ele>521.7</ele>
        <time>2017-02-12T11:01:03.999Z</time>
      </trkpt>
      <trkpt lat="47.45469" lon="6.73323">
        <ele>521.7</ele>
        <time>2017-02-12T11:01:04.999Z</time>
      </trkpt>
      <trkpt lat="47.45468" lon="6.73326">
        <ele>521.8</ele>
        <time>2017-02-12T11:01:05.999Z</time>
      </trkpt>
      <trkpt lat="47.45468" lon="6.7333">
        <ele>522</ele>
        <time>2017-02-12T11:01:06.999Z</time>
      </trkpt>
      <trkpt lat="47.45468" lon="6.73335">
        <ele>522.1</ele>
        <time>2017-02-12T11:01:07.999Z</time>
      </trkpt>
      <trkpt lat="47.45468" lon="6.73339">
        <ele>522.2</ele>
        <time>2017-02-12T11:01:08.999Z</time>
      </trkpt>
      <trkpt lat="47.45469" lon="6.73345">
        <ele>522.2</ele>
        <time>2017-02-12T11:01:09.999Z</time>
      </trkpt>
      <trkpt lat="47.45469" lon="6.73351">
        <ele>522.3</ele>
        <time>2017-02-12T11:01:10.999Z</time>
      </trkpt>
      <trkpt lat="47.45468" lon="6.73358">
        <ele>522.3</ele>
        <time>2017-02-12T11:01:11.999Z</time>
      </trkpt>
      <trkpt lat="47.45466" lon="6.73362">
        <ele>522.4</ele>
        <time>2017-02-12T11:01:12.999Z</time>
      </trkpt>
      <trkpt lat="47.45464" lon="6.73367">
        <ele>522.5</ele>
        <time>2017-02-12T11:01:13.999Z</time>
      </trkpt>
      <trkpt lat="47.45463" lon="6.73371">
        <ele>522.5</ele>
        <time>2017-02-12T11:01:14.999Z</time>
      </trkpt>
      <trkpt lat="47.45461" lon="6.73376">
        <ele>522.5</ele>
        <time>2017-02-12T11:01:15.999Z</time>
      </trkpt>
      <trkpt lat="47.45458" lon="6.73382">
        <ele>522.4</ele>
        <time>2017-02-12T11:01:16.999Z</time>
      </trkpt>
      <trkpt lat="47.45457" lon="6.73386">
        <ele>522.4</ele>
        <time>2017-02-12T11:01:17.999Z</time>
      </trkpt>
      <trkpt lat="47.45455" lon="6.73392">
        <ele>522.5</ele>
        <time>2017-02-12T11:01:18.999Z</time>
      </trkpt>
      <trkpt lat="47.45454" lon="6.73397">
        <ele>522.5</ele>
        <time>2017-02-12T11:01:19.999Z</time>
      </trkpt>
      <trkpt lat="47.45453" lon="6.73401">
        <ele>522.5</ele>
        <time>2017-02-12T11:01:20.999Z</time>
      </trkpt>
      <trkpt lat="47.45452" lon="6.73407">
        <ele>522.6</ele>
        <time>2017-02-12T11:01:21.999Z</time>
      </trkpt>
      <trkpt lat="47.45451" lon="6.73414">
        <ele>522.7</ele>
        <time>2017-02-12T11:01:22.999Z</time>
      </trkpt>
      <trkpt lat="47.45451" lon="6.73421">
        <ele>522.8</ele>
        <time>2017-02-12T11:01:23.999Z</time>
      </trkpt>
      <trkpt lat="47.45451" lon="6.73428">
        <ele>522.8</ele>
        <time>2017-02-12T11:01:24.999Z</time>
      </trkpt>
      <trkpt lat="47.45451" lon="6.73434">
        <ele>522.8</ele>
        <time>2017-02-12T11:01:25.999Z</time>
      </trkpt>
      <trkpt lat="47.45452" lon="6.73442">
        <ele>522.7</ele>
        <time>2017-02-12T11:01:26.999Z</time>
      </trkpt>
      <trkpt lat="47.45453" lon="6.73449">
        <ele>522.7</ele>
        <time>2017-02-12T11:01:27.999Z</time>
      </trkpt>
      <trkpt lat="47.45454" lon="6.73457">
        <ele>522.6</ele>
        <time>2017-02-12T11:01:28.999Z</time>
      </trkpt>
      <trkpt lat="47.45454" lon="6.73464">
        <ele>522.6</ele>
        <time>2017-02-12T11:01:29.999Z</time>
      </trkpt>
      <trkpt lat="47.45453" lon="6.73471">
        <ele>521.8</ele>
        <time>2017-02-12T11:01:30.999Z</time>
      </trkpt>
      <trkpt lat="47.45453" lon="6.7348">
        <ele>521.7</ele>
        <time>2017-02-12T11:01:31.999Z</time>
      </trkpt>
      <trkpt lat="47.45454" lon="6.73495">
        <ele>521.4</ele>
        <time>2017-02-12T11:01:32.999Z</time>
      </trkpt>
      <trkpt lat="47.45455" lon="6.73508">
        <ele>520.8</ele>
        <time>2017-02-12T11:01:33.999Z</time>
      </trkpt>
      <trkpt lat="47.45458" lon="6.7352">
        <ele>520</ele>
        <time>2017-02-12T11:01:34.999Z</time>
      </trkpt>
      <trkpt lat="47.45459" lon="6.73532">
        <ele>518</ele>
        <time>2017-02-12T11:01:35.999Z</time>
      </trkpt>
      <trkpt lat="47.45462" lon="6.73545">
        <ele>516.8</ele>
        <time>2017-02-12T11:01:36.999Z</time>
      </trkpt>
      <trkpt lat="47.45465" lon="6.73557">
        <ele>515.7</ele>
        <time>2017-02-12T11:01:37.999Z</time>
      </trkpt>
      <trkpt lat="47.45467" lon="6.73568">
        <ele>513.8</ele>
        <time>2017-02-12T11:01:38.999Z</time>
      </trkpt>
      <trkpt lat="47.45469" lon="6.73575">
        <ele>513.6</ele>
        <time>2017-02-12T11:01:39.999Z</time>
      </trkpt>
      <trkpt lat="47.45471" lon="6.7358">
        <ele>513.4</ele>
        <time>2017-02-12T11:01:40.999Z</time>
      </trkpt>
      <trkpt lat="47.45472" lon="6.73585">
        <ele>513.1</ele>
        <time>2017-02-12T11:01:41.999Z</time>
      </trkpt>
      <trkpt lat="47.45473" lon="6.73591">
        <ele>513</ele>
        <time>2017-02-12T11:01:42.999Z</time>
      </trkpt>
      <trkpt lat="47.45474" lon="6.73597">
        <ele>512.8</ele>
        <time>2017-02-12T11:01:43.999Z</time>
      </trkpt>
      <trkpt lat="47.45475" lon="6.73602">
        <ele>512.6</ele>
        <time>2017-02-12T11:01:44.999Z</time>
      </trkpt>
      <trkpt lat="47.45478" lon="6.73607">
        <ele>512.5</ele>
        <time>2017-02-12T11:01:45.999Z</time>
      </trkpt>
      <trkpt lat="47.45483" lon="6.73615">
        <ele>512.3</ele>
        <time>2017-02-12T11:01:46.999Z</time>
      </trkpt>
      <trkpt lat="47.45486" lon="6.73619">
        <ele>512.2</ele>
        <time>2017-02-12T11:01:47.999Z</time>
      </trkpt>
      <trkpt lat="47.45489" lon="6.73623">
        <ele>512.2</ele>
        <time>2017-02-12T11:01:48.999Z</time>
      </trkpt>
      <trkpt lat="47.45493" lon="6.73629">
        <ele>512</ele>
        <time>2017-02-12T11:01:49.999Z</time>
      </trkpt>
      <trkpt lat="47.45496" lon="6.73634">
        <ele>511.8</ele>
        <time>2017-02-12T11:01:50.999Z</time>
      </trkpt>
      <trkpt lat="47.45499" lon="6.73638">
        <ele>511.7</ele>
        <time>2017-02-12T11:01:52.999Z</time>
      </trkpt>
      <trkpt lat="47.45501" lon="6.7364">
        <ele>511.4</ele>
        <time>2017-02-12T11:01:53.999Z</time>
      </trkpt>
      <trkpt lat="47.45503" lon="6.73645">
        <ele>511.1</ele>
        <time>2017-02-12T11:01:55.999Z</time>
      </trkpt>
      <trkpt lat="47.45504" lon="6.73648">
        <ele>511</ele>
        <time>2017-02-12T11:01:56.999Z</time>
      </trkpt>
      <trkpt lat="47.45506" lon="6.73651">
        <ele>510.8</ele>
        <time>2017-02-12T11:01:57.999Z</time>
      </trkpt>
      <trkpt lat="47.45507" lon="6.73654">
        <ele>510.7</ele>
        <time>2017-02-12T11:01:58.999Z</time>
      </trkpt>
      <trkpt lat="47.45509" lon="6.73656">
        <ele>510.6</ele>
        <time>2017-02-12T11:01:59.999Z</time>
      </trkpt>
      <trkpt lat="47.45511" lon="6.73658">
        <ele>510.4</ele>
        <time>2017-02-12T11:02:00.999Z</time>
      </trkpt>
      <trkpt lat="47.45514" lon="6.7366">
        <ele>510.1</ele>
        <time>2017-02-12T11:02:02.999Z</time>
      </trkpt>
      <trkpt lat="47.45516" lon="6.73662">
        <ele>510</ele>
        <time>2017-02-12T11:02:03.999Z</time>
      </trkpt>
      <trkpt lat="47.45518" lon="6.73664">
        <ele>509.9</ele>
        <time>2017-02-12T11:02:04.999Z</time>
      </trkpt>
      <trkpt lat="47.4552" lon="6.73665">
        <ele>509.7</ele>
        <time>2017-02-12T11:02:05.999Z</time>
      </trkpt>
      <trkpt lat="47.45522" lon="6.73668">
        <ele>509.5</ele>
        <time>2017-02-12T11:02:06.999Z</time>
      </trkpt>
      <trkpt lat="47.45524" lon="6.73669">
        <ele>509.4</ele>
        <time>2017-02-12T11:02:07.999Z</time>
      </trkpt>
      <trkpt lat="47.45527" lon="6.73671">
        <ele>509.2</ele>
        <time>2017-02-12T11:02:08.999Z</time>
      </trkpt>
      <trkpt lat="47.45529" lon="6.73673">
        <ele>509</ele>
        <time>2017-02-12T11:02:09.999Z</time>
      </trkpt>
      <trkpt lat="47.45532" lon="6.73673">
        <ele>508.9</ele>
        <time>2017-02-12T11:02:10.999Z</time>
      </trkpt>
      <trkpt lat="47.45534" lon="6.73674">
        <ele>508.8</ele>
        <time>2017-02-12T11:02:11.999Z</time>
      </trkpt>
      <trkpt lat="47.45537" lon="6.73675">
        <ele>508.6</ele>
        <time>2017-02-12T11:02:12.999Z</time>
      </trkpt>
      <trkpt lat="47.45539" lon="6.73675">
        <ele>508.5</ele>
        <time>2017-02-12T11:02:13.999Z</time>
      </trkpt>
      <trkpt lat="47.45541" lon="6.73676">
        <ele>508.4</ele>
        <time>2017-02-12T11:02:14.999Z</time>
      </trkpt>
      <trkpt lat="47.45543" lon="6.73677">
        <ele>508.2</ele>
        <time>2017-02-12T11:02:15.999Z</time>
      </trkpt>
      <trkpt lat="47.45545" lon="6.73678">
        <ele>508</ele>
        <time>2017-02-12T11:02:16.999Z</time>
      </trkpt>
      <trkpt lat="47.45549" lon="6.73679">
        <ele>507.8</ele>
        <time>2017-02-12T11:02:17.999Z</time>
      </trkpt>
      <trkpt lat="47.45552" lon="6.73681">
        <ele>507.2</ele>
        <time>2017-02-12T11:02:20.999Z</time>
      </trkpt>
      <trkpt lat="47.45554" lon="6.73681">
        <ele>507.1</ele>
        <time>2017-02-12T11:02:21.999Z</time>
      </trkpt>
      <trkpt lat="47.45558" lon="6.7368">
        <ele>506.7</ele>
        <time>2017-02-12T11:02:23.999Z</time>
      </trkpt>
      <trkpt lat="47.4556" lon="6.7368">
        <ele>506.5</ele>
        <time>2017-02-12T11:02:24.999Z</time>
      </trkpt>
      <trkpt lat="47.45562" lon="6.7368">
        <ele>506.5</ele>
        <time>2017-02-12T11:02:25.999Z</time>
      </trkpt>
      <trkpt lat="47.45564" lon="6.7368">
        <ele>506.4</ele>
        <time>2017-02-12T11:02:26.999Z</time>
      </trkpt>
      <trkpt lat="47.45567" lon="6.73679">
        <ele>506.4</ele>
        <time>2017-02-12T11:02:27.999Z</time>
      </trkpt>
      <trkpt lat="47.4557" lon="6.73679">
        <ele>506.3</ele>
        <time>2017-02-12T11:02:28.999Z</time>
      </trkpt>
      <trkpt lat="47.45574" lon="6.73679">
        <ele>506.2</ele>
        <time>2017-02-12T11:02:30.999Z</time>
      </trkpt>
      <trkpt lat="47.45577" lon="6.73679">
        <ele>506.1</ele>
        <time>2017-02-12T11:02:31.999Z</time>
      </trkpt>
      <trkpt lat="47.45579" lon="6.7368">
        <ele>506.1</ele>
        <time>2017-02-12T11:02:32.999Z</time>
      </trkpt>
      <trkpt lat="47.45581" lon="6.73681">
        <ele>506.1</ele>
        <time>2017-02-12T11:02:33.999Z</time>
      </trkpt>
      <trkpt lat="47.45583" lon="6.73681">
        <ele>506.2</ele>
        <time>2017-02-12T11:02:34.999Z</time>
      </trkpt>
      <trkpt lat="47.45586" lon="6.73682">
        <ele>506.3</ele>
        <time>2017-02-12T11:02:35.999Z</time>
      </trkpt>
      <trkpt lat="47.4559" lon="6.73682">
        <ele>506.4</ele>
        <time>2017-02-12T11:02:37.999Z</time>
      </trkpt>
      <trkpt lat="47.45592" lon="6.73683">
        <ele>506.4</ele>
        <time>2017-02-12T11:02:38.999Z</time>
      </trkpt>
      <trkpt lat="47.45594" lon="6.73682">
        <ele>506.5</ele>
        <time>2017-02-12T11:02:39.999Z</time>
      </trkpt>
      <trkpt lat="47.45597" lon="6.73681">
        <ele>506.6</ele>
        <time>2017-02-12T11:02:40.999Z</time>
      </trkpt>
      <trkpt lat="47.45599" lon="6.73681">
        <ele>506.7</ele>
        <time>2017-02-12T11:02:41.999Z</time>
      </trkpt>
      <trkpt lat="47.45602" lon="6.73681">
        <ele>506.9</ele>
        <time>2017-02-12T11:02:42.999Z</time>
      </trkpt>
      <trkpt lat="47.45604" lon="6.73682">
        <ele>507</ele>
        <time>2017-02-12T11:02:43.999Z</time>
      </trkpt>
      <trkpt lat="47.45607" lon="6.73683">
        <ele>507.2</ele>
        <time>2017-02-12T11:02:44.999Z</time>
      </trkpt>
      <trkpt lat="47.45609" lon="6.73683">
        <ele>507.5</ele>
        <time>2017-02-12T11:02:45.999Z</time>
      </trkpt>
      <trkpt lat="47.45611" lon="6.73684">
        <ele>507.8</ele>
        <time>2017-02-12T11:02:46.999Z</time>
      </trkpt>
      <trkpt lat="47.45614" lon="6.73684">
        <ele>508</ele>
        <time>2017-02-12T11:02:47.999Z</time>
      </trkpt>
      <trkpt lat="47.45617" lon="6.73684">
        <ele>508.3</ele>
        <time>2017-02-12T11:02:48.999Z</time>
      </trkpt>
      <trkpt lat="47.4562" lon="6.73683">
        <ele>508.7</ele>
        <time>2017-02-12T11:02:50.999Z</time>
      </trkpt>
      <trkpt lat="47.45623" lon="6.73684">
        <ele>508.8</ele>
        <time>2017-02-12T11:02:51.999Z</time>
      </trkpt>
      <trkpt lat="47.45625" lon="6.73684">
        <ele>509</ele>
        <time>2017-02-12T11:02:52.999Z</time>
      </trkpt>
      <trkpt lat="47.45628" lon="6.73683">
        <ele>509.1</ele>
        <time>2017-02-12T11:02:53.999Z</time>
      </trkpt>
      <trkpt lat="47.45632" lon="6.73683">
        <ele>509.3</ele>
        <time>2017-02-12T11:02:55.999Z</time>
      </trkpt>
      <trkpt lat="47.45634" lon="6.73683">
        <ele>509.5</ele>
        <time>2017-02-12T11:02:56.999Z</time>
      </trkpt>
      <trkpt lat="47.45637" lon="6.73683">
        <ele>504.9</ele>
        <time>2017-02-12T11:04:01.999Z</time>
      </trkpt>
      <trkpt lat="47.4564" lon="6.73705">
        <ele>504.8</ele>
        <time>2017-02-12T11:04:02.999Z</time>
      </trkpt>
      <trkpt lat="47.45639" lon="6.73709">
        <ele>504.8</ele>
        <time>2017-02-12T11:04:03.999Z</time>
      </trkpt>
      <trkpt lat="47.45636" lon="6.73714">
        <ele>504.7</ele>
        <time>2017-02-12T11:04:04.999Z</time>
      </trkpt>
      <trkpt lat="47.45634" lon="6.73718">
        <ele>504.8</ele>
        <time>2017-02-12T11:04:05.999Z</time>
      </trkpt>
      <trkpt lat="47.45631" lon="6.7372">
        <ele>504.8</ele>
        <time>2017-02-12T11:04:06.999Z</time>
      </trkpt>
      <trkpt lat="47.45629" lon="6.73722">
        <ele>504.9</ele>
        <time>2017-02-12T11:04:07.999Z</time>
      </trkpt>
      <trkpt lat="47.45627" lon="6.73727">
        <ele>505.8</ele>
        <time>2017-02-12T11:04:08.999Z</time>
      </trkpt>
      <trkpt lat="47.45625" lon="6.73732">
        <ele>506</ele>
        <time>2017-02-12T11:04:09.999Z</time>
      </trkpt>
      <trkpt lat="47.45624" lon="6.73736">
        <ele>506.1</ele>
        <time>2017-02-12T11:04:10.999Z</time>
      </trkpt>
      <trkpt lat="47.45622" lon="6.7374">
        <ele>506.2</ele>
        <time>2017-02-12T11:04:11.999Z</time>
      </trkpt>
      <trkpt lat="47.4562" lon="6.73746">
        <ele>506.2</ele>
        <time>2017-02-12T11:04:12.999Z</time>
      </trkpt>
      <trkpt lat="47.45619" lon="6.73754">
        <ele>506.4</ele>
        <time>2017-02-12T11:04:13.999Z</time>
      </trkpt>
      <trkpt lat="47.45618" lon="6.73769">
        <ele>506.3</ele>
        <time>2017-02-12T11:04:14.999Z</time>
      </trkpt>
      <trkpt lat="47.45617" lon="6.73779">
        <ele>506.2</ele>
        <time>2017-02-12T11:04:15.999Z</time>
      </trkpt>
      <trkpt lat="47.45616" lon="6.73787">
        <ele>505.9</ele>
        <time>2017-02-12T11:04:16.999Z</time>
      </trkpt>
      <trkpt lat="47.45615" lon="6.73795">
        <ele>505.9</ele>
        <time>2017-02-12T11:04:17.999Z</time>
      </trkpt>
      <trkpt lat="47.45614" lon="6.73803">
        <ele>506.7</ele>
        <time>2017-02-12T11:04:18.999Z</time>
      </trkpt>
      <trkpt lat="47.45614" lon="6.73811">
        <ele>507.5</ele>
        <time>2017-02-12T11:04:19.999Z</time>
      </trkpt>
      <trkpt lat="47.45614" lon="6.73819">
        <ele>508.2</ele>
        <time>2017-02-12T11:04:20.999Z</time>
      </trkpt>
      <trkpt lat="47.45613" lon="6.73826">
        <ele>509.2</ele>
        <time>2017-02-12T11:04:21.999Z</time>
      </trkpt>
      <trkpt lat="47.45612" lon="6.73835">
        <ele>509.5</ele>
        <time>2017-02-12T11:04:22.999Z</time>
      </trkpt>
      <trkpt lat="47.45612" lon="6.73845">
        <ele>510.3</ele>
        <time>2017-02-12T11:04:23.999Z</time>
      </trkpt>
      <trkpt lat="47.45614" lon="6.73854">
        <ele>510.2</ele>
        <time>2017-02-12T11:04:24.999Z</time>
      </trkpt>
      <trkpt lat="47.45615" lon="6.73862">
        <ele>511</ele>
        <time>2017-02-12T11:04:25.999Z</time>
      </trkpt>
      <trkpt lat="47.45616" lon="6.73869">
        <ele>511.2</ele>
        <time>2017-02-12T11:04:26.999Z</time>
      </trkpt>
      <trkpt lat="47.45617" lon="6.73879">
        <ele>511.4</ele>
        <time>2017-02-12T11:04:27.999Z</time>
      </trkpt>
      <trkpt lat="47.4562" lon="6.73889">
        <ele>512.8</ele>
        <time>2017-02-12T11:04:28.999Z</time>
      </trkpt>
      <trkpt lat="47.45626" lon="6.73897">
        <ele>513.4</ele>
        <time>2017-02-12T11:04:29.999Z</time>
      </trkpt>
      <trkpt lat="47.45633" lon="6.73905">
        <ele>513.7</ele>
        <time>2017-02-12T11:04:30.999Z</time>
      </trkpt>
      <trkpt lat="47.45638" lon="6.73912">
        <ele>512.4</ele>
        <time>2017-02-12T11:04:31.999Z</time>
      </trkpt>
      <trkpt lat="47.45641" lon="6.73917">
        <ele>510.9</ele>
        <time>2017-02-12T11:04:32.999Z</time>
      </trkpt>
      <trkpt lat="47.45645" lon="6.73927">
        <ele>509.3</ele>
        <time>2017-02-12T11:04:33.999Z</time>
      </trkpt>
      <trkpt lat="47.45649" lon="6.73938">
        <ele>507.2</ele>
        <time>2017-02-12T11:04:34.999Z</time>
      </trkpt>
      <trkpt lat="47.45655" lon="6.73946">
        <ele>504.7</ele>
        <time>2017-02-12T11:04:35.999Z</time>
      </trkpt>
      <trkpt lat="47.45662" lon="6.73954">
        <ele>502</ele>
        <time>2017-02-12T11:04:36.999Z</time>
      </trkpt>
      <trkpt lat="47.45669" lon="6.73962">
        <ele>499.6</ele>
        <time>2017-02-12T11:04:37.999Z</time>
      </trkpt>
      <trkpt lat="47.45674" lon="6.7397">
        <ele>497.3</ele>
        <time>2017-02-12T11:04:38.999Z</time>
      </trkpt>
      <trkpt lat="47.45679" lon="6.73976">
        <ele>495.2</ele>
        <time>2017-02-12T11:04:39.999Z</time>
      </trkpt>
      <trkpt lat="47.45684" lon="6.73983">
        <ele>492.8</ele>
        <time>2017-02-12T11:04:40.999Z</time>
      </trkpt>
      <trkpt lat="47.45687" lon="6.7399">
        <ele>490.4</ele>
        <time>2017-02-12T11:04:41.999Z</time>
      </trkpt>
      <trkpt lat="47.45689" lon="6.73998">
        <ele>488.6</ele>
        <time>2017-02-12T11:04:42.999Z</time>
      </trkpt>
      <trkpt lat="47.45695" lon="6.74005">
        <ele>488.2</ele>
        <time>2017-02-12T11:04:43.999Z</time>
      </trkpt>
      <trkpt lat="47.45701" lon="6.74009">
        <ele>488</ele>
        <time>2017-02-12T11:04:44.999Z</time>
      </trkpt>
      <trkpt lat="47.45709" lon="6.74013">
        <ele>487.7</ele>
        <time>2017-02-12T11:04:45.999Z</time>
      </trkpt>
      <trkpt lat="47.45716" lon="6.74021">
        <ele>486.9</ele>
        <time>2017-02-12T11:04:46.999Z</time>
      </trkpt>
      <trkpt lat="47.45723" lon="6.74027">
        <ele>486.9</ele>
        <time>2017-02-12T11:04:47.999Z</time>
      </trkpt>
      <trkpt lat="47.4573" lon="6.74034">
        <ele>486.8</ele>
        <time>2017-02-12T11:04:48.999Z</time>
      </trkpt>
      <trkpt lat="47.45736" lon="6.7404">
        <ele>486.2</ele>
        <time>2017-02-12T11:04:49.999Z</time>
      </trkpt>
      <trkpt lat="47.45741" lon="6.74046">
        <ele>485.6</ele>
        <time>2017-02-12T11:04:50.999Z</time>
      </trkpt>
      <trkpt lat="47.45744" lon="6.74052">
        <ele>485.2</ele>
        <time>2017-02-12T11:04:51.999Z</time>
      </trkpt>
      <trkpt lat="47.45747" lon="6.74059">
        <ele>485.2</ele>
        <time>2017-02-12T11:04:52.999Z</time>
      </trkpt>
      <trkpt lat="47.4575" lon="6.74067">
        <ele>485.1</ele>
        <time>2017-02-12T11:04:53.999Z</time>
      </trkpt>
      <trkpt lat="47.45753" lon="6.74074">
        <ele>485.4</ele>
        <time>2017-02-12T11:04:54.999Z</time>
      </trkpt>
      <trkpt lat="47.45757" lon="6.74083">
        <ele>485.2</ele>
        <time>2017-02-12T11:04:55.999Z</time>
      </trkpt>
      <trkpt lat="47.45761" lon="6.74091">
        <ele>484.3</ele>
        <time>2017-02-12T11:04:56.999Z</time>
      </trkpt>
      <trkpt lat="47.45764" lon="6.741">
        <ele>483.6</ele>
        <time>2017-02-12T11:04:57.999Z</time>
      </trkpt>
      <trkpt lat="47.45768" lon="6.74109">
        <ele>482.7</ele>
        <time>2017-02-12T11:04:58.999Z</time>
      </trkpt>
      <trkpt lat="47.45774" lon="6.7412">
        <ele>481.8</ele>
        <time>2017-02-12T11:04:59.999Z</time>
      </trkpt>
      <trkpt lat="47.45779" lon="6.74129">
        <ele>480.9</ele>
        <time>2017-02-12T11:05:00.999Z</time>
      </trkpt>
      <trkpt lat="47.45785" lon="6.74137">
        <ele>480.9</ele>
        <time>2017-02-12T11:05:01.999Z</time>
      </trkpt>
      <trkpt lat="47.45789" lon="6.74144">
        <ele>479.6</ele>
        <time>2017-02-12T11:05:02.999Z</time>
      </trkpt>
      <trkpt lat="47.45793" lon="6.74151">
        <ele>478.1</ele>
        <time>2017-02-12T11:05:03.999Z</time>
      </trkpt>
      <trkpt lat="47.45797" lon="6.74153">
        <ele>478</ele>
        <time>2017-02-12T11:05:04.999Z</time>
      </trkpt>
      <trkpt lat="47.45801" lon="6.74155">
        <ele>477.9</ele>
        <time>2017-02-12T11:05:05.999Z</time>
      </trkpt>
      <trkpt lat="47.45804" lon="6.74158">
        <ele>478</ele>
        <time>2017-02-12T11:05:06.999Z</time>
      </trkpt>
      <trkpt lat="47.45809" lon="6.74163">
        <ele>478</ele>
        <time>2017-02-12T11:05:07.999Z</time>
      </trkpt>
      <trkpt lat="47.45814" lon="6.74169">
        <ele>478</ele>
        <time>2017-02-12T11:05:08.999Z</time>
      </trkpt>
      <trkpt lat="47.45821" lon="6.74175">
        <ele>477.6</ele>
        <time>2017-02-12T11:05:09.999Z</time>
      </trkpt>
      <trkpt lat="47.45827" lon="6.7418">
        <ele>476.9</ele>
        <time>2017-02-12T11:05:10.999Z</time>
      </trkpt>
      <trkpt lat="47.4583" lon="6.74183">
        <ele>476.9</ele>
        <time>2017-02-12T11:05:11.999Z</time>
      </trkpt>
      <trkpt lat="47.45833" lon="6.74184">
        <ele>476.9</ele>
        <time>2017-02-12T11:05:12.999Z</time>
      </trkpt>
      <trkpt lat="47.45836" lon="6.74185">
        <ele>476.9</ele>
        <time>2017-02-12T11:05:13.999Z</time>
      </trkpt>
      <trkpt lat="47.45839" lon="6.74188">
        <ele>476.8</ele>
        <time>2017-02-12T11:05:14.999Z</time>
      </trkpt>
      <trkpt lat="47.45844" lon="6.74191">
        <ele>477.4</ele>
        <time>2017-02-12T11:05:15.999Z</time>
      </trkpt>
      <trkpt lat="47.45849" lon="6.74194">
        <ele>477.6</ele>
        <time>2017-02-12T11:05:16.999Z</time>
      </trkpt>
      <trkpt lat="47.45854" lon="6.74194">
        <ele>477.6</ele>
        <time>2017-02-12T11:05:17.999Z</time>
      </trkpt>
      <trkpt lat="47.45858" lon="6.74193">
        <ele>477.6</ele>
        <time>2017-02-12T11:05:18.999Z</time>
      </trkpt>
      <trkpt lat="47.45862" lon="6.74194">
        <ele>477.6</ele>
        <time>2017-02-12T11:05:19.999Z</time>
      </trkpt>
      <trkpt lat="47.45866" lon="6.74196">
        <ele>477.6</ele>
        <time>2017-02-12T11:05:20.999Z</time>
      </trkpt>
      <trkpt lat="47.45871" lon="6.74198">
        <ele>477.7</ele>
        <time>2017-02-12T11:05:21.999Z</time>
      </trkpt>
      <trkpt lat="47.45876" lon="6.74198">
        <ele>477.7</ele>
        <time>2017-02-12T11:05:22.999Z</time>
      </trkpt>
      <trkpt lat="47.4588" lon="6.74199">
        <ele>477.7</ele>
        <time>2017-02-12T11:05:23.999Z</time>
      </trkpt>
      <trkpt lat="47.45884" lon="6.742">
        <ele>477.2</ele>
        <time>2017-02-12T11:05:24.999Z</time>
      </trkpt>
      <trkpt lat="47.4589" lon="6.74201">
        <ele>477</ele>
        <time>2017-02-12T11:05:25.999Z</time>
      </trkpt>
      <trkpt lat="47.45894" lon="6.74202">
        <ele>477.2</ele>
        <time>2017-02-12T11:05:26.999Z</time>
      </trkpt>
      <trkpt lat="47.45898" lon="6.74202">
        <ele>477</ele>
        <time>2017-02-12T11:05:27.999Z</time>
      </trkpt>
      <trkpt lat="47.45901" lon="6.74202">
        <ele>476.9</ele>
        <time>2017-02-12T11:05:28.999Z</time>
      </trkpt>
      <trkpt lat="47.45905" lon="6.74204">
        <ele>476.8</ele>
        <time>2017-02-12T11:05:29.999Z</time>
      </trkpt>
      <trkpt lat="47.45909" lon="6.74204">
        <ele>475.8</ele>
        <time>2017-02-12T11:05:30.999Z</time>
      </trkpt>
      <trkpt lat="47.45913" lon="6.74204">
        <ele>475.8</ele>
        <time>2017-02-12T11:05:31.999Z</time>
      </trkpt>
      <trkpt lat="47.45917" lon="6.74203">
        <ele>475.7</ele>
        <time>2017-02-12T11:05:32.999Z</time>
      </trkpt>
      <trkpt lat="47.4592" lon="6.74204">
        <ele>475.8</ele>
        <time>2017-02-12T11:05:33.999Z</time>
      </trkpt>
      <trkpt lat="47.45926" lon="6.74206">
        <ele>475.7</ele>
        <time>2017-02-12T11:05:34.999Z</time>
      </trkpt>
      <trkpt lat="47.45931" lon="6.74207">
        <ele>475.3</ele>
        <time>2017-02-12T11:05:35.999Z</time>
      </trkpt>
      <trkpt lat="47.45935" lon="6.74204">
        <ele>475.3</ele>
        <time>2017-02-12T11:05:36.999Z</time>
      </trkpt>
      <trkpt lat="47.4594" lon="6.74201">
        <ele>475.2</ele>
        <time>2017-02-12T11:05:37.999Z</time>
      </trkpt>
      <trkpt lat="47.45944" lon="6.74199">
        <ele>475.5</ele>
        <time>2017-02-12T11:05:38.999Z</time>
      </trkpt>
      <trkpt lat="47.4595" lon="6.74199">
        <ele>475.5</ele>
        <time>2017-02-12T11:05:39.999Z</time>
      </trkpt>
      <trkpt lat="47.45955" lon="6.74201">
        <ele>475.1</ele>
        <time>2017-02-12T11:05:40.999Z</time>
      </trkpt>
      <trkpt lat="47.45959" lon="6.74203">
        <ele>475.1</ele>
        <time>2017-02-12T11:05:41.999Z</time>
      </trkpt>
      <trkpt lat="47.45963" lon="6.74205">
        <ele>475.1</ele>
        <time>2017-02-12T11:05:42.999Z</time>
      </trkpt>
      <trkpt lat="47.45966" lon="6.74207">
        <ele>475.1</ele>
        <time>2017-02-12T11:05:43.999Z</time>
      </trkpt>
      <trkpt lat="47.4597" lon="6.74211">
        <ele>475.1</ele>
        <time>2017-02-12T11:05:44.999Z</time>
      </trkpt>
      <trkpt lat="47.45974" lon="6.74215">
        <ele>475</ele>
        <time>2017-02-12T11:05:45.999Z</time>
      </trkpt>
      <trkpt lat="47.45978" lon="6.74218">
        <ele>474.9</ele>
        <time>2017-02-12T11:05:46.999Z</time>
      </trkpt>
      <trkpt lat="47.45983" lon="6.74223">
        <ele>473.6</ele>
        <time>2017-02-12T11:05:47.999Z</time>
      </trkpt>
      <trkpt lat="47.45987" lon="6.74226">
        <ele>473.4</ele>
        <time>2017-02-12T11:05:48.999Z</time>
      </trkpt>
      <trkpt lat="47.45991" lon="6.74228">
        <ele>473.2</ele>
        <time>2017-02-12T11:05:49.999Z</time>
      </trkpt>
      <trkpt lat="47.45996" lon="6.74228">
        <ele>473</ele>
        <time>2017-02-12T11:05:50.999Z</time>
      </trkpt>
      <trkpt lat="47.45999" lon="6.74227">
        <ele>472.9</ele>
        <time>2017-02-12T11:05:51.999Z</time>
      </trkpt>
      <trkpt lat="47.46002" lon="6.74225">
        <ele>472.7</ele>
        <time>2017-02-12T11:05:53.999Z</time>
      </trkpt>
      <trkpt lat="47.46006" lon="6.74224">
        <ele>472.6</ele>
        <time>2017-02-12T11:05:54.999Z</time>
      </trkpt>
      <trkpt lat="47.46009" lon="6.74223">
        <ele>472.5</ele>
        <time>2017-02-12T11:05:55.999Z</time>
      </trkpt>
      <trkpt lat="47.46012" lon="6.74222">
        <ele>472.5</ele>
        <time>2017-02-12T11:05:56.999Z</time>
      </trkpt>
      <trkpt lat="47.46014" lon="6.7422">
        <ele>472.5</ele>
        <time>2017-02-12T11:05:57.999Z</time>
      </trkpt>
      <trkpt lat="47.46017" lon="6.74219">
        <ele>472.4</ele>
        <time>2017-02-12T11:05:58.999Z</time>
      </trkpt>
      <trkpt lat="47.4602" lon="6.74219">
        <ele>472.3</ele>
        <time>2017-02-12T11:05:59.999Z</time>
      </trkpt>
      <trkpt lat="47.46023" lon="6.74218">
        <ele>472.3</ele>
        <time>2017-02-12T11:06:00.999Z</time>
      </trkpt>
      <trkpt lat="47.46026" lon="6.74218">
        <ele>472.2</ele>
        <time>2017-02-12T11:06:01.999Z</time>
      </trkpt>
      <trkpt lat="47.46028" lon="6.74217">
        <ele>472.1</ele>
        <time>2017-02-12T11:06:02.999Z</time>
      </trkpt>
      <trkpt lat="47.46032" lon="6.74217">
        <ele>471.8</ele>
        <time>2017-02-12T11:06:04.999Z</time>
      </trkpt>
      <trkpt lat="47.46035" lon="6.74218">
        <ele>471.7</ele>
        <time>2017-02-12T11:06:05.999Z</time>
      </trkpt>
      <trkpt lat="47.46038" lon="6.74218">
        <ele>471.5</ele>
        <time>2017-02-12T11:06:06.999Z</time>
      </trkpt>
      <trkpt lat="47.46041" lon="6.74218">
        <ele>471.4</ele>
        <time>2017-02-12T11:06:07.999Z</time>
      </trkpt>
      <trkpt lat="47.46043" lon="6.74218">
        <ele>471.2</ele>
        <time>2017-02-12T11:06:08.999Z</time>
      </trkpt>
      <trkpt lat="47.46047" lon="6.74218">
        <ele>471.2</ele>
        <time>2017-02-12T11:06:09.999Z</time>
      </trkpt>
      <trkpt lat="47.4605" lon="6.74218">
        <ele>471.1</ele>
        <time>2017-02-12T11:06:10.999Z</time>
      </trkpt>
      <trkpt lat="47.46054" lon="6.74219">
        <ele>471</ele>
        <time>2017-02-12T11:06:11.999Z</time>
      </trkpt>
      <trkpt lat="47.46057" lon="6.74219">
        <ele>470.9</ele>
        <time>2017-02-12T11:06:12.999Z</time>
      </trkpt>
      <trkpt lat="47.46061" lon="6.74217">
        <ele>470.9</ele>
        <time>2017-02-12T11:06:13.999Z</time>
      </trkpt>
      <trkpt lat="47.46064" lon="6.74218">
        <ele>470.7</ele>
        <time>2017-02-12T11:06:15.999Z</time>
      </trkpt>
      <trkpt lat="47.46067" lon="6.74221">
        <ele>470.7</ele>
        <time>2017-02-12T11:06:16.999Z</time>
      </trkpt>
      <trkpt lat="47.4607" lon="6.74223">
        <ele>470.6</ele>
        <time>2017-02-12T11:06:17.999Z</time>
      </trkpt>
      <trkpt lat="47.46073" lon="6.74223">
        <ele>470.4</ele>
        <time>2017-02-12T11:06:18.999Z</time>
      </trkpt>
      <trkpt lat="47.46076" lon="6.74224">
        <ele>470.2</ele>
        <time>2017-02-12T11:06:19.999Z</time>
      </trkpt>
      <trkpt lat="47.4608" lon="6.74224">
        <ele>470.1</ele>
        <time>2017-02-12T11:06:20.999Z</time>
      </trkpt>
      <trkpt lat="47.46083" lon="6.74227">
        <ele>470.1</ele>
        <time>2017-02-12T11:06:21.999Z</time>
      </trkpt>
      <trkpt lat="47.46085" lon="6.7423">
        <ele>470</ele>
        <time>2017-02-12T11:06:22.999Z</time>
      </trkpt>
      <trkpt lat="47.46089" lon="6.74234">
        <ele>470</ele>
        <time>2017-02-12T11:06:23.999Z</time>
      </trkpt>
      <trkpt lat="47.46095" lon="6.74236">
        <ele>469.2</ele>
        <time>2017-02-12T11:06:24.999Z</time>
      </trkpt>
      <trkpt lat="47.461" lon="6.74236">
        <ele>468.4</ele>
        <time>2017-02-12T11:06:25.999Z</time>
      </trkpt>
      <trkpt lat="47.46105" lon="6.74236">
        <ele>468.3</ele>
        <time>2017-02-12T11:06:26.999Z</time>
      </trkpt>
      <trkpt lat="47.46108" lon="6.74234">
        <ele>468.3</ele>
        <time>2017-02-12T11:06:27.999Z</time>
      </trkpt>
      <trkpt lat="47.46111" lon="6.74234">
        <ele>468.3</ele>
        <time>2017-02-12T11:06:28.999Z</time>
      </trkpt>
      <trkpt lat="47.46116" lon="6.74236">
        <ele>467.2</ele>
        <time>2017-02-12T11:06:29.999Z</time>
      </trkpt>
      <trkpt lat="47.4612" lon="6.74236">
        <ele>467.2</ele>
        <time>2017-02-12T11:06:30.999Z</time>
      </trkpt>
      <trkpt lat="47.46124" lon="6.74235">
        <ele>467.1</ele>
        <time>2017-02-12T11:06:31.999Z</time>
      </trkpt>
      <trkpt lat="47.46129" lon="6.74235">
        <ele>467.1</ele>
        <time>2017-02-12T11:06:32.999Z</time>
      </trkpt>
      <trkpt lat="47.46134" lon="6.74235">
        <ele>468</ele>
        <time>2017-02-12T11:06:33.999Z</time>
      </trkpt>
      <trkpt lat="47.46137" lon="6.74234">
        <ele>468</ele>
        <time>2017-02-12T11:06:34.999Z</time>
      </trkpt>
      <trkpt lat="47.4614" lon="6.74234">
        <ele>468</ele>
        <time>2017-02-12T11:06:35.999Z</time>
      </trkpt>
      <trkpt lat="47.46145" lon="6.74236">
        <ele>468.1</ele>
        <time>2017-02-12T11:06:36.999Z</time>
      </trkpt>
      <trkpt lat="47.4615" lon="6.74238">
        <ele>467.8</ele>
        <time>2017-02-12T11:06:37.999Z</time>
      </trkpt>
      <trkpt lat="47.46155" lon="6.7424">
        <ele>467.8</ele>
        <time>2017-02-12T11:06:38.999Z</time>
      </trkpt>
      <trkpt lat="47.4616" lon="6.74242">
        <ele>467.8</ele>
        <time>2017-02-12T11:06:39.999Z</time>
      </trkpt>
      <trkpt lat="47.46163" lon="6.74242">
        <ele>467.8</ele>
        <time>2017-02-12T11:06:40.999Z</time>
      </trkpt>
      <trkpt lat="47.46165" lon="6.74243">
        <ele>467.8</ele>
        <time>2017-02-12T11:06:41.999Z</time>
      </trkpt>
      <trkpt lat="47.46169" lon="6.74245">
        <ele>467.7</ele>
        <time>2017-02-12T11:06:42.999Z</time>
      </trkpt>
      <trkpt lat="47.46173" lon="6.74245">
        <ele>467.6</ele>
        <time>2017-02-12T11:06:43.999Z</time>
      </trkpt>
      <trkpt lat="47.46176" lon="6.74246">
        <ele>467.6</ele>
        <time>2017-02-12T11:06:44.999Z</time>
      </trkpt>
      <trkpt lat="47.4618" lon="6.74248">
        <ele>467.5</ele>
        <time>2017-02-12T11:06:45.999Z</time>
      </trkpt>
      <trkpt lat="47.46183" lon="6.74249">
        <ele>467.4</ele>
        <time>2017-02-12T11:06:46.999Z</time>
      </trkpt>
      <trkpt lat="47.46187" lon="6.74251">
        <ele>467.3</ele>
        <time>2017-02-12T11:06:47.999Z</time>
      </trkpt>
      <trkpt lat="47.46191" lon="6.74253">
        <ele>467.2</ele>
        <time>2017-02-12T11:06:48.999Z</time>
      </trkpt>
      <trkpt lat="47.46196" lon="6.74255">
        <ele>466.9</ele>
        <time>2017-02-12T11:06:49.999Z</time>
      </trkpt>
      <trkpt lat="47.46201" lon="6.74255">
        <ele>467.5</ele>
        <time>2017-02-12T11:06:50.999Z</time>
      </trkpt>
      <trkpt lat="47.46203" lon="6.74257">
        <ele>467.5</ele>
        <time>2017-02-12T11:06:51.999Z</time>
      </trkpt>
      <trkpt lat="47.46206" lon="6.7426">
        <ele>466.8</ele>
        <time>2017-02-12T11:06:52.999Z</time>
      </trkpt>
      <trkpt lat="47.4621" lon="6.74264">
        <ele>465.1</ele>
        <time>2017-02-12T11:06:53.999Z</time>
      </trkpt>
      <trkpt lat="47.46215" lon="6.74268">
        <ele>464</ele>
        <time>2017-02-12T11:06:54.999Z</time>
      </trkpt>
      <trkpt lat="47.4622" lon="6.7427">
        <ele>463.6</ele>
        <time>2017-02-12T11:06:55.999Z</time>
      </trkpt>
      <trkpt lat="47.46225" lon="6.7427">
        <ele>463.6</ele>
        <time>2017-02-12T11:06:56.999Z</time>
      </trkpt>
      <trkpt lat="47.46228" lon="6.74272">
        <ele>463.6</ele>
        <time>2017-02-12T11:06:57.999Z</time>
      </trkpt>
      <trkpt lat="47.46233" lon="6.74275">
        <ele>463.6</ele>
        <time>2017-02-12T11:06:58.999Z</time>
      </trkpt>
      <trkpt lat="47.46238" lon="6.74275">
        <ele>463.6</ele>
        <time>2017-02-12T11:06:59.999Z</time>
      </trkpt>
      <trkpt lat="47.46243" lon="6.74277">
        <ele>463.6</ele>
        <time>2017-02-12T11:07:00.999Z</time>
      </trkpt>
      <trkpt lat="47.46247" lon="6.7428">
        <ele>464.3</ele>
        <time>2017-02-12T11:07:01.999Z</time>
      </trkpt>
      <trkpt lat="47.46251" lon="6.74283">
        <ele>464.2</ele>
        <time>2017-02-12T11:07:02.999Z</time>
      </trkpt>
      <trkpt lat="47.46255" lon="6.74285">
        <ele>464.2</ele>
        <time>2017-02-12T11:07:03.999Z</time>
      </trkpt>
      <trkpt lat="47.46259" lon="6.74286">
        <ele>464.2</ele>
        <time>2017-02-12T11:07:04.999Z</time>
      </trkpt>
      <trkpt lat="47.46263" lon="6.74288">
        <ele>464.2</ele>
        <time>2017-02-12T11:07:05.999Z</time>
      </trkpt>
      <trkpt lat="47.46267" lon="6.74286">
        <ele>464.2</ele>
        <time>2017-02-12T11:07:06.999Z</time>
      </trkpt>
      <trkpt lat="47.46269" lon="6.74282">
        <ele>464.1</ele>
        <time>2017-02-12T11:07:08.999Z</time>
      </trkpt>
      <trkpt lat="47.46272" lon="6.74284">
        <ele>464</ele>
        <time>2017-02-12T11:07:09.999Z</time>
      </trkpt>
      <trkpt lat="47.46274" lon="6.74286">
        <ele>464</ele>
        <time>2017-02-12T11:07:10.999Z</time>
      </trkpt>
      <trkpt lat="47.46277" lon="6.7429">
        <ele>463.9</ele>
        <time>2017-02-12T11:07:11.999Z</time>
      </trkpt>
      <trkpt lat="47.4628" lon="6.74295">
        <ele>463.8</ele>
        <time>2017-02-12T11:07:12.999Z</time>
      </trkpt>
      <trkpt lat="47.46284" lon="6.74295">
        <ele>463.7</ele>
        <time>2017-02-12T11:07:13.999Z</time>
      </trkpt>
      <trkpt lat="47.46288" lon="6.74296">
        <ele>463.7</ele>
        <time>2017-02-12T11:07:14.999Z</time>
      </trkpt>
      <trkpt lat="47.46292" lon="6.74297">
        <ele>463.5</ele>
        <time>2017-02-12T11:07:15.999Z</time>
      </trkpt>
      <trkpt lat="47.46295" lon="6.74296">
        <ele>463.3</ele>
        <time>2017-02-12T11:07:16.999Z</time>
      </trkpt>
      <trkpt lat="47.46299" lon="6.74295">
        <ele>463.1</ele>
        <time>2017-02-12T11:07:17.999Z</time>
      </trkpt>
      <trkpt lat="47.46302" lon="6.74296">
        <ele>463</ele>
        <time>2017-02-12T11:07:18.999Z</time>
      </trkpt>
      <trkpt lat="47.46305" lon="6.74299">
        <ele>462.8</ele>
        <time>2017-02-12T11:07:19.999Z</time>
      </trkpt>
      <trkpt lat="47.46309" lon="6.743">
        <ele>462.6</ele>
        <time>2017-02-12T11:07:20.999Z</time>
      </trkpt>
      <trkpt lat="47.46314" lon="6.74302">
        <ele>462.4</ele>
        <time>2017-02-12T11:07:21.999Z</time>
      </trkpt>
      <trkpt lat="47.46319" lon="6.74303">
        <ele>460</ele>
        <time>2017-02-12T11:07:22.999Z</time>
      </trkpt>
      <trkpt lat="47.46324" lon="6.74305">
        <ele>459.9</ele>
        <time>2017-02-12T11:07:23.999Z</time>
      </trkpt>
      <trkpt lat="47.46328" lon="6.74304">
        <ele>459.7</ele>
        <time>2017-02-12T11:07:24.999Z</time>
      </trkpt>
      <trkpt lat="47.46332" lon="6.74305">
        <ele>459.5</ele>
        <time>2017-02-12T11:07:25.999Z</time>
      </trkpt>
      <trkpt lat="47.46337" lon="6.74305">
        <ele>459.3</ele>
        <time>2017-02-12T11:07:26.999Z</time>
      </trkpt>
      <trkpt lat="47.46341" lon="6.74306">
        <ele>459.2</ele>
        <time>2017-02-12T11:07:27.999Z</time>
      </trkpt>
      <trkpt lat="47.46345" lon="6.74306">
        <ele>459.1</ele>
        <time>2017-02-12T11:07:28.999Z</time>
      </trkpt>
      <trkpt lat="47.46348" lon="6.74308">
        <ele>458.4</ele>
        <time>2017-02-12T11:07:29.999Z</time>
      </trkpt>
      <trkpt lat="47.46352" lon="6.74312">
        <ele>457.2</ele>
        <time>2017-02-12T11:07:30.999Z</time>
      </trkpt>
      <trkpt lat="47.46356" lon="6.74314">
        <ele>457.2</ele>
        <time>2017-02-12T11:07:31.999Z</time>
      </trkpt>
      <trkpt lat="47.46361" lon="6.74315">
        <ele>456.6</ele>
        <time>2017-02-12T11:07:32.999Z</time>
      </trkpt>
      <trkpt lat="47.46363" lon="6.74317">
        <ele>456.5</ele>
        <time>2017-02-12T11:07:33.999Z</time>
      </trkpt>
      <trkpt lat="47.46367" lon="6.7432">
        <ele>456.5</ele>
        <time>2017-02-12T11:07:34.999Z</time>
      </trkpt>
      <trkpt lat="47.46372" lon="6.74321">
        <ele>455.5</ele>
        <time>2017-02-12T11:07:35.999Z</time>
      </trkpt>
      <trkpt lat="47.46376" lon="6.74323">
        <ele>454.2</ele>
        <time>2017-02-12T11:07:36.999Z</time>
      </trkpt>
      <trkpt lat="47.46379" lon="6.74326">
        <ele>454.1</ele>
        <time>2017-02-12T11:07:37.999Z</time>
      </trkpt>
      <trkpt lat="47.46383" lon="6.74331">
        <ele>454.1</ele>
        <time>2017-02-12T11:07:38.999Z</time>
      </trkpt>
      <trkpt lat="47.46387" lon="6.74331">
        <ele>454.1</ele>
        <time>2017-02-12T11:07:39.999Z</time>
      </trkpt>
      <trkpt lat="47.46392" lon="6.74333">
        <ele>454.5</ele>
        <time>2017-02-12T11:07:40.999Z</time>
      </trkpt>
      <trkpt lat="47.46397" lon="6.74335">
        <ele>454.4</ele>
        <time>2017-02-12T11:07:41.999Z</time>
      </trkpt>
      <trkpt lat="47.464" lon="6.74337">
        <ele>454.5</ele>
        <time>2017-02-12T11:07:42.999Z</time>
      </trkpt>
      <trkpt lat="47.46403" lon="6.74339">
        <ele>454.8</ele>
        <time>2017-02-12T11:07:43.999Z</time>
      </trkpt>
      <trkpt lat="47.46408" lon="6.74342">
        <ele>454.1</ele>
        <time>2017-02-12T11:07:44.999Z</time>
      </trkpt>
      <trkpt lat="47.46412" lon="6.74345">
        <ele>453.9</ele>
        <time>2017-02-12T11:07:45.999Z</time>
      </trkpt>
      <trkpt lat="47.46417" lon="6.7435">
        <ele>453.8</ele>
        <time>2017-02-12T11:07:46.999Z</time>
      </trkpt>
      <trkpt lat="47.46422" lon="6.7435">
        <ele>453.7</ele>
        <time>2017-02-12T11:07:47.999Z</time>
      </trkpt>
      <trkpt lat="47.46426" lon="6.74349">
        <ele>453.6</ele>
        <time>2017-02-12T11:07:48.999Z</time>
      </trkpt>
      <trkpt lat="47.46429" lon="6.74351">
        <ele>453.5</ele>
        <time>2017-02-12T11:07:49.999Z</time>
      </trkpt>
      <trkpt lat="47.46431" lon="6.74356">
        <ele>451.4</ele>
        <time>2017-02-12T11:07:50.999Z</time>
      </trkpt>
      <trkpt lat="47.46433" lon="6.7436">
        <ele>451.3</ele>
        <time>2017-02-12T11:07:51.999Z</time>
      </trkpt>
      <trkpt lat="47.46436" lon="6.74361">
        <ele>451.2</ele>
        <time>2017-02-12T11:07:52.999Z</time>
      </trkpt>
      <trkpt lat="47.4644" lon="6.74364">
        <ele>451.2</ele>
        <time>2017-02-12T11:07:53.999Z</time>
      </trkpt>
      <trkpt lat="47.46444" lon="6.74369">
        <ele>451</ele>
        <time>2017-02-12T11:07:54.999Z</time>
      </trkpt>
      <trkpt lat="47.46448" lon="6.74375">
        <ele>450.3</ele>
        <time>2017-02-12T11:07:55.999Z</time>
      </trkpt>
      <trkpt lat="47.46452" lon="6.74381">
        <ele>449.4</ele>
        <time>2017-02-12T11:07:56.999Z</time>
      </trkpt>
      <trkpt lat="47.46457" lon="6.74387">
        <ele>448.7</ele>
        <time>2017-02-12T11:07:57.999Z</time>
      </trkpt>
      <trkpt lat="47.46464" lon="6.74395">
        <ele>447.7</ele>
        <time>2017-02-12T11:07:58.999Z</time>
      </trkpt>
      <trkpt lat="47.4647" lon="6.74403">
        <ele>446.9</ele>
        <time>2017-02-12T11:07:59.999Z</time>
      </trkpt>
      <trkpt lat="47.46476" lon="6.74411">
        <ele>446.4</ele>
        <time>2017-02-12T11:08:00.999Z</time>
      </trkpt>
      <trkpt lat="47.46481" lon="6.74417">
        <ele>445.2</ele>
        <time>2017-02-12T11:08:01.999Z</time>
      </trkpt>
      <trkpt lat="47.46486" lon="6.74423">
        <ele>444.7</ele>
        <time>2017-02-12T11:08:02.999Z</time>
      </trkpt>
      <trkpt lat="47.46492" lon="6.74429">
        <ele>444.1</ele>
        <time>2017-02-12T11:08:03.999Z</time>
      </trkpt>
      <trkpt lat="47.46496" lon="6.74436">
        <ele>443.4</ele>
        <time>2017-02-12T11:08:04.999Z</time>
      </trkpt>
      <trkpt lat="47.46502" lon="6.74444">
        <ele>442.2</ele>
        <time>2017-02-12T11:08:05.999Z</time>
      </trkpt>
      <trkpt lat="47.46509" lon="6.74449">
        <ele>441.6</ele>
        <time>2017-02-12T11:08:06.999Z</time>
      </trkpt>
      <trkpt lat="47.46516" lon="6.74454">
        <ele>441.3</ele>
        <time>2017-02-12T11:08:07.999Z</time>
      </trkpt>
      <trkpt lat="47.46521" lon="6.7446">
        <ele>441.3</ele>
        <time>2017-02-12T11:08:08.999Z</time>
      </trkpt>
      <trkpt lat="47.46525" lon="6.74467">
        <ele>440</ele>
        <time>2017-02-12T11:08:09.999Z</time>
      </trkpt>
      <trkpt lat="47.46526" lon="6.74472">
        <ele>439.1</ele>
        <time>2017-02-12T11:08:10.999Z</time>
      </trkpt>
      <trkpt lat="47.46529" lon="6.74477">
        <ele>438.8</ele>
        <time>2017-02-12T11:08:11.999Z</time>
      </trkpt>
      <trkpt lat="47.46532" lon="6.74484">
        <ele>438.9</ele>
        <time>2017-02-12T11:08:12.999Z</time>
      </trkpt>
      <trkpt lat="47.46537" lon="6.74492">
        <ele>438.6</ele>
        <time>2017-02-12T11:08:13.999Z</time>
      </trkpt>
      <trkpt lat="47.46543" lon="6.74502">
        <ele>438.2</ele>
        <time>2017-02-12T11:08:14.999Z</time>
      </trkpt>
      <trkpt lat="47.46548" lon="6.74509">
        <ele>437.4</ele>
        <time>2017-02-12T11:08:15.999Z</time>
      </trkpt>
      <trkpt lat="47.46554" lon="6.74517">
        <ele>436.3</ele>
        <time>2017-02-12T11:08:16.999Z</time>
      </trkpt>
      <trkpt lat="47.46561" lon="6.74525">
        <ele>435.9</ele>
        <time>2017-02-12T11:08:17.999Z</time>
      </trkpt>
      <trkpt lat="47.46566" lon="6.74534">
        <ele>435.9</ele>
        <time>2017-02-12T11:08:18.999Z</time>
      </trkpt>
      <trkpt lat="47.46572" lon="6.74543">
        <ele>435.8</ele>
        <time>2017-02-12T11:08:19.999Z</time>
      </trkpt>
      <trkpt lat="47.46578" lon="6.74553">
        <ele>435.8</ele>
        <time>2017-02-12T11:08:20.999Z</time>
      </trkpt>
      <trkpt lat="47.46585" lon="6.74563">
        <ele>434.6</ele>
        <time>2017-02-12T11:08:21.999Z</time>
      </trkpt>
      <trkpt lat="47.46592" lon="6.74573">
        <ele>432.8</ele>
        <time>2017-02-12T11:08:22.999Z</time>
      </trkpt>
      <trkpt lat="47.46596" lon="6.74579">
        <ele>431.5</ele>
        <time>2017-02-12T11:08:23.999Z</time>
      </trkpt>
      <trkpt lat="47.46599" lon="6.74587">
        <ele>430.5</ele>
        <time>2017-02-12T11:08:24.999Z</time>
      </trkpt>
      <trkpt lat="47.46604" lon="6.74598">
        <ele>428.6</ele>
        <time>2017-02-12T11:08:25.999Z</time>
      </trkpt>
      <trkpt lat="47.46611" lon="6.74606">
        <ele>427.5</ele>
        <time>2017-02-12T11:08:26.999Z</time>
      </trkpt>
      <trkpt lat="47.46614" lon="6.74609">
        <ele>427.3</ele>
        <time>2017-02-12T11:08:27.999Z</time>
      </trkpt>
      <trkpt lat="47.46616" lon="6.74614">
        <ele>427.2</ele>
        <time>2017-02-12T11:08:28.999Z</time>
      </trkpt>
      <trkpt lat="47.46619" lon="6.74621">
        <ele>425.8</ele>
        <time>2017-02-12T11:08:29.999Z</time>
      </trkpt>
      <trkpt lat="47.46624" lon="6.7463">
        <ele>424.5</ele>
        <time>2017-02-12T11:08:30.999Z</time>
      </trkpt>
      <trkpt lat="47.46629" lon="6.74639">
        <ele>422.9</ele>
        <time>2017-02-12T11:08:31.999Z</time>
      </trkpt>
      <trkpt lat="47.46635" lon="6.74646">
        <ele>422</ele>
        <time>2017-02-12T11:08:32.999Z</time>
      </trkpt>
      <trkpt lat="47.46643" lon="6.74653">
        <ele>420.6</ele>
        <time>2017-02-12T11:08:33.999Z</time>
      </trkpt>
      <trkpt lat="47.4665" lon="6.74662">
        <ele>419.7</ele>
        <time>2017-02-12T11:08:34.999Z</time>
      </trkpt>
      <trkpt lat="47.46658" lon="6.74671">
        <ele>418.4</ele>
        <time>2017-02-12T11:08:35.999Z</time>
      </trkpt>
      <trkpt lat="47.46666" lon="6.74681">
        <ele>417.3</ele>
        <time>2017-02-12T11:08:36.999Z</time>
      </trkpt>
      <trkpt lat="47.46673" lon="6.74692">
        <ele>415.8</ele>
        <time>2017-02-12T11:08:37.999Z</time>
      </trkpt>
      <trkpt lat="47.4668" lon="6.74702">
        <ele>413.2</ele>
        <time>2017-02-12T11:08:38.999Z</time>
      </trkpt>
      <trkpt lat="47.46687" lon="6.74709">
        <ele>411.2</ele>
        <time>2017-02-12T11:08:39.999Z</time>
      </trkpt>
      <trkpt lat="47.46694" lon="6.74715">
        <ele>408.1</ele>
        <time>2017-02-12T11:08:40.999Z</time>
      </trkpt>
      <trkpt lat="47.467" lon="6.74721">
        <ele>405.6</ele>
        <time>2017-02-12T11:08:41.999Z</time>
      </trkpt>
      <trkpt lat="47.46704" lon="6.74726">
        <ele>403.2</ele>
        <time>2017-02-12T11:08:42.999Z</time>
      </trkpt>
      <trkpt lat="47.46709" lon="6.74729">
        <ele>401.7</ele>
        <time>2017-02-12T11:08:43.999Z</time>
      </trkpt>
      <trkpt lat="47.46712" lon="6.7473">
        <ele>401.5</ele>
        <time>2017-02-12T11:08:44.999Z</time>
      </trkpt>
      <trkpt lat="47.46713" lon="6.74733">
        <ele>401.4</ele>
        <time>2017-02-12T11:08:45.999Z</time>
      </trkpt>
      <trkpt lat="47.46715" lon="6.74734">
        <ele>401.3</ele>
        <time>2017-02-12T11:08:46.999Z</time>
      </trkpt>
      <trkpt lat="47.46718" lon="6.74736">
        <ele>401.2</ele>
        <time>2017-02-12T11:08:47.999Z</time>
      </trkpt>
      <trkpt lat="47.46721" lon="6.74738">
        <ele>401</ele>
        <time>2017-02-12T11:08:49.999Z</time>
      </trkpt>
      <trkpt lat="47.46723" lon="6.74738">
        <ele>400.9</ele>
        <time>2017-02-12T11:08:50.999Z</time>
      </trkpt>
      <trkpt lat="47.46726" lon="6.74738">
        <ele>398.6</ele>
        <time>2017-02-12T11:09:21.999Z</time>
      </trkpt>
      <trkpt lat="47.46712" lon="6.74755">
        <ele>398.7</ele>
        <time>2017-02-12T11:09:22.999Z</time>
      </trkpt>
      <trkpt lat="47.46709" lon="6.74758">
        <ele>399.1</ele>
        <time>2017-02-12T11:09:24.999Z</time>
      </trkpt>
      <trkpt lat="47.46707" lon="6.74759">
        <ele>399.3</ele>
        <time>2017-02-12T11:09:25.999Z</time>
      </trkpt>
      <trkpt lat="47.46704" lon="6.7476">
        <ele>399.7</ele>
        <time>2017-02-12T11:09:27.999Z</time>
      </trkpt>
      <trkpt lat="47.46703" lon="6.74762">
        <ele>400</ele>
        <time>2017-02-12T11:09:28.999Z</time>
      </trkpt>
      <trkpt lat="47.46701" lon="6.74765">
        <ele>401.6</ele>
        <time>2017-02-12T11:09:36.999Z</time>
      </trkpt>
      <trkpt lat="47.46701" lon="6.74785">
        <ele>401.8</ele>
        <time>2017-02-12T11:09:37.999Z</time>
      </trkpt>
      <trkpt lat="47.46701" lon="6.74785">
        <ele>402.3</ele>
        <time>2017-02-12T11:09:42.999Z</time>
      </trkpt>
      <trkpt lat="47.46701" lon="6.74798">
        <ele>402.4</ele>
        <time>2017-02-12T11:09:43.999Z</time>
      </trkpt>
      <trkpt lat="47.46701" lon="6.74798">
        <ele>404.3</ele>
        <time>2017-02-12T11:10:01.999Z</time>
      </trkpt>
      <trkpt lat="47.4669" lon="6.74816">
        <ele>404.5</ele>
        <time>2017-02-12T11:10:02.999Z</time>
      </trkpt>
      <trkpt lat="47.4669" lon="6.74816">
        <ele>406.7</ele>
        <time>2017-02-12T11:10:12.999Z</time>
      </trkpt>
      <trkpt lat="47.46682" lon="6.74819">
        <ele>406.8</ele>
        <time>2017-02-12T11:10:13.999Z</time>
      </trkpt>
      <trkpt lat="47.46682" lon="6.74819">
        <ele>407.2</ele>
        <time>2017-02-12T11:10:17.999Z</time>
      </trkpt>
      <trkpt lat="47.46672" lon="6.74819">
        <ele>407.2</ele>
        <time>2017-02-12T11:10:18.999Z</time>
      </trkpt>
      <trkpt lat="47.46667" lon="6.74819">
        <ele>407.3</ele>
        <time>2017-02-12T11:10:21.999Z</time>
      </trkpt>
      <trkpt lat="47.46666" lon="6.7482">
        <ele>407.4</ele>
        <time>2017-02-12T11:10:22.999Z</time>
      </trkpt>
      <trkpt lat="47.46663" lon="6.7482">
        <ele>407.7</ele>
        <time>2017-02-12T11:10:24.999Z</time>
      </trkpt>
      <trkpt lat="47.46661" lon="6.7482">
        <ele>408</ele>
        <time>2017-02-12T11:10:25.999Z</time>
      </trkpt>
      <trkpt lat="47.46658" lon="6.74819">
        <ele>408.5</ele>
        <time>2017-02-12T11:10:28.999Z</time>
      </trkpt>
      <trkpt lat="47.46657" lon="6.74819">
        <ele>408.6</ele>
        <time>2017-02-12T11:10:29.999Z</time>
      </trkpt>
      <trkpt lat="47.46653" lon="6.74818">
        <ele>409.1</ele>
        <time>2017-02-12T11:10:31.999Z</time>
      </trkpt>
      <trkpt lat="47.4665" lon="6.74818">
        <ele>409.3</ele>
        <time>2017-02-12T11:10:32.999Z</time>
      </trkpt>
      <trkpt lat="47.46646" lon="6.74818">
        <ele>409.9</ele>
        <time>2017-02-12T11:10:36.999Z</time>
      </trkpt>
      <trkpt lat="47.46645" lon="6.74817">
        <ele>410.1</ele>
        <time>2017-02-12T11:10:37.999Z</time>
      </trkpt>
      <trkpt lat="47.46643" lon="6.74817">
        <ele>410.5</ele>
        <time>2017-02-12T11:10:39.999Z</time>
      </trkpt>
      <trkpt lat="47.46641" lon="6.74818">
        <ele>410.7</ele>
        <time>2017-02-12T11:10:40.999Z</time>
      </trkpt>
      <trkpt lat="47.46638" lon="6.74819">
        <ele>410.9</ele>
        <time>2017-02-12T11:10:41.999Z</time>
      </trkpt>
      <trkpt lat="47.46636" lon="6.74821">
        <ele>411</ele>
        <time>2017-02-12T11:10:42.999Z</time>
      </trkpt>
      <trkpt lat="47.46635" lon="6.74826">
        <ele>411.3</ele>
        <time>2017-02-12T11:10:44.999Z</time>
      </trkpt>
      <trkpt lat="47.46636" lon="6.74828">
        <ele>411.3</ele>
        <time>2017-02-12T11:10:45.999Z</time>
      </trkpt>
      <trkpt lat="47.46638" lon="6.74831">
        <ele>411.3</ele>
        <time>2017-02-12T11:10:46.999Z</time>
      </trkpt>
      <trkpt lat="47.46639" lon="6.74835">
        <ele>411.3</ele>
        <time>2017-02-12T11:10:47.999Z</time>
      </trkpt>
      <trkpt lat="47.4664" lon="6.74839">
        <ele>411.2</ele>
        <time>2017-02-12T11:10:48.999Z</time>
      </trkpt>
      <trkpt lat="47.4664" lon="6.74842">
        <ele>411.1</ele>
        <time>2017-02-12T11:10:49.999Z</time>
      </trkpt>
      <trkpt lat="47.46642" lon="6.74847">
        <ele>411.2</ele>
        <time>2017-02-12T11:10:51.999Z</time>
      </trkpt>
      <trkpt lat="47.46642" lon="6.74849">
        <ele>411.3</ele>
        <time>2017-02-12T11:10:52.999Z</time>
      </trkpt>
      <trkpt lat="47.46643" lon="6.74856">
        <ele>411.2</ele>
        <time>2017-02-12T11:10:54.999Z</time>
      </trkpt>
      <trkpt lat="47.46644" lon="6.74858">
        <ele>411.2</ele>
        <time>2017-02-12T11:10:55.999Z</time>
      </trkpt>
      <trkpt lat="47.46646" lon="6.74862">
        <ele>411.2</ele>
        <time>2017-02-12T11:10:56.999Z</time>
      </trkpt>
      <trkpt lat="47.46647" lon="6.74865">
        <ele>411.2</ele>
        <time>2017-02-12T11:10:57.999Z</time>
      </trkpt>
      <trkpt lat="47.46648" lon="6.74868">
        <ele>411.1</ele>
        <time>2017-02-12T11:10:58.999Z</time>
      </trkpt>
      <trkpt lat="47.46649" lon="6.74871">
        <ele>410.9</ele>
        <time>2017-02-12T11:10:59.999Z</time>
      </trkpt>
      <trkpt lat="47.46651" lon="6.74874">
        <ele>410.9</ele>
        <time>2017-02-12T11:11:00.999Z</time>
      </trkpt>
      <trkpt lat="47.46652" lon="6.74877">
        <ele>410.8</ele>
        <time>2017-02-12T11:11:01.999Z</time>
      </trkpt>
      <trkpt lat="47.46653" lon="6.7488">
        <ele>410.8</ele>
        <time>2017-02-12T11:11:02.999Z</time>
      </trkpt>
      <trkpt lat="47.46654" lon="6.74883">
        <ele>410.8</ele>
        <time>2017-02-12T11:11:03.999Z</time>
      </trkpt>
      <trkpt lat="47.46656" lon="6.74886">
        <ele>410.9</ele>
        <time>2017-02-12T11:11:04.999Z</time>
      </trkpt>
      <trkpt lat="47.46658" lon="6.7489">
        <ele>411</ele>
        <time>2017-02-12T11:11:05.999Z</time>
      </trkpt>
      <trkpt lat="47.46659" lon="6.74893">
        <ele>411</ele>
        <time>2017-02-12T11:11:06.999Z</time>
      </trkpt>
      <trkpt lat="47.4666" lon="6.74895">
        <ele>411</ele>
        <time>2017-02-12T11:11:07.999Z</time>
      </trkpt>
      <trkpt lat="47.46662" lon="6.749">
        <ele>411</ele>
        <time>2017-02-12T11:11:08.999Z</time>
      </trkpt>
      <trkpt lat="47.46664" lon="6.74904">
        <ele>411</ele>
        <time>2017-02-12T11:11:09.999Z</time>
      </trkpt>
      <trkpt lat="47.46666" lon="6.74909">
        <ele>410.9</ele>
        <time>2017-02-12T11:11:11.999Z</time>
      </trkpt>
      <trkpt lat="47.46667" lon="6.74911">
        <ele>411</ele>
        <time>2017-02-12T11:11:12.999Z</time>
      </trkpt>
      <trkpt lat="47.4667" lon="6.74914">
        <ele>411</ele>
        <time>2017-02-12T11:11:13.999Z</time>
      </trkpt>
      <trkpt lat="47.46671" lon="6.74916">
        <ele>411</ele>
        <time>2017-02-12T11:11:14.999Z</time>
      </trkpt>
      <trkpt lat="47.46673" lon="6.74919">
        <ele>410.9</ele>
        <time>2017-02-12T11:11:15.999Z</time>
      </trkpt>
      <trkpt lat="47.46675" lon="6.74922">
        <ele>410.9</ele>
        <time>2017-02-12T11:11:16.999Z</time>
      </trkpt>
      <trkpt lat="47.46677" lon="6.74925">
        <ele>410.9</ele>
        <time>2017-02-12T11:11:17.999Z</time>
      </trkpt>
      <trkpt lat="47.46678" lon="6.74929">
        <ele>410.9</ele>
        <time>2017-02-12T11:11:18.999Z</time>
      </trkpt>
      <trkpt lat="47.46679" lon="6.74935">
        <ele>410.8</ele>
        <time>2017-02-12T11:11:20.999Z</time>
      </trkpt>
      <trkpt lat="47.46679" lon="6.74938">
        <ele>410.8</ele>
        <time>2017-02-12T11:11:21.999Z</time>
      </trkpt>
      <trkpt lat="47.4668" lon="6.74942">
        <ele>410.8</ele>
        <time>2017-02-12T11:11:22.999Z</time>
      </trkpt>
      <trkpt lat="47.46681" lon="6.74946">
        <ele>410.8</ele>
        <time>2017-02-12T11:11:23.999Z</time>
      </trkpt>
      <trkpt lat="47.46682" lon="6.74949">
        <ele>410.8</ele>
        <time>2017-02-12T11:11:24.999Z</time>
      </trkpt>
      <trkpt lat="47.46682" lon="6.74952">
        <ele>410.9</ele>
        <time>2017-02-12T11:11:25.999Z</time>
      </trkpt>
      <trkpt lat="47.46683" lon="6.74957">
        <ele>410.9</ele>
        <time>2017-02-12T11:11:26.999Z</time>
      </trkpt>
      <trkpt lat="47.46684" lon="6.74963">
        <ele>411</ele>
        <time>2017-02-12T11:11:27.999Z</time>
      </trkpt>
      <trkpt lat="47.46684" lon="6.74968">
        <ele>411</ele>
        <time>2017-02-12T11:11:28.999Z</time>
      </trkpt>
      <trkpt lat="47.46685" lon="6.74971">
        <ele>411.1</ele>
        <time>2017-02-12T11:11:29.999Z</time>
      </trkpt>
      <trkpt lat="47.46686" lon="6.74974">
        <ele>411.2</ele>
        <time>2017-02-12T11:11:30.999Z</time>
      </trkpt>
      <trkpt lat="47.46688" lon="6.74979">
        <ele>411.3</ele>
        <time>2017-02-12T11:11:31.999Z</time>
      </trkpt>
      <trkpt lat="47.46689" lon="6.74984">
        <ele>411.4</ele>
        <time>2017-02-12T11:11:32.999Z</time>
      </trkpt>
      <trkpt lat="47.46689" lon="6.74989">
        <ele>411.5</ele>
        <time>2017-02-12T11:11:33.999Z</time>
      </trkpt>
      <trkpt lat="47.46688" lon="6.74993">
        <ele>411.6</ele>
        <time>2017-02-12T11:11:34.999Z</time>
      </trkpt>
      <trkpt lat="47.46687" lon="6.74996">
        <ele>411.7</ele>
        <time>2017-02-12T11:11:35.999Z</time>
      </trkpt>
      <trkpt lat="47.46686" lon="6.75">
        <ele>411.9</ele>
        <time>2017-02-12T11:11:37.999Z</time>
      </trkpt>
      <trkpt lat="47.46687" lon="6.75004">
        <ele>412</ele>
        <time>2017-02-12T11:11:38.999Z</time>
      </trkpt>
      <trkpt lat="47.46688" lon="6.75008">
        <ele>412</ele>
        <time>2017-02-12T11:11:39.999Z</time>
      </trkpt>
      <trkpt lat="47.46689" lon="6.75013">
        <ele>412</ele>
        <time>2017-02-12T11:11:40.999Z</time>
      </trkpt>
      <trkpt lat="47.46691" lon="6.75017">
        <ele>412.1</ele>
        <time>2017-02-12T11:11:41.999Z</time>
      </trkpt>
      <trkpt lat="47.46692" lon="6.75021">
        <ele>412</ele>
        <time>2017-02-12T11:11:42.999Z</time>
      </trkpt>
      <trkpt lat="47.46693" lon="6.75027">
        <ele>412</ele>
        <time>2017-02-12T11:11:44.999Z</time>
      </trkpt>
      <trkpt lat="47.46693" lon="6.75029">
        <ele>412.1</ele>
        <time>2017-02-12T11:11:45.999Z</time>
      </trkpt>
      <trkpt lat="47.46694" lon="6.75032">
        <ele>412.2</ele>
        <time>2017-02-12T11:11:46.999Z</time>
      </trkpt>
      <trkpt lat="47.46695" lon="6.75035">
        <ele>412.2</ele>
        <time>2017-02-12T11:11:47.999Z</time>
      </trkpt>
      <trkpt lat="47.46695" lon="6.75042">
        <ele>412.7</ele>
        <time>2017-02-12T11:12:01.999Z</time>
      </trkpt>
      <trkpt lat="47.46697" lon="6.75058">
        <ele>412.8</ele>
        <time>2017-02-12T11:12:02.999Z</time>
      </trkpt>
      <trkpt lat="47.46698" lon="6.75061">
        <ele>412.9</ele>
        <time>2017-02-12T11:12:03.999Z</time>
      </trkpt>
      <trkpt lat="47.46699" lon="6.75065">
        <ele>413</ele>
        <time>2017-02-12T11:12:04.999Z</time>
      </trkpt>
      <trkpt lat="47.46699" lon="6.75068">
        <ele>413</ele>
        <time>2017-02-12T11:12:05.999Z</time>
      </trkpt>
      <trkpt lat="47.467" lon="6.75071">
        <ele>413.1</ele>
        <time>2017-02-12T11:12:06.999Z</time>
      </trkpt>
      <trkpt lat="47.46701" lon="6.75076">
        <ele>413</ele>
        <time>2017-02-12T11:12:07.999Z</time>
      </trkpt>
      <trkpt lat="47.46701" lon="6.7508">
        <ele>413</ele>
        <time>2017-02-12T11:12:08.999Z</time>
      </trkpt>
      <trkpt lat="47.46702" lon="6.75085">
        <ele>413.1</ele>
        <time>2017-02-12T11:12:10.999Z</time>
      </trkpt>
      <trkpt lat="47.46702" lon="6.75088">
        <ele>413.1</ele>
        <time>2017-02-12T11:12:11.999Z</time>
      </trkpt>
      <trkpt lat="47.46701" lon="6.75092">
        <ele>413.1</ele>
        <time>2017-02-12T11:12:12.999Z</time>
      </trkpt>
      <trkpt lat="47.46701" lon="6.75096">
        <ele>413.2</ele>
        <time>2017-02-12T11:12:13.999Z</time>
      </trkpt>
      <trkpt lat="47.46701" lon="6.75101">
        <ele>413.2</ele>
        <time>2017-02-12T11:12:14.999Z</time>
      </trkpt>
      <trkpt lat="47.46702" lon="6.75106">
        <ele>413.2</ele>
        <time>2017-02-12T11:12:15.999Z</time>
      </trkpt>
      <trkpt lat="47.46702" lon="6.7511">
        <ele>413.2</ele>
        <time>2017-02-12T11:12:16.999Z</time>
      </trkpt>
      <trkpt lat="47.46703" lon="6.75115">
        <ele>413.2</ele>
        <time>2017-02-12T11:12:17.999Z</time>
      </trkpt>
      <trkpt lat="47.46703" lon="6.75119">
        <ele>413.2</ele>
        <time>2017-02-12T11:12:18.999Z</time>
      </trkpt>
      <trkpt lat="47.46703" lon="6.75122">
        <ele>413.1</ele>
        <time>2017-02-12T11:12:19.999Z</time>
      </trkpt>
      <trkpt lat="47.46703" lon="6.75128">
        <ele>413.1</ele>
        <time>2017-02-12T11:12:21.999Z</time>
      </trkpt>
      <trkpt lat="47.46703" lon="6.7513">
        <ele>413.1</ele>
        <time>2017-02-12T11:12:22.999Z</time>
      </trkpt>
      <trkpt lat="47.46701" lon="6.75135">
        <ele>413.1</ele>
        <time>2017-02-12T11:12:24.999Z</time>
      </trkpt>
      <trkpt lat="47.467" lon="6.7514">
        <ele>413.2</ele>
        <time>2017-02-12T11:12:25.999Z</time>
      </trkpt>
      <trkpt lat="47.467" lon="6.75144">
        <ele>413.3</ele>
        <time>2017-02-12T11:12:26.999Z</time>
      </trkpt>
      <trkpt lat="47.46699" lon="6.75147">
        <ele>413.3</ele>
        <time>2017-02-12T11:12:27.999Z</time>
      </trkpt>
      <trkpt lat="47.467" lon="6.75151">
        <ele>413.4</ele>
        <time>2017-02-12T11:12:28.999Z</time>
      </trkpt>
      <trkpt lat="47.467" lon="6.75155">
        <ele>413.5</ele>
        <time>2017-02-12T11:12:29.999Z</time>
      </trkpt>
      <trkpt lat="47.46701" lon="6.75161">
        <ele>413.6</ele>
        <time>2017-02-12T11:12:31.999Z</time>
      </trkpt>
      <trkpt lat="47.46701" lon="6.75165">
        <ele>413.8</ele>
        <time>2017-02-12T11:12:32.999Z</time>
      </trkpt>
      <trkpt lat="47.467" lon="6.75168">
        <ele>414</ele>
        <time>2017-02-12T11:12:33.999Z</time>
      </trkpt>
      <trkpt lat="47.467" lon="6.75172">
        <ele>414</ele>
        <time>2017-02-12T11:12:34.999Z</time>
      </trkpt>
      <trkpt lat="47.46698" lon="6.75178">
        <ele>414.1</ele>
        <time>2017-02-12T11:12:36.999Z</time>
      </trkpt>
      <trkpt lat="47.46698" lon="6.75181">
        <ele>414.2</ele>
        <time>2017-02-12T11:12:37.999Z</time>
      </trkpt>
      <trkpt lat="47.46698" lon="6.75186">
        <ele>414.4</ele>
        <time>2017-02-12T11:12:39.999Z</time>
      </trkpt>
      <trkpt lat="47.46699" lon="6.75191">
        <ele>414.5</ele>
        <time>2017-02-12T11:12:40.999Z</time>
      </trkpt>
      <trkpt lat="47.467" lon="6.75194">
        <ele>414.6</ele>
        <time>2017-02-12T11:12:41.999Z</time>
      </trkpt>
      <trkpt lat="47.467" lon="6.752">
        <ele>414.7</ele>
        <time>2017-02-12T11:12:42.999Z</time>
      </trkpt>
      <trkpt lat="47.46702" lon="6.75206">
        <ele>414.7</ele>
        <time>2017-02-12T11:12:43.999Z</time>
      </trkpt>
      <trkpt lat="47.46702" lon="6.75212">
        <ele>414.7</ele>
        <time>2017-02-12T11:12:44.999Z</time>
      </trkpt>
      <trkpt lat="47.46702" lon="6.7522">
        <ele>414.7</ele>
        <time>2017-02-12T11:12:45.999Z</time>
      </trkpt>
      <trkpt lat="47.46703" lon="6.75226">
        <ele>414.6</ele>
        <time>2017-02-12T11:12:46.999Z</time>
      </trkpt>
      <trkpt lat="47.46702" lon="6.75231">
        <ele>414.6</ele>
        <time>2017-02-12T11:12:47.999Z</time>
      </trkpt>
      <trkpt lat="47.46702" lon="6.75233">
        <ele>414.6</ele>
        <time>2017-02-12T11:12:48.999Z</time>
      </trkpt>
      <trkpt lat="47.46703" lon="6.7524">
        <ele>414.4</ele>
        <time>2017-02-12T11:12:49.999Z</time>
      </trkpt>
      <trkpt lat="47.46705" lon="6.75246">
        <ele>414.3</ele>
        <time>2017-02-12T11:12:50.999Z</time>
      </trkpt>
      <trkpt lat="47.46708" lon="6.75251">
        <ele>413.8</ele>
        <time>2017-02-12T11:12:52.999Z</time>
      </trkpt>
      <trkpt lat="47.46708" lon="6.75253">
        <ele>413.6</ele>
        <time>2017-02-12T11:12:53.999Z</time>
      </trkpt>
      <trkpt lat="47.46706" lon="6.75258">
        <ele>413.3</ele>
        <time>2017-02-12T11:12:56.999Z</time>
      </trkpt>
      <trkpt lat="47.46705" lon="6.75259">
        <ele>413.2</ele>
        <time>2017-02-12T11:12:57.999Z</time>
      </trkpt>
      <trkpt lat="47.46703" lon="6.75264">
        <ele>412.8</ele>
        <time>2017-02-12T11:13:00.999Z</time>
      </trkpt>
      <trkpt lat="47.46703" lon="6.75265">
        <ele>412.8</ele>
        <time>2017-02-12T11:13:01.999Z</time>
      </trkpt>
      <trkpt lat="47.46702" lon="6.75271">
        <ele>412.6</ele>
        <time>2017-02-12T11:13:04.999Z</time>
      </trkpt>
      <trkpt lat="47.46701" lon="6.75274">
        <ele>412.7</ele>
        <time>2017-02-12T11:13:05.999Z</time>
      </trkpt>
      <trkpt lat="47.46701" lon="6.75277">
        <ele>412.8</ele>
        <time>2017-02-12T11:13:06.999Z</time>
      </trkpt>
      <trkpt lat="47.46701" lon="6.7528">
        <ele>412.8</ele>
        <time>2017-02-12T11:13:07.999Z</time>
      </trkpt>
      <trkpt lat="47.46702" lon="6.75285">
        <ele>412.9</ele>
        <time>2017-02-12T11:13:08.999Z</time>
      </trkpt>
      <trkpt lat="47.46703" lon="6.7529">
        <ele>412.8</ele>
        <time>2017-02-12T11:13:09.999Z</time>
      </trkpt>
      <trkpt lat="47.46703" lon="6.75296">
        <ele>412.7</ele>
        <time>2017-02-12T11:13:10.999Z</time>
      </trkpt>
      <trkpt lat="47.46706" lon="6.75304">
        <ele>411.5</ele>
        <time>2017-02-12T11:13:11.999Z</time>
      </trkpt>
      <trkpt lat="47.46709" lon="6.75312">
        <ele>410</ele>
        <time>2017-02-12T11:13:12.999Z</time>
      </trkpt>
      <trkpt lat="47.46711" lon="6.75317">
        <ele>409.4</ele>
        <time>2017-02-12T11:13:13.999Z</time>
      </trkpt>
      <trkpt lat="47.46713" lon="6.75323">
        <ele>408.3</ele>
        <time>2017-02-12T11:13:14.999Z</time>
      </trkpt>
      <trkpt lat="47.46714" lon="6.75329">
        <ele>407.5</ele>
        <time>2017-02-12T11:13:15.999Z</time>
      </trkpt>
      <trkpt lat="47.46713" lon="6.75337">
        <ele>407.2</ele>
        <time>2017-02-12T11:13:16.999Z</time>
      </trkpt>
      <trkpt lat="47.46713" lon="6.75347">
        <ele>406.3</ele>
        <time>2017-02-12T11:13:17.999Z</time>
      </trkpt>
      <trkpt lat="47.46712" lon="6.75355">
        <ele>405.4</ele>
        <time>2017-02-12T11:13:18.999Z</time>
      </trkpt>
      <trkpt lat="47.46713" lon="6.75363">
        <ele>405</ele>
        <time>2017-02-12T11:13:19.999Z</time>
      </trkpt>
      <trkpt lat="47.46714" lon="6.75372">
        <ele>404.4</ele>
        <time>2017-02-12T11:13:20.999Z</time>
      </trkpt>
      <trkpt lat="47.46715" lon="6.7538">
        <ele>403.5</ele>
        <time>2017-02-12T11:13:21.999Z</time>
      </trkpt>
      <trkpt lat="47.46714" lon="6.75388">
        <ele>402.8</ele>
        <time>2017-02-12T11:13:22.999Z</time>
      </trkpt>
      <trkpt lat="47.46712" lon="6.75394">
        <ele>402.1</ele>
        <time>2017-02-12T11:13:23.999Z</time>
      </trkpt>
      <trkpt lat="47.4671" lon="6.75399">
        <ele>401.4</ele>
        <time>2017-02-12T11:13:24.999Z</time>
      </trkpt>
      <trkpt lat="47.46708" lon="6.75407">
        <ele>401.1</ele>
        <time>2017-02-12T11:13:25.999Z</time>
      </trkpt>
      <trkpt lat="47.46707" lon="6.75412">
        <ele>401.2</ele>
        <time>2017-02-12T11:13:26.999Z</time>
      </trkpt>
      <trkpt lat="47.46705" lon="6.75415">
        <ele>401.2</ele>
        <time>2017-02-12T11:13:27.999Z</time>
      </trkpt>
      <trkpt lat="47.46703" lon="6.75416">
        <ele>401.2</ele>
        <time>2017-02-12T11:13:28.999Z</time>
      </trkpt>
      <trkpt lat="47.46701" lon="6.75419">
        <ele>401.2</ele>
        <time>2017-02-12T11:13:29.999Z</time>
      </trkpt>
      <trkpt lat="47.46699" lon="6.75425">
        <ele>401.4</ele>
        <time>2017-02-12T11:13:31.999Z</time>
      </trkpt>
      <trkpt lat="47.46696" lon="6.7543">
        <ele>401.4</ele>
        <time>2017-02-12T11:13:32.999Z</time>
      </trkpt>
      <trkpt lat="47.46694" lon="6.75435">
        <ele>401.4</ele>
        <time>2017-02-12T11:13:33.999Z</time>
      </trkpt>
      <trkpt lat="47.46694" lon="6.7544">
        <ele>401.4</ele>
        <time>2017-02-12T11:13:34.999Z</time>
      </trkpt>
      <trkpt lat="47.46692" lon="6.75444">
        <ele>401.3</ele>
        <time>2017-02-12T11:13:35.999Z</time>
      </trkpt>
      <trkpt lat="47.4669" lon="6.75447">
        <ele>401.3</ele>
        <time>2017-02-12T11:13:36.999Z</time>
      </trkpt>
      <trkpt lat="47.46687" lon="6.75451">
        <ele>401.3</ele>
        <time>2017-02-12T11:13:38.999Z</time>
      </trkpt>
      <trkpt lat="47.46686" lon="6.75453">
        <ele>401.4</ele>
        <time>2017-02-12T11:13:39.999Z</time>
      </trkpt>
      <trkpt lat="47.46684" lon="6.75456">
        <ele>401.7</ele>
        <time>2017-02-12T11:13:41.999Z</time>
      </trkpt>
      <trkpt lat="47.46683" lon="6.7546">
        <ele>401.8</ele>
        <time>2017-02-12T11:13:42.999Z</time>
      </trkpt>
      <trkpt lat="47.46681" lon="6.75465">
        <ele>402.3</ele>
        <time>2017-02-12T11:13:44.999Z</time>
      </trkpt>
      <trkpt lat="47.4668" lon="6.75467">
        <ele>402.6</ele>
        <time>2017-02-12T11:13:45.999Z</time>
      </trkpt>
      <trkpt lat="47.46678" lon="6.7547">
        <ele>403.2</ele>
        <time>2017-02-12T11:13:47.999Z</time>
      </trkpt>
      <trkpt lat="47.46678" lon="6.75473">
        <ele>403.4</ele>
        <time>2017-02-12T11:13:48.999Z</time>
      </trkpt>
      <trkpt lat="47.46676" lon="6.75477">
        <ele>403.7</ele>
        <time>2017-02-12T11:13:49.999Z</time>
      </trkpt>
      <trkpt lat="47.46675" lon="6.7548">
        <ele>404</ele>
        <time>2017-02-12T11:13:50.999Z</time>
      </trkpt>
      <trkpt lat="47.46673" lon="6.75484">
        <ele>404.3</ele>
        <time>2017-02-12T11:13:51.999Z</time>
      </trkpt>
      <trkpt lat="47.46672" lon="6.75487">
        <ele>404.6</ele>
        <time>2017-02-12T11:13:52.999Z</time>
      </trkpt>
      <trkpt lat="47.4667" lon="6.7549">
        <ele>404.9</ele>
        <time>2017-02-12T11:13:53.999Z</time>
      </trkpt>
      <trkpt lat="47.46669" lon="6.75493">
        <ele>405.2</ele>
        <time>2017-02-12T11:13:54.999Z</time>
      </trkpt>
      <trkpt lat="47.46667" lon="6.75496">
        <ele>405.6</ele>
        <time>2017-02-12T11:13:55.999Z</time>
      </trkpt>
      <trkpt lat="47.46666" lon="6.75499">
        <ele>406</ele>
        <time>2017-02-12T11:13:56.999Z</time>
      </trkpt>
      <trkpt lat="47.46664" lon="6.75503">
        <ele>406.3</ele>
        <time>2017-02-12T11:13:57.999Z</time>
      </trkpt>
      <trkpt lat="47.46663" lon="6.75506">
        <ele>406.6</ele>
        <time>2017-02-12T11:13:58.999Z</time>
      </trkpt>
      <trkpt lat="47.46662" lon="6.7551">
        <ele>407</ele>
        <time>2017-02-12T11:13:59.999Z</time>
      </trkpt>
      <trkpt lat="47.46661" lon="6.75513">
        <ele>407.3</ele>
        <time>2017-02-12T11:14:00.999Z</time>
      </trkpt>
      <trkpt lat="47.46659" lon="6.75516">
        <ele>407.7</ele>
        <time>2017-02-12T11:14:01.999Z</time>
      </trkpt>
      <trkpt lat="47.46658" lon="6.75519">
        <ele>408</ele>
        <time>2017-02-12T11:14:02.999Z</time>
      </trkpt>
      <trkpt lat="47.46656" lon="6.75523">
        <ele>408.5</ele>
        <time>2017-02-12T11:14:04.999Z</time>
      </trkpt>
      <trkpt lat="47.46655" lon="6.75525">
        <ele>408.8</ele>
        <time>2017-02-12T11:14:05.999Z</time>
      </trkpt>
      <trkpt lat="47.46654" lon="6.75529">
        <ele>409.4</ele>
        <time>2017-02-12T11:14:07.999Z</time>
      </trkpt>
      <trkpt lat="47.46653" lon="6.75532">
        <ele>409.7</ele>
        <time>2017-02-12T11:14:08.999Z</time>
      </trkpt>
      <trkpt lat="47.46652" lon="6.75536">
        <ele>410</ele>
        <time>2017-02-12T11:14:09.999Z</time>
      </trkpt>
      <trkpt lat="47.4665" lon="6.75542">
        <ele>410.2</ele>
        <time>2017-02-12T11:14:10.999Z</time>
      </trkpt>
      <trkpt lat="47.4665" lon="6.75546">
        <ele>410.4</ele>
        <time>2017-02-12T11:14:11.999Z</time>
      </trkpt>
      <trkpt lat="47.46649" lon="6.75552">
        <ele>410.7</ele>
        <time>2017-02-12T11:14:12.999Z</time>
      </trkpt>
      <trkpt lat="47.46648" lon="6.75557">
        <ele>410.8</ele>
        <time>2017-02-12T11:14:13.999Z</time>
      </trkpt>
      <trkpt lat="47.46648" lon="6.7556">
        <ele>411</ele>
        <time>2017-02-12T11:14:14.999Z</time>
      </trkpt>
      <trkpt lat="47.46649" lon="6.75564">
        <ele>411.1</ele>
        <time>2017-02-12T11:14:15.999Z</time>
      </trkpt>
      <trkpt lat="47.46649" lon="6.75567">
        <ele>411.3</ele>
        <time>2017-02-12T11:14:16.999Z</time>
      </trkpt>
      <trkpt lat="47.46649" lon="6.7557">
        <ele>411.5</ele>
        <time>2017-02-12T11:14:17.999Z</time>
      </trkpt>
      <trkpt lat="47.46649" lon="6.75574">
        <ele>411.7</ele>
        <time>2017-02-12T11:14:18.999Z</time>
      </trkpt>
      <trkpt lat="47.46648" lon="6.75578">
        <ele>411.8</ele>
        <time>2017-02-12T11:14:19.999Z</time>
      </trkpt>
      <trkpt lat="47.46648" lon="6.75582">
        <ele>411.8</ele>
        <time>2017-02-12T11:14:20.999Z</time>
      </trkpt>
      <trkpt lat="47.46647" lon="6.75587">
        <ele>411.8</ele>
        <time>2017-02-12T11:14:21.999Z</time>
      </trkpt>
      <trkpt lat="47.46647" lon="6.7559">
        <ele>411.9</ele>
        <time>2017-02-12T11:14:22.999Z</time>
      </trkpt>
      <trkpt lat="47.46647" lon="6.75594">
        <ele>412</ele>
        <time>2017-02-12T11:14:23.999Z</time>
      </trkpt>
      <trkpt lat="47.46647" lon="6.75598">
        <ele>412</ele>
        <time>2017-02-12T11:14:24.999Z</time>
      </trkpt>
      <trkpt lat="47.46647" lon="6.75605">
        <ele>412</ele>
        <time>2017-02-12T11:14:25.999Z</time>
      </trkpt>
      <trkpt lat="47.46647" lon="6.7561">
        <ele>412</ele>
        <time>2017-02-12T11:14:26.999Z</time>
      </trkpt>
      <trkpt lat="47.46648" lon="6.75616">
        <ele>412</ele>
        <time>2017-02-12T11:14:27.999Z</time>
      </trkpt>
      <trkpt lat="47.46648" lon="6.75621">
        <ele>411.9</ele>
        <time>2017-02-12T11:14:28.999Z</time>
      </trkpt>
      <trkpt lat="47.46648" lon="6.75627">
        <ele>411.9</ele>
        <time>2017-02-12T11:14:29.999Z</time>
      </trkpt>
      <trkpt lat="47.46647" lon="6.75633">
        <ele>411.7</ele>
        <time>2017-02-12T11:14:30.999Z</time>
      </trkpt>
      <trkpt lat="47.46647" lon="6.75639">
        <ele>411.5</ele>
        <time>2017-02-12T11:14:31.999Z</time>
      </trkpt>
      <trkpt lat="47.46647" lon="6.75645">
        <ele>411.2</ele>
        <time>2017-02-12T11:14:32.999Z</time>
      </trkpt>
      <trkpt lat="47.46648" lon="6.7565">
        <ele>411</ele>
        <time>2017-02-12T11:14:33.999Z</time>
      </trkpt>
      <trkpt lat="47.46649" lon="6.75655">
        <ele>410.8</ele>
        <time>2017-02-12T11:14:34.999Z</time>
      </trkpt>
      <trkpt lat="47.46649" lon="6.75659">
        <ele>410.6</ele>
        <time>2017-02-12T11:14:35.999Z</time>
      </trkpt>
      <trkpt lat="47.46651" lon="6.75664">
        <ele>410.4</ele>
        <time>2017-02-12T11:14:36.999Z</time>
      </trkpt>
      <trkpt lat="47.46652" lon="6.7567">
        <ele>410.1</ele>
        <time>2017-02-12T11:14:37.999Z</time>
      </trkpt>
      <trkpt lat="47.46654" lon="6.75675">
        <ele>409.9</ele>
        <time>2017-02-12T11:14:38.999Z</time>
      </trkpt>
      <trkpt lat="47.46657" lon="6.75679">
        <ele>409.7</ele>
        <time>2017-02-12T11:14:39.999Z</time>
      </trkpt>
      <trkpt lat="47.46661" lon="6.75684">
        <ele>409.5</ele>
        <time>2017-02-12T11:14:40.999Z</time>
      </trkpt>
      <trkpt lat="47.46664" lon="6.75688">
        <ele>409.3</ele>
        <time>2017-02-12T11:14:41.999Z</time>
      </trkpt>
      <trkpt lat="47.46667" lon="6.75691">
        <ele>408.9</ele>
        <time>2017-02-12T11:14:42.999Z</time>
      </trkpt>
      <trkpt lat="47.4667" lon="6.75695">
        <ele>408.6</ele>
        <time>2017-02-12T11:14:43.999Z</time>
      </trkpt>
      <trkpt lat="47.46672" lon="6.75697">
        <ele>408.3</ele>
        <time>2017-02-12T11:14:44.999Z</time>
      </trkpt>
      <trkpt lat="47.46675" lon="6.75701">
        <ele>408.1</ele>
        <time>2017-02-12T11:14:45.999Z</time>
      </trkpt>
      <trkpt lat="47.46677" lon="6.75704">
        <ele>408</ele>
        <time>2017-02-12T11:14:46.999Z</time>
      </trkpt>
      <trkpt lat="47.4668" lon="6.75707">
        <ele>407.7</ele>
        <time>2017-02-12T11:14:47.999Z</time>
      </trkpt>
      <trkpt lat="47.46681" lon="6.75711">
        <ele>407.5</ele>
        <time>2017-02-12T11:14:48.999Z</time>
      </trkpt>
      <trkpt lat="47.46684" lon="6.75715">
        <ele>407.1</ele>
        <time>2017-02-12T11:14:49.999Z</time>
      </trkpt>
      <trkpt lat="47.46686" lon="6.75719">
        <ele>406.9</ele>
        <time>2017-02-12T11:14:50.999Z</time>
      </trkpt>
      <trkpt lat="47.46687" lon="6.75723">
        <ele>406.6</ele>
        <time>2017-02-12T11:14:51.999Z</time>
      </trkpt>
      <trkpt lat="47.46687" lon="6.75726">
        <ele>406.2</ele>
        <time>2017-02-12T11:14:52.999Z</time>
      </trkpt>
      <trkpt lat="47.46688" lon="6.7573">
        <ele>406</ele>
        <time>2017-02-12T11:14:53.999Z</time>
      </trkpt>
      <trkpt lat="47.46689" lon="6.75734">
        <ele>405.7</ele>
        <time>2017-02-12T11:14:54.999Z</time>
      </trkpt>
      <trkpt lat="47.4669" lon="6.75738">
        <ele>405.4</ele>
        <time>2017-02-12T11:14:55.999Z</time>
      </trkpt>
      <trkpt lat="47.46692" lon="6.75742">
        <ele>405.1</ele>
        <time>2017-02-12T11:14:56.999Z</time>
      </trkpt>
      <trkpt lat="47.46693" lon="6.75746">
        <ele>404.8</ele>
        <time>2017-02-12T11:14:57.999Z</time>
      </trkpt>
      <trkpt lat="47.46694" lon="6.75751">
        <ele>404.7</ele>
        <time>2017-02-12T11:14:58.999Z</time>
      </trkpt>
      <trkpt lat="47.46694" lon="6.75755">
        <ele>404.5</ele>
        <time>2017-02-12T11:14:59.999Z</time>
      </trkpt>
      <trkpt lat="47.46696" lon="6.7576">
        <ele>404.3</ele>
        <time>2017-02-12T11:15:00.999Z</time>
      </trkpt>
      <trkpt lat="47.46697" lon="6.75764">
        <ele>404.1</ele>
        <time>2017-02-12T11:15:01.999Z</time>
      </trkpt>
      <trkpt lat="47.46697" lon="6.75767">
        <ele>403.9</ele>
        <time>2017-02-12T11:15:02.999Z</time>
      </trkpt>
      <trkpt lat="47.46698" lon="6.75772">
        <ele>403.6</ele>
        <time>2017-02-12T11:15:04.999Z</time>
      </trkpt>
      <trkpt lat="47.46698" lon="6.75775">
        <ele>403.3</ele>
        <time>2017-02-12T11:15:05.999Z</time>
      </trkpt>
      <trkpt lat="47.46699" lon="6.75778">
        <ele>403.1</ele>
        <time>2017-02-12T11:15:06.999Z</time>
      </trkpt>
      <trkpt lat="47.467" lon="6.75782">
        <ele>403</ele>
        <time>2017-02-12T11:15:07.999Z</time>
      </trkpt>
      <trkpt lat="47.46701" lon="6.75784">
        <ele>402.8</ele>
        <time>2017-02-12T11:15:08.999Z</time>
      </trkpt>
      <trkpt lat="47.46702" lon="6.75788">
        <ele>402.6</ele>
        <time>2017-02-12T11:15:09.999Z</time>
      </trkpt>
      <trkpt lat="47.46703" lon="6.75792">
        <ele>402.5</ele>
        <time>2017-02-12T11:15:10.999Z</time>
      </trkpt>
      <trkpt lat="47.46703" lon="6.75796">
        <ele>402.3</ele>
        <time>2017-02-12T11:15:11.999Z</time>
      </trkpt>
      <trkpt lat="47.46703" lon="6.75802">
        <ele>401.9</ele>
        <time>2017-02-12T11:15:13.999Z</time>
      </trkpt>
      <trkpt lat="47.46703" lon="6.75805">
        <ele>401.7</ele>
        <time>2017-02-12T11:15:14.999Z</time>
      </trkpt>
      <trkpt lat="47.46702" lon="6.75811">
        <ele>401.8</ele>
        <time>2017-02-12T11:15:16.999Z</time>
      </trkpt>
      <trkpt lat="47.46701" lon="6.75814">
        <ele>401.9</ele>
        <time>2017-02-12T11:15:17.999Z</time>
      </trkpt>
      <trkpt lat="47.467" lon="6.75817">
        <ele>402</ele>
        <time>2017-02-12T11:15:18.999Z</time>
      </trkpt>
      <trkpt lat="47.467" lon="6.75822">
        <ele>402</ele>
        <time>2017-02-12T11:15:19.999Z</time>
      </trkpt>
      <trkpt lat="47.467" lon="6.75828">
        <ele>402.1</ele>
        <time>2017-02-12T11:15:20.999Z</time>
      </trkpt>
      <trkpt lat="47.46701" lon="6.75836">
        <ele>401.8</ele>
        <time>2017-02-12T11:15:21.999Z</time>
      </trkpt>
      <trkpt lat="47.46702" lon="6.75844">
        <ele>401.8</ele>
        <time>2017-02-12T11:15:22.999Z</time>
      </trkpt>
      <trkpt lat="47.46704" lon="6.75851">
        <ele>401.6</ele>
        <time>2017-02-12T11:15:23.999Z</time>
      </trkpt>
      <trkpt lat="47.46703" lon="6.75859">
        <ele>401.1</ele>
        <time>2017-02-12T11:15:24.999Z</time>
      </trkpt>
      <trkpt lat="47.46703" lon="6.75867">
        <ele>400.7</ele>
        <time>2017-02-12T11:15:25.999Z</time>
      </trkpt>
      <trkpt lat="47.46702" lon="6.75874">
        <ele>400.7</ele>
        <time>2017-02-12T11:15:26.999Z</time>
      </trkpt>
      <trkpt lat="47.46701" lon="6.75883">
        <ele>400.8</ele>
        <time>2017-02-12T11:15:27.999Z</time>
      </trkpt>
      <trkpt lat="47.46701" lon="6.75888">
        <ele>400.8</ele>
        <time>2017-02-12T11:15:28.999Z</time>
      </trkpt>
      <trkpt lat="47.467" lon="6.75893">
        <ele>400.8</ele>
        <time>2017-02-12T11:15:29.999Z</time>
      </trkpt>
      <trkpt lat="47.46699" lon="6.75899">
        <ele>400.9</ele>
        <time>2017-02-12T11:15:30.999Z</time>
      </trkpt>
      <trkpt lat="47.46698" lon="6.75905">
        <ele>400.9</ele>
        <time>2017-02-12T11:15:31.999Z</time>
      </trkpt>
      <trkpt lat="47.46697" lon="6.75911">
        <ele>400.8</ele>
        <time>2017-02-12T11:15:32.999Z</time>
      </trkpt>
      <trkpt lat="47.46696" lon="6.75915">
        <ele>400.8</ele>
        <time>2017-02-12T11:15:33.999Z</time>
      </trkpt>
      <trkpt lat="47.46695" lon="6.7592">
        <ele>400.7</ele>
        <time>2017-02-12T11:15:34.999Z</time>
      </trkpt>
      <trkpt lat="47.46695" lon="6.75925">
        <ele>400.7</ele>
        <time>2017-02-12T11:15:35.999Z</time>
      </trkpt>
      <trkpt lat="47.46695" lon="6.75931">
        <ele>400.6</ele>
        <time>2017-02-12T11:15:36.999Z</time>
      </trkpt>
      <trkpt lat="47.46695" lon="6.75937">
        <ele>400.4</ele>
        <time>2017-02-12T11:15:37.999Z</time>
      </trkpt>
      <trkpt lat="47.46694" lon="6.75942">
        <ele>400.2</ele>
        <time>2017-02-12T11:15:38.999Z</time>
      </trkpt>
      <trkpt lat="47.46693" lon="6.75946">
        <ele>400.1</ele>
        <time>2017-02-12T11:15:39.999Z</time>
      </trkpt>
      <trkpt lat="47.46692" lon="6.75951">
        <ele>400</ele>
        <time>2017-02-12T11:15:40.999Z</time>
      </trkpt>
      <trkpt lat="47.46692" lon="6.75954">
        <ele>399.9</ele>
        <time>2017-02-12T11:15:41.999Z</time>
      </trkpt>
      <trkpt lat="47.4669" lon="6.75959">
        <ele>399.7</ele>
        <time>2017-02-12T11:15:43.999Z</time>
      </trkpt>
      <trkpt lat="47.46689" lon="6.75962">
        <ele>399.6</ele>
        <time>2017-02-12T11:15:44.999Z</time>
      </trkpt>
      <trkpt lat="47.46688" lon="6.75966">
        <ele>399.4</ele>
        <time>2017-02-12T11:15:46.999Z</time>
      </trkpt>
      <trkpt lat="47.46687" lon="6.7597">
        <ele>399.3</ele>
        <time>2017-02-12T11:15:47.999Z</time>
      </trkpt>
      <trkpt lat="47.46686" lon="6.75975">
        <ele>399.1</ele>
        <time>2017-02-12T11:15:49.999Z</time>
      </trkpt>
      <trkpt lat="47.46685" lon="6.75977">
        <ele>398.9</ele>
        <time>2017-02-12T11:15:50.999Z</time>
      </trkpt>
      <trkpt lat="47.46683" lon="6.75982">
        <ele>398.3</ele>
        <time>2017-02-12T11:15:52.999Z</time>
      </trkpt>
      <trkpt lat="47.46683" lon="6.75985">
        <ele>398</ele>
        <time>2017-02-12T11:15:53.999Z</time>
      </trkpt>
      <trkpt lat="47.46683" lon="6.75988">
        <ele>397.7</ele>
        <time>2017-02-12T11:15:54.999Z</time>
      </trkpt>
      <trkpt lat="47.46683" lon="6.75991">
        <ele>397.4</ele>
        <time>2017-02-12T11:15:55.999Z</time>
      </trkpt>
      <trkpt lat="47.46684" lon="6.75995">
        <ele>397</ele>
        <time>2017-02-12T11:15:57.999Z</time>
      </trkpt>
      <trkpt lat="47.46686" lon="6.75998">
        <ele>396.6</ele>
        <time>2017-02-12T11:15:58.999Z</time>
      </trkpt>
      <trkpt lat="47.46689" lon="6.76003">
        <ele>396.5</ele>
        <time>2017-02-12T11:15:59.999Z</time>
      </trkpt>
      <trkpt lat="47.46691" lon="6.76003">
        <ele>396.3</ele>
        <time>2017-02-12T11:16:00.999Z</time>
      </trkpt>
      <trkpt lat="47.46693" lon="6.76004">
        <ele>396.2</ele>
        <time>2017-02-12T11:16:01.999Z</time>
      </trkpt>
      <trkpt lat="47.46696" lon="6.76003">
        <ele>396</ele>
        <time>2017-02-12T11:16:02.999Z</time>
      </trkpt>
      <trkpt lat="47.467" lon="6.76003">
        <ele>395.7</ele>
        <time>2017-02-12T11:16:04.999Z</time>
      </trkpt>
      <trkpt lat="47.46702" lon="6.76003">
        <ele>395.5</ele>
        <time>2017-02-12T11:16:05.999Z</time>
      </trkpt>
      <trkpt lat="47.46704" lon="6.76005">
        <ele>395.3</ele>
        <time>2017-02-12T11:16:06.999Z</time>
      </trkpt>
      <trkpt lat="47.46707" lon="6.76006">
        <ele>395.1</ele>
        <time>2017-02-12T11:16:07.999Z</time>
      </trkpt>
      <trkpt lat="47.4671" lon="6.76008">
        <ele>395</ele>
        <time>2017-02-12T11:16:08.999Z</time>
      </trkpt>
      <trkpt lat="47.46714" lon="6.76009">
        <ele>394.9</ele>
        <time>2017-02-12T11:16:09.999Z</time>
      </trkpt>
      <trkpt lat="47.46717" lon="6.7601">
        <ele>394.7</ele>
        <time>2017-02-12T11:16:10.999Z</time>
      </trkpt>
      <trkpt lat="47.4672" lon="6.7601">
        <ele>394.5</ele>
        <time>2017-02-12T11:16:11.999Z</time>
      </trkpt>
      <trkpt lat="47.46724" lon="6.76009">
        <ele>394.3</ele>
        <time>2017-02-12T11:16:12.999Z</time>
      </trkpt>
      <trkpt lat="47.46728" lon="6.76009">
        <ele>394.2</ele>
        <time>2017-02-12T11:16:13.999Z</time>
      </trkpt>
      <trkpt lat="47.46731" lon="6.76009">
        <ele>394</ele>
        <time>2017-02-12T11:16:14.999Z</time>
      </trkpt>
      <trkpt lat="47.46734" lon="6.7601">
        <ele>393.9</ele>
        <time>2017-02-12T11:16:15.999Z</time>
      </trkpt>
      <trkpt lat="47.46737" lon="6.7601">
        <ele>393.7</ele>
        <time>2017-02-12T11:16:16.999Z</time>
      </trkpt>
      <trkpt lat="47.46739" lon="6.76009">
        <ele>393.6</ele>
        <time>2017-02-12T11:16:17.999Z</time>
      </trkpt>
      <trkpt lat="47.46742" lon="6.76011">
        <ele>392.9</ele>
        <time>2017-02-12T11:16:21.999Z</time>
      </trkpt>
      <trkpt lat="47.46743" lon="6.76015">
        <ele>392.7</ele>
        <time>2017-02-12T11:16:22.999Z</time>
      </trkpt>
      <trkpt lat="47.46745" lon="6.76021">
        <ele>392.6</ele>
        <time>2017-02-12T11:16:23.999Z</time>
      </trkpt>
      <trkpt lat="47.46747" lon="6.76026">
        <ele>392.4</ele>
        <time>2017-02-12T11:16:24.999Z</time>
      </trkpt>
      <trkpt lat="47.46748" lon="6.76034">
        <ele>390.7</ele>
        <time>2017-02-12T11:16:25.999Z</time>
      </trkpt>
      <trkpt lat="47.4675" lon="6.76041">
        <ele>389</ele>
        <time>2017-02-12T11:16:26.999Z</time>
      </trkpt>
      <trkpt lat="47.46751" lon="6.76048">
        <ele>387.9</ele>
        <time>2017-02-12T11:16:27.999Z</time>
      </trkpt>
      <trkpt lat="47.46749" lon="6.76053">
        <ele>386.8</ele>
        <time>2017-02-12T11:16:28.999Z</time>
      </trkpt>
      <trkpt lat="47.46746" lon="6.76059">
        <ele>385.4</ele>
        <time>2017-02-12T11:16:29.999Z</time>
      </trkpt>
      <trkpt lat="47.46742" lon="6.76067">
        <ele>384</ele>
        <time>2017-02-12T11:16:30.999Z</time>
      </trkpt>
      <trkpt lat="47.46739" lon="6.76075">
        <ele>382.3</ele>
        <time>2017-02-12T11:16:31.999Z</time>
      </trkpt>
      <trkpt lat="47.46737" lon="6.76084">
        <ele>380.3</ele>
        <time>2017-02-12T11:16:32.999Z</time>
      </trkpt>
      <trkpt lat="47.46736" lon="6.76091">
        <ele>377.5</ele>
        <time>2017-02-12T11:16:33.999Z</time>
      </trkpt>
      <trkpt lat="47.46735" lon="6.76098">
        <ele>376.3</ele>
        <time>2017-02-12T11:16:34.999Z</time>
      </trkpt>
      <trkpt lat="47.46735" lon="6.76105">
        <ele>374.9</ele>
        <time>2017-02-12T11:16:35.999Z</time>
      </trkpt>
      <trkpt lat="47.46734" lon="6.76111">
        <ele>374.2</ele>
        <time>2017-02-12T11:16:36.999Z</time>
      </trkpt>
      <trkpt lat="47.46732" lon="6.76117">
        <ele>374.1</ele>
        <time>2017-02-12T11:16:37.999Z</time>
      </trkpt>
      <trkpt lat="47.46732" lon="6.76123">
        <ele>374.1</ele>
        <time>2017-02-12T11:16:38.999Z</time>
      </trkpt>
      <trkpt lat="47.46731" lon="6.76131">
        <ele>374</ele>
        <time>2017-02-12T11:16:39.999Z</time>
      </trkpt>
      <trkpt lat="47.46731" lon="6.76138">
        <ele>373.9</ele>
        <time>2017-02-12T11:16:40.999Z</time>
      </trkpt>
      <trkpt lat="47.46731" lon="6.76144">
        <ele>373.8</ele>
        <time>2017-02-12T11:16:41.999Z</time>
      </trkpt>
      <trkpt lat="47.46731" lon="6.7615">
        <ele>373.6</ele>
        <time>2017-02-12T11:16:42.999Z</time>
      </trkpt>
      <trkpt lat="47.46731" lon="6.76156">
        <ele>373.5</ele>
        <time>2017-02-12T11:16:43.999Z</time>
      </trkpt>
      <trkpt lat="47.46731" lon="6.76162">
        <ele>373.4</ele>
        <time>2017-02-12T11:16:44.999Z</time>
      </trkpt>
      <trkpt lat="47.46731" lon="6.76168">
        <ele>373.3</ele>
        <time>2017-02-12T11:16:45.999Z</time>
      </trkpt>
      <trkpt lat="47.46731" lon="6.76174">
        <ele>373.2</ele>
        <time>2017-02-12T11:16:46.999Z</time>
      </trkpt>
      <trkpt lat="47.46731" lon="6.76179">
        <ele>373.1</ele>
        <time>2017-02-12T11:16:47.999Z</time>
      </trkpt>
      <trkpt lat="47.46731" lon="6.76184">
        <ele>373</ele>
        <time>2017-02-12T11:16:48.999Z</time>
      </trkpt>
      <trkpt lat="47.46731" lon="6.76188">
        <ele>372.9</ele>
        <time>2017-02-12T11:16:49.999Z</time>
      </trkpt>
      <trkpt lat="47.46731" lon="6.76192">
        <ele>372.8</ele>
        <time>2017-02-12T11:16:50.999Z</time>
      </trkpt>
      <trkpt lat="47.4673" lon="6.76195">
        <ele>372.6</ele>
        <time>2017-02-12T11:16:51.999Z</time>
      </trkpt>
      <trkpt lat="47.46729" lon="6.762">
        <ele>372.6</ele>
        <time>2017-02-12T11:16:52.999Z</time>
      </trkpt>
      <trkpt lat="47.46729" lon="6.76205">
        <ele>372.4</ele>
        <time>2017-02-12T11:16:53.999Z</time>
      </trkpt>
      <trkpt lat="47.46729" lon="6.76211">
        <ele>372.4</ele>
        <time>2017-02-12T11:16:54.999Z</time>
      </trkpt>
      <trkpt lat="47.46729" lon="6.76216">
        <ele>372.3</ele>
        <time>2017-02-12T11:16:55.999Z</time>
      </trkpt>
      <trkpt lat="47.46729" lon="6.76221">
        <ele>372.2</ele>
        <time>2017-02-12T11:16:56.999Z</time>
      </trkpt>
      <trkpt lat="47.46729" lon="6.76227">
        <ele>371.2</ele>
        <time>2017-02-12T11:16:57.999Z</time>
      </trkpt>
      <trkpt lat="47.46728" lon="6.76233">
        <ele>371.2</ele>
        <time>2017-02-12T11:16:58.999Z</time>
      </trkpt>
      <trkpt lat="47.46728" lon="6.76239">
        <ele>371.1</ele>
        <time>2017-02-12T11:16:59.999Z</time>
      </trkpt>
      <trkpt lat="47.46727" lon="6.76245">
        <ele>370.9</ele>
        <time>2017-02-12T11:17:00.999Z</time>
      </trkpt>
      <trkpt lat="47.46726" lon="6.7625">
        <ele>370.8</ele>
        <time>2017-02-12T11:17:01.999Z</time>
      </trkpt>
      <trkpt lat="47.46726" lon="6.76256">
        <ele>370.7</ele>
        <time>2017-02-12T11:17:02.999Z</time>
      </trkpt>
      <trkpt lat="47.46725" lon="6.76261">
        <ele>370.5</ele>
        <time>2017-02-12T11:17:03.999Z</time>
      </trkpt>
      <trkpt lat="47.46725" lon="6.76267">
        <ele>369.2</ele>
        <time>2017-02-12T11:17:04.999Z</time>
      </trkpt>
      <trkpt lat="47.46724" lon="6.76273">
        <ele>368.2</ele>
        <time>2017-02-12T11:17:05.999Z</time>
      </trkpt>
      <trkpt lat="47.46725" lon="6.76279">
        <ele>368</ele>
        <time>2017-02-12T11:17:06.999Z</time>
      </trkpt>
      <trkpt lat="47.46726" lon="6.76285">
        <ele>367.3</ele>
        <time>2017-02-12T11:17:07.999Z</time>
      </trkpt>
      <trkpt lat="47.46729" lon="6.7629">
        <ele>366.5</ele>
        <time>2017-02-12T11:17:08.999Z</time>
      </trkpt>
      <trkpt lat="47.46732" lon="6.76293">
        <ele>366.5</ele>
        <time>2017-02-12T11:17:09.999Z</time>
      </trkpt>
      <trkpt lat="47.46736" lon="6.76293">
        <ele>366.5</ele>
        <time>2017-02-12T11:17:10.999Z</time>
      </trkpt>
      <trkpt lat="47.4674" lon="6.76294">
        <ele>367.2</ele>
        <time>2017-02-12T11:17:11.999Z</time>
      </trkpt>
      <trkpt lat="47.46744" lon="6.76294">
        <ele>367.3</ele>
        <time>2017-02-12T11:17:12.999Z</time>
      </trkpt>
      <trkpt lat="47.46747" lon="6.76294">
        <ele>367.3</ele>
        <time>2017-02-12T11:17:13.999Z</time>
      </trkpt>
      <trkpt lat="47.46751" lon="6.76295">
        <ele>367.4</ele>
        <time>2017-02-12T11:17:14.999Z</time>
      </trkpt>
      <trkpt lat="47.46775" lon="6.76287">
        <ele>367.8</ele>
        <time>2017-02-12T11:17:20.999Z</time>
      </trkpt>
      <trkpt lat="47.4678" lon="6.76286">
        <ele>368.1</ele>
        <time>2017-02-12T11:17:21.999Z</time>
      </trkpt>
      <trkpt lat="47.46784" lon="6.76287">
        <ele>368.1</ele>
        <time>2017-02-12T11:17:22.999Z</time>
      </trkpt>
      <trkpt lat="47.46788" lon="6.76293">
        <ele>368.4</ele>
        <time>2017-02-12T11:17:23.999Z</time>
      </trkpt>
      <trkpt lat="47.46794" lon="6.76298">
        <ele>368.7</ele>
        <time>2017-02-12T11:17:24.999Z</time>
      </trkpt>
      <trkpt lat="47.46797" lon="6.763">
        <ele>368.9</ele>
        <time>2017-02-12T11:17:25.999Z</time>
      </trkpt>
      <trkpt lat="47.468" lon="6.76304">
        <ele>369.5</ele>
        <time>2017-02-12T11:17:26.999Z</time>
      </trkpt>
      <trkpt lat="47.46804" lon="6.76306">
        <ele>369.9</ele>
        <time>2017-02-12T11:17:27.999Z</time>
      </trkpt>
      <trkpt lat="47.46808" lon="6.76309">
        <ele>370.8</ele>
        <time>2017-02-12T11:17:28.999Z</time>
      </trkpt>
      <trkpt lat="47.46812" lon="6.76311">
        <ele>371.5</ele>
        <time>2017-02-12T11:17:29.999Z</time>
      </trkpt>
      <trkpt lat="47.46817" lon="6.76311">
        <ele>371.7</ele>
        <time>2017-02-12T11:17:30.999Z</time>
      </trkpt>
      <trkpt lat="47.46822" lon="6.7631">
        <ele>371.9</ele>
        <time>2017-02-12T11:17:31.999Z</time>
      </trkpt>
      <trkpt lat="47.46827" lon="6.76309">
        <ele>371.7</ele>
        <time>2017-02-12T11:17:32.999Z</time>
      </trkpt>
      <trkpt lat="47.46832" lon="6.76307">
        <ele>371.6</ele>
        <time>2017-02-12T11:17:33.999Z</time>
      </trkpt>
      <trkpt lat="47.46837" lon="6.76306">
        <ele>371.5</ele>
        <time>2017-02-12T11:17:34.999Z</time>
      </trkpt>
      <trkpt lat="47.46841" lon="6.76307">
        <ele>371.4</ele>
        <time>2017-02-12T11:17:35.999Z</time>
      </trkpt>
      <trkpt lat="47.46845" lon="6.76307">
        <ele>371.6</ele>
        <time>2017-02-12T11:17:36.999Z</time>
      </trkpt>
      <trkpt lat="47.46848" lon="6.76308">
        <ele>371.8</ele>
        <time>2017-02-12T11:17:37.999Z</time>
      </trkpt>
      <trkpt lat="47.4685" lon="6.7631">
        <ele>371.4</ele>
        <time>2017-02-12T11:17:38.999Z</time>
      </trkpt>
      <trkpt lat="47.46853" lon="6.76313">
        <ele>371</ele>
        <time>2017-02-12T11:17:39.999Z</time>
      </trkpt>
      <trkpt lat="47.46857" lon="6.76315">
        <ele>370.8</ele>
        <time>2017-02-12T11:17:40.999Z</time>
      </trkpt>
      <trkpt lat="47.4686" lon="6.76318">
        <ele>370.4</ele>
        <time>2017-02-12T11:17:41.999Z</time>
      </trkpt>
      <trkpt lat="47.46863" lon="6.76321">
        <ele>369.7</ele>
        <time>2017-02-12T11:17:42.999Z</time>
      </trkpt>
      <trkpt lat="47.46866" lon="6.76325">
        <ele>368.9</ele>
        <time>2017-02-12T11:17:43.999Z</time>
      </trkpt>
      <trkpt lat="47.4687" lon="6.7633">
        <ele>368.2</ele>
        <time>2017-02-12T11:17:44.999Z</time>
      </trkpt>
      <trkpt lat="47.46875" lon="6.76333">
        <ele>367.4</ele>
        <time>2017-02-12T11:17:45.999Z</time>
      </trkpt>
      <trkpt lat="47.4688" lon="6.76333">
        <ele>367.5</ele>
        <time>2017-02-12T11:17:46.999Z</time>
      </trkpt>
      <trkpt lat="47.46886" lon="6.76333">
        <ele>367.2</ele>
        <time>2017-02-12T11:17:47.999Z</time>
      </trkpt>
      <trkpt lat="47.46891" lon="6.76333">
        <ele>367.2</ele>
        <time>2017-02-12T11:17:48.999Z</time>
      </trkpt>
      <trkpt lat="47.46896" lon="6.76332">
        <ele>367.8</ele>
        <time>2017-02-12T11:17:49.999Z</time>
      </trkpt>
      <trkpt lat="47.46901" lon="6.76331">
        <ele>368</ele>
        <time>2017-02-12T11:17:50.999Z</time>
      </trkpt>
      <trkpt lat="47.46905" lon="6.76331">
        <ele>368.3</ele>
        <time>2017-02-12T11:17:51.999Z</time>
      </trkpt>
      <trkpt lat="47.4691" lon="6.76331">
        <ele>368.6</ele>
        <time>2017-02-12T11:17:52.999Z</time>
      </trkpt>
      <trkpt lat="47.46914" lon="6.76331">
        <ele>368.9</ele>
        <time>2017-02-12T11:17:53.999Z</time>
      </trkpt>
      <trkpt lat="47.46919" lon="6.76331">
        <ele>369.2</ele>
        <time>2017-02-12T11:17:54.999Z</time>
      </trkpt>
      <trkpt lat="47.46922" lon="6.76331">
        <ele>368.9</ele>
        <time>2017-02-12T11:17:55.999Z</time>
      </trkpt>
      <trkpt lat="47.46926" lon="6.76331">
        <ele>368.9</ele>
        <time>2017-02-12T11:17:56.999Z</time>
      </trkpt>
      <trkpt lat="47.46931" lon="6.76331">
        <ele>369.1</ele>
        <time>2017-02-12T11:17:57.999Z</time>
      </trkpt>
      <trkpt lat="47.46935" lon="6.76332">
        <ele>369</ele>
        <time>2017-02-12T11:17:58.999Z</time>
      </trkpt>
      <trkpt lat="47.46938" lon="6.76332">
        <ele>369</ele>
        <time>2017-02-12T11:17:59.999Z</time>
      </trkpt>
      <trkpt lat="47.46942" lon="6.76333">
        <ele>369</ele>
        <time>2017-02-12T11:18:00.999Z</time>
      </trkpt>
      <trkpt lat="47.46946" lon="6.76334">
        <ele>368.5</ele>
        <time>2017-02-12T11:18:01.999Z</time>
      </trkpt>
      <trkpt lat="47.4695" lon="6.76335">
        <ele>368.3</ele>
        <time>2017-02-12T11:18:02.999Z</time>
      </trkpt>
      <trkpt lat="47.46953" lon="6.76335">
        <ele>368</ele>
        <time>2017-02-12T11:18:03.999Z</time>
      </trkpt>
      <trkpt lat="47.46957" lon="6.76336">
        <ele>367.5</ele>
        <time>2017-02-12T11:18:04.999Z</time>
      </trkpt>
      <trkpt lat="47.4696" lon="6.76337">
        <ele>367.7</ele>
        <time>2017-02-12T11:18:05.999Z</time>
      </trkpt>
      <trkpt lat="47.46964" lon="6.76339">
        <ele>367.6</ele>
        <time>2017-02-12T11:18:06.999Z</time>
      </trkpt>
      <trkpt lat="47.46969" lon="6.7634">
        <ele>367.7</ele>
        <time>2017-02-12T11:18:07.999Z</time>
      </trkpt>
      <trkpt lat="47.46973" lon="6.76341">
        <ele>368.2</ele>
        <time>2017-02-12T11:18:08.999Z</time>
      </trkpt>
      <trkpt lat="47.46978" lon="6.76342">
        <ele>369</ele>
        <time>2017-02-12T11:18:09.999Z</time>
      </trkpt>
      <trkpt lat="47.46983" lon="6.76343">
        <ele>370</ele>
        <time>2017-02-12T11:18:10.999Z</time>
      </trkpt>
      <trkpt lat="47.46986" lon="6.76344">
        <ele>370.7</ele>
        <time>2017-02-12T11:18:11.999Z</time>
      </trkpt>
      <trkpt lat="47.46991" lon="6.76345">
        <ele>370.8</ele>
        <time>2017-02-12T11:18:12.999Z</time>
      </trkpt>
      <trkpt lat="47.46996" lon="6.76347">
        <ele>370.6</ele>
        <time>2017-02-12T11:18:13.999Z</time>
      </trkpt>
      <trkpt lat="47.47001" lon="6.76347">
        <ele>370.6</ele>
        <time>2017-02-12T11:18:14.999Z</time>
      </trkpt>
      <trkpt lat="47.47006" lon="6.76348">
        <ele>370</ele>
        <time>2017-02-12T11:18:15.999Z</time>
      </trkpt>
      <trkpt lat="47.47011" lon="6.76349">
        <ele>369.5</ele>
        <time>2017-02-12T11:18:16.999Z</time>
      </trkpt>
      <trkpt lat="47.47016" lon="6.7635">
        <ele>369.2</ele>
        <time>2017-02-12T11:18:17.999Z</time>
      </trkpt>
      <trkpt lat="47.47022" lon="6.76351">
        <ele>369.1</ele>
        <time>2017-02-12T11:18:18.999Z</time>
      </trkpt>
      <trkpt lat="47.47026" lon="6.76351">
        <ele>369.1</ele>
        <time>2017-02-12T11:18:19.999Z</time>
      </trkpt>
      <trkpt lat="47.4703" lon="6.76351">
        <ele>368.8</ele>
        <time>2017-02-12T11:18:20.999Z</time>
      </trkpt>
      <trkpt lat="47.47034" lon="6.76351">
        <ele>368.6</ele>
        <time>2017-02-12T11:18:21.999Z</time>
      </trkpt>
      <trkpt lat="47.47038" lon="6.76352">
        <ele>368.2</ele>
        <time>2017-02-12T11:18:22.999Z</time>
      </trkpt>
      <trkpt lat="47.47043" lon="6.76353">
        <ele>368.4</ele>
        <time>2017-02-12T11:18:23.999Z</time>
      </trkpt>
      <trkpt lat="47.47047" lon="6.76355">
        <ele>368.9</ele>
        <time>2017-02-12T11:18:24.999Z</time>
      </trkpt>
      <trkpt lat="47.47052" lon="6.76356">
        <ele>369.1</ele>
        <time>2017-02-12T11:18:25.999Z</time>
      </trkpt>
      <trkpt lat="47.47057" lon="6.76357">
        <ele>369</ele>
        <time>2017-02-12T11:18:26.999Z</time>
      </trkpt>
      <trkpt lat="47.47063" lon="6.76358">
        <ele>368.4</ele>
        <time>2017-02-12T11:18:27.999Z</time>
      </trkpt>
      <trkpt lat="47.47067" lon="6.76359">
        <ele>367.9</ele>
        <time>2017-02-12T11:18:28.999Z</time>
      </trkpt>
      <trkpt lat="47.47073" lon="6.7636">
        <ele>368</ele>
        <time>2017-02-12T11:18:29.999Z</time>
      </trkpt>
      <trkpt lat="47.47078" lon="6.76361">
        <ele>367.9</ele>
        <time>2017-02-12T11:18:30.999Z</time>
      </trkpt>
      <trkpt lat="47.47083" lon="6.76362">
        <ele>367.7</ele>
        <time>2017-02-12T11:18:31.999Z</time>
      </trkpt>
      <trkpt lat="47.47088" lon="6.76363">
        <ele>367.4</ele>
        <time>2017-02-12T11:18:32.999Z</time>
      </trkpt>
      <trkpt lat="47.47092" lon="6.76364">
        <ele>366.9</ele>
        <time>2017-02-12T11:18:33.999Z</time>
      </trkpt>
      <trkpt lat="47.47097" lon="6.76365">
        <ele>366.5</ele>
        <time>2017-02-12T11:18:34.999Z</time>
      </trkpt>
      <trkpt lat="47.47101" lon="6.76366">
        <ele>366</ele>
        <time>2017-02-12T11:18:35.999Z</time>
      </trkpt>
      <trkpt lat="47.47106" lon="6.76367">
        <ele>365.6</ele>
        <time>2017-02-12T11:18:36.999Z</time>
      </trkpt>
      <trkpt lat="47.47111" lon="6.76368">
        <ele>365.2</ele>
        <time>2017-02-12T11:18:37.999Z</time>
      </trkpt>
      <trkpt lat="47.47116" lon="6.76369">
        <ele>364.8</ele>
        <time>2017-02-12T11:18:38.999Z</time>
      </trkpt>
      <trkpt lat="47.47121" lon="6.7637">
        <ele>364.4</ele>
        <time>2017-02-12T11:18:39.999Z</time>
      </trkpt>
      <trkpt lat="47.47126" lon="6.76371">
        <ele>364.1</ele>
        <time>2017-02-12T11:18:40.999Z</time>
      </trkpt>
      <trkpt lat="47.47131" lon="6.76373">
        <ele>363.7</ele>
        <time>2017-02-12T11:18:41.999Z</time>
      </trkpt>
      <trkpt lat="47.47136" lon="6.76374">
        <ele>363.8</ele>
        <time>2017-02-12T11:18:42.999Z</time>
      </trkpt>
      <trkpt lat="47.47141" lon="6.76375">
        <ele>363.7</ele>
        <time>2017-02-12T11:18:43.999Z</time>
      </trkpt>
      <trkpt lat="47.47144" lon="6.76376">
        <ele>364</ele>
        <time>2017-02-12T11:18:44.999Z</time>
      </trkpt>
      <trkpt lat="47.47149" lon="6.76377">
        <ele>364.6</ele>
        <time>2017-02-12T11:18:45.999Z</time>
      </trkpt>
      <trkpt lat="47.47153" lon="6.76379">
        <ele>364.6</ele>
        <time>2017-02-12T11:18:46.999Z</time>
      </trkpt>
      <trkpt lat="47.47157" lon="6.7638">
        <ele>364.9</ele>
        <time>2017-02-12T11:18:47.999Z</time>
      </trkpt>
      <trkpt lat="47.47161" lon="6.76381">
        <ele>365.1</ele>
        <time>2017-02-12T11:18:48.999Z</time>
      </trkpt>
      <trkpt lat="47.47165" lon="6.76382">
        <ele>365.3</ele>
        <time>2017-02-12T11:18:49.999Z</time>
      </trkpt>
      <trkpt lat="47.47169" lon="6.76383">
        <ele>365.6</ele>
        <time>2017-02-12T11:18:50.999Z</time>
      </trkpt>
      <trkpt lat="47.47175" lon="6.76385">
        <ele>365.5</ele>
        <time>2017-02-12T11:18:51.999Z</time>
      </trkpt>
      <trkpt lat="47.4718" lon="6.76387">
        <ele>365.6</ele>
        <time>2017-02-12T11:18:52.999Z</time>
      </trkpt>
      <trkpt lat="47.47184" lon="6.76388">
        <ele>366.1</ele>
        <time>2017-02-12T11:18:53.999Z</time>
      </trkpt>
      <trkpt lat="47.47189" lon="6.7639">
        <ele>366.5</ele>
        <time>2017-02-12T11:18:54.999Z</time>
      </trkpt>
      <trkpt lat="47.47194" lon="6.76391">
        <ele>366.7</ele>
        <time>2017-02-12T11:18:55.999Z</time>
      </trkpt>
      <trkpt lat="47.47199" lon="6.76393">
        <ele>366.8</ele>
        <time>2017-02-12T11:18:56.999Z</time>
      </trkpt>
      <trkpt lat="47.47203" lon="6.76396">
        <ele>366.8</ele>
        <time>2017-02-12T11:18:57.999Z</time>
      </trkpt>
      <trkpt lat="47.47208" lon="6.76397">
        <ele>367</ele>
        <time>2017-02-12T11:18:58.999Z</time>
      </trkpt>
      <trkpt lat="47.47213" lon="6.76398">
        <ele>366.9</ele>
        <time>2017-02-12T11:18:59.999Z</time>
      </trkpt>
      <trkpt lat="47.47217" lon="6.76399">
        <ele>366.8</ele>
        <time>2017-02-12T11:19:00.999Z</time>
      </trkpt>
      <trkpt lat="47.47222" lon="6.76399">
        <ele>366.7</ele>
        <time>2017-02-12T11:19:01.999Z</time>
      </trkpt>
      <trkpt lat="47.47228" lon="6.76399">
        <ele>366.6</ele>
        <time>2017-02-12T11:19:02.999Z</time>
      </trkpt>
      <trkpt lat="47.47234" lon="6.76399">
        <ele>366.4</ele>
        <time>2017-02-12T11:19:03.999Z</time>
      </trkpt>
      <trkpt lat="47.47239" lon="6.76398">
        <ele>366.3</ele>
        <time>2017-02-12T11:19:04.999Z</time>
      </trkpt>
      <trkpt lat="47.47243" lon="6.76398">
        <ele>366.6</ele>
        <time>2017-02-12T11:19:05.999Z</time>
      </trkpt>
      <trkpt lat="47.47248" lon="6.76397">
        <ele>366.8</ele>
        <time>2017-02-12T11:19:06.999Z</time>
      </trkpt>
      <trkpt lat="47.47253" lon="6.76396">
        <ele>366.6</ele>
        <time>2017-02-12T11:19:07.999Z</time>
      </trkpt>
      <trkpt lat="47.47258" lon="6.76395">
        <ele>366.1</ele>
        <time>2017-02-12T11:19:08.999Z</time>
      </trkpt>
      <trkpt lat="47.47263" lon="6.76393">
        <ele>365.6</ele>
        <time>2017-02-12T11:19:09.999Z</time>
      </trkpt>
      <trkpt lat="47.47268" lon="6.76393">
        <ele>365.4</ele>
        <time>2017-02-12T11:19:10.999Z</time>
      </trkpt>
      <trkpt lat="47.47273" lon="6.76391">
        <ele>365.1</ele>
        <time>2017-02-12T11:19:11.999Z</time>
      </trkpt>
      <trkpt lat="47.47279" lon="6.7639">
        <ele>364.9</ele>
        <time>2017-02-12T11:19:12.999Z</time>
      </trkpt>
      <trkpt lat="47.47284" lon="6.76389">
        <ele>364.8</ele>
        <time>2017-02-12T11:19:13.999Z</time>
      </trkpt>
      <trkpt lat="47.47289" lon="6.76388">
        <ele>364.7</ele>
        <time>2017-02-12T11:19:14.999Z</time>
      </trkpt>
      <trkpt lat="47.47293" lon="6.76387">
        <ele>364.6</ele>
        <time>2017-02-12T11:19:15.999Z</time>
      </trkpt>
      <trkpt lat="47.47296" lon="6.76385">
        <ele>364.5</ele>
        <time>2017-02-12T11:19:16.999Z</time>
      </trkpt>
      <trkpt lat="47.47301" lon="6.76384">
        <ele>364.7</ele>
        <time>2017-02-12T11:19:17.999Z</time>
      </trkpt>
      <trkpt lat="47.47305" lon="6.76383">
        <ele>364.7</ele>
        <time>2017-02-12T11:19:18.999Z</time>
      </trkpt>
      <trkpt lat="47.47311" lon="6.76384">
        <ele>364.3</ele>
        <time>2017-02-12T11:19:19.999Z</time>
      </trkpt>
      <trkpt lat="47.47316" lon="6.76386">
        <ele>363.7</ele>
        <time>2017-02-12T11:19:20.999Z</time>
      </trkpt>
      <trkpt lat="47.4732" lon="6.76387">
        <ele>363.2</ele>
        <time>2017-02-12T11:19:21.999Z</time>
      </trkpt>
      <trkpt lat="47.47325" lon="6.76389">
        <ele>363.1</ele>
        <time>2017-02-12T11:19:22.999Z</time>
      </trkpt>
      <trkpt lat="47.47329" lon="6.76392">
        <ele>362.5</ele>
        <time>2017-02-12T11:19:23.999Z</time>
      </trkpt>
      <trkpt lat="47.47333" lon="6.76394">
        <ele>362.2</ele>
        <time>2017-02-12T11:19:24.999Z</time>
      </trkpt>
      <trkpt lat="47.47336" lon="6.76396">
        <ele>362</ele>
        <time>2017-02-12T11:19:25.999Z</time>
      </trkpt>
      <trkpt lat="47.47339" lon="6.76398">
        <ele>361.6</ele>
        <time>2017-02-12T11:19:26.999Z</time>
      </trkpt>
      <trkpt lat="47.47341" lon="6.764">
        <ele>361.6</ele>
        <time>2017-02-12T11:19:27.999Z</time>
      </trkpt>
      <trkpt lat="47.47344" lon="6.76402">
        <ele>361.7</ele>
        <time>2017-02-12T11:19:28.999Z</time>
      </trkpt>
      <trkpt lat="47.47349" lon="6.76405">
        <ele>361.9</ele>
        <time>2017-02-12T11:19:29.999Z</time>
      </trkpt>
      <trkpt lat="47.47353" lon="6.76407">
        <ele>361.4</ele>
        <time>2017-02-12T11:19:30.999Z</time>
      </trkpt>
      <trkpt lat="47.47357" lon="6.7641">
        <ele>360.6</ele>
        <time>2017-02-12T11:19:31.999Z</time>
      </trkpt>
      <trkpt lat="47.47361" lon="6.76412">
        <ele>360.1</ele>
        <time>2017-02-12T11:19:32.999Z</time>
      </trkpt>
      <trkpt lat="47.47365" lon="6.76414">
        <ele>360.5</ele>
        <time>2017-02-12T11:19:33.999Z</time>
      </trkpt>
      <trkpt lat="47.47369" lon="6.76417">
        <ele>360.5</ele>
        <time>2017-02-12T11:19:34.999Z</time>
      </trkpt>
      <trkpt lat="47.47374" lon="6.76419">
        <ele>360.8</ele>
        <time>2017-02-12T11:19:35.999Z</time>
      </trkpt>
      <trkpt lat="47.47378" lon="6.76422">
        <ele>361.2</ele>
        <time>2017-02-12T11:19:36.999Z</time>
      </trkpt>
      <trkpt lat="47.47381" lon="6.76423">
        <ele>362</ele>
        <time>2017-02-12T11:19:37.999Z</time>
      </trkpt>
      <trkpt lat="47.47385" lon="6.76425">
        <ele>362.8</ele>
        <time>2017-02-12T11:19:38.999Z</time>
      </trkpt>
      <trkpt lat="47.47388" lon="6.76428">
        <ele>363.5</ele>
        <time>2017-02-12T11:19:39.999Z</time>
      </trkpt>
      <trkpt lat="47.47392" lon="6.76431">
        <ele>364.3</ele>
        <time>2017-02-12T11:19:40.999Z</time>
      </trkpt>
      <trkpt lat="47.47396" lon="6.76436">
        <ele>364.9</ele>
        <time>2017-02-12T11:19:41.999Z</time>
      </trkpt>
      <trkpt lat="47.474" lon="6.76439">
        <ele>364.8</ele>
        <time>2017-02-12T11:19:42.999Z</time>
      </trkpt>
      <trkpt lat="47.47403" lon="6.76443">
        <ele>365.1</ele>
        <time>2017-02-12T11:19:43.999Z</time>
      </trkpt>
      <trkpt lat="47.47407" lon="6.76446">
        <ele>365.3</ele>
        <time>2017-02-12T11:19:44.999Z</time>
      </trkpt>
      <trkpt lat="47.47412" lon="6.7645">
        <ele>364.8</ele>
        <time>2017-02-12T11:19:45.999Z</time>
      </trkpt>
      <trkpt lat="47.47416" lon="6.76454">
        <ele>365</ele>
        <time>2017-02-12T11:19:46.999Z</time>
      </trkpt>
      <trkpt lat="47.4742" lon="6.76457">
        <ele>365.1</ele>
        <time>2017-02-12T11:19:47.999Z</time>
      </trkpt>
      <trkpt lat="47.47425" lon="6.76458">
        <ele>365.2</ele>
        <time>2017-02-12T11:19:48.999Z</time>
      </trkpt>
      <trkpt lat="47.47427" lon="6.76457">
        <ele>365.2</ele>
        <time>2017-02-12T11:19:49.999Z</time>
      </trkpt>
      <trkpt lat="47.47429" lon="6.76455">
        <ele>365.2</ele>
        <time>2017-02-12T11:19:50.999Z</time>
      </trkpt>
      <trkpt lat="47.47431" lon="6.7645">
        <ele>365.2</ele>
        <time>2017-02-12T11:19:51.999Z</time>
      </trkpt>
      <trkpt lat="47.47434" lon="6.76445">
        <ele>365.2</ele>
        <time>2017-02-12T11:19:52.999Z</time>
      </trkpt>
      <trkpt lat="47.47437" lon="6.76447">
        <ele>366.1</ele>
        <time>2017-02-12T11:20:11.999Z</time>
      </trkpt>
      <trkpt lat="47.47439" lon="6.76447">
        <ele>366.1</ele>
        <time>2017-02-12T11:20:12.999Z</time>
      </trkpt>
      <trkpt lat="47.47442" lon="6.76447">
        <ele>366.2</ele>
        <time>2017-02-12T11:20:13.999Z</time>
      </trkpt>
      <trkpt lat="47.47445" lon="6.76447">
        <ele>366.3</ele>
        <time>2017-02-12T11:20:14.999Z</time>
      </trkpt>
      <trkpt lat="47.47449" lon="6.76446">
        <ele>366.3</ele>
        <time>2017-02-12T11:20:15.999Z</time>
      </trkpt>
      <trkpt lat="47.47453" lon="6.76444">
        <ele>366.3</ele>
        <time>2017-02-12T11:20:16.999Z</time>
      </trkpt>
      <trkpt lat="47.47457" lon="6.76443">
        <ele>365.9</ele>
        <time>2017-02-12T11:20:17.999Z</time>
      </trkpt>
      <trkpt lat="47.47461" lon="6.76443">
        <ele>365.9</ele>
        <time>2017-02-12T11:20:18.999Z</time>
      </trkpt>
      <trkpt lat="47.47465" lon="6.76442">
        <ele>366</ele>
        <time>2017-02-12T11:20:20.999Z</time>
      </trkpt>
      <trkpt lat="47.47468" lon="6.76436">
        <ele>366</ele>
        <time>2017-02-12T11:20:21.999Z</time>
      </trkpt>
      <trkpt lat="47.47472" lon="6.76429">
        <ele>366</ele>
        <time>2017-02-12T11:20:22.999Z</time>
      </trkpt>
      <trkpt lat="47.47475" lon="6.76422">
        <ele>365.9</ele>
        <time>2017-02-12T11:20:23.999Z</time>
      </trkpt>
      <trkpt lat="47.47477" lon="6.76418">
        <ele>365.9</ele>
        <time>2017-02-12T11:20:24.999Z</time>
      </trkpt>
      <trkpt lat="47.4748" lon="6.76415">
        <ele>365.8</ele>
        <time>2017-02-12T11:20:25.999Z</time>
      </trkpt>
      <trkpt lat="47.47482" lon="6.76412">
        <ele>365.8</ele>
        <time>2017-02-12T11:20:26.999Z</time>
      </trkpt>
      <trkpt lat="47.47487" lon="6.7641">
        <ele>364.7</ele>
        <time>2017-02-12T11:20:27.999Z</time>
      </trkpt>
      <trkpt lat="47.47491" lon="6.76409">
        <ele>364.1</ele>
        <time>2017-02-12T11:20:28.999Z</time>
      </trkpt>
      <trkpt lat="47.47495" lon="6.76408">
        <ele>363.7</ele>
        <time>2017-02-12T11:20:29.999Z</time>
      </trkpt>
      <trkpt lat="47.475" lon="6.76407">
        <ele>363</ele>
        <time>2017-02-12T11:20:30.999Z</time>
      </trkpt>
      <trkpt lat="47.47504" lon="6.76409">
        <ele>363.4</ele>
        <time>2017-02-12T11:20:31.999Z</time>
      </trkpt>
      <trkpt lat="47.47507" lon="6.76413">
        <ele>362.8</ele>
        <time>2017-02-12T11:20:32.999Z</time>
      </trkpt>
      <trkpt lat="47.47511" lon="6.76417">
        <ele>362.2</ele>
        <time>2017-02-12T11:20:33.999Z</time>
      </trkpt>
      <trkpt lat="47.47516" lon="6.76416">
        <ele>362.2</ele>
        <time>2017-02-12T11:20:34.999Z</time>
      </trkpt>
      <trkpt lat="47.47522" lon="6.76416">
        <ele>362.1</ele>
        <time>2017-02-12T11:20:35.999Z</time>
      </trkpt>
      <trkpt lat="47.47528" lon="6.76414">
        <ele>362.1</ele>
        <time>2017-02-12T11:20:36.999Z</time>
      </trkpt>
      <trkpt lat="47.47532" lon="6.76412">
        <ele>361.8</ele>
        <time>2017-02-12T11:20:37.999Z</time>
      </trkpt>
      <trkpt lat="47.47536" lon="6.7641">
        <ele>361.8</ele>
        <time>2017-02-12T11:20:38.999Z</time>
      </trkpt>
      <trkpt lat="47.47539" lon="6.76406">
        <ele>361.5</ele>
        <time>2017-02-12T11:20:39.999Z</time>
      </trkpt>
      <trkpt lat="47.47542" lon="6.76403">
        <ele>361.4</ele>
        <time>2017-02-12T11:20:40.999Z</time>
      </trkpt>
      <trkpt lat="47.47545" lon="6.76398">
        <ele>361.2</ele>
        <time>2017-02-12T11:20:41.999Z</time>
      </trkpt>
      <trkpt lat="47.47546" lon="6.76391">
        <ele>361.3</ele>
        <time>2017-02-12T11:20:42.999Z</time>
      </trkpt>
      <trkpt lat="47.47547" lon="6.76383">
        <ele>361.1</ele>
        <time>2017-02-12T11:20:43.999Z</time>
      </trkpt>
      <trkpt lat="47.47549" lon="6.76375">
        <ele>360.1</ele>
        <time>2017-02-12T11:20:44.999Z</time>
      </trkpt>
      <trkpt lat="47.47551" lon="6.76368">
        <ele>359</ele>
        <time>2017-02-12T11:20:45.999Z</time>
      </trkpt>
      <trkpt lat="47.47553" lon="6.76363">
        <ele>359</ele>
        <time>2017-02-12T11:20:46.999Z</time>
      </trkpt>
      <trkpt lat="47.47556" lon="6.76357">
        <ele>359.1</ele>
        <time>2017-02-12T11:20:47.999Z</time>
      </trkpt>
      <trkpt lat="47.47559" lon="6.76352">
        <ele>359</ele>
        <time>2017-02-12T11:20:48.999Z</time>
      </trkpt>
      <trkpt lat="47.47563" lon="6.76346">
        <ele>358.8</ele>
        <time>2017-02-12T11:20:49.999Z</time>
      </trkpt>
      <trkpt lat="47.47566" lon="6.76341">
        <ele>357.4</ele>
        <time>2017-02-12T11:20:50.999Z</time>
      </trkpt>
      <trkpt lat="47.4757" lon="6.76335">
        <ele>357</ele>
        <time>2017-02-12T11:20:51.999Z</time>
      </trkpt>
      <trkpt lat="47.47572" lon="6.7633">
        <ele>356.7</ele>
        <time>2017-02-12T11:20:52.999Z</time>
      </trkpt>
      <trkpt lat="47.47575" lon="6.76324">
        <ele>356.6</ele>
        <time>2017-02-12T11:20:53.999Z</time>
      </trkpt>
      <trkpt lat="47.47578" lon="6.76318">
        <ele>355.7</ele>
        <time>2017-02-12T11:20:54.999Z</time>
      </trkpt>
      <trkpt lat="47.47581" lon="6.76313">
        <ele>355.2</ele>
        <time>2017-02-12T11:20:55.999Z</time>
      </trkpt>
      <trkpt lat="47.47584" lon="6.76307">
        <ele>354.9</ele>
        <time>2017-02-12T11:20:56.999Z</time>
      </trkpt>
      <trkpt lat="47.47586" lon="6.76302">
        <ele>354.5</ele>
        <time>2017-02-12T11:20:57.999Z</time>
      </trkpt>
      <trkpt lat="47.47589" lon="6.76297">
        <ele>354.6</ele>
        <time>2017-02-12T11:20:58.999Z</time>
      </trkpt>
      <trkpt lat="47.47591" lon="6.76293">
        <ele>354.6</ele>
        <time>2017-02-12T11:20:59.999Z</time>
      </trkpt>
      <trkpt lat="47.47594" lon="6.76288">
        <ele>354.8</ele>
        <time>2017-02-12T11:21:00.999Z</time>
      </trkpt>
      <trkpt lat="47.47597" lon="6.76282">
        <ele>355</ele>
        <time>2017-02-12T11:21:01.999Z</time>
      </trkpt>
      <trkpt lat="47.47599" lon="6.76277">
        <ele>355</ele>
        <time>2017-02-12T11:21:02.999Z</time>
      </trkpt>
      <trkpt lat="47.47601" lon="6.76272">
        <ele>355.4</ele>
        <time>2017-02-12T11:21:03.999Z</time>
      </trkpt>
      <trkpt lat="47.47603" lon="6.76268">
        <ele>355.8</ele>
        <time>2017-02-12T11:21:04.999Z</time>
      </trkpt>
      <trkpt lat="47.47607" lon="6.76262">
        <ele>356</ele>
        <time>2017-02-12T11:21:05.999Z</time>
      </trkpt>
      <trkpt lat="47.47609" lon="6.76256">
        <ele>356.6</ele>
        <time>2017-02-12T11:21:06.999Z</time>
      </trkpt>
      <trkpt lat="47.47612" lon="6.76249">
        <ele>357.3</ele>
        <time>2017-02-12T11:21:07.999Z</time>
      </trkpt>
      <trkpt lat="47.47614" lon="6.76243">
        <ele>358.4</ele>
        <time>2017-02-12T11:21:08.999Z</time>
      </trkpt>
      <trkpt lat="47.47617" lon="6.76237">
        <ele>359.6</ele>
        <time>2017-02-12T11:21:09.999Z</time>
      </trkpt>
      <trkpt lat="47.4762" lon="6.76231">
        <ele>361</ele>
        <time>2017-02-12T11:21:10.999Z</time>
      </trkpt>
      <trkpt lat="47.47622" lon="6.76225">
        <ele>361.6</ele>
        <time>2017-02-12T11:21:11.999Z</time>
      </trkpt>
      <trkpt lat="47.47625" lon="6.7622">
        <ele>362.1</ele>
        <time>2017-02-12T11:21:12.999Z</time>
      </trkpt>
      <trkpt lat="47.47627" lon="6.76215">
        <ele>362.2</ele>
        <time>2017-02-12T11:21:13.999Z</time>
      </trkpt>
      <trkpt lat="47.47629" lon="6.76209">
        <ele>362.5</ele>
        <time>2017-02-12T11:21:14.999Z</time>
      </trkpt>
      <trkpt lat="47.47631" lon="6.76204">
        <ele>363</ele>
        <time>2017-02-12T11:21:15.999Z</time>
      </trkpt>
      <trkpt lat="47.47634" lon="6.76199">
        <ele>363</ele>
        <time>2017-02-12T11:21:16.999Z</time>
      </trkpt>
      <trkpt lat="47.47636" lon="6.76193">
        <ele>363</ele>
        <time>2017-02-12T11:21:17.999Z</time>
      </trkpt>
      <trkpt lat="47.47638" lon="6.76186">
        <ele>363</ele>
        <time>2017-02-12T11:21:18.999Z</time>
      </trkpt>
      <trkpt lat="47.47641" lon="6.76178">
        <ele>363.5</ele>
        <time>2017-02-12T11:21:19.999Z</time>
      </trkpt>
      <trkpt lat="47.47643" lon="6.76171">
        <ele>363.2</ele>
        <time>2017-02-12T11:21:20.999Z</time>
      </trkpt>
      <trkpt lat="47.47646" lon="6.76163">
        <ele>362.6</ele>
        <time>2017-02-12T11:21:21.999Z</time>
      </trkpt>
      <trkpt lat="47.47649" lon="6.76157">
        <ele>362</ele>
        <time>2017-02-12T11:21:22.999Z</time>
      </trkpt>
      <trkpt lat="47.47651" lon="6.7615">
        <ele>361</ele>
        <time>2017-02-12T11:21:23.999Z</time>
      </trkpt>
      <trkpt lat="47.47654" lon="6.76143">
        <ele>360.2</ele>
        <time>2017-02-12T11:21:24.999Z</time>
      </trkpt>
      <trkpt lat="47.47657" lon="6.76135">
        <ele>359.5</ele>
        <time>2017-02-12T11:21:25.999Z</time>
      </trkpt>
      <trkpt lat="47.4766" lon="6.76129">
        <ele>359.5</ele>
        <time>2017-02-12T11:21:26.999Z</time>
      </trkpt>
      <trkpt lat="47.47662" lon="6.76121">
        <ele>358.6</ele>
        <time>2017-02-12T11:21:27.999Z</time>
      </trkpt>
      <trkpt lat="47.47664" lon="6.76114">
        <ele>358.3</ele>
        <time>2017-02-12T11:21:28.999Z</time>
      </trkpt>
      <trkpt lat="47.47666" lon="6.76108">
        <ele>358.3</ele>
        <time>2017-02-12T11:21:29.999Z</time>
      </trkpt>
      <trkpt lat="47.47669" lon="6.76101">
        <ele>358.4</ele>
        <time>2017-02-12T11:21:30.999Z</time>
      </trkpt>
      <trkpt lat="47.4767" lon="6.76095">
        <ele>358.4</ele>
        <time>2017-02-12T11:21:31.999Z</time>
      </trkpt>
      <trkpt lat="47.47671" lon="6.7609">
        <ele>358.4</ele>
        <time>2017-02-12T11:21:32.999Z</time>
      </trkpt>
      <trkpt lat="47.47672" lon="6.76084">
        <ele>358.5</ele>
        <time>2017-02-12T11:21:33.999Z</time>
      </trkpt>
      <trkpt lat="47.47674" lon="6.76079">
        <ele>358.6</ele>
        <time>2017-02-12T11:21:35.999Z</time>
      </trkpt>
      <trkpt lat="47.47677" lon="6.7608">
        <ele>358.6</ele>
        <time>2017-02-12T11:21:36.999Z</time>
      </trkpt>
      <trkpt lat="47.47679" lon="6.76085">
        <ele>358.7</ele>
        <time>2017-02-12T11:21:38.999Z</time>
      </trkpt>
      <trkpt lat="47.47681" lon="6.76089">
        <ele>358.7</ele>
        <time>2017-02-12T11:21:39.999Z</time>
      </trkpt>
      <trkpt lat="47.47683" lon="6.76091">
        <ele>358.8</ele>
        <time>2017-02-12T11:21:40.999Z</time>
      </trkpt>
      <trkpt lat="47.47685" lon="6.76094">
        <ele>358.8</ele>
        <time>2017-02-12T11:21:41.999Z</time>
      </trkpt>
      <trkpt lat="47.47688" lon="6.76098">
        <ele>358.8</ele>
        <time>2017-02-12T11:21:42.999Z</time>
      </trkpt>
      <trkpt lat="47.47691" lon="6.76102">
        <ele>358.3</ele>
        <time>2017-02-12T11:21:43.999Z</time>
      </trkpt>
      <trkpt lat="47.47694" lon="6.76107">
        <ele>358.9</ele>
        <time>2017-02-12T11:21:44.999Z</time>
      </trkpt>
      <trkpt lat="47.47697" lon="6.76112">
        <ele>359</ele>
        <time>2017-02-12T11:21:45.999Z</time>
      </trkpt>
      <trkpt lat="47.477" lon="6.76116">
        <ele>359</ele>
        <time>2017-02-12T11:21:46.999Z</time>
      </trkpt>
      <trkpt lat="47.47703" lon="6.76121">
        <ele>359</ele>
        <time>2017-02-12T11:21:47.999Z</time>
      </trkpt>
      <trkpt lat="47.47706" lon="6.76126">
        <ele>358.9</ele>
        <time>2017-02-12T11:21:48.999Z</time>
      </trkpt>
      <trkpt lat="47.47708" lon="6.7613">
        <ele>358.5</ele>
        <time>2017-02-12T11:21:49.999Z</time>
      </trkpt>
      <trkpt lat="47.47712" lon="6.76134">
        <ele>358.1</ele>
        <time>2017-02-12T11:21:50.999Z</time>
      </trkpt>
      <trkpt lat="47.47715" lon="6.76138">
        <ele>357.7</ele>
        <time>2017-02-12T11:21:51.999Z</time>
      </trkpt>
      <trkpt lat="47.47718" lon="6.76143">
        <ele>357.4</ele>
        <time>2017-02-12T11:21:52.999Z</time>
      </trkpt>
      <trkpt lat="47.47721" lon="6.76147">
        <ele>357.1</ele>
        <time>2017-02-12T11:21:53.999Z</time>
      </trkpt>
      <trkpt lat="47.47723" lon="6.76151">
        <ele>356.6</ele>
        <time>2017-02-12T11:21:54.999Z</time>
      </trkpt>
      <trkpt lat="47.47725" lon="6.76154">
        <ele>356</ele>
        <time>2017-02-12T11:21:55.999Z</time>
      </trkpt>
      <trkpt lat="47.47727" lon="6.76157">
        <ele>355.8</ele>
        <time>2017-02-12T11:21:56.999Z</time>
      </trkpt>
      <trkpt lat="47.47729" lon="6.7616">
        <ele>356.5</ele>
        <time>2017-02-12T11:21:57.999Z</time>
      </trkpt>
      <trkpt lat="47.47732" lon="6.76163">
        <ele>357.5</ele>
        <time>2017-02-12T11:21:58.999Z</time>
      </trkpt>
      <trkpt lat="47.47735" lon="6.76168">
        <ele>358.2</ele>
        <time>2017-02-12T11:21:59.999Z</time>
      </trkpt>
      <trkpt lat="47.47738" lon="6.76173">
        <ele>358.7</ele>
        <time>2017-02-12T11:22:00.999Z</time>
      </trkpt>
      <trkpt lat="47.47742" lon="6.76178">
        <ele>359.2</ele>
        <time>2017-02-12T11:22:01.999Z</time>
      </trkpt>
      <trkpt lat="47.47746" lon="6.76183">
        <ele>359.5</ele>
        <time>2017-02-12T11:22:02.999Z</time>
      </trkpt>
      <trkpt lat="47.47749" lon="6.76187">
        <ele>359.9</ele>
        <time>2017-02-12T11:22:03.999Z</time>
      </trkpt>
      <trkpt lat="47.47752" lon="6.76192">
        <ele>360.1</ele>
        <time>2017-02-12T11:22:04.999Z</time>
      </trkpt>
      <trkpt lat="47.47755" lon="6.76197">
        <ele>360.3</ele>
        <time>2017-02-12T11:22:05.999Z</time>
      </trkpt>
      <trkpt lat="47.47758" lon="6.76201">
        <ele>360.6</ele>
        <time>2017-02-12T11:22:06.999Z</time>
      </trkpt>
      <trkpt lat="47.47761" lon="6.76207">
        <ele>360.6</ele>
        <time>2017-02-12T11:22:07.999Z</time>
      </trkpt>
      <trkpt lat="47.47764" lon="6.76212">
        <ele>360.3</ele>
        <time>2017-02-12T11:22:08.999Z</time>
      </trkpt>
      <trkpt lat="47.47767" lon="6.76217">
        <ele>359.8</ele>
        <time>2017-02-12T11:22:09.999Z</time>
      </trkpt>
      <trkpt lat="47.4777" lon="6.76221">
        <ele>359.7</ele>
        <time>2017-02-12T11:22:10.999Z</time>
      </trkpt>
      <trkpt lat="47.47773" lon="6.76226">
        <ele>359.5</ele>
        <time>2017-02-12T11:22:11.999Z</time>
      </trkpt>
      <trkpt lat="47.47777" lon="6.76232">
        <ele>359.5</ele>
        <time>2017-02-12T11:22:12.999Z</time>
      </trkpt>
      <trkpt lat="47.4778" lon="6.76236">
        <ele>359.4</ele>
        <time>2017-02-12T11:22:13.999Z</time>
      </trkpt>
      <trkpt lat="47.47783" lon="6.7624">
        <ele>359.1</ele>
        <time>2017-02-12T11:22:14.999Z</time>
      </trkpt>
      <trkpt lat="47.47786" lon="6.76244">
        <ele>359.1</ele>
        <time>2017-02-12T11:22:15.999Z</time>
      </trkpt>
      <trkpt lat="47.47789" lon="6.76247">
        <ele>358.7</ele>
        <time>2017-02-12T11:22:16.999Z</time>
      </trkpt>
      <trkpt lat="47.47792" lon="6.7625">
        <ele>359.3</ele>
        <time>2017-02-12T11:22:17.999Z</time>
      </trkpt>
      <trkpt lat="47.47796" lon="6.76254">
        <ele>359</ele>
        <time>2017-02-12T11:22:18.999Z</time>
      </trkpt>
      <trkpt lat="47.478" lon="6.76257">
        <ele>358.2</ele>
        <time>2017-02-12T11:22:19.999Z</time>
      </trkpt>
      <trkpt lat="47.47805" lon="6.7626">
        <ele>357.3</ele>
        <time>2017-02-12T11:22:20.999Z</time>
      </trkpt>
      <trkpt lat="47.47809" lon="6.76263">
        <ele>356.4</ele>
        <time>2017-02-12T11:22:21.999Z</time>
      </trkpt>
      <trkpt lat="47.47812" lon="6.76265">
        <ele>356.6</ele>
        <time>2017-02-12T11:22:22.999Z</time>
      </trkpt>
      <trkpt lat="47.47816" lon="6.76267">
        <ele>356.8</ele>
        <time>2017-02-12T11:22:23.999Z</time>
      </trkpt>
      <trkpt lat="47.47821" lon="6.7627">
        <ele>357.1</ele>
        <time>2017-02-12T11:22:24.999Z</time>
      </trkpt>
      <trkpt lat="47.47825" lon="6.76272">
        <ele>357.2</ele>
        <time>2017-02-12T11:22:25.999Z</time>
      </trkpt>
      <trkpt lat="47.4783" lon="6.76275">
        <ele>357.3</ele>
        <time>2017-02-12T11:22:26.999Z</time>
      </trkpt>
      <trkpt lat="47.47833" lon="6.76278">
        <ele>357.8</ele>
        <time>2017-02-12T11:22:27.999Z</time>
      </trkpt>
      <trkpt lat="47.47838" lon="6.76282">
        <ele>357.7</ele>
        <time>2017-02-12T11:22:28.999Z</time>
      </trkpt>
      <trkpt lat="47.47841" lon="6.76286">
        <ele>358.2</ele>
        <time>2017-02-12T11:22:29.999Z</time>
      </trkpt>
      <trkpt lat="47.47845" lon="6.76289">
        <ele>358.9</ele>
        <time>2017-02-12T11:22:30.999Z</time>
      </trkpt>
      <trkpt lat="47.47848" lon="6.76293">
        <ele>359.4</ele>
        <time>2017-02-12T11:22:31.999Z</time>
      </trkpt>
      <trkpt lat="47.47851" lon="6.76298">
        <ele>359.1</ele>
        <time>2017-02-12T11:22:32.999Z</time>
      </trkpt>
      <trkpt lat="47.47854" lon="6.76304">
        <ele>359.1</ele>
        <time>2017-02-12T11:22:33.999Z</time>
      </trkpt>
      <trkpt lat="47.47857" lon="6.76308">
        <ele>358.6</ele>
        <time>2017-02-12T11:22:34.999Z</time>
      </trkpt>
      <trkpt lat="47.4786" lon="6.76313">
        <ele>358.5</ele>
        <time>2017-02-12T11:22:35.999Z</time>
      </trkpt>
      <trkpt lat="47.47862" lon="6.76319">
        <ele>358.8</ele>
        <time>2017-02-12T11:22:36.999Z</time>
      </trkpt>
      <trkpt lat="47.47865" lon="6.76324">
        <ele>359.1</ele>
        <time>2017-02-12T11:22:37.999Z</time>
      </trkpt>
      <trkpt lat="47.47868" lon="6.7633">
        <ele>359</ele>
        <time>2017-02-12T11:22:38.999Z</time>
      </trkpt>
      <trkpt lat="47.4787" lon="6.76336">
        <ele>358.7</ele>
        <time>2017-02-12T11:22:39.999Z</time>
      </trkpt>
      <trkpt lat="47.47873" lon="6.76341">
        <ele>358.6</ele>
        <time>2017-02-12T11:22:40.999Z</time>
      </trkpt>
      <trkpt lat="47.47875" lon="6.76346">
        <ele>358.7</ele>
        <time>2017-02-12T11:22:41.999Z</time>
      </trkpt>
      <trkpt lat="47.47878" lon="6.76351">
        <ele>358.6</ele>
        <time>2017-02-12T11:22:42.999Z</time>
      </trkpt>
      <trkpt lat="47.47881" lon="6.76356">
        <ele>358.1</ele>
        <time>2017-02-12T11:22:43.999Z</time>
      </trkpt>
      <trkpt lat="47.47883" lon="6.76361">
        <ele>357.9</ele>
        <time>2017-02-12T11:22:44.999Z</time>
      </trkpt>
      <trkpt lat="47.47885" lon="6.76365">
        <ele>357.4</ele>
        <time>2017-02-12T11:22:45.999Z</time>
      </trkpt>
      <trkpt lat="47.47887" lon="6.7637">
        <ele>356.9</ele>
        <time>2017-02-12T11:22:46.999Z</time>
      </trkpt>
      <trkpt lat="47.4789" lon="6.76375">
        <ele>357.2</ele>
        <time>2017-02-12T11:22:47.999Z</time>
      </trkpt>
      <trkpt lat="47.47892" lon="6.76381">
        <ele>357.3</ele>
        <time>2017-02-12T11:22:48.999Z</time>
      </trkpt>
      <trkpt lat="47.47895" lon="6.76385">
        <ele>357.3</ele>
        <time>2017-02-12T11:22:49.999Z</time>
      </trkpt>
      <trkpt lat="47.47898" lon="6.7639">
        <ele>357.8</ele>
        <time>2017-02-12T11:22:50.999Z</time>
      </trkpt>
      <trkpt lat="47.479" lon="6.76395">
        <ele>358.4</ele>
        <time>2017-02-12T11:22:51.999Z</time>
      </trkpt>
      <trkpt lat="47.47902" lon="6.76401">
        <ele>358.7</ele>
        <time>2017-02-12T11:22:52.999Z</time>
      </trkpt>
      <trkpt lat="47.47905" lon="6.76406">
        <ele>358.8</ele>
        <time>2017-02-12T11:22:53.999Z</time>
      </trkpt>
      <trkpt lat="47.47907" lon="6.76412">
        <ele>359.3</ele>
        <time>2017-02-12T11:22:54.999Z</time>
      </trkpt>
      <trkpt lat="47.47909" lon="6.76418">
        <ele>359.4</ele>
        <time>2017-02-12T11:22:55.999Z</time>
      </trkpt>
      <trkpt lat="47.4791" lon="6.76424">
        <ele>359.6</ele>
        <time>2017-02-12T11:22:56.999Z</time>
      </trkpt>
      <trkpt lat="47.47911" lon="6.76429">
        <ele>359.6</ele>
        <time>2017-02-12T11:22:57.999Z</time>
      </trkpt>
      <trkpt lat="47.47912" lon="6.76433">
        <ele>359.6</ele>
        <time>2017-02-12T11:22:58.999Z</time>
      </trkpt>
      <trkpt lat="47.47914" lon="6.7644">
        <ele>359.6</ele>
        <time>2017-02-12T11:22:59.999Z</time>
      </trkpt>
      <trkpt lat="47.47916" lon="6.76447">
        <ele>359.8</ele>
        <time>2017-02-12T11:23:00.999Z</time>
      </trkpt>
      <trkpt lat="47.47918" lon="6.76453">
        <ele>359.7</ele>
        <time>2017-02-12T11:23:01.999Z</time>
      </trkpt>
      <trkpt lat="47.47919" lon="6.76458">
        <ele>358.9</ele>
        <time>2017-02-12T11:23:02.999Z</time>
      </trkpt>
      <trkpt lat="47.47921" lon="6.76463">
        <ele>359.3</ele>
        <time>2017-02-12T11:23:03.999Z</time>
      </trkpt>
      <trkpt lat="47.47922" lon="6.76468">
        <ele>358.7</ele>
        <time>2017-02-12T11:23:04.999Z</time>
      </trkpt>
      <trkpt lat="47.47923" lon="6.76473">
        <ele>358.7</ele>
        <time>2017-02-12T11:23:05.999Z</time>
      </trkpt>
      <trkpt lat="47.47925" lon="6.76479">
        <ele>358.4</ele>
        <time>2017-02-12T11:23:06.999Z</time>
      </trkpt>
      <trkpt lat="47.47926" lon="6.76485">
        <ele>358.7</ele>
        <time>2017-02-12T11:23:07.999Z</time>
      </trkpt>
      <trkpt lat="47.47928" lon="6.7649">
        <ele>358.7</ele>
        <time>2017-02-12T11:23:08.999Z</time>
      </trkpt>
      <trkpt lat="47.47929" lon="6.76497">
        <ele>358.9</ele>
        <time>2017-02-12T11:23:09.999Z</time>
      </trkpt>
      <trkpt lat="47.47931" lon="6.76503">
        <ele>359.5</ele>
        <time>2017-02-12T11:23:10.999Z</time>
      </trkpt>
      <trkpt lat="47.47932" lon="6.76508">
        <ele>360.7</ele>
        <time>2017-02-12T11:23:11.999Z</time>
      </trkpt>
      <trkpt lat="47.47933" lon="6.76513">
        <ele>361.4</ele>
        <time>2017-02-12T11:23:12.999Z</time>
      </trkpt>
      <trkpt lat="47.47935" lon="6.76519">
        <ele>361.7</ele>
        <time>2017-02-12T11:23:13.999Z</time>
      </trkpt>
      <trkpt lat="47.47936" lon="6.76525">
        <ele>360.9</ele>
        <time>2017-02-12T11:23:14.999Z</time>
      </trkpt>
      <trkpt lat="47.47938" lon="6.76531">
        <ele>360.2</ele>
        <time>2017-02-12T11:23:15.999Z</time>
      </trkpt>
      <trkpt lat="47.4794" lon="6.76538">
        <ele>359.8</ele>
        <time>2017-02-12T11:23:16.999Z</time>
      </trkpt>
      <trkpt lat="47.47942" lon="6.76544">
        <ele>359.3</ele>
        <time>2017-02-12T11:23:17.999Z</time>
      </trkpt>
      <trkpt lat="47.47943" lon="6.76551">
        <ele>359</ele>
        <time>2017-02-12T11:23:18.999Z</time>
      </trkpt>
      <trkpt lat="47.47945" lon="6.76557">
        <ele>359</ele>
        <time>2017-02-12T11:23:19.999Z</time>
      </trkpt>
      <trkpt lat="47.47947" lon="6.76564">
        <ele>359.2</ele>
        <time>2017-02-12T11:23:20.999Z</time>
      </trkpt>
      <trkpt lat="47.47948" lon="6.7657">
        <ele>359.3</ele>
        <time>2017-02-12T11:23:21.999Z</time>
      </trkpt>
      <trkpt lat="47.4795" lon="6.76576">
        <ele>359.3</ele>
        <time>2017-02-12T11:23:22.999Z</time>
      </trkpt>
      <trkpt lat="47.4795" lon="6.76582">
        <ele>359</ele>
        <time>2017-02-12T11:23:23.999Z</time>
      </trkpt>
      <trkpt lat="47.47951" lon="6.76587">
        <ele>359.3</ele>
        <time>2017-02-12T11:23:24.999Z</time>
      </trkpt>
      <trkpt lat="47.47951" lon="6.76593">
        <ele>359.3</ele>
        <time>2017-02-12T11:23:25.999Z</time>
      </trkpt>
      <trkpt lat="47.47952" lon="6.76598">
        <ele>359.4</ele>
        <time>2017-02-12T11:23:26.999Z</time>
      </trkpt>
      <trkpt lat="47.47953" lon="6.76601">
        <ele>359.4</ele>
        <time>2017-02-12T11:23:27.999Z</time>
      </trkpt>
      <trkpt lat="47.47955" lon="6.76607">
        <ele>359.5</ele>
        <time>2017-02-12T11:23:29.999Z</time>
      </trkpt>
      <trkpt lat="47.47956" lon="6.7661">
        <ele>359.5</ele>
        <time>2017-02-12T11:23:30.999Z</time>
      </trkpt>
      <trkpt lat="47.47958" lon="6.76615">
        <ele>359.7</ele>
        <time>2017-02-12T11:23:32.999Z</time>
      </trkpt>
      <trkpt lat="47.4796" lon="6.76618">
        <ele>359.7</ele>
        <time>2017-02-12T11:23:33.999Z</time>
      </trkpt>
      <trkpt lat="47.47962" lon="6.76621">
        <ele>359.7</ele>
        <time>2017-02-12T11:23:34.999Z</time>
      </trkpt>
      <trkpt lat="47.47964" lon="6.76622">
        <ele>359.7</ele>
        <time>2017-02-12T11:23:35.999Z</time>
      </trkpt>
      <trkpt lat="47.47967" lon="6.76621">
        <ele>359.7</ele>
        <time>2017-02-12T11:23:36.999Z</time>
      </trkpt>
      <trkpt lat="47.47969" lon="6.76619">
        <ele>359.7</ele>
        <time>2017-02-12T11:23:37.999Z</time>
      </trkpt>
      <trkpt lat="47.47973" lon="6.76618">
        <ele>359.8</ele>
        <time>2017-02-12T11:23:38.999Z</time>
      </trkpt>
      <trkpt lat="47.47975" lon="6.76616">
        <ele>360</ele>
        <time>2017-02-12T11:23:39.999Z</time>
      </trkpt>
      <trkpt lat="47.47979" lon="6.76614">
        <ele>360</ele>
        <time>2017-02-12T11:23:40.999Z</time>
      </trkpt>
      <trkpt lat="47.47982" lon="6.76612">
        <ele>360.1</ele>
        <time>2017-02-12T11:23:41.999Z</time>
      </trkpt>
      <trkpt lat="47.47985" lon="6.76609">
        <ele>360</ele>
        <time>2017-02-12T11:23:42.999Z</time>
      </trkpt>
      <trkpt lat="47.47988" lon="6.76607">
        <ele>359.6</ele>
        <time>2017-02-12T11:23:43.999Z</time>
      </trkpt>
      <trkpt lat="47.47991" lon="6.76606">
        <ele>359.4</ele>
        <time>2017-02-12T11:23:44.999Z</time>
      </trkpt>
      <trkpt lat="47.47995" lon="6.76604">
        <ele>359.2</ele>
        <time>2017-02-12T11:23:45.999Z</time>
      </trkpt>
      <trkpt lat="47.47999" lon="6.76603">
        <ele>359.1</ele>
        <time>2017-02-12T11:23:46.999Z</time>
      </trkpt>
      <trkpt lat="47.48003" lon="6.76601">
        <ele>358.9</ele>
        <time>2017-02-12T11:23:47.999Z</time>
      </trkpt>
      <trkpt lat="47.48007" lon="6.76598">
        <ele>359.4</ele>
        <time>2017-02-12T11:23:48.999Z</time>
      </trkpt>
      <trkpt lat="47.48011" lon="6.76595">
        <ele>360.8</ele>
        <time>2017-02-12T11:23:49.999Z</time>
      </trkpt>
      <trkpt lat="47.48015" lon="6.76593">
        <ele>361.7</ele>
        <time>2017-02-12T11:23:50.999Z</time>
      </trkpt>
      <trkpt lat="47.48019" lon="6.76591">
        <ele>362.8</ele>
        <time>2017-02-12T11:23:51.999Z</time>
      </trkpt>
      <trkpt lat="47.48023" lon="6.76588">
        <ele>363.5</ele>
        <time>2017-02-12T11:23:52.999Z</time>
      </trkpt>
      <trkpt lat="47.48026" lon="6.76585">
        <ele>363.9</ele>
        <time>2017-02-12T11:23:53.999Z</time>
      </trkpt>
      <trkpt lat="47.48029" lon="6.76582">
        <ele>363.9</ele>
        <time>2017-02-12T11:23:54.999Z</time>
      </trkpt>
      <trkpt lat="47.48032" lon="6.76579">
        <ele>363.9</ele>
        <time>2017-02-12T11:23:55.999Z</time>
      </trkpt>
      <trkpt lat="47.48035" lon="6.76576">
        <ele>364</ele>
        <time>2017-02-12T11:23:56.999Z</time>
      </trkpt>
      <trkpt lat="47.48039" lon="6.76573">
        <ele>364.2</ele>
        <time>2017-02-12T11:23:57.999Z</time>
      </trkpt>
      <trkpt lat="47.48043" lon="6.76569">
        <ele>363.7</ele>
        <time>2017-02-12T11:23:58.999Z</time>
      </trkpt>
      <trkpt lat="47.48047" lon="6.76566">
        <ele>363.3</ele>
        <time>2017-02-12T11:23:59.999Z</time>
      </trkpt>
      <trkpt lat="47.4805" lon="6.76562">
        <ele>362.9</ele>
        <time>2017-02-12T11:24:00.999Z</time>
      </trkpt>
      <trkpt lat="47.48054" lon="6.76559">
        <ele>362.2</ele>
        <time>2017-02-12T11:24:01.999Z</time>
      </trkpt>
      <trkpt lat="47.48058" lon="6.76555">
        <ele>361.3</ele>
        <time>2017-02-12T11:24:02.999Z</time>
      </trkpt>
      <trkpt lat="47.48062" lon="6.76552">
        <ele>360.4</ele>
        <time>2017-02-12T11:24:03.999Z</time>
      </trkpt>
      <trkpt lat="47.48065" lon="6.76549">
        <ele>360.3</ele>
        <time>2017-02-12T11:24:04.999Z</time>
      </trkpt>
      <trkpt lat="47.48069" lon="6.76546">
        <ele>358.8</ele>
        <time>2017-02-12T11:24:05.999Z</time>
      </trkpt>
      <trkpt lat="47.48072" lon="6.76543">
        <ele>358.2</ele>
        <time>2017-02-12T11:24:06.999Z</time>
      </trkpt>
      <trkpt lat="47.48076" lon="6.7654">
        <ele>357.4</ele>
        <time>2017-02-12T11:24:07.999Z</time>
      </trkpt>
      <trkpt lat="47.4808" lon="6.76536">
        <ele>357</ele>
        <time>2017-02-12T11:24:08.999Z</time>
      </trkpt>
      <trkpt lat="47.48084" lon="6.76533">
        <ele>356.6</ele>
        <time>2017-02-12T11:24:09.999Z</time>
      </trkpt>
      <trkpt lat="47.48087" lon="6.7653">
        <ele>356.3</ele>
        <time>2017-02-12T11:24:10.999Z</time>
      </trkpt>
      <trkpt lat="47.48091" lon="6.76528">
        <ele>356</ele>
        <time>2017-02-12T11:24:11.999Z</time>
      </trkpt>
      <trkpt lat="47.48094" lon="6.76525">
        <ele>356.3</ele>
        <time>2017-02-12T11:24:12.999Z</time>
      </trkpt>
      <trkpt lat="47.48098" lon="6.76522">
        <ele>356.2</ele>
        <time>2017-02-12T11:24:13.999Z</time>
      </trkpt>
      <trkpt lat="47.48102" lon="6.76518">
        <ele>355.7</ele>
        <time>2017-02-12T11:24:14.999Z</time>
      </trkpt>
      <trkpt lat="47.48105" lon="6.76518">
        <ele>355.7</ele>
        <time>2017-02-12T11:24:15.999Z</time>
      </trkpt>
      <trkpt lat="47.48107" lon="6.76519">
        <ele>355.8</ele>
        <time>2017-02-12T11:24:16.999Z</time>
      </trkpt>
      <trkpt lat="47.48108" lon="6.76522">
        <ele>356.3</ele>
        <time>2017-02-12T11:24:17.999Z</time>
      </trkpt>
      <trkpt lat="47.48111" lon="6.76526">
        <ele>356.3</ele>
        <time>2017-02-12T11:24:18.999Z</time>
      </trkpt>
      <trkpt lat="47.48115" lon="6.76531">
        <ele>356.3</ele>
        <time>2017-02-12T11:24:19.999Z</time>
      </trkpt>
      <trkpt lat="47.48118" lon="6.76536">
        <ele>356.3</ele>
        <time>2017-02-12T11:24:20.999Z</time>
      </trkpt>
      <trkpt lat="47.48119" lon="6.76541">
        <ele>356.3</ele>
        <time>2017-02-12T11:24:21.999Z</time>
      </trkpt>
      <trkpt lat="47.4812" lon="6.76545">
        <ele>356.3</ele>
        <time>2017-02-12T11:24:22.999Z</time>
      </trkpt>
      <trkpt lat="47.48118" lon="6.7655">
        <ele>356.4</ele>
        <time>2017-02-12T11:24:24.999Z</time>
      </trkpt>
      <trkpt lat="47.48115" lon="6.76555">
        <ele>357.1</ele>
        <time>2017-02-12T11:24:25.999Z</time>
      </trkpt>
      <trkpt lat="47.48111" lon="6.76562">
        <ele>358</ele>
        <time>2017-02-12T11:24:26.999Z</time>
      </trkpt>
      <trkpt lat="47.48107" lon="6.76569">
        <ele>358.9</ele>
        <time>2017-02-12T11:24:27.999Z</time>
      </trkpt>
      <trkpt lat="47.48103" lon="6.76575">
        <ele>360.1</ele>
        <time>2017-02-12T11:24:28.999Z</time>
      </trkpt>
      <trkpt lat="47.481" lon="6.76583">
        <ele>360.5</ele>
        <time>2017-02-12T11:24:29.999Z</time>
      </trkpt>
      <trkpt lat="47.48097" lon="6.76592">
        <ele>360.5</ele>
        <time>2017-02-12T11:24:30.999Z</time>
      </trkpt>
      <trkpt lat="47.48096" lon="6.766">
        <ele>360.9</ele>
        <time>2017-02-12T11:24:31.999Z</time>
      </trkpt>
      <trkpt lat="47.48094" lon="6.76608">
        <ele>360.8</ele>
        <time>2017-02-12T11:24:32.999Z</time>
      </trkpt>
      <trkpt lat="47.48094" lon="6.76614">
        <ele>360.1</ele>
        <time>2017-02-12T11:24:33.999Z</time>
      </trkpt>
      <trkpt lat="47.48095" lon="6.76622">
        <ele>359.7</ele>
        <time>2017-02-12T11:24:34.999Z</time>
      </trkpt>
      <trkpt lat="47.48098" lon="6.76629">
        <ele>360.3</ele>
        <time>2017-02-12T11:24:35.999Z</time>
      </trkpt>
      <trkpt lat="47.48101" lon="6.76635">
        <ele>360.2</ele>
        <time>2017-02-12T11:24:36.999Z</time>
      </trkpt>
      <trkpt lat="47.48103" lon="6.76639">
        <ele>360.1</ele>
        <time>2017-02-12T11:24:37.999Z</time>
      </trkpt>
      <trkpt lat="47.48106" lon="6.76645">
        <ele>360</ele>
        <time>2017-02-12T11:24:38.999Z</time>
      </trkpt>
      <trkpt lat="47.48108" lon="6.7665">
        <ele>360</ele>
        <time>2017-02-12T11:24:39.999Z</time>
      </trkpt>
      <trkpt lat="47.48111" lon="6.76653">
        <ele>359.8</ele>
        <time>2017-02-12T11:24:40.999Z</time>
      </trkpt>
      <trkpt lat="47.48114" lon="6.76658">
        <ele>359.3</ele>
        <time>2017-02-12T11:24:41.999Z</time>
      </trkpt>
      <trkpt lat="47.48117" lon="6.76665">
        <ele>359.2</ele>
        <time>2017-02-12T11:24:42.999Z</time>
      </trkpt>
      <trkpt lat="47.48121" lon="6.7667">
        <ele>359.1</ele>
        <time>2017-02-12T11:24:43.999Z</time>
      </trkpt>
      <trkpt lat="47.48124" lon="6.76674">
        <ele>358.3</ele>
        <time>2017-02-12T11:24:44.999Z</time>
      </trkpt>
      <trkpt lat="47.48128" lon="6.76679">
        <ele>357.9</ele>
        <time>2017-02-12T11:24:45.999Z</time>
      </trkpt>
      <trkpt lat="47.48132" lon="6.76684">
        <ele>357</ele>
        <time>2017-02-12T11:24:46.999Z</time>
      </trkpt>
      <trkpt lat="47.48135" lon="6.7669">
        <ele>356.5</ele>
        <time>2017-02-12T11:24:47.999Z</time>
      </trkpt>
      <trkpt lat="47.48137" lon="6.76695">
        <ele>355.9</ele>
        <time>2017-02-12T11:24:48.999Z</time>
      </trkpt>
      <trkpt lat="47.4814" lon="6.767">
        <ele>355.2</ele>
        <time>2017-02-12T11:24:49.999Z</time>
      </trkpt>
      <trkpt lat="47.48143" lon="6.76706">
        <ele>354.9</ele>
        <time>2017-02-12T11:24:50.999Z</time>
      </trkpt>
      <trkpt lat="47.48146" lon="6.76711">
        <ele>354.6</ele>
        <time>2017-02-12T11:24:51.999Z</time>
      </trkpt>
      <trkpt lat="47.48149" lon="6.76717">
        <ele>354.2</ele>
        <time>2017-02-12T11:24:52.999Z</time>
      </trkpt>
      <trkpt lat="47.48152" lon="6.76721">
        <ele>354.1</ele>
        <time>2017-02-12T11:24:53.999Z</time>
      </trkpt>
      <trkpt lat="47.48154" lon="6.76726">
        <ele>353.9</ele>
        <time>2017-02-12T11:24:54.999Z</time>
      </trkpt>
      <trkpt lat="47.48157" lon="6.76732">
        <ele>354.1</ele>
        <time>2017-02-12T11:24:55.999Z</time>
      </trkpt>
      <trkpt lat="47.4816" lon="6.76737">
        <ele>354.3</ele>
        <time>2017-02-12T11:24:56.999Z</time>
      </trkpt>
      <trkpt lat="47.48163" lon="6.76741">
        <ele>354.4</ele>
        <time>2017-02-12T11:24:57.999Z</time>
      </trkpt>
      <trkpt lat="47.48167" lon="6.76746">
        <ele>354</ele>
        <time>2017-02-12T11:24:58.999Z</time>
      </trkpt>
      <trkpt lat="47.4817" lon="6.7675">
        <ele>353.3</ele>
        <time>2017-02-12T11:24:59.999Z</time>
      </trkpt>
      <trkpt lat="47.48173" lon="6.76755">
        <ele>353.1</ele>
        <time>2017-02-12T11:25:00.999Z</time>
      </trkpt>
      <trkpt lat="47.48176" lon="6.76758">
        <ele>353.1</ele>
        <time>2017-02-12T11:25:01.999Z</time>
      </trkpt>
      <trkpt lat="47.48179" lon="6.76762">
        <ele>353.2</ele>
        <time>2017-02-12T11:25:02.999Z</time>
      </trkpt>
      <trkpt lat="47.48182" lon="6.76766">
        <ele>354.1</ele>
        <time>2017-02-12T11:25:03.999Z</time>
      </trkpt>
      <trkpt lat="47.48185" lon="6.76769">
        <ele>354.1</ele>
        <time>2017-02-12T11:25:04.999Z</time>
      </trkpt>
      <trkpt lat="47.48189" lon="6.76772">
        <ele>354.2</ele>
        <time>2017-02-12T11:25:05.999Z</time>
      </trkpt>
      <trkpt lat="47.48192" lon="6.76776">
        <ele>354.4</ele>
        <time>2017-02-12T11:25:06.999Z</time>
      </trkpt>
      <trkpt lat="47.48195" lon="6.76778">
        <ele>354.6</ele>
        <time>2017-02-12T11:25:07.999Z</time>
      </trkpt>
      <trkpt lat="47.48199" lon="6.7678">
        <ele>354.6</ele>
        <time>2017-02-12T11:25:08.999Z</time>
      </trkpt>
      <trkpt lat="47.48203" lon="6.76782">
        <ele>354.5</ele>
        <time>2017-02-12T11:25:09.999Z</time>
      </trkpt>
      <trkpt lat="47.48207" lon="6.76784">
        <ele>354.4</ele>
        <time>2017-02-12T11:25:10.999Z</time>
      </trkpt>
      <trkpt lat="47.4821" lon="6.76786">
        <ele>354.4</ele>
        <time>2017-02-12T11:25:11.999Z</time>
      </trkpt>
      <trkpt lat="47.48213" lon="6.76787">
        <ele>354.4</ele>
        <time>2017-02-12T11:25:12.999Z</time>
      </trkpt>
      <trkpt lat="47.48216" lon="6.76789">
        <ele>354.4</ele>
        <time>2017-02-12T11:25:13.999Z</time>
      </trkpt>
      <trkpt lat="47.48218" lon="6.7679">
        <ele>354.4</ele>
        <time>2017-02-12T11:25:14.999Z</time>
      </trkpt>
      <trkpt lat="47.48221" lon="6.76791">
        <ele>354.5</ele>
        <time>2017-02-12T11:25:15.999Z</time>
      </trkpt>
      <trkpt lat="47.48223" lon="6.76793">
        <ele>354.6</ele>
        <time>2017-02-12T11:25:16.999Z</time>
      </trkpt>
      <trkpt lat="47.48226" lon="6.76795">
        <ele>354.7</ele>
        <time>2017-02-12T11:25:17.999Z</time>
      </trkpt>
      <trkpt lat="47.4823" lon="6.76797">
        <ele>354.8</ele>
        <time>2017-02-12T11:25:18.999Z</time>
      </trkpt>
      <trkpt lat="47.48232" lon="6.76799">
        <ele>354.9</ele>
        <time>2017-02-12T11:25:19.999Z</time>
      </trkpt>
      <trkpt lat="47.48235" lon="6.76801">
        <ele>354.9</ele>
        <time>2017-02-12T11:25:20.999Z</time>
      </trkpt>
      <trkpt lat="47.48239" lon="6.76804">
        <ele>354.9</ele>
        <time>2017-02-12T11:25:21.999Z</time>
      </trkpt>
      <trkpt lat="47.48242" lon="6.76806">
        <ele>354.8</ele>
        <time>2017-02-12T11:25:22.999Z</time>
      </trkpt>
      <trkpt lat="47.48245" lon="6.76809">
        <ele>354.8</ele>
        <time>2017-02-12T11:25:23.999Z</time>
      </trkpt>
      <trkpt lat="47.48248" lon="6.76811">
        <ele>354.8</ele>
        <time>2017-02-12T11:25:24.999Z</time>
      </trkpt>
      <trkpt lat="47.48251" lon="6.76814">
        <ele>354.8</ele>
        <time>2017-02-12T11:25:25.999Z</time>
      </trkpt>
      <trkpt lat="47.48254" lon="6.76817">
        <ele>354.6</ele>
        <time>2017-02-12T11:25:26.999Z</time>
      </trkpt>
      <trkpt lat="47.48256" lon="6.7682">
        <ele>354.5</ele>
        <time>2017-02-12T11:25:27.999Z</time>
      </trkpt>
      <trkpt lat="47.48258" lon="6.76823">
        <ele>354.3</ele>
        <time>2017-02-12T11:25:28.999Z</time>
      </trkpt>
      <trkpt lat="47.4826" lon="6.76825">
        <ele>354.1</ele>
        <time>2017-02-12T11:25:29.999Z</time>
      </trkpt>
      <trkpt lat="47.48262" lon="6.76828">
        <ele>354</ele>
        <time>2017-02-12T11:25:30.999Z</time>
      </trkpt>
      <trkpt lat="47.48265" lon="6.76831">
        <ele>353.9</ele>
        <time>2017-02-12T11:25:31.999Z</time>
      </trkpt>
      <trkpt lat="47.48267" lon="6.76833">
        <ele>353.8</ele>
        <time>2017-02-12T11:25:32.999Z</time>
      </trkpt>
      <trkpt lat="47.48269" lon="6.76837">
        <ele>353.8</ele>
        <time>2017-02-12T11:25:33.999Z</time>
      </trkpt>
      <trkpt lat="47.48271" lon="6.76841">
        <ele>353.7</ele>
        <time>2017-02-12T11:25:34.999Z</time>
      </trkpt>
      <trkpt lat="47.48274" lon="6.76844">
        <ele>353.7</ele>
        <time>2017-02-12T11:25:35.999Z</time>
      </trkpt>
      <trkpt lat="47.48276" lon="6.76848">
        <ele>354.1</ele>
        <time>2017-02-12T11:25:36.999Z</time>
      </trkpt>
      <trkpt lat="47.48278" lon="6.76851">
        <ele>354.1</ele>
        <time>2017-02-12T11:25:37.999Z</time>
      </trkpt>
      <trkpt lat="47.4828" lon="6.76855">
        <ele>355.1</ele>
        <time>2017-02-12T11:25:38.999Z</time>
      </trkpt>
      <trkpt lat="47.48283" lon="6.76859">
        <ele>356.1</ele>
        <time>2017-02-12T11:25:39.999Z</time>
      </trkpt>
      <trkpt lat="47.48286" lon="6.76864">
        <ele>357.3</ele>
        <time>2017-02-12T11:25:40.999Z</time>
      </trkpt>
      <trkpt lat="47.48289" lon="6.76867">
        <ele>358</ele>
        <time>2017-02-12T11:25:41.999Z</time>
      </trkpt>
      <trkpt lat="47.48293" lon="6.76872">
        <ele>358.5</ele>
        <time>2017-02-12T11:25:42.999Z</time>
      </trkpt>
      <trkpt lat="47.48296" lon="6.76875">
        <ele>359.1</ele>
        <time>2017-02-12T11:25:43.999Z</time>
      </trkpt>
      <trkpt lat="47.48299" lon="6.76879">
        <ele>359.6</ele>
        <time>2017-02-12T11:25:44.999Z</time>
      </trkpt>
      <trkpt lat="47.48302" lon="6.76882">
        <ele>358.9</ele>
        <time>2017-02-12T11:25:45.999Z</time>
      </trkpt>
      <trkpt lat="47.48305" lon="6.76885">
        <ele>358.1</ele>
        <time>2017-02-12T11:25:46.999Z</time>
      </trkpt>
      <trkpt lat="47.48308" lon="6.76888">
        <ele>357.6</ele>
        <time>2017-02-12T11:25:47.999Z</time>
      </trkpt>
      <trkpt lat="47.48312" lon="6.76892">
        <ele>357.1</ele>
        <time>2017-02-12T11:25:48.999Z</time>
      </trkpt>
      <trkpt lat="47.48315" lon="6.76895">
        <ele>357.1</ele>
        <time>2017-02-12T11:25:49.999Z</time>
      </trkpt>
      <trkpt lat="47.48319" lon="6.76898">
        <ele>357.1</ele>
        <time>2017-02-12T11:25:50.999Z</time>
      </trkpt>
      <trkpt lat="47.48322" lon="6.76901">
        <ele>357</ele>
        <time>2017-02-12T11:25:51.999Z</time>
      </trkpt>
      <trkpt lat="47.48324" lon="6.76902">
        <ele>357</ele>
        <time>2017-02-12T11:25:52.999Z</time>
      </trkpt>
      <trkpt lat="47.48328" lon="6.76905">
        <ele>357</ele>
        <time>2017-02-12T11:25:53.999Z</time>
      </trkpt>
      <trkpt lat="47.48332" lon="6.76908">
        <ele>357</ele>
        <time>2017-02-12T11:25:54.999Z</time>
      </trkpt>
      <trkpt lat="47.48335" lon="6.7691">
        <ele>357</ele>
        <time>2017-02-12T11:25:55.999Z</time>
      </trkpt>
      <trkpt lat="47.48339" lon="6.76912">
        <ele>357</ele>
        <time>2017-02-12T11:25:56.999Z</time>
      </trkpt>
      <trkpt lat="47.48342" lon="6.76915">
        <ele>357</ele>
        <time>2017-02-12T11:25:57.999Z</time>
      </trkpt>
      <trkpt lat="47.48345" lon="6.76917">
        <ele>357.1</ele>
        <time>2017-02-12T11:25:58.999Z</time>
      </trkpt>
      <trkpt lat="47.48349" lon="6.76919">
        <ele>357.1</ele>
        <time>2017-02-12T11:25:59.999Z</time>
      </trkpt>
      <trkpt lat="47.48352" lon="6.76922">
        <ele>357.1</ele>
        <time>2017-02-12T11:26:00.999Z</time>
      </trkpt>
      <trkpt lat="47.48355" lon="6.76924">
        <ele>357.2</ele>
        <time>2017-02-12T11:26:01.999Z</time>
      </trkpt>
      <trkpt lat="47.48358" lon="6.76927">
        <ele>357.2</ele>
        <time>2017-02-12T11:26:02.999Z</time>
      </trkpt>
      <trkpt lat="47.48362" lon="6.76929">
        <ele>357.2</ele>
        <time>2017-02-12T11:26:03.999Z</time>
      </trkpt>
      <trkpt lat="47.48365" lon="6.76931">
        <ele>357.2</ele>
        <time>2017-02-12T11:26:04.999Z</time>
      </trkpt>
      <trkpt lat="47.48369" lon="6.76933">
        <ele>357</ele>
        <time>2017-02-12T11:26:05.999Z</time>
      </trkpt>
      <trkpt lat="47.48372" lon="6.76935">
        <ele>357.2</ele>
        <time>2017-02-12T11:26:06.999Z</time>
      </trkpt>
      <trkpt lat="47.48376" lon="6.76937">
        <ele>357.2</ele>
        <time>2017-02-12T11:26:07.999Z</time>
      </trkpt>
      <trkpt lat="47.48379" lon="6.76939">
        <ele>357.2</ele>
        <time>2017-02-12T11:26:08.999Z</time>
      </trkpt>
      <trkpt lat="47.48383" lon="6.76941">
        <ele>357.2</ele>
        <time>2017-02-12T11:26:09.999Z</time>
      </trkpt>
      <trkpt lat="47.48386" lon="6.76943">
        <ele>357.1</ele>
        <time>2017-02-12T11:26:10.999Z</time>
      </trkpt>
      <trkpt lat="47.48389" lon="6.76945">
        <ele>357</ele>
        <time>2017-02-12T11:26:11.999Z</time>
      </trkpt>
      <trkpt lat="47.48392" lon="6.76947">
        <ele>357</ele>
        <time>2017-02-12T11:26:12.999Z</time>
      </trkpt>
      <trkpt lat="47.48394" lon="6.76949">
        <ele>356.9</ele>
        <time>2017-02-12T11:26:13.999Z</time>
      </trkpt>
      <trkpt lat="47.48397" lon="6.7695">
        <ele>356.8</ele>
        <time>2017-02-12T11:26:14.999Z</time>
      </trkpt>
      <trkpt lat="47.484" lon="6.76952">
        <ele>356.8</ele>
        <time>2017-02-12T11:26:15.999Z</time>
      </trkpt>
      <trkpt lat="47.48404" lon="6.76954">
        <ele>356.7</ele>
        <time>2017-02-12T11:26:16.999Z</time>
      </trkpt>
      <trkpt lat="47.48408" lon="6.76956">
        <ele>356.7</ele>
        <time>2017-02-12T11:26:17.999Z</time>
      </trkpt>
      <trkpt lat="47.48411" lon="6.76958">
        <ele>356.7</ele>
        <time>2017-02-12T11:26:18.999Z</time>
      </trkpt>
      <trkpt lat="47.48414" lon="6.7696">
        <ele>356.6</ele>
        <time>2017-02-12T11:26:19.999Z</time>
      </trkpt>
      <trkpt lat="47.48417" lon="6.76961">
        <ele>356.5</ele>
        <time>2017-02-12T11:26:20.999Z</time>
      </trkpt>
      <trkpt lat="47.48419" lon="6.76962">
        <ele>356.5</ele>
        <time>2017-02-12T11:26:21.999Z</time>
      </trkpt>
      <trkpt lat="47.48422" lon="6.76963">
        <ele>356.6</ele>
        <time>2017-02-12T11:26:22.999Z</time>
      </trkpt>
      <trkpt lat="47.48426" lon="6.76965">
        <ele>356.6</ele>
        <time>2017-02-12T11:26:23.999Z</time>
      </trkpt>
      <trkpt lat="47.4843" lon="6.76967">
        <ele>356.6</ele>
        <time>2017-02-12T11:26:24.999Z</time>
      </trkpt>
      <trkpt lat="47.48433" lon="6.76969">
        <ele>356.6</ele>
        <time>2017-02-12T11:26:25.999Z</time>
      </trkpt>
      <trkpt lat="47.48436" lon="6.76971">
        <ele>356.6</ele>
        <time>2017-02-12T11:26:26.999Z</time>
      </trkpt>
      <trkpt lat="47.48439" lon="6.76973">
        <ele>356.6</ele>
        <time>2017-02-12T11:26:27.999Z</time>
      </trkpt>
      <trkpt lat="47.48442" lon="6.76975">
        <ele>357.2</ele>
        <time>2017-02-12T11:26:28.999Z</time>
      </trkpt>
      <trkpt lat="47.48445" lon="6.76977">
        <ele>357.2</ele>
        <time>2017-02-12T11:26:29.999Z</time>
      </trkpt>
      <trkpt lat="47.48448" lon="6.7698">
        <ele>356.8</ele>
        <time>2017-02-12T11:26:30.999Z</time>
      </trkpt>
      <trkpt lat="47.48451" lon="6.76982">
        <ele>356.8</ele>
        <time>2017-02-12T11:26:31.999Z</time>
      </trkpt>
      <trkpt lat="47.48454" lon="6.76984">
        <ele>356.8</ele>
        <time>2017-02-12T11:26:32.999Z</time>
      </trkpt>
      <trkpt lat="47.48458" lon="6.76986">
        <ele>356.3</ele>
        <time>2017-02-12T11:26:33.999Z</time>
      </trkpt>
      <trkpt lat="47.48463" lon="6.76989">
        <ele>356.5</ele>
        <time>2017-02-12T11:26:34.999Z</time>
      </trkpt>
      <trkpt lat="47.48467" lon="6.76991">
        <ele>357</ele>
        <time>2017-02-12T11:26:35.999Z</time>
      </trkpt>
      <trkpt lat="47.48471" lon="6.76993">
        <ele>357.2</ele>
        <time>2017-02-12T11:26:36.999Z</time>
      </trkpt>
      <trkpt lat="47.48475" lon="6.76996">
        <ele>357.1</ele>
        <time>2017-02-12T11:26:37.999Z</time>
      </trkpt>
      <trkpt lat="47.48478" lon="6.76998">
        <ele>357.1</ele>
        <time>2017-02-12T11:26:38.999Z</time>
      </trkpt>
      <trkpt lat="47.48482" lon="6.77">
        <ele>356.6</ele>
        <time>2017-02-12T11:26:39.999Z</time>
      </trkpt>
      <trkpt lat="47.48486" lon="6.77003">
        <ele>356.5</ele>
        <time>2017-02-12T11:26:40.999Z</time>
      </trkpt>
      <trkpt lat="47.48489" lon="6.77005">
        <ele>356.5</ele>
        <time>2017-02-12T11:26:41.999Z</time>
      </trkpt>
      <trkpt lat="47.48492" lon="6.77008">
        <ele>356.4</ele>
        <time>2017-02-12T11:26:42.999Z</time>
      </trkpt>
      <trkpt lat="47.48495" lon="6.7701">
        <ele>356.3</ele>
        <time>2017-02-12T11:26:43.999Z</time>
      </trkpt>
      <trkpt lat="47.48498" lon="6.77012">
        <ele>356.4</ele>
        <time>2017-02-12T11:26:44.999Z</time>
      </trkpt>
      <trkpt lat="47.48501" lon="6.77015">
        <ele>356.4</ele>
        <time>2017-02-12T11:26:45.999Z</time>
      </trkpt>
      <trkpt lat="47.48505" lon="6.77017">
        <ele>357</ele>
        <time>2017-02-12T11:26:46.999Z</time>
      </trkpt>
      <trkpt lat="47.48508" lon="6.7702">
        <ele>357.4</ele>
        <time>2017-02-12T11:26:47.999Z</time>
      </trkpt>
      <trkpt lat="47.48511" lon="6.77022">
        <ele>357.4</ele>
        <time>2017-02-12T11:26:48.999Z</time>
      </trkpt>
      <trkpt lat="47.48515" lon="6.77025">
        <ele>357.4</ele>
        <time>2017-02-12T11:26:49.999Z</time>
      </trkpt>
      <trkpt lat="47.48519" lon="6.77027">
        <ele>357.3</ele>
        <time>2017-02-12T11:26:50.999Z</time>
      </trkpt>
      <trkpt lat="47.48523" lon="6.77029">
        <ele>357.4</ele>
        <time>2017-02-12T11:26:51.999Z</time>
      </trkpt>
      <trkpt lat="47.48527" lon="6.77032">
        <ele>357.4</ele>
        <time>2017-02-12T11:26:52.999Z</time>
      </trkpt>
      <trkpt lat="47.4853" lon="6.77034">
        <ele>357.4</ele>
        <time>2017-02-12T11:26:53.999Z</time>
      </trkpt>
      <trkpt lat="47.48534" lon="6.77037">
        <ele>357.4</ele>
        <time>2017-02-12T11:26:54.999Z</time>
      </trkpt>
      <trkpt lat="47.48537" lon="6.77039">
        <ele>357.3</ele>
        <time>2017-02-12T11:26:55.999Z</time>
      </trkpt>
      <trkpt lat="47.4854" lon="6.77042">
        <ele>357.3</ele>
        <time>2017-02-12T11:26:56.999Z</time>
      </trkpt>
      <trkpt lat="47.48544" lon="6.77044">
        <ele>357.3</ele>
        <time>2017-02-12T11:26:57.999Z</time>
      </trkpt>
      <trkpt lat="47.48547" lon="6.77046">
        <ele>357.4</ele>
        <time>2017-02-12T11:26:58.999Z</time>
      </trkpt>
      <trkpt lat="47.4855" lon="6.77048">
        <ele>357.4</ele>
        <time>2017-02-12T11:26:59.999Z</time>
      </trkpt>
      <trkpt lat="47.48553" lon="6.77049">
        <ele>357.4</ele>
        <time>2017-02-12T11:27:00.999Z</time>
      </trkpt>
      <trkpt lat="47.48557" lon="6.77049">
        <ele>357.5</ele>
        <time>2017-02-12T11:27:02.999Z</time>
      </trkpt>
      <trkpt lat="47.48559" lon="6.7705">
        <ele>357.6</ele>
        <time>2017-02-12T11:27:03.999Z</time>
      </trkpt>
      <trkpt lat="47.48563" lon="6.77053">
        <ele>357.7</ele>
        <time>2017-02-12T11:27:05.999Z</time>
      </trkpt>
      <trkpt lat="47.48565" lon="6.77054">
        <ele>357.8</ele>
        <time>2017-02-12T11:27:06.999Z</time>
      </trkpt>
      <trkpt lat="47.48568" lon="6.77056">
        <ele>357.9</ele>
        <time>2017-02-12T11:27:07.999Z</time>
      </trkpt>
      <trkpt lat="47.48572" lon="6.77058">
        <ele>358</ele>
        <time>2017-02-12T11:27:08.999Z</time>
      </trkpt>
      <trkpt lat="47.48576" lon="6.7706">
        <ele>358.1</ele>
        <time>2017-02-12T11:27:09.999Z</time>
      </trkpt>
      <trkpt lat="47.48579" lon="6.77061">
        <ele>358</ele>
        <time>2017-02-12T11:27:10.999Z</time>
      </trkpt>
      <trkpt lat="47.48582" lon="6.77063">
        <ele>358.1</ele>
        <time>2017-02-12T11:27:11.999Z</time>
      </trkpt>
      <trkpt lat="47.48586" lon="6.77064">
        <ele>358</ele>
        <time>2017-02-12T11:27:12.999Z</time>
      </trkpt>
      <trkpt lat="47.48589" lon="6.77066">
        <ele>358.5</ele>
        <time>2017-02-12T11:27:13.999Z</time>
      </trkpt>
      <trkpt lat="47.48592" lon="6.77068">
        <ele>358.8</ele>
        <time>2017-02-12T11:27:14.999Z</time>
      </trkpt>
      <trkpt lat="47.48596" lon="6.7707">
        <ele>358.1</ele>
        <time>2017-02-12T11:27:15.999Z</time>
      </trkpt>
      <trkpt lat="47.48599" lon="6.77072">
        <ele>357.8</ele>
        <time>2017-02-12T11:27:16.999Z</time>
      </trkpt>
      <trkpt lat="47.48602" lon="6.77074">
        <ele>357.3</ele>
        <time>2017-02-12T11:27:17.999Z</time>
      </trkpt>
      <trkpt lat="47.48606" lon="6.77077">
        <ele>357.3</ele>
        <time>2017-02-12T11:27:18.999Z</time>
      </trkpt>
      <trkpt lat="47.48611" lon="6.77079">
        <ele>357.4</ele>
        <time>2017-02-12T11:27:19.999Z</time>
      </trkpt>
      <trkpt lat="47.48615" lon="6.77082">
        <ele>357.3</ele>
        <time>2017-02-12T11:27:20.999Z</time>
      </trkpt>
      <trkpt lat="47.4862" lon="6.77084">
        <ele>357.3</ele>
        <time>2017-02-12T11:27:21.999Z</time>
      </trkpt>
      <trkpt lat="47.48624" lon="6.77086">
        <ele>357.2</ele>
        <time>2017-02-12T11:27:22.999Z</time>
      </trkpt>
      <trkpt lat="47.48628" lon="6.77089">
        <ele>356.5</ele>
        <time>2017-02-12T11:27:23.999Z</time>
      </trkpt>
      <trkpt lat="47.48631" lon="6.77092">
        <ele>356.1</ele>
        <time>2017-02-12T11:27:24.999Z</time>
      </trkpt>
      <trkpt lat="47.48634" lon="6.77095">
        <ele>356.4</ele>
        <time>2017-02-12T11:27:25.999Z</time>
      </trkpt>
      <trkpt lat="47.48637" lon="6.77098">
        <ele>356.9</ele>
        <time>2017-02-12T11:27:26.999Z</time>
      </trkpt>
      <trkpt lat="47.4864" lon="6.77102">
        <ele>357.6</ele>
        <time>2017-02-12T11:27:27.999Z</time>
      </trkpt>
      <trkpt lat="47.48644" lon="6.77106">
        <ele>358</ele>
        <time>2017-02-12T11:27:28.999Z</time>
      </trkpt>
      <trkpt lat="47.48647" lon="6.77111">
        <ele>358.3</ele>
        <time>2017-02-12T11:27:29.999Z</time>
      </trkpt>
      <trkpt lat="47.48651" lon="6.77115">
        <ele>358.6</ele>
        <time>2017-02-12T11:27:30.999Z</time>
      </trkpt>
      <trkpt lat="47.48655" lon="6.77119">
        <ele>358.1</ele>
        <time>2017-02-12T11:27:31.999Z</time>
      </trkpt>
      <trkpt lat="47.4866" lon="6.77124">
        <ele>357.3</ele>
        <time>2017-02-12T11:27:32.999Z</time>
      </trkpt>
      <trkpt lat="47.48664" lon="6.77128">
        <ele>356.9</ele>
        <time>2017-02-12T11:27:33.999Z</time>
      </trkpt>
      <trkpt lat="47.48668" lon="6.77132">
        <ele>356.3</ele>
        <time>2017-02-12T11:27:34.999Z</time>
      </trkpt>
      <trkpt lat="47.48672" lon="6.77136">
        <ele>355.8</ele>
        <time>2017-02-12T11:27:35.999Z</time>
      </trkpt>
      <trkpt lat="47.48676" lon="6.7714">
        <ele>355.5</ele>
        <time>2017-02-12T11:27:36.999Z</time>
      </trkpt>
      <trkpt lat="47.48679" lon="6.77144">
        <ele>355.5</ele>
        <time>2017-02-12T11:27:37.999Z</time>
      </trkpt>
      <trkpt lat="47.48683" lon="6.77148">
        <ele>355.8</ele>
        <time>2017-02-12T11:27:38.999Z</time>
      </trkpt>
      <trkpt lat="47.48687" lon="6.77152">
        <ele>355.9</ele>
        <time>2017-02-12T11:27:39.999Z</time>
      </trkpt>
      <trkpt lat="47.48691" lon="6.77157">
        <ele>355.9</ele>
        <time>2017-02-12T11:27:40.999Z</time>
      </trkpt>
      <trkpt lat="47.48695" lon="6.7716">
        <ele>355.7</ele>
        <time>2017-02-12T11:27:41.999Z</time>
      </trkpt>
      <trkpt lat="47.48698" lon="6.77164">
        <ele>355.9</ele>
        <time>2017-02-12T11:27:42.999Z</time>
      </trkpt>
      <trkpt lat="47.48701" lon="6.77167">
        <ele>356.4</ele>
        <time>2017-02-12T11:27:43.999Z</time>
      </trkpt>
      <trkpt lat="47.48704" lon="6.7717">
        <ele>356.9</ele>
        <time>2017-02-12T11:27:44.999Z</time>
      </trkpt>
      <trkpt lat="47.48708" lon="6.77173">
        <ele>356.9</ele>
        <time>2017-02-12T11:27:45.999Z</time>
      </trkpt>
      <trkpt lat="47.48712" lon="6.77176">
        <ele>356.7</ele>
        <time>2017-02-12T11:27:46.999Z</time>
      </trkpt>
      <trkpt lat="47.48716" lon="6.77179">
        <ele>356.2</ele>
        <time>2017-02-12T11:27:47.999Z</time>
      </trkpt>
      <trkpt lat="47.48721" lon="6.77182">
        <ele>355.8</ele>
        <time>2017-02-12T11:27:48.999Z</time>
      </trkpt>
      <trkpt lat="47.48725" lon="6.77185">
        <ele>355.3</ele>
        <time>2017-02-12T11:27:49.999Z</time>
      </trkpt>
      <trkpt lat="47.48729" lon="6.77188">
        <ele>354.8</ele>
        <time>2017-02-12T11:27:50.999Z</time>
      </trkpt>
      <trkpt lat="47.48733" lon="6.77191">
        <ele>354.2</ele>
        <time>2017-02-12T11:27:51.999Z</time>
      </trkpt>
      <trkpt lat="47.48737" lon="6.77194">
        <ele>353.8</ele>
        <time>2017-02-12T11:27:52.999Z</time>
      </trkpt>
      <trkpt lat="47.48742" lon="6.77198">
        <ele>353.7</ele>
        <time>2017-02-12T11:27:53.999Z</time>
      </trkpt>
      <trkpt lat="47.48746" lon="6.772">
        <ele>353.5</ele>
        <time>2017-02-12T11:27:54.999Z</time>
      </trkpt>
      <trkpt lat="47.4875" lon="6.77203">
        <ele>353.2</ele>
        <time>2017-02-12T11:27:55.999Z</time>
      </trkpt>
      <trkpt lat="47.48755" lon="6.77206">
        <ele>353.4</ele>
        <time>2017-02-12T11:27:56.999Z</time>
      </trkpt>
      <trkpt lat="47.48759" lon="6.77208">
        <ele>353.6</ele>
        <time>2017-02-12T11:27:57.999Z</time>
      </trkpt>
      <trkpt lat="47.48763" lon="6.77211">
        <ele>353.9</ele>
        <time>2017-02-12T11:27:58.999Z</time>
      </trkpt>
      <trkpt lat="47.48768" lon="6.77214">
        <ele>353.7</ele>
        <time>2017-02-12T11:27:59.999Z</time>
      </trkpt>
      <trkpt lat="47.48772" lon="6.77217">
        <ele>353.2</ele>
        <time>2017-02-12T11:28:00.999Z</time>
      </trkpt>
      <trkpt lat="47.48777" lon="6.77221">
        <ele>352.7</ele>
        <time>2017-02-12T11:28:01.999Z</time>
      </trkpt>
      <trkpt lat="47.48781" lon="6.77224">
        <ele>352.6</ele>
        <time>2017-02-12T11:28:02.999Z</time>
      </trkpt>
      <trkpt lat="47.48785" lon="6.77227">
        <ele>352</ele>
        <time>2017-02-12T11:28:03.999Z</time>
      </trkpt>
      <trkpt lat="47.48788" lon="6.7723">
        <ele>351.7</ele>
        <time>2017-02-12T11:28:04.999Z</time>
      </trkpt>
      <trkpt lat="47.48792" lon="6.77232">
        <ele>351.8</ele>
        <time>2017-02-12T11:28:05.999Z</time>
      </trkpt>
      <trkpt lat="47.48797" lon="6.77236">
        <ele>352.3</ele>
        <time>2017-02-12T11:28:06.999Z</time>
      </trkpt>
      <trkpt lat="47.48803" lon="6.77239">
        <ele>353.2</ele>
        <time>2017-02-12T11:28:07.999Z</time>
      </trkpt>
      <trkpt lat="47.48809" lon="6.77244">
        <ele>354.3</ele>
        <time>2017-02-12T11:28:08.999Z</time>
      </trkpt>
      <trkpt lat="47.48815" lon="6.77249">
        <ele>355</ele>
        <time>2017-02-12T11:28:09.999Z</time>
      </trkpt>
      <trkpt lat="47.48821" lon="6.77255">
        <ele>355.1</ele>
        <time>2017-02-12T11:28:10.999Z</time>
      </trkpt>
      <trkpt lat="47.48826" lon="6.7726">
        <ele>355</ele>
        <time>2017-02-12T11:28:11.999Z</time>
      </trkpt>
      <trkpt lat="47.48832" lon="6.77266">
        <ele>355.3</ele>
        <time>2017-02-12T11:28:12.999Z</time>
      </trkpt>
      <trkpt lat="47.48839" lon="6.77272">
        <ele>355.6</ele>
        <time>2017-02-12T11:28:13.999Z</time>
      </trkpt>
      <trkpt lat="47.48845" lon="6.77277">
        <ele>356.4</ele>
        <time>2017-02-12T11:28:14.999Z</time>
      </trkpt>
      <trkpt lat="47.4885" lon="6.77281">
        <ele>356.9</ele>
        <time>2017-02-12T11:28:15.999Z</time>
      </trkpt>
      <trkpt lat="47.48856" lon="6.77284">
        <ele>356.5</ele>
        <time>2017-02-12T11:28:16.999Z</time>
      </trkpt>
      <trkpt lat="47.48862" lon="6.77288">
        <ele>355.3</ele>
        <time>2017-02-12T11:28:17.999Z</time>
      </trkpt>
      <trkpt lat="47.48869" lon="6.77291">
        <ele>354.2</ele>
        <time>2017-02-12T11:28:18.999Z</time>
      </trkpt>
      <trkpt lat="47.48875" lon="6.77293">
        <ele>352.6</ele>
        <time>2017-02-12T11:28:19.999Z</time>
      </trkpt>
      <trkpt lat="47.48881" lon="6.77296">
        <ele>351.2</ele>
        <time>2017-02-12T11:28:20.999Z</time>
      </trkpt>
      <trkpt lat="47.48887" lon="6.77297">
        <ele>350.7</ele>
        <time>2017-02-12T11:28:21.999Z</time>
      </trkpt>
      <trkpt lat="47.48893" lon="6.77299">
        <ele>350.5</ele>
        <time>2017-02-12T11:28:22.999Z</time>
      </trkpt>
      <trkpt lat="47.48898" lon="6.773">
        <ele>350.5</ele>
        <time>2017-02-12T11:28:23.999Z</time>
      </trkpt>
      <trkpt lat="47.48903" lon="6.77301">
        <ele>350.8</ele>
        <time>2017-02-12T11:28:24.999Z</time>
      </trkpt>
      <trkpt lat="47.48908" lon="6.77303">
        <ele>351.3</ele>
        <time>2017-02-12T11:28:25.999Z</time>
      </trkpt>
      <trkpt lat="47.48913" lon="6.77304">
        <ele>352</ele>
        <time>2017-02-12T11:28:26.999Z</time>
      </trkpt>
      <trkpt lat="47.48918" lon="6.77306">
        <ele>352.4</ele>
        <time>2017-02-12T11:28:27.999Z</time>
      </trkpt>
      <trkpt lat="47.48923" lon="6.77308">
        <ele>352.3</ele>
        <time>2017-02-12T11:28:28.999Z</time>
      </trkpt>
      <trkpt lat="47.48927" lon="6.7731">
        <ele>352.9</ele>
        <time>2017-02-12T11:28:29.999Z</time>
      </trkpt>
      <trkpt lat="47.48932" lon="6.77312">
        <ele>353.7</ele>
        <time>2017-02-12T11:28:30.999Z</time>
      </trkpt>
      <trkpt lat="47.48936" lon="6.77314">
        <ele>354.7</ele>
        <time>2017-02-12T11:28:31.999Z</time>
      </trkpt>
      <trkpt lat="47.4894" lon="6.77316">
        <ele>355.7</ele>
        <time>2017-02-12T11:28:32.999Z</time>
      </trkpt>
      <trkpt lat="47.48945" lon="6.77318">
        <ele>356.1</ele>
        <time>2017-02-12T11:28:33.999Z</time>
      </trkpt>
      <trkpt lat="47.4895" lon="6.77319">
        <ele>356.2</ele>
        <time>2017-02-12T11:28:34.999Z</time>
      </trkpt>
      <trkpt lat="47.48955" lon="6.7732">
        <ele>356.4</ele>
        <time>2017-02-12T11:28:35.999Z</time>
      </trkpt>
      <trkpt lat="47.48959" lon="6.77321">
        <ele>357.1</ele>
        <time>2017-02-12T11:28:36.999Z</time>
      </trkpt>
      <trkpt lat="47.48965" lon="6.77323">
        <ele>357.2</ele>
        <time>2017-02-12T11:28:37.999Z</time>
      </trkpt>
      <trkpt lat="47.48971" lon="6.77324">
        <ele>357.3</ele>
        <time>2017-02-12T11:28:38.999Z</time>
      </trkpt>
      <trkpt lat="47.48976" lon="6.77324">
        <ele>357.1</ele>
        <time>2017-02-12T11:28:39.999Z</time>
      </trkpt>
      <trkpt lat="47.4898" lon="6.77324">
        <ele>357.9</ele>
        <time>2017-02-12T11:28:40.999Z</time>
      </trkpt>
      <trkpt lat="47.48984" lon="6.77324">
        <ele>358.6</ele>
        <time>2017-02-12T11:28:41.999Z</time>
      </trkpt>
      <trkpt lat="47.48988" lon="6.77324">
        <ele>358.7</ele>
        <time>2017-02-12T11:28:42.999Z</time>
      </trkpt>
      <trkpt lat="47.48992" lon="6.77324">
        <ele>358.5</ele>
        <time>2017-02-12T11:28:43.999Z</time>
      </trkpt>
      <trkpt lat="47.48996" lon="6.77325">
        <ele>358.7</ele>
        <time>2017-02-12T11:28:44.999Z</time>
      </trkpt>
      <trkpt lat="47.49001" lon="6.77325">
        <ele>359.3</ele>
        <time>2017-02-12T11:28:45.999Z</time>
      </trkpt>
      <trkpt lat="47.49006" lon="6.77325">
        <ele>359.8</ele>
        <time>2017-02-12T11:28:46.999Z</time>
      </trkpt>
      <trkpt lat="47.49011" lon="6.77326">
        <ele>360.2</ele>
        <time>2017-02-12T11:28:47.999Z</time>
      </trkpt>
      <trkpt lat="47.49016" lon="6.77326">
        <ele>359.9</ele>
        <time>2017-02-12T11:28:48.999Z</time>
      </trkpt>
      <trkpt lat="47.49021" lon="6.77326">
        <ele>359.3</ele>
        <time>2017-02-12T11:28:49.999Z</time>
      </trkpt>
      <trkpt lat="47.49026" lon="6.77327">
        <ele>358.7</ele>
        <time>2017-02-12T11:28:50.999Z</time>
      </trkpt>
      <trkpt lat="47.49031" lon="6.77327">
        <ele>358.7</ele>
        <time>2017-02-12T11:28:51.999Z</time>
      </trkpt>
      <trkpt lat="47.49034" lon="6.77326">
        <ele>358.4</ele>
        <time>2017-02-12T11:28:52.999Z</time>
      </trkpt>
      <trkpt lat="47.49038" lon="6.77326">
        <ele>358.5</ele>
        <time>2017-02-12T11:28:53.999Z</time>
      </trkpt>
      <trkpt lat="47.49043" lon="6.77326">
        <ele>359.4</ele>
        <time>2017-02-12T11:28:54.999Z</time>
      </trkpt>
      <trkpt lat="47.49049" lon="6.77326">
        <ele>360.3</ele>
        <time>2017-02-12T11:28:55.999Z</time>
      </trkpt>
      <trkpt lat="47.49055" lon="6.77326">
        <ele>361.2</ele>
        <time>2017-02-12T11:28:56.999Z</time>
      </trkpt>
      <trkpt lat="47.4906" lon="6.77327">
        <ele>361.7</ele>
        <time>2017-02-12T11:28:57.999Z</time>
      </trkpt>
      <trkpt lat="47.49066" lon="6.77328">
        <ele>362.3</ele>
        <time>2017-02-12T11:28:58.999Z</time>
      </trkpt>
      <trkpt lat="47.49072" lon="6.77329">
        <ele>362.5</ele>
        <time>2017-02-12T11:28:59.999Z</time>
      </trkpt>
      <trkpt lat="47.49077" lon="6.77329">
        <ele>362.2</ele>
        <time>2017-02-12T11:29:00.999Z</time>
      </trkpt>
      <trkpt lat="47.49081" lon="6.77329">
        <ele>361.9</ele>
        <time>2017-02-12T11:29:01.999Z</time>
      </trkpt>
      <trkpt lat="47.49085" lon="6.77329">
        <ele>361.4</ele>
        <time>2017-02-12T11:29:02.999Z</time>
      </trkpt>
      <trkpt lat="47.49089" lon="6.77329">
        <ele>361.2</ele>
        <time>2017-02-12T11:29:03.999Z</time>
      </trkpt>
      <trkpt lat="47.49093" lon="6.77329">
        <ele>361</ele>
        <time>2017-02-12T11:29:04.999Z</time>
      </trkpt>
      <trkpt lat="47.49097" lon="6.7733">
        <ele>360.8</ele>
        <time>2017-02-12T11:29:05.999Z</time>
      </trkpt>
      <trkpt lat="47.49101" lon="6.7733">
        <ele>360.6</ele>
        <time>2017-02-12T11:29:06.999Z</time>
      </trkpt>
      <trkpt lat="47.49106" lon="6.7733">
        <ele>360.5</ele>
        <time>2017-02-12T11:29:07.999Z</time>
      </trkpt>
      <trkpt lat="47.49111" lon="6.77331">
        <ele>360.1</ele>
        <time>2017-02-12T11:29:08.999Z</time>
      </trkpt>
      <trkpt lat="47.49116" lon="6.77332">
        <ele>359</ele>
        <time>2017-02-12T11:29:09.999Z</time>
      </trkpt>
      <trkpt lat="47.49121" lon="6.77332">
        <ele>358</ele>
        <time>2017-02-12T11:29:10.999Z</time>
      </trkpt>
      <trkpt lat="47.49125" lon="6.77333">
        <ele>357.5</ele>
        <time>2017-02-12T11:29:11.999Z</time>
      </trkpt>
      <trkpt lat="47.4913" lon="6.77333">
        <ele>356.9</ele>
        <time>2017-02-12T11:29:12.999Z</time>
      </trkpt>
      <trkpt lat="47.49134" lon="6.77333">
        <ele>356.5</ele>
        <time>2017-02-12T11:29:13.999Z</time>
      </trkpt>
      <trkpt lat="47.49139" lon="6.77334">
        <ele>356.3</ele>
        <time>2017-02-12T11:29:14.999Z</time>
      </trkpt>
      <trkpt lat="47.49143" lon="6.77334">
        <ele>356.4</ele>
        <time>2017-02-12T11:29:15.999Z</time>
      </trkpt>
      <trkpt lat="47.49147" lon="6.77334">
        <ele>356.8</ele>
        <time>2017-02-12T11:29:16.999Z</time>
      </trkpt>
      <trkpt lat="47.4915" lon="6.77335">
        <ele>356.8</ele>
        <time>2017-02-12T11:29:17.999Z</time>
      </trkpt>
      <trkpt lat="47.49152" lon="6.77335">
        <ele>356.9</ele>
        <time>2017-02-12T11:29:18.999Z</time>
      </trkpt>
      <trkpt lat="47.49155" lon="6.77335">
        <ele>356.8</ele>
        <time>2017-02-12T11:29:19.999Z</time>
      </trkpt>
      <trkpt lat="47.49158" lon="6.77334">
        <ele>356.8</ele>
        <time>2017-02-12T11:29:20.999Z</time>
      </trkpt>
      <trkpt lat="47.49161" lon="6.77334">
        <ele>356.8</ele>
        <time>2017-02-12T11:29:21.999Z</time>
      </trkpt>
      <trkpt lat="47.49165" lon="6.77334">
        <ele>356.7</ele>
        <time>2017-02-12T11:29:23.999Z</time>
      </trkpt>
      <trkpt lat="47.49167" lon="6.77334">
        <ele>356.6</ele>
        <time>2017-02-12T11:29:24.999Z</time>
      </trkpt>
      <trkpt lat="47.49171" lon="6.77333">
        <ele>356.6</ele>
        <time>2017-02-12T11:29:26.999Z</time>
      </trkpt>
      <trkpt lat="47.49173" lon="6.77333">
        <ele>356.6</ele>
        <time>2017-02-12T11:29:27.999Z</time>
      </trkpt>
      <trkpt lat="47.49176" lon="6.77332">
        <ele>356.6</ele>
        <time>2017-02-12T11:29:29.999Z</time>
      </trkpt>
      <trkpt lat="47.49178" lon="6.77332">
        <ele>356.6</ele>
        <time>2017-02-12T11:29:30.999Z</time>
      </trkpt>
      <trkpt lat="47.49182" lon="6.77333">
        <ele>356.8</ele>
        <time>2017-02-12T11:29:33.999Z</time>
      </trkpt>
      <trkpt lat="47.49183" lon="6.77332">
        <ele>356.8</ele>
        <time>2017-02-12T11:29:34.999Z</time>
      </trkpt>
      <trkpt lat="47.49183" lon="6.77332">
        <ele>357.2</ele>
        <time>2017-02-12T11:31:46.000Z</time>
      </trkpt>
      <trkpt lat="47.4919" lon="6.77332">
        <ele>357.3</ele>
        <time>2017-02-12T11:31:47.000Z</time>
      </trkpt>
      <trkpt lat="47.49192" lon="6.77332">
        <ele>357.4</ele>
        <time>2017-02-12T11:31:48.000Z</time>
      </trkpt>
      <trkpt lat="47.49195" lon="6.77332">
        <ele>357.5</ele>
        <time>2017-02-12T11:31:49.000Z</time>
      </trkpt>
      <trkpt lat="47.49198" lon="6.77333">
        <ele>357.5</ele>
        <time>2017-02-12T11:31:50.000Z</time>
      </trkpt>
      <trkpt lat="47.49203" lon="6.77333">
        <ele>357.5</ele>
        <time>2017-02-12T11:31:51.000Z</time>
      </trkpt>
      <trkpt lat="47.49208" lon="6.77333">
        <ele>357</ele>
        <time>2017-02-12T11:31:52.000Z</time>
      </trkpt>
      <trkpt lat="47.49212" lon="6.77333">
        <ele>356.4</ele>
        <time>2017-02-12T11:31:53.000Z</time>
      </trkpt>
      <trkpt lat="47.49216" lon="6.77334">
        <ele>356.4</ele>
        <time>2017-02-12T11:31:54.000Z</time>
      </trkpt>
      <trkpt lat="47.49221" lon="6.77334">
        <ele>355.5</ele>
        <time>2017-02-12T11:31:55.000Z</time>
      </trkpt>
      <trkpt lat="47.49225" lon="6.77334">
        <ele>355.4</ele>
        <time>2017-02-12T11:31:56.000Z</time>
      </trkpt>
      <trkpt lat="47.49228" lon="6.77335">
        <ele>355.2</ele>
        <time>2017-02-12T11:31:57.000Z</time>
      </trkpt>
      <trkpt lat="47.49232" lon="6.77336">
        <ele>355.2</ele>
        <time>2017-02-12T11:31:58.000Z</time>
      </trkpt>
      <trkpt lat="47.49235" lon="6.77336">
        <ele>355.1</ele>
        <time>2017-02-12T11:31:59.000Z</time>
      </trkpt>
      <trkpt lat="47.49239" lon="6.77337">
        <ele>355.1</ele>
        <time>2017-02-12T11:32:00.000Z</time>
      </trkpt>
      <trkpt lat="47.49243" lon="6.77337">
        <ele>355.5</ele>
        <time>2017-02-12T11:32:01.000Z</time>
      </trkpt>
      <trkpt lat="47.49246" lon="6.77335">
        <ele>356.4</ele>
        <time>2017-02-12T11:32:02.000Z</time>
      </trkpt>
      <trkpt lat="47.4925" lon="6.77334">
        <ele>356.7</ele>
        <time>2017-02-12T11:32:03.000Z</time>
      </trkpt>
      <trkpt lat="47.49253" lon="6.77332">
        <ele>356.8</ele>
        <time>2017-02-12T11:32:04.000Z</time>
      </trkpt>
      <trkpt lat="47.49257" lon="6.7733">
        <ele>357.2</ele>
        <time>2017-02-12T11:32:05.000Z</time>
      </trkpt>
      <trkpt lat="47.49262" lon="6.77328">
        <ele>357.7</ele>
        <time>2017-02-12T11:32:06.000Z</time>
      </trkpt>
      <trkpt lat="47.49267" lon="6.77327">
        <ele>358.1</ele>
        <time>2017-02-12T11:32:07.000Z</time>
      </trkpt>
      <trkpt lat="47.49272" lon="6.77327">
        <ele>358.4</ele>
        <time>2017-02-12T11:32:08.000Z</time>
      </trkpt>
      <trkpt lat="47.49278" lon="6.77327">
        <ele>358.2</ele>
        <time>2017-02-12T11:32:09.000Z</time>
      </trkpt>
      <trkpt lat="47.49283" lon="6.77327">
        <ele>358.2</ele>
        <time>2017-02-12T11:32:10.000Z</time>
      </trkpt>
      <trkpt lat="47.49288" lon="6.77328">
        <ele>358.1</ele>
        <time>2017-02-12T11:32:11.000Z</time>
      </trkpt>
      <trkpt lat="47.49293" lon="6.77329">
        <ele>358.6</ele>
        <time>2017-02-12T11:32:12.000Z</time>
      </trkpt>
      <trkpt lat="47.49297" lon="6.77329">
        <ele>359.2</ele>
        <time>2017-02-12T11:32:13.000Z</time>
      </trkpt>
      <trkpt lat="47.49301" lon="6.7733">
        <ele>358.7</ele>
        <time>2017-02-12T11:32:14.000Z</time>
      </trkpt>
      <trkpt lat="47.49304" lon="6.7733">
        <ele>358.9</ele>
        <time>2017-02-12T11:32:15.000Z</time>
      </trkpt>
      <trkpt lat="47.49308" lon="6.77331">
        <ele>359.1</ele>
        <time>2017-02-12T11:32:16.000Z</time>
      </trkpt>
      <trkpt lat="47.49312" lon="6.77332">
        <ele>359.3</ele>
        <time>2017-02-12T11:32:17.000Z</time>
      </trkpt>
      <trkpt lat="47.49317" lon="6.77332">
        <ele>359.3</ele>
        <time>2017-02-12T11:32:18.000Z</time>
      </trkpt>
      <trkpt lat="47.49322" lon="6.77333">
        <ele>359.3</ele>
        <time>2017-02-12T11:32:19.000Z</time>
      </trkpt>
      <trkpt lat="47.49326" lon="6.77333">
        <ele>359.3</ele>
        <time>2017-02-12T11:32:20.000Z</time>
      </trkpt>
      <trkpt lat="47.49329" lon="6.77335">
        <ele>359.3</ele>
        <time>2017-02-12T11:32:21.000Z</time>
      </trkpt>
      <trkpt lat="47.49332" lon="6.77338">
        <ele>359.2</ele>
        <time>2017-02-12T11:32:22.000Z</time>
      </trkpt>
      <trkpt lat="47.49334" lon="6.77341">
        <ele>359.2</ele>
        <time>2017-02-12T11:32:23.000Z</time>
      </trkpt>
      <trkpt lat="47.49336" lon="6.77342">
        <ele>359.2</ele>
        <time>2017-02-12T11:32:24.000Z</time>
      </trkpt>
      <trkpt lat="47.49341" lon="6.77345">
        <ele>359.2</ele>
        <time>2017-02-12T11:32:25.000Z</time>
      </trkpt>
      <trkpt lat="47.49345" lon="6.77347">
        <ele>359.5</ele>
        <time>2017-02-12T11:32:26.000Z</time>
      </trkpt>
      <trkpt lat="47.49349" lon="6.77348">
        <ele>359.5</ele>
        <time>2017-02-12T11:32:27.000Z</time>
      </trkpt>
      <trkpt lat="47.49352" lon="6.77349">
        <ele>359.8</ele>
        <time>2017-02-12T11:32:28.000Z</time>
      </trkpt>
      <trkpt lat="47.49356" lon="6.77349">
        <ele>359.5</ele>
        <time>2017-02-12T11:32:29.000Z</time>
      </trkpt>
      <trkpt lat="47.49359" lon="6.7735">
        <ele>359.7</ele>
        <time>2017-02-12T11:32:30.000Z</time>
      </trkpt>
      <trkpt lat="47.49363" lon="6.7735">
        <ele>359.8</ele>
        <time>2017-02-12T11:32:31.000Z</time>
      </trkpt>
      <trkpt lat="47.49367" lon="6.7735">
        <ele>359.4</ele>
        <time>2017-02-12T11:32:32.000Z</time>
      </trkpt>
      <trkpt lat="47.49372" lon="6.7735">
        <ele>359.2</ele>
        <time>2017-02-12T11:32:33.000Z</time>
      </trkpt>
      <trkpt lat="47.49376" lon="6.7735">
        <ele>359</ele>
        <time>2017-02-12T11:32:34.000Z</time>
      </trkpt>
      <trkpt lat="47.49379" lon="6.77351">
        <ele>359.1</ele>
        <time>2017-02-12T11:32:35.000Z</time>
      </trkpt>
      <trkpt lat="47.49383" lon="6.77351">
        <ele>358.6</ele>
        <time>2017-02-12T11:32:36.000Z</time>
      </trkpt>
      <trkpt lat="47.49388" lon="6.77351">
        <ele>358</ele>
        <time>2017-02-12T11:32:37.000Z</time>
      </trkpt>
      <trkpt lat="47.49391" lon="6.77351">
        <ele>357.2</ele>
        <time>2017-02-12T11:32:38.000Z</time>
      </trkpt>
      <trkpt lat="47.49395" lon="6.77352">
        <ele>356.5</ele>
        <time>2017-02-12T11:32:39.000Z</time>
      </trkpt>
      <trkpt lat="47.49398" lon="6.77353">
        <ele>355.5</ele>
        <time>2017-02-12T11:32:40.000Z</time>
      </trkpt>
      <trkpt lat="47.49401" lon="6.77353">
        <ele>354.9</ele>
        <time>2017-02-12T11:32:41.000Z</time>
      </trkpt>
      <trkpt lat="47.49405" lon="6.77354">
        <ele>354.7</ele>
        <time>2017-02-12T11:32:42.000Z</time>
      </trkpt>
      <trkpt lat="47.49409" lon="6.77354">
        <ele>354.7</ele>
        <time>2017-02-12T11:32:43.000Z</time>
      </trkpt>
      <trkpt lat="47.49412" lon="6.77353">
        <ele>355</ele>
        <time>2017-02-12T11:32:44.000Z</time>
      </trkpt>
      <trkpt lat="47.49416" lon="6.77353">
        <ele>355</ele>
        <time>2017-02-12T11:32:45.000Z</time>
      </trkpt>
      <trkpt lat="47.4942" lon="6.77354">
        <ele>355</ele>
        <time>2017-02-12T11:32:46.000Z</time>
      </trkpt>
      <trkpt lat="47.49424" lon="6.77354">
        <ele>354.8</ele>
        <time>2017-02-12T11:32:47.000Z</time>
      </trkpt>
      <trkpt lat="47.49428" lon="6.77354">
        <ele>354.8</ele>
        <time>2017-02-12T11:32:48.000Z</time>
      </trkpt>
      <trkpt lat="47.49432" lon="6.77354">
        <ele>354.5</ele>
        <time>2017-02-12T11:32:49.000Z</time>
      </trkpt>
      <trkpt lat="47.49436" lon="6.77354">
        <ele>353.9</ele>
        <time>2017-02-12T11:32:50.000Z</time>
      </trkpt>
      <trkpt lat="47.4944" lon="6.77355">
        <ele>352.9</ele>
        <time>2017-02-12T11:32:51.000Z</time>
      </trkpt>
      <trkpt lat="47.49444" lon="6.77355">
        <ele>352.1</ele>
        <time>2017-02-12T11:32:52.000Z</time>
      </trkpt>
      <trkpt lat="47.49449" lon="6.77355">
        <ele>351.5</ele>
        <time>2017-02-12T11:32:53.000Z</time>
      </trkpt>
      <trkpt lat="47.49453" lon="6.77355">
        <ele>351.5</ele>
        <time>2017-02-12T11:32:54.000Z</time>
      </trkpt>
      <trkpt lat="47.49456" lon="6.77355">
        <ele>351.3</ele>
        <time>2017-02-12T11:32:55.000Z</time>
      </trkpt>
      <trkpt lat="47.4946" lon="6.77355">
        <ele>351</ele>
        <time>2017-02-12T11:32:56.000Z</time>
      </trkpt>
      <trkpt lat="47.49464" lon="6.77356">
        <ele>350.8</ele>
        <time>2017-02-12T11:32:57.000Z</time>
      </trkpt>
      <trkpt lat="47.49469" lon="6.77357">
        <ele>350.4</ele>
        <time>2017-02-12T11:32:58.000Z</time>
      </trkpt>
      <trkpt lat="47.49472" lon="6.77357">
        <ele>350.2</ele>
        <time>2017-02-12T11:32:59.000Z</time>
      </trkpt>
      <trkpt lat="47.49476" lon="6.77357">
        <ele>350.4</ele>
        <time>2017-02-12T11:33:00.000Z</time>
      </trkpt>
      <trkpt lat="47.4948" lon="6.77358">
        <ele>350</ele>
        <time>2017-02-12T11:33:01.000Z</time>
      </trkpt>
      <trkpt lat="47.49484" lon="6.77358">
        <ele>349.9</ele>
        <time>2017-02-12T11:33:02.000Z</time>
      </trkpt>
      <trkpt lat="47.49488" lon="6.77359">
        <ele>350.4</ele>
        <time>2017-02-12T11:33:03.000Z</time>
      </trkpt>
      <trkpt lat="47.49492" lon="6.77359">
        <ele>350.5</ele>
        <time>2017-02-12T11:33:04.000Z</time>
      </trkpt>
      <trkpt lat="47.49496" lon="6.77359">
        <ele>350.4</ele>
        <time>2017-02-12T11:33:05.000Z</time>
      </trkpt>
      <trkpt lat="47.495" lon="6.7736">
        <ele>350.2</ele>
        <time>2017-02-12T11:33:06.000Z</time>
      </trkpt>
      <trkpt lat="47.49504" lon="6.7736">
        <ele>350.3</ele>
        <time>2017-02-12T11:33:07.000Z</time>
      </trkpt>
      <trkpt lat="47.49508" lon="6.7736">
        <ele>350.6</ele>
        <time>2017-02-12T11:33:08.000Z</time>
      </trkpt>
      <trkpt lat="47.49513" lon="6.7736">
        <ele>350.9</ele>
        <time>2017-02-12T11:33:09.000Z</time>
      </trkpt>
      <trkpt lat="47.49517" lon="6.77361">
        <ele>351.2</ele>
        <time>2017-02-12T11:33:10.000Z</time>
      </trkpt>
      <trkpt lat="47.4952" lon="6.77361">
        <ele>351.3</ele>
        <time>2017-02-12T11:33:11.000Z</time>
      </trkpt>
      <trkpt lat="47.49524" lon="6.77361">
        <ele>351.9</ele>
        <time>2017-02-12T11:33:12.000Z</time>
      </trkpt>
      <trkpt lat="47.49528" lon="6.77361">
        <ele>352</ele>
        <time>2017-02-12T11:33:13.000Z</time>
      </trkpt>
      <trkpt lat="47.49532" lon="6.77361">
        <ele>352</ele>
        <time>2017-02-12T11:33:14.000Z</time>
      </trkpt>
      <trkpt lat="47.49536" lon="6.77361">
        <ele>352.1</ele>
        <time>2017-02-12T11:33:15.000Z</time>
      </trkpt>
      <trkpt lat="47.4954" lon="6.77361">
        <ele>352.2</ele>
        <time>2017-02-12T11:33:16.000Z</time>
      </trkpt>
      <trkpt lat="47.49543" lon="6.77361">
        <ele>352.3</ele>
        <time>2017-02-12T11:33:17.000Z</time>
      </trkpt>
      <trkpt lat="47.49547" lon="6.77361">
        <ele>352.4</ele>
        <time>2017-02-12T11:33:18.000Z</time>
      </trkpt>
      <trkpt lat="47.4955" lon="6.77361">
        <ele>353.1</ele>
        <time>2017-02-12T11:33:19.000Z</time>
      </trkpt>
      <trkpt lat="47.49554" lon="6.77362">
        <ele>353.4</ele>
        <time>2017-02-12T11:33:20.000Z</time>
      </trkpt>
      <trkpt lat="47.49558" lon="6.77362">
        <ele>353.4</ele>
        <time>2017-02-12T11:33:21.000Z</time>
      </trkpt>
      <trkpt lat="47.49562" lon="6.77362">
        <ele>353.1</ele>
        <time>2017-02-12T11:33:22.000Z</time>
      </trkpt>
      <trkpt lat="47.49567" lon="6.77363">
        <ele>352.7</ele>
        <time>2017-02-12T11:33:23.000Z</time>
      </trkpt>
      <trkpt lat="47.49571" lon="6.77364">
        <ele>352.2</ele>
        <time>2017-02-12T11:33:24.000Z</time>
      </trkpt>
      <trkpt lat="47.49575" lon="6.77364">
        <ele>351.7</ele>
        <time>2017-02-12T11:33:25.000Z</time>
      </trkpt>
      <trkpt lat="47.49578" lon="6.77364">
        <ele>351.1</ele>
        <time>2017-02-12T11:33:26.000Z</time>
      </trkpt>
      <trkpt lat="47.49582" lon="6.77364">
        <ele>350.7</ele>
        <time>2017-02-12T11:33:27.000Z</time>
      </trkpt>
      <trkpt lat="47.49585" lon="6.77364">
        <ele>350.6</ele>
        <time>2017-02-12T11:33:28.000Z</time>
      </trkpt>
      <trkpt lat="47.4959" lon="6.77364">
        <ele>351.7</ele>
        <time>2017-02-12T11:33:29.000Z</time>
      </trkpt>
      <trkpt lat="47.49594" lon="6.77364">
        <ele>352.2</ele>
        <time>2017-02-12T11:33:30.000Z</time>
      </trkpt>
      <trkpt lat="47.49598" lon="6.77363">
        <ele>353.1</ele>
        <time>2017-02-12T11:33:31.000Z</time>
      </trkpt>
      <trkpt lat="47.49603" lon="6.77362">
        <ele>354.3</ele>
        <time>2017-02-12T11:33:32.000Z</time>
      </trkpt>
      <trkpt lat="47.49607" lon="6.77361">
        <ele>355.6</ele>
        <time>2017-02-12T11:33:33.000Z</time>
      </trkpt>
      <trkpt lat="47.49611" lon="6.7736">
        <ele>356.1</ele>
        <time>2017-02-12T11:33:34.000Z</time>
      </trkpt>
      <trkpt lat="47.49615" lon="6.77358">
        <ele>357</ele>
        <time>2017-02-12T11:33:35.000Z</time>
      </trkpt>
      <trkpt lat="47.49619" lon="6.77357">
        <ele>357.5</ele>
        <time>2017-02-12T11:33:36.000Z</time>
      </trkpt>
      <trkpt lat="47.49623" lon="6.77356">
        <ele>358.5</ele>
        <time>2017-02-12T11:33:37.000Z</time>
      </trkpt>
      <trkpt lat="47.49627" lon="6.77354">
        <ele>359.6</ele>
        <time>2017-02-12T11:33:38.000Z</time>
      </trkpt>
      <trkpt lat="47.49631" lon="6.77353">
        <ele>360.1</ele>
        <time>2017-02-12T11:33:39.000Z</time>
      </trkpt>
      <trkpt lat="47.49635" lon="6.77351">
        <ele>360.6</ele>
        <time>2017-02-12T11:33:40.000Z</time>
      </trkpt>
      <trkpt lat="47.49638" lon="6.7735">
        <ele>360.7</ele>
        <time>2017-02-12T11:33:41.000Z</time>
      </trkpt>
      <trkpt lat="47.49643" lon="6.77349">
        <ele>360.1</ele>
        <time>2017-02-12T11:33:42.000Z</time>
      </trkpt>
      <trkpt lat="47.49646" lon="6.77348">
        <ele>359.6</ele>
        <time>2017-02-12T11:33:43.000Z</time>
      </trkpt>
      <trkpt lat="47.4965" lon="6.77346">
        <ele>359.4</ele>
        <time>2017-02-12T11:33:44.000Z</time>
      </trkpt>
      <trkpt lat="47.49654" lon="6.77346">
        <ele>359.2</ele>
        <time>2017-02-12T11:33:45.000Z</time>
      </trkpt>
      <trkpt lat="47.49658" lon="6.77345">
        <ele>359.4</ele>
        <time>2017-02-12T11:33:46.000Z</time>
      </trkpt>
      <trkpt lat="47.49662" lon="6.77345">
        <ele>359.1</ele>
        <time>2017-02-12T11:33:47.000Z</time>
      </trkpt>
      <trkpt lat="47.49666" lon="6.77344">
        <ele>359</ele>
        <time>2017-02-12T11:33:48.000Z</time>
      </trkpt>
      <trkpt lat="47.4967" lon="6.77343">
        <ele>359</ele>
        <time>2017-02-12T11:33:49.000Z</time>
      </trkpt>
      <trkpt lat="47.49674" lon="6.77342">
        <ele>358.4</ele>
        <time>2017-02-12T11:33:50.000Z</time>
      </trkpt>
      <trkpt lat="47.49678" lon="6.77341">
        <ele>358.1</ele>
        <time>2017-02-12T11:33:51.000Z</time>
      </trkpt>
      <trkpt lat="47.49681" lon="6.7734">
        <ele>357.6</ele>
        <time>2017-02-12T11:33:52.000Z</time>
      </trkpt>
      <trkpt lat="47.49685" lon="6.77339">
        <ele>357.3</ele>
        <time>2017-02-12T11:33:53.000Z</time>
      </trkpt>
      <trkpt lat="47.49689" lon="6.77337">
        <ele>357</ele>
        <time>2017-02-12T11:33:54.000Z</time>
      </trkpt>
      <trkpt lat="47.49693" lon="6.77336">
        <ele>357</ele>
        <time>2017-02-12T11:33:55.000Z</time>
      </trkpt>
      <trkpt lat="47.49697" lon="6.77335">
        <ele>356.7</ele>
        <time>2017-02-12T11:33:56.000Z</time>
      </trkpt>
      <trkpt lat="47.49702" lon="6.77333">
        <ele>356.1</ele>
        <time>2017-02-12T11:33:57.000Z</time>
      </trkpt>
      <trkpt lat="47.49706" lon="6.77332">
        <ele>355.4</ele>
        <time>2017-02-12T11:33:58.000Z</time>
      </trkpt>
      <trkpt lat="47.49711" lon="6.77332">
        <ele>354.8</ele>
        <time>2017-02-12T11:33:59.000Z</time>
      </trkpt>
      <trkpt lat="47.49715" lon="6.77331">
        <ele>354.2</ele>
        <time>2017-02-12T11:34:00.000Z</time>
      </trkpt>
      <trkpt lat="47.4972" lon="6.7733">
        <ele>353.6</ele>
        <time>2017-02-12T11:34:01.000Z</time>
      </trkpt>
      <trkpt lat="47.49724" lon="6.77329">
        <ele>353.1</ele>
        <time>2017-02-12T11:34:02.000Z</time>
      </trkpt>
      <trkpt lat="47.49728" lon="6.77327">
        <ele>352.9</ele>
        <time>2017-02-12T11:34:03.000Z</time>
      </trkpt>
      <trkpt lat="47.49731" lon="6.77325">
        <ele>352.9</ele>
        <time>2017-02-12T11:34:04.000Z</time>
      </trkpt>
      <trkpt lat="47.49734" lon="6.77323">
        <ele>353.1</ele>
        <time>2017-02-12T11:34:05.000Z</time>
      </trkpt>
      <trkpt lat="47.49737" lon="6.77321">
        <ele>353</ele>
        <time>2017-02-12T11:34:06.000Z</time>
      </trkpt>
      <trkpt lat="47.49741" lon="6.7732">
        <ele>352.9</ele>
        <time>2017-02-12T11:34:07.000Z</time>
      </trkpt>
      <trkpt lat="47.49744" lon="6.77317">
        <ele>353</ele>
        <time>2017-02-12T11:34:08.000Z</time>
      </trkpt>
      <trkpt lat="47.49747" lon="6.77316">
        <ele>353.3</ele>
        <time>2017-02-12T11:34:09.000Z</time>
      </trkpt>
      <trkpt lat="47.49751" lon="6.77314">
        <ele>353.3</ele>
        <time>2017-02-12T11:34:10.000Z</time>
      </trkpt>
      <trkpt lat="47.49755" lon="6.77314">
        <ele>353.4</ele>
        <time>2017-02-12T11:34:11.000Z</time>
      </trkpt>
      <trkpt lat="47.49759" lon="6.77313">
        <ele>353.2</ele>
        <time>2017-02-12T11:34:12.000Z</time>
      </trkpt>
      <trkpt lat="47.49763" lon="6.77312">
        <ele>354</ele>
        <time>2017-02-12T11:34:13.000Z</time>
      </trkpt>
      <trkpt lat="47.49767" lon="6.77312">
        <ele>355.4</ele>
        <time>2017-02-12T11:34:14.000Z</time>
      </trkpt>
      <trkpt lat="47.4977" lon="6.77312">
        <ele>355.5</ele>
        <time>2017-02-12T11:34:15.000Z</time>
      </trkpt>
      <trkpt lat="47.49775" lon="6.77312">
        <ele>356.1</ele>
        <time>2017-02-12T11:34:16.000Z</time>
      </trkpt>
      <trkpt lat="47.49779" lon="6.77313">
        <ele>356.6</ele>
        <time>2017-02-12T11:34:17.000Z</time>
      </trkpt>
      <trkpt lat="47.49783" lon="6.77312">
        <ele>356.9</ele>
        <time>2017-02-12T11:34:18.000Z</time>
      </trkpt>
      <trkpt lat="47.49787" lon="6.77312">
        <ele>357.5</ele>
        <time>2017-02-12T11:34:19.000Z</time>
      </trkpt>
      <trkpt lat="47.49792" lon="6.77311">
        <ele>357.8</ele>
        <time>2017-02-12T11:34:20.000Z</time>
      </trkpt>
      <trkpt lat="47.49796" lon="6.7731">
        <ele>357.4</ele>
        <time>2017-02-12T11:34:21.000Z</time>
      </trkpt>
      <trkpt lat="47.498" lon="6.77309">
        <ele>357.1</ele>
        <time>2017-02-12T11:34:22.000Z</time>
      </trkpt>
      <trkpt lat="47.49804" lon="6.77308">
        <ele>356.9</ele>
        <time>2017-02-12T11:34:23.000Z</time>
      </trkpt>
      <trkpt lat="47.49809" lon="6.77308">
        <ele>356.6</ele>
        <time>2017-02-12T11:34:24.000Z</time>
      </trkpt>
      <trkpt lat="47.49814" lon="6.77308">
        <ele>356</ele>
        <time>2017-02-12T11:34:25.000Z</time>
      </trkpt>
      <trkpt lat="47.49819" lon="6.77307">
        <ele>355.9</ele>
        <time>2017-02-12T11:34:26.000Z</time>
      </trkpt>
      <trkpt lat="47.49824" lon="6.77306">
        <ele>355.2</ele>
        <time>2017-02-12T11:34:27.000Z</time>
      </trkpt>
      <trkpt lat="47.49828" lon="6.77306">
        <ele>355.1</ele>
        <time>2017-02-12T11:34:28.000Z</time>
      </trkpt>
      <trkpt lat="47.49832" lon="6.77306">
        <ele>354.7</ele>
        <time>2017-02-12T11:34:29.000Z</time>
      </trkpt>
      <trkpt lat="47.49837" lon="6.77305">
        <ele>354.7</ele>
        <time>2017-02-12T11:34:30.000Z</time>
      </trkpt>
      <trkpt lat="47.49842" lon="6.77305">
        <ele>354.4</ele>
        <time>2017-02-12T11:34:31.000Z</time>
      </trkpt>
      <trkpt lat="47.49847" lon="6.77304">
        <ele>354.9</ele>
        <time>2017-02-12T11:34:32.000Z</time>
      </trkpt>
      <trkpt lat="47.49851" lon="6.77303">
        <ele>355</ele>
        <time>2017-02-12T11:34:33.000Z</time>
      </trkpt>
      <trkpt lat="47.49856" lon="6.77303">
        <ele>354.7</ele>
        <time>2017-02-12T11:34:34.000Z</time>
      </trkpt>
      <trkpt lat="47.4986" lon="6.77303">
        <ele>355.5</ele>
        <time>2017-02-12T11:34:35.000Z</time>
      </trkpt>
      <trkpt lat="47.49865" lon="6.77302">
        <ele>356.5</ele>
        <time>2017-02-12T11:34:36.000Z</time>
      </trkpt>
      <trkpt lat="47.49869" lon="6.77302">
        <ele>357</ele>
        <time>2017-02-12T11:34:37.000Z</time>
      </trkpt>
      <trkpt lat="47.49874" lon="6.77301">
        <ele>357</ele>
        <time>2017-02-12T11:34:38.000Z</time>
      </trkpt>
      <trkpt lat="47.49877" lon="6.773">
        <ele>356.9</ele>
        <time>2017-02-12T11:34:39.000Z</time>
      </trkpt>
      <trkpt lat="47.4988" lon="6.77298">
        <ele>356.8</ele>
        <time>2017-02-12T11:34:40.000Z</time>
      </trkpt>
      <trkpt lat="47.49885" lon="6.77296">
        <ele>356.8</ele>
        <time>2017-02-12T11:34:41.000Z</time>
      </trkpt>
      <trkpt lat="47.49888" lon="6.77295">
        <ele>356.7</ele>
        <time>2017-02-12T11:34:42.000Z</time>
      </trkpt>
      <trkpt lat="47.49891" lon="6.77295">
        <ele>356.7</ele>
        <time>2017-02-12T11:34:43.000Z</time>
      </trkpt>
      <trkpt lat="47.49895" lon="6.77293">
        <ele>356.6</ele>
        <time>2017-02-12T11:34:44.000Z</time>
      </trkpt>
      <trkpt lat="47.49899" lon="6.7729">
        <ele>356.6</ele>
        <time>2017-02-12T11:34:45.000Z</time>
      </trkpt>
      <trkpt lat="47.49904" lon="6.77288">
        <ele>356.6</ele>
        <time>2017-02-12T11:34:46.000Z</time>
      </trkpt>
      <trkpt lat="47.49908" lon="6.77286">
        <ele>357</ele>
        <time>2017-02-12T11:34:47.000Z</time>
      </trkpt>
      <trkpt lat="47.49913" lon="6.77284">
        <ele>357</ele>
        <time>2017-02-12T11:34:48.000Z</time>
      </trkpt>
      <trkpt lat="47.49917" lon="6.77283">
        <ele>357.1</ele>
        <time>2017-02-12T11:34:49.000Z</time>
      </trkpt>
      <trkpt lat="47.4992" lon="6.77281">
        <ele>357.1</ele>
        <time>2017-02-12T11:34:50.000Z</time>
      </trkpt>
      <trkpt lat="47.49924" lon="6.77278">
        <ele>357.1</ele>
        <time>2017-02-12T11:34:51.000Z</time>
      </trkpt>
      <trkpt lat="47.49928" lon="6.77276">
        <ele>357.1</ele>
        <time>2017-02-12T11:34:52.000Z</time>
      </trkpt>
      <trkpt lat="47.49932" lon="6.77274">
        <ele>357.1</ele>
        <time>2017-02-12T11:34:53.000Z</time>
      </trkpt>
      <trkpt lat="47.49935" lon="6.77272">
        <ele>357.5</ele>
        <time>2017-02-12T11:34:54.000Z</time>
      </trkpt>
      <trkpt lat="47.49938" lon="6.77269">
        <ele>357.5</ele>
        <time>2017-02-12T11:34:55.000Z</time>
      </trkpt>
      <trkpt lat="47.49942" lon="6.77267">
        <ele>357.4</ele>
        <time>2017-02-12T11:34:56.000Z</time>
      </trkpt>
      <trkpt lat="47.49946" lon="6.77264">
        <ele>357.4</ele>
        <time>2017-02-12T11:34:57.000Z</time>
      </trkpt>
      <trkpt lat="47.4995" lon="6.77263">
        <ele>357.4</ele>
        <time>2017-02-12T11:34:58.000Z</time>
      </trkpt>
      <trkpt lat="47.49955" lon="6.77262">
        <ele>357.4</ele>
        <time>2017-02-12T11:34:59.000Z</time>
      </trkpt>
      <trkpt lat="47.49959" lon="6.77259">
        <ele>358.3</ele>
        <time>2017-02-12T11:35:00.000Z</time>
      </trkpt>
      <trkpt lat="47.49963" lon="6.77257">
        <ele>358.3</ele>
        <time>2017-02-12T11:35:01.000Z</time>
      </trkpt>
      <trkpt lat="47.49966" lon="6.77256">
        <ele>358.5</ele>
        <time>2017-02-12T11:35:02.000Z</time>
      </trkpt>
      <trkpt lat="47.49969" lon="6.77255">
        <ele>358.5</ele>
        <time>2017-02-12T11:35:03.000Z</time>
      </trkpt>
      <trkpt lat="47.49973" lon="6.77253">
        <ele>358.5</ele>
        <time>2017-02-12T11:35:04.000Z</time>
      </trkpt>
      <trkpt lat="47.49975" lon="6.77251">
        <ele>358.3</ele>
        <time>2017-02-12T11:35:05.000Z</time>
      </trkpt>
      <trkpt lat="47.49979" lon="6.77249">
        <ele>358.5</ele>
        <time>2017-02-12T11:35:06.000Z</time>
      </trkpt>
      <trkpt lat="47.49982" lon="6.77246">
        <ele>358.8</ele>
        <time>2017-02-12T11:35:07.000Z</time>
      </trkpt>
      <trkpt lat="47.49987" lon="6.77244">
        <ele>359</ele>
        <time>2017-02-12T11:35:08.000Z</time>
      </trkpt>
      <trkpt lat="47.4999" lon="6.77242">
        <ele>359.4</ele>
        <time>2017-02-12T11:35:09.000Z</time>
      </trkpt>
      <trkpt lat="47.49994" lon="6.7724">
        <ele>359.7</ele>
        <time>2017-02-12T11:35:10.000Z</time>
      </trkpt>
      <trkpt lat="47.49998" lon="6.77237">
        <ele>360.6</ele>
        <time>2017-02-12T11:35:11.000Z</time>
      </trkpt>
      <trkpt lat="47.50001" lon="6.77234">
        <ele>360.6</ele>
        <time>2017-02-12T11:35:12.000Z</time>
      </trkpt>
      <trkpt lat="47.50005" lon="6.77233">
        <ele>360.4</ele>
        <time>2017-02-12T11:35:13.000Z</time>
      </trkpt>
      <trkpt lat="47.50008" lon="6.77232">
        <ele>360.4</ele>
        <time>2017-02-12T11:35:14.000Z</time>
      </trkpt>
      <trkpt lat="47.5001" lon="6.77232">
        <ele>360.4</ele>
        <time>2017-02-12T11:35:15.000Z</time>
      </trkpt>
      <trkpt lat="47.50013" lon="6.77233">
        <ele>360.4</ele>
        <time>2017-02-12T11:35:16.000Z</time>
      </trkpt>
      <trkpt lat="47.50016" lon="6.77232">
        <ele>360.4</ele>
        <time>2017-02-12T11:35:17.000Z</time>
      </trkpt>
      <trkpt lat="47.50018" lon="6.77231">
        <ele>360.4</ele>
        <time>2017-02-12T11:35:18.000Z</time>
      </trkpt>
      <trkpt lat="47.5002" lon="6.77229">
        <ele>360.4</ele>
        <time>2017-02-12T11:35:19.000Z</time>
      </trkpt>
      <trkpt lat="47.50025" lon="6.77227">
        <ele>360.3</ele>
        <time>2017-02-12T11:35:20.000Z</time>
      </trkpt>
      <trkpt lat="47.5003" lon="6.77224">
        <ele>360.3</ele>
        <time>2017-02-12T11:35:21.000Z</time>
      </trkpt>
      <trkpt lat="47.50035" lon="6.77221">
        <ele>360.6</ele>
        <time>2017-02-12T11:35:22.000Z</time>
      </trkpt>
      <trkpt lat="47.5004" lon="6.77218">
        <ele>360.4</ele>
        <time>2017-02-12T11:35:23.000Z</time>
      </trkpt>
      <trkpt lat="47.50044" lon="6.77216">
        <ele>360.6</ele>
        <time>2017-02-12T11:35:24.000Z</time>
      </trkpt>
      <trkpt lat="47.50048" lon="6.77214">
        <ele>361.1</ele>
        <time>2017-02-12T11:35:25.000Z</time>
      </trkpt>
      <trkpt lat="47.50052" lon="6.77212">
        <ele>360.9</ele>
        <time>2017-02-12T11:35:26.000Z</time>
      </trkpt>
      <trkpt lat="47.50056" lon="6.7721">
        <ele>361</ele>
        <time>2017-02-12T11:35:27.000Z</time>
      </trkpt>
      <trkpt lat="47.50061" lon="6.77209">
        <ele>361</ele>
        <time>2017-02-12T11:35:28.000Z</time>
      </trkpt>
      <trkpt lat="47.50065" lon="6.77209">
        <ele>361</ele>
        <time>2017-02-12T11:35:29.000Z</time>
      </trkpt>
      <trkpt lat="47.5007" lon="6.77208">
        <ele>361.2</ele>
        <time>2017-02-12T11:35:30.000Z</time>
      </trkpt>
      <trkpt lat="47.50076" lon="6.77206">
        <ele>361.5</ele>
        <time>2017-02-12T11:35:31.000Z</time>
      </trkpt>
      <trkpt lat="47.5008" lon="6.77204">
        <ele>361.9</ele>
        <time>2017-02-12T11:35:32.000Z</time>
      </trkpt>
      <trkpt lat="47.50085" lon="6.77203">
        <ele>361.9</ele>
        <time>2017-02-12T11:35:33.000Z</time>
      </trkpt>
      <trkpt lat="47.50089" lon="6.77202">
        <ele>361.6</ele>
        <time>2017-02-12T11:35:34.000Z</time>
      </trkpt>
      <trkpt lat="47.50093" lon="6.77201">
        <ele>361.7</ele>
        <time>2017-02-12T11:35:35.000Z</time>
      </trkpt>
      <trkpt lat="47.50098" lon="6.77199">
        <ele>361.8</ele>
        <time>2017-02-12T11:35:36.000Z</time>
      </trkpt>
      <trkpt lat="47.50102" lon="6.77199">
        <ele>361.9</ele>
        <time>2017-02-12T11:35:37.000Z</time>
      </trkpt>
      <trkpt lat="47.50106" lon="6.77201">
        <ele>361.8</ele>
        <time>2017-02-12T11:35:38.000Z</time>
      </trkpt>
      <trkpt lat="47.5011" lon="6.77203">
        <ele>362.2</ele>
        <time>2017-02-12T11:35:39.000Z</time>
      </trkpt>
      <trkpt lat="47.50115" lon="6.77204">
        <ele>361.6</ele>
        <time>2017-02-12T11:35:40.000Z</time>
      </trkpt>
      <trkpt lat="47.50119" lon="6.77205">
        <ele>361.6</ele>
        <time>2017-02-12T11:35:41.000Z</time>
      </trkpt>
      <trkpt lat="47.50123" lon="6.77207">
        <ele>362.9</ele>
        <time>2017-02-12T11:35:42.000Z</time>
      </trkpt>
      <trkpt lat="47.50128" lon="6.77209">
        <ele>364.8</ele>
        <time>2017-02-12T11:35:43.000Z</time>
      </trkpt>
      <trkpt lat="47.50133" lon="6.77211">
        <ele>365.5</ele>
        <time>2017-02-12T11:35:44.000Z</time>
      </trkpt>
      <trkpt lat="47.50138" lon="6.77213">
        <ele>365.9</ele>
        <time>2017-02-12T11:35:45.000Z</time>
      </trkpt>
      <trkpt lat="47.50143" lon="6.77215">
        <ele>367</ele>
        <time>2017-02-12T11:35:46.000Z</time>
      </trkpt>
      <trkpt lat="47.50146" lon="6.77218">
        <ele>366.7</ele>
        <time>2017-02-12T11:35:47.000Z</time>
      </trkpt>
      <trkpt lat="47.5015" lon="6.77221">
        <ele>367</ele>
        <time>2017-02-12T11:35:48.000Z</time>
      </trkpt>
      <trkpt lat="47.50153" lon="6.77224">
        <ele>366.7</ele>
        <time>2017-02-12T11:35:49.000Z</time>
      </trkpt>
      <trkpt lat="47.50156" lon="6.77225">
        <ele>365.7</ele>
        <time>2017-02-12T11:35:50.000Z</time>
      </trkpt>
      <trkpt lat="47.5016" lon="6.77226">
        <ele>365.6</ele>
        <time>2017-02-12T11:35:51.000Z</time>
      </trkpt>
      <trkpt lat="47.50163" lon="6.7723">
        <ele>364.3</ele>
        <time>2017-02-12T11:35:52.000Z</time>
      </trkpt>
      <trkpt lat="47.50166" lon="6.77231">
        <ele>363.8</ele>
        <time>2017-02-12T11:35:53.000Z</time>
      </trkpt>
      <trkpt lat="47.5017" lon="6.77233">
        <ele>361.9</ele>
        <time>2017-02-12T11:35:54.000Z</time>
      </trkpt>
      <trkpt lat="47.50173" lon="6.77235">
        <ele>359.9</ele>
        <time>2017-02-12T11:35:55.000Z</time>
      </trkpt>
      <trkpt lat="47.50177" lon="6.77237">
        <ele>359.8</ele>
        <time>2017-02-12T11:35:56.000Z</time>
      </trkpt>
      <trkpt lat="47.5018" lon="6.7724">
        <ele>359.2</ele>
        <time>2017-02-12T11:35:57.000Z</time>
      </trkpt>
      <trkpt lat="47.50184" lon="6.77242">
        <ele>358.5</ele>
        <time>2017-02-12T11:35:58.000Z</time>
      </trkpt>
      <trkpt lat="47.50187" lon="6.77245">
        <ele>357.9</ele>
        <time>2017-02-12T11:35:59.000Z</time>
      </trkpt>
      <trkpt lat="47.50191" lon="6.77248">
        <ele>357</ele>
        <time>2017-02-12T11:36:00.000Z</time>
      </trkpt>
      <trkpt lat="47.50195" lon="6.77252">
        <ele>355.9</ele>
        <time>2017-02-12T11:36:01.000Z</time>
      </trkpt>
      <trkpt lat="47.50199" lon="6.77254">
        <ele>355.3</ele>
        <time>2017-02-12T11:36:02.000Z</time>
      </trkpt>
      <trkpt lat="47.50202" lon="6.77257">
        <ele>355.1</ele>
        <time>2017-02-12T11:36:03.000Z</time>
      </trkpt>
      <trkpt lat="47.50206" lon="6.7726">
        <ele>354.9</ele>
        <time>2017-02-12T11:36:04.000Z</time>
      </trkpt>
      <trkpt lat="47.50209" lon="6.77263">
        <ele>354.5</ele>
        <time>2017-02-12T11:36:05.000Z</time>
      </trkpt>
      <trkpt lat="47.50212" lon="6.77265">
        <ele>354.5</ele>
        <time>2017-02-12T11:36:06.000Z</time>
      </trkpt>
      <trkpt lat="47.50216" lon="6.77268">
        <ele>354.3</ele>
        <time>2017-02-12T11:36:07.000Z</time>
      </trkpt>
      <trkpt lat="47.5022" lon="6.7727">
        <ele>354.5</ele>
        <time>2017-02-12T11:36:08.000Z</time>
      </trkpt>
      <trkpt lat="47.50224" lon="6.77272">
        <ele>354.2</ele>
        <time>2017-02-12T11:36:09.000Z</time>
      </trkpt>
      <trkpt lat="47.50229" lon="6.77275">
        <ele>354.3</ele>
        <time>2017-02-12T11:36:10.000Z</time>
      </trkpt>
      <trkpt lat="47.50233" lon="6.77278">
        <ele>354.2</ele>
        <time>2017-02-12T11:36:11.000Z</time>
      </trkpt>
      <trkpt lat="47.50236" lon="6.77281">
        <ele>354.6</ele>
        <time>2017-02-12T11:36:12.000Z</time>
      </trkpt>
      <trkpt lat="47.50239" lon="6.77284">
        <ele>354.6</ele>
        <time>2017-02-12T11:36:13.000Z</time>
      </trkpt>
      <trkpt lat="47.50243" lon="6.77286">
        <ele>354.5</ele>
        <time>2017-02-12T11:36:14.000Z</time>
      </trkpt>
      <trkpt lat="47.50246" lon="6.77288">
        <ele>353.5</ele>
        <time>2017-02-12T11:36:15.000Z</time>
      </trkpt>
      <trkpt lat="47.50249" lon="6.7729">
        <ele>353.8</ele>
        <time>2017-02-12T11:36:16.000Z</time>
      </trkpt>
      <trkpt lat="47.50252" lon="6.77292">
        <ele>353.7</ele>
        <time>2017-02-12T11:36:17.000Z</time>
      </trkpt>
      <trkpt lat="47.50255" lon="6.77294">
        <ele>353.1</ele>
        <time>2017-02-12T11:36:18.000Z</time>
      </trkpt>
      <trkpt lat="47.50259" lon="6.77297">
        <ele>352.6</ele>
        <time>2017-02-12T11:36:19.000Z</time>
      </trkpt>
      <trkpt lat="47.50263" lon="6.77299">
        <ele>353.2</ele>
        <time>2017-02-12T11:36:20.000Z</time>
      </trkpt>
      <trkpt lat="47.50266" lon="6.77301">
        <ele>353.3</ele>
        <time>2017-02-12T11:36:21.000Z</time>
      </trkpt>
      <trkpt lat="47.5027" lon="6.77304">
        <ele>354</ele>
        <time>2017-02-12T11:36:22.000Z</time>
      </trkpt>
      <trkpt lat="47.50275" lon="6.77307">
        <ele>354.3</ele>
        <time>2017-02-12T11:36:23.000Z</time>
      </trkpt>
      <trkpt lat="47.50279" lon="6.7731">
        <ele>354.4</ele>
        <time>2017-02-12T11:36:24.000Z</time>
      </trkpt>
      <trkpt lat="47.50283" lon="6.77313">
        <ele>354.9</ele>
        <time>2017-02-12T11:36:25.000Z</time>
      </trkpt>
      <trkpt lat="47.50287" lon="6.77316">
        <ele>355.2</ele>
        <time>2017-02-12T11:36:26.000Z</time>
      </trkpt>
      <trkpt lat="47.50292" lon="6.77319">
        <ele>355.1</ele>
        <time>2017-02-12T11:36:27.000Z</time>
      </trkpt>
      <trkpt lat="47.50295" lon="6.77321">
        <ele>355.4</ele>
        <time>2017-02-12T11:36:28.000Z</time>
      </trkpt>
      <trkpt lat="47.50298" lon="6.77323">
        <ele>355.7</ele>
        <time>2017-02-12T11:36:29.000Z</time>
      </trkpt>
      <trkpt lat="47.50302" lon="6.77326">
        <ele>356.2</ele>
        <time>2017-02-12T11:36:30.000Z</time>
      </trkpt>
      <trkpt lat="47.50305" lon="6.77329">
        <ele>356.1</ele>
        <time>2017-02-12T11:36:31.000Z</time>
      </trkpt>
      <trkpt lat="47.50308" lon="6.77332">
        <ele>356</ele>
        <time>2017-02-12T11:36:32.000Z</time>
      </trkpt>
      <trkpt lat="47.50311" lon="6.77336">
        <ele>355.8</ele>
        <time>2017-02-12T11:36:33.000Z</time>
      </trkpt>
      <trkpt lat="47.50314" lon="6.77339">
        <ele>355.6</ele>
        <time>2017-02-12T11:36:34.000Z</time>
      </trkpt>
      <trkpt lat="47.50318" lon="6.77342">
        <ele>355.7</ele>
        <time>2017-02-12T11:36:35.000Z</time>
      </trkpt>
      <trkpt lat="47.50322" lon="6.77345">
        <ele>356.1</ele>
        <time>2017-02-12T11:36:36.000Z</time>
      </trkpt>
      <trkpt lat="47.50326" lon="6.77348">
        <ele>356.2</ele>
        <time>2017-02-12T11:36:37.000Z</time>
      </trkpt>
      <trkpt lat="47.50328" lon="6.7735">
        <ele>356.3</ele>
        <time>2017-02-12T11:36:38.000Z</time>
      </trkpt>
      <trkpt lat="47.50332" lon="6.77353">
        <ele>356.7</ele>
        <time>2017-02-12T11:36:39.000Z</time>
      </trkpt>
      <trkpt lat="47.50336" lon="6.77357">
        <ele>356.6</ele>
        <time>2017-02-12T11:36:40.000Z</time>
      </trkpt>
      <trkpt lat="47.50339" lon="6.7736">
        <ele>356.2</ele>
        <time>2017-02-12T11:36:41.000Z</time>
      </trkpt>
      <trkpt lat="47.50343" lon="6.77363">
        <ele>355.6</ele>
        <time>2017-02-12T11:36:42.000Z</time>
      </trkpt>
      <trkpt lat="47.50347" lon="6.77365">
        <ele>355</ele>
        <time>2017-02-12T11:36:43.000Z</time>
      </trkpt>
      <trkpt lat="47.5035" lon="6.77368">
        <ele>355.8</ele>
        <time>2017-02-12T11:36:44.000Z</time>
      </trkpt>
      <trkpt lat="47.50354" lon="6.77371">
        <ele>355.5</ele>
        <time>2017-02-12T11:36:45.000Z</time>
      </trkpt>
      <trkpt lat="47.50358" lon="6.77374">
        <ele>355.7</ele>
        <time>2017-02-12T11:36:46.000Z</time>
      </trkpt>
      <trkpt lat="47.5036" lon="6.77376">
        <ele>355.6</ele>
        <time>2017-02-12T11:36:47.000Z</time>
      </trkpt>
      <trkpt lat="47.50363" lon="6.77378">
        <ele>356</ele>
        <time>2017-02-12T11:36:48.000Z</time>
      </trkpt>
      <trkpt lat="47.50366" lon="6.77381">
        <ele>356.6</ele>
        <time>2017-02-12T11:36:49.000Z</time>
      </trkpt>
      <trkpt lat="47.5037" lon="6.77384">
        <ele>357</ele>
        <time>2017-02-12T11:36:50.000Z</time>
      </trkpt>
      <trkpt lat="47.50374" lon="6.77387">
        <ele>356.6</ele>
        <time>2017-02-12T11:36:51.000Z</time>
      </trkpt>
      <trkpt lat="47.50378" lon="6.7739">
        <ele>356.9</ele>
        <time>2017-02-12T11:36:52.000Z</time>
      </trkpt>
      <trkpt lat="47.50382" lon="6.77393">
        <ele>356.7</ele>
        <time>2017-02-12T11:36:53.000Z</time>
      </trkpt>
      <trkpt lat="47.50386" lon="6.77395">
        <ele>356.1</ele>
        <time>2017-02-12T11:36:54.000Z</time>
      </trkpt>
      <trkpt lat="47.50389" lon="6.77399">
        <ele>356.2</ele>
        <time>2017-02-12T11:36:55.000Z</time>
      </trkpt>
      <trkpt lat="47.50393" lon="6.77401">
        <ele>355.4</ele>
        <time>2017-02-12T11:36:56.000Z</time>
      </trkpt>
      <trkpt lat="47.50396" lon="6.77404">
        <ele>354.7</ele>
        <time>2017-02-12T11:36:57.000Z</time>
      </trkpt>
      <trkpt lat="47.504" lon="6.77407">
        <ele>354.5</ele>
        <time>2017-02-12T11:36:58.000Z</time>
      </trkpt>
      <trkpt lat="47.50403" lon="6.7741">
        <ele>355.2</ele>
        <time>2017-02-12T11:36:59.000Z</time>
      </trkpt>
      <trkpt lat="47.50407" lon="6.77414">
        <ele>355.2</ele>
        <time>2017-02-12T11:37:00.000Z</time>
      </trkpt>
      <trkpt lat="47.5041" lon="6.77417">
        <ele>355.6</ele>
        <time>2017-02-12T11:37:01.000Z</time>
      </trkpt>
      <trkpt lat="47.50414" lon="6.77419">
        <ele>355.1</ele>
        <time>2017-02-12T11:37:02.000Z</time>
      </trkpt>
      <trkpt lat="47.50418" lon="6.77423">
        <ele>355</ele>
        <time>2017-02-12T11:37:03.000Z</time>
      </trkpt>
      <trkpt lat="47.50422" lon="6.77427">
        <ele>354.6</ele>
        <time>2017-02-12T11:37:04.000Z</time>
      </trkpt>
      <trkpt lat="47.50425" lon="6.77429">
        <ele>355.1</ele>
        <time>2017-02-12T11:37:05.000Z</time>
      </trkpt>
      <trkpt lat="47.50428" lon="6.77432">
        <ele>355.9</ele>
        <time>2017-02-12T11:37:06.000Z</time>
      </trkpt>
      <trkpt lat="47.50431" lon="6.77435">
        <ele>356.9</ele>
        <time>2017-02-12T11:37:07.000Z</time>
      </trkpt>
      <trkpt lat="47.50434" lon="6.77438">
        <ele>357.3</ele>
        <time>2017-02-12T11:37:08.000Z</time>
      </trkpt>
      <trkpt lat="47.50439" lon="6.77442">
        <ele>357.2</ele>
        <time>2017-02-12T11:37:09.000Z</time>
      </trkpt>
      <trkpt lat="47.50443" lon="6.77446">
        <ele>357.4</ele>
        <time>2017-02-12T11:37:10.000Z</time>
      </trkpt>
      <trkpt lat="47.50446" lon="6.77449">
        <ele>358.1</ele>
        <time>2017-02-12T11:37:11.000Z</time>
      </trkpt>
      <trkpt lat="47.50448" lon="6.77451">
        <ele>358.2</ele>
        <time>2017-02-12T11:37:12.000Z</time>
      </trkpt>
      <trkpt lat="47.50451" lon="6.77454">
        <ele>358.3</ele>
        <time>2017-02-12T11:37:13.000Z</time>
      </trkpt>
      <trkpt lat="47.50455" lon="6.77457">
        <ele>358.3</ele>
        <time>2017-02-12T11:37:14.000Z</time>
      </trkpt>
      <trkpt lat="47.50458" lon="6.7746">
        <ele>358.5</ele>
        <time>2017-02-12T11:37:15.000Z</time>
      </trkpt>
      <trkpt lat="47.50462" lon="6.77464">
        <ele>357.9</ele>
        <time>2017-02-12T11:37:16.000Z</time>
      </trkpt>
      <trkpt lat="47.50465" lon="6.77466">
        <ele>357.8</ele>
        <time>2017-02-12T11:37:17.000Z</time>
      </trkpt>
      <trkpt lat="47.50469" lon="6.77469">
        <ele>357</ele>
        <time>2017-02-12T11:37:18.000Z</time>
      </trkpt>
      <trkpt lat="47.50471" lon="6.77471">
        <ele>356.9</ele>
        <time>2017-02-12T11:37:19.000Z</time>
      </trkpt>
      <trkpt lat="47.50475" lon="6.77474">
        <ele>356.9</ele>
        <time>2017-02-12T11:37:20.000Z</time>
      </trkpt>
      <trkpt lat="47.50479" lon="6.77477">
        <ele>357.8</ele>
        <time>2017-02-12T11:37:21.000Z</time>
      </trkpt>
      <trkpt lat="47.50483" lon="6.77481">
        <ele>357.8</ele>
        <time>2017-02-12T11:37:22.000Z</time>
      </trkpt>
      <trkpt lat="47.50487" lon="6.77484">
        <ele>357.8</ele>
        <time>2017-02-12T11:37:23.000Z</time>
      </trkpt>
      <trkpt lat="47.50491" lon="6.77487">
        <ele>358</ele>
        <time>2017-02-12T11:37:24.000Z</time>
      </trkpt>
      <trkpt lat="47.50495" lon="6.7749">
        <ele>358.6</ele>
        <time>2017-02-12T11:37:25.000Z</time>
      </trkpt>
      <trkpt lat="47.50499" lon="6.77493">
        <ele>359.2</ele>
        <time>2017-02-12T11:37:26.000Z</time>
      </trkpt>
      <trkpt lat="47.50502" lon="6.77495">
        <ele>358.4</ele>
        <time>2017-02-12T11:37:27.000Z</time>
      </trkpt>
      <trkpt lat="47.50506" lon="6.77499">
        <ele>357.7</ele>
        <time>2017-02-12T11:37:28.000Z</time>
      </trkpt>
      <trkpt lat="47.50509" lon="6.77501">
        <ele>357.2</ele>
        <time>2017-02-12T11:37:29.000Z</time>
      </trkpt>
      <trkpt lat="47.50514" lon="6.77504">
        <ele>357.1</ele>
        <time>2017-02-12T11:37:30.000Z</time>
      </trkpt>
      <trkpt lat="47.50517" lon="6.77507">
        <ele>357.8</ele>
        <time>2017-02-12T11:37:31.000Z</time>
      </trkpt>
      <trkpt lat="47.50521" lon="6.77509">
        <ele>357.9</ele>
        <time>2017-02-12T11:37:32.000Z</time>
      </trkpt>
      <trkpt lat="47.50525" lon="6.77511">
        <ele>358</ele>
        <time>2017-02-12T11:37:33.000Z</time>
      </trkpt>
      <trkpt lat="47.50528" lon="6.77514">
        <ele>358.2</ele>
        <time>2017-02-12T11:37:34.000Z</time>
      </trkpt>
      <trkpt lat="47.50533" lon="6.77516">
        <ele>357.8</ele>
        <time>2017-02-12T11:37:35.000Z</time>
      </trkpt>
      <trkpt lat="47.50538" lon="6.77518">
        <ele>357.8</ele>
        <time>2017-02-12T11:37:36.000Z</time>
      </trkpt>
      <trkpt lat="47.50542" lon="6.77521">
        <ele>357.5</ele>
        <time>2017-02-12T11:37:37.000Z</time>
      </trkpt>
      <trkpt lat="47.50545" lon="6.77524">
        <ele>357.4</ele>
        <time>2017-02-12T11:37:38.000Z</time>
      </trkpt>
      <trkpt lat="47.50548" lon="6.77528">
        <ele>357.6</ele>
        <time>2017-02-12T11:37:39.000Z</time>
      </trkpt>
      <trkpt lat="47.50551" lon="6.77532">
        <ele>357.9</ele>
        <time>2017-02-12T11:37:40.000Z</time>
      </trkpt>
      <trkpt lat="47.50554" lon="6.77537">
        <ele>358</ele>
        <time>2017-02-12T11:37:41.000Z</time>
      </trkpt>
      <trkpt lat="47.50556" lon="6.77542">
        <ele>358</ele>
        <time>2017-02-12T11:37:42.000Z</time>
      </trkpt>
      <trkpt lat="47.50557" lon="6.77548">
        <ele>358.1</ele>
        <time>2017-02-12T11:37:43.000Z</time>
      </trkpt>
      <trkpt lat="47.50561" lon="6.77551">
        <ele>358.1</ele>
        <time>2017-02-12T11:37:44.000Z</time>
      </trkpt>
      <trkpt lat="47.50563" lon="6.77552">
        <ele>358.1</ele>
        <time>2017-02-12T11:37:45.000Z</time>
      </trkpt>
      <trkpt lat="47.50567" lon="6.77553">
        <ele>358.1</ele>
        <time>2017-02-12T11:37:46.000Z</time>
      </trkpt>
      <trkpt lat="47.50571" lon="6.77554">
        <ele>358.2</ele>
        <time>2017-02-12T11:37:47.000Z</time>
      </trkpt>
      <trkpt lat="47.50575" lon="6.77554">
        <ele>358.2</ele>
        <time>2017-02-12T11:37:48.000Z</time>
      </trkpt>
      <trkpt lat="47.50578" lon="6.77551">
        <ele>358.3</ele>
        <time>2017-02-12T11:37:49.000Z</time>
      </trkpt>
      <trkpt lat="47.50579" lon="6.77547">
        <ele>358.3</ele>
        <time>2017-02-12T11:37:50.000Z</time>
      </trkpt>
      <trkpt lat="47.5058" lon="6.77542">
        <ele>358.2</ele>
        <time>2017-02-12T11:37:51.000Z</time>
      </trkpt>
      <trkpt lat="47.50581" lon="6.77538">
        <ele>358.2</ele>
        <time>2017-02-12T11:37:52.000Z</time>
      </trkpt>
      <trkpt lat="47.50584" lon="6.77537">
        <ele>358.1</ele>
        <time>2017-02-12T11:37:53.000Z</time>
      </trkpt>
      <trkpt lat="47.50587" lon="6.77536">
        <ele>358.1</ele>
        <time>2017-02-12T11:37:54.000Z</time>
      </trkpt>
      <trkpt lat="47.50591" lon="6.77536">
        <ele>358.1</ele>
        <time>2017-02-12T11:37:55.000Z</time>
      </trkpt>
      <trkpt lat="47.50594" lon="6.77536">
        <ele>358.1</ele>
        <time>2017-02-12T11:37:56.000Z</time>
      </trkpt>
      <trkpt lat="47.50597" lon="6.77535">
        <ele>358.1</ele>
        <time>2017-02-12T11:37:57.000Z</time>
      </trkpt>
      <trkpt lat="47.506" lon="6.77534">
        <ele>358.2</ele>
        <time>2017-02-12T11:37:58.000Z</time>
      </trkpt>
      <trkpt lat="47.50603" lon="6.77534">
        <ele>358.2</ele>
        <time>2017-02-12T11:37:59.000Z</time>
      </trkpt>
      <trkpt lat="47.50608" lon="6.77534">
        <ele>358.3</ele>
        <time>2017-02-12T11:38:00.000Z</time>
      </trkpt>
      <trkpt lat="47.50611" lon="6.77534">
        <ele>358.3</ele>
        <time>2017-02-12T11:38:01.000Z</time>
      </trkpt>
      <trkpt lat="47.50613" lon="6.77534">
        <ele>358.3</ele>
        <time>2017-02-12T11:38:02.000Z</time>
      </trkpt>
      <trkpt lat="47.5062" lon="6.77533">
        <ele>358.3</ele>
        <time>2017-02-12T11:38:03.000Z</time>
      </trkpt>
      <trkpt lat="47.50624" lon="6.77532">
        <ele>358.3</ele>
        <time>2017-02-12T11:38:04.000Z</time>
      </trkpt>
      <trkpt lat="47.50627" lon="6.77532">
        <ele>358.2</ele>
        <time>2017-02-12T11:38:05.000Z</time>
      </trkpt>
      <trkpt lat="47.50631" lon="6.7753">
        <ele>358.2</ele>
        <time>2017-02-12T11:38:06.000Z</time>
      </trkpt>
      <trkpt lat="47.50634" lon="6.7753">
        <ele>358.2</ele>
        <time>2017-02-12T11:38:07.000Z</time>
      </trkpt>
      <trkpt lat="47.50638" lon="6.7753">
        <ele>358.2</ele>
        <time>2017-02-12T11:38:08.000Z</time>
      </trkpt>
      <trkpt lat="47.5064" lon="6.77531">
        <ele>358.3</ele>
        <time>2017-02-12T11:38:09.000Z</time>
      </trkpt>
      <trkpt lat="47.50643" lon="6.77533">
        <ele>358.4</ele>
        <time>2017-02-12T11:38:10.000Z</time>
      </trkpt>
      <trkpt lat="47.50646" lon="6.77534">
        <ele>358.4</ele>
        <time>2017-02-12T11:38:11.000Z</time>
      </trkpt>
      <trkpt lat="47.5065" lon="6.77535">
        <ele>358.4</ele>
        <time>2017-02-12T11:38:12.000Z</time>
      </trkpt>
      <trkpt lat="47.50654" lon="6.77535">
        <ele>359.1</ele>
        <time>2017-02-12T11:38:13.000Z</time>
      </trkpt>
      <trkpt lat="47.50657" lon="6.77537">
        <ele>359.1</ele>
        <time>2017-02-12T11:38:14.000Z</time>
      </trkpt>
      <trkpt lat="47.5066" lon="6.77537">
        <ele>359.1</ele>
        <time>2017-02-12T11:38:15.000Z</time>
      </trkpt>
      <trkpt lat="47.50664" lon="6.77536">
        <ele>359.5</ele>
        <time>2017-02-12T11:38:16.000Z</time>
      </trkpt>
      <trkpt lat="47.50668" lon="6.77535">
        <ele>359.6</ele>
        <time>2017-02-12T11:38:17.000Z</time>
      </trkpt>
      <trkpt lat="47.50672" lon="6.77535">
        <ele>359.6</ele>
        <time>2017-02-12T11:38:18.000Z</time>
      </trkpt>
      <trkpt lat="47.50676" lon="6.77534">
        <ele>360.4</ele>
        <time>2017-02-12T11:38:19.000Z</time>
      </trkpt>
      <trkpt lat="47.50679" lon="6.77534">
        <ele>361.2</ele>
        <time>2017-02-12T11:38:20.000Z</time>
      </trkpt>
      <trkpt lat="47.50683" lon="6.77534">
        <ele>362.2</ele>
        <time>2017-02-12T11:38:21.000Z</time>
      </trkpt>
      <trkpt lat="47.50688" lon="6.77533">
        <ele>362.5</ele>
        <time>2017-02-12T11:38:22.000Z</time>
      </trkpt>
      <trkpt lat="47.50691" lon="6.77534">
        <ele>362.5</ele>
        <time>2017-02-12T11:38:23.000Z</time>
      </trkpt>
      <trkpt lat="47.50696" lon="6.77534">
        <ele>362.2</ele>
        <time>2017-02-12T11:38:24.000Z</time>
      </trkpt>
      <trkpt lat="47.507" lon="6.77534">
        <ele>362.9</ele>
        <time>2017-02-12T11:38:25.000Z</time>
      </trkpt>
      <trkpt lat="47.50704" lon="6.77535">
        <ele>363.3</ele>
        <time>2017-02-12T11:38:26.000Z</time>
      </trkpt>
      <trkpt lat="47.50708" lon="6.77536">
        <ele>363.3</ele>
        <time>2017-02-12T11:38:27.000Z</time>
      </trkpt>
      <trkpt lat="47.50711" lon="6.77537">
        <ele>363.1</ele>
        <time>2017-02-12T11:38:28.000Z</time>
      </trkpt>
      <trkpt lat="47.50715" lon="6.77539">
        <ele>363.3</ele>
        <time>2017-02-12T11:38:29.000Z</time>
      </trkpt>
      <trkpt lat="47.50719" lon="6.7754">
        <ele>363.4</ele>
        <time>2017-02-12T11:38:30.000Z</time>
      </trkpt>
      <trkpt lat="47.50722" lon="6.77541">
        <ele>363.5</ele>
        <time>2017-02-12T11:38:31.000Z</time>
      </trkpt>
      <trkpt lat="47.50726" lon="6.77543">
        <ele>363.5</ele>
        <time>2017-02-12T11:38:32.000Z</time>
      </trkpt>
      <trkpt lat="47.5073" lon="6.77546">
        <ele>362.9</ele>
        <time>2017-02-12T11:38:33.000Z</time>
      </trkpt>
      <trkpt lat="47.50734" lon="6.77549">
        <ele>362.7</ele>
        <time>2017-02-12T11:38:34.000Z</time>
      </trkpt>
      <trkpt lat="47.50738" lon="6.77552">
        <ele>363.1</ele>
        <time>2017-02-12T11:38:35.000Z</time>
      </trkpt>
      <trkpt lat="47.50743" lon="6.77556">
        <ele>363.2</ele>
        <time>2017-02-12T11:38:36.000Z</time>
      </trkpt>
      <trkpt lat="47.50747" lon="6.77559">
        <ele>363.3</ele>
        <time>2017-02-12T11:38:37.000Z</time>
      </trkpt>
      <trkpt lat="47.5075" lon="6.77562">
        <ele>363.4</ele>
        <time>2017-02-12T11:38:38.000Z</time>
      </trkpt>
      <trkpt lat="47.50753" lon="6.77564">
        <ele>364</ele>
        <time>2017-02-12T11:38:39.000Z</time>
      </trkpt>
      <trkpt lat="47.50757" lon="6.77567">
        <ele>364.4</ele>
        <time>2017-02-12T11:38:40.000Z</time>
      </trkpt>
      <trkpt lat="47.5076" lon="6.7757">
        <ele>365</ele>
        <time>2017-02-12T11:38:41.000Z</time>
      </trkpt>
      <trkpt lat="47.50764" lon="6.77573">
        <ele>365.4</ele>
        <time>2017-02-12T11:38:42.000Z</time>
      </trkpt>
      <trkpt lat="47.50768" lon="6.77576">
        <ele>365.5</ele>
        <time>2017-02-12T11:38:43.000Z</time>
      </trkpt>
      <trkpt lat="47.50772" lon="6.77579">
        <ele>365.3</ele>
        <time>2017-02-12T11:38:44.000Z</time>
      </trkpt>
      <trkpt lat="47.50776" lon="6.77582">
        <ele>365.3</ele>
        <time>2017-02-12T11:38:45.000Z</time>
      </trkpt>
      <trkpt lat="47.50779" lon="6.77584">
        <ele>364.9</ele>
        <time>2017-02-12T11:38:46.000Z</time>
      </trkpt>
      <trkpt lat="47.50783" lon="6.77587">
        <ele>364.7</ele>
        <time>2017-02-12T11:38:47.000Z</time>
      </trkpt>
      <trkpt lat="47.50786" lon="6.77589">
        <ele>364.7</ele>
        <time>2017-02-12T11:38:48.000Z</time>
      </trkpt>
      <trkpt lat="47.5079" lon="6.77592">
        <ele>364.6</ele>
        <time>2017-02-12T11:38:49.000Z</time>
      </trkpt>
      <trkpt lat="47.50794" lon="6.77595">
        <ele>364.7</ele>
        <time>2017-02-12T11:38:50.000Z</time>
      </trkpt>
      <trkpt lat="47.50797" lon="6.77597">
        <ele>364.8</ele>
        <time>2017-02-12T11:38:51.000Z</time>
      </trkpt>
      <trkpt lat="47.50801" lon="6.776">
        <ele>364.5</ele>
        <time>2017-02-12T11:38:52.000Z</time>
      </trkpt>
      <trkpt lat="47.50804" lon="6.77603">
        <ele>364.4</ele>
        <time>2017-02-12T11:38:53.000Z</time>
      </trkpt>
      <trkpt lat="47.50807" lon="6.77606">
        <ele>364.5</ele>
        <time>2017-02-12T11:38:54.000Z</time>
      </trkpt>
      <trkpt lat="47.50811" lon="6.77608">
        <ele>364.2</ele>
        <time>2017-02-12T11:38:55.000Z</time>
      </trkpt>
      <trkpt lat="47.50815" lon="6.77612">
        <ele>363.4</ele>
        <time>2017-02-12T11:38:56.000Z</time>
      </trkpt>
      <trkpt lat="47.50819" lon="6.77615">
        <ele>362.7</ele>
        <time>2017-02-12T11:38:57.000Z</time>
      </trkpt>
      <trkpt lat="47.50822" lon="6.77618">
        <ele>362.9</ele>
        <time>2017-02-12T11:38:58.000Z</time>
      </trkpt>
      <trkpt lat="47.50826" lon="6.77621">
        <ele>362.9</ele>
        <time>2017-02-12T11:38:59.000Z</time>
      </trkpt>
      <trkpt lat="47.5083" lon="6.77624">
        <ele>363.2</ele>
        <time>2017-02-12T11:39:00.000Z</time>
      </trkpt>
      <trkpt lat="47.50833" lon="6.77628">
        <ele>363.7</ele>
        <time>2017-02-12T11:39:01.000Z</time>
      </trkpt>
      <trkpt lat="47.50836" lon="6.77632">
        <ele>363.5</ele>
        <time>2017-02-12T11:39:02.000Z</time>
      </trkpt>
      <trkpt lat="47.50838" lon="6.77634">
        <ele>363.5</ele>
        <time>2017-02-12T11:39:03.000Z</time>
      </trkpt>
      <trkpt lat="47.50841" lon="6.77638">
        <ele>363.5</ele>
        <time>2017-02-12T11:39:04.000Z</time>
      </trkpt>
      <trkpt lat="47.50844" lon="6.77642">
        <ele>363.5</ele>
        <time>2017-02-12T11:39:05.000Z</time>
      </trkpt>
      <trkpt lat="47.50847" lon="6.77646">
        <ele>362.8</ele>
        <time>2017-02-12T11:39:06.000Z</time>
      </trkpt>
      <trkpt lat="47.5085" lon="6.77651">
        <ele>362.7</ele>
        <time>2017-02-12T11:39:07.000Z</time>
      </trkpt>
      <trkpt lat="47.50853" lon="6.77656">
        <ele>362.6</ele>
        <time>2017-02-12T11:39:08.000Z</time>
      </trkpt>
      <trkpt lat="47.50856" lon="6.7766">
        <ele>362.7</ele>
        <time>2017-02-12T11:39:09.000Z</time>
      </trkpt>
      <trkpt lat="47.50859" lon="6.77665">
        <ele>362.8</ele>
        <time>2017-02-12T11:39:10.000Z</time>
      </trkpt>
      <trkpt lat="47.50862" lon="6.77669">
        <ele>363</ele>
        <time>2017-02-12T11:39:11.000Z</time>
      </trkpt>
      <trkpt lat="47.50865" lon="6.77673">
        <ele>363.2</ele>
        <time>2017-02-12T11:39:12.000Z</time>
      </trkpt>
      <trkpt lat="47.50868" lon="6.77678">
        <ele>363.9</ele>
        <time>2017-02-12T11:39:13.000Z</time>
      </trkpt>
      <trkpt lat="47.5087" lon="6.77683">
        <ele>363.9</ele>
        <time>2017-02-12T11:39:14.000Z</time>
      </trkpt>
      <trkpt lat="47.50872" lon="6.77687">
        <ele>363.8</ele>
        <time>2017-02-12T11:39:15.000Z</time>
      </trkpt>
      <trkpt lat="47.50873" lon="6.7769">
        <ele>363.9</ele>
        <time>2017-02-12T11:39:16.000Z</time>
      </trkpt>
      <trkpt lat="47.50875" lon="6.77694">
        <ele>363.9</ele>
        <time>2017-02-12T11:39:17.000Z</time>
      </trkpt>
      <trkpt lat="47.50878" lon="6.77698">
        <ele>363.9</ele>
        <time>2017-02-12T11:39:18.000Z</time>
      </trkpt>
      <trkpt lat="47.5088" lon="6.77702">
        <ele>363.9</ele>
        <time>2017-02-12T11:39:19.000Z</time>
      </trkpt>
      <trkpt lat="47.50882" lon="6.77705">
        <ele>363.8</ele>
        <time>2017-02-12T11:39:20.000Z</time>
      </trkpt>
      <trkpt lat="47.50884" lon="6.77706">
        <ele>363.7</ele>
        <time>2017-02-12T11:39:21.000Z</time>
      </trkpt>
      <trkpt lat="47.50887" lon="6.77706">
        <ele>363.7</ele>
        <time>2017-02-12T11:39:22.000Z</time>
      </trkpt>
      <trkpt lat="47.5089" lon="6.77706">
        <ele>363.6</ele>
        <time>2017-02-12T11:39:23.000Z</time>
      </trkpt>
      <trkpt lat="47.50893" lon="6.77705">
        <ele>363.6</ele>
        <time>2017-02-12T11:39:24.000Z</time>
      </trkpt>
      <trkpt lat="47.50895" lon="6.77705">
        <ele>363.6</ele>
        <time>2017-02-12T11:39:25.000Z</time>
      </trkpt>
      <trkpt lat="47.50899" lon="6.77705">
        <ele>363.6</ele>
        <time>2017-02-12T11:39:27.000Z</time>
      </trkpt>
      <trkpt lat="47.50901" lon="6.77704">
        <ele>363.5</ele>
        <time>2017-02-12T11:39:28.000Z</time>
      </trkpt>
      <trkpt lat="47.50904" lon="6.77702">
        <ele>363.5</ele>
        <time>2017-02-12T11:39:30.000Z</time>
      </trkpt>
      <trkpt lat="47.50906" lon="6.77701">
        <ele>363.4</ele>
        <time>2017-02-12T11:39:31.000Z</time>
      </trkpt>
      <trkpt lat="47.50908" lon="6.77701">
        <ele>363.3</ele>
        <time>2017-02-12T11:39:32.000Z</time>
      </trkpt>
      <trkpt lat="47.50911" lon="6.777">
        <ele>363.3</ele>
        <time>2017-02-12T11:39:33.000Z</time>
      </trkpt>
      <trkpt lat="47.50914" lon="6.777">
        <ele>363.2</ele>
        <time>2017-02-12T11:39:34.000Z</time>
      </trkpt>
      <trkpt lat="47.50917" lon="6.777">
        <ele>363.2</ele>
        <time>2017-02-12T11:39:35.000Z</time>
      </trkpt>
      <trkpt lat="47.50921" lon="6.77702">
        <ele>363.2</ele>
        <time>2017-02-12T11:39:36.000Z</time>
      </trkpt>
      <trkpt lat="47.50925" lon="6.77703">
        <ele>363.1</ele>
        <time>2017-02-12T11:39:37.000Z</time>
      </trkpt>
      <trkpt lat="47.50929" lon="6.77703">
        <ele>363</ele>
        <time>2017-02-12T11:39:38.000Z</time>
      </trkpt>
      <trkpt lat="47.50933" lon="6.77703">
        <ele>363.1</ele>
        <time>2017-02-12T11:39:39.000Z</time>
      </trkpt>
      <trkpt lat="47.50936" lon="6.77703">
        <ele>363.1</ele>
        <time>2017-02-12T11:39:40.000Z</time>
      </trkpt>
      <trkpt lat="47.50938" lon="6.77704">
        <ele>363.1</ele>
        <time>2017-02-12T11:39:41.000Z</time>
      </trkpt>
      <trkpt lat="47.50942" lon="6.77704">
        <ele>363.4</ele>
        <time>2017-02-12T11:39:47.000Z</time>
      </trkpt>
      <trkpt lat="47.50944" lon="6.77705">
        <ele>363.4</ele>
        <time>2017-02-12T11:39:48.000Z</time>
      </trkpt>
      <trkpt lat="47.50947" lon="6.77705">
        <ele>363.4</ele>
        <time>2017-02-12T11:39:49.000Z</time>
      </trkpt>
      <trkpt lat="47.5095" lon="6.77705">
        <ele>363.4</ele>
        <time>2017-02-12T11:39:50.000Z</time>
      </trkpt>
      <trkpt lat="47.50952" lon="6.77702">
        <ele>363.5</ele>
        <time>2017-02-12T11:39:51.000Z</time>
      </trkpt>
      <trkpt lat="47.50955" lon="6.777">
        <ele>363.5</ele>
        <time>2017-02-12T11:39:52.000Z</time>
      </trkpt>
      <trkpt lat="47.50958" lon="6.77699">
        <ele>363.5</ele>
        <time>2017-02-12T11:39:53.000Z</time>
      </trkpt>
      <trkpt lat="47.50961" lon="6.77698">
        <ele>363.6</ele>
        <time>2017-02-12T11:39:54.000Z</time>
      </trkpt>
      <trkpt lat="47.50964" lon="6.77699">
        <ele>363.6</ele>
        <time>2017-02-12T11:39:55.000Z</time>
      </trkpt>
      <trkpt lat="47.50967" lon="6.77702">
        <ele>363.6</ele>
        <time>2017-02-12T11:39:56.000Z</time>
      </trkpt>
      <trkpt lat="47.5097" lon="6.77704">
        <ele>363.6</ele>
        <time>2017-02-12T11:39:57.000Z</time>
      </trkpt>
      <trkpt lat="47.50974" lon="6.77706">
        <ele>363.6</ele>
        <time>2017-02-12T11:39:58.000Z</time>
      </trkpt>
      <trkpt lat="47.50977" lon="6.77708">
        <ele>363.6</ele>
        <time>2017-02-12T11:39:59.000Z</time>
      </trkpt>
      <trkpt lat="47.50981" lon="6.7771">
        <ele>363.5</ele>
        <time>2017-02-12T11:40:00.000Z</time>
      </trkpt>
      <trkpt lat="47.50985" lon="6.77712">
        <ele>363.5</ele>
        <time>2017-02-12T11:40:01.000Z</time>
      </trkpt>
      <trkpt lat="47.50988" lon="6.77714">
        <ele>363.4</ele>
        <time>2017-02-12T11:40:02.000Z</time>
      </trkpt>
      <trkpt lat="47.50991" lon="6.77717">
        <ele>363.2</ele>
        <time>2017-02-12T11:40:03.000Z</time>
      </trkpt>
      <trkpt lat="47.50993" lon="6.77719">
        <ele>363.2</ele>
        <time>2017-02-12T11:40:04.000Z</time>
      </trkpt>
      <trkpt lat="47.50996" lon="6.77722">
        <ele>363.1</ele>
        <time>2017-02-12T11:40:05.000Z</time>
      </trkpt>
      <trkpt lat="47.50999" lon="6.77725">
        <ele>363</ele>
        <time>2017-02-12T11:40:06.000Z</time>
      </trkpt>
      <trkpt lat="47.51002" lon="6.77726">
        <ele>363</ele>
        <time>2017-02-12T11:40:07.000Z</time>
      </trkpt>
      <trkpt lat="47.51005" lon="6.77728">
        <ele>363</ele>
        <time>2017-02-12T11:40:08.000Z</time>
      </trkpt>
      <trkpt lat="47.51006" lon="6.7773">
        <ele>363</ele>
        <time>2017-02-12T11:40:09.000Z</time>
      </trkpt>
      <trkpt lat="47.51009" lon="6.77731">
        <ele>363</ele>
        <time>2017-02-12T11:40:10.000Z</time>
      </trkpt>
      <trkpt lat="47.51011" lon="6.77734">
        <ele>363</ele>
        <time>2017-02-12T11:40:11.000Z</time>
      </trkpt>
      <trkpt lat="47.51014" lon="6.77736">
        <ele>362.9</ele>
        <time>2017-02-12T11:40:12.000Z</time>
      </trkpt>
      <trkpt lat="47.51017" lon="6.77737">
        <ele>363</ele>
        <time>2017-02-12T11:40:13.000Z</time>
      </trkpt>
      <trkpt lat="47.51019" lon="6.7774">
        <ele>363</ele>
        <time>2017-02-12T11:40:14.000Z</time>
      </trkpt>
      <trkpt lat="47.51023" lon="6.77742">
        <ele>363</ele>
        <time>2017-02-12T11:40:15.000Z</time>
      </trkpt>
      <trkpt lat="47.51026" lon="6.77745">
        <ele>363.1</ele>
        <time>2017-02-12T11:40:16.000Z</time>
      </trkpt>
      <trkpt lat="47.5103" lon="6.77747">
        <ele>363</ele>
        <time>2017-02-12T11:40:17.000Z</time>
      </trkpt>
      <trkpt lat="47.51032" lon="6.7775">
        <ele>363.1</ele>
        <time>2017-02-12T11:40:18.000Z</time>
      </trkpt>
      <trkpt lat="47.51035" lon="6.77753">
        <ele>363.1</ele>
        <time>2017-02-12T11:40:19.000Z</time>
      </trkpt>
      <trkpt lat="47.51037" lon="6.77755">
        <ele>363.1</ele>
        <time>2017-02-12T11:40:20.000Z</time>
      </trkpt>
      <trkpt lat="47.5104" lon="6.77757">
        <ele>363.2</ele>
        <time>2017-02-12T11:40:21.000Z</time>
      </trkpt>
      <trkpt lat="47.51042" lon="6.7776">
        <ele>363.1</ele>
        <time>2017-02-12T11:40:22.000Z</time>
      </trkpt>
      <trkpt lat="47.51044" lon="6.77762">
        <ele>363.1</ele>
        <time>2017-02-12T11:40:23.000Z</time>
      </trkpt>
      <trkpt lat="47.51046" lon="6.77764">
        <ele>363</ele>
        <time>2017-02-12T11:40:24.000Z</time>
      </trkpt>
      <trkpt lat="47.5105" lon="6.77767">
        <ele>362.8</ele>
        <time>2017-02-12T11:40:27.000Z</time>
      </trkpt>
      <trkpt lat="47.51051" lon="6.77768">
        <ele>362.8</ele>
        <time>2017-02-12T11:40:28.000Z</time>
      </trkpt>
      <trkpt lat="47.51054" lon="6.7777">
        <ele>362.7</ele>
        <time>2017-02-12T11:40:29.000Z</time>
      </trkpt>
      <trkpt lat="47.51057" lon="6.77771">
        <ele>362.7</ele>
        <time>2017-02-12T11:40:30.000Z</time>
      </trkpt>
      <trkpt lat="47.51061" lon="6.77771">
        <ele>362.8</ele>
        <time>2017-02-12T11:40:32.000Z</time>
      </trkpt>
      <trkpt lat="47.51064" lon="6.77772">
        <ele>362.7</ele>
        <time>2017-02-12T11:40:33.000Z</time>
      </trkpt>
      <trkpt lat="47.51067" lon="6.77772">
        <ele>362.7</ele>
        <time>2017-02-12T11:40:34.000Z</time>
      </trkpt>
      <trkpt lat="47.51069" lon="6.77774">
        <ele>362.7</ele>
        <time>2017-02-12T11:40:35.000Z</time>
      </trkpt>
      <trkpt lat="47.51072" lon="6.77774">
        <ele>362.8</ele>
        <time>2017-02-12T11:40:36.000Z</time>
      </trkpt>
      <trkpt lat="47.51074" lon="6.77774">
        <ele>362.9</ele>
        <time>2017-02-12T11:40:37.000Z</time>
      </trkpt>
      <trkpt lat="47.51078" lon="6.77777">
        <ele>363</ele>
        <time>2017-02-12T11:40:39.000Z</time>
      </trkpt>
      <trkpt lat="47.5108" lon="6.77777">
        <ele>363</ele>
        <time>2017-02-12T11:40:40.000Z</time>
      </trkpt>
      <trkpt lat="47.51083" lon="6.77779">
        <ele>362.9</ele>
        <time>2017-02-12T11:40:41.000Z</time>
      </trkpt>
      <trkpt lat="47.51086" lon="6.77781">
        <ele>362.9</ele>
        <time>2017-02-12T11:40:42.000Z</time>
      </trkpt>
      <trkpt lat="47.51089" lon="6.77782">
        <ele>362.9</ele>
        <time>2017-02-12T11:40:43.000Z</time>
      </trkpt>
      <trkpt lat="47.51092" lon="6.77783">
        <ele>363</ele>
        <time>2017-02-12T11:40:44.000Z</time>
      </trkpt>
      <trkpt lat="47.51095" lon="6.77784">
        <ele>363.2</ele>
        <time>2017-02-12T11:40:45.000Z</time>
      </trkpt>
      <trkpt lat="47.51098" lon="6.77784">
        <ele>363.4</ele>
        <time>2017-02-12T11:40:46.000Z</time>
      </trkpt>
      <trkpt lat="47.51101" lon="6.77785">
        <ele>363.5</ele>
        <time>2017-02-12T11:40:47.000Z</time>
      </trkpt>
      <trkpt lat="47.51105" lon="6.77785">
        <ele>363.6</ele>
        <time>2017-02-12T11:40:48.000Z</time>
      </trkpt>
      <trkpt lat="47.51109" lon="6.77786">
        <ele>363.7</ele>
        <time>2017-02-12T11:40:49.000Z</time>
      </trkpt>
      <trkpt lat="47.51112" lon="6.77786">
        <ele>363.8</ele>
        <time>2017-02-12T11:40:50.000Z</time>
      </trkpt>
      <trkpt lat="47.51115" lon="6.77787">
        <ele>363.9</ele>
        <time>2017-02-12T11:40:51.000Z</time>
      </trkpt>
      <trkpt lat="47.51118" lon="6.77787">
        <ele>364</ele>
        <time>2017-02-12T11:40:52.000Z</time>
      </trkpt>
      <trkpt lat="47.51121" lon="6.77787">
        <ele>364.2</ele>
        <time>2017-02-12T11:40:53.000Z</time>
      </trkpt>
      <trkpt lat="47.51124" lon="6.77787">
        <ele>364.3</ele>
        <time>2017-02-12T11:40:54.000Z</time>
      </trkpt>
      <trkpt lat="47.51127" lon="6.77787">
        <ele>364.4</ele>
        <time>2017-02-12T11:40:55.000Z</time>
      </trkpt>
      <trkpt lat="47.51129" lon="6.77787">
        <ele>364.5</ele>
        <time>2017-02-12T11:40:56.000Z</time>
      </trkpt>
      <trkpt lat="47.51133" lon="6.77786">
        <ele>364.8</ele>
        <time>2017-02-12T11:40:59.000Z</time>
      </trkpt>
      <trkpt lat="47.51135" lon="6.77787">
        <ele>364.9</ele>
        <time>2017-02-12T11:41:00.000Z</time>
      </trkpt>
      <trkpt lat="47.51139" lon="6.77789">
        <ele>365.2</ele>
        <time>2017-02-12T11:41:03.000Z</time>
      </trkpt>
      <trkpt lat="47.5114" lon="6.7779">
        <ele>365.3</ele>
        <time>2017-02-12T11:41:04.000Z</time>
      </trkpt>
      <trkpt lat="47.51144" lon="6.77791">
        <ele>365.6</ele>
        <time>2017-02-12T11:41:06.000Z</time>
      </trkpt>
      <trkpt lat="47.51146" lon="6.77791">
        <ele>365.7</ele>
        <time>2017-02-12T11:41:07.000Z</time>
      </trkpt>
      <trkpt lat="47.51148" lon="6.77791">
        <ele>365.8</ele>
        <time>2017-02-12T11:41:08.000Z</time>
      </trkpt>
      <trkpt lat="47.5115" lon="6.7779">
        <ele>365.9</ele>
        <time>2017-02-12T11:41:09.000Z</time>
      </trkpt>
      <trkpt lat="47.51154" lon="6.7779">
        <ele>366.2</ele>
        <time>2017-02-12T11:41:11.000Z</time>
      </trkpt>
      <trkpt lat="47.51157" lon="6.77789">
        <ele>366.3</ele>
        <time>2017-02-12T11:41:12.000Z</time>
      </trkpt>
      <trkpt lat="47.51159" lon="6.77789">
        <ele>366.5</ele>
        <time>2017-02-12T11:41:13.000Z</time>
      </trkpt>
      <trkpt lat="47.51162" lon="6.77788">
        <ele>366.6</ele>
        <time>2017-02-12T11:41:14.000Z</time>
      </trkpt>
      <trkpt lat="47.51165" lon="6.77788">
        <ele>366.7</ele>
        <time>2017-02-12T11:41:15.000Z</time>
      </trkpt>
      <trkpt lat="47.51167" lon="6.77788">
        <ele>366.7</ele>
        <time>2017-02-12T11:41:16.000Z</time>
      </trkpt>
      <trkpt lat="47.51169" lon="6.77788">
        <ele>366.8</ele>
        <time>2017-02-12T11:41:17.000Z</time>
      </trkpt>
      <trkpt lat="47.51171" lon="6.77788">
        <ele>366.8</ele>
        <time>2017-02-12T11:41:18.000Z</time>
      </trkpt>
      <trkpt lat="47.51174" lon="6.77788">
        <ele>366.9</ele>
        <time>2017-02-12T11:41:19.000Z</time>
      </trkpt>
      <trkpt lat="47.51177" lon="6.77788">
        <ele>367</ele>
        <time>2017-02-12T11:41:20.000Z</time>
      </trkpt>
      <trkpt lat="47.5118" lon="6.77787">
        <ele>367.3</ele>
        <time>2017-02-12T11:41:22.000Z</time>
      </trkpt>
      <trkpt lat="47.51182" lon="6.77786">
        <ele>367.4</ele>
        <time>2017-02-12T11:41:23.000Z</time>
      </trkpt>
      <trkpt lat="47.51186" lon="6.77785">
        <ele>367.6</ele>
        <time>2017-02-12T11:41:25.000Z</time>
      </trkpt>
      <trkpt lat="47.51188" lon="6.77785">
        <ele>367.8</ele>
        <time>2017-02-12T11:41:26.000Z</time>
      </trkpt>
      <trkpt lat="47.51193" lon="6.77784">
        <ele>368</ele>
        <time>2017-02-12T11:41:28.000Z</time>
      </trkpt>
      <trkpt lat="47.51194" lon="6.77784">
        <ele>368.1</ele>
        <time>2017-02-12T11:41:29.000Z</time>
      </trkpt>
      <trkpt lat="47.51198" lon="6.77785">
        <ele>368.3</ele>
        <time>2017-02-12T11:41:31.000Z</time>
      </trkpt>
      <trkpt lat="47.51201" lon="6.77786">
        <ele>368.5</ele>
        <time>2017-02-12T11:41:32.000Z</time>
      </trkpt>
      <trkpt lat="47.51204" lon="6.77786">
        <ele>368.7</ele>
        <time>2017-02-12T11:41:34.000Z</time>
      </trkpt>
      <trkpt lat="47.51206" lon="6.77786">
        <ele>368.8</ele>
        <time>2017-02-12T11:41:35.000Z</time>
      </trkpt>
      <trkpt lat="47.51209" lon="6.77786">
        <ele>369.1</ele>
        <time>2017-02-12T11:41:38.000Z</time>
      </trkpt>
      <trkpt lat="47.51211" lon="6.77786">
        <ele>369.2</ele>
        <time>2017-02-12T11:41:39.000Z</time>
      </trkpt>
      <trkpt lat="47.51214" lon="6.77786">
        <ele>369.5</ele>
        <time>2017-02-12T11:41:41.000Z</time>
      </trkpt>
      <trkpt lat="47.51216" lon="6.77786">
        <ele>369.6</ele>
        <time>2017-02-12T11:41:42.000Z</time>
      </trkpt>
      <trkpt lat="47.5122" lon="6.77786">
        <ele>370.2</ele>
        <time>2017-02-12T11:41:45.000Z</time>
      </trkpt>
      <trkpt lat="47.51221" lon="6.77786">
        <ele>370.5</ele>
        <time>2017-02-12T11:41:46.000Z</time>
      </trkpt>
      <trkpt lat="47.51224" lon="6.77786">
        <ele>370.9</ele>
        <time>2017-02-12T11:41:48.000Z</time>
      </trkpt>
      <trkpt lat="47.51226" lon="6.77786">
        <ele>371.1</ele>
        <time>2017-02-12T11:41:49.000Z</time>
      </trkpt>
      <trkpt lat="47.51228" lon="6.77785">
        <ele>371.6</ele>
        <time>2017-02-12T11:41:51.000Z</time>
      </trkpt>
      <trkpt lat="47.5123" lon="6.77785">
        <ele>371.8</ele>
        <time>2017-02-12T11:41:52.000Z</time>
      </trkpt>
      <trkpt lat="47.51234" lon="6.77786">
        <ele>372.2</ele>
        <time>2017-02-12T11:41:54.000Z</time>
      </trkpt>
      <trkpt lat="47.51236" lon="6.77787">
        <ele>372.3</ele>
        <time>2017-02-12T11:41:55.000Z</time>
      </trkpt>
      <trkpt lat="47.51239" lon="6.77787">
        <ele>372.5</ele>
        <time>2017-02-12T11:41:57.000Z</time>
      </trkpt>
      <trkpt lat="47.51241" lon="6.77787">
        <ele>372.6</ele>
        <time>2017-02-12T11:41:58.000Z</time>
      </trkpt>
      <trkpt lat="47.51245" lon="6.77785">
        <ele>372.8</ele>
        <time>2017-02-12T11:42:00.000Z</time>
      </trkpt>
      <trkpt lat="47.51246" lon="6.77785">
        <ele>372.8</ele>
        <time>2017-02-12T11:42:01.000Z</time>
      </trkpt>
      <trkpt lat="47.51249" lon="6.77785">
        <ele>373.1</ele>
        <time>2017-02-12T11:42:03.000Z</time>
      </trkpt>
      <trkpt lat="47.51251" lon="6.77785">
        <ele>373.2</ele>
        <time>2017-02-12T11:42:04.000Z</time>
      </trkpt>
      <trkpt lat="47.51255" lon="6.77784">
        <ele>373.6</ele>
        <time>2017-02-12T11:42:07.000Z</time>
      </trkpt>
      <trkpt lat="47.51257" lon="6.77784">
        <ele>373.7</ele>
        <time>2017-02-12T11:42:08.000Z</time>
      </trkpt>
      <trkpt lat="47.5126" lon="6.77783">
        <ele>374</ele>
        <time>2017-02-12T11:42:10.000Z</time>
      </trkpt>
      <trkpt lat="47.51262" lon="6.77783">
        <ele>374.1</ele>
        <time>2017-02-12T11:42:11.000Z</time>
      </trkpt>
      <trkpt lat="47.51266" lon="6.77781">
        <ele>374.3</ele>
        <time>2017-02-12T11:42:13.000Z</time>
      </trkpt>
      <trkpt lat="47.51267" lon="6.77781">
        <ele>374.4</ele>
        <time>2017-02-12T11:42:14.000Z</time>
      </trkpt>
      <trkpt lat="47.5127" lon="6.77781">
        <ele>374.6</ele>
        <time>2017-02-12T11:42:16.000Z</time>
      </trkpt>
      <trkpt lat="47.51272" lon="6.77781">
        <ele>374.6</ele>
        <time>2017-02-12T11:42:17.000Z</time>
      </trkpt>
      <trkpt lat="47.51276" lon="6.77781">
        <ele>374.8</ele>
        <time>2017-02-12T11:42:19.000Z</time>
      </trkpt>
      <trkpt lat="47.51278" lon="6.7778">
        <ele>374.9</ele>
        <time>2017-02-12T11:42:20.000Z</time>
      </trkpt>
      <trkpt lat="47.51281" lon="6.7778">
        <ele>375</ele>
        <time>2017-02-12T11:42:22.000Z</time>
      </trkpt>
      <trkpt lat="47.51283" lon="6.77781">
        <ele>375.1</ele>
        <time>2017-02-12T11:42:23.000Z</time>
      </trkpt>
      <trkpt lat="47.51287" lon="6.7778">
        <ele>375.1</ele>
        <time>2017-02-12T11:42:25.000Z</time>
      </trkpt>
      <trkpt lat="47.51288" lon="6.7778">
        <ele>375.2</ele>
        <time>2017-02-12T11:42:26.000Z</time>
      </trkpt>
      <trkpt lat="47.51291" lon="6.7778">
        <ele>375.3</ele>
        <time>2017-02-12T11:42:28.000Z</time>
      </trkpt>
      <trkpt lat="47.51293" lon="6.7778">
        <ele>375.5</ele>
        <time>2017-02-12T11:42:29.000Z</time>
      </trkpt>
      <trkpt lat="47.51296" lon="6.7778">
        <ele>375.6</ele>
        <time>2017-02-12T11:42:31.000Z</time>
      </trkpt>
      <trkpt lat="47.51298" lon="6.77779">
        <ele>375.7</ele>
        <time>2017-02-12T11:42:32.000Z</time>
      </trkpt>
      <trkpt lat="47.51301" lon="6.77779">
        <ele>376</ele>
        <time>2017-02-12T11:42:34.000Z</time>
      </trkpt>
      <trkpt lat="47.51303" lon="6.77779">
        <ele>376.1</ele>
        <time>2017-02-12T11:42:35.000Z</time>
      </trkpt>
      <trkpt lat="47.51306" lon="6.77779">
        <ele>376.7</ele>
        <time>2017-02-12T11:42:38.000Z</time>
      </trkpt>
      <trkpt lat="47.51309" lon="6.77779">
        <ele>376.8</ele>
        <time>2017-02-12T11:42:39.000Z</time>
      </trkpt>
      <trkpt lat="47.51312" lon="6.77777">
        <ele>377.1</ele>
        <time>2017-02-12T11:42:41.000Z</time>
      </trkpt>
      <trkpt lat="47.51313" lon="6.77777">
        <ele>377.3</ele>
        <time>2017-02-12T11:42:42.000Z</time>
      </trkpt>
      <trkpt lat="47.51316" lon="6.77777">
        <ele>377.7</ele>
        <time>2017-02-12T11:42:44.000Z</time>
      </trkpt>
      <trkpt lat="47.51318" lon="6.77777">
        <ele>377.8</ele>
        <time>2017-02-12T11:42:45.000Z</time>
      </trkpt>
      <trkpt lat="47.51323" lon="6.77775">
        <ele>378.5</ele>
        <time>2017-02-12T11:42:49.000Z</time>
      </trkpt>
      <trkpt lat="47.51324" lon="6.77775">
        <ele>378.6</ele>
        <time>2017-02-12T11:42:50.000Z</time>
      </trkpt>
      <trkpt lat="47.51327" lon="6.77777">
        <ele>379</ele>
        <time>2017-02-12T11:42:53.000Z</time>
      </trkpt>
      <trkpt lat="47.51329" lon="6.77778">
        <ele>379.2</ele>
        <time>2017-02-12T11:42:54.000Z</time>
      </trkpt>
      <trkpt lat="47.51331" lon="6.77782">
        <ele>379.9</ele>
        <time>2017-02-12T11:42:57.000Z</time>
      </trkpt>
      <trkpt lat="47.51332" lon="6.77783">
        <ele>380.1</ele>
        <time>2017-02-12T11:42:58.000Z</time>
      </trkpt>
      <trkpt lat="47.51336" lon="6.77782">
        <ele>380.5</ele>
        <time>2017-02-12T11:43:01.000Z</time>
      </trkpt>
      <trkpt lat="47.51337" lon="6.77782">
        <ele>380.7</ele>
        <time>2017-02-12T11:43:02.000Z</time>
      </trkpt>
      <trkpt lat="47.51341" lon="6.7778">
        <ele>381.4</ele>
        <time>2017-02-12T11:43:05.000Z</time>
      </trkpt>
      <trkpt lat="47.51342" lon="6.7778">
        <ele>381.5</ele>
        <time>2017-02-12T11:43:06.000Z</time>
      </trkpt>
      <trkpt lat="47.51345" lon="6.77778">
        <ele>381.9</ele>
        <time>2017-02-12T11:43:08.000Z</time>
      </trkpt>
      <trkpt lat="47.51346" lon="6.77777">
        <ele>382.1</ele>
        <time>2017-02-12T11:43:09.000Z</time>
      </trkpt>
      <trkpt lat="47.5135" lon="6.77775">
        <ele>382.4</ele>
        <time>2017-02-12T11:43:12.000Z</time>
      </trkpt>
      <trkpt lat="47.51352" lon="6.77774">
        <ele>382.6</ele>
        <time>2017-02-12T11:43:13.000Z</time>
      </trkpt>
      <trkpt lat="47.51356" lon="6.77772">
        <ele>383</ele>
        <time>2017-02-12T11:43:16.000Z</time>
      </trkpt>
      <trkpt lat="47.51357" lon="6.77772">
        <ele>383.1</ele>
        <time>2017-02-12T11:43:17.000Z</time>
      </trkpt>
      <trkpt lat="47.5136" lon="6.77769">
        <ele>383.4</ele>
        <time>2017-02-12T11:43:19.000Z</time>
      </trkpt>
      <trkpt lat="47.51362" lon="6.77769">
        <ele>383.5</ele>
        <time>2017-02-12T11:43:20.000Z</time>
      </trkpt>
      <trkpt lat="47.51365" lon="6.77766">
        <ele>383.9</ele>
        <time>2017-02-12T11:43:23.000Z</time>
      </trkpt>
      <trkpt lat="47.51367" lon="6.77766">
        <ele>384</ele>
        <time>2017-02-12T11:43:24.000Z</time>
      </trkpt>
      <trkpt lat="47.5137" lon="6.77764">
        <ele>384.4</ele>
        <time>2017-02-12T11:43:26.000Z</time>
      </trkpt>
      <trkpt lat="47.51371" lon="6.77762">
        <ele>384.6</ele>
        <time>2017-02-12T11:43:27.000Z</time>
      </trkpt>
      <trkpt lat="47.51375" lon="6.7776">
        <ele>385.1</ele>
        <time>2017-02-12T11:43:30.000Z</time>
      </trkpt>
      <trkpt lat="47.51376" lon="6.77759">
        <ele>385.3</ele>
        <time>2017-02-12T11:43:31.000Z</time>
      </trkpt>
      <trkpt lat="47.5138" lon="6.77757">
        <ele>385.9</ele>
        <time>2017-02-12T11:43:34.000Z</time>
      </trkpt>
      <trkpt lat="47.51381" lon="6.77756">
        <ele>386</ele>
        <time>2017-02-12T11:43:35.000Z</time>
      </trkpt>
      <trkpt lat="47.51384" lon="6.77754">
        <ele>386.3</ele>
        <time>2017-02-12T11:43:37.000Z</time>
      </trkpt>
      <trkpt lat="47.51386" lon="6.77754">
        <ele>386.4</ele>
        <time>2017-02-12T11:43:38.000Z</time>
      </trkpt>
      <trkpt lat="47.51389" lon="6.77753">
        <ele>386.6</ele>
        <time>2017-02-12T11:43:40.000Z</time>
      </trkpt>
      <trkpt lat="47.5139" lon="6.77753">
        <ele>386.7</ele>
        <time>2017-02-12T11:43:41.000Z</time>
      </trkpt>
      <trkpt lat="47.51393" lon="6.77751">
        <ele>386.9</ele>
        <time>2017-02-12T11:43:43.000Z</time>
      </trkpt>
      <trkpt lat="47.51395" lon="6.77751">
        <ele>387</ele>
        <time>2017-02-12T11:43:44.000Z</time>
      </trkpt>
      <trkpt lat="47.51398" lon="6.77749">
        <ele>387.1</ele>
        <time>2017-02-12T11:43:46.000Z</time>
      </trkpt>
      <trkpt lat="47.514" lon="6.77749">
        <ele>387.2</ele>
        <time>2017-02-12T11:43:47.000Z</time>
      </trkpt>
      <trkpt lat="47.51403" lon="6.77747">
        <ele>387.6</ele>
        <time>2017-02-12T11:43:50.000Z</time>
      </trkpt>
      <trkpt lat="47.51404" lon="6.77747">
        <ele>387.7</ele>
        <time>2017-02-12T11:43:51.000Z</time>
      </trkpt>
      <trkpt lat="47.51407" lon="6.77743">
        <ele>388</ele>
        <time>2017-02-12T11:43:54.000Z</time>
      </trkpt>
      <trkpt lat="47.51408" lon="6.77741">
        <ele>388.1</ele>
        <time>2017-02-12T11:43:55.000Z</time>
      </trkpt>
      <trkpt lat="47.5141" lon="6.77739">
        <ele>388.3</ele>
        <time>2017-02-12T11:43:56.000Z</time>
      </trkpt>
      <trkpt lat="47.51412" lon="6.77738">
        <ele>388.4</ele>
        <time>2017-02-12T11:43:57.000Z</time>
      </trkpt>
      <trkpt lat="47.51416" lon="6.77739">
        <ele>388.6</ele>
        <time>2017-02-12T11:44:00.000Z</time>
      </trkpt>
      <trkpt lat="47.51418" lon="6.77738">
        <ele>388.6</ele>
        <time>2017-02-12T11:44:01.000Z</time>
      </trkpt>
      <trkpt lat="47.51421" lon="6.77735">
        <ele>388.9</ele>
        <time>2017-02-12T11:44:04.000Z</time>
      </trkpt>
      <trkpt lat="47.51422" lon="6.77735">
        <ele>388.9</ele>
        <time>2017-02-12T11:44:05.000Z</time>
      </trkpt>
      <trkpt lat="47.51425" lon="6.77734">
        <ele>389.1</ele>
        <time>2017-02-12T11:44:07.000Z</time>
      </trkpt>
      <trkpt lat="47.51427" lon="6.77733">
        <ele>389.2</ele>
        <time>2017-02-12T11:44:08.000Z</time>
      </trkpt>
      <trkpt lat="47.5143" lon="6.7773">
        <ele>389.3</ele>
        <time>2017-02-12T11:44:11.000Z</time>
      </trkpt>
      <trkpt lat="47.51431" lon="6.7773">
        <ele>389.2</ele>
        <time>2017-02-12T11:44:12.000Z</time>
      </trkpt>
      <trkpt lat="47.51435" lon="6.77729">
        <ele>389.4</ele>
        <time>2017-02-12T11:44:15.000Z</time>
      </trkpt>
      <trkpt lat="47.51436" lon="6.77728">
        <ele>389.4</ele>
        <time>2017-02-12T11:44:16.000Z</time>
      </trkpt>
      <trkpt lat="47.51439" lon="6.77728">
        <ele>389.4</ele>
        <time>2017-02-12T11:44:18.000Z</time>
      </trkpt>
      <trkpt lat="47.51441" lon="6.77727">
        <ele>389.5</ele>
        <time>2017-02-12T11:44:19.000Z</time>
      </trkpt>
      <trkpt lat="47.51444" lon="6.77727">
        <ele>389.5</ele>
        <time>2017-02-12T11:44:21.000Z</time>
      </trkpt>
      <trkpt lat="47.51446" lon="6.77726">
        <ele>389.5</ele>
        <time>2017-02-12T11:44:22.000Z</time>
      </trkpt>
      <trkpt lat="47.5145" lon="6.77727">
        <ele>389.3</ele>
        <time>2017-02-12T11:44:25.000Z</time>
      </trkpt>
      <trkpt lat="47.51451" lon="6.77727">
        <ele>389.2</ele>
        <time>2017-02-12T11:44:26.000Z</time>
      </trkpt>
      <trkpt lat="47.51455" lon="6.77728">
        <ele>389.3</ele>
        <time>2017-02-12T11:44:29.000Z</time>
      </trkpt>
      <trkpt lat="47.51456" lon="6.77728">
        <ele>389.3</ele>
        <time>2017-02-12T11:44:30.000Z</time>
      </trkpt>
      <trkpt lat="47.51459" lon="6.77728">
        <ele>389.5</ele>
        <time>2017-02-12T11:44:32.000Z</time>
      </trkpt>
      <trkpt lat="47.51461" lon="6.77728">
        <ele>389.7</ele>
        <time>2017-02-12T11:44:33.000Z</time>
      </trkpt>
      <trkpt lat="47.51465" lon="6.77726">
        <ele>390</ele>
        <time>2017-02-12T11:44:36.000Z</time>
      </trkpt>
      <trkpt lat="47.51466" lon="6.77726">
        <ele>390.1</ele>
        <time>2017-02-12T11:44:37.000Z</time>
      </trkpt>
      <trkpt lat="47.51469" lon="6.77725">
        <ele>390.4</ele>
        <time>2017-02-12T11:44:39.000Z</time>
      </trkpt>
      <trkpt lat="47.5147" lon="6.77725">
        <ele>390.5</ele>
        <time>2017-02-12T11:44:40.000Z</time>
      </trkpt>
      <trkpt lat="47.51474" lon="6.77727">
        <ele>390.9</ele>
        <time>2017-02-12T11:44:43.000Z</time>
      </trkpt>
      <trkpt lat="47.51475" lon="6.77726">
        <ele>391</ele>
        <time>2017-02-12T11:44:44.000Z</time>
      </trkpt>
      <trkpt lat="47.51479" lon="6.77727">
        <ele>391.4</ele>
        <time>2017-02-12T11:44:47.000Z</time>
      </trkpt>
      <trkpt lat="47.51481" lon="6.77726">
        <ele>391.6</ele>
        <time>2017-02-12T11:44:48.000Z</time>
      </trkpt>
      <trkpt lat="47.51485" lon="6.77726">
        <ele>392.1</ele>
        <time>2017-02-12T11:44:51.000Z</time>
      </trkpt>
      <trkpt lat="47.51487" lon="6.77726">
        <ele>392.3</ele>
        <time>2017-02-12T11:44:52.000Z</time>
      </trkpt>
      <trkpt lat="47.51491" lon="6.77724">
        <ele>392.8</ele>
        <time>2017-02-12T11:44:55.000Z</time>
      </trkpt>
      <trkpt lat="47.51492" lon="6.77724">
        <ele>393</ele>
        <time>2017-02-12T11:44:56.000Z</time>
      </trkpt>
      <trkpt lat="47.51496" lon="6.77725">
        <ele>394.2</ele>
        <time>2017-02-12T11:45:01.000Z</time>
      </trkpt>
      <trkpt lat="47.51497" lon="6.77725">
        <ele>394.5</ele>
        <time>2017-02-12T11:45:02.000Z</time>
      </trkpt>
      <trkpt lat="47.51501" lon="6.77723">
        <ele>395</ele>
        <time>2017-02-12T11:45:05.000Z</time>
      </trkpt>
      <trkpt lat="47.51502" lon="6.77722">
        <ele>395.2</ele>
        <time>2017-02-12T11:45:06.000Z</time>
      </trkpt>
      <trkpt lat="47.51505" lon="6.77721">
        <ele>395.6</ele>
        <time>2017-02-12T11:45:08.000Z</time>
      </trkpt>
      <trkpt lat="47.51507" lon="6.7772">
        <ele>395.9</ele>
        <time>2017-02-12T11:45:09.000Z</time>
      </trkpt>
      <trkpt lat="47.51511" lon="6.7772">
        <ele>396.3</ele>
        <time>2017-02-12T11:45:11.000Z</time>
      </trkpt>
      <trkpt lat="47.51513" lon="6.7772">
        <ele>396.5</ele>
        <time>2017-02-12T11:45:12.000Z</time>
      </trkpt>
      <trkpt lat="47.51516" lon="6.7772">
        <ele>396.9</ele>
        <time>2017-02-12T11:45:15.000Z</time>
      </trkpt>
      <trkpt lat="47.51517" lon="6.7772">
        <ele>397</ele>
        <time>2017-02-12T11:45:16.000Z</time>
      </trkpt>
      <trkpt lat="47.51521" lon="6.77719">
        <ele>397.8</ele>
        <time>2017-02-12T11:45:20.000Z</time>
      </trkpt>
      <trkpt lat="47.51522" lon="6.77719">
        <ele>398.1</ele>
        <time>2017-02-12T11:45:21.000Z</time>
      </trkpt>
      <trkpt lat="47.51525" lon="6.77718">
        <ele>398.9</ele>
        <time>2017-02-12T11:45:24.000Z</time>
      </trkpt>
      <trkpt lat="47.51527" lon="6.77718">
        <ele>399.2</ele>
        <time>2017-02-12T11:45:25.000Z</time>
      </trkpt>
      <trkpt lat="47.5153" lon="6.77718">
        <ele>400.1</ele>
        <time>2017-02-12T11:45:28.000Z</time>
      </trkpt>
      <trkpt lat="47.51532" lon="6.77718">
        <ele>400.3</ele>
        <time>2017-02-12T11:45:29.000Z</time>
      </trkpt>
      <trkpt lat="47.51535" lon="6.77718">
        <ele>401</ele>
        <time>2017-02-12T11:45:32.000Z</time>
      </trkpt>
      <trkpt lat="47.51536" lon="6.77719">
        <ele>401.2</ele>
        <time>2017-02-12T11:45:33.000Z</time>
      </trkpt>
      <trkpt lat="47.51539" lon="6.77719">
        <ele>401.5</ele>
        <time>2017-02-12T11:45:35.000Z</time>
      </trkpt>
      <trkpt lat="47.51541" lon="6.7772">
        <ele>401.7</ele>
        <time>2017-02-12T11:45:36.000Z</time>
      </trkpt>
      <trkpt lat="47.51545" lon="6.77722">
        <ele>402.2</ele>
        <time>2017-02-12T11:45:39.000Z</time>
      </trkpt>
      <trkpt lat="47.51545" lon="6.77722">
        <ele>402.3</ele>
        <time>2017-02-12T11:45:40.000Z</time>
      </trkpt>
      <trkpt lat="47.51549" lon="6.77722">
        <ele>402.9</ele>
        <time>2017-02-12T11:45:42.000Z</time>
      </trkpt>
      <trkpt lat="47.5155" lon="6.77721">
        <ele>403.1</ele>
        <time>2017-02-12T11:45:43.000Z</time>
      </trkpt>
      <trkpt lat="47.51553" lon="6.77723">
        <ele>403.6</ele>
        <time>2017-02-12T11:45:46.000Z</time>
      </trkpt>
      <trkpt lat="47.51555" lon="6.77724">
        <ele>403.8</ele>
        <time>2017-02-12T11:45:47.000Z</time>
      </trkpt>
      <trkpt lat="47.51558" lon="6.77726">
        <ele>404</ele>
        <time>2017-02-12T11:45:49.000Z</time>
      </trkpt>
      <trkpt lat="47.51559" lon="6.77726">
        <ele>404.1</ele>
        <time>2017-02-12T11:45:50.000Z</time>
      </trkpt>
      <trkpt lat="47.51563" lon="6.77727">
        <ele>404.5</ele>
        <time>2017-02-12T11:45:53.000Z</time>
      </trkpt>
      <trkpt lat="47.51565" lon="6.77728">
        <ele>404.7</ele>
        <time>2017-02-12T11:45:54.000Z</time>
      </trkpt>
      <trkpt lat="47.51568" lon="6.77729">
        <ele>405.2</ele>
        <time>2017-02-12T11:45:57.000Z</time>
      </trkpt>
      <trkpt lat="47.51569" lon="6.7773">
        <ele>405.3</ele>
        <time>2017-02-12T11:45:58.000Z</time>
      </trkpt>
      <trkpt lat="47.51573" lon="6.77731">
        <ele>406.5</ele>
        <time>2017-02-12T11:46:06.000Z</time>
      </trkpt>
      <trkpt lat="47.51575" lon="6.77733">
        <ele>406.7</ele>
        <time>2017-02-12T11:46:07.000Z</time>
      </trkpt>
      <trkpt lat="47.51578" lon="6.77735">
        <ele>407.2</ele>
        <time>2017-02-12T11:46:09.000Z</time>
      </trkpt>
      <trkpt lat="47.51581" lon="6.77737">
        <ele>407.4</ele>
        <time>2017-02-12T11:46:10.000Z</time>
      </trkpt>
      <trkpt lat="47.51583" lon="6.77738">
        <ele>407.5</ele>
        <time>2017-02-12T11:46:11.000Z</time>
      </trkpt>
      <trkpt lat="47.51585" lon="6.77739">
        <ele>407.6</ele>
        <time>2017-02-12T11:46:12.000Z</time>
      </trkpt>
      <trkpt lat="47.51589" lon="6.77741">
        <ele>408</ele>
        <time>2017-02-12T11:46:15.000Z</time>
      </trkpt>
      <trkpt lat="47.5159" lon="6.77742">
        <ele>408.1</ele>
        <time>2017-02-12T11:46:16.000Z</time>
      </trkpt>
      <trkpt lat="47.51591" lon="6.77746">
        <ele>408.7</ele>
        <time>2017-02-12T11:46:19.000Z</time>
      </trkpt>
      <trkpt lat="47.51593" lon="6.77748">
        <ele>408.9</ele>
        <time>2017-02-12T11:46:20.000Z</time>
      </trkpt>
      <trkpt lat="47.51596" lon="6.77752">
        <ele>409.7</ele>
        <time>2017-02-12T11:46:23.000Z</time>
      </trkpt>
      <trkpt lat="47.51597" lon="6.77753">
        <ele>409.9</ele>
        <time>2017-02-12T11:46:24.000Z</time>
      </trkpt>
      <trkpt lat="47.516" lon="6.77754">
        <ele>410.4</ele>
        <time>2017-02-12T11:46:26.000Z</time>
      </trkpt>
      <trkpt lat="47.51602" lon="6.77754">
        <ele>410.6</ele>
        <time>2017-02-12T11:46:27.000Z</time>
      </trkpt>
      <trkpt lat="47.51605" lon="6.77754">
        <ele>411.4</ele>
        <time>2017-02-12T11:46:30.000Z</time>
      </trkpt>
      <trkpt lat="47.51606" lon="6.77753">
        <ele>411.6</ele>
        <time>2017-02-12T11:46:31.000Z</time>
      </trkpt>
      <trkpt lat="47.51609" lon="6.77753">
        <ele>412.1</ele>
        <time>2017-02-12T11:46:33.000Z</time>
      </trkpt>
      <trkpt lat="47.51611" lon="6.77753">
        <ele>412.3</ele>
        <time>2017-02-12T11:46:34.000Z</time>
      </trkpt>
      <trkpt lat="47.51614" lon="6.77753">
        <ele>412.6</ele>
        <time>2017-02-12T11:46:35.000Z</time>
      </trkpt>
      <trkpt lat="47.51616" lon="6.77753">
        <ele>412.8</ele>
        <time>2017-02-12T11:46:36.000Z</time>
      </trkpt>
      <trkpt lat="47.5162" lon="6.77752">
        <ele>413.2</ele>
        <time>2017-02-12T11:46:38.000Z</time>
      </trkpt>
      <trkpt lat="47.51623" lon="6.77753">
        <ele>413.4</ele>
        <time>2017-02-12T11:46:39.000Z</time>
      </trkpt>
      <trkpt lat="47.51626" lon="6.77753">
        <ele>413.9</ele>
        <time>2017-02-12T11:46:42.000Z</time>
      </trkpt>
      <trkpt lat="47.51627" lon="6.77753">
        <ele>414</ele>
        <time>2017-02-12T11:46:43.000Z</time>
      </trkpt>
      <trkpt lat="47.51631" lon="6.77755">
        <ele>414.5</ele>
        <time>2017-02-12T11:46:46.000Z</time>
      </trkpt>
      <trkpt lat="47.51633" lon="6.77756">
        <ele>414.7</ele>
        <time>2017-02-12T11:46:47.000Z</time>
      </trkpt>
      <trkpt lat="47.51635" lon="6.77758">
        <ele>415</ele>
        <time>2017-02-12T11:46:49.000Z</time>
      </trkpt>
      <trkpt lat="47.51638" lon="6.77758">
        <ele>415.1</ele>
        <time>2017-02-12T11:46:50.000Z</time>
      </trkpt>
      <trkpt lat="47.51641" lon="6.77759">
        <ele>415.4</ele>
        <time>2017-02-12T11:46:52.000Z</time>
      </trkpt>
      <trkpt lat="47.51642" lon="6.7776">
        <ele>415.5</ele>
        <time>2017-02-12T11:46:53.000Z</time>
      </trkpt>
      <trkpt lat="47.51646" lon="6.77761">
        <ele>415.9</ele>
        <time>2017-02-12T11:46:56.000Z</time>
      </trkpt>
      <trkpt lat="47.51647" lon="6.77761">
        <ele>416.1</ele>
        <time>2017-02-12T11:46:57.000Z</time>
      </trkpt>
      <trkpt lat="47.51652" lon="6.77761">
        <ele>416.3</ele>
        <time>2017-02-12T11:47:02.000Z</time>
      </trkpt>
      <trkpt lat="47.51654" lon="6.77761">
        <ele>416.4</ele>
        <time>2017-02-12T11:47:03.000Z</time>
      </trkpt>
      <trkpt lat="47.51658" lon="6.77761">
        <ele>416.6</ele>
        <time>2017-02-12T11:47:05.000Z</time>
      </trkpt>
      <trkpt lat="47.5166" lon="6.77761">
        <ele>416.7</ele>
        <time>2017-02-12T11:47:06.000Z</time>
      </trkpt>
      <trkpt lat="47.51664" lon="6.77763">
        <ele>416.7</ele>
        <time>2017-02-12T11:47:08.000Z</time>
      </trkpt>
      <trkpt lat="47.51666" lon="6.77764">
        <ele>416.7</ele>
        <time>2017-02-12T11:47:09.000Z</time>
      </trkpt>
      <trkpt lat="47.5167" lon="6.77765">
        <ele>416.7</ele>
        <time>2017-02-12T11:47:11.000Z</time>
      </trkpt>
      <trkpt lat="47.51672" lon="6.77765">
        <ele>416.6</ele>
        <time>2017-02-12T11:47:12.000Z</time>
      </trkpt>
      <trkpt lat="47.51676" lon="6.77764">
        <ele>416.5</ele>
        <time>2017-02-12T11:47:14.000Z</time>
      </trkpt>
      <trkpt lat="47.51677" lon="6.77764">
        <ele>416.5</ele>
        <time>2017-02-12T11:47:15.000Z</time>
      </trkpt>
      <trkpt lat="47.51681" lon="6.77764">
        <ele>416.5</ele>
        <time>2017-02-12T11:47:18.000Z</time>
      </trkpt>
      <trkpt lat="47.51683" lon="6.77764">
        <ele>416.5</ele>
        <time>2017-02-12T11:47:19.000Z</time>
      </trkpt>
      <trkpt lat="47.51685" lon="6.77764">
        <ele>416.5</ele>
        <time>2017-02-12T11:47:20.000Z</time>
      </trkpt>
      <trkpt lat="47.51688" lon="6.77762">
        <ele>416.5</ele>
        <time>2017-02-12T11:47:21.000Z</time>
      </trkpt>
      <trkpt lat="47.5169" lon="6.7776">
        <ele>416.4</ele>
        <time>2017-02-12T11:47:22.000Z</time>
      </trkpt>
      <trkpt lat="47.51692" lon="6.77757">
        <ele>416.4</ele>
        <time>2017-02-12T11:47:23.000Z</time>
      </trkpt>
      <trkpt lat="47.51694" lon="6.77754">
        <ele>416.4</ele>
        <time>2017-02-12T11:47:26.000Z</time>
      </trkpt>
      <trkpt lat="47.51696" lon="6.77754">
        <ele>416.3</ele>
        <time>2017-02-12T11:47:27.000Z</time>
      </trkpt>
      <trkpt lat="47.51699" lon="6.77748">
        <ele>416.4</ele>
        <time>2017-02-12T11:47:30.000Z</time>
      </trkpt>
      <trkpt lat="47.517" lon="6.77747">
        <ele>416.4</ele>
        <time>2017-02-12T11:47:31.000Z</time>
      </trkpt>
      <trkpt lat="47.51701" lon="6.77742">
        <ele>416.9</ele>
        <time>2017-02-12T11:47:34.000Z</time>
      </trkpt>
      <trkpt lat="47.51702" lon="6.7774">
        <ele>417</ele>
        <time>2017-02-12T11:47:35.000Z</time>
      </trkpt>
      <trkpt lat="47.51703" lon="6.77736">
        <ele>417.5</ele>
        <time>2017-02-12T11:47:38.000Z</time>
      </trkpt>
      <trkpt lat="47.51703" lon="6.77733">
        <ele>417.6</ele>
        <time>2017-02-12T11:47:39.000Z</time>
      </trkpt>
      <trkpt lat="47.51704" lon="6.77727">
        <ele>417.9</ele>
        <time>2017-02-12T11:47:42.000Z</time>
      </trkpt>
      <trkpt lat="47.51705" lon="6.77724">
        <ele>418.1</ele>
        <time>2017-02-12T11:47:43.000Z</time>
      </trkpt>
      <trkpt lat="47.51704" lon="6.77719">
        <ele>418.6</ele>
        <time>2017-02-12T11:47:45.000Z</time>
      </trkpt>
      <trkpt lat="47.51704" lon="6.77717">
        <ele>418.7</ele>
        <time>2017-02-12T11:47:46.000Z</time>
      </trkpt>
      <trkpt lat="47.51706" lon="6.77712">
        <ele>419.2</ele>
        <time>2017-02-12T11:47:49.000Z</time>
      </trkpt>
      <trkpt lat="47.51706" lon="6.77711">
        <ele>419.4</ele>
        <time>2017-02-12T11:47:50.000Z</time>
      </trkpt>
      <trkpt lat="47.51709" lon="6.77706">
        <ele>420.1</ele>
        <time>2017-02-12T11:47:54.000Z</time>
      </trkpt>
      <trkpt lat="47.5171" lon="6.77706">
        <ele>420.2</ele>
        <time>2017-02-12T11:47:55.000Z</time>
      </trkpt>
      <trkpt lat="47.51712" lon="6.77701">
        <ele>420.7</ele>
        <time>2017-02-12T11:47:58.000Z</time>
      </trkpt>
      <trkpt lat="47.51711" lon="6.77698">
        <ele>421</ele>
        <time>2017-02-12T11:47:59.000Z</time>
      </trkpt>
      <trkpt lat="47.5171" lon="6.77693">
        <ele>421.5</ele>
        <time>2017-02-12T11:48:01.000Z</time>
      </trkpt>
      <trkpt lat="47.5171" lon="6.77691">
        <ele>421.8</ele>
        <time>2017-02-12T11:48:02.000Z</time>
      </trkpt>
      <trkpt lat="47.5171" lon="6.77686">
        <ele>422.2</ele>
        <time>2017-02-12T11:48:04.000Z</time>
      </trkpt>
      <trkpt lat="47.5171" lon="6.77683">
        <ele>422.3</ele>
        <time>2017-02-12T11:48:05.000Z</time>
      </trkpt>
      <trkpt lat="47.51709" lon="6.77677">
        <ele>422.8</ele>
        <time>2017-02-12T11:48:08.000Z</time>
      </trkpt>
      <trkpt lat="47.51709" lon="6.77675">
        <ele>422.9</ele>
        <time>2017-02-12T11:48:09.000Z</time>
      </trkpt>
      <trkpt lat="47.51709" lon="6.77669">
        <ele>423.2</ele>
        <time>2017-02-12T11:48:11.000Z</time>
      </trkpt>
      <trkpt lat="47.51709" lon="6.77665">
        <ele>423.4</ele>
        <time>2017-02-12T11:48:12.000Z</time>
      </trkpt>
      <trkpt lat="47.51709" lon="6.7766">
        <ele>423.8</ele>
        <time>2017-02-12T11:48:14.000Z</time>
      </trkpt>
      <trkpt lat="47.51709" lon="6.77657">
        <ele>424</ele>
        <time>2017-02-12T11:48:15.000Z</time>
      </trkpt>
      <trkpt lat="47.51709" lon="6.77652">
        <ele>424.3</ele>
        <time>2017-02-12T11:48:17.000Z</time>
      </trkpt>
      <trkpt lat="47.5171" lon="6.77649">
        <ele>424.5</ele>
        <time>2017-02-12T11:48:18.000Z</time>
      </trkpt>
      <trkpt lat="47.51711" lon="6.77643">
        <ele>425</ele>
        <time>2017-02-12T11:48:20.000Z</time>
      </trkpt>
      <trkpt lat="47.51711" lon="6.7764">
        <ele>425.1</ele>
        <time>2017-02-12T11:48:21.000Z</time>
      </trkpt>
      <trkpt lat="47.51711" lon="6.77634">
        <ele>425.6</ele>
        <time>2017-02-12T11:48:23.000Z</time>
      </trkpt>
      <trkpt lat="47.51711" lon="6.77632">
        <ele>425.7</ele>
        <time>2017-02-12T11:48:24.000Z</time>
      </trkpt>
      <trkpt lat="47.51712" lon="6.77626">
        <ele>426</ele>
        <time>2017-02-12T11:48:26.000Z</time>
      </trkpt>
      <trkpt lat="47.51712" lon="6.77624">
        <ele>426.2</ele>
        <time>2017-02-12T11:48:27.000Z</time>
      </trkpt>
      <trkpt lat="47.51712" lon="6.77619">
        <ele>426.4</ele>
        <time>2017-02-12T11:48:29.000Z</time>
      </trkpt>
      <trkpt lat="47.51712" lon="6.77616">
        <ele>426.5</ele>
        <time>2017-02-12T11:48:30.000Z</time>
      </trkpt>
      <trkpt lat="47.51712" lon="6.77611">
        <ele>426.8</ele>
        <time>2017-02-12T11:48:32.000Z</time>
      </trkpt>
      <trkpt lat="47.51712" lon="6.77609">
        <ele>426.9</ele>
        <time>2017-02-12T11:48:33.000Z</time>
      </trkpt>
      <trkpt lat="47.51712" lon="6.77602">
        <ele>427.5</ele>
        <time>2017-02-12T11:48:36.000Z</time>
      </trkpt>
      <trkpt lat="47.51712" lon="6.776">
        <ele>427.6</ele>
        <time>2017-02-12T11:48:37.000Z</time>
      </trkpt>
      <trkpt lat="47.51712" lon="6.77595">
        <ele>427.9</ele>
        <time>2017-02-12T11:48:39.000Z</time>
      </trkpt>
      <trkpt lat="47.51713" lon="6.77593">
        <ele>427.9</ele>
        <time>2017-02-12T11:48:40.000Z</time>
      </trkpt>
      <trkpt lat="47.51714" lon="6.77589">
        <ele>427.9</ele>
        <time>2017-02-12T11:48:43.000Z</time>
      </trkpt>
      <trkpt lat="47.51715" lon="6.77587">
        <ele>427.9</ele>
        <time>2017-02-12T11:48:44.000Z</time>
      </trkpt>
      <trkpt lat="47.51719" lon="6.77586">
        <ele>428.1</ele>
        <time>2017-02-12T11:48:46.000Z</time>
      </trkpt>
      <trkpt lat="47.5172" lon="6.77584">
        <ele>428.1</ele>
        <time>2017-02-12T11:48:47.000Z</time>
      </trkpt>
      <trkpt lat="47.5172" lon="6.77578">
        <ele>428.3</ele>
        <time>2017-02-12T11:48:49.000Z</time>
      </trkpt>
      <trkpt lat="47.51719" lon="6.77573">
        <ele>428.4</ele>
        <time>2017-02-12T11:48:50.000Z</time>
      </trkpt>
      <trkpt lat="47.51719" lon="6.7757">
        <ele>428.5</ele>
        <time>2017-02-12T11:48:51.000Z</time>
      </trkpt>
      <trkpt lat="47.51717" lon="6.77566">
        <ele>428.7</ele>
        <time>2017-02-12T11:48:52.000Z</time>
      </trkpt>
      <trkpt lat="47.51716" lon="6.77561">
        <ele>428.9</ele>
        <time>2017-02-12T11:48:53.000Z</time>
      </trkpt>
      <trkpt lat="47.51716" lon="6.77557">
        <ele>429</ele>
        <time>2017-02-12T11:48:54.000Z</time>
      </trkpt>
      <trkpt lat="47.51717" lon="6.77553">
        <ele>429.1</ele>
        <time>2017-02-12T11:48:55.000Z</time>
      </trkpt>
      <trkpt lat="47.51717" lon="6.7755">
        <ele>429.2</ele>
        <time>2017-02-12T11:48:56.000Z</time>
      </trkpt>
      <trkpt lat="47.51718" lon="6.77546">
        <ele>429.3</ele>
        <time>2017-02-12T11:48:57.000Z</time>
      </trkpt>
      <trkpt lat="47.51718" lon="6.77543">
        <ele>429.4</ele>
        <time>2017-02-12T11:48:58.000Z</time>
      </trkpt>
      <trkpt lat="47.51718" lon="6.77539">
        <ele>429.5</ele>
        <time>2017-02-12T11:48:59.000Z</time>
      </trkpt>
      <trkpt lat="47.51719" lon="6.77535">
        <ele>429.6</ele>
        <time>2017-02-12T11:49:00.000Z</time>
      </trkpt>
      <trkpt lat="47.5172" lon="6.77529">
        <ele>430</ele>
        <time>2017-02-12T11:49:02.000Z</time>
      </trkpt>
      <trkpt lat="47.5172" lon="6.77526">
        <ele>430.1</ele>
        <time>2017-02-12T11:49:03.000Z</time>
      </trkpt>
      <trkpt lat="47.51721" lon="6.77523">
        <ele>430.3</ele>
        <time>2017-02-12T11:49:04.000Z</time>
      </trkpt>
      <trkpt lat="47.51722" lon="6.77519">
        <ele>430.5</ele>
        <time>2017-02-12T11:49:05.000Z</time>
      </trkpt>
      <trkpt lat="47.51722" lon="6.77516">
        <ele>430.7</ele>
        <time>2017-02-12T11:49:06.000Z</time>
      </trkpt>
      <trkpt lat="47.51723" lon="6.77511">
        <ele>430.8</ele>
        <time>2017-02-12T11:49:07.000Z</time>
      </trkpt>
      <trkpt lat="47.51724" lon="6.77507">
        <ele>430.9</ele>
        <time>2017-02-12T11:49:08.000Z</time>
      </trkpt>
      <trkpt lat="47.51725" lon="6.77503">
        <ele>431</ele>
        <time>2017-02-12T11:49:09.000Z</time>
      </trkpt>
      <trkpt lat="47.51727" lon="6.77498">
        <ele>431</ele>
        <time>2017-02-12T11:49:10.000Z</time>
      </trkpt>
      <trkpt lat="47.51728" lon="6.77492">
        <ele>431.2</ele>
        <time>2017-02-12T11:49:11.000Z</time>
      </trkpt>
      <trkpt lat="47.51729" lon="6.77488">
        <ele>431.3</ele>
        <time>2017-02-12T11:49:12.000Z</time>
      </trkpt>
      <trkpt lat="47.5173" lon="6.77483">
        <ele>431.3</ele>
        <time>2017-02-12T11:49:13.000Z</time>
      </trkpt>
      <trkpt lat="47.51732" lon="6.7748">
        <ele>431.4</ele>
        <time>2017-02-12T11:49:14.000Z</time>
      </trkpt>
      <trkpt lat="47.51734" lon="6.7748">
        <ele>431.4</ele>
        <time>2017-02-12T11:49:15.000Z</time>
      </trkpt>
      <trkpt lat="47.51737" lon="6.7748">
        <ele>431.5</ele>
        <time>2017-02-12T11:49:16.000Z</time>
      </trkpt>
      <trkpt lat="47.51739" lon="6.7748">
        <ele>431.7</ele>
        <time>2017-02-12T11:49:17.000Z</time>
      </trkpt>
      <trkpt lat="47.51742" lon="6.7748">
        <ele>431.8</ele>
        <time>2017-02-12T11:49:18.000Z</time>
      </trkpt>
      <trkpt lat="47.51745" lon="6.7748">
        <ele>432</ele>
        <time>2017-02-12T11:49:19.000Z</time>
      </trkpt>
      <trkpt lat="47.51747" lon="6.77481">
        <ele>432.1</ele>
        <time>2017-02-12T11:49:20.000Z</time>
      </trkpt>
      <trkpt lat="47.5175" lon="6.77481">
        <ele>432.3</ele>
        <time>2017-02-12T11:49:21.000Z</time>
      </trkpt>
      <trkpt lat="47.51753" lon="6.77482">
        <ele>432.5</ele>
        <time>2017-02-12T11:49:22.000Z</time>
      </trkpt>
      <trkpt lat="47.51756" lon="6.77483">
        <ele>432.7</ele>
        <time>2017-02-12T11:49:23.000Z</time>
      </trkpt>
      <trkpt lat="47.5176" lon="6.77484">
        <ele>432.8</ele>
        <time>2017-02-12T11:49:24.000Z</time>
      </trkpt>
      <trkpt lat="47.51762" lon="6.77485">
        <ele>433</ele>
        <time>2017-02-12T11:49:25.000Z</time>
      </trkpt>
      <trkpt lat="47.51765" lon="6.77485">
        <ele>433.1</ele>
        <time>2017-02-12T11:49:26.000Z</time>
      </trkpt>
      <trkpt lat="47.51768" lon="6.77486">
        <ele>433.3</ele>
        <time>2017-02-12T11:49:27.000Z</time>
      </trkpt>
      <trkpt lat="47.51771" lon="6.77487">
        <ele>433.3</ele>
        <time>2017-02-12T11:49:28.000Z</time>
      </trkpt>
      <trkpt lat="47.51775" lon="6.77488">
        <ele>433.4</ele>
        <time>2017-02-12T11:49:29.000Z</time>
      </trkpt>
      <trkpt lat="47.51779" lon="6.77488">
        <ele>433.5</ele>
        <time>2017-02-12T11:49:30.000Z</time>
      </trkpt>
      <trkpt lat="47.51782" lon="6.77489">
        <ele>433.6</ele>
        <time>2017-02-12T11:49:31.000Z</time>
      </trkpt>
      <trkpt lat="47.51785" lon="6.77491">
        <ele>433.6</ele>
        <time>2017-02-12T11:49:32.000Z</time>
      </trkpt>
      <trkpt lat="47.51787" lon="6.77493">
        <ele>433.6</ele>
        <time>2017-02-12T11:49:33.000Z</time>
      </trkpt>
      <trkpt lat="47.51791" lon="6.77495">
        <ele>433.6</ele>
        <time>2017-02-12T11:49:34.000Z</time>
      </trkpt>
      <trkpt lat="47.51794" lon="6.77496">
        <ele>433.7</ele>
        <time>2017-02-12T11:49:35.000Z</time>
      </trkpt>
      <trkpt lat="47.51797" lon="6.77496">
        <ele>433.7</ele>
        <time>2017-02-12T11:49:36.000Z</time>
      </trkpt>
      <trkpt lat="47.518" lon="6.77497">
        <ele>433.7</ele>
        <time>2017-02-12T11:49:37.000Z</time>
      </trkpt>
      <trkpt lat="47.51802" lon="6.77498">
        <ele>433.7</ele>
        <time>2017-02-12T11:49:38.000Z</time>
      </trkpt>
      <trkpt lat="47.51805" lon="6.77499">
        <ele>433.8</ele>
        <time>2017-02-12T11:49:39.000Z</time>
      </trkpt>
      <trkpt lat="47.51805" lon="6.77493">
        <ele>433.7</ele>
        <time>2017-02-12T11:49:42.000Z</time>
      </trkpt>
      <trkpt lat="47.51804" lon="6.77492">
        <ele>433.7</ele>
        <time>2017-02-12T11:49:43.000Z</time>
      </trkpt>
      <trkpt lat="47.51801" lon="6.77491">
        <ele>433.8</ele>
        <time>2017-02-12T11:49:45.000Z</time>
      </trkpt>
      <trkpt lat="47.51799" lon="6.77491">
        <ele>433.8</ele>
        <time>2017-02-12T11:49:46.000Z</time>
      </trkpt>
      <trkpt lat="47.51799" lon="6.77495">
        <ele>434.3</ele>
        <time>2017-02-12T11:49:50.000Z</time>
      </trkpt>
      <trkpt lat="47.51804" lon="6.77493">
        <ele>434.2</ele>
        <time>2017-02-12T11:49:51.000Z</time>
      </trkpt>
      <trkpt lat="47.51806" lon="6.77489">
        <ele>433.8</ele>
        <time>2017-02-12T11:49:52.000Z</time>
      </trkpt>
      <trkpt lat="47.51805" lon="6.77481">
        <ele>433.7</ele>
        <time>2017-02-12T11:49:53.000Z</time>
      </trkpt>
      <trkpt lat="47.51805" lon="6.77472">
        <ele>434</ele>
        <time>2017-02-12T11:49:54.000Z</time>
      </trkpt>
      <trkpt lat="47.51806" lon="6.77478">
        <ele>434.4</ele>
        <time>2017-02-12T11:50:16.000Z</time>
      </trkpt>
      <trkpt lat="47.51806" lon="6.77478">
        <ele>434.4</ele>
        <time>2017-02-12T11:50:17.000Z</time>
      </trkpt>
      <trkpt lat="47.51802" lon="6.77481">
        <ele>434.7</ele>
        <time>2017-02-12T11:50:22.000Z</time>
      </trkpt>
      <trkpt lat="47.51801" lon="6.77481">
        <ele>434.7</ele>
        <time>2017-02-12T11:50:23.000Z</time>
      </trkpt>
      <trkpt lat="47.51805" lon="6.77478">
        <ele>436.1</ele>
        <time>2017-02-12T11:50:40.000Z</time>
      </trkpt>
      <trkpt lat="47.51805" lon="6.77475">
        <ele>436.1</ele>
        <time>2017-02-12T11:50:41.000Z</time>
      </trkpt>
      <trkpt lat="47.51804" lon="6.77469">
        <ele>435.9</ele>
        <time>2017-02-12T11:50:44.000Z</time>
      </trkpt>
      <trkpt lat="47.51804" lon="6.77468">
        <ele>435.9</ele>
        <time>2017-02-12T11:50:45.000Z</time>
      </trkpt>
      <trkpt lat="47.51806" lon="6.77462">
        <ele>435.6</ele>
        <time>2017-02-12T11:51:02.000Z</time>
      </trkpt>
      <trkpt lat="47.51806" lon="6.77462">
        <ele>435.6</ele>
        <time>2017-02-12T11:51:03.000Z</time>
      </trkpt>
      <trkpt lat="47.51804" lon="6.77467">
        <ele>436.5</ele>
        <time>2017-02-12T11:51:08.000Z</time>
      </trkpt>
      <trkpt lat="47.51804" lon="6.77469">
        <ele>436.7</ele>
        <time>2017-02-12T11:51:09.000Z</time>
      </trkpt>
      <trkpt lat="47.51804" lon="6.77475">
        <ele>437.7</ele>
        <time>2017-02-12T11:51:31.000Z</time>
      </trkpt>
      <trkpt lat="47.51803" lon="6.77476">
        <ele>437.8</ele>
        <time>2017-02-12T11:51:32.000Z</time>
      </trkpt>
      <trkpt lat="47.51801" lon="6.77474">
        <ele>439.2</ele>
        <time>2017-02-12T11:51:55.000Z</time>
      </trkpt>
      <trkpt lat="47.51799" lon="6.77469">
        <ele>439.2</ele>
        <time>2017-02-12T11:51:56.000Z</time>
      </trkpt>
      <trkpt lat="47.51801" lon="6.77469">
        <ele>437.2</ele>
        <time>2017-02-12T11:52:18.000Z</time>
      </trkpt>
    </trkseg>
  </trk>
</gpx>